<?xml version='1.0' encoding='UTF-8'?><gpx version="1.1" creator="JPX - https://github.com/jenetics/jpx" xmlns="http://www.topografix.com/GPX/1/1"><trk><trkseg><trkpt lat="43.3112485" lon="11.3393767"><ele>287.0</ele><time>2026-04-19T09:31:01.829Z</time></trkpt><trkpt lat="43.3113707" lon="11.3393734"><ele>287.0</ele><time>2026-04-19T09:31:02.828Z</time></trkpt><trkpt lat="43.3114732" lon="11.3393888"><ele>287.0</ele><time>2026-04-19T09:31:03.829Z</time></trkpt><trkpt lat="43.3115685" lon="11.3393936"><ele>287.0</ele><time>2026-04-19T09:31:04.829Z</time></trkpt><trkpt lat="43.3116436" lon="11.3393958"><ele>287.0</ele><time>2026-04-19T09:31:05.829Z</time></trkpt><trkpt lat="43.3116929" lon="11.3394673"><ele>287.0</ele><time>2026-04-19T09:31:07.829Z</time></trkpt><trkpt lat="43.3117055" lon="11.3395893"><ele>287.0</ele><time>2026-04-19T09:31:09.83Z</time></trkpt><trkpt lat="43.3117312" lon="11.3397535"><ele>287.0</ele><time>2026-04-19T09:31:11.829Z</time></trkpt><trkpt lat="43.3117547" lon="11.3398487"><ele>287.0</ele><time>2026-04-19T09:31:12.828Z</time></trkpt><trkpt lat="43.3117762" lon="11.3399558"><ele>287.0</ele><time>2026-04-19T09:31:13.83Z</time></trkpt><trkpt lat="43.3118035" lon="11.3400663"><ele>287.0</ele><time>2026-04-19T09:31:14.829Z</time></trkpt><trkpt lat="43.3118497" lon="11.3401809"><ele>287.0</ele><time>2026-04-19T09:31:15.829Z</time></trkpt><trkpt lat="43.3119099" lon="11.3402699"><ele>287.0</ele><time>2026-04-19T09:31:16.829Z</time></trkpt><trkpt lat="43.3119693" lon="11.3403559"><ele>287.0</ele><time>2026-04-19T09:31:17.83Z</time></trkpt><trkpt lat="43.3120461" lon="11.3404232"><ele>287.0</ele><time>2026-04-19T09:31:18.83Z</time></trkpt><trkpt lat="43.3121202" lon="11.3404749"><ele>287.0</ele><time>2026-04-19T09:31:19.83Z</time></trkpt><trkpt lat="43.3121936" lon="11.3405278"><ele>286.5</ele><time>2026-04-19T09:31:20.829Z</time></trkpt><trkpt lat="43.3122668" lon="11.3405821"><ele>286.0</ele><time>2026-04-19T09:31:21.83Z</time></trkpt><trkpt lat="43.3123358" lon="11.3406429"><ele>285.5</ele><time>2026-04-19T09:31:22.83Z</time></trkpt><trkpt lat="43.3123969" lon="11.3407147"><ele>285.0</ele><time>2026-04-19T09:31:23.829Z</time></trkpt><trkpt lat="43.3124473" lon="11.3407945"><ele>284.5</ele><time>2026-04-19T09:31:24.83Z</time></trkpt><trkpt lat="43.3124898" lon="11.3408742"><ele>284.0</ele><time>2026-04-19T09:31:25.83Z</time></trkpt><trkpt lat="43.3125256" lon="11.3409537"><ele>284.0</ele><time>2026-04-19T09:31:26.829Z</time></trkpt><trkpt lat="43.3125548" lon="11.3410987"><ele>284.0</ele><time>2026-04-19T09:31:28.829Z</time></trkpt><trkpt lat="43.3125677" lon="11.3412601"><ele>284.0</ele><time>2026-04-19T09:31:30.83Z</time></trkpt><trkpt lat="43.3125581" lon="11.3413472"><ele>284.0</ele><time>2026-04-19T09:31:31.829Z</time></trkpt><trkpt lat="43.3125386" lon="11.3414423"><ele>284.0</ele><time>2026-04-19T09:31:32.829Z</time></trkpt><trkpt lat="43.3125124" lon="11.3415512"><ele>284.0</ele><time>2026-04-19T09:31:33.83Z</time></trkpt><trkpt lat="43.3124769" lon="11.3416787"><ele>281.75</ele><time>2026-04-19T09:31:34.829Z</time></trkpt><trkpt lat="43.3124328" lon="11.3418164"><ele>279.5</ele><time>2026-04-19T09:31:35.829Z</time></trkpt><trkpt lat="43.3123843" lon="11.3419594"><ele>277.25</ele><time>2026-04-19T09:31:36.828Z</time></trkpt><trkpt lat="43.312339" lon="11.342106"><ele>275.0</ele><time>2026-04-19T09:31:37.83Z</time></trkpt><trkpt lat="43.3122959" lon="11.3422497"><ele>274.8</ele><time>2026-04-19T09:31:38.828Z</time></trkpt><trkpt lat="43.3122527" lon="11.3423836"><ele>274.6</ele><time>2026-04-19T09:31:39.829Z</time></trkpt><trkpt lat="43.3122026" lon="11.342503"><ele>274.4</ele><time>2026-04-19T09:31:40.83Z</time></trkpt><trkpt lat="43.3121404" lon="11.3426102"><ele>274.2</ele><time>2026-04-19T09:31:41.83Z</time></trkpt><trkpt lat="43.3120676" lon="11.3427091"><ele>274.0</ele><time>2026-04-19T09:31:42.83Z</time></trkpt><trkpt lat="43.3119895" lon="11.3428014"><ele>273.0</ele><time>2026-04-19T09:31:43.828Z</time></trkpt><trkpt lat="43.3119015" lon="11.3428788"><ele>272.0</ele><time>2026-04-19T09:31:44.829Z</time></trkpt><trkpt lat="43.3118104" lon="11.3429549"><ele>271.0</ele><time>2026-04-19T09:31:45.83Z</time></trkpt><trkpt lat="43.3117184" lon="11.3430295"><ele>270.0</ele><time>2026-04-19T09:31:46.83Z</time></trkpt><trkpt lat="43.3116259" lon="11.3431145"><ele>269.0</ele><time>2026-04-19T09:31:47.829Z</time></trkpt><trkpt lat="43.3115318" lon="11.343204"><ele>269.0</ele><time>2026-04-19T09:31:48.829Z</time></trkpt><trkpt lat="43.3114482" lon="11.3433091"><ele>269.0</ele><time>2026-04-19T09:31:49.83Z</time></trkpt><trkpt lat="43.3113671" lon="11.3434276"><ele>269.0</ele><time>2026-04-19T09:31:50.829Z</time></trkpt><trkpt lat="43.3112825" lon="11.3435478"><ele>269.0</ele><time>2026-04-19T09:31:51.829Z</time></trkpt><trkpt lat="43.3111981" lon="11.3436663"><ele>268.8</ele><time>2026-04-19T09:31:52.828Z</time></trkpt><trkpt lat="43.3111166" lon="11.3437581"><ele>268.59999999999997</ele><time>2026-04-19T09:31:53.829Z</time></trkpt><trkpt lat="43.3110494" lon="11.3438532"><ele>268.4</ele><time>2026-04-19T09:31:54.829Z</time></trkpt><trkpt lat="43.3109882" lon="11.3439455"><ele>268.2</ele><time>2026-04-19T09:31:55.829Z</time></trkpt><trkpt lat="43.3109356" lon="11.344035"><ele>268.0</ele><time>2026-04-19T09:31:56.829Z</time></trkpt><trkpt lat="43.3108852" lon="11.3441311"><ele>268.0</ele><time>2026-04-19T09:31:57.83Z</time></trkpt><trkpt lat="43.3108456" lon="11.3442468"><ele>268.0</ele><time>2026-04-19T09:31:58.83Z</time></trkpt><trkpt lat="43.3108069" lon="11.3443716"><ele>268.0</ele><time>2026-04-19T09:31:59.83Z</time></trkpt><trkpt lat="43.3107676" lon="11.3444901"><ele>268.0</ele><time>2026-04-19T09:32:00.83Z</time></trkpt><trkpt lat="43.3107324" lon="11.3446215"><ele>268.0</ele><time>2026-04-19T09:32:01.83Z</time></trkpt><trkpt lat="43.3107029" lon="11.3447573"><ele>268.8</ele><time>2026-04-19T09:32:02.828Z</time></trkpt><trkpt lat="43.3106651" lon="11.3448795"><ele>269.6</ele><time>2026-04-19T09:32:03.829Z</time></trkpt><trkpt lat="43.3106362" lon="11.3449907"><ele>270.4</ele><time>2026-04-19T09:32:04.828Z</time></trkpt><trkpt lat="43.3106305" lon="11.345111"><ele>271.2</ele><time>2026-04-19T09:32:05.83Z</time></trkpt><trkpt lat="43.3106375" lon="11.3452407"><ele>272.0</ele><time>2026-04-19T09:32:06.83Z</time></trkpt><trkpt lat="43.3106448" lon="11.3453735"><ele>272.0</ele><time>2026-04-19T09:32:07.83Z</time></trkpt><trkpt lat="43.310648" lon="11.3455089"><ele>272.0</ele><time>2026-04-19T09:32:08.83Z</time></trkpt><trkpt lat="43.3106503" lon="11.3456439"><ele>272.0</ele><time>2026-04-19T09:32:09.83Z</time></trkpt><trkpt lat="43.3106564" lon="11.3457728"><ele>272.0</ele><time>2026-04-19T09:32:10.83Z</time></trkpt><trkpt lat="43.3106651" lon="11.3459043"><ele>272.0</ele><time>2026-04-19T09:32:11.829Z</time></trkpt><trkpt lat="43.3106895" lon="11.3460243"><ele>272.33333333333337</ele><time>2026-04-19T09:32:12.828Z</time></trkpt><trkpt lat="43.31072" lon="11.3461513"><ele>272.6666666666667</ele><time>2026-04-19T09:32:13.83Z</time></trkpt><trkpt lat="43.3107564" lon="11.3462551"><ele>273.0</ele><time>2026-04-19T09:32:14.829Z</time></trkpt><trkpt lat="43.3108002" lon="11.3463551"><ele>273.3333333333333</ele><time>2026-04-19T09:32:15.829Z</time></trkpt><trkpt lat="43.3108436" lon="11.3464486"><ele>273.66666666666663</ele><time>2026-04-19T09:32:16.829Z</time></trkpt><trkpt lat="43.310899" lon="11.3465485"><ele>274.0</ele><time>2026-04-19T09:32:17.829Z</time></trkpt><trkpt lat="43.3109579" lon="11.3466498"><ele>275.0</ele><time>2026-04-19T09:32:18.83Z</time></trkpt><trkpt lat="43.3110276" lon="11.3467478"><ele>276.0</ele><time>2026-04-19T09:32:19.83Z</time></trkpt><trkpt lat="43.3111023" lon="11.3468367"><ele>277.0</ele><time>2026-04-19T09:32:20.83Z</time></trkpt><trkpt lat="43.3111804" lon="11.3469166"><ele>278.0</ele><time>2026-04-19T09:32:21.83Z</time></trkpt><trkpt lat="43.3112612" lon="11.3469882"><ele>279.0</ele><time>2026-04-19T09:32:22.828Z</time></trkpt><trkpt lat="43.311346" lon="11.3470535"><ele>277.4</ele><time>2026-04-19T09:32:23.828Z</time></trkpt><trkpt lat="43.3114256" lon="11.3471047"><ele>275.79999999999995</ele><time>2026-04-19T09:32:24.829Z</time></trkpt><trkpt lat="43.3115132" lon="11.34716"><ele>274.20000000000005</ele><time>2026-04-19T09:32:25.829Z</time></trkpt><trkpt lat="43.311597" lon="11.3472225"><ele>272.6</ele><time>2026-04-19T09:32:26.829Z</time></trkpt><trkpt lat="43.311675" lon="11.3473003"><ele>271.0</ele><time>2026-04-19T09:32:27.829Z</time></trkpt><trkpt lat="43.3117519" lon="11.3473821"><ele>271.0</ele><time>2026-04-19T09:32:28.83Z</time></trkpt><trkpt lat="43.3118387" lon="11.3474595"><ele>271.0</ele><time>2026-04-19T09:32:29.83Z</time></trkpt><trkpt lat="43.3119305" lon="11.3475348"><ele>271.0</ele><time>2026-04-19T09:32:30.829Z</time></trkpt><trkpt lat="43.3120201" lon="11.347604"><ele>271.0</ele><time>2026-04-19T09:32:31.829Z</time></trkpt><trkpt lat="43.3121068" lon="11.3476759"><ele>271.0</ele><time>2026-04-19T09:32:32.829Z</time></trkpt><trkpt lat="43.3121874" lon="11.3477585"><ele>270.0</ele><time>2026-04-19T09:32:33.828Z</time></trkpt><trkpt lat="43.3122483" lon="11.3478445"><ele>269.0</ele><time>2026-04-19T09:32:34.83Z</time></trkpt><trkpt lat="43.3122812" lon="11.3479205"><ele>268.0</ele><time>2026-04-19T09:32:35.83Z</time></trkpt><trkpt lat="43.3122978" lon="11.3480187"><ele>267.0</ele><time>2026-04-19T09:32:37.83Z</time></trkpt><trkpt lat="43.3122392" lon="11.3481301"><ele>266.0</ele><time>2026-04-19T09:32:39.829Z</time></trkpt><trkpt lat="43.3121991" lon="11.3482129"><ele>265.0</ele><time>2026-04-19T09:32:40.83Z</time></trkpt><trkpt lat="43.3121542" lon="11.3483032"><ele>265.0</ele><time>2026-04-19T09:32:41.829Z</time></trkpt><trkpt lat="43.3120984" lon="11.3483854"><ele>265.0</ele><time>2026-04-19T09:32:42.83Z</time></trkpt><trkpt lat="43.3120702" lon="11.3485217"><ele>265.0</ele><time>2026-04-19T09:32:43.828Z</time></trkpt><trkpt lat="43.3120562" lon="11.3486582"><ele>265.0</ele><time>2026-04-19T09:32:44.83Z</time></trkpt><trkpt lat="43.3120208" lon="11.3488087"><ele>265.0</ele><time>2026-04-19T09:32:45.829Z</time></trkpt><trkpt lat="43.3119817" lon="11.3489628"><ele>264.4</ele><time>2026-04-19T09:32:46.83Z</time></trkpt><trkpt lat="43.3119336" lon="11.3491126"><ele>263.8</ele><time>2026-04-19T09:32:47.828Z</time></trkpt><trkpt lat="43.3118827" lon="11.3492496"><ele>263.2</ele><time>2026-04-19T09:32:48.829Z</time></trkpt><trkpt lat="43.3118218" lon="11.3493737"><ele>262.6</ele><time>2026-04-19T09:32:49.829Z</time></trkpt><trkpt lat="43.3117547" lon="11.3494786"><ele>262.0</ele><time>2026-04-19T09:32:50.829Z</time></trkpt><trkpt lat="43.3116757" lon="11.3495855"><ele>262.0</ele><time>2026-04-19T09:32:51.829Z</time></trkpt><trkpt lat="43.3116008" lon="11.3496862"><ele>262.0</ele><time>2026-04-19T09:32:52.83Z</time></trkpt><trkpt lat="43.3114987" lon="11.3497317"><ele>262.0</ele><time>2026-04-19T09:32:53.829Z</time></trkpt><trkpt lat="43.3113974" lon="11.3497854"><ele>262.0</ele><time>2026-04-19T09:32:54.83Z</time></trkpt><trkpt lat="43.3112902" lon="11.3498366"><ele>262.0</ele><time>2026-04-19T09:32:55.83Z</time></trkpt><trkpt lat="43.3111924" lon="11.349877"><ele>262.0</ele><time>2026-04-19T09:32:56.829Z</time></trkpt><trkpt lat="43.3111056" lon="11.3499175"><ele>262.0</ele><time>2026-04-19T09:32:57.83Z</time></trkpt><trkpt lat="43.3110281" lon="11.349949"><ele>262.0</ele><time>2026-04-19T09:32:58.828Z</time></trkpt><trkpt lat="43.3109411" lon="11.3499808"><ele>262.0</ele><time>2026-04-19T09:32:59.829Z</time></trkpt><trkpt lat="43.310865" lon="11.350012"><ele>262.0</ele><time>2026-04-19T09:33:00.83Z</time></trkpt><trkpt lat="43.3107984" lon="11.3500238"><ele>262.0</ele><time>2026-04-19T09:33:01.829Z</time></trkpt><trkpt lat="43.3107253" lon="11.3500604"><ele>262.0</ele><time>2026-04-19T09:33:02.83Z</time></trkpt><trkpt lat="43.3106572" lon="11.3500905"><ele>262.0</ele><time>2026-04-19T09:33:03.829Z</time></trkpt><trkpt lat="43.3105889" lon="11.3501294"><ele>262.0</ele><time>2026-04-19T09:33:04.83Z</time></trkpt><trkpt lat="43.3105278" lon="11.3501699"><ele>262.0</ele><time>2026-04-19T09:33:05.828Z</time></trkpt><trkpt lat="43.310414" lon="11.3502632"><ele>262.0</ele><time>2026-04-19T09:33:07.83Z</time></trkpt><trkpt lat="43.3103499" lon="11.3502962"><ele>262.0</ele><time>2026-04-19T09:33:08.828Z</time></trkpt><trkpt lat="43.3102717" lon="11.3503408"><ele>262.0</ele><time>2026-04-19T09:33:09.829Z</time></trkpt><trkpt lat="43.3102164" lon="11.35041"><ele>262.0</ele><time>2026-04-19T09:33:10.83Z</time></trkpt><trkpt lat="43.3101656" lon="11.3504684"><ele>262.0</ele><time>2026-04-19T09:33:11.829Z</time></trkpt><trkpt lat="43.3101098" lon="11.3505458"><ele>262.0</ele><time>2026-04-19T09:33:12.829Z</time></trkpt><trkpt lat="43.3100617" lon="11.350645"><ele>262.0</ele><time>2026-04-19T09:33:13.829Z</time></trkpt><trkpt lat="43.3100033" lon="11.3507289"><ele>262.0</ele><time>2026-04-19T09:33:14.83Z</time></trkpt><trkpt lat="43.3099385" lon="11.350812"><ele>261.8</ele><time>2026-04-19T09:33:15.83Z</time></trkpt><trkpt lat="43.3098798" lon="11.3509062"><ele>261.6</ele><time>2026-04-19T09:33:16.828Z</time></trkpt><trkpt lat="43.3098206" lon="11.3510143"><ele>261.40000000000003</ele><time>2026-04-19T09:33:17.829Z</time></trkpt><trkpt lat="43.3097716" lon="11.3511404"><ele>261.2</ele><time>2026-04-19T09:33:18.829Z</time></trkpt><trkpt lat="43.309719" lon="11.3512871"><ele>261.0</ele><time>2026-04-19T09:33:19.829Z</time></trkpt><trkpt lat="43.3096722" lon="11.3514364"><ele>262.0</ele><time>2026-04-19T09:33:20.829Z</time></trkpt><trkpt lat="43.3096326" lon="11.3515925"><ele>263.0</ele><time>2026-04-19T09:33:21.829Z</time></trkpt><trkpt lat="43.3095958" lon="11.3517596"><ele>264.0</ele><time>2026-04-19T09:33:22.83Z</time></trkpt><trkpt lat="43.309562" lon="11.3519341"><ele>265.0</ele><time>2026-04-19T09:33:23.83Z</time></trkpt><trkpt lat="43.3095262" lon="11.3521225"><ele>264.75</ele><time>2026-04-19T09:33:24.829Z</time></trkpt><trkpt lat="43.3094902" lon="11.3523142"><ele>264.5</ele><time>2026-04-19T09:33:25.829Z</time></trkpt><trkpt lat="43.3094613" lon="11.3525088"><ele>264.25</ele><time>2026-04-19T09:33:26.83Z</time></trkpt><trkpt lat="43.3094198" lon="11.3526947"><ele>264.0</ele><time>2026-04-19T09:33:27.83Z</time></trkpt><trkpt lat="43.3093852" lon="11.3528823"><ele>264.2</ele><time>2026-04-19T09:33:28.828Z</time></trkpt><trkpt lat="43.3093515" lon="11.3530465"><ele>264.4</ele><time>2026-04-19T09:33:29.83Z</time></trkpt><trkpt lat="43.3093251" lon="11.353211"><ele>264.6</ele><time>2026-04-19T09:33:30.83Z</time></trkpt><trkpt lat="43.3092986" lon="11.3533426"><ele>264.8</ele><time>2026-04-19T09:33:31.83Z</time></trkpt><trkpt lat="43.3092753" lon="11.3534696"><ele>265.0</ele><time>2026-04-19T09:33:32.829Z</time></trkpt><trkpt lat="43.3092597" lon="11.3535898"><ele>265.0</ele><time>2026-04-19T09:33:33.829Z</time></trkpt><trkpt lat="43.3092544" lon="11.3537208"><ele>265.0</ele><time>2026-04-19T09:33:34.829Z</time></trkpt><trkpt lat="43.3092495" lon="11.3538573"><ele>265.0</ele><time>2026-04-19T09:33:35.83Z</time></trkpt><trkpt lat="43.309251" lon="11.3540133"><ele>265.0</ele><time>2026-04-19T09:33:36.829Z</time></trkpt><trkpt lat="43.3092497" lon="11.3541718"><ele>265.0</ele><time>2026-04-19T09:33:37.83Z</time></trkpt><trkpt lat="43.3092454" lon="11.3543222"><ele>264.6</ele><time>2026-04-19T09:33:38.83Z</time></trkpt><trkpt lat="43.3092321" lon="11.3544778"><ele>264.2</ele><time>2026-04-19T09:33:39.829Z</time></trkpt><trkpt lat="43.3092303" lon="11.3546231"><ele>263.8</ele><time>2026-04-19T09:33:40.829Z</time></trkpt><trkpt lat="43.30924" lon="11.3547692"><ele>263.4</ele><time>2026-04-19T09:33:41.829Z</time></trkpt><trkpt lat="43.3092493" lon="11.3549061"><ele>263.0</ele><time>2026-04-19T09:33:42.829Z</time></trkpt><trkpt lat="43.3092638" lon="11.3550312"><ele>263.0</ele><time>2026-04-19T09:33:43.829Z</time></trkpt><trkpt lat="43.3092827" lon="11.3551629"><ele>263.0</ele><time>2026-04-19T09:33:44.83Z</time></trkpt><trkpt lat="43.30931" lon="11.3552936"><ele>263.0</ele><time>2026-04-19T09:33:45.83Z</time></trkpt><trkpt lat="43.3093344" lon="11.3554335"><ele>263.0</ele><time>2026-04-19T09:33:46.83Z</time></trkpt><trkpt lat="43.3093677" lon="11.3555748"><ele>263.0</ele><time>2026-04-19T09:33:47.828Z</time></trkpt><trkpt lat="43.3094063" lon="11.355718"><ele>262.6</ele><time>2026-04-19T09:33:48.828Z</time></trkpt><trkpt lat="43.309445" lon="11.3558636"><ele>262.20000000000005</ele><time>2026-04-19T09:33:49.828Z</time></trkpt><trkpt lat="43.3094816" lon="11.3560085"><ele>261.8</ele><time>2026-04-19T09:33:50.83Z</time></trkpt><trkpt lat="43.3095143" lon="11.356146"><ele>261.40000000000003</ele><time>2026-04-19T09:33:51.83Z</time></trkpt><trkpt lat="43.3095379" lon="11.3562761"><ele>261.0</ele><time>2026-04-19T09:33:52.829Z</time></trkpt><trkpt lat="43.3095461" lon="11.3564005"><ele>259.8</ele><time>2026-04-19T09:33:53.829Z</time></trkpt><trkpt lat="43.3095386" lon="11.3565288"><ele>258.6</ele><time>2026-04-19T09:33:54.829Z</time></trkpt><trkpt lat="43.3095194" lon="11.3566567"><ele>257.4</ele><time>2026-04-19T09:33:55.829Z</time></trkpt><trkpt lat="43.309496" lon="11.3567796"><ele>256.2</ele><time>2026-04-19T09:33:56.828Z</time></trkpt><trkpt lat="43.3094707" lon="11.3568995"><ele>255.0</ele><time>2026-04-19T09:33:57.828Z</time></trkpt><trkpt lat="43.3094379" lon="11.3570204"><ele>255.0</ele><time>2026-04-19T09:33:58.829Z</time></trkpt><trkpt lat="43.3093968" lon="11.3571317"><ele>255.0</ele><time>2026-04-19T09:33:59.828Z</time></trkpt><trkpt lat="43.3093521" lon="11.3572313"><ele>255.0</ele><time>2026-04-19T09:34:00.829Z</time></trkpt><trkpt lat="43.3092925" lon="11.3573299"><ele>255.0</ele><time>2026-04-19T09:34:01.83Z</time></trkpt><trkpt lat="43.3092167" lon="11.3574226"><ele>255.0</ele><time>2026-04-19T09:34:02.83Z</time></trkpt><trkpt lat="43.309132" lon="11.3575165"><ele>254.6</ele><time>2026-04-19T09:34:03.829Z</time></trkpt><trkpt lat="43.309044" lon="11.357606"><ele>254.2</ele><time>2026-04-19T09:34:04.829Z</time></trkpt><trkpt lat="43.3089555" lon="11.3576995"><ele>253.8</ele><time>2026-04-19T09:34:05.829Z</time></trkpt><trkpt lat="43.3088643" lon="11.35779"><ele>253.4</ele><time>2026-04-19T09:34:06.829Z</time></trkpt><trkpt lat="43.308776" lon="11.3578715"><ele>253.0</ele><time>2026-04-19T09:34:07.829Z</time></trkpt><trkpt lat="43.3086894" lon="11.3579529"><ele>251.8</ele><time>2026-04-19T09:34:08.828Z</time></trkpt><trkpt lat="43.3086026" lon="11.3580272"><ele>250.60000000000002</ele><time>2026-04-19T09:34:09.828Z</time></trkpt><trkpt lat="43.3085161" lon="11.3580996"><ele>249.39999999999998</ele><time>2026-04-19T09:34:10.83Z</time></trkpt><trkpt lat="43.3084172" lon="11.3581573"><ele>248.2</ele><time>2026-04-19T09:34:11.83Z</time></trkpt><trkpt lat="43.3083274" lon="11.3582288"><ele>247.0</ele><time>2026-04-19T09:34:12.829Z</time></trkpt><trkpt lat="43.3082287" lon="11.3583044"><ele>247.0</ele><time>2026-04-19T09:34:13.83Z</time></trkpt><trkpt lat="43.3081409" lon="11.3583848"><ele>247.0</ele><time>2026-04-19T09:34:14.83Z</time></trkpt><trkpt lat="43.3080465" lon="11.3584714"><ele>247.0</ele><time>2026-04-19T09:34:15.828Z</time></trkpt><trkpt lat="43.3079425" lon="11.3585794"><ele>247.0</ele><time>2026-04-19T09:34:16.829Z</time></trkpt><trkpt lat="43.3078381" lon="11.3587037"><ele>244.0</ele><time>2026-04-19T09:34:17.83Z</time></trkpt><trkpt lat="43.3077247" lon="11.3588368"><ele>241.0</ele><time>2026-04-19T09:34:18.829Z</time></trkpt><trkpt lat="43.3076069" lon="11.3589785"><ele>238.0</ele><time>2026-04-19T09:34:19.829Z</time></trkpt><trkpt lat="43.307482" lon="11.3591254"><ele>238.0</ele><time>2026-04-19T09:34:20.828Z</time></trkpt><trkpt lat="43.3073574" lon="11.3592758"><ele>238.0</ele><time>2026-04-19T09:34:21.83Z</time></trkpt><trkpt lat="43.3072316" lon="11.3594277"><ele>238.0</ele><time>2026-04-19T09:34:22.83Z</time></trkpt><trkpt lat="43.3071067" lon="11.3595752"><ele>239.0</ele><time>2026-04-19T09:34:23.829Z</time></trkpt><trkpt lat="43.3069807" lon="11.3597246"><ele>240.0</ele><time>2026-04-19T09:34:24.828Z</time></trkpt><trkpt lat="43.3068617" lon="11.3598761"><ele>241.0</ele><time>2026-04-19T09:34:25.829Z</time></trkpt><trkpt lat="43.3067546" lon="11.3600262"><ele>241.0</ele><time>2026-04-19T09:34:26.83Z</time></trkpt><trkpt lat="43.306652" lon="11.3601726"><ele>241.0</ele><time>2026-04-19T09:34:27.829Z</time></trkpt><trkpt lat="43.3065668" lon="11.360315"><ele>241.0</ele><time>2026-04-19T09:34:28.83Z</time></trkpt><trkpt lat="43.3064742" lon="11.3604599"><ele>241.0</ele><time>2026-04-19T09:34:29.829Z</time></trkpt><trkpt lat="43.3063813" lon="11.3606005"><ele>243.75</ele><time>2026-04-19T09:34:30.83Z</time></trkpt><trkpt lat="43.3062911" lon="11.3607299"><ele>246.5</ele><time>2026-04-19T09:34:31.829Z</time></trkpt><trkpt lat="43.3062102" lon="11.3608629"><ele>249.25</ele><time>2026-04-19T09:34:32.83Z</time></trkpt><trkpt lat="43.3061332" lon="11.360995"><ele>252.0</ele><time>2026-04-19T09:34:33.828Z</time></trkpt><trkpt lat="43.3060908" lon="11.3611332"><ele>252.0</ele><time>2026-04-19T09:34:34.829Z</time></trkpt><trkpt lat="43.306028" lon="11.3612581"><ele>252.0</ele><time>2026-04-19T09:34:35.828Z</time></trkpt><trkpt lat="43.3059694" lon="11.3613702"><ele>252.0</ele><time>2026-04-19T09:34:36.829Z</time></trkpt><trkpt lat="43.3058912" lon="11.361454"><ele>252.0</ele><time>2026-04-19T09:34:37.829Z</time></trkpt><trkpt lat="43.3058116" lon="11.3615334"><ele>252.0</ele><time>2026-04-19T09:34:38.828Z</time></trkpt><trkpt lat="43.3057275" lon="11.3615958"><ele>251.0</ele><time>2026-04-19T09:34:39.829Z</time></trkpt><trkpt lat="43.3056384" lon="11.3616457"><ele>250.0</ele><time>2026-04-19T09:34:40.828Z</time></trkpt><trkpt lat="43.3055165" lon="11.3616747"><ele>249.0</ele><time>2026-04-19T09:34:41.829Z</time></trkpt><trkpt lat="43.3054098" lon="11.3617071"><ele>248.0</ele><time>2026-04-19T09:34:42.829Z</time></trkpt><trkpt lat="43.3052928" lon="11.3617283"><ele>247.0</ele><time>2026-04-19T09:34:43.828Z</time></trkpt><trkpt lat="43.3051782" lon="11.3617524"><ele>247.0</ele><time>2026-04-19T09:34:44.829Z</time></trkpt><trkpt lat="43.3050796" lon="11.3617742"><ele>247.0</ele><time>2026-04-19T09:34:45.828Z</time></trkpt><trkpt lat="43.3049752" lon="11.3617922"><ele>247.0</ele><time>2026-04-19T09:34:46.827Z</time></trkpt><trkpt lat="43.3048799" lon="11.3618164"><ele>247.0</ele><time>2026-04-19T09:34:47.829Z</time></trkpt><trkpt lat="43.304782" lon="11.3618204"><ele>247.0</ele><time>2026-04-19T09:34:48.829Z</time></trkpt><trkpt lat="43.3047035" lon="11.361816"><ele>245.0</ele><time>2026-04-19T09:34:49.828Z</time></trkpt><trkpt lat="43.304611" lon="11.3618283"><ele>243.0</ele><time>2026-04-19T09:34:50.828Z</time></trkpt><trkpt lat="43.304515" lon="11.3618446"><ele>241.0</ele><time>2026-04-19T09:34:51.829Z</time></trkpt><trkpt lat="43.3044108" lon="11.361884"><ele>239.0</ele><time>2026-04-19T09:34:52.828Z</time></trkpt><trkpt lat="43.3043048" lon="11.3619432"><ele>237.0</ele><time>2026-04-19T09:34:53.828Z</time></trkpt><trkpt lat="43.3041975" lon="11.3620191"><ele>237.0</ele><time>2026-04-19T09:34:54.828Z</time></trkpt><trkpt lat="43.304086" lon="11.3620994"><ele>237.0</ele><time>2026-04-19T09:34:55.828Z</time></trkpt><trkpt lat="43.3039743" lon="11.3621929"><ele>237.0</ele><time>2026-04-19T09:34:56.828Z</time></trkpt><trkpt lat="43.3038633" lon="11.3622862"><ele>237.0</ele><time>2026-04-19T09:34:57.827Z</time></trkpt><trkpt lat="43.3037689" lon="11.362376"><ele>238.8</ele><time>2026-04-19T09:34:58.828Z</time></trkpt><trkpt lat="43.3036724" lon="11.3624769"><ele>240.6</ele><time>2026-04-19T09:34:59.827Z</time></trkpt><trkpt lat="43.3035953" lon="11.362573"><ele>242.40000000000003</ele><time>2026-04-19T09:35:00.827Z</time></trkpt><trkpt lat="43.3035321" lon="11.3626674"><ele>244.20000000000002</ele><time>2026-04-19T09:35:01.828Z</time></trkpt><trkpt lat="43.3034874" lon="11.3627715"><ele>246.0</ele><time>2026-04-19T09:35:02.828Z</time></trkpt><trkpt lat="43.3034513" lon="11.3628806"><ele>246.0</ele><time>2026-04-19T09:35:03.829Z</time></trkpt><trkpt lat="43.3034331" lon="11.3629928"><ele>246.0</ele><time>2026-04-19T09:35:04.827Z</time></trkpt><trkpt lat="43.3034144" lon="11.3631151"><ele>246.0</ele><time>2026-04-19T09:35:05.828Z</time></trkpt><trkpt lat="43.3034035" lon="11.3632244"><ele>246.0</ele><time>2026-04-19T09:35:06.827Z</time></trkpt><trkpt lat="43.3033969" lon="11.363359"><ele>246.0</ele><time>2026-04-19T09:35:07.828Z</time></trkpt><trkpt lat="43.3033763" lon="11.3634819"><ele>246.0</ele><time>2026-04-19T09:35:08.828Z</time></trkpt><trkpt lat="43.3033433" lon="11.3635944"><ele>246.0</ele><time>2026-04-19T09:35:09.829Z</time></trkpt><trkpt lat="43.3033071" lon="11.3637006"><ele>246.0</ele><time>2026-04-19T09:35:10.828Z</time></trkpt><trkpt lat="43.3032435" lon="11.3637956"><ele>246.0</ele><time>2026-04-19T09:35:11.829Z</time></trkpt><trkpt lat="43.3031759" lon="11.3638609"><ele>246.0</ele><time>2026-04-19T09:35:12.828Z</time></trkpt><trkpt lat="43.3031151" lon="11.3639366"><ele>246.0</ele><time>2026-04-19T09:35:13.828Z</time></trkpt><trkpt lat="43.303016" lon="11.3639488"><ele>246.0</ele><time>2026-04-19T09:35:14.828Z</time></trkpt><trkpt lat="43.302927" lon="11.3639607"><ele>247.16666666666666</ele><time>2026-04-19T09:35:15.828Z</time></trkpt><trkpt lat="43.302852" lon="11.3639679"><ele>248.33333333333331</ele><time>2026-04-19T09:35:16.827Z</time></trkpt><trkpt lat="43.3027794" lon="11.3639707"><ele>249.5</ele><time>2026-04-19T09:35:17.829Z</time></trkpt><trkpt lat="43.3027144" lon="11.363965"><ele>250.66666666666666</ele><time>2026-04-19T09:35:18.828Z</time></trkpt><trkpt lat="43.302585" lon="11.3639939"><ele>251.83333333333331</ele><time>2026-04-19T09:35:20.828Z</time></trkpt><trkpt lat="43.3025083" lon="11.3640186"><ele>253.0</ele><time>2026-04-19T09:35:21.829Z</time></trkpt><trkpt lat="43.3024401" lon="11.3640535"><ele>252.99999999999997</ele><time>2026-04-19T09:35:22.828Z</time></trkpt><trkpt lat="43.3023637" lon="11.364097"><ele>253.0</ele><time>2026-04-19T09:35:23.829Z</time></trkpt><trkpt lat="43.3022892" lon="11.3641441"><ele>253.0</ele><time>2026-04-19T09:35:24.827Z</time></trkpt><trkpt lat="43.3022164" lon="11.3641894"><ele>253.0</ele><time>2026-04-19T09:35:25.828Z</time></trkpt><trkpt lat="43.3021448" lon="11.3642484"><ele>252.99999999999997</ele><time>2026-04-19T09:35:26.828Z</time></trkpt><trkpt lat="43.3020728" lon="11.3643094"><ele>253.0</ele><time>2026-04-19T09:35:27.828Z</time></trkpt><trkpt lat="43.3020092" lon="11.3643725"><ele>251.33333333333331</ele><time>2026-04-19T09:35:28.828Z</time></trkpt><trkpt lat="43.3019521" lon="11.3644463"><ele>249.66666666666666</ele><time>2026-04-19T09:35:29.829Z</time></trkpt><trkpt lat="43.3019032" lon="11.3645341"><ele>248.0</ele><time>2026-04-19T09:35:30.828Z</time></trkpt><trkpt lat="43.3018587" lon="11.3646364"><ele>246.33333333333331</ele><time>2026-04-19T09:35:31.828Z</time></trkpt><trkpt lat="43.3018234" lon="11.3647437"><ele>244.66666666666666</ele><time>2026-04-19T09:35:32.828Z</time></trkpt><trkpt lat="43.3017902" lon="11.3648586"><ele>243.0</ele><time>2026-04-19T09:35:33.829Z</time></trkpt><trkpt lat="43.3017551" lon="11.3649715"><ele>243.0</ele><time>2026-04-19T09:35:34.829Z</time></trkpt><trkpt lat="43.3017048" lon="11.3650786"><ele>243.0</ele><time>2026-04-19T09:35:35.829Z</time></trkpt><trkpt lat="43.3016416" lon="11.3651785"><ele>243.0</ele><time>2026-04-19T09:35:36.829Z</time></trkpt><trkpt lat="43.3015605" lon="11.3652607"><ele>243.0</ele><time>2026-04-19T09:35:37.829Z</time></trkpt><trkpt lat="43.301477" lon="11.3653278"><ele>243.0</ele><time>2026-04-19T09:35:38.828Z</time></trkpt><trkpt lat="43.3013944" lon="11.3653766"><ele>242.60000000000002</ele><time>2026-04-19T09:35:39.828Z</time></trkpt><trkpt lat="43.3013156" lon="11.3654227"><ele>242.20000000000002</ele><time>2026-04-19T09:35:40.828Z</time></trkpt><trkpt lat="43.3012357" lon="11.3654695"><ele>241.8</ele><time>2026-04-19T09:35:41.828Z</time></trkpt><trkpt lat="43.3011473" lon="11.3655285"><ele>241.4</ele><time>2026-04-19T09:35:42.829Z</time></trkpt><trkpt lat="43.3010582" lon="11.3655866"><ele>241.0</ele><time>2026-04-19T09:35:43.829Z</time></trkpt><trkpt lat="43.3009625" lon="11.3656404"><ele>241.0</ele><time>2026-04-19T09:35:44.829Z</time></trkpt><trkpt lat="43.3008632" lon="11.3656843"><ele>241.00000000000003</ele><time>2026-04-19T09:35:45.828Z</time></trkpt><trkpt lat="43.3007674" lon="11.3657142"><ele>241.00000000000003</ele><time>2026-04-19T09:35:46.829Z</time></trkpt><trkpt lat="43.3006664" lon="11.3657163"><ele>241.0</ele><time>2026-04-19T09:35:47.827Z</time></trkpt><trkpt lat="43.3005636" lon="11.3657147"><ele>241.0</ele><time>2026-04-19T09:35:48.828Z</time></trkpt><trkpt lat="43.3004593" lon="11.3657177"><ele>241.60000000000002</ele><time>2026-04-19T09:35:49.828Z</time></trkpt><trkpt lat="43.3003571" lon="11.3657205"><ele>242.20000000000002</ele><time>2026-04-19T09:35:50.829Z</time></trkpt><trkpt lat="43.3002643" lon="11.3657365"><ele>242.79999999999998</ele><time>2026-04-19T09:35:51.829Z</time></trkpt><trkpt lat="43.3001648" lon="11.3657633"><ele>243.39999999999998</ele><time>2026-04-19T09:35:52.828Z</time></trkpt><trkpt lat="43.3000702" lon="11.3658178"><ele>244.0</ele><time>2026-04-19T09:35:53.829Z</time></trkpt><trkpt lat="43.299971" lon="11.3658827"><ele>243.99999999999997</ele><time>2026-04-19T09:35:54.828Z</time></trkpt><trkpt lat="43.2998849" lon="11.3659668"><ele>244.0</ele><time>2026-04-19T09:35:55.827Z</time></trkpt><trkpt lat="43.2998098" lon="11.3660371"><ele>244.0</ele><time>2026-04-19T09:35:56.828Z</time></trkpt><trkpt lat="43.2997417" lon="11.3661094"><ele>244.0</ele><time>2026-04-19T09:35:57.829Z</time></trkpt><trkpt lat="43.2996807" lon="11.3661891"><ele>243.99999999999997</ele><time>2026-04-19T09:35:58.829Z</time></trkpt><trkpt lat="43.2996243" lon="11.3662714"><ele>244.0</ele><time>2026-04-19T09:35:59.828Z</time></trkpt><trkpt lat="43.2995726" lon="11.3663499"><ele>242.83333333333331</ele><time>2026-04-19T09:36:00.828Z</time></trkpt><trkpt lat="43.2995167" lon="11.3664219"><ele>241.66666666666666</ele><time>2026-04-19T09:36:01.827Z</time></trkpt><trkpt lat="43.2994621" lon="11.3664968"><ele>240.5</ele><time>2026-04-19T09:36:02.829Z</time></trkpt><trkpt lat="43.2994096" lon="11.3665665"><ele>239.33333333333331</ele><time>2026-04-19T09:36:03.828Z</time></trkpt><trkpt lat="43.2993511" lon="11.3666427"><ele>238.16666666666666</ele><time>2026-04-19T09:36:04.829Z</time></trkpt><trkpt lat="43.2993" lon="11.3667121"><ele>237.0</ele><time>2026-04-19T09:36:05.828Z</time></trkpt><trkpt lat="43.2992386" lon="11.3667818"><ele>237.0</ele><time>2026-04-19T09:36:06.828Z</time></trkpt><trkpt lat="43.2991769" lon="11.3668645"><ele>237.0</ele><time>2026-04-19T09:36:07.828Z</time></trkpt><trkpt lat="43.2991031" lon="11.3669459"><ele>237.0</ele><time>2026-04-19T09:36:08.828Z</time></trkpt><trkpt lat="43.2990564" lon="11.3670447"><ele>237.0</ele><time>2026-04-19T09:36:09.829Z</time></trkpt><trkpt lat="43.2990328" lon="11.3671348"><ele>237.0</ele><time>2026-04-19T09:36:10.827Z</time></trkpt><trkpt lat="43.2989794" lon="11.3672652"><ele>237.0</ele><time>2026-04-19T09:36:11.827Z</time></trkpt><trkpt lat="43.2989467" lon="11.3673774"><ele>235.5</ele><time>2026-04-19T09:36:12.829Z</time></trkpt><trkpt lat="43.2988948" lon="11.3675254"><ele>234.0</ele><time>2026-04-19T09:36:13.829Z</time></trkpt><trkpt lat="43.2988361" lon="11.3676619"><ele>232.5</ele><time>2026-04-19T09:36:14.829Z</time></trkpt><trkpt lat="43.2987835" lon="11.3678129"><ele>231.0</ele><time>2026-04-19T09:36:15.829Z</time></trkpt><trkpt lat="43.2987221" lon="11.3679466"><ele>231.8</ele><time>2026-04-19T09:36:16.827Z</time></trkpt><trkpt lat="43.2986646" lon="11.3680709"><ele>232.60000000000002</ele><time>2026-04-19T09:36:17.828Z</time></trkpt><trkpt lat="43.2985982" lon="11.3681821"><ele>233.4</ele><time>2026-04-19T09:36:18.829Z</time></trkpt><trkpt lat="43.298539" lon="11.3682715"><ele>234.2</ele><time>2026-04-19T09:36:19.829Z</time></trkpt><trkpt lat="43.2984691" lon="11.3683432"><ele>235.0</ele><time>2026-04-19T09:36:20.829Z</time></trkpt><trkpt lat="43.2983914" lon="11.368394"><ele>235.0</ele><time>2026-04-19T09:36:21.829Z</time></trkpt><trkpt lat="43.2983049" lon="11.3684378"><ele>235.0</ele><time>2026-04-19T09:36:22.828Z</time></trkpt><trkpt lat="43.2982178" lon="11.3684788"><ele>235.0</ele><time>2026-04-19T09:36:23.828Z</time></trkpt><trkpt lat="43.2981235" lon="11.3685077"><ele>235.0</ele><time>2026-04-19T09:36:24.828Z</time></trkpt><trkpt lat="43.2980259" lon="11.3685206"><ele>235.0</ele><time>2026-04-19T09:36:25.828Z</time></trkpt><trkpt lat="43.2979288" lon="11.3685176"><ele>235.75</ele><time>2026-04-19T09:36:26.829Z</time></trkpt><trkpt lat="43.2978167" lon="11.3684773"><ele>236.5</ele><time>2026-04-19T09:36:27.829Z</time></trkpt><trkpt lat="43.2977056" lon="11.3684289"><ele>237.25</ele><time>2026-04-19T09:36:28.829Z</time></trkpt><trkpt lat="43.2975909" lon="11.3683736"><ele>238.0</ele><time>2026-04-19T09:36:29.828Z</time></trkpt><trkpt lat="43.2974727" lon="11.3683053"><ele>238.0</ele><time>2026-04-19T09:36:30.827Z</time></trkpt><trkpt lat="43.2973532" lon="11.368241"><ele>238.0</ele><time>2026-04-19T09:36:31.828Z</time></trkpt><trkpt lat="43.2972297" lon="11.3681816"><ele>238.0</ele><time>2026-04-19T09:36:32.827Z</time></trkpt><trkpt lat="43.2971064" lon="11.3681214"><ele>238.0</ele><time>2026-04-19T09:36:33.828Z</time></trkpt><trkpt lat="43.2969803" lon="11.3680803"><ele>237.25</ele><time>2026-04-19T09:36:34.829Z</time></trkpt><trkpt lat="43.296852" lon="11.3680478"><ele>236.5</ele><time>2026-04-19T09:36:35.828Z</time></trkpt><trkpt lat="43.2967252" lon="11.368033"><ele>235.75</ele><time>2026-04-19T09:36:36.829Z</time></trkpt><trkpt lat="43.2965989" lon="11.368033"><ele>235.0</ele><time>2026-04-19T09:36:37.827Z</time></trkpt><trkpt lat="43.296469" lon="11.368042"><ele>237.5</ele><time>2026-04-19T09:36:38.828Z</time></trkpt><trkpt lat="43.2963435" lon="11.3680561"><ele>240.0</ele><time>2026-04-19T09:36:39.827Z</time></trkpt><trkpt lat="43.2962207" lon="11.368081"><ele>242.5</ele><time>2026-04-19T09:36:40.828Z</time></trkpt><trkpt lat="43.2961068" lon="11.3681184"><ele>245.0</ele><time>2026-04-19T09:36:41.829Z</time></trkpt><trkpt lat="43.2959917" lon="11.3681759"><ele>245.0</ele><time>2026-04-19T09:36:42.829Z</time></trkpt><trkpt lat="43.2958836" lon="11.3682421"><ele>245.0</ele><time>2026-04-19T09:36:43.829Z</time></trkpt><trkpt lat="43.2958085" lon="11.3682751"><ele>245.0</ele><time>2026-04-19T09:36:44.828Z</time></trkpt><trkpt lat="43.2957301" lon="11.3683033"><ele>245.0</ele><time>2026-04-19T09:36:45.829Z</time></trkpt><trkpt lat="43.2956506" lon="11.3683151"><ele>245.0</ele><time>2026-04-19T09:36:46.828Z</time></trkpt><trkpt lat="43.2955191" lon="11.3683165"><ele>243.83333333333334</ele><time>2026-04-19T09:36:48.828Z</time></trkpt><trkpt lat="43.2954436" lon="11.368334"><ele>242.66666666666669</ele><time>2026-04-19T09:36:49.828Z</time></trkpt><trkpt lat="43.2953568" lon="11.3683648"><ele>241.5</ele><time>2026-04-19T09:36:50.827Z</time></trkpt><trkpt lat="43.2952713" lon="11.3684025"><ele>240.33333333333331</ele><time>2026-04-19T09:36:51.829Z</time></trkpt><trkpt lat="43.2951893" lon="11.3684579"><ele>239.16666666666666</ele><time>2026-04-19T09:36:52.829Z</time></trkpt><trkpt lat="43.2951089" lon="11.3685183"><ele>238.0</ele><time>2026-04-19T09:36:53.829Z</time></trkpt><trkpt lat="43.2950294" lon="11.3685951"><ele>238.0</ele><time>2026-04-19T09:36:54.829Z</time></trkpt><trkpt lat="43.294967" lon="11.3686821"><ele>238.0</ele><time>2026-04-19T09:36:55.829Z</time></trkpt><trkpt lat="43.2949136" lon="11.3687913"><ele>238.0</ele><time>2026-04-19T09:36:56.829Z</time></trkpt><trkpt lat="43.2948593" lon="11.3688988"><ele>238.0</ele><time>2026-04-19T09:36:57.828Z</time></trkpt><trkpt lat="43.2947918" lon="11.3690069"><ele>238.0</ele><time>2026-04-19T09:36:58.828Z</time></trkpt><trkpt lat="43.2947108" lon="11.3691025"><ele>236.4</ele><time>2026-04-19T09:36:59.829Z</time></trkpt><trkpt lat="43.2946268" lon="11.3691802"><ele>234.8</ele><time>2026-04-19T09:37:00.828Z</time></trkpt><trkpt lat="43.2945389" lon="11.3692516"><ele>233.2</ele><time>2026-04-19T09:37:01.829Z</time></trkpt><trkpt lat="43.2944461" lon="11.3693139"><ele>231.6</ele><time>2026-04-19T09:37:02.827Z</time></trkpt><trkpt lat="43.2943515" lon="11.3693729"><ele>230.0</ele><time>2026-04-19T09:37:03.829Z</time></trkpt><trkpt lat="43.2942572" lon="11.3694395"><ele>230.0</ele><time>2026-04-19T09:37:04.828Z</time></trkpt><trkpt lat="43.2941572" lon="11.3695103"><ele>230.0</ele><time>2026-04-19T09:37:05.827Z</time></trkpt><trkpt lat="43.2940537" lon="11.3695844"><ele>230.0</ele><time>2026-04-19T09:37:06.829Z</time></trkpt><trkpt lat="43.2939415" lon="11.3696521"><ele>230.0</ele><time>2026-04-19T09:37:07.829Z</time></trkpt><trkpt lat="43.293829" lon="11.3697228"><ele>228.75</ele><time>2026-04-19T09:37:08.828Z</time></trkpt><trkpt lat="43.2937053" lon="11.3697952"><ele>227.5</ele><time>2026-04-19T09:37:09.829Z</time></trkpt><trkpt lat="43.2935834" lon="11.3698624"><ele>226.25</ele><time>2026-04-19T09:37:10.828Z</time></trkpt><trkpt lat="43.2934625" lon="11.3699208"><ele>225.0</ele><time>2026-04-19T09:37:11.829Z</time></trkpt><trkpt lat="43.2933361" lon="11.3699769"><ele>225.0</ele><time>2026-04-19T09:37:12.828Z</time></trkpt><trkpt lat="43.29321" lon="11.3700116"><ele>225.0</ele><time>2026-04-19T09:37:13.828Z</time></trkpt><trkpt lat="43.2930825" lon="11.3700434"><ele>225.0</ele><time>2026-04-19T09:37:14.829Z</time></trkpt><trkpt lat="43.2929509" lon="11.3700647"><ele>225.0</ele><time>2026-04-19T09:37:15.829Z</time></trkpt><trkpt lat="43.2928229" lon="11.3700745"><ele>224.25</ele><time>2026-04-19T09:37:16.829Z</time></trkpt><trkpt lat="43.2926917" lon="11.3700734"><ele>223.5</ele><time>2026-04-19T09:37:17.829Z</time></trkpt><trkpt lat="43.2925459" lon="11.3700646"><ele>222.75</ele><time>2026-04-19T09:37:18.829Z</time></trkpt><trkpt lat="43.2924108" lon="11.3700535"><ele>222.0</ele><time>2026-04-19T09:37:19.829Z</time></trkpt><trkpt lat="43.2922779" lon="11.3700513"><ele>222.25</ele><time>2026-04-19T09:37:20.829Z</time></trkpt><trkpt lat="43.2921398" lon="11.370052"><ele>222.5</ele><time>2026-04-19T09:37:21.829Z</time></trkpt><trkpt lat="43.2920131" lon="11.3700592"><ele>222.75</ele><time>2026-04-19T09:37:22.827Z</time></trkpt><trkpt lat="43.2918809" lon="11.3700834"><ele>223.0</ele><time>2026-04-19T09:37:23.828Z</time></trkpt><trkpt lat="43.2917519" lon="11.3701175"><ele>223.0</ele><time>2026-04-19T09:37:24.828Z</time></trkpt><trkpt lat="43.2916175" lon="11.3701734"><ele>223.0</ele><time>2026-04-19T09:37:25.828Z</time></trkpt><trkpt lat="43.2914964" lon="11.3702338"><ele>223.0</ele><time>2026-04-19T09:37:26.828Z</time></trkpt><trkpt lat="43.2913822" lon="11.3703135"><ele>223.0</ele><time>2026-04-19T09:37:27.829Z</time></trkpt><trkpt lat="43.2912745" lon="11.3703947"><ele>223.4</ele><time>2026-04-19T09:37:28.829Z</time></trkpt><trkpt lat="43.2911654" lon="11.3704726"><ele>223.8</ele><time>2026-04-19T09:37:29.829Z</time></trkpt><trkpt lat="43.2910631" lon="11.3705315"><ele>224.2</ele><time>2026-04-19T09:37:30.828Z</time></trkpt><trkpt lat="43.2909628" lon="11.370578"><ele>224.6</ele><time>2026-04-19T09:37:31.828Z</time></trkpt><trkpt lat="43.2908628" lon="11.3706118"><ele>225.0</ele><time>2026-04-19T09:37:32.829Z</time></trkpt><trkpt lat="43.2907726" lon="11.370651"><ele>225.0</ele><time>2026-04-19T09:37:33.829Z</time></trkpt><trkpt lat="43.2906852" lon="11.3707066"><ele>225.0</ele><time>2026-04-19T09:37:34.829Z</time></trkpt><trkpt lat="43.290601" lon="11.3707715"><ele>225.0</ele><time>2026-04-19T09:37:35.828Z</time></trkpt><trkpt lat="43.2905254" lon="11.3708599"><ele>225.0</ele><time>2026-04-19T09:37:36.829Z</time></trkpt><trkpt lat="43.2904602" lon="11.370968"><ele>225.0</ele><time>2026-04-19T09:37:37.827Z</time></trkpt><trkpt lat="43.2904129" lon="11.3710835"><ele>225.0</ele><time>2026-04-19T09:37:38.827Z</time></trkpt><trkpt lat="43.2903591" lon="11.3711914"><ele>225.0</ele><time>2026-04-19T09:37:39.828Z</time></trkpt><trkpt lat="43.290287" lon="11.3712903"><ele>225.0</ele><time>2026-04-19T09:37:40.828Z</time></trkpt><trkpt lat="43.2902072" lon="11.3713804"><ele>225.0</ele><time>2026-04-19T09:37:41.827Z</time></trkpt><trkpt lat="43.2901193" lon="11.3714409"><ele>225.0</ele><time>2026-04-19T09:37:42.829Z</time></trkpt><trkpt lat="43.2900399" lon="11.3714936"><ele>225.0</ele><time>2026-04-19T09:37:43.829Z</time></trkpt><trkpt lat="43.2899782" lon="11.3715567"><ele>225.0</ele><time>2026-04-19T09:37:44.829Z</time></trkpt><trkpt lat="43.2899347" lon="11.371622"><ele>225.0</ele><time>2026-04-19T09:37:45.828Z</time></trkpt><trkpt lat="43.2899326" lon="11.3717115"><ele>225.0</ele><time>2026-04-19T09:37:46.829Z</time></trkpt><trkpt lat="43.2899258" lon="11.3718578"><ele>225.0</ele><time>2026-04-19T09:37:48.829Z</time></trkpt><trkpt lat="43.2899045" lon="11.3719874"><ele>225.0</ele><time>2026-04-19T09:37:50.829Z</time></trkpt><trkpt lat="43.2898313" lon="11.3721059"><ele>223.4</ele><time>2026-04-19T09:37:52.829Z</time></trkpt><trkpt lat="43.2897214" lon="11.3721916"><ele>221.8</ele><time>2026-04-19T09:37:54.828Z</time></trkpt><trkpt lat="43.28966" lon="11.3722307"><ele>220.2</ele><time>2026-04-19T09:37:55.827Z</time></trkpt><trkpt lat="43.289551" lon="11.3722731"><ele>218.6</ele><time>2026-04-19T09:37:57.829Z</time></trkpt><trkpt lat="43.2894466" lon="11.3723364"><ele>217.0</ele><time>2026-04-19T09:37:59.829Z</time></trkpt><trkpt lat="43.2893504" lon="11.3723906"><ele>216.99999999999997</ele><time>2026-04-19T09:38:01.828Z</time></trkpt><trkpt lat="43.2892475" lon="11.3724574"><ele>217.0</ele><time>2026-04-19T09:38:03.828Z</time></trkpt><trkpt lat="43.2891724" lon="11.3725612"><ele>217.0</ele><time>2026-04-19T09:38:05.827Z</time></trkpt><trkpt lat="43.2891469" lon="11.3726477"><ele>217.0</ele><time>2026-04-19T09:38:06.827Z</time></trkpt><trkpt lat="43.2891406" lon="11.3727427"><ele>216.99999999999997</ele><time>2026-04-19T09:38:07.827Z</time></trkpt><trkpt lat="43.2891333" lon="11.3728497"><ele>217.0</ele><time>2026-04-19T09:38:08.828Z</time></trkpt><trkpt lat="43.289132" lon="11.3729629"><ele>215.83333333333331</ele><time>2026-04-19T09:38:09.828Z</time></trkpt><trkpt lat="43.2891321" lon="11.3730745"><ele>214.66666666666666</ele><time>2026-04-19T09:38:10.828Z</time></trkpt><trkpt lat="43.2891232" lon="11.3731891"><ele>213.5</ele><time>2026-04-19T09:38:11.828Z</time></trkpt><trkpt lat="43.2891155" lon="11.3733028"><ele>212.33333333333331</ele><time>2026-04-19T09:38:12.828Z</time></trkpt><trkpt lat="43.28912" lon="11.3734157"><ele>211.16666666666666</ele><time>2026-04-19T09:38:13.827Z</time></trkpt><trkpt lat="43.2891195" lon="11.3735303"><ele>210.0</ele><time>2026-04-19T09:38:14.827Z</time></trkpt><trkpt lat="43.2891158" lon="11.3736479"><ele>210.0</ele><time>2026-04-19T09:38:15.827Z</time></trkpt><trkpt lat="43.2891162" lon="11.3737757"><ele>210.0</ele><time>2026-04-19T09:38:16.827Z</time></trkpt><trkpt lat="43.2891164" lon="11.3739125"><ele>210.0</ele><time>2026-04-19T09:38:17.827Z</time></trkpt><trkpt lat="43.2891206" lon="11.3740672"><ele>210.0</ele><time>2026-04-19T09:38:18.828Z</time></trkpt><trkpt lat="43.2891271" lon="11.3742353"><ele>210.0</ele><time>2026-04-19T09:38:19.828Z</time></trkpt><trkpt lat="43.2891338" lon="11.3744122"><ele>208.0</ele><time>2026-04-19T09:38:20.826Z</time></trkpt><trkpt lat="43.2891407" lon="11.3745984"><ele>206.0</ele><time>2026-04-19T09:38:21.827Z</time></trkpt><trkpt lat="43.2891454" lon="11.3747823"><ele>204.0</ele><time>2026-04-19T09:38:22.827Z</time></trkpt><trkpt lat="43.2891503" lon="11.3749651"><ele>202.0</ele><time>2026-04-19T09:38:23.827Z</time></trkpt><trkpt lat="43.2891537" lon="11.3751497"><ele>200.0</ele><time>2026-04-19T09:38:24.827Z</time></trkpt><trkpt lat="43.2891567" lon="11.3753314"><ele>198.0</ele><time>2026-04-19T09:38:25.828Z</time></trkpt><trkpt lat="43.2891673" lon="11.3754999"><ele>196.0</ele><time>2026-04-19T09:38:26.827Z</time></trkpt><trkpt lat="43.2891729" lon="11.3756623"><ele>194.0</ele><time>2026-04-19T09:38:27.827Z</time></trkpt><trkpt lat="43.2891774" lon="11.3758208"><ele>192.39999999999998</ele><time>2026-04-19T09:38:28.827Z</time></trkpt><trkpt lat="43.2891802" lon="11.3759703"><ele>190.8</ele><time>2026-04-19T09:38:29.828Z</time></trkpt><trkpt lat="43.2891838" lon="11.3761148"><ele>189.2</ele><time>2026-04-19T09:38:30.828Z</time></trkpt><trkpt lat="43.2891884" lon="11.3762641"><ele>187.60000000000002</ele><time>2026-04-19T09:38:31.827Z</time></trkpt><trkpt lat="43.2891933" lon="11.3764061"><ele>186.0</ele><time>2026-04-19T09:38:32.828Z</time></trkpt><trkpt lat="43.2892037" lon="11.3765379"><ele>185.83333333333334</ele><time>2026-04-19T09:38:33.828Z</time></trkpt><trkpt lat="43.2892131" lon="11.3766656"><ele>185.66666666666666</ele><time>2026-04-19T09:38:35.826Z</time></trkpt><trkpt lat="43.2892013" lon="11.3767832"><ele>185.5</ele><time>2026-04-19T09:38:48.827Z</time></trkpt><trkpt lat="43.2892152" lon="11.3768832"><ele>185.33333333333331</ele><time>2026-04-19T09:38:49.827Z</time></trkpt><trkpt lat="43.2892272" lon="11.3769968"><ele>185.16666666666666</ele><time>2026-04-19T09:38:50.826Z</time></trkpt><trkpt lat="43.2892412" lon="11.3771124"><ele>185.0</ele><time>2026-04-19T09:38:51.827Z</time></trkpt><trkpt lat="43.289255" lon="11.3772309"><ele>185.0</ele><time>2026-04-19T09:38:52.827Z</time></trkpt><trkpt lat="43.2892633" lon="11.377333"><ele>185.0</ele><time>2026-04-19T09:38:53.828Z</time></trkpt><trkpt lat="43.289277" lon="11.3774265"><ele>185.0</ele><time>2026-04-19T09:38:54.828Z</time></trkpt><trkpt lat="43.2892815" lon="11.3775232"><ele>185.0</ele><time>2026-04-19T09:38:55.828Z</time></trkpt><trkpt lat="43.2892705" lon="11.3776582"><ele>185.0</ele><time>2026-04-19T09:38:57.827Z</time></trkpt><trkpt lat="43.2892198" lon="11.3777866"><ele>185.0</ele><time>2026-04-19T09:38:59.828Z</time></trkpt><trkpt lat="43.2891386" lon="11.3778605"><ele>185.0</ele><time>2026-04-19T09:39:01.828Z</time></trkpt><trkpt lat="43.2890818" lon="11.3778984"><ele>185.0</ele><time>2026-04-19T09:39:02.826Z</time></trkpt><trkpt lat="43.288952" lon="11.3779834"><ele>185.0</ele><time>2026-04-19T09:39:04.828Z</time></trkpt><trkpt lat="43.2888908" lon="11.3780221"><ele>185.0</ele><time>2026-04-19T09:39:05.826Z</time></trkpt><trkpt lat="43.28883" lon="11.3780527"><ele>185.0</ele><time>2026-04-19T09:39:06.826Z</time></trkpt><trkpt lat="43.288768" lon="11.3780908"><ele>185.0</ele><time>2026-04-19T09:39:07.828Z</time></trkpt><trkpt lat="43.2887068" lon="11.3781341"><ele>187.16666666666666</ele><time>2026-04-19T09:39:08.828Z</time></trkpt><trkpt lat="43.2886442" lon="11.3781805"><ele>189.33333333333331</ele><time>2026-04-19T09:39:09.828Z</time></trkpt><trkpt lat="43.2885775" lon="11.3782398"><ele>191.5</ele><time>2026-04-19T09:39:10.827Z</time></trkpt><trkpt lat="43.2884534" lon="11.3783292"><ele>193.66666666666666</ele><time>2026-04-19T09:39:12.827Z</time></trkpt><trkpt lat="43.2883918" lon="11.3783794"><ele>195.83333333333334</ele><time>2026-04-19T09:39:13.827Z</time></trkpt><trkpt lat="43.288336" lon="11.3784362"><ele>198.0</ele><time>2026-04-19T09:39:14.827Z</time></trkpt><trkpt lat="43.2882273" lon="11.3785356"><ele>198.0</ele><time>2026-04-19T09:39:16.827Z</time></trkpt><trkpt lat="43.2881334" lon="11.3786523"><ele>198.0</ele><time>2026-04-19T09:39:18.828Z</time></trkpt><trkpt lat="43.288081" lon="11.3787239"><ele>198.0</ele><time>2026-04-19T09:39:19.828Z</time></trkpt><trkpt lat="43.288045" lon="11.3787949"><ele>198.0</ele><time>2026-04-19T09:39:20.827Z</time></trkpt><trkpt lat="43.2880114" lon="11.3789185"><ele>198.0</ele><time>2026-04-19T09:39:22.827Z</time></trkpt><trkpt lat="43.2880119" lon="11.3790156"><ele>198.0</ele><time>2026-04-19T09:39:23.828Z</time></trkpt><trkpt lat="43.2880148" lon="11.3791122"><ele>198.33333333333334</ele><time>2026-04-19T09:39:24.827Z</time></trkpt><trkpt lat="43.2880263" lon="11.3792156"><ele>198.66666666666669</ele><time>2026-04-19T09:39:25.827Z</time></trkpt><trkpt lat="43.2880305" lon="11.379379"><ele>199.0</ele><time>2026-04-19T09:39:27.827Z</time></trkpt><trkpt lat="43.2879948" lon="11.3794623"><ele>199.33333333333334</ele><time>2026-04-19T09:39:29.827Z</time></trkpt><trkpt lat="43.2879309" lon="11.3795574"><ele>199.66666666666669</ele><time>2026-04-19T09:39:31.827Z</time></trkpt><trkpt lat="43.2878689" lon="11.3796098"><ele>200.0</ele><time>2026-04-19T09:39:32.826Z</time></trkpt><trkpt lat="43.287762" lon="11.3796597"><ele>199.5</ele><time>2026-04-19T09:39:33.828Z</time></trkpt><trkpt lat="43.2876178" lon="11.3797224"><ele>199.0</ele><time>2026-04-19T09:39:34.827Z</time></trkpt><trkpt lat="43.2874916" lon="11.3797852"><ele>198.5</ele><time>2026-04-19T09:39:35.827Z</time></trkpt><trkpt lat="43.2873637" lon="11.3798423"><ele>198.0</ele><time>2026-04-19T09:39:36.827Z</time></trkpt><trkpt lat="43.2872286" lon="11.3798685"><ele>197.0</ele><time>2026-04-19T09:39:37.827Z</time></trkpt><trkpt lat="43.2870846" lon="11.3798752"><ele>196.0</ele><time>2026-04-19T09:39:38.828Z</time></trkpt><trkpt lat="43.2869194" lon="11.3798562"><ele>195.0</ele><time>2026-04-19T09:39:39.828Z</time></trkpt><trkpt lat="43.2867443" lon="11.3798122"><ele>195.0</ele><time>2026-04-19T09:39:40.827Z</time></trkpt><trkpt lat="43.2865744" lon="11.3797591"><ele>195.0</ele><time>2026-04-19T09:39:41.827Z</time></trkpt><trkpt lat="43.2864162" lon="11.3796957"><ele>195.0</ele><time>2026-04-19T09:39:42.827Z</time></trkpt><trkpt lat="43.2862571" lon="11.3796051"><ele>195.5</ele><time>2026-04-19T09:39:43.826Z</time></trkpt><trkpt lat="43.2861126" lon="11.3795163"><ele>196.0</ele><time>2026-04-19T09:39:44.827Z</time></trkpt><trkpt lat="43.28598" lon="11.3794195"><ele>196.5</ele><time>2026-04-19T09:39:45.826Z</time></trkpt><trkpt lat="43.2858597" lon="11.3793357"><ele>197.0</ele><time>2026-04-19T09:39:46.828Z</time></trkpt><trkpt lat="43.28575" lon="11.3792616"><ele>197.0</ele><time>2026-04-19T09:39:47.828Z</time></trkpt><trkpt lat="43.285647" lon="11.3791907"><ele>197.0</ele><time>2026-04-19T09:39:48.828Z</time></trkpt><trkpt lat="43.2855438" lon="11.3791208"><ele>197.0</ele><time>2026-04-19T09:39:49.827Z</time></trkpt><trkpt lat="43.2854243" lon="11.3790618"><ele>197.0</ele><time>2026-04-19T09:39:50.828Z</time></trkpt><trkpt lat="43.2852903" lon="11.3790127"><ele>196.25</ele><time>2026-04-19T09:39:51.826Z</time></trkpt><trkpt lat="43.285149" lon="11.3789931"><ele>195.5</ele><time>2026-04-19T09:39:52.827Z</time></trkpt><trkpt lat="43.2850063" lon="11.3789825"><ele>194.75</ele><time>2026-04-19T09:39:53.827Z</time></trkpt><trkpt lat="43.2848704" lon="11.378974"><ele>194.0</ele><time>2026-04-19T09:39:54.827Z</time></trkpt><trkpt lat="43.2847406" lon="11.3789642"><ele>193.75</ele><time>2026-04-19T09:39:55.827Z</time></trkpt><trkpt lat="43.2846148" lon="11.3789506"><ele>193.5</ele><time>2026-04-19T09:39:56.828Z</time></trkpt><trkpt lat="43.2844914" lon="11.3789339"><ele>193.25</ele><time>2026-04-19T09:39:57.828Z</time></trkpt><trkpt lat="43.2843701" lon="11.3789021"><ele>193.0</ele><time>2026-04-19T09:39:58.828Z</time></trkpt><trkpt lat="43.2842591" lon="11.3788467"><ele>191.5</ele><time>2026-04-19T09:39:59.828Z</time></trkpt><trkpt lat="43.2841563" lon="11.3787637"><ele>190.0</ele><time>2026-04-19T09:40:00.828Z</time></trkpt><trkpt lat="43.2840584" lon="11.3786494"><ele>188.5</ele><time>2026-04-19T09:40:01.827Z</time></trkpt><trkpt lat="43.283979" lon="11.3785113"><ele>187.0</ele><time>2026-04-19T09:40:02.827Z</time></trkpt><trkpt lat="43.2839189" lon="11.3783571"><ele>185.5</ele><time>2026-04-19T09:40:03.827Z</time></trkpt><trkpt lat="43.2838534" lon="11.3782081"><ele>184.0</ele><time>2026-04-19T09:40:04.827Z</time></trkpt><trkpt lat="43.2837706" lon="11.3780615"><ele>182.5</ele><time>2026-04-19T09:40:05.828Z</time></trkpt><trkpt lat="43.2836684" lon="11.3779446"><ele>181.0</ele><time>2026-04-19T09:40:06.828Z</time></trkpt><trkpt lat="43.283549" lon="11.3778582"><ele>180.5</ele><time>2026-04-19T09:40:07.828Z</time></trkpt><trkpt lat="43.2834237" lon="11.3778002"><ele>180.0</ele><time>2026-04-19T09:40:08.826Z</time></trkpt><trkpt lat="43.2832947" lon="11.3777738"><ele>179.5</ele><time>2026-04-19T09:40:09.826Z</time></trkpt><trkpt lat="43.2831619" lon="11.3777771"><ele>179.0</ele><time>2026-04-19T09:40:10.828Z</time></trkpt><trkpt lat="43.2830188" lon="11.3778066"><ele>178.75</ele><time>2026-04-19T09:40:11.827Z</time></trkpt><trkpt lat="43.2828696" lon="11.3778547"><ele>178.5</ele><time>2026-04-19T09:40:12.828Z</time></trkpt><trkpt lat="43.282727" lon="11.3779081"><ele>178.25</ele><time>2026-04-19T09:40:13.827Z</time></trkpt><trkpt lat="43.2825904" lon="11.3779362"><ele>178.0</ele><time>2026-04-19T09:40:14.828Z</time></trkpt><trkpt lat="43.2824611" lon="11.3779336"><ele>178.0</ele><time>2026-04-19T09:40:15.827Z</time></trkpt><trkpt lat="43.2823495" lon="11.3778953"><ele>178.0</ele><time>2026-04-19T09:40:16.828Z</time></trkpt><trkpt lat="43.2822526" lon="11.3778248"><ele>178.0</ele><time>2026-04-19T09:40:17.827Z</time></trkpt><trkpt lat="43.2821605" lon="11.3777308"><ele>178.0</ele><time>2026-04-19T09:40:18.828Z</time></trkpt><trkpt lat="43.2820807" lon="11.3776117"><ele>177.75</ele><time>2026-04-19T09:40:19.826Z</time></trkpt><trkpt lat="43.2820175" lon="11.37747"><ele>177.5</ele><time>2026-04-19T09:40:20.827Z</time></trkpt><trkpt lat="43.2819727" lon="11.3773137"><ele>177.25</ele><time>2026-04-19T09:40:21.827Z</time></trkpt><trkpt lat="43.2819415" lon="11.3771537"><ele>177.0</ele><time>2026-04-19T09:40:22.827Z</time></trkpt><trkpt lat="43.2819079" lon="11.3770038"><ele>177.0</ele><time>2026-04-19T09:40:23.828Z</time></trkpt><trkpt lat="43.2818748" lon="11.3768652"><ele>177.0</ele><time>2026-04-19T09:40:24.827Z</time></trkpt><trkpt lat="43.2818672" lon="11.3767521"><ele>177.0</ele><time>2026-04-19T09:40:25.827Z</time></trkpt><trkpt lat="43.2818808" lon="11.3766496"><ele>177.0</ele><time>2026-04-19T09:40:26.827Z</time></trkpt><trkpt lat="43.2819161" lon="11.376548"><ele>177.0</ele><time>2026-04-19T09:40:27.826Z</time></trkpt><trkpt lat="43.2819499" lon="11.3764439"><ele>177.0</ele><time>2026-04-19T09:40:28.828Z</time></trkpt><trkpt lat="43.2819639" lon="11.3763343"><ele>177.0</ele><time>2026-04-19T09:40:29.828Z</time></trkpt><trkpt lat="43.2819604" lon="11.3762263"><ele>177.0</ele><time>2026-04-19T09:40:30.828Z</time></trkpt><trkpt lat="43.2819341" lon="11.3761316"><ele>177.0</ele><time>2026-04-19T09:40:31.827Z</time></trkpt><trkpt lat="43.2818864" lon="11.376054"><ele>177.0</ele><time>2026-04-19T09:40:32.827Z</time></trkpt><trkpt lat="43.2818232" lon="11.3760114"><ele>177.0</ele><time>2026-04-19T09:40:33.828Z</time></trkpt><trkpt lat="43.2817471" lon="11.3760034"><ele>177.0</ele><time>2026-04-19T09:40:34.827Z</time></trkpt><trkpt lat="43.2816686" lon="11.3760308"><ele>177.0</ele><time>2026-04-19T09:40:35.828Z</time></trkpt><trkpt lat="43.2816007" lon="11.3760855"><ele>177.0</ele><time>2026-04-19T09:40:36.828Z</time></trkpt><trkpt lat="43.2815538" lon="11.3761699"><ele>177.0</ele><time>2026-04-19T09:40:37.827Z</time></trkpt><trkpt lat="43.2815291" lon="11.3762701"><ele>177.0</ele><time>2026-04-19T09:40:38.827Z</time></trkpt><trkpt lat="43.2815333" lon="11.3763744"><ele>177.0</ele><time>2026-04-19T09:40:39.827Z</time></trkpt><trkpt lat="43.281566" lon="11.3764706"><ele>177.0</ele><time>2026-04-19T09:40:40.827Z</time></trkpt><trkpt lat="43.2816276" lon="11.3765454"><ele>177.0</ele><time>2026-04-19T09:40:41.828Z</time></trkpt><trkpt lat="43.2817008" lon="11.3765834"><ele>177.0</ele><time>2026-04-19T09:40:42.828Z</time></trkpt><trkpt lat="43.2817827" lon="11.3765882"><ele>177.0</ele><time>2026-04-19T09:40:43.827Z</time></trkpt><trkpt lat="43.2818651" lon="11.3765529"><ele>177.0</ele><time>2026-04-19T09:40:44.826Z</time></trkpt><trkpt lat="43.2819256" lon="11.3764816"><ele>177.0</ele><time>2026-04-19T09:40:45.827Z</time></trkpt><trkpt lat="43.2819618" lon="11.3763878"><ele>177.0</ele><time>2026-04-19T09:40:46.828Z</time></trkpt><trkpt lat="43.2819696" lon="11.3762851"><ele>177.0</ele><time>2026-04-19T09:40:47.828Z</time></trkpt><trkpt lat="43.2819483" lon="11.3761832"><ele>177.0</ele><time>2026-04-19T09:40:48.828Z</time></trkpt><trkpt lat="43.2819059" lon="11.3760962"><ele>177.0</ele><time>2026-04-19T09:40:49.827Z</time></trkpt><trkpt lat="43.281774" lon="11.3760102"><ele>177.0</ele><time>2026-04-19T09:40:51.827Z</time></trkpt><trkpt lat="43.2816869" lon="11.3760265"><ele>177.0</ele><time>2026-04-19T09:40:52.828Z</time></trkpt><trkpt lat="43.2816024" lon="11.3760966"><ele>177.0</ele><time>2026-04-19T09:40:53.828Z</time></trkpt><trkpt lat="43.2815236" lon="11.376206"><ele>177.0</ele><time>2026-04-19T09:40:54.828Z</time></trkpt><trkpt lat="43.2814377" lon="11.3763231"><ele>177.0</ele><time>2026-04-19T09:40:55.828Z</time></trkpt><trkpt lat="43.2813028" lon="11.3764182"><ele>177.0</ele><time>2026-04-19T09:40:56.826Z</time></trkpt><trkpt lat="43.2811367" lon="11.3764976"><ele>176.66666666666666</ele><time>2026-04-19T09:40:57.827Z</time></trkpt><trkpt lat="43.2809491" lon="11.3765742"><ele>176.33333333333331</ele><time>2026-04-19T09:40:58.827Z</time></trkpt><trkpt lat="43.2807442" lon="11.3766544"><ele>176.0</ele><time>2026-04-19T09:40:59.827Z</time></trkpt><trkpt lat="43.2805262" lon="11.3767319"><ele>177.5</ele><time>2026-04-19T09:41:00.828Z</time></trkpt><trkpt lat="43.2802848" lon="11.3768063"><ele>179.0</ele><time>2026-04-19T09:41:01.827Z</time></trkpt><trkpt lat="43.2800379" lon="11.3768673"><ele>179.0</ele><time>2026-04-19T09:41:02.828Z</time></trkpt><trkpt lat="43.2797742" lon="11.3769157"><ele>179.0</ele><time>2026-04-19T09:41:03.827Z</time></trkpt><trkpt lat="43.2795055" lon="11.3769346"><ele>179.5</ele><time>2026-04-19T09:41:04.827Z</time></trkpt><trkpt lat="43.2792371" lon="11.3769274"><ele>180.0</ele><time>2026-04-19T09:41:05.827Z</time></trkpt><trkpt lat="43.2789746" lon="11.3768932"><ele>178.5</ele><time>2026-04-19T09:41:06.828Z</time></trkpt><trkpt lat="43.2787058" lon="11.3768459"><ele>177.0</ele><time>2026-04-19T09:41:07.828Z</time></trkpt><trkpt lat="43.2784474" lon="11.3767947"><ele>177.0</ele><time>2026-04-19T09:41:08.826Z</time></trkpt><trkpt lat="43.278203" lon="11.3767496"><ele>177.0</ele><time>2026-04-19T09:41:09.828Z</time></trkpt><trkpt lat="43.277968" lon="11.3767058"><ele>176.5</ele><time>2026-04-19T09:41:10.826Z</time></trkpt><trkpt lat="43.2777415" lon="11.3766673"><ele>176.0</ele><time>2026-04-19T09:41:11.828Z</time></trkpt><trkpt lat="43.2775173" lon="11.3766502"><ele>176.0</ele><time>2026-04-19T09:41:12.827Z</time></trkpt><trkpt lat="43.277287" lon="11.3766516"><ele>176.0</ele><time>2026-04-19T09:41:13.828Z</time></trkpt><trkpt lat="43.277048" lon="11.3766679"><ele>177.5</ele><time>2026-04-19T09:41:14.827Z</time></trkpt><trkpt lat="43.2768096" lon="11.376702"><ele>179.0</ele><time>2026-04-19T09:41:15.828Z</time></trkpt><trkpt lat="43.2765775" lon="11.3767572"><ele>179.5</ele><time>2026-04-19T09:41:16.827Z</time></trkpt><trkpt lat="43.2763542" lon="11.3768317"><ele>180.0</ele><time>2026-04-19T09:41:17.828Z</time></trkpt><trkpt lat="43.2761386" lon="11.3769169"><ele>180.0</ele><time>2026-04-19T09:41:18.828Z</time></trkpt><trkpt lat="43.2759267" lon="11.376999"><ele>180.0</ele><time>2026-04-19T09:41:19.826Z</time></trkpt><trkpt lat="43.2757099" lon="11.3770825"><ele>180.0</ele><time>2026-04-19T09:41:20.827Z</time></trkpt><trkpt lat="43.2755027" lon="11.3771656"><ele>179.66666666666666</ele><time>2026-04-19T09:41:21.827Z</time></trkpt><trkpt lat="43.2752931" lon="11.3772493"><ele>179.33333333333331</ele><time>2026-04-19T09:41:22.825Z</time></trkpt><trkpt lat="43.2750837" lon="11.3773347"><ele>179.0</ele><time>2026-04-19T09:41:23.826Z</time></trkpt><trkpt lat="43.2748811" lon="11.3774223"><ele>179.66666666666666</ele><time>2026-04-19T09:41:24.826Z</time></trkpt><trkpt lat="43.2746834" lon="11.3775088"><ele>180.33333333333334</ele><time>2026-04-19T09:41:25.827Z</time></trkpt><trkpt lat="43.274497" lon="11.377588"><ele>181.0</ele><time>2026-04-19T09:41:26.827Z</time></trkpt><trkpt lat="43.2743203" lon="11.3776635"><ele>181.0</ele><time>2026-04-19T09:41:27.827Z</time></trkpt><trkpt lat="43.2741489" lon="11.3777339"><ele>181.0</ele><time>2026-04-19T09:41:28.827Z</time></trkpt><trkpt lat="43.2739857" lon="11.3778024"><ele>181.0</ele><time>2026-04-19T09:41:29.825Z</time></trkpt><trkpt lat="43.2738336" lon="11.3778666"><ele>179.66666666666669</ele><time>2026-04-19T09:41:30.826Z</time></trkpt><trkpt lat="43.2736827" lon="11.3779303"><ele>178.33333333333334</ele><time>2026-04-19T09:41:31.826Z</time></trkpt><trkpt lat="43.2735377" lon="11.3779931"><ele>177.0</ele><time>2026-04-19T09:41:32.825Z</time></trkpt><trkpt lat="43.2734026" lon="11.3780499"><ele>177.0</ele><time>2026-04-19T09:41:33.826Z</time></trkpt><trkpt lat="43.2732707" lon="11.3781017"><ele>177.0</ele><time>2026-04-19T09:41:34.825Z</time></trkpt><trkpt lat="43.2731428" lon="11.3781534"><ele>177.0</ele><time>2026-04-19T09:41:35.825Z</time></trkpt><trkpt lat="43.2730117" lon="11.3782083"><ele>177.0</ele><time>2026-04-19T09:41:36.826Z</time></trkpt><trkpt lat="43.2728768" lon="11.378266"><ele>177.0</ele><time>2026-04-19T09:41:37.826Z</time></trkpt><trkpt lat="43.2727326" lon="11.3783247"><ele>177.0</ele><time>2026-04-19T09:41:38.826Z</time></trkpt><trkpt lat="43.2725802" lon="11.3783844"><ele>177.0</ele><time>2026-04-19T09:41:39.827Z</time></trkpt><trkpt lat="43.2724311" lon="11.3784393"><ele>177.0</ele><time>2026-04-19T09:41:40.827Z</time></trkpt><trkpt lat="43.2722839" lon="11.3784933"><ele>177.0</ele><time>2026-04-19T09:41:41.826Z</time></trkpt><trkpt lat="43.2721423" lon="11.3785377"><ele>177.0</ele><time>2026-04-19T09:41:42.826Z</time></trkpt><trkpt lat="43.272008" lon="11.3785737"><ele>177.0</ele><time>2026-04-19T09:41:43.827Z</time></trkpt><trkpt lat="43.2718755" lon="11.3786032"><ele>177.0</ele><time>2026-04-19T09:41:44.826Z</time></trkpt><trkpt lat="43.2717446" lon="11.3786211"><ele>177.0</ele><time>2026-04-19T09:41:45.826Z</time></trkpt><trkpt lat="43.2716178" lon="11.3786322"><ele>177.0</ele><time>2026-04-19T09:41:46.825Z</time></trkpt><trkpt lat="43.2714844" lon="11.3786419"><ele>177.0</ele><time>2026-04-19T09:41:47.827Z</time></trkpt><trkpt lat="43.271347" lon="11.3786394"><ele>176.75</ele><time>2026-04-19T09:41:48.827Z</time></trkpt><trkpt lat="43.2712066" lon="11.3786332"><ele>176.5</ele><time>2026-04-19T09:41:49.827Z</time></trkpt><trkpt lat="43.2710643" lon="11.3786246"><ele>176.25</ele><time>2026-04-19T09:41:50.826Z</time></trkpt><trkpt lat="43.2709147" lon="11.3786018"><ele>176.0</ele><time>2026-04-19T09:41:51.827Z</time></trkpt><trkpt lat="43.2707616" lon="11.378573"><ele>176.33333333333331</ele><time>2026-04-19T09:41:52.826Z</time></trkpt><trkpt lat="43.2706013" lon="11.3785304"><ele>176.66666666666666</ele><time>2026-04-19T09:41:53.825Z</time></trkpt><trkpt lat="43.2704324" lon="11.3784761"><ele>177.0</ele><time>2026-04-19T09:41:54.827Z</time></trkpt><trkpt lat="43.2702629" lon="11.3784026"><ele>177.0</ele><time>2026-04-19T09:41:55.826Z</time></trkpt><trkpt lat="43.2701058" lon="11.3783249"><ele>177.0</ele><time>2026-04-19T09:41:56.827Z</time></trkpt><trkpt lat="43.2699624" lon="11.3782457"><ele>177.0</ele><time>2026-04-19T09:41:57.826Z</time></trkpt><trkpt lat="43.2698251" lon="11.3781626"><ele>177.0</ele><time>2026-04-19T09:41:58.827Z</time></trkpt><trkpt lat="43.2697134" lon="11.3780841"><ele>177.0</ele><time>2026-04-19T09:41:59.826Z</time></trkpt><trkpt lat="43.2696091" lon="11.3780074"><ele>177.0</ele><time>2026-04-19T09:42:00.827Z</time></trkpt><trkpt lat="43.2695144" lon="11.3779332"><ele>177.0</ele><time>2026-04-19T09:42:01.826Z</time></trkpt><trkpt lat="43.2694254" lon="11.3778562"><ele>178.75</ele><time>2026-04-19T09:42:02.827Z</time></trkpt><trkpt lat="43.2693381" lon="11.3777671"><ele>180.5</ele><time>2026-04-19T09:42:03.827Z</time></trkpt><trkpt lat="43.2692572" lon="11.3776712"><ele>182.25</ele><time>2026-04-19T09:42:04.827Z</time></trkpt><trkpt lat="43.2691709" lon="11.3775664"><ele>184.0</ele><time>2026-04-19T09:42:05.826Z</time></trkpt><trkpt lat="43.2690828" lon="11.3774497"><ele>184.0</ele><time>2026-04-19T09:42:06.826Z</time></trkpt><trkpt lat="43.2689877" lon="11.3773294"><ele>184.0</ele><time>2026-04-19T09:42:07.826Z</time></trkpt><trkpt lat="43.268891" lon="11.3772245"><ele>184.0</ele><time>2026-04-19T09:42:08.826Z</time></trkpt><trkpt lat="43.2687976" lon="11.377127"><ele>184.0</ele><time>2026-04-19T09:42:09.825Z</time></trkpt><trkpt lat="43.2687081" lon="11.3770464"><ele>183.0</ele><time>2026-04-19T09:42:10.826Z</time></trkpt><trkpt lat="43.2686141" lon="11.3769806"><ele>182.0</ele><time>2026-04-19T09:42:11.826Z</time></trkpt><trkpt lat="43.2685179" lon="11.3769279"><ele>181.0</ele><time>2026-04-19T09:42:12.826Z</time></trkpt><trkpt lat="43.2684234" lon="11.3768792"><ele>180.0</ele><time>2026-04-19T09:42:13.826Z</time></trkpt><trkpt lat="43.2683215" lon="11.3768176"><ele>179.0</ele><time>2026-04-19T09:42:14.826Z</time></trkpt><trkpt lat="43.2682106" lon="11.376753"><ele>178.5</ele><time>2026-04-19T09:42:15.827Z</time></trkpt><trkpt lat="43.2680877" lon="11.3766893"><ele>178.0</ele><time>2026-04-19T09:42:16.827Z</time></trkpt><trkpt lat="43.2679552" lon="11.3766205"><ele>177.5</ele><time>2026-04-19T09:42:17.827Z</time></trkpt><trkpt lat="43.26782" lon="11.3765592"><ele>177.0</ele><time>2026-04-19T09:42:18.826Z</time></trkpt><trkpt lat="43.2676836" lon="11.37651"><ele>177.0</ele><time>2026-04-19T09:42:19.826Z</time></trkpt><trkpt lat="43.2675496" lon="11.376472"><ele>177.0</ele><time>2026-04-19T09:42:20.826Z</time></trkpt><trkpt lat="43.2674154" lon="11.3764399"><ele>177.0</ele><time>2026-04-19T09:42:21.826Z</time></trkpt><trkpt lat="43.2672914" lon="11.3764014"><ele>177.0</ele><time>2026-04-19T09:42:22.827Z</time></trkpt><trkpt lat="43.2671712" lon="11.3763511"><ele>176.75</ele><time>2026-04-19T09:42:23.826Z</time></trkpt><trkpt lat="43.2670527" lon="11.3762951"><ele>176.5</ele><time>2026-04-19T09:42:24.826Z</time></trkpt><trkpt lat="43.2669381" lon="11.3762371"><ele>176.25</ele><time>2026-04-19T09:42:25.825Z</time></trkpt><trkpt lat="43.2668231" lon="11.3761749"><ele>176.0</ele><time>2026-04-19T09:42:26.825Z</time></trkpt><trkpt lat="43.266701" lon="11.3761137"><ele>176.0</ele><time>2026-04-19T09:42:27.826Z</time></trkpt><trkpt lat="43.2665755" lon="11.3760484"><ele>176.0</ele><time>2026-04-19T09:42:28.826Z</time></trkpt><trkpt lat="43.266446" lon="11.3759805"><ele>176.0</ele><time>2026-04-19T09:42:29.827Z</time></trkpt><trkpt lat="43.2663167" lon="11.3759075"><ele>176.0</ele><time>2026-04-19T09:42:30.827Z</time></trkpt><trkpt lat="43.2661894" lon="11.3758358"><ele>176.0</ele><time>2026-04-19T09:42:31.827Z</time></trkpt><trkpt lat="43.2660673" lon="11.3757738"><ele>176.0</ele><time>2026-04-19T09:42:32.826Z</time></trkpt><trkpt lat="43.2659529" lon="11.3757151"><ele>176.0</ele><time>2026-04-19T09:42:33.826Z</time></trkpt><trkpt lat="43.2658405" lon="11.3756556"><ele>176.0</ele><time>2026-04-19T09:42:34.826Z</time></trkpt><trkpt lat="43.2657253" lon="11.3755929"><ele>176.0</ele><time>2026-04-19T09:42:35.825Z</time></trkpt><trkpt lat="43.2656054" lon="11.3755323"><ele>176.0</ele><time>2026-04-19T09:42:36.826Z</time></trkpt><trkpt lat="43.2654856" lon="11.3754741"><ele>176.0</ele><time>2026-04-19T09:42:37.826Z</time></trkpt><trkpt lat="43.2653638" lon="11.3754081"><ele>176.0</ele><time>2026-04-19T09:42:38.826Z</time></trkpt><trkpt lat="43.2652394" lon="11.375343"><ele>176.0</ele><time>2026-04-19T09:42:39.826Z</time></trkpt><trkpt lat="43.2651175" lon="11.3752763"><ele>176.0</ele><time>2026-04-19T09:42:40.827Z</time></trkpt><trkpt lat="43.2649963" lon="11.375207"><ele>176.0</ele><time>2026-04-19T09:42:41.827Z</time></trkpt><trkpt lat="43.264875" lon="11.3751427"><ele>176.0</ele><time>2026-04-19T09:42:42.827Z</time></trkpt><trkpt lat="43.2647529" lon="11.3750842"><ele>176.0</ele><time>2026-04-19T09:42:43.826Z</time></trkpt><trkpt lat="43.2646291" lon="11.3750229"><ele>176.0</ele><time>2026-04-19T09:42:44.826Z</time></trkpt><trkpt lat="43.2645048" lon="11.3749595"><ele>176.0</ele><time>2026-04-19T09:42:45.826Z</time></trkpt><trkpt lat="43.2643801" lon="11.3748948"><ele>176.0</ele><time>2026-04-19T09:42:46.827Z</time></trkpt><trkpt lat="43.2642565" lon="11.374835"><ele>176.0</ele><time>2026-04-19T09:42:47.827Z</time></trkpt><trkpt lat="43.264134" lon="11.374777"><ele>176.0</ele><time>2026-04-19T09:42:48.827Z</time></trkpt><trkpt lat="43.264009" lon="11.3747153"><ele>176.0</ele><time>2026-04-19T09:42:49.827Z</time></trkpt><trkpt lat="43.263891" lon="11.3746507"><ele>176.0</ele><time>2026-04-19T09:42:50.827Z</time></trkpt><trkpt lat="43.263779" lon="11.3745848"><ele>176.0</ele><time>2026-04-19T09:42:51.826Z</time></trkpt><trkpt lat="43.2636653" lon="11.3745211"><ele>176.0</ele><time>2026-04-19T09:42:52.826Z</time></trkpt><trkpt lat="43.2635495" lon="11.3744555"><ele>176.0</ele><time>2026-04-19T09:42:53.827Z</time></trkpt><trkpt lat="43.2634312" lon="11.3743911"><ele>176.0</ele><time>2026-04-19T09:42:54.827Z</time></trkpt><trkpt lat="43.2633134" lon="11.3743313"><ele>176.0</ele><time>2026-04-19T09:42:55.827Z</time></trkpt><trkpt lat="43.2631958" lon="11.3742699"><ele>176.0</ele><time>2026-04-19T09:42:56.827Z</time></trkpt><trkpt lat="43.2630795" lon="11.3742118"><ele>176.0</ele><time>2026-04-19T09:42:57.827Z</time></trkpt><trkpt lat="43.2629637" lon="11.3741534"><ele>176.0</ele><time>2026-04-19T09:42:58.826Z</time></trkpt><trkpt lat="43.2628499" lon="11.3740974"><ele>176.20000000000002</ele><time>2026-04-19T09:42:59.826Z</time></trkpt><trkpt lat="43.2627406" lon="11.3740407"><ele>176.4</ele><time>2026-04-19T09:43:00.826Z</time></trkpt><trkpt lat="43.2626384" lon="11.3739906"><ele>176.6</ele><time>2026-04-19T09:43:01.827Z</time></trkpt><trkpt lat="43.2625461" lon="11.3739369"><ele>176.8</ele><time>2026-04-19T09:43:02.827Z</time></trkpt><trkpt lat="43.2624685" lon="11.373881"><ele>177.0</ele><time>2026-04-19T09:43:03.827Z</time></trkpt><trkpt lat="43.2624039" lon="11.3738211"><ele>177.14285714285714</ele><time>2026-04-19T09:43:04.827Z</time></trkpt><trkpt lat="43.2623524" lon="11.3737576"><ele>177.28571428571428</ele><time>2026-04-19T09:43:05.826Z</time></trkpt><trkpt lat="43.2623192" lon="11.373678"><ele>177.42857142857142</ele><time>2026-04-19T09:43:06.826Z</time></trkpt><trkpt lat="43.2622986" lon="11.3735895"><ele>177.57142857142856</ele><time>2026-04-19T09:43:07.826Z</time></trkpt><trkpt lat="43.2622912" lon="11.3734883"><ele>177.71428571428572</ele><time>2026-04-19T09:43:08.827Z</time></trkpt><trkpt lat="43.2622689" lon="11.373392"><ele>177.85714285714283</ele><time>2026-04-19T09:43:09.827Z</time></trkpt><trkpt lat="43.2622187" lon="11.373325"><ele>178.0</ele><time>2026-04-19T09:43:10.826Z</time></trkpt><trkpt lat="43.2620951" lon="11.3732914"><ele>178.0</ele><time>2026-04-19T09:43:12.826Z</time></trkpt><trkpt lat="43.2620304" lon="11.3733242"><ele>178.0</ele><time>2026-04-19T09:43:13.827Z</time></trkpt><trkpt lat="43.2619762" lon="11.3733918"><ele>178.0</ele><time>2026-04-19T09:43:14.827Z</time></trkpt><trkpt lat="43.2619383" lon="11.3734891"><ele>178.0</ele><time>2026-04-19T09:43:15.826Z</time></trkpt><trkpt lat="43.2619109" lon="11.3735971"><ele>178.0</ele><time>2026-04-19T09:43:16.827Z</time></trkpt><trkpt lat="43.2618694" lon="11.3737071"><ele>178.0</ele><time>2026-04-19T09:43:17.827Z</time></trkpt><trkpt lat="43.2618142" lon="11.3738036"><ele>177.8</ele><time>2026-04-19T09:43:18.826Z</time></trkpt><trkpt lat="43.261751" lon="11.3739025"><ele>177.60000000000002</ele><time>2026-04-19T09:43:19.827Z</time></trkpt><trkpt lat="43.2616806" lon="11.373995"><ele>177.39999999999998</ele><time>2026-04-19T09:43:20.827Z</time></trkpt><trkpt lat="43.2616041" lon="11.3740815"><ele>177.2</ele><time>2026-04-19T09:43:21.827Z</time></trkpt><trkpt lat="43.2615221" lon="11.3741744"><ele>177.0</ele><time>2026-04-19T09:43:22.825Z</time></trkpt><trkpt lat="43.2614367" lon="11.3742785"><ele>176.75</ele><time>2026-04-19T09:43:23.826Z</time></trkpt><trkpt lat="43.2613452" lon="11.3743911"><ele>176.5</ele><time>2026-04-19T09:43:24.825Z</time></trkpt><trkpt lat="43.2612485" lon="11.3745067"><ele>176.25</ele><time>2026-04-19T09:43:25.826Z</time></trkpt><trkpt lat="43.2611507" lon="11.3746232"><ele>176.0</ele><time>2026-04-19T09:43:26.826Z</time></trkpt><trkpt lat="43.2610533" lon="11.3747407"><ele>175.75</ele><time>2026-04-19T09:43:27.826Z</time></trkpt><trkpt lat="43.2609535" lon="11.3748491"><ele>175.5</ele><time>2026-04-19T09:43:28.825Z</time></trkpt><trkpt lat="43.2608566" lon="11.3749546"><ele>175.25</ele><time>2026-04-19T09:43:29.826Z</time></trkpt><trkpt lat="43.260769" lon="11.3750636"><ele>175.0</ele><time>2026-04-19T09:43:30.827Z</time></trkpt><trkpt lat="43.2606808" lon="11.3751708"><ele>175.0</ele><time>2026-04-19T09:43:31.827Z</time></trkpt><trkpt lat="43.2605831" lon="11.375283"><ele>175.0</ele><time>2026-04-19T09:43:32.826Z</time></trkpt><trkpt lat="43.2604823" lon="11.3753947"><ele>175.0</ele><time>2026-04-19T09:43:33.826Z</time></trkpt><trkpt lat="43.2603929" lon="11.375506"><ele>175.0</ele><time>2026-04-19T09:43:34.827Z</time></trkpt><trkpt lat="43.260307" lon="11.3756144"><ele>175.0</ele><time>2026-04-19T09:43:35.827Z</time></trkpt><trkpt lat="43.2602251" lon="11.3757247"><ele>175.0</ele><time>2026-04-19T09:43:36.826Z</time></trkpt><trkpt lat="43.2601552" lon="11.3758479"><ele>175.0</ele><time>2026-04-19T09:43:37.826Z</time></trkpt><trkpt lat="43.2601035" lon="11.3759796"><ele>175.0</ele><time>2026-04-19T09:43:38.825Z</time></trkpt><trkpt lat="43.260076" lon="11.3761256"><ele>175.0</ele><time>2026-04-19T09:43:39.826Z</time></trkpt><trkpt lat="43.2600582" lon="11.3762774"><ele>174.6</ele><time>2026-04-19T09:43:40.826Z</time></trkpt><trkpt lat="43.2600438" lon="11.3764243"><ele>174.2</ele><time>2026-04-19T09:43:41.826Z</time></trkpt><trkpt lat="43.2600286" lon="11.3765604"><ele>173.8</ele><time>2026-04-19T09:43:42.827Z</time></trkpt><trkpt lat="43.2600191" lon="11.3766894"><ele>173.4</ele><time>2026-04-19T09:43:43.827Z</time></trkpt><trkpt lat="43.2600071" lon="11.376819"><ele>173.0</ele><time>2026-04-19T09:43:44.827Z</time></trkpt><trkpt lat="43.2599917" lon="11.3769532"><ele>173.0</ele><time>2026-04-19T09:43:45.826Z</time></trkpt><trkpt lat="43.259977" lon="11.3771"><ele>173.0</ele><time>2026-04-19T09:43:46.826Z</time></trkpt><trkpt lat="43.2599615" lon="11.3772456"><ele>173.0</ele><time>2026-04-19T09:43:47.827Z</time></trkpt><trkpt lat="43.259945" lon="11.3773985"><ele>173.0</ele><time>2026-04-19T09:43:48.826Z</time></trkpt><trkpt lat="43.259934" lon="11.3775448"><ele>173.0</ele><time>2026-04-19T09:43:49.827Z</time></trkpt><trkpt lat="43.2599156" lon="11.3776919"><ele>173.0</ele><time>2026-04-19T09:43:50.827Z</time></trkpt><trkpt lat="43.2599003" lon="11.3778365"><ele>173.0</ele><time>2026-04-19T09:43:51.826Z</time></trkpt><trkpt lat="43.2598767" lon="11.3779776"><ele>173.0</ele><time>2026-04-19T09:43:52.826Z</time></trkpt><trkpt lat="43.259836" lon="11.3781127"><ele>173.0</ele><time>2026-04-19T09:43:53.826Z</time></trkpt><trkpt lat="43.2597771" lon="11.3782376"><ele>173.0</ele><time>2026-04-19T09:43:54.826Z</time></trkpt><trkpt lat="43.259715" lon="11.3783611"><ele>173.2</ele><time>2026-04-19T09:43:55.826Z</time></trkpt><trkpt lat="43.2596503" lon="11.3784766"><ele>173.4</ele><time>2026-04-19T09:43:56.826Z</time></trkpt><trkpt lat="43.2595889" lon="11.37858"><ele>173.6</ele><time>2026-04-19T09:43:57.826Z</time></trkpt><trkpt lat="43.2595371" lon="11.3786626"><ele>173.79999999999998</ele><time>2026-04-19T09:43:58.827Z</time></trkpt><trkpt lat="43.2594621" lon="11.3787666"><ele>174.0</ele><time>2026-04-19T09:44:00.826Z</time></trkpt><trkpt lat="43.2594" lon="11.3788503"><ele>173.79999999999998</ele><time>2026-04-19T09:44:02.827Z</time></trkpt><trkpt lat="43.2593566" lon="11.3789248"><ele>173.6</ele><time>2026-04-19T09:44:03.827Z</time></trkpt><trkpt lat="43.2593082" lon="11.3790077"><ele>173.4</ele><time>2026-04-19T09:44:04.826Z</time></trkpt><trkpt lat="43.2592422" lon="11.3791128"><ele>173.2</ele><time>2026-04-19T09:44:05.826Z</time></trkpt><trkpt lat="43.2591743" lon="11.3792268"><ele>173.0</ele><time>2026-04-19T09:44:06.825Z</time></trkpt><trkpt lat="43.259093" lon="11.3793595"><ele>173.0</ele><time>2026-04-19T09:44:07.826Z</time></trkpt><trkpt lat="43.2590079" lon="11.3795051"><ele>173.0</ele><time>2026-04-19T09:44:08.826Z</time></trkpt><trkpt lat="43.2589159" lon="11.3796524"><ele>173.0</ele><time>2026-04-19T09:44:09.827Z</time></trkpt><trkpt lat="43.2588339" lon="11.3797921"><ele>173.0</ele><time>2026-04-19T09:44:10.827Z</time></trkpt><trkpt lat="43.258756" lon="11.3799226"><ele>173.2</ele><time>2026-04-19T09:44:11.827Z</time></trkpt><trkpt lat="43.2586896" lon="11.3800444"><ele>173.4</ele><time>2026-04-19T09:44:12.825Z</time></trkpt><trkpt lat="43.258623" lon="11.3801797"><ele>173.6</ele><time>2026-04-19T09:44:13.825Z</time></trkpt><trkpt lat="43.2585604" lon="11.3803061"><ele>173.79999999999998</ele><time>2026-04-19T09:44:14.827Z</time></trkpt><trkpt lat="43.2585063" lon="11.3804318"><ele>174.0</ele><time>2026-04-19T09:44:15.826Z</time></trkpt><trkpt lat="43.2584414" lon="11.3805413"><ele>173.75</ele><time>2026-04-19T09:44:16.827Z</time></trkpt><trkpt lat="43.2583635" lon="11.3806409"><ele>173.5</ele><time>2026-04-19T09:44:17.826Z</time></trkpt><trkpt lat="43.258271" lon="11.3807235"><ele>173.25</ele><time>2026-04-19T09:44:18.826Z</time></trkpt><trkpt lat="43.2581646" lon="11.380803"><ele>173.0</ele><time>2026-04-19T09:44:19.826Z</time></trkpt><trkpt lat="43.2580533" lon="11.3808627"><ele>173.0</ele><time>2026-04-19T09:44:20.826Z</time></trkpt><trkpt lat="43.2579344" lon="11.3809133"><ele>173.0</ele><time>2026-04-19T09:44:21.827Z</time></trkpt><trkpt lat="43.2578131" lon="11.3809465"><ele>173.0</ele><time>2026-04-19T09:44:22.827Z</time></trkpt><trkpt lat="43.2576858" lon="11.3809612"><ele>173.0</ele><time>2026-04-19T09:44:23.827Z</time></trkpt><trkpt lat="43.2575604" lon="11.3809611"><ele>173.0</ele><time>2026-04-19T09:44:24.826Z</time></trkpt><trkpt lat="43.2574335" lon="11.3809644"><ele>173.0</ele><time>2026-04-19T09:44:25.826Z</time></trkpt><trkpt lat="43.2573129" lon="11.3809722"><ele>173.0</ele><time>2026-04-19T09:44:26.826Z</time></trkpt><trkpt lat="43.257194" lon="11.3809817"><ele>173.0</ele><time>2026-04-19T09:44:27.826Z</time></trkpt><trkpt lat="43.2570772" lon="11.3809949"><ele>173.25</ele><time>2026-04-19T09:44:28.825Z</time></trkpt><trkpt lat="43.2569637" lon="11.3810357"><ele>173.5</ele><time>2026-04-19T09:44:29.825Z</time></trkpt><trkpt lat="43.2568563" lon="11.3811002"><ele>173.75</ele><time>2026-04-19T09:44:30.825Z</time></trkpt><trkpt lat="43.2567566" lon="11.3811802"><ele>174.0</ele><time>2026-04-19T09:44:31.826Z</time></trkpt><trkpt lat="43.256659" lon="11.3812803"><ele>173.75</ele><time>2026-04-19T09:44:32.826Z</time></trkpt><trkpt lat="43.2565628" lon="11.3813888"><ele>173.5</ele><time>2026-04-19T09:44:33.826Z</time></trkpt><trkpt lat="43.2564741" lon="11.381504"><ele>173.25</ele><time>2026-04-19T09:44:34.824Z</time></trkpt><trkpt lat="43.2563985" lon="11.381631"><ele>173.0</ele><time>2026-04-19T09:44:35.826Z</time></trkpt><trkpt lat="43.2563322" lon="11.3817624"><ele>173.0</ele><time>2026-04-19T09:44:36.826Z</time></trkpt><trkpt lat="43.2562824" lon="11.3818957"><ele>173.0</ele><time>2026-04-19T09:44:37.825Z</time></trkpt><trkpt lat="43.2562446" lon="11.3820283"><ele>173.0</ele><time>2026-04-19T09:44:38.824Z</time></trkpt><trkpt lat="43.2562079" lon="11.3821678"><ele>173.0</ele><time>2026-04-19T09:44:39.825Z</time></trkpt><trkpt lat="43.2561784" lon="11.3823268"><ele>173.0</ele><time>2026-04-19T09:44:40.826Z</time></trkpt><trkpt lat="43.2561403" lon="11.3824858"><ele>172.75</ele><time>2026-04-19T09:44:41.826Z</time></trkpt><trkpt lat="43.2561082" lon="11.3826558"><ele>172.5</ele><time>2026-04-19T09:44:42.825Z</time></trkpt><trkpt lat="43.2560647" lon="11.382825"><ele>172.25</ele><time>2026-04-19T09:44:43.826Z</time></trkpt><trkpt lat="43.2560192" lon="11.3830052"><ele>172.0</ele><time>2026-04-19T09:44:44.826Z</time></trkpt><trkpt lat="43.2559764" lon="11.383203"><ele>171.5</ele><time>2026-04-19T09:44:45.825Z</time></trkpt><trkpt lat="43.2559283" lon="11.3833906"><ele>171.0</ele><time>2026-04-19T09:44:46.826Z</time></trkpt><trkpt lat="43.2558809" lon="11.3835869"><ele>170.5</ele><time>2026-04-19T09:44:47.826Z</time></trkpt><trkpt lat="43.2558359" lon="11.3837879"><ele>170.0</ele><time>2026-04-19T09:44:48.826Z</time></trkpt><trkpt lat="43.2557938" lon="11.3839845"><ele>170.0</ele><time>2026-04-19T09:44:49.825Z</time></trkpt><trkpt lat="43.25575" lon="11.3841757"><ele>170.0</ele><time>2026-04-19T09:44:50.825Z</time></trkpt><trkpt lat="43.255711" lon="11.3843544"><ele>170.0</ele><time>2026-04-19T09:44:51.826Z</time></trkpt><trkpt lat="43.2556719" lon="11.384526"><ele>170.0</ele><time>2026-04-19T09:44:52.826Z</time></trkpt><trkpt lat="43.2556251" lon="11.3847006"><ele>170.5</ele><time>2026-04-19T09:44:53.826Z</time></trkpt><trkpt lat="43.2555827" lon="11.3848818"><ele>171.0</ele><time>2026-04-19T09:44:54.826Z</time></trkpt><trkpt lat="43.2555453" lon="11.3850598"><ele>171.5</ele><time>2026-04-19T09:44:55.825Z</time></trkpt><trkpt lat="43.2555049" lon="11.3852384"><ele>172.0</ele><time>2026-04-19T09:44:56.825Z</time></trkpt><trkpt lat="43.2554646" lon="11.3854189"><ele>172.25</ele><time>2026-04-19T09:44:57.825Z</time></trkpt><trkpt lat="43.2554293" lon="11.3856024"><ele>172.5</ele><time>2026-04-19T09:44:58.824Z</time></trkpt><trkpt lat="43.2553887" lon="11.385783"><ele>172.75</ele><time>2026-04-19T09:44:59.825Z</time></trkpt><trkpt lat="43.2553479" lon="11.3859612"><ele>173.0</ele><time>2026-04-19T09:45:00.825Z</time></trkpt><trkpt lat="43.2553136" lon="11.3861412"><ele>173.0</ele><time>2026-04-19T09:45:01.826Z</time></trkpt><trkpt lat="43.2552785" lon="11.386322"><ele>173.0</ele><time>2026-04-19T09:45:02.826Z</time></trkpt><trkpt lat="43.2552386" lon="11.3865064"><ele>173.0</ele><time>2026-04-19T09:45:03.826Z</time></trkpt><trkpt lat="43.2552054" lon="11.3866909"><ele>173.0</ele><time>2026-04-19T09:45:04.826Z</time></trkpt><trkpt lat="43.2551673" lon="11.3868786"><ele>172.25</ele><time>2026-04-19T09:45:05.825Z</time></trkpt><trkpt lat="43.2551293" lon="11.3870668"><ele>171.5</ele><time>2026-04-19T09:45:06.826Z</time></trkpt><trkpt lat="43.2550882" lon="11.3872593"><ele>170.75</ele><time>2026-04-19T09:45:07.826Z</time></trkpt><trkpt lat="43.2550496" lon="11.3874574"><ele>170.0</ele><time>2026-04-19T09:45:08.825Z</time></trkpt><trkpt lat="43.2550091" lon="11.3876562"><ele>169.33333333333331</ele><time>2026-04-19T09:45:09.825Z</time></trkpt><trkpt lat="43.2549711" lon="11.3878509"><ele>168.66666666666666</ele><time>2026-04-19T09:45:10.825Z</time></trkpt><trkpt lat="43.2549289" lon="11.38805"><ele>168.0</ele><time>2026-04-19T09:45:11.826Z</time></trkpt><trkpt lat="43.2548905" lon="11.3882524"><ele>167.66666666666666</ele><time>2026-04-19T09:45:12.826Z</time></trkpt><trkpt lat="43.2548492" lon="11.3884497"><ele>167.33333333333331</ele><time>2026-04-19T09:45:13.825Z</time></trkpt><trkpt lat="43.2547991" lon="11.3886468"><ele>167.0</ele><time>2026-04-19T09:45:14.826Z</time></trkpt><trkpt lat="43.2547496" lon="11.3888396"><ele>167.5</ele><time>2026-04-19T09:45:15.826Z</time></trkpt><trkpt lat="43.2546929" lon="11.3890186"><ele>168.0</ele><time>2026-04-19T09:45:16.825Z</time></trkpt><trkpt lat="43.2546276" lon="11.389185"><ele>168.5</ele><time>2026-04-19T09:45:17.825Z</time></trkpt><trkpt lat="43.2545627" lon="11.3893461"><ele>169.0</ele><time>2026-04-19T09:45:18.825Z</time></trkpt><trkpt lat="43.2544992" lon="11.3895033"><ele>169.0</ele><time>2026-04-19T09:45:19.825Z</time></trkpt><trkpt lat="43.2544391" lon="11.3896604"><ele>169.0</ele><time>2026-04-19T09:45:20.825Z</time></trkpt><trkpt lat="43.2543786" lon="11.3898203"><ele>169.0</ele><time>2026-04-19T09:45:21.825Z</time></trkpt><trkpt lat="43.2543192" lon="11.3899817"><ele>169.0</ele><time>2026-04-19T09:45:22.825Z</time></trkpt><trkpt lat="43.2542565" lon="11.3901355"><ele>169.25</ele><time>2026-04-19T09:45:23.826Z</time></trkpt><trkpt lat="43.2541969" lon="11.390286"><ele>169.5</ele><time>2026-04-19T09:45:24.826Z</time></trkpt><trkpt lat="43.2541375" lon="11.3904289"><ele>169.75</ele><time>2026-04-19T09:45:25.826Z</time></trkpt><trkpt lat="43.254083" lon="11.3905726"><ele>170.0</ele><time>2026-04-19T09:45:26.826Z</time></trkpt><trkpt lat="43.2540288" lon="11.3907071"><ele>170.2</ele><time>2026-04-19T09:45:27.826Z</time></trkpt><trkpt lat="43.2539823" lon="11.3908384"><ele>170.4</ele><time>2026-04-19T09:45:28.825Z</time></trkpt><trkpt lat="43.2539294" lon="11.3909615"><ele>170.60000000000002</ele><time>2026-04-19T09:45:29.825Z</time></trkpt><trkpt lat="43.2538778" lon="11.3910901"><ele>170.8</ele><time>2026-04-19T09:45:30.825Z</time></trkpt><trkpt lat="43.2538296" lon="11.391225"><ele>171.0</ele><time>2026-04-19T09:45:31.826Z</time></trkpt><trkpt lat="43.2537821" lon="11.3913628"><ele>170.5</ele><time>2026-04-19T09:45:32.825Z</time></trkpt><trkpt lat="43.2537296" lon="11.391502"><ele>170.0</ele><time>2026-04-19T09:45:33.826Z</time></trkpt><trkpt lat="43.2536721" lon="11.3916434"><ele>169.5</ele><time>2026-04-19T09:45:34.825Z</time></trkpt><trkpt lat="43.2536157" lon="11.3918038"><ele>169.0</ele><time>2026-04-19T09:45:35.825Z</time></trkpt><trkpt lat="43.2535498" lon="11.3919779"><ele>169.0</ele><time>2026-04-19T09:45:36.825Z</time></trkpt><trkpt lat="43.2534783" lon="11.3921582"><ele>169.0</ele><time>2026-04-19T09:45:37.825Z</time></trkpt><trkpt lat="43.2534133" lon="11.3923284"><ele>169.0</ele><time>2026-04-19T09:45:38.825Z</time></trkpt><trkpt lat="43.2533401" lon="11.3925079"><ele>169.0</ele><time>2026-04-19T09:45:39.825Z</time></trkpt><trkpt lat="43.2532608" lon="11.3926916"><ele>169.33333333333334</ele><time>2026-04-19T09:45:40.826Z</time></trkpt><trkpt lat="43.25317" lon="11.3928779"><ele>169.66666666666666</ele><time>2026-04-19T09:45:41.826Z</time></trkpt><trkpt lat="43.2531034" lon="11.393067"><ele>170.0</ele><time>2026-04-19T09:45:42.825Z</time></trkpt><trkpt lat="43.2530479" lon="11.3932629"><ele>170.25</ele><time>2026-04-19T09:45:43.825Z</time></trkpt><trkpt lat="43.2529846" lon="11.3934426"><ele>170.5</ele><time>2026-04-19T09:45:44.826Z</time></trkpt><trkpt lat="43.252923" lon="11.3936187"><ele>170.75</ele><time>2026-04-19T09:45:45.824Z</time></trkpt><trkpt lat="43.2528622" lon="11.3937784"><ele>171.0</ele><time>2026-04-19T09:45:46.826Z</time></trkpt><trkpt lat="43.2527877" lon="11.393938"><ele>171.5</ele><time>2026-04-19T09:45:47.826Z</time></trkpt><trkpt lat="43.2527089" lon="11.3940911"><ele>172.0</ele><time>2026-04-19T09:45:48.824Z</time></trkpt><trkpt lat="43.2526311" lon="11.3942467"><ele>172.5</ele><time>2026-04-19T09:45:49.826Z</time></trkpt><trkpt lat="43.2525577" lon="11.3943926"><ele>173.0</ele><time>2026-04-19T09:45:50.826Z</time></trkpt><trkpt lat="43.2524839" lon="11.3945274"><ele>173.0</ele><time>2026-04-19T09:45:51.824Z</time></trkpt><trkpt lat="43.2524066" lon="11.3946587"><ele>173.0</ele><time>2026-04-19T09:45:52.826Z</time></trkpt><trkpt lat="43.2523217" lon="11.3947799"><ele>173.0</ele><time>2026-04-19T09:45:53.824Z</time></trkpt><trkpt lat="43.2522382" lon="11.3949026"><ele>173.0</ele><time>2026-04-19T09:45:54.824Z</time></trkpt><trkpt lat="43.2521556" lon="11.395028"><ele>172.75</ele><time>2026-04-19T09:45:55.825Z</time></trkpt><trkpt lat="43.2520706" lon="11.3951505"><ele>172.5</ele><time>2026-04-19T09:45:56.824Z</time></trkpt><trkpt lat="43.2519897" lon="11.3952771"><ele>172.25</ele><time>2026-04-19T09:45:57.826Z</time></trkpt><trkpt lat="43.2519157" lon="11.3954075"><ele>172.0</ele><time>2026-04-19T09:45:58.825Z</time></trkpt><trkpt lat="43.2518415" lon="11.3955368"><ele>171.5</ele><time>2026-04-19T09:45:59.825Z</time></trkpt><trkpt lat="43.2517697" lon="11.3956655"><ele>171.0</ele><time>2026-04-19T09:46:00.826Z</time></trkpt><trkpt lat="43.25171" lon="11.3957964"><ele>170.5</ele><time>2026-04-19T09:46:01.825Z</time></trkpt><trkpt lat="43.2516482" lon="11.3959354"><ele>170.0</ele><time>2026-04-19T09:46:02.825Z</time></trkpt><trkpt lat="43.25159" lon="11.3960694"><ele>170.0</ele><time>2026-04-19T09:46:03.826Z</time></trkpt><trkpt lat="43.2515347" lon="11.3962126"><ele>170.0</ele><time>2026-04-19T09:46:04.824Z</time></trkpt><trkpt lat="43.2514838" lon="11.3963696"><ele>170.0</ele><time>2026-04-19T09:46:05.826Z</time></trkpt><trkpt lat="43.2514207" lon="11.3965212"><ele>170.0</ele><time>2026-04-19T09:46:06.826Z</time></trkpt><trkpt lat="43.2513626" lon="11.3966848"><ele>170.25</ele><time>2026-04-19T09:46:07.826Z</time></trkpt><trkpt lat="43.251306" lon="11.3968572"><ele>170.5</ele><time>2026-04-19T09:46:08.825Z</time></trkpt><trkpt lat="43.251242" lon="11.3970293"><ele>170.75</ele><time>2026-04-19T09:46:09.824Z</time></trkpt><trkpt lat="43.2511752" lon="11.3972127"><ele>171.0</ele><time>2026-04-19T09:46:10.825Z</time></trkpt><trkpt lat="43.2511116" lon="11.3973953"><ele>171.0</ele><time>2026-04-19T09:46:11.824Z</time></trkpt><trkpt lat="43.2510495" lon="11.397579"><ele>171.0</ele><time>2026-04-19T09:46:12.825Z</time></trkpt><trkpt lat="43.2509868" lon="11.3977684"><ele>171.0</ele><time>2026-04-19T09:46:13.826Z</time></trkpt><trkpt lat="43.2509213" lon="11.3979611"><ele>170.66666666666666</ele><time>2026-04-19T09:46:14.826Z</time></trkpt><trkpt lat="43.2508484" lon="11.3981529"><ele>170.33333333333331</ele><time>2026-04-19T09:46:15.825Z</time></trkpt><trkpt lat="43.2507706" lon="11.3983571"><ele>170.0</ele><time>2026-04-19T09:46:16.824Z</time></trkpt><trkpt lat="43.2506996" lon="11.3985691"><ele>170.0</ele><time>2026-04-19T09:46:17.825Z</time></trkpt><trkpt lat="43.2506267" lon="11.3987865"><ele>170.0</ele><time>2026-04-19T09:46:18.825Z</time></trkpt><trkpt lat="43.2505465" lon="11.3989973"><ele>170.0</ele><time>2026-04-19T09:46:19.826Z</time></trkpt><trkpt lat="43.2504655" lon="11.3991997"><ele>170.0</ele><time>2026-04-19T09:46:20.826Z</time></trkpt><trkpt lat="43.2503855" lon="11.3993921"><ele>170.0</ele><time>2026-04-19T09:46:21.825Z</time></trkpt><trkpt lat="43.2503037" lon="11.3995768"><ele>170.0</ele><time>2026-04-19T09:46:22.825Z</time></trkpt><trkpt lat="43.2502171" lon="11.3997576"><ele>169.33333333333331</ele><time>2026-04-19T09:46:23.826Z</time></trkpt><trkpt lat="43.2501301" lon="11.3999457"><ele>168.66666666666666</ele><time>2026-04-19T09:46:24.826Z</time></trkpt><trkpt lat="43.2500335" lon="11.4001283"><ele>168.0</ele><time>2026-04-19T09:46:25.826Z</time></trkpt><trkpt lat="43.2499282" lon="11.4003054"><ele>168.0</ele><time>2026-04-19T09:46:26.826Z</time></trkpt><trkpt lat="43.2498179" lon="11.4004763"><ele>168.0</ele><time>2026-04-19T09:46:27.826Z</time></trkpt><trkpt lat="43.2497107" lon="11.400651"><ele>168.0</ele><time>2026-04-19T09:46:28.826Z</time></trkpt><trkpt lat="43.2496093" lon="11.4008231"><ele>168.0</ele><time>2026-04-19T09:46:29.826Z</time></trkpt><trkpt lat="43.2495113" lon="11.4010017"><ele>168.0</ele><time>2026-04-19T09:46:30.825Z</time></trkpt><trkpt lat="43.2494246" lon="11.4011827"><ele>168.0</ele><time>2026-04-19T09:46:31.825Z</time></trkpt><trkpt lat="43.249329" lon="11.4013547"><ele>167.66666666666666</ele><time>2026-04-19T09:46:32.825Z</time></trkpt><trkpt lat="43.2492333" lon="11.4015357"><ele>167.33333333333331</ele><time>2026-04-19T09:46:33.825Z</time></trkpt><trkpt lat="43.2491347" lon="11.4017274"><ele>167.0</ele><time>2026-04-19T09:46:34.824Z</time></trkpt><trkpt lat="43.249021" lon="11.4019251"><ele>167.33333333333331</ele><time>2026-04-19T09:46:35.825Z</time></trkpt><trkpt lat="43.2489092" lon="11.4021192"><ele>167.66666666666666</ele><time>2026-04-19T09:46:36.824Z</time></trkpt><trkpt lat="43.2488032" lon="11.4023153"><ele>168.0</ele><time>2026-04-19T09:46:37.826Z</time></trkpt><trkpt lat="43.2487084" lon="11.402517"><ele>168.33333333333334</ele><time>2026-04-19T09:46:38.825Z</time></trkpt><trkpt lat="43.2486252" lon="11.4027108"><ele>168.66666666666669</ele><time>2026-04-19T09:46:39.826Z</time></trkpt><trkpt lat="43.248551" lon="11.402898"><ele>169.0</ele><time>2026-04-19T09:46:40.826Z</time></trkpt><trkpt lat="43.2484753" lon="11.4030838"><ele>169.0</ele><time>2026-04-19T09:46:41.826Z</time></trkpt><trkpt lat="43.2484031" lon="11.4032666"><ele>169.0</ele><time>2026-04-19T09:46:42.826Z</time></trkpt><trkpt lat="43.2483335" lon="11.4034485"><ele>169.0</ele><time>2026-04-19T09:46:43.826Z</time></trkpt><trkpt lat="43.2482731" lon="11.4036317"><ele>169.0</ele><time>2026-04-19T09:46:44.824Z</time></trkpt><trkpt lat="43.2482062" lon="11.4038089"><ele>168.75</ele><time>2026-04-19T09:46:45.825Z</time></trkpt><trkpt lat="43.2481389" lon="11.4039841"><ele>168.5</ele><time>2026-04-19T09:46:46.825Z</time></trkpt><trkpt lat="43.2480725" lon="11.4041553"><ele>168.25</ele><time>2026-04-19T09:46:47.825Z</time></trkpt><trkpt lat="43.2479975" lon="11.404327"><ele>168.0</ele><time>2026-04-19T09:46:48.824Z</time></trkpt><trkpt lat="43.2479192" lon="11.4044918"><ele>168.0</ele><time>2026-04-19T09:46:49.825Z</time></trkpt><trkpt lat="43.2478257" lon="11.404647"><ele>168.0</ele><time>2026-04-19T09:46:50.825Z</time></trkpt><trkpt lat="43.2477191" lon="11.4048029"><ele>168.0</ele><time>2026-04-19T09:46:51.826Z</time></trkpt><trkpt lat="43.2476042" lon="11.4049488"><ele>168.0</ele><time>2026-04-19T09:46:52.826Z</time></trkpt><trkpt lat="43.2474821" lon="11.4050826"><ele>168.0</ele><time>2026-04-19T09:46:53.826Z</time></trkpt><trkpt lat="43.247351" lon="11.4052072"><ele>168.0</ele><time>2026-04-19T09:46:54.825Z</time></trkpt><trkpt lat="43.2472225" lon="11.4053289"><ele>168.0</ele><time>2026-04-19T09:46:55.826Z</time></trkpt><trkpt lat="43.2470938" lon="11.4054516"><ele>168.0</ele><time>2026-04-19T09:46:56.826Z</time></trkpt><trkpt lat="43.2469676" lon="11.4055717"><ele>168.0</ele><time>2026-04-19T09:46:57.826Z</time></trkpt><trkpt lat="43.2468454" lon="11.4056923"><ele>167.66666666666666</ele><time>2026-04-19T09:46:58.825Z</time></trkpt><trkpt lat="43.2467232" lon="11.4058039"><ele>167.33333333333331</ele><time>2026-04-19T09:46:59.825Z</time></trkpt><trkpt lat="43.2465969" lon="11.4059199"><ele>167.0</ele><time>2026-04-19T09:47:00.826Z</time></trkpt><trkpt lat="43.2464643" lon="11.4060397"><ele>167.0</ele><time>2026-04-19T09:47:01.826Z</time></trkpt><trkpt lat="43.2463223" lon="11.4061591"><ele>167.0</ele><time>2026-04-19T09:47:02.826Z</time></trkpt><trkpt lat="43.2461874" lon="11.4062795"><ele>167.0</ele><time>2026-04-19T09:47:03.825Z</time></trkpt><trkpt lat="43.2460513" lon="11.4063998"><ele>166.33333333333331</ele><time>2026-04-19T09:47:04.826Z</time></trkpt><trkpt lat="43.2459117" lon="11.4065148"><ele>165.66666666666666</ele><time>2026-04-19T09:47:05.825Z</time></trkpt><trkpt lat="43.2457635" lon="11.406627"><ele>165.0</ele><time>2026-04-19T09:47:06.825Z</time></trkpt><trkpt lat="43.2456086" lon="11.4067425"><ele>165.0</ele><time>2026-04-19T09:47:07.825Z</time></trkpt><trkpt lat="43.2454523" lon="11.4068625"><ele>165.0</ele><time>2026-04-19T09:47:08.826Z</time></trkpt><trkpt lat="43.2452907" lon="11.4069824"><ele>165.0</ele><time>2026-04-19T09:47:09.826Z</time></trkpt><trkpt lat="43.2451331" lon="11.4071195"><ele>165.66666666666666</ele><time>2026-04-19T09:47:10.826Z</time></trkpt><trkpt lat="43.2449761" lon="11.4072685"><ele>166.33333333333331</ele><time>2026-04-19T09:47:11.825Z</time></trkpt><trkpt lat="43.2448231" lon="11.4074288"><ele>167.0</ele><time>2026-04-19T09:47:12.825Z</time></trkpt><trkpt lat="43.2446768" lon="11.4075958"><ele>167.0</ele><time>2026-04-19T09:47:13.825Z</time></trkpt><trkpt lat="43.2445394" lon="11.407772"><ele>167.0</ele><time>2026-04-19T09:47:14.826Z</time></trkpt><trkpt lat="43.244404" lon="11.4079564"><ele>167.0</ele><time>2026-04-19T09:47:15.824Z</time></trkpt><trkpt lat="43.2442671" lon="11.408142"><ele>166.33333333333331</ele><time>2026-04-19T09:47:16.825Z</time></trkpt><trkpt lat="43.2441189" lon="11.4083256"><ele>165.66666666666666</ele><time>2026-04-19T09:47:17.826Z</time></trkpt><trkpt lat="43.243958" lon="11.4084991"><ele>165.0</ele><time>2026-04-19T09:47:18.826Z</time></trkpt><trkpt lat="43.2437737" lon="11.4086678"><ele>164.66666666666666</ele><time>2026-04-19T09:47:19.825Z</time></trkpt><trkpt lat="43.2435864" lon="11.4088289"><ele>164.33333333333331</ele><time>2026-04-19T09:47:20.826Z</time></trkpt><trkpt lat="43.2433955" lon="11.4089848"><ele>164.0</ele><time>2026-04-19T09:47:21.825Z</time></trkpt><trkpt lat="43.243206" lon="11.4091359"><ele>164.66666666666666</ele><time>2026-04-19T09:47:22.825Z</time></trkpt><trkpt lat="43.2430308" lon="11.4092775"><ele>165.33333333333334</ele><time>2026-04-19T09:47:23.826Z</time></trkpt><trkpt lat="43.2428608" lon="11.4094175"><ele>166.0</ele><time>2026-04-19T09:47:24.826Z</time></trkpt><trkpt lat="43.2426894" lon="11.4095534"><ele>165.33333333333334</ele><time>2026-04-19T09:47:25.826Z</time></trkpt><trkpt lat="43.2425238" lon="11.4096816"><ele>164.66666666666666</ele><time>2026-04-19T09:47:26.826Z</time></trkpt><trkpt lat="43.2423579" lon="11.4098188"><ele>164.0</ele><time>2026-04-19T09:47:27.826Z</time></trkpt><trkpt lat="43.2422001" lon="11.4099571"><ele>164.0</ele><time>2026-04-19T09:47:28.826Z</time></trkpt><trkpt lat="43.2420385" lon="11.4100981"><ele>164.0</ele><time>2026-04-19T09:47:29.825Z</time></trkpt><trkpt lat="43.2418701" lon="11.4102275"><ele>164.0</ele><time>2026-04-19T09:47:30.825Z</time></trkpt><trkpt lat="43.2416998" lon="11.4103595"><ele>164.0</ele><time>2026-04-19T09:47:31.825Z</time></trkpt><trkpt lat="43.2415315" lon="11.4104988"><ele>164.0</ele><time>2026-04-19T09:47:32.824Z</time></trkpt><trkpt lat="43.2413635" lon="11.4106366"><ele>164.0</ele><time>2026-04-19T09:47:33.825Z</time></trkpt><trkpt lat="43.2411948" lon="11.4107773"><ele>164.0</ele><time>2026-04-19T09:47:34.825Z</time></trkpt><trkpt lat="43.2410356" lon="11.4109362"><ele>164.0</ele><time>2026-04-19T09:47:35.824Z</time></trkpt><trkpt lat="43.2408839" lon="11.4111133"><ele>164.0</ele><time>2026-04-19T09:47:36.824Z</time></trkpt><trkpt lat="43.2407421" lon="11.4113017"><ele>164.33333333333331</ele><time>2026-04-19T09:47:37.824Z</time></trkpt><trkpt lat="43.240598" lon="11.4114861"><ele>164.66666666666666</ele><time>2026-04-19T09:47:38.825Z</time></trkpt><trkpt lat="43.2404532" lon="11.411668"><ele>165.0</ele><time>2026-04-19T09:47:39.825Z</time></trkpt><trkpt lat="43.2403109" lon="11.4118601"><ele>165.0</ele><time>2026-04-19T09:47:40.825Z</time></trkpt><trkpt lat="43.2401664" lon="11.4120474"><ele>165.0</ele><time>2026-04-19T09:47:41.824Z</time></trkpt><trkpt lat="43.2400241" lon="11.4122355"><ele>165.0</ele><time>2026-04-19T09:47:42.825Z</time></trkpt><trkpt lat="43.2398855" lon="11.4124247"><ele>165.66666666666666</ele><time>2026-04-19T09:47:43.824Z</time></trkpt><trkpt lat="43.239747" lon="11.4126157"><ele>166.33333333333331</ele><time>2026-04-19T09:47:44.825Z</time></trkpt><trkpt lat="43.2396118" lon="11.4128014"><ele>167.0</ele><time>2026-04-19T09:47:45.824Z</time></trkpt><trkpt lat="43.2394816" lon="11.4129832"><ele>166.66666666666666</ele><time>2026-04-19T09:47:46.823Z</time></trkpt><trkpt lat="43.2393531" lon="11.4131441"><ele>166.33333333333334</ele><time>2026-04-19T09:47:47.824Z</time></trkpt><trkpt lat="43.2392315" lon="11.4133109"><ele>166.0</ele><time>2026-04-19T09:47:48.824Z</time></trkpt><trkpt lat="43.2391049" lon="11.4134643"><ele>166.0</ele><time>2026-04-19T09:47:49.824Z</time></trkpt><trkpt lat="43.2389822" lon="11.4136343"><ele>166.0</ele><time>2026-04-19T09:47:50.825Z</time></trkpt><trkpt lat="43.2388615" lon="11.4137877"><ele>166.0</ele><time>2026-04-19T09:47:51.824Z</time></trkpt><trkpt lat="43.2387484" lon="11.4139439"><ele>166.33333333333334</ele><time>2026-04-19T09:47:52.824Z</time></trkpt><trkpt lat="43.2386357" lon="11.4140975"><ele>166.66666666666666</ele><time>2026-04-19T09:47:53.824Z</time></trkpt><trkpt lat="43.2385227" lon="11.4142459"><ele>167.0</ele><time>2026-04-19T09:47:54.824Z</time></trkpt><trkpt lat="43.2384173" lon="11.4143868"><ele>167.0</ele><time>2026-04-19T09:47:55.824Z</time></trkpt><trkpt lat="43.2383214" lon="11.4145196"><ele>167.0</ele><time>2026-04-19T09:47:56.824Z</time></trkpt><trkpt lat="43.2382268" lon="11.4146486"><ele>167.0</ele><time>2026-04-19T09:47:57.824Z</time></trkpt><trkpt lat="43.2381235" lon="11.4147815"><ele>167.0</ele><time>2026-04-19T09:47:58.824Z</time></trkpt><trkpt lat="43.2380211" lon="11.414919"><ele>167.0</ele><time>2026-04-19T09:47:59.823Z</time></trkpt><trkpt lat="43.2379193" lon="11.4150517"><ele>167.0</ele><time>2026-04-19T09:48:00.825Z</time></trkpt><trkpt lat="43.2378204" lon="11.4151893"><ele>167.0</ele><time>2026-04-19T09:48:01.825Z</time></trkpt><trkpt lat="43.2377172" lon="11.4153347"><ele>167.0</ele><time>2026-04-19T09:48:02.824Z</time></trkpt><trkpt lat="43.2376129" lon="11.4154795"><ele>166.66666666666666</ele><time>2026-04-19T09:48:03.825Z</time></trkpt><trkpt lat="43.2375065" lon="11.4156297"><ele>166.33333333333334</ele><time>2026-04-19T09:48:04.824Z</time></trkpt><trkpt lat="43.2373909" lon="11.4157781"><ele>166.0</ele><time>2026-04-19T09:48:05.824Z</time></trkpt><trkpt lat="43.2372767" lon="11.4159255"><ele>165.66666666666669</ele><time>2026-04-19T09:48:06.824Z</time></trkpt><trkpt lat="43.2371651" lon="11.4160671"><ele>165.33333333333334</ele><time>2026-04-19T09:48:07.825Z</time></trkpt><trkpt lat="43.2370466" lon="11.4162082"><ele>165.0</ele><time>2026-04-19T09:48:08.825Z</time></trkpt><trkpt lat="43.2369306" lon="11.4163547"><ele>164.33333333333334</ele><time>2026-04-19T09:48:09.825Z</time></trkpt><trkpt lat="43.2368126" lon="11.4165018"><ele>163.66666666666669</ele><time>2026-04-19T09:48:10.825Z</time></trkpt><trkpt lat="43.2366984" lon="11.4166373"><ele>163.0</ele><time>2026-04-19T09:48:11.825Z</time></trkpt><trkpt lat="43.2365795" lon="11.4167849"><ele>163.66666666666669</ele><time>2026-04-19T09:48:12.824Z</time></trkpt><trkpt lat="43.2364611" lon="11.4169283"><ele>164.33333333333334</ele><time>2026-04-19T09:48:13.825Z</time></trkpt><trkpt lat="43.2363461" lon="11.4170627"><ele>165.0</ele><time>2026-04-19T09:48:14.824Z</time></trkpt><trkpt lat="43.2362325" lon="11.4171937"><ele>165.0</ele><time>2026-04-19T09:48:15.824Z</time></trkpt><trkpt lat="43.2361275" lon="11.4173161"><ele>165.0</ele><time>2026-04-19T09:48:16.824Z</time></trkpt><trkpt lat="43.2360301" lon="11.4174332"><ele>165.0</ele><time>2026-04-19T09:48:17.825Z</time></trkpt><trkpt lat="43.2359295" lon="11.4175575"><ele>165.0</ele><time>2026-04-19T09:48:18.824Z</time></trkpt><trkpt lat="43.2358328" lon="11.4176768"><ele>165.0</ele><time>2026-04-19T09:48:19.825Z</time></trkpt><trkpt lat="43.2357401" lon="11.4177883"><ele>165.0</ele><time>2026-04-19T09:48:20.824Z</time></trkpt><trkpt lat="43.2356486" lon="11.4178966"><ele>165.0</ele><time>2026-04-19T09:48:21.825Z</time></trkpt><trkpt lat="43.2355624" lon="11.417999"><ele>165.0</ele><time>2026-04-19T09:48:22.825Z</time></trkpt><trkpt lat="43.2354838" lon="11.4180824"><ele>165.0</ele><time>2026-04-19T09:48:23.825Z</time></trkpt><trkpt lat="43.2354087" lon="11.4181509"><ele>165.0</ele><time>2026-04-19T09:48:24.824Z</time></trkpt><trkpt lat="43.2353345" lon="11.4182108"><ele>165.0</ele><time>2026-04-19T09:48:25.824Z</time></trkpt><trkpt lat="43.2352633" lon="11.4182446"><ele>165.0</ele><time>2026-04-19T09:48:26.825Z</time></trkpt><trkpt lat="43.2351935" lon="11.4182526"><ele>165.0</ele><time>2026-04-19T09:48:27.824Z</time></trkpt><trkpt lat="43.2351261" lon="11.4182492"><ele>165.0</ele><time>2026-04-19T09:48:28.824Z</time></trkpt><trkpt lat="43.2350123" lon="11.4182941"><ele>165.0</ele><time>2026-04-19T09:48:30.825Z</time></trkpt><trkpt lat="43.2349761" lon="11.4184504"><ele>165.0</ele><time>2026-04-19T09:48:32.825Z</time></trkpt><trkpt lat="43.2349841" lon="11.4185448"><ele>165.0</ele><time>2026-04-19T09:48:33.824Z</time></trkpt><trkpt lat="43.2349677" lon="11.4186571"><ele>165.0</ele><time>2026-04-19T09:48:34.825Z</time></trkpt><trkpt lat="43.2349163" lon="11.4187558"><ele>165.0</ele><time>2026-04-19T09:48:35.824Z</time></trkpt><trkpt lat="43.2348481" lon="11.4188414"><ele>165.25</ele><time>2026-04-19T09:48:36.823Z</time></trkpt><trkpt lat="43.2347744" lon="11.4189294"><ele>165.5</ele><time>2026-04-19T09:48:37.825Z</time></trkpt><trkpt lat="43.2346897" lon="11.4190378"><ele>165.75</ele><time>2026-04-19T09:48:38.825Z</time></trkpt><trkpt lat="43.2345975" lon="11.4191478"><ele>166.0</ele><time>2026-04-19T09:48:39.823Z</time></trkpt><trkpt lat="43.2344935" lon="11.4192708"><ele>166.0</ele><time>2026-04-19T09:48:40.825Z</time></trkpt><trkpt lat="43.2343893" lon="11.4193997"><ele>166.0</ele><time>2026-04-19T09:48:41.824Z</time></trkpt><trkpt lat="43.2342792" lon="11.4195281"><ele>166.0</ele><time>2026-04-19T09:48:42.825Z</time></trkpt><trkpt lat="43.2341773" lon="11.4196483"><ele>166.0</ele><time>2026-04-19T09:48:43.824Z</time></trkpt><trkpt lat="43.2340812" lon="11.4197647"><ele>165.5</ele><time>2026-04-19T09:48:44.824Z</time></trkpt><trkpt lat="43.233989" lon="11.4198781"><ele>165.0</ele><time>2026-04-19T09:48:45.825Z</time></trkpt><trkpt lat="43.2338995" lon="11.4199859"><ele>164.5</ele><time>2026-04-19T09:48:46.824Z</time></trkpt><trkpt lat="43.2338073" lon="11.420099"><ele>164.0</ele><time>2026-04-19T09:48:47.824Z</time></trkpt><trkpt lat="43.2337138" lon="11.4202145"><ele>164.0</ele><time>2026-04-19T09:48:48.824Z</time></trkpt><trkpt lat="43.2336151" lon="11.4203255"><ele>164.0</ele><time>2026-04-19T09:48:49.824Z</time></trkpt><trkpt lat="43.233514" lon="11.4204396"><ele>164.0</ele><time>2026-04-19T09:48:50.823Z</time></trkpt><trkpt lat="43.2334118" lon="11.4205494"><ele>164.0</ele><time>2026-04-19T09:48:51.824Z</time></trkpt><trkpt lat="43.2333062" lon="11.4206521"><ele>163.75</ele><time>2026-04-19T09:48:52.825Z</time></trkpt><trkpt lat="43.2331899" lon="11.4207373"><ele>163.5</ele><time>2026-04-19T09:48:53.825Z</time></trkpt><trkpt lat="43.2330675" lon="11.4208171"><ele>163.25</ele><time>2026-04-19T09:48:54.825Z</time></trkpt><trkpt lat="43.2329432" lon="11.4208968"><ele>163.0</ele><time>2026-04-19T09:48:55.825Z</time></trkpt><trkpt lat="43.2328173" lon="11.4209808"><ele>163.5</ele><time>2026-04-19T09:48:56.824Z</time></trkpt><trkpt lat="43.2327006" lon="11.4210646"><ele>164.0</ele><time>2026-04-19T09:48:57.825Z</time></trkpt><trkpt lat="43.2325859" lon="11.4211359"><ele>164.5</ele><time>2026-04-19T09:48:58.825Z</time></trkpt><trkpt lat="43.2324713" lon="11.4212089"><ele>165.0</ele><time>2026-04-19T09:48:59.824Z</time></trkpt><trkpt lat="43.2323691" lon="11.4212721"><ele>164.83333333333334</ele><time>2026-04-19T09:49:00.824Z</time></trkpt><trkpt lat="43.2322778" lon="11.4213236"><ele>164.66666666666666</ele><time>2026-04-19T09:49:01.824Z</time></trkpt><trkpt lat="43.2322055" lon="11.4213611"><ele>164.5</ele><time>2026-04-19T09:49:02.824Z</time></trkpt><trkpt lat="43.2321395" lon="11.4213919"><ele>164.33333333333331</ele><time>2026-04-19T09:49:03.825Z</time></trkpt><trkpt lat="43.2320772" lon="11.4214277"><ele>164.16666666666666</ele><time>2026-04-19T09:49:04.825Z</time></trkpt><trkpt lat="43.2320304" lon="11.4215399"><ele>164.0</ele><time>2026-04-19T09:49:06.825Z</time></trkpt><trkpt lat="43.232021" lon="11.4216738"><ele>164.0</ele><time>2026-04-19T09:49:08.824Z</time></trkpt><trkpt lat="43.2319994" lon="11.4217585"><ele>164.0</ele><time>2026-04-19T09:49:11.823Z</time></trkpt><trkpt lat="43.2319654" lon="11.4219074"><ele>164.0</ele><time>2026-04-19T09:49:15.825Z</time></trkpt><trkpt lat="43.2319143" lon="11.4220155"><ele>164.0</ele><time>2026-04-19T09:49:16.824Z</time></trkpt><trkpt lat="43.2318466" lon="11.4221647"><ele>164.0</ele><time>2026-04-19T09:49:17.825Z</time></trkpt><trkpt lat="43.2317701" lon="11.4223248"><ele>163.66666666666666</ele><time>2026-04-19T09:49:18.823Z</time></trkpt><trkpt lat="43.2316921" lon="11.4225144"><ele>163.33333333333334</ele><time>2026-04-19T09:49:19.823Z</time></trkpt><trkpt lat="43.23161" lon="11.4227019"><ele>163.0</ele><time>2026-04-19T09:49:20.825Z</time></trkpt><trkpt lat="43.2315377" lon="11.4228731"><ele>162.8</ele><time>2026-04-19T09:49:21.824Z</time></trkpt><trkpt lat="43.2314626" lon="11.4229988"><ele>162.60000000000002</ele><time>2026-04-19T09:49:22.824Z</time></trkpt><trkpt lat="43.2313865" lon="11.4230945"><ele>162.39999999999998</ele><time>2026-04-19T09:49:23.824Z</time></trkpt><trkpt lat="43.2313006" lon="11.4231567"><ele>162.2</ele><time>2026-04-19T09:49:24.823Z</time></trkpt><trkpt lat="43.2312137" lon="11.4232155"><ele>162.0</ele><time>2026-04-19T09:49:25.824Z</time></trkpt><trkpt lat="43.2311236" lon="11.4232679"><ele>162.0</ele><time>2026-04-19T09:49:26.825Z</time></trkpt><trkpt lat="43.2310305" lon="11.4233121"><ele>162.0</ele><time>2026-04-19T09:49:27.824Z</time></trkpt><trkpt lat="43.2309424" lon="11.4233568"><ele>162.0</ele><time>2026-04-19T09:49:28.825Z</time></trkpt><trkpt lat="43.2308612" lon="11.423409"><ele>162.0</ele><time>2026-04-19T09:49:29.823Z</time></trkpt><trkpt lat="43.2307812" lon="11.4234614"><ele>162.0</ele><time>2026-04-19T09:49:30.824Z</time></trkpt><trkpt lat="43.2306952" lon="11.4235091"><ele>162.5</ele><time>2026-04-19T09:49:31.824Z</time></trkpt><trkpt lat="43.2306106" lon="11.4235577"><ele>163.0</ele><time>2026-04-19T09:49:32.823Z</time></trkpt><trkpt lat="43.2305057" lon="11.4236138"><ele>163.5</ele><time>2026-04-19T09:49:33.825Z</time></trkpt><trkpt lat="43.230388" lon="11.4236796"><ele>164.0</ele><time>2026-04-19T09:49:34.824Z</time></trkpt><trkpt lat="43.2302679" lon="11.42374"><ele>164.0</ele><time>2026-04-19T09:49:35.824Z</time></trkpt><trkpt lat="43.2301579" lon="11.4238007"><ele>164.0</ele><time>2026-04-19T09:49:36.825Z</time></trkpt><trkpt lat="43.2300615" lon="11.4238594"><ele>164.0</ele><time>2026-04-19T09:49:37.824Z</time></trkpt><trkpt lat="43.2299671" lon="11.4239062"><ele>164.0</ele><time>2026-04-19T09:49:38.824Z</time></trkpt><trkpt lat="43.2298801" lon="11.4239526"><ele>164.0</ele><time>2026-04-19T09:49:39.825Z</time></trkpt><trkpt lat="43.2298082" lon="11.4240028"><ele>164.0</ele><time>2026-04-19T09:49:40.824Z</time></trkpt><trkpt lat="43.2297483" lon="11.4240357"><ele>164.0</ele><time>2026-04-19T09:49:41.825Z</time></trkpt><trkpt lat="43.2296544" lon="11.424035"><ele>164.0</ele><time>2026-04-19T09:49:43.824Z</time></trkpt><trkpt lat="43.2295898" lon="11.4239344"><ele>164.0</ele><time>2026-04-19T09:49:45.823Z</time></trkpt><trkpt lat="43.2295593" lon="11.4238514"><ele>164.0</ele><time>2026-04-19T09:49:46.824Z</time></trkpt><trkpt lat="43.2295189" lon="11.4237546"><ele>164.0</ele><time>2026-04-19T09:49:47.825Z</time></trkpt><trkpt lat="43.22948" lon="11.4236623"><ele>164.0</ele><time>2026-04-19T09:49:48.824Z</time></trkpt><trkpt lat="43.2294338" lon="11.4235809"><ele>164.0</ele><time>2026-04-19T09:49:49.824Z</time></trkpt><trkpt lat="43.2293856" lon="11.4235042"><ele>164.0</ele><time>2026-04-19T09:49:50.824Z</time></trkpt><trkpt lat="43.2293289" lon="11.423437"><ele>164.0</ele><time>2026-04-19T09:49:51.825Z</time></trkpt><trkpt lat="43.2292701" lon="11.4233815"><ele>164.0</ele><time>2026-04-19T09:49:52.825Z</time></trkpt><trkpt lat="43.2292129" lon="11.4233385"><ele>164.0</ele><time>2026-04-19T09:49:53.825Z</time></trkpt><trkpt lat="43.229104" lon="11.423253"><ele>164.0</ele><time>2026-04-19T09:49:55.824Z</time></trkpt><trkpt lat="43.2290159" lon="11.4231584"><ele>164.0</ele><time>2026-04-19T09:49:57.824Z</time></trkpt><trkpt lat="43.2289491" lon="11.4231223"><ele>164.0</ele><time>2026-04-19T09:50:00.825Z</time></trkpt><trkpt lat="43.2288434" lon="11.4231796"><ele>164.0</ele><time>2026-04-19T09:50:02.824Z</time></trkpt><trkpt lat="43.228778" lon="11.4232505"><ele>164.0</ele><time>2026-04-19T09:50:03.824Z</time></trkpt><trkpt lat="43.2286986" lon="11.4233098"><ele>164.0</ele><time>2026-04-19T09:50:04.824Z</time></trkpt><trkpt lat="43.2286138" lon="11.4233575"><ele>164.0</ele><time>2026-04-19T09:50:05.825Z</time></trkpt><trkpt lat="43.2285324" lon="11.4234037"><ele>164.0</ele><time>2026-04-19T09:50:06.825Z</time></trkpt><trkpt lat="43.2284384" lon="11.4234499"><ele>164.0</ele><time>2026-04-19T09:50:07.824Z</time></trkpt><trkpt lat="43.2283176" lon="11.4235005"><ele>164.0</ele><time>2026-04-19T09:50:08.825Z</time></trkpt><trkpt lat="43.22819" lon="11.423545"><ele>164.0</ele><time>2026-04-19T09:50:09.824Z</time></trkpt><trkpt lat="43.2280316" lon="11.4235869"><ele>164.0</ele><time>2026-04-19T09:50:10.824Z</time></trkpt><trkpt lat="43.2278728" lon="11.4236271"><ele>164.0</ele><time>2026-04-19T09:50:11.825Z</time></trkpt><trkpt lat="43.2276891" lon="11.4236587"><ele>164.0</ele><time>2026-04-19T09:50:12.824Z</time></trkpt><trkpt lat="43.2274673" lon="11.4236468"><ele>164.0</ele><time>2026-04-19T09:50:13.824Z</time></trkpt><trkpt lat="43.2272651" lon="11.4236409"><ele>164.0</ele><time>2026-04-19T09:50:14.824Z</time></trkpt><trkpt lat="43.2270789" lon="11.4236394"><ele>164.33333333333331</ele><time>2026-04-19T09:50:15.825Z</time></trkpt><trkpt lat="43.2268925" lon="11.4236407"><ele>164.66666666666666</ele><time>2026-04-19T09:50:16.824Z</time></trkpt><trkpt lat="43.2267235" lon="11.4236435"><ele>165.0</ele><time>2026-04-19T09:50:17.825Z</time></trkpt><trkpt lat="43.2265702" lon="11.4236628"><ele>164.66666666666666</ele><time>2026-04-19T09:50:18.824Z</time></trkpt><trkpt lat="43.2264189" lon="11.4236896"><ele>164.33333333333331</ele><time>2026-04-19T09:50:19.823Z</time></trkpt><trkpt lat="43.2262713" lon="11.4237426"><ele>164.0</ele><time>2026-04-19T09:50:20.825Z</time></trkpt><trkpt lat="43.226129" lon="11.4238196"><ele>163.33333333333331</ele><time>2026-04-19T09:50:21.824Z</time></trkpt><trkpt lat="43.22599" lon="11.4239098"><ele>162.66666666666666</ele><time>2026-04-19T09:50:22.824Z</time></trkpt><trkpt lat="43.2258589" lon="11.4240208"><ele>162.0</ele><time>2026-04-19T09:50:23.824Z</time></trkpt><trkpt lat="43.2257225" lon="11.4241289"><ele>162.0</ele><time>2026-04-19T09:50:24.823Z</time></trkpt><trkpt lat="43.2255766" lon="11.4242394"><ele>162.0</ele><time>2026-04-19T09:50:25.824Z</time></trkpt><trkpt lat="43.2254261" lon="11.4243505"><ele>162.0</ele><time>2026-04-19T09:50:26.824Z</time></trkpt><trkpt lat="43.2252832" lon="11.4244637"><ele>162.0</ele><time>2026-04-19T09:50:27.824Z</time></trkpt><trkpt lat="43.2251444" lon="11.4245866"><ele>162.0</ele><time>2026-04-19T09:50:28.824Z</time></trkpt><trkpt lat="43.2250074" lon="11.4247301"><ele>162.0</ele><time>2026-04-19T09:50:29.824Z</time></trkpt><trkpt lat="43.2248687" lon="11.4248787"><ele>163.0</ele><time>2026-04-19T09:50:30.824Z</time></trkpt><trkpt lat="43.2247362" lon="11.4250412"><ele>164.0</ele><time>2026-04-19T09:50:31.823Z</time></trkpt><trkpt lat="43.224596" lon="11.4252097"><ele>165.0</ele><time>2026-04-19T09:50:32.824Z</time></trkpt><trkpt lat="43.2244538" lon="11.4253753"><ele>164.33333333333334</ele><time>2026-04-19T09:50:33.824Z</time></trkpt><trkpt lat="43.2243098" lon="11.425544"><ele>163.66666666666669</ele><time>2026-04-19T09:50:34.824Z</time></trkpt><trkpt lat="43.2241653" lon="11.4257202"><ele>163.0</ele><time>2026-04-19T09:50:35.824Z</time></trkpt><trkpt lat="43.2240266" lon="11.4258956"><ele>162.66666666666669</ele><time>2026-04-19T09:50:36.823Z</time></trkpt><trkpt lat="43.2238825" lon="11.4260663"><ele>162.33333333333334</ele><time>2026-04-19T09:50:37.824Z</time></trkpt><trkpt lat="43.2237402" lon="11.4262378"><ele>162.0</ele><time>2026-04-19T09:50:38.822Z</time></trkpt><trkpt lat="43.2235957" lon="11.4264104"><ele>161.33333333333334</ele><time>2026-04-19T09:50:39.822Z</time></trkpt><trkpt lat="43.2234489" lon="11.4265727"><ele>160.66666666666669</ele><time>2026-04-19T09:50:40.822Z</time></trkpt><trkpt lat="43.2232936" lon="11.4267351"><ele>160.0</ele><time>2026-04-19T09:50:41.822Z</time></trkpt><trkpt lat="43.2231397" lon="11.4269009"><ele>160.0</ele><time>2026-04-19T09:50:42.823Z</time></trkpt><trkpt lat="43.2229811" lon="11.4270642"><ele>160.0</ele><time>2026-04-19T09:50:43.823Z</time></trkpt><trkpt lat="43.2228147" lon="11.4272291"><ele>160.0</ele><time>2026-04-19T09:50:44.823Z</time></trkpt><trkpt lat="43.22264" lon="11.4273873"><ele>160.33333333333334</ele><time>2026-04-19T09:50:45.823Z</time></trkpt><trkpt lat="43.2224555" lon="11.4275547"><ele>160.66666666666666</ele><time>2026-04-19T09:50:46.823Z</time></trkpt><trkpt lat="43.2222671" lon="11.4277239"><ele>161.0</ele><time>2026-04-19T09:50:47.823Z</time></trkpt><trkpt lat="43.2220748" lon="11.427888"><ele>161.0</ele><time>2026-04-19T09:50:48.823Z</time></trkpt><trkpt lat="43.2218737" lon="11.4280426"><ele>161.0</ele><time>2026-04-19T09:50:49.824Z</time></trkpt><trkpt lat="43.2216741" lon="11.4282031"><ele>161.0</ele><time>2026-04-19T09:50:50.824Z</time></trkpt><trkpt lat="43.2214792" lon="11.4283657"><ele>161.0</ele><time>2026-04-19T09:50:51.824Z</time></trkpt><trkpt lat="43.2212842" lon="11.4285258"><ele>161.0</ele><time>2026-04-19T09:50:52.824Z</time></trkpt><trkpt lat="43.2210927" lon="11.4286833"><ele>161.0</ele><time>2026-04-19T09:50:53.824Z</time></trkpt><trkpt lat="43.2209063" lon="11.4288368"><ele>161.0</ele><time>2026-04-19T09:50:54.824Z</time></trkpt><trkpt lat="43.2207255" lon="11.4289827"><ele>161.0</ele><time>2026-04-19T09:50:55.824Z</time></trkpt><trkpt lat="43.2205524" lon="11.42912"><ele>161.0</ele><time>2026-04-19T09:50:56.822Z</time></trkpt><trkpt lat="43.220389" lon="11.4292487"><ele>161.0</ele><time>2026-04-19T09:50:57.823Z</time></trkpt><trkpt lat="43.2202358" lon="11.4293732"><ele>161.0</ele><time>2026-04-19T09:50:58.823Z</time></trkpt><trkpt lat="43.2200889" lon="11.4295037"><ele>161.0</ele><time>2026-04-19T09:50:59.824Z</time></trkpt><trkpt lat="43.2199333" lon="11.4296286"><ele>161.0</ele><time>2026-04-19T09:51:00.823Z</time></trkpt><trkpt lat="43.2197768" lon="11.4297497"><ele>161.0</ele><time>2026-04-19T09:51:01.824Z</time></trkpt><trkpt lat="43.2196173" lon="11.4298755"><ele>161.0</ele><time>2026-04-19T09:51:02.824Z</time></trkpt><trkpt lat="43.2194568" lon="11.4300057"><ele>161.0</ele><time>2026-04-19T09:51:03.823Z</time></trkpt><trkpt lat="43.2192953" lon="11.4301377"><ele>161.0</ele><time>2026-04-19T09:51:04.823Z</time></trkpt><trkpt lat="43.2191338" lon="11.4302712"><ele>161.0</ele><time>2026-04-19T09:51:05.824Z</time></trkpt><trkpt lat="43.2189721" lon="11.4304"><ele>161.0</ele><time>2026-04-19T09:51:06.823Z</time></trkpt><trkpt lat="43.2188124" lon="11.4305296"><ele>160.66666666666666</ele><time>2026-04-19T09:51:07.823Z</time></trkpt><trkpt lat="43.2186622" lon="11.4306525"><ele>160.33333333333334</ele><time>2026-04-19T09:51:08.822Z</time></trkpt><trkpt lat="43.2185135" lon="11.4307668"><ele>160.0</ele><time>2026-04-19T09:51:09.822Z</time></trkpt><trkpt lat="43.2183675" lon="11.4308823"><ele>160.0</ele><time>2026-04-19T09:51:10.824Z</time></trkpt><trkpt lat="43.2182175" lon="11.4309971"><ele>160.0</ele><time>2026-04-19T09:51:11.824Z</time></trkpt><trkpt lat="43.21807" lon="11.4311176"><ele>160.0</ele><time>2026-04-19T09:51:12.824Z</time></trkpt><trkpt lat="43.2179186" lon="11.4312392"><ele>159.66666666666669</ele><time>2026-04-19T09:51:13.824Z</time></trkpt><trkpt lat="43.2177667" lon="11.4313617"><ele>159.33333333333334</ele><time>2026-04-19T09:51:14.824Z</time></trkpt><trkpt lat="43.2176184" lon="11.4314827"><ele>159.0</ele><time>2026-04-19T09:51:15.823Z</time></trkpt><trkpt lat="43.2174694" lon="11.4316047"><ele>159.0</ele><time>2026-04-19T09:51:16.822Z</time></trkpt><trkpt lat="43.2173197" lon="11.4317266"><ele>159.0</ele><time>2026-04-19T09:51:17.822Z</time></trkpt><trkpt lat="43.2171743" lon="11.4318381"><ele>159.0</ele><time>2026-04-19T09:51:18.823Z</time></trkpt><trkpt lat="43.2170317" lon="11.4319389"><ele>159.0</ele><time>2026-04-19T09:51:19.823Z</time></trkpt><trkpt lat="43.2168995" lon="11.4320479"><ele>159.0</ele><time>2026-04-19T09:51:20.823Z</time></trkpt><trkpt lat="43.2167772" lon="11.4321527"><ele>159.0</ele><time>2026-04-19T09:51:21.823Z</time></trkpt><trkpt lat="43.216656" lon="11.4322495"><ele>159.0</ele><time>2026-04-19T09:51:22.824Z</time></trkpt><trkpt lat="43.2165408" lon="11.43234"><ele>159.2</ele><time>2026-04-19T09:51:23.824Z</time></trkpt><trkpt lat="43.2164316" lon="11.4324222"><ele>159.4</ele><time>2026-04-19T09:51:24.824Z</time></trkpt><trkpt lat="43.2163241" lon="11.4324931"><ele>159.6</ele><time>2026-04-19T09:51:25.824Z</time></trkpt><trkpt lat="43.2162264" lon="11.4325579"><ele>159.8</ele><time>2026-04-19T09:51:26.823Z</time></trkpt><trkpt lat="43.2161368" lon="11.4326038"><ele>160.0</ele><time>2026-04-19T09:51:27.823Z</time></trkpt><trkpt lat="43.2160432" lon="11.4326273"><ele>160.0</ele><time>2026-04-19T09:51:28.824Z</time></trkpt><trkpt lat="43.2159442" lon="11.4326198"><ele>160.0</ele><time>2026-04-19T09:51:29.823Z</time></trkpt><trkpt lat="43.2158386" lon="11.4325998"><ele>160.0</ele><time>2026-04-19T09:51:30.823Z</time></trkpt><trkpt lat="43.2157248" lon="11.4326103"><ele>160.0</ele><time>2026-04-19T09:51:31.823Z</time></trkpt><trkpt lat="43.2156094" lon="11.4326409"><ele>160.0</ele><time>2026-04-19T09:51:32.823Z</time></trkpt><trkpt lat="43.2154967" lon="11.432679"><ele>160.25</ele><time>2026-04-19T09:51:33.824Z</time></trkpt><trkpt lat="43.2153806" lon="11.4326867"><ele>160.5</ele><time>2026-04-19T09:51:34.824Z</time></trkpt><trkpt lat="43.2152563" lon="11.4326724"><ele>160.75</ele><time>2026-04-19T09:51:35.824Z</time></trkpt><trkpt lat="43.2151301" lon="11.4326366"><ele>161.0</ele><time>2026-04-19T09:51:36.822Z</time></trkpt><trkpt lat="43.2149984" lon="11.4325741"><ele>161.0</ele><time>2026-04-19T09:51:37.823Z</time></trkpt><trkpt lat="43.2148613" lon="11.4324968"><ele>161.0</ele><time>2026-04-19T09:51:38.823Z</time></trkpt><trkpt lat="43.2147181" lon="11.432419"><ele>161.0</ele><time>2026-04-19T09:51:39.823Z</time></trkpt><trkpt lat="43.2145591" lon="11.4323381"><ele>161.33333333333331</ele><time>2026-04-19T09:51:40.823Z</time></trkpt><trkpt lat="43.2143959" lon="11.4322594"><ele>161.66666666666666</ele><time>2026-04-19T09:51:41.824Z</time></trkpt><trkpt lat="43.2142149" lon="11.4321864"><ele>162.0</ele><time>2026-04-19T09:51:42.823Z</time></trkpt><trkpt lat="43.2140244" lon="11.4321259"><ele>162.33333333333334</ele><time>2026-04-19T09:51:43.822Z</time></trkpt><trkpt lat="43.2138284" lon="11.4320705"><ele>162.66666666666669</ele><time>2026-04-19T09:51:44.824Z</time></trkpt><trkpt lat="43.2136243" lon="11.4320178"><ele>163.0</ele><time>2026-04-19T09:51:45.822Z</time></trkpt><trkpt lat="43.2134162" lon="11.4319575"><ele>163.0</ele><time>2026-04-19T09:51:46.823Z</time></trkpt><trkpt lat="43.2132076" lon="11.4319069"><ele>163.0</ele><time>2026-04-19T09:51:47.824Z</time></trkpt><trkpt lat="43.2130025" lon="11.4318672"><ele>163.0</ele><time>2026-04-19T09:51:48.823Z</time></trkpt><trkpt lat="43.2127995" lon="11.4318431"><ele>163.66666666666669</ele><time>2026-04-19T09:51:49.824Z</time></trkpt><trkpt lat="43.2125991" lon="11.4318318"><ele>164.33333333333334</ele><time>2026-04-19T09:51:50.824Z</time></trkpt><trkpt lat="43.2124006" lon="11.4318354"><ele>165.0</ele><time>2026-04-19T09:51:51.824Z</time></trkpt><trkpt lat="43.2121999" lon="11.4318486"><ele>165.33333333333334</ele><time>2026-04-19T09:51:52.824Z</time></trkpt><trkpt lat="43.2120063" lon="11.4318646"><ele>165.66666666666669</ele><time>2026-04-19T09:51:53.823Z</time></trkpt><trkpt lat="43.2118213" lon="11.4318711"><ele>166.0</ele><time>2026-04-19T09:51:54.823Z</time></trkpt><trkpt lat="43.2116325" lon="11.4318809"><ele>165.66666666666669</ele><time>2026-04-19T09:51:55.823Z</time></trkpt><trkpt lat="43.2114502" lon="11.4318903"><ele>165.33333333333334</ele><time>2026-04-19T09:51:56.823Z</time></trkpt><trkpt lat="43.2112687" lon="11.4318985"><ele>165.0</ele><time>2026-04-19T09:51:57.824Z</time></trkpt><trkpt lat="43.2110917" lon="11.4319061"><ele>165.0</ele><time>2026-04-19T09:51:58.824Z</time></trkpt><trkpt lat="43.2109174" lon="11.4319134"><ele>165.0</ele><time>2026-04-19T09:51:59.824Z</time></trkpt><trkpt lat="43.2107449" lon="11.4319229"><ele>165.0</ele><time>2026-04-19T09:52:00.823Z</time></trkpt><trkpt lat="43.2105762" lon="11.4319338"><ele>165.33333333333334</ele><time>2026-04-19T09:52:01.824Z</time></trkpt><trkpt lat="43.210408" lon="11.4319395"><ele>165.66666666666669</ele><time>2026-04-19T09:52:02.823Z</time></trkpt><trkpt lat="43.2102397" lon="11.4319475"><ele>166.0</ele><time>2026-04-19T09:52:03.824Z</time></trkpt><trkpt lat="43.2100766" lon="11.4319596"><ele>166.0</ele><time>2026-04-19T09:52:04.824Z</time></trkpt><trkpt lat="43.2099142" lon="11.4319695"><ele>166.0</ele><time>2026-04-19T09:52:05.824Z</time></trkpt><trkpt lat="43.2097558" lon="11.4319816"><ele>166.0</ele><time>2026-04-19T09:52:06.823Z</time></trkpt><trkpt lat="43.209609" lon="11.4319952"><ele>165.75</ele><time>2026-04-19T09:52:07.822Z</time></trkpt><trkpt lat="43.2094744" lon="11.4320235"><ele>165.5</ele><time>2026-04-19T09:52:08.824Z</time></trkpt><trkpt lat="43.2093549" lon="11.4320771"><ele>165.25</ele><time>2026-04-19T09:52:09.823Z</time></trkpt><trkpt lat="43.2092512" lon="11.4321655"><ele>165.0</ele><time>2026-04-19T09:52:10.823Z</time></trkpt><trkpt lat="43.2091655" lon="11.4322815"><ele>165.0</ele><time>2026-04-19T09:52:11.823Z</time></trkpt><trkpt lat="43.2090976" lon="11.4324137"><ele>165.0</ele><time>2026-04-19T09:52:12.824Z</time></trkpt><trkpt lat="43.2090428" lon="11.4325419"><ele>165.0</ele><time>2026-04-19T09:52:13.824Z</time></trkpt><trkpt lat="43.2089945" lon="11.4326683"><ele>165.0</ele><time>2026-04-19T09:52:14.824Z</time></trkpt><trkpt lat="43.2089473" lon="11.4327932"><ele>165.0</ele><time>2026-04-19T09:52:15.824Z</time></trkpt><trkpt lat="43.2088956" lon="11.4329189"><ele>164.5</ele><time>2026-04-19T09:52:16.824Z</time></trkpt><trkpt lat="43.2088451" lon="11.4330554"><ele>164.0</ele><time>2026-04-19T09:52:17.824Z</time></trkpt><trkpt lat="43.2087932" lon="11.4332072"><ele>163.5</ele><time>2026-04-19T09:52:18.823Z</time></trkpt><trkpt lat="43.20874" lon="11.4333689"><ele>163.0</ele><time>2026-04-19T09:52:19.823Z</time></trkpt><trkpt lat="43.2086851" lon="11.4335465"><ele>163.0</ele><time>2026-04-19T09:52:20.824Z</time></trkpt><trkpt lat="43.2086279" lon="11.4337147"><ele>163.0</ele><time>2026-04-19T09:52:21.824Z</time></trkpt><trkpt lat="43.2085803" lon="11.4338968"><ele>163.0</ele><time>2026-04-19T09:52:22.824Z</time></trkpt><trkpt lat="43.208571" lon="11.4340995"><ele>163.0</ele><time>2026-04-19T09:52:23.823Z</time></trkpt><trkpt lat="43.2085951" lon="11.4343163"><ele>163.0</ele><time>2026-04-19T09:52:24.824Z</time></trkpt><trkpt lat="43.208622" lon="11.4345501"><ele>163.0</ele><time>2026-04-19T09:52:25.823Z</time></trkpt><trkpt lat="43.2086465" lon="11.4347858"><ele>163.0</ele><time>2026-04-19T09:52:26.822Z</time></trkpt><trkpt lat="43.2086617" lon="11.4350356"><ele>162.0</ele><time>2026-04-19T09:52:27.824Z</time></trkpt><trkpt lat="43.2086619" lon="11.435303"><ele>161.0</ele><time>2026-04-19T09:52:28.823Z</time></trkpt><trkpt lat="43.2086266" lon="11.4355652"><ele>160.0</ele><time>2026-04-19T09:52:29.824Z</time></trkpt><trkpt lat="43.2085732" lon="11.435837"><ele>159.66666666666669</ele><time>2026-04-19T09:52:30.824Z</time></trkpt><trkpt lat="43.2085109" lon="11.4361086"><ele>159.33333333333334</ele><time>2026-04-19T09:52:31.823Z</time></trkpt><trkpt lat="43.2084457" lon="11.4363754"><ele>159.0</ele><time>2026-04-19T09:52:32.822Z</time></trkpt><trkpt lat="43.2083855" lon="11.4366309"><ele>159.0</ele><time>2026-04-19T09:52:33.824Z</time></trkpt><trkpt lat="43.2083205" lon="11.4368659"><ele>159.0</ele><time>2026-04-19T09:52:34.824Z</time></trkpt><trkpt lat="43.2082485" lon="11.4370929"><ele>159.0</ele><time>2026-04-19T09:52:35.824Z</time></trkpt><trkpt lat="43.2081747" lon="11.4373174"><ele>158.33333333333334</ele><time>2026-04-19T09:52:36.823Z</time></trkpt><trkpt lat="43.2080991" lon="11.4375378"><ele>157.66666666666669</ele><time>2026-04-19T09:52:37.823Z</time></trkpt><trkpt lat="43.2080262" lon="11.4377566"><ele>157.0</ele><time>2026-04-19T09:52:38.824Z</time></trkpt><trkpt lat="43.2079528" lon="11.43797"><ele>157.0</ele><time>2026-04-19T09:52:39.824Z</time></trkpt><trkpt lat="43.2078816" lon="11.4381732"><ele>157.0</ele><time>2026-04-19T09:52:40.822Z</time></trkpt><trkpt lat="43.2078122" lon="11.4383649"><ele>157.0</ele><time>2026-04-19T09:52:41.823Z</time></trkpt><trkpt lat="43.2077472" lon="11.4385529"><ele>157.0</ele><time>2026-04-19T09:52:42.823Z</time></trkpt><trkpt lat="43.2076804" lon="11.4387393"><ele>157.0</ele><time>2026-04-19T09:52:43.823Z</time></trkpt><trkpt lat="43.2076019" lon="11.4389156"><ele>157.0</ele><time>2026-04-19T09:52:44.823Z</time></trkpt><trkpt lat="43.2075074" lon="11.4390814"><ele>157.0</ele><time>2026-04-19T09:52:45.824Z</time></trkpt><trkpt lat="43.2073876" lon="11.4392227"><ele>157.0</ele><time>2026-04-19T09:52:46.822Z</time></trkpt><trkpt lat="43.2072445" lon="11.4393434"><ele>157.0</ele><time>2026-04-19T09:52:47.822Z</time></trkpt><trkpt lat="43.2070879" lon="11.4394444"><ele>157.0</ele><time>2026-04-19T09:52:48.823Z</time></trkpt><trkpt lat="43.2069205" lon="11.4395388"><ele>157.0</ele><time>2026-04-19T09:52:49.822Z</time></trkpt><trkpt lat="43.206745" lon="11.439653"><ele>157.0</ele><time>2026-04-19T09:52:50.823Z</time></trkpt><trkpt lat="43.206564" lon="11.4397694"><ele>157.0</ele><time>2026-04-19T09:52:51.824Z</time></trkpt><trkpt lat="43.2063838" lon="11.4398786"><ele>157.0</ele><time>2026-04-19T09:52:52.823Z</time></trkpt><trkpt lat="43.2062044" lon="11.4399882"><ele>157.0</ele><time>2026-04-19T09:52:53.822Z</time></trkpt><trkpt lat="43.2060245" lon="11.4400998"><ele>157.0</ele><time>2026-04-19T09:52:54.824Z</time></trkpt><trkpt lat="43.205848" lon="11.440205"><ele>157.0</ele><time>2026-04-19T09:52:55.823Z</time></trkpt><trkpt lat="43.205676" lon="11.4403095"><ele>157.0</ele><time>2026-04-19T09:52:56.823Z</time></trkpt><trkpt lat="43.2055115" lon="11.4404087"><ele>157.33333333333334</ele><time>2026-04-19T09:52:57.824Z</time></trkpt><trkpt lat="43.2053479" lon="11.4405087"><ele>157.66666666666666</ele><time>2026-04-19T09:52:58.823Z</time></trkpt><trkpt lat="43.205186" lon="11.4406104"><ele>158.0</ele><time>2026-04-19T09:52:59.824Z</time></trkpt><trkpt lat="43.2050143" lon="11.4407179"><ele>158.0</ele><time>2026-04-19T09:53:00.824Z</time></trkpt><trkpt lat="43.2048368" lon="11.4408269"><ele>158.0</ele><time>2026-04-19T09:53:01.824Z</time></trkpt><trkpt lat="43.2046486" lon="11.4409396"><ele>158.0</ele><time>2026-04-19T09:53:02.824Z</time></trkpt><trkpt lat="43.2044561" lon="11.4410637"><ele>158.33333333333331</ele><time>2026-04-19T09:53:03.822Z</time></trkpt><trkpt lat="43.2042666" lon="11.4412004"><ele>158.66666666666666</ele><time>2026-04-19T09:53:04.824Z</time></trkpt><trkpt lat="43.2040911" lon="11.4413466"><ele>159.0</ele><time>2026-04-19T09:53:05.823Z</time></trkpt><trkpt lat="43.2039284" lon="11.4415002"><ele>159.66666666666666</ele><time>2026-04-19T09:53:06.823Z</time></trkpt><trkpt lat="43.2037741" lon="11.4416585"><ele>160.33333333333331</ele><time>2026-04-19T09:53:07.824Z</time></trkpt><trkpt lat="43.2036289" lon="11.4418221"><ele>161.0</ele><time>2026-04-19T09:53:08.824Z</time></trkpt><trkpt lat="43.2034969" lon="11.4419859"><ele>160.66666666666666</ele><time>2026-04-19T09:53:09.823Z</time></trkpt><trkpt lat="43.20337" lon="11.4421437"><ele>160.33333333333334</ele><time>2026-04-19T09:53:10.824Z</time></trkpt><trkpt lat="43.2032519" lon="11.442297"><ele>160.0</ele><time>2026-04-19T09:53:11.824Z</time></trkpt><trkpt lat="43.203136" lon="11.4424415"><ele>160.0</ele><time>2026-04-19T09:53:12.822Z</time></trkpt><trkpt lat="43.2030168" lon="11.4425717"><ele>160.0</ele><time>2026-04-19T09:53:13.823Z</time></trkpt><trkpt lat="43.2028884" lon="11.4426824"><ele>160.0</ele><time>2026-04-19T09:53:14.823Z</time></trkpt><trkpt lat="43.2027464" lon="11.4427625"><ele>160.0</ele><time>2026-04-19T09:53:15.823Z</time></trkpt><trkpt lat="43.2025889" lon="11.4428153"><ele>160.0</ele><time>2026-04-19T09:53:16.824Z</time></trkpt><trkpt lat="43.202424" lon="11.4428404"><ele>160.0</ele><time>2026-04-19T09:53:17.822Z</time></trkpt><trkpt lat="43.2022527" lon="11.442854"><ele>159.66666666666669</ele><time>2026-04-19T09:53:18.823Z</time></trkpt><trkpt lat="43.2020795" lon="11.4428734"><ele>159.33333333333334</ele><time>2026-04-19T09:53:19.822Z</time></trkpt><trkpt lat="43.2019097" lon="11.4428896"><ele>159.0</ele><time>2026-04-19T09:53:20.824Z</time></trkpt><trkpt lat="43.2017457" lon="11.4429097"><ele>159.0</ele><time>2026-04-19T09:53:21.822Z</time></trkpt><trkpt lat="43.2015883" lon="11.4429248"><ele>159.0</ele><time>2026-04-19T09:53:22.822Z</time></trkpt><trkpt lat="43.2014369" lon="11.4429366"><ele>159.0</ele><time>2026-04-19T09:53:23.823Z</time></trkpt><trkpt lat="43.2012908" lon="11.44295"><ele>158.5</ele><time>2026-04-19T09:53:24.823Z</time></trkpt><trkpt lat="43.2011518" lon="11.4429623"><ele>158.0</ele><time>2026-04-19T09:53:25.823Z</time></trkpt><trkpt lat="43.2010174" lon="11.4429704"><ele>157.5</ele><time>2026-04-19T09:53:26.824Z</time></trkpt><trkpt lat="43.200879" lon="11.4429843"><ele>157.0</ele><time>2026-04-19T09:53:27.823Z</time></trkpt><trkpt lat="43.2007379" lon="11.4430008"><ele>157.25</ele><time>2026-04-19T09:53:28.824Z</time></trkpt><trkpt lat="43.2005979" lon="11.4430154"><ele>157.5</ele><time>2026-04-19T09:53:29.824Z</time></trkpt><trkpt lat="43.2004628" lon="11.4430334"><ele>157.75</ele><time>2026-04-19T09:53:30.823Z</time></trkpt><trkpt lat="43.2003243" lon="11.4430415"><ele>158.0</ele><time>2026-04-19T09:53:31.823Z</time></trkpt><trkpt lat="43.2001858" lon="11.4430513"><ele>158.0</ele><time>2026-04-19T09:53:32.824Z</time></trkpt><trkpt lat="43.2000429" lon="11.4430638"><ele>158.0</ele><time>2026-04-19T09:53:33.823Z</time></trkpt><trkpt lat="43.1998981" lon="11.4430776"><ele>158.0</ele><time>2026-04-19T09:53:34.823Z</time></trkpt><trkpt lat="43.1997483" lon="11.443092"><ele>158.0</ele><time>2026-04-19T09:53:35.824Z</time></trkpt><trkpt lat="43.1995938" lon="11.4431065"><ele>157.66666666666666</ele><time>2026-04-19T09:53:36.824Z</time></trkpt><trkpt lat="43.1994378" lon="11.443118"><ele>157.33333333333334</ele><time>2026-04-19T09:53:37.823Z</time></trkpt><trkpt lat="43.1992766" lon="11.4431371"><ele>157.0</ele><time>2026-04-19T09:53:38.821Z</time></trkpt><trkpt lat="43.1991092" lon="11.4431575"><ele>157.33333333333334</ele><time>2026-04-19T09:53:39.821Z</time></trkpt><trkpt lat="43.1989469" lon="11.4431898"><ele>157.66666666666666</ele><time>2026-04-19T09:53:40.822Z</time></trkpt><trkpt lat="43.1987956" lon="11.4432302"><ele>158.0</ele><time>2026-04-19T09:53:41.822Z</time></trkpt><trkpt lat="43.1986526" lon="11.4432776"><ele>158.0</ele><time>2026-04-19T09:53:42.822Z</time></trkpt><trkpt lat="43.1985186" lon="11.4433231"><ele>158.0</ele><time>2026-04-19T09:53:43.822Z</time></trkpt><trkpt lat="43.1983938" lon="11.443376"><ele>158.0</ele><time>2026-04-19T09:53:44.821Z</time></trkpt><trkpt lat="43.1982711" lon="11.4434306"><ele>158.0</ele><time>2026-04-19T09:53:45.821Z</time></trkpt><trkpt lat="43.1981459" lon="11.4434933"><ele>158.25</ele><time>2026-04-19T09:53:46.821Z</time></trkpt><trkpt lat="43.198016" lon="11.443556"><ele>158.5</ele><time>2026-04-19T09:53:47.821Z</time></trkpt><trkpt lat="43.1978831" lon="11.4436165"><ele>158.75</ele><time>2026-04-19T09:53:48.823Z</time></trkpt><trkpt lat="43.1977452" lon="11.4436857"><ele>159.0</ele><time>2026-04-19T09:53:49.823Z</time></trkpt><trkpt lat="43.1976044" lon="11.4437601"><ele>158.66666666666666</ele><time>2026-04-19T09:53:50.822Z</time></trkpt><trkpt lat="43.1974615" lon="11.4438326"><ele>158.33333333333331</ele><time>2026-04-19T09:53:51.822Z</time></trkpt><trkpt lat="43.197313" lon="11.4439048"><ele>158.0</ele><time>2026-04-19T09:53:52.822Z</time></trkpt><trkpt lat="43.1971662" lon="11.4439754"><ele>158.0</ele><time>2026-04-19T09:53:53.823Z</time></trkpt><trkpt lat="43.1970205" lon="11.4440507"><ele>158.0</ele><time>2026-04-19T09:53:54.822Z</time></trkpt><trkpt lat="43.1968874" lon="11.4441239"><ele>158.0</ele><time>2026-04-19T09:53:55.823Z</time></trkpt><trkpt lat="43.19676" lon="11.4441928"><ele>158.0</ele><time>2026-04-19T09:53:56.822Z</time></trkpt><trkpt lat="43.1966406" lon="11.4442628"><ele>158.0</ele><time>2026-04-19T09:53:57.823Z</time></trkpt><trkpt lat="43.1965233" lon="11.444347"><ele>158.0</ele><time>2026-04-19T09:53:58.823Z</time></trkpt><trkpt lat="43.196413" lon="11.4444428"><ele>158.0</ele><time>2026-04-19T09:53:59.821Z</time></trkpt><trkpt lat="43.1963071" lon="11.4445535"><ele>158.0</ele><time>2026-04-19T09:54:00.822Z</time></trkpt><trkpt lat="43.1962064" lon="11.4446829"><ele>159.0</ele><time>2026-04-19T09:54:01.823Z</time></trkpt><trkpt lat="43.1961112" lon="11.4448276"><ele>160.0</ele><time>2026-04-19T09:54:02.823Z</time></trkpt><trkpt lat="43.1960188" lon="11.4449926"><ele>161.0</ele><time>2026-04-19T09:54:03.822Z</time></trkpt><trkpt lat="43.1959314" lon="11.4451752"><ele>161.0</ele><time>2026-04-19T09:54:04.823Z</time></trkpt><trkpt lat="43.1958503" lon="11.4453806"><ele>161.0</ele><time>2026-04-19T09:54:05.821Z</time></trkpt><trkpt lat="43.1957844" lon="11.4456"><ele>161.0</ele><time>2026-04-19T09:54:06.822Z</time></trkpt><trkpt lat="43.1957304" lon="11.4458292"><ele>160.33333333333331</ele><time>2026-04-19T09:54:07.821Z</time></trkpt><trkpt lat="43.1956791" lon="11.4460757"><ele>159.66666666666666</ele><time>2026-04-19T09:54:08.822Z</time></trkpt><trkpt lat="43.1956206" lon="11.4463291"><ele>159.0</ele><time>2026-04-19T09:54:09.822Z</time></trkpt><trkpt lat="43.1955686" lon="11.4465819"><ele>161.33333333333334</ele><time>2026-04-19T09:54:10.823Z</time></trkpt><trkpt lat="43.1955131" lon="11.4468324"><ele>163.66666666666669</ele><time>2026-04-19T09:54:11.822Z</time></trkpt><trkpt lat="43.1954608" lon="11.4470705"><ele>166.0</ele><time>2026-04-19T09:54:12.822Z</time></trkpt><trkpt lat="43.1954121" lon="11.4473006"><ele>166.0</ele><time>2026-04-19T09:54:13.822Z</time></trkpt><trkpt lat="43.1953643" lon="11.4475334"><ele>166.0</ele><time>2026-04-19T09:54:14.822Z</time></trkpt><trkpt lat="43.1953163" lon="11.4477669"><ele>166.0</ele><time>2026-04-19T09:54:15.822Z</time></trkpt><trkpt lat="43.1952603" lon="11.4480021"><ele>164.33333333333334</ele><time>2026-04-19T09:54:16.822Z</time></trkpt><trkpt lat="43.1951917" lon="11.4482324"><ele>162.66666666666666</ele><time>2026-04-19T09:54:17.822Z</time></trkpt><trkpt lat="43.1951123" lon="11.4484587"><ele>161.0</ele><time>2026-04-19T09:54:18.822Z</time></trkpt><trkpt lat="43.1950178" lon="11.4486839"><ele>160.0</ele><time>2026-04-19T09:54:19.822Z</time></trkpt><trkpt lat="43.1949085" lon="11.4489023"><ele>159.0</ele><time>2026-04-19T09:54:20.822Z</time></trkpt><trkpt lat="43.1947885" lon="11.4491159"><ele>158.0</ele><time>2026-04-19T09:54:21.822Z</time></trkpt><trkpt lat="43.1946617" lon="11.4493255"><ele>158.66666666666666</ele><time>2026-04-19T09:54:22.822Z</time></trkpt><trkpt lat="43.1945314" lon="11.4495464"><ele>159.33333333333334</ele><time>2026-04-19T09:54:23.823Z</time></trkpt><trkpt lat="43.1944014" lon="11.4497631"><ele>160.0</ele><time>2026-04-19T09:54:24.822Z</time></trkpt><trkpt lat="43.1942688" lon="11.4499816"><ele>160.0</ele><time>2026-04-19T09:54:25.823Z</time></trkpt><trkpt lat="43.1941353" lon="11.4501968"><ele>160.0</ele><time>2026-04-19T09:54:26.822Z</time></trkpt><trkpt lat="43.194007" lon="11.4504059"><ele>160.0</ele><time>2026-04-19T09:54:27.823Z</time></trkpt><trkpt lat="43.193889" lon="11.4506102"><ele>159.33333333333334</ele><time>2026-04-19T09:54:28.823Z</time></trkpt><trkpt lat="43.1937756" lon="11.4508011"><ele>158.66666666666666</ele><time>2026-04-19T09:54:29.823Z</time></trkpt><trkpt lat="43.1936692" lon="11.4509861"><ele>158.0</ele><time>2026-04-19T09:54:30.822Z</time></trkpt><trkpt lat="43.1935639" lon="11.4511577"><ele>156.66666666666666</ele><time>2026-04-19T09:54:31.822Z</time></trkpt><trkpt lat="43.1934628" lon="11.4513301"><ele>155.33333333333334</ele><time>2026-04-19T09:54:32.822Z</time></trkpt><trkpt lat="43.1933583" lon="11.4515009"><ele>154.0</ele><time>2026-04-19T09:54:33.823Z</time></trkpt><trkpt lat="43.1932574" lon="11.4516703"><ele>157.0</ele><time>2026-04-19T09:54:34.823Z</time></trkpt><trkpt lat="43.1931604" lon="11.4518386"><ele>160.0</ele><time>2026-04-19T09:54:35.823Z</time></trkpt><trkpt lat="43.1930612" lon="11.4520021"><ele>163.0</ele><time>2026-04-19T09:54:36.823Z</time></trkpt><trkpt lat="43.192966" lon="11.4521541"><ele>163.5</ele><time>2026-04-19T09:54:37.822Z</time></trkpt><trkpt lat="43.192881" lon="11.4523039"><ele>164.0</ele><time>2026-04-19T09:54:38.822Z</time></trkpt><trkpt lat="43.1928001" lon="11.4524463"><ele>164.5</ele><time>2026-04-19T09:54:39.823Z</time></trkpt><trkpt lat="43.192728" lon="11.4525891"><ele>165.0</ele><time>2026-04-19T09:54:40.822Z</time></trkpt><trkpt lat="43.1926649" lon="11.452727"><ele>165.0</ele><time>2026-04-19T09:54:41.821Z</time></trkpt><trkpt lat="43.1926618" lon="11.452874"><ele>165.0</ele><time>2026-04-19T09:54:42.821Z</time></trkpt><trkpt lat="43.192676" lon="11.4530306"><ele>165.0</ele><time>2026-04-19T09:54:43.823Z</time></trkpt><trkpt lat="43.1927198" lon="11.4531702"><ele>165.0</ele><time>2026-04-19T09:54:44.823Z</time></trkpt><trkpt lat="43.1927811" lon="11.4533011"><ele>165.0</ele><time>2026-04-19T09:54:45.823Z</time></trkpt><trkpt lat="43.1928479" lon="11.4534288"><ele>165.5</ele><time>2026-04-19T09:54:46.822Z</time></trkpt><trkpt lat="43.1929092" lon="11.4535676"><ele>166.0</ele><time>2026-04-19T09:54:47.822Z</time></trkpt><trkpt lat="43.1929611" lon="11.4537088"><ele>166.5</ele><time>2026-04-19T09:54:48.821Z</time></trkpt><trkpt lat="43.1930063" lon="11.4538563"><ele>167.0</ele><time>2026-04-19T09:54:49.822Z</time></trkpt><trkpt lat="43.1930421" lon="11.4540073"><ele>167.2</ele><time>2026-04-19T09:54:50.822Z</time></trkpt><trkpt lat="43.1930737" lon="11.4541544"><ele>167.39999999999998</ele><time>2026-04-19T09:54:51.823Z</time></trkpt><trkpt lat="43.1931002" lon="11.4542908"><ele>167.60000000000002</ele><time>2026-04-19T09:54:52.823Z</time></trkpt><trkpt lat="43.1931213" lon="11.4544165"><ele>167.8</ele><time>2026-04-19T09:54:53.823Z</time></trkpt><trkpt lat="43.1931212" lon="11.4545343"><ele>168.0</ele><time>2026-04-19T09:54:54.822Z</time></trkpt><trkpt lat="43.1931028" lon="11.4546337"><ele>167.66666666666666</ele><time>2026-04-19T09:54:55.822Z</time></trkpt><trkpt lat="43.1930594" lon="11.454724"><ele>167.33333333333334</ele><time>2026-04-19T09:54:56.821Z</time></trkpt><trkpt lat="43.1929947" lon="11.4547962"><ele>167.0</ele><time>2026-04-19T09:54:57.823Z</time></trkpt><trkpt lat="43.1929193" lon="11.4548619"><ele>166.66666666666669</ele><time>2026-04-19T09:54:58.821Z</time></trkpt><trkpt lat="43.1928451" lon="11.4549202"><ele>166.33333333333334</ele><time>2026-04-19T09:54:59.822Z</time></trkpt><trkpt lat="43.1927595" lon="11.4549707"><ele>166.0</ele><time>2026-04-19T09:55:00.821Z</time></trkpt><trkpt lat="43.192675" lon="11.4550051"><ele>166.0</ele><time>2026-04-19T09:55:01.823Z</time></trkpt><trkpt lat="43.1925775" lon="11.4550004"><ele>166.0</ele><time>2026-04-19T09:55:02.822Z</time></trkpt><trkpt lat="43.1924788" lon="11.4549725"><ele>166.0</ele><time>2026-04-19T09:55:03.823Z</time></trkpt><trkpt lat="43.1923775" lon="11.4549346"><ele>166.0</ele><time>2026-04-19T09:55:04.822Z</time></trkpt><trkpt lat="43.1922739" lon="11.4548883"><ele>166.0</ele><time>2026-04-19T09:55:05.823Z</time></trkpt><trkpt lat="43.1921736" lon="11.4548208"><ele>166.0</ele><time>2026-04-19T09:55:06.823Z</time></trkpt><trkpt lat="43.1920808" lon="11.4547259"><ele>166.0</ele><time>2026-04-19T09:55:07.823Z</time></trkpt><trkpt lat="43.192001" lon="11.4545995"><ele>166.0</ele><time>2026-04-19T09:55:08.822Z</time></trkpt><trkpt lat="43.1919415" lon="11.4544411"><ele>166.0</ele><time>2026-04-19T09:55:09.822Z</time></trkpt><trkpt lat="43.1918798" lon="11.4542779"><ele>166.0</ele><time>2026-04-19T09:55:10.821Z</time></trkpt><trkpt lat="43.1918213" lon="11.4541144"><ele>166.0</ele><time>2026-04-19T09:55:11.823Z</time></trkpt><trkpt lat="43.1917544" lon="11.453941"><ele>166.0</ele><time>2026-04-19T09:55:12.822Z</time></trkpt><trkpt lat="43.1916835" lon="11.453768"><ele>166.0</ele><time>2026-04-19T09:55:13.823Z</time></trkpt><trkpt lat="43.1916182" lon="11.4536061"><ele>167.25</ele><time>2026-04-19T09:55:14.823Z</time></trkpt><trkpt lat="43.1915359" lon="11.45347"><ele>168.5</ele><time>2026-04-19T09:55:15.823Z</time></trkpt><trkpt lat="43.191448" lon="11.4533733"><ele>169.75</ele><time>2026-04-19T09:55:16.823Z</time></trkpt><trkpt lat="43.1912941" lon="11.4533501"><ele>171.0</ele><time>2026-04-19T09:55:17.823Z</time></trkpt><trkpt lat="43.191142" lon="11.4533463"><ele>171.0</ele><time>2026-04-19T09:55:18.822Z</time></trkpt><trkpt lat="43.1909677" lon="11.4533767"><ele>171.0</ele><time>2026-04-19T09:55:19.822Z</time></trkpt><trkpt lat="43.1907782" lon="11.4534232"><ele>171.0</ele><time>2026-04-19T09:55:20.822Z</time></trkpt><trkpt lat="43.1905949" lon="11.4534936"><ele>173.0</ele><time>2026-04-19T09:55:21.822Z</time></trkpt><trkpt lat="43.1904109" lon="11.4535801"><ele>175.0</ele><time>2026-04-19T09:55:22.822Z</time></trkpt><trkpt lat="43.1902773" lon="11.4536672"><ele>177.0</ele><time>2026-04-19T09:55:23.823Z</time></trkpt><trkpt lat="43.190138" lon="11.453749"><ele>177.0</ele><time>2026-04-19T09:55:24.822Z</time></trkpt><trkpt lat="43.1900131" lon="11.4538291"><ele>177.0</ele><time>2026-04-19T09:55:25.821Z</time></trkpt><trkpt lat="43.1898949" lon="11.4539029"><ele>177.0</ele><time>2026-04-19T09:55:26.823Z</time></trkpt><trkpt lat="43.1897882" lon="11.4539602"><ele>177.0</ele><time>2026-04-19T09:55:27.823Z</time></trkpt><trkpt lat="43.1896726" lon="11.4540038"><ele>177.0</ele><time>2026-04-19T09:55:28.822Z</time></trkpt><trkpt lat="43.1895479" lon="11.4540263"><ele>177.0</ele><time>2026-04-19T09:55:29.823Z</time></trkpt><trkpt lat="43.189421" lon="11.4540282"><ele>177.0</ele><time>2026-04-19T09:55:30.823Z</time></trkpt><trkpt lat="43.1892742" lon="11.4540288"><ele>177.0</ele><time>2026-04-19T09:55:31.822Z</time></trkpt><trkpt lat="43.1891064" lon="11.4540366"><ele>178.33333333333334</ele><time>2026-04-19T09:55:32.821Z</time></trkpt><trkpt lat="43.1889378" lon="11.454029"><ele>179.66666666666669</ele><time>2026-04-19T09:55:33.822Z</time></trkpt><trkpt lat="43.1887818" lon="11.4540192"><ele>181.0</ele><time>2026-04-19T09:55:34.821Z</time></trkpt><trkpt lat="43.1886377" lon="11.4540157"><ele>181.0</ele><time>2026-04-19T09:55:35.822Z</time></trkpt><trkpt lat="43.1885089" lon="11.4540114"><ele>181.0</ele><time>2026-04-19T09:55:36.823Z</time></trkpt><trkpt lat="43.1883936" lon="11.454016"><ele>181.0</ele><time>2026-04-19T09:55:37.823Z</time></trkpt><trkpt lat="43.1882774" lon="11.4540237"><ele>181.0</ele><time>2026-04-19T09:55:38.823Z</time></trkpt><trkpt lat="43.1881571" lon="11.4540478"><ele>180.5</ele><time>2026-04-19T09:55:39.822Z</time></trkpt><trkpt lat="43.1880457" lon="11.454092"><ele>180.0</ele><time>2026-04-19T09:55:40.822Z</time></trkpt><trkpt lat="43.1879326" lon="11.45415"><ele>179.5</ele><time>2026-04-19T09:55:41.821Z</time></trkpt><trkpt lat="43.1878128" lon="11.4542193"><ele>179.0</ele><time>2026-04-19T09:55:42.823Z</time></trkpt><trkpt lat="43.1876797" lon="11.4543079"><ele>179.0</ele><time>2026-04-19T09:55:43.822Z</time></trkpt><trkpt lat="43.1875151" lon="11.4544104"><ele>179.0</ele><time>2026-04-19T09:55:44.822Z</time></trkpt><trkpt lat="43.1873095" lon="11.4545233"><ele>179.0</ele><time>2026-04-19T09:55:45.822Z</time></trkpt><trkpt lat="43.1870893" lon="11.4546348"><ele>174.5</ele><time>2026-04-19T09:55:46.823Z</time></trkpt><trkpt lat="43.1868398" lon="11.4547624"><ele>170.0</ele><time>2026-04-19T09:55:47.823Z</time></trkpt><trkpt lat="43.1865957" lon="11.4549058"><ele>169.5</ele><time>2026-04-19T09:55:48.822Z</time></trkpt><trkpt lat="43.1863574" lon="11.4550682"><ele>169.0</ele><time>2026-04-19T09:55:49.823Z</time></trkpt><trkpt lat="43.1861159" lon="11.4552548"><ele>167.5</ele><time>2026-04-19T09:55:50.823Z</time></trkpt><trkpt lat="43.1858855" lon="11.4554673"><ele>166.0</ele><time>2026-04-19T09:55:51.822Z</time></trkpt><trkpt lat="43.1856725" lon="11.4556899"><ele>166.0</ele><time>2026-04-19T09:55:52.821Z</time></trkpt><trkpt lat="43.1854803" lon="11.4559222"><ele>166.0</ele><time>2026-04-19T09:55:53.822Z</time></trkpt><trkpt lat="43.1853016" lon="11.4561666"><ele>164.5</ele><time>2026-04-19T09:55:54.823Z</time></trkpt><trkpt lat="43.1851288" lon="11.4563742"><ele>163.0</ele><time>2026-04-19T09:55:55.823Z</time></trkpt><trkpt lat="43.1849551" lon="11.4565981"><ele>163.0</ele><time>2026-04-19T09:55:56.823Z</time></trkpt><trkpt lat="43.1847968" lon="11.4568046"><ele>163.0</ele><time>2026-04-19T09:55:57.823Z</time></trkpt><trkpt lat="43.1846352" lon="11.4570211"><ele>163.0</ele><time>2026-04-19T09:55:58.822Z</time></trkpt><trkpt lat="43.1844522" lon="11.4572231"><ele>163.0</ele><time>2026-04-19T09:55:59.823Z</time></trkpt><trkpt lat="43.1842757" lon="11.4574036"><ele>163.0</ele><time>2026-04-19T09:56:00.823Z</time></trkpt><trkpt lat="43.1841168" lon="11.4575964"><ele>163.0</ele><time>2026-04-19T09:56:01.822Z</time></trkpt><trkpt lat="43.1839478" lon="11.4577638"><ele>163.0</ele><time>2026-04-19T09:56:02.821Z</time></trkpt><trkpt lat="43.1837934" lon="11.4579406"><ele>163.0</ele><time>2026-04-19T09:56:03.822Z</time></trkpt><trkpt lat="43.1836346" lon="11.4581099"><ele>163.0</ele><time>2026-04-19T09:56:04.823Z</time></trkpt><trkpt lat="43.1834726" lon="11.4582779"><ele>163.0</ele><time>2026-04-19T09:56:05.822Z</time></trkpt><trkpt lat="43.1833043" lon="11.4584537"><ele>163.0</ele><time>2026-04-19T09:56:06.822Z</time></trkpt><trkpt lat="43.1831338" lon="11.4586271"><ele>163.0</ele><time>2026-04-19T09:56:07.823Z</time></trkpt><trkpt lat="43.1829631" lon="11.4587988"><ele>162.0</ele><time>2026-04-19T09:56:08.823Z</time></trkpt><trkpt lat="43.1827945" lon="11.4589731"><ele>161.0</ele><time>2026-04-19T09:56:09.823Z</time></trkpt><trkpt lat="43.1826248" lon="11.4591395"><ele>160.0</ele><time>2026-04-19T09:56:10.822Z</time></trkpt><trkpt lat="43.1824536" lon="11.4593068"><ele>160.0</ele><time>2026-04-19T09:56:11.822Z</time></trkpt><trkpt lat="43.1822817" lon="11.4594789"><ele>160.0</ele><time>2026-04-19T09:56:12.822Z</time></trkpt><trkpt lat="43.1821057" lon="11.4596585"><ele>160.0</ele><time>2026-04-19T09:56:13.822Z</time></trkpt><trkpt lat="43.1819175" lon="11.4598319"><ele>160.0</ele><time>2026-04-19T09:56:14.823Z</time></trkpt><trkpt lat="43.1817338" lon="11.4600155"><ele>160.0</ele><time>2026-04-19T09:56:15.822Z</time></trkpt><trkpt lat="43.1815501" lon="11.4601987"><ele>160.66666666666669</ele><time>2026-04-19T09:56:16.823Z</time></trkpt><trkpt lat="43.1813709" lon="11.460378"><ele>161.33333333333334</ele><time>2026-04-19T09:56:17.822Z</time></trkpt><trkpt lat="43.1812076" lon="11.460551"><ele>162.0</ele><time>2026-04-19T09:56:18.822Z</time></trkpt><trkpt lat="43.1810485" lon="11.4607182"><ele>162.0</ele><time>2026-04-19T09:56:19.822Z</time></trkpt><trkpt lat="43.1808913" lon="11.4608819"><ele>162.0</ele><time>2026-04-19T09:56:20.823Z</time></trkpt><trkpt lat="43.1807434" lon="11.461052"><ele>162.0</ele><time>2026-04-19T09:56:21.823Z</time></trkpt><trkpt lat="43.1806036" lon="11.461232"><ele>163.66666666666666</ele><time>2026-04-19T09:56:22.822Z</time></trkpt><trkpt lat="43.1804798" lon="11.4614454"><ele>165.33333333333331</ele><time>2026-04-19T09:56:23.822Z</time></trkpt><trkpt lat="43.1803786" lon="11.4616498"><ele>167.0</ele><time>2026-04-19T09:56:24.823Z</time></trkpt><trkpt lat="43.1802932" lon="11.4618591"><ele>167.0</ele><time>2026-04-19T09:56:25.823Z</time></trkpt><trkpt lat="43.1802146" lon="11.4620647"><ele>167.0</ele><time>2026-04-19T09:56:26.823Z</time></trkpt><trkpt lat="43.1801255" lon="11.4622533"><ele>167.0</ele><time>2026-04-19T09:56:27.822Z</time></trkpt><trkpt lat="43.1800333" lon="11.4624225"><ele>164.0</ele><time>2026-04-19T09:56:28.821Z</time></trkpt><trkpt lat="43.1799187" lon="11.4625528"><ele>161.0</ele><time>2026-04-19T09:56:29.822Z</time></trkpt><trkpt lat="43.1797881" lon="11.462656"><ele>158.0</ele><time>2026-04-19T09:56:30.822Z</time></trkpt><trkpt lat="43.1796414" lon="11.46272"><ele>157.66666666666666</ele><time>2026-04-19T09:56:31.822Z</time></trkpt><trkpt lat="43.1794805" lon="11.4627506"><ele>157.33333333333334</ele><time>2026-04-19T09:56:32.822Z</time></trkpt><trkpt lat="43.1793108" lon="11.4627436"><ele>157.0</ele><time>2026-04-19T09:56:33.822Z</time></trkpt><trkpt lat="43.1791327" lon="11.4627016"><ele>155.66666666666669</ele><time>2026-04-19T09:56:34.822Z</time></trkpt><trkpt lat="43.1789468" lon="11.4626401"><ele>154.33333333333334</ele><time>2026-04-19T09:56:35.823Z</time></trkpt><trkpt lat="43.178777" lon="11.4625777"><ele>153.0</ele><time>2026-04-19T09:56:36.822Z</time></trkpt><trkpt lat="43.1786057" lon="11.4625212"><ele>153.0</ele><time>2026-04-19T09:56:37.821Z</time></trkpt><trkpt lat="43.1784489" lon="11.4624569"><ele>153.0</ele><time>2026-04-19T09:56:38.821Z</time></trkpt><trkpt lat="43.178288" lon="11.4624082"><ele>153.0</ele><time>2026-04-19T09:56:39.82Z</time></trkpt><trkpt lat="43.178109" lon="11.4624168"><ele>153.33333333333334</ele><time>2026-04-19T09:56:40.821Z</time></trkpt><trkpt lat="43.1779074" lon="11.462471"><ele>153.66666666666669</ele><time>2026-04-19T09:56:41.821Z</time></trkpt><trkpt lat="43.1777025" lon="11.4625453"><ele>154.0</ele><time>2026-04-19T09:56:42.82Z</time></trkpt><trkpt lat="43.1774785" lon="11.4626336"><ele>153.5</ele><time>2026-04-19T09:56:43.821Z</time></trkpt><trkpt lat="43.1772469" lon="11.4627199"><ele>153.0</ele><time>2026-04-19T09:56:44.822Z</time></trkpt><trkpt lat="43.1770038" lon="11.4628174"><ele>153.0</ele><time>2026-04-19T09:56:45.821Z</time></trkpt><trkpt lat="43.1767678" lon="11.4629142"><ele>153.0</ele><time>2026-04-19T09:56:46.821Z</time></trkpt><trkpt lat="43.1765409" lon="11.4630057"><ele>152.66666666666666</ele><time>2026-04-19T09:56:47.822Z</time></trkpt><trkpt lat="43.176324" lon="11.4630935"><ele>152.33333333333331</ele><time>2026-04-19T09:56:48.822Z</time></trkpt><trkpt lat="43.1761165" lon="11.463178"><ele>152.0</ele><time>2026-04-19T09:56:49.822Z</time></trkpt><trkpt lat="43.1759045" lon="11.4632572"><ele>151.0</ele><time>2026-04-19T09:56:50.822Z</time></trkpt><trkpt lat="43.1756793" lon="11.463345"><ele>150.0</ele><time>2026-04-19T09:56:51.821Z</time></trkpt><trkpt lat="43.1754571" lon="11.4634362"><ele>150.0</ele><time>2026-04-19T09:56:52.822Z</time></trkpt><trkpt lat="43.1752227" lon="11.4635308"><ele>150.0</ele><time>2026-04-19T09:56:53.82Z</time></trkpt><trkpt lat="43.1749876" lon="11.4636226"><ele>149.5</ele><time>2026-04-19T09:56:54.821Z</time></trkpt><trkpt lat="43.1747511" lon="11.4637141"><ele>149.0</ele><time>2026-04-19T09:56:55.821Z</time></trkpt><trkpt lat="43.1745147" lon="11.4638115"><ele>148.5</ele><time>2026-04-19T09:56:56.821Z</time></trkpt><trkpt lat="43.174282" lon="11.4639035"><ele>148.0</ele><time>2026-04-19T09:56:57.82Z</time></trkpt><trkpt lat="43.1740652" lon="11.4639935"><ele>148.66666666666669</ele><time>2026-04-19T09:56:58.821Z</time></trkpt><trkpt lat="43.1738503" lon="11.4640796"><ele>149.33333333333334</ele><time>2026-04-19T09:56:59.821Z</time></trkpt><trkpt lat="43.1736437" lon="11.4641561"><ele>150.0</ele><time>2026-04-19T09:57:00.821Z</time></trkpt><trkpt lat="43.1734495" lon="11.4642317"><ele>150.0</ele><time>2026-04-19T09:57:01.821Z</time></trkpt><trkpt lat="43.1732635" lon="11.4643083"><ele>150.0</ele><time>2026-04-19T09:57:02.821Z</time></trkpt><trkpt lat="43.1730863" lon="11.4643821"><ele>150.0</ele><time>2026-04-19T09:57:03.822Z</time></trkpt><trkpt lat="43.1729124" lon="11.464452"><ele>150.0</ele><time>2026-04-19T09:57:04.821Z</time></trkpt><trkpt lat="43.1727423" lon="11.4645195"><ele>150.0</ele><time>2026-04-19T09:57:05.822Z</time></trkpt><trkpt lat="43.1725759" lon="11.4645837"><ele>150.0</ele><time>2026-04-19T09:57:06.822Z</time></trkpt><trkpt lat="43.1724081" lon="11.464647"><ele>149.33333333333334</ele><time>2026-04-19T09:57:07.822Z</time></trkpt><trkpt lat="43.1722428" lon="11.4647119"><ele>148.66666666666669</ele><time>2026-04-19T09:57:08.822Z</time></trkpt><trkpt lat="43.172078" lon="11.4647752"><ele>148.0</ele><time>2026-04-19T09:57:09.822Z</time></trkpt><trkpt lat="43.1719377" lon="11.4648359"><ele>148.0</ele><time>2026-04-19T09:57:10.821Z</time></trkpt><trkpt lat="43.1718286" lon="11.4648864"><ele>148.0</ele><time>2026-04-19T09:57:11.821Z</time></trkpt><trkpt lat="43.1717562" lon="11.464902"><ele>148.0</ele><time>2026-04-19T09:57:12.822Z</time></trkpt><trkpt lat="43.171675" lon="11.4648398"><ele>148.0</ele><time>2026-04-19T09:57:14.821Z</time></trkpt><trkpt lat="43.1716455" lon="11.4646565"><ele>148.0</ele><time>2026-04-19T09:57:16.822Z</time></trkpt><trkpt lat="43.1716382" lon="11.4645358"><ele>148.0</ele><time>2026-04-19T09:57:17.822Z</time></trkpt><trkpt lat="43.1716161" lon="11.4644165"><ele>148.0</ele><time>2026-04-19T09:57:18.82Z</time></trkpt><trkpt lat="43.1715811" lon="11.4642934"><ele>148.0</ele><time>2026-04-19T09:57:19.822Z</time></trkpt><trkpt lat="43.1715299" lon="11.4641552"><ele>148.0</ele><time>2026-04-19T09:57:20.822Z</time></trkpt><trkpt lat="43.1714746" lon="11.4640276"><ele>148.0</ele><time>2026-04-19T09:57:21.821Z</time></trkpt><trkpt lat="43.1714286" lon="11.4639078"><ele>148.0</ele><time>2026-04-19T09:57:22.822Z</time></trkpt><trkpt lat="43.1713722" lon="11.4637841"><ele>148.0</ele><time>2026-04-19T09:57:23.822Z</time></trkpt><trkpt lat="43.1713097" lon="11.463647"><ele>148.0</ele><time>2026-04-19T09:57:24.82Z</time></trkpt><trkpt lat="43.1712484" lon="11.4635046"><ele>148.0</ele><time>2026-04-19T09:57:25.822Z</time></trkpt><trkpt lat="43.1711834" lon="11.4633748"><ele>148.0</ele><time>2026-04-19T09:57:26.822Z</time></trkpt><trkpt lat="43.171124" lon="11.4632572"><ele>148.0</ele><time>2026-04-19T09:57:27.822Z</time></trkpt><trkpt lat="43.1710618" lon="11.4631467"><ele>148.0</ele><time>2026-04-19T09:57:28.822Z</time></trkpt><trkpt lat="43.1710025" lon="11.4630288"><ele>148.0</ele><time>2026-04-19T09:57:29.821Z</time></trkpt><trkpt lat="43.1709327" lon="11.462912"><ele>148.0</ele><time>2026-04-19T09:57:30.822Z</time></trkpt><trkpt lat="43.1708713" lon="11.4627928"><ele>147.75</ele><time>2026-04-19T09:57:31.821Z</time></trkpt><trkpt lat="43.1708053" lon="11.4626747"><ele>147.5</ele><time>2026-04-19T09:57:32.821Z</time></trkpt><trkpt lat="43.1707416" lon="11.4625416"><ele>147.25</ele><time>2026-04-19T09:57:33.821Z</time></trkpt><trkpt lat="43.170681" lon="11.4624011"><ele>147.0</ele><time>2026-04-19T09:57:34.822Z</time></trkpt><trkpt lat="43.1706126" lon="11.4622511"><ele>146.5</ele><time>2026-04-19T09:57:35.822Z</time></trkpt><trkpt lat="43.1705434" lon="11.4620969"><ele>146.0</ele><time>2026-04-19T09:57:36.822Z</time></trkpt><trkpt lat="43.1704705" lon="11.4619376"><ele>145.5</ele><time>2026-04-19T09:57:37.822Z</time></trkpt><trkpt lat="43.1703909" lon="11.4617693"><ele>145.0</ele><time>2026-04-19T09:57:38.821Z</time></trkpt><trkpt lat="43.1703075" lon="11.4615994"><ele>145.0</ele><time>2026-04-19T09:57:39.822Z</time></trkpt><trkpt lat="43.1702227" lon="11.4614273"><ele>145.0</ele><time>2026-04-19T09:57:40.822Z</time></trkpt><trkpt lat="43.17014" lon="11.4612548"><ele>145.0</ele><time>2026-04-19T09:57:41.821Z</time></trkpt><trkpt lat="43.1700639" lon="11.4610926"><ele>145.0</ele><time>2026-04-19T09:57:42.821Z</time></trkpt><trkpt lat="43.1699804" lon="11.4609239"><ele>145.0</ele><time>2026-04-19T09:57:43.821Z</time></trkpt><trkpt lat="43.1698978" lon="11.4607633"><ele>145.0</ele><time>2026-04-19T09:57:44.821Z</time></trkpt><trkpt lat="43.1698125" lon="11.4606021"><ele>145.0</ele><time>2026-04-19T09:57:45.822Z</time></trkpt><trkpt lat="43.1697351" lon="11.4604401"><ele>145.0</ele><time>2026-04-19T09:57:46.822Z</time></trkpt><trkpt lat="43.1696594" lon="11.4602769"><ele>145.5</ele><time>2026-04-19T09:57:47.821Z</time></trkpt><trkpt lat="43.1695778" lon="11.4601117"><ele>146.0</ele><time>2026-04-19T09:57:48.822Z</time></trkpt><trkpt lat="43.1694956" lon="11.4599402"><ele>146.5</ele><time>2026-04-19T09:57:49.821Z</time></trkpt><trkpt lat="43.1694187" lon="11.4597773"><ele>147.0</ele><time>2026-04-19T09:57:50.822Z</time></trkpt><trkpt lat="43.1693471" lon="11.459622"><ele>146.83333333333334</ele><time>2026-04-19T09:57:51.821Z</time></trkpt><trkpt lat="43.1692815" lon="11.4594882"><ele>146.66666666666666</ele><time>2026-04-19T09:57:52.822Z</time></trkpt><trkpt lat="43.1692243" lon="11.4593809"><ele>146.5</ele><time>2026-04-19T09:57:53.821Z</time></trkpt><trkpt lat="43.1691766" lon="11.4592968"><ele>146.33333333333331</ele><time>2026-04-19T09:57:55.821Z</time></trkpt><trkpt lat="43.1691098" lon="11.45927"><ele>146.16666666666666</ele><time>2026-04-19T09:58:29.822Z</time></trkpt><trkpt lat="43.1690427" lon="11.4592645"><ele>146.0</ele><time>2026-04-19T09:58:38.82Z</time></trkpt><trkpt lat="43.1689833" lon="11.4593092"><ele>146.25</ele><time>2026-04-19T09:58:40.822Z</time></trkpt><trkpt lat="43.1688876" lon="11.4594848"><ele>146.5</ele><time>2026-04-19T09:58:42.821Z</time></trkpt><trkpt lat="43.1688243" lon="11.4595886"><ele>146.75</ele><time>2026-04-19T09:58:43.821Z</time></trkpt><trkpt lat="43.168759" lon="11.4596946"><ele>147.0</ele><time>2026-04-19T09:58:44.822Z</time></trkpt><trkpt lat="43.1686931" lon="11.4598004"><ele>147.0</ele><time>2026-04-19T09:58:45.822Z</time></trkpt><trkpt lat="43.1686358" lon="11.4598904"><ele>147.0</ele><time>2026-04-19T09:58:46.821Z</time></trkpt><trkpt lat="43.1685854" lon="11.4599748"><ele>147.0</ele><time>2026-04-19T09:58:47.821Z</time></trkpt><trkpt lat="43.1685361" lon="11.4600485"><ele>147.0</ele><time>2026-04-19T09:58:48.822Z</time></trkpt><trkpt lat="43.1684878" lon="11.4601219"><ele>147.0</ele><time>2026-04-19T09:58:49.821Z</time></trkpt><trkpt lat="43.1684398" lon="11.4601972"><ele>147.0</ele><time>2026-04-19T09:58:50.821Z</time></trkpt><trkpt lat="43.1683928" lon="11.4602825"><ele>147.0</ele><time>2026-04-19T09:58:51.821Z</time></trkpt><trkpt lat="43.1683454" lon="11.4603661"><ele>147.0</ele><time>2026-04-19T09:58:52.822Z</time></trkpt><trkpt lat="43.1682918" lon="11.4604476"><ele>147.0</ele><time>2026-04-19T09:58:53.821Z</time></trkpt><trkpt lat="43.1682336" lon="11.4605265"><ele>147.0</ele><time>2026-04-19T09:58:54.821Z</time></trkpt><trkpt lat="43.1681696" lon="11.4606051"><ele>147.0</ele><time>2026-04-19T09:58:55.822Z</time></trkpt><trkpt lat="43.1680967" lon="11.4606847"><ele>147.0</ele><time>2026-04-19T09:58:56.821Z</time></trkpt><trkpt lat="43.1680137" lon="11.4607699"><ele>146.66666666666666</ele><time>2026-04-19T09:58:57.821Z</time></trkpt><trkpt lat="43.1679275" lon="11.4608552"><ele>146.33333333333334</ele><time>2026-04-19T09:58:58.821Z</time></trkpt><trkpt lat="43.1678458" lon="11.460938"><ele>146.0</ele><time>2026-04-19T09:58:59.822Z</time></trkpt><trkpt lat="43.1677788" lon="11.4610062"><ele>145.66666666666669</ele><time>2026-04-19T09:59:00.821Z</time></trkpt><trkpt lat="43.1677181" lon="11.4610669"><ele>145.33333333333334</ele><time>2026-04-19T09:59:01.822Z</time></trkpt><trkpt lat="43.1676619" lon="11.4611196"><ele>145.0</ele><time>2026-04-19T09:59:02.821Z</time></trkpt><trkpt lat="43.1675497" lon="11.4611683"><ele>145.0</ele><time>2026-04-19T09:59:04.822Z</time></trkpt><trkpt lat="43.1674314" lon="11.4611648"><ele>145.0</ele><time>2026-04-19T09:59:06.82Z</time></trkpt><trkpt lat="43.1673555" lon="11.4611634"><ele>145.0</ele><time>2026-04-19T09:59:07.821Z</time></trkpt><trkpt lat="43.1672708" lon="11.4611598"><ele>145.0</ele><time>2026-04-19T09:59:08.821Z</time></trkpt><trkpt lat="43.1671821" lon="11.4611558"><ele>145.0</ele><time>2026-04-19T09:59:09.822Z</time></trkpt><trkpt lat="43.1671046" lon="11.4611506"><ele>145.0</ele><time>2026-04-19T09:59:10.821Z</time></trkpt><trkpt lat="43.1670305" lon="11.4611484"><ele>145.0</ele><time>2026-04-19T09:59:11.822Z</time></trkpt><trkpt lat="43.1669591" lon="11.4611668"><ele>145.0</ele><time>2026-04-19T09:59:12.821Z</time></trkpt><trkpt lat="43.1668947" lon="11.4612062"><ele>145.0</ele><time>2026-04-19T09:59:13.821Z</time></trkpt><trkpt lat="43.1668335" lon="11.4612605"><ele>145.0</ele><time>2026-04-19T09:59:14.822Z</time></trkpt><trkpt lat="43.1667671" lon="11.4613273"><ele>145.0</ele><time>2026-04-19T09:59:15.822Z</time></trkpt><trkpt lat="43.1666919" lon="11.4613985"><ele>145.0</ele><time>2026-04-19T09:59:16.822Z</time></trkpt><trkpt lat="43.1666174" lon="11.4614829"><ele>145.0</ele><time>2026-04-19T09:59:17.822Z</time></trkpt><trkpt lat="43.1665392" lon="11.4615662"><ele>145.0</ele><time>2026-04-19T09:59:18.822Z</time></trkpt><trkpt lat="43.1664677" lon="11.4616467"><ele>145.0</ele><time>2026-04-19T09:59:19.822Z</time></trkpt><trkpt lat="43.1664023" lon="11.4617172"><ele>145.0</ele><time>2026-04-19T09:59:20.821Z</time></trkpt><trkpt lat="43.1663408" lon="11.4617831"><ele>145.0</ele><time>2026-04-19T09:59:21.822Z</time></trkpt><trkpt lat="43.166265" lon="11.4618944"><ele>145.0</ele><time>2026-04-19T09:59:23.821Z</time></trkpt><trkpt lat="43.1662264" lon="11.4620157"><ele>145.0</ele><time>2026-04-19T09:59:25.821Z</time></trkpt><trkpt lat="43.1661976" lon="11.4621509"><ele>145.0</ele><time>2026-04-19T09:59:27.822Z</time></trkpt><trkpt lat="43.16618" lon="11.4622927"><ele>145.0</ele><time>2026-04-19T09:59:29.822Z</time></trkpt><trkpt lat="43.1661667" lon="11.4623816"><ele>145.0</ele><time>2026-04-19T09:59:31.822Z</time></trkpt><trkpt lat="43.1662197" lon="11.462456"><ele>145.0</ele><time>2026-04-19T09:59:35.82Z</time></trkpt><trkpt lat="43.1663146" lon="11.4624755"><ele>145.25</ele><time>2026-04-19T09:59:37.82Z</time></trkpt><trkpt lat="43.1664189" lon="11.4625139"><ele>145.5</ele><time>2026-04-19T09:59:39.821Z</time></trkpt><trkpt lat="43.1665071" lon="11.4625996"><ele>145.75</ele><time>2026-04-19T09:59:41.82Z</time></trkpt><trkpt lat="43.1665838" lon="11.4627131"><ele>146.0</ele><time>2026-04-19T09:59:43.82Z</time></trkpt><trkpt lat="43.1666663" lon="11.4628379"><ele>146.0</ele><time>2026-04-19T09:59:45.82Z</time></trkpt><trkpt lat="43.166704" lon="11.4629082"><ele>146.0</ele><time>2026-04-19T09:59:46.821Z</time></trkpt><trkpt lat="43.1667561" lon="11.463004"><ele>146.0</ele><time>2026-04-19T09:59:47.821Z</time></trkpt><trkpt lat="43.1668121" lon="11.4631118"><ele>146.0</ele><time>2026-04-19T09:59:48.82Z</time></trkpt><trkpt lat="43.1668575" lon="11.4632006"><ele>146.0</ele><time>2026-04-19T09:59:49.82Z</time></trkpt><trkpt lat="43.1669218" lon="11.4633137"><ele>146.0</ele><time>2026-04-19T09:59:51.82Z</time></trkpt><trkpt lat="43.166928" lon="11.4634125"><ele>146.0</ele><time>2026-04-19T09:59:59.821Z</time></trkpt><trkpt lat="43.1668209" lon="11.463484"><ele>146.0</ele><time>2026-04-19T10:00:01.821Z</time></trkpt><trkpt lat="43.1667393" lon="11.4635273"><ele>146.0</ele><time>2026-04-19T10:00:02.82Z</time></trkpt><trkpt lat="43.1666357" lon="11.4636012"><ele>146.0</ele><time>2026-04-19T10:00:03.821Z</time></trkpt><trkpt lat="43.1665325" lon="11.4636989"><ele>146.0</ele><time>2026-04-19T10:00:04.82Z</time></trkpt><trkpt lat="43.1664368" lon="11.4638127"><ele>146.0</ele><time>2026-04-19T10:00:05.82Z</time></trkpt><trkpt lat="43.1663481" lon="11.4639408"><ele>146.0</ele><time>2026-04-19T10:00:06.82Z</time></trkpt><trkpt lat="43.1662746" lon="11.4640669"><ele>146.0</ele><time>2026-04-19T10:00:07.82Z</time></trkpt><trkpt lat="43.1662264" lon="11.4641841"><ele>146.0</ele><time>2026-04-19T10:00:08.821Z</time></trkpt><trkpt lat="43.1661686" lon="11.4642966"><ele>146.0</ele><time>2026-04-19T10:00:09.82Z</time></trkpt><trkpt lat="43.1661052" lon="11.4643797"><ele>146.0</ele><time>2026-04-19T10:00:10.82Z</time></trkpt><trkpt lat="43.166038" lon="11.4644385"><ele>146.0</ele><time>2026-04-19T10:00:11.819Z</time></trkpt><trkpt lat="43.165976" lon="11.4644577"><ele>146.0</ele><time>2026-04-19T10:00:12.82Z</time></trkpt><trkpt lat="43.1658787" lon="11.4644333"><ele>146.0</ele><time>2026-04-19T10:00:14.821Z</time></trkpt><trkpt lat="43.1658099" lon="11.4643996"><ele>146.0</ele><time>2026-04-19T10:00:16.82Z</time></trkpt><trkpt lat="43.1657439" lon="11.4643441"><ele>146.0</ele><time>2026-04-19T10:00:32.82Z</time></trkpt><trkpt lat="43.1658022" lon="11.4643112"><ele>146.0</ele><time>2026-04-19T10:00:36.821Z</time></trkpt><trkpt lat="43.165842" lon="11.4644127"><ele>146.0</ele><time>2026-04-19T10:00:38.82Z</time></trkpt><trkpt lat="43.1659373" lon="11.4644671"><ele>146.0</ele><time>2026-04-19T10:00:40.82Z</time></trkpt><trkpt lat="43.1660511" lon="11.4644424"><ele>146.0</ele><time>2026-04-19T10:00:42.819Z</time></trkpt><trkpt lat="43.1661206" lon="11.4643704"><ele>146.0</ele><time>2026-04-19T10:00:43.82Z</time></trkpt><trkpt lat="43.1661883" lon="11.4642645"><ele>146.0</ele><time>2026-04-19T10:00:44.82Z</time></trkpt><trkpt lat="43.1662416" lon="11.4641558"><ele>146.0</ele><time>2026-04-19T10:00:45.821Z</time></trkpt><trkpt lat="43.1662931" lon="11.4640579"><ele>146.0</ele><time>2026-04-19T10:00:46.821Z</time></trkpt><trkpt lat="43.1663407" lon="11.4639719"><ele>146.0</ele><time>2026-04-19T10:00:47.82Z</time></trkpt><trkpt lat="43.1663858" lon="11.463893"><ele>146.0</ele><time>2026-04-19T10:00:48.821Z</time></trkpt><trkpt lat="43.1664467" lon="11.4638128"><ele>146.0</ele><time>2026-04-19T10:00:49.82Z</time></trkpt><trkpt lat="43.1665125" lon="11.4637384"><ele>146.16666666666666</ele><time>2026-04-19T10:00:50.821Z</time></trkpt><trkpt lat="43.1665872" lon="11.4636731"><ele>146.33333333333331</ele><time>2026-04-19T10:00:51.821Z</time></trkpt><trkpt lat="43.1666654" lon="11.4636149"><ele>146.5</ele><time>2026-04-19T10:00:52.82Z</time></trkpt><trkpt lat="43.1667376" lon="11.4635512"><ele>146.66666666666666</ele><time>2026-04-19T10:00:53.82Z</time></trkpt><trkpt lat="43.166802" lon="11.4634967"><ele>146.83333333333334</ele><time>2026-04-19T10:00:54.82Z</time></trkpt><trkpt lat="43.1668624" lon="11.4634506"><ele>147.0</ele><time>2026-04-19T10:00:55.819Z</time></trkpt><trkpt lat="43.1669258" lon="11.4634322"><ele>147.0</ele><time>2026-04-19T10:00:56.819Z</time></trkpt><trkpt lat="43.1669967" lon="11.4634504"><ele>147.0</ele><time>2026-04-19T10:00:57.82Z</time></trkpt><trkpt lat="43.1670659" lon="11.4635017"><ele>147.0</ele><time>2026-04-19T10:00:58.819Z</time></trkpt><trkpt lat="43.1671429" lon="11.4635898"><ele>147.0</ele><time>2026-04-19T10:00:59.821Z</time></trkpt><trkpt lat="43.1672451" lon="11.4636823"><ele>147.0</ele><time>2026-04-19T10:01:00.82Z</time></trkpt><trkpt lat="43.167369" lon="11.4637656"><ele>147.25</ele><time>2026-04-19T10:01:01.819Z</time></trkpt><trkpt lat="43.1675059" lon="11.4638416"><ele>147.5</ele><time>2026-04-19T10:01:02.82Z</time></trkpt><trkpt lat="43.1676374" lon="11.4639173"><ele>147.75</ele><time>2026-04-19T10:01:03.821Z</time></trkpt><trkpt lat="43.1677672" lon="11.463996"><ele>148.0</ele><time>2026-04-19T10:01:04.82Z</time></trkpt><trkpt lat="43.167881" lon="11.464062"><ele>148.0</ele><time>2026-04-19T10:01:05.821Z</time></trkpt><trkpt lat="43.1679765" lon="11.4641147"><ele>148.0</ele><time>2026-04-19T10:01:06.82Z</time></trkpt><trkpt lat="43.1680503" lon="11.4641599"><ele>148.0</ele><time>2026-04-19T10:01:07.82Z</time></trkpt><trkpt lat="43.1681369" lon="11.4642303"><ele>148.0</ele><time>2026-04-19T10:01:09.821Z</time></trkpt><trkpt lat="43.1681512" lon="11.4643396"><ele>148.0</ele><time>2026-04-19T10:01:11.819Z</time></trkpt><trkpt lat="43.1681335" lon="11.4644225"><ele>148.0</ele><time>2026-04-19T10:01:12.82Z</time></trkpt><trkpt lat="43.1680933" lon="11.4645131"><ele>148.0</ele><time>2026-04-19T10:01:13.82Z</time></trkpt><trkpt lat="43.1680528" lon="11.4646106"><ele>148.0</ele><time>2026-04-19T10:01:14.821Z</time></trkpt><trkpt lat="43.1680133" lon="11.4647094"><ele>148.0</ele><time>2026-04-19T10:01:15.819Z</time></trkpt><trkpt lat="43.1679604" lon="11.4648164"><ele>148.0</ele><time>2026-04-19T10:01:16.82Z</time></trkpt><trkpt lat="43.1679049" lon="11.4648959"><ele>148.0</ele><time>2026-04-19T10:01:17.821Z</time></trkpt><trkpt lat="43.1678391" lon="11.4649495"><ele>148.0</ele><time>2026-04-19T10:01:18.821Z</time></trkpt><trkpt lat="43.1677593" lon="11.4649947"><ele>148.0</ele><time>2026-04-19T10:01:19.821Z</time></trkpt><trkpt lat="43.1676699" lon="11.4650268"><ele>148.0</ele><time>2026-04-19T10:01:20.821Z</time></trkpt><trkpt lat="43.1675708" lon="11.465035"><ele>148.0</ele><time>2026-04-19T10:01:21.82Z</time></trkpt><trkpt lat="43.1674482" lon="11.4650243"><ele>148.0</ele><time>2026-04-19T10:01:22.819Z</time></trkpt><trkpt lat="43.1672946" lon="11.465023"><ele>148.0</ele><time>2026-04-19T10:01:23.821Z</time></trkpt><trkpt lat="43.167153" lon="11.4650399"><ele>148.0</ele><time>2026-04-19T10:01:24.82Z</time></trkpt><trkpt lat="43.1670069" lon="11.4650654"><ele>148.0</ele><time>2026-04-19T10:01:25.82Z</time></trkpt><trkpt lat="43.1668698" lon="11.4651396"><ele>148.0</ele><time>2026-04-19T10:01:26.82Z</time></trkpt><trkpt lat="43.1667354" lon="11.4652259"><ele>148.0</ele><time>2026-04-19T10:01:27.82Z</time></trkpt><trkpt lat="43.1666005" lon="11.4653319"><ele>148.0</ele><time>2026-04-19T10:01:28.82Z</time></trkpt><trkpt lat="43.1664684" lon="11.4654543"><ele>148.0</ele><time>2026-04-19T10:01:29.82Z</time></trkpt><trkpt lat="43.1663316" lon="11.4655846"><ele>146.66666666666669</ele><time>2026-04-19T10:01:30.821Z</time></trkpt><trkpt lat="43.1662205" lon="11.4657638"><ele>145.33333333333334</ele><time>2026-04-19T10:01:31.82Z</time></trkpt><trkpt lat="43.166104" lon="11.4659032"><ele>144.0</ele><time>2026-04-19T10:01:32.821Z</time></trkpt><trkpt lat="43.1659949" lon="11.4660439"><ele>144.0</ele><time>2026-04-19T10:01:33.821Z</time></trkpt><trkpt lat="43.1658943" lon="11.4661751"><ele>144.0</ele><time>2026-04-19T10:01:34.82Z</time></trkpt><trkpt lat="43.1657855" lon="11.4663001"><ele>144.0</ele><time>2026-04-19T10:01:35.82Z</time></trkpt><trkpt lat="43.1656638" lon="11.4663876"><ele>144.0</ele><time>2026-04-19T10:01:36.82Z</time></trkpt><trkpt lat="43.1655391" lon="11.4664541"><ele>144.8</ele><time>2026-04-19T10:01:37.82Z</time></trkpt><trkpt lat="43.1654314" lon="11.4665101"><ele>145.60000000000002</ele><time>2026-04-19T10:01:38.821Z</time></trkpt><trkpt lat="43.1653327" lon="11.4665631"><ele>146.4</ele><time>2026-04-19T10:01:39.82Z</time></trkpt><trkpt lat="43.1652426" lon="11.466634"><ele>147.20000000000002</ele><time>2026-04-19T10:01:41.821Z</time></trkpt><trkpt lat="43.16517" lon="11.4666864"><ele>148.0</ele><time>2026-04-19T10:01:56.821Z</time></trkpt><trkpt lat="43.165111" lon="11.4667341"><ele>148.0</ele><time>2026-04-19T10:01:57.821Z</time></trkpt><trkpt lat="43.1650501" lon="11.4667716"><ele>148.0</ele><time>2026-04-19T10:01:58.82Z</time></trkpt><trkpt lat="43.1649719" lon="11.4668228"><ele>148.0</ele><time>2026-04-19T10:01:59.82Z</time></trkpt><trkpt lat="43.1648829" lon="11.4668888"><ele>148.0</ele><time>2026-04-19T10:02:00.82Z</time></trkpt><trkpt lat="43.1647813" lon="11.4669661"><ele>148.0</ele><time>2026-04-19T10:02:01.82Z</time></trkpt><trkpt lat="43.1646671" lon="11.467048"><ele>147.5</ele><time>2026-04-19T10:02:02.819Z</time></trkpt><trkpt lat="43.1645421" lon="11.4671364"><ele>147.0</ele><time>2026-04-19T10:02:03.82Z</time></trkpt><trkpt lat="43.1644086" lon="11.4672295"><ele>146.5</ele><time>2026-04-19T10:02:04.82Z</time></trkpt><trkpt lat="43.1642866" lon="11.4673202"><ele>146.0</ele><time>2026-04-19T10:02:05.82Z</time></trkpt><trkpt lat="43.1641774" lon="11.4673991"><ele>146.0</ele><time>2026-04-19T10:02:06.821Z</time></trkpt><trkpt lat="43.1640861" lon="11.467466"><ele>146.0</ele><time>2026-04-19T10:02:07.821Z</time></trkpt><trkpt lat="43.1640027" lon="11.4675254"><ele>146.0</ele><time>2026-04-19T10:02:08.82Z</time></trkpt><trkpt lat="43.1639305" lon="11.4675786"><ele>146.0</ele><time>2026-04-19T10:02:09.819Z</time></trkpt><trkpt lat="43.1638754" lon="11.4676326"><ele>146.0</ele><time>2026-04-19T10:02:10.82Z</time></trkpt><trkpt lat="43.1638425" lon="11.4677501"><ele>146.0</ele><time>2026-04-19T10:02:12.82Z</time></trkpt><trkpt lat="43.1638803" lon="11.4678644"><ele>146.0</ele><time>2026-04-19T10:02:14.821Z</time></trkpt><trkpt lat="43.1639552" lon="11.4680137"><ele>146.0</ele><time>2026-04-19T10:02:16.821Z</time></trkpt><trkpt lat="43.1639838" lon="11.4681082"><ele>146.0</ele><time>2026-04-19T10:02:17.82Z</time></trkpt><trkpt lat="43.1640187" lon="11.4682128"><ele>146.0</ele><time>2026-04-19T10:02:18.82Z</time></trkpt><trkpt lat="43.1640571" lon="11.4683161"><ele>146.0</ele><time>2026-04-19T10:02:19.82Z</time></trkpt><trkpt lat="43.1640875" lon="11.4684282"><ele>146.5</ele><time>2026-04-19T10:02:20.82Z</time></trkpt><trkpt lat="43.1641115" lon="11.4685207"><ele>147.0</ele><time>2026-04-19T10:02:21.819Z</time></trkpt><trkpt lat="43.1641286" lon="11.468675"><ele>147.5</ele><time>2026-04-19T10:02:23.821Z</time></trkpt><trkpt lat="43.1640982" lon="11.4687773"><ele>148.0</ele><time>2026-04-19T10:02:24.821Z</time></trkpt><trkpt lat="43.1640612" lon="11.468853"><ele>148.5</ele><time>2026-04-19T10:02:25.82Z</time></trkpt><trkpt lat="43.1640112" lon="11.4689268"><ele>149.0</ele><time>2026-04-19T10:02:26.82Z</time></trkpt><trkpt lat="43.1639549" lon="11.4689868"><ele>149.8</ele><time>2026-04-19T10:02:27.82Z</time></trkpt><trkpt lat="43.1638836" lon="11.4690179"><ele>150.60000000000002</ele><time>2026-04-19T10:02:28.82Z</time></trkpt><trkpt lat="43.163805" lon="11.4690442"><ele>151.4</ele><time>2026-04-19T10:02:29.819Z</time></trkpt><trkpt lat="43.1637129" lon="11.4690717"><ele>152.20000000000002</ele><time>2026-04-19T10:02:30.82Z</time></trkpt><trkpt lat="43.1636059" lon="11.4690997"><ele>153.0</ele><time>2026-04-19T10:02:31.82Z</time></trkpt><trkpt lat="43.1635048" lon="11.4691356"><ele>153.0</ele><time>2026-04-19T10:02:32.82Z</time></trkpt><trkpt lat="43.1633999" lon="11.4691745"><ele>153.0</ele><time>2026-04-19T10:02:33.819Z</time></trkpt><trkpt lat="43.1632927" lon="11.4692262"><ele>153.0</ele><time>2026-04-19T10:02:34.819Z</time></trkpt><trkpt lat="43.1631941" lon="11.4692859"><ele>153.0</ele><time>2026-04-19T10:02:35.819Z</time></trkpt><trkpt lat="43.1631151" lon="11.4693572"><ele>153.0</ele><time>2026-04-19T10:02:36.818Z</time></trkpt><trkpt lat="43.1630269" lon="11.4694375"><ele>152.8</ele><time>2026-04-19T10:02:37.819Z</time></trkpt><trkpt lat="43.1629417" lon="11.4695297"><ele>152.60000000000002</ele><time>2026-04-19T10:02:38.819Z</time></trkpt><trkpt lat="43.1628663" lon="11.4696249"><ele>152.39999999999998</ele><time>2026-04-19T10:02:39.819Z</time></trkpt><trkpt lat="43.1627955" lon="11.469721"><ele>152.2</ele><time>2026-04-19T10:02:40.82Z</time></trkpt><trkpt lat="43.1627462" lon="11.4698305"><ele>152.0</ele><time>2026-04-19T10:02:41.819Z</time></trkpt><trkpt lat="43.1627119" lon="11.4699551"><ele>153.25</ele><time>2026-04-19T10:02:42.819Z</time></trkpt><trkpt lat="43.1626809" lon="11.4700872"><ele>154.5</ele><time>2026-04-19T10:02:43.82Z</time></trkpt><trkpt lat="43.1626646" lon="11.4702471"><ele>155.75</ele><time>2026-04-19T10:02:44.819Z</time></trkpt><trkpt lat="43.1626431" lon="11.4704111"><ele>157.0</ele><time>2026-04-19T10:02:45.82Z</time></trkpt><trkpt lat="43.1626354" lon="11.4705942"><ele>158.25</ele><time>2026-04-19T10:02:46.82Z</time></trkpt><trkpt lat="43.1626326" lon="11.4707648"><ele>159.5</ele><time>2026-04-19T10:02:47.819Z</time></trkpt><trkpt lat="43.1626214" lon="11.4709409"><ele>160.75</ele><time>2026-04-19T10:02:48.819Z</time></trkpt><trkpt lat="43.1626155" lon="11.4711088"><ele>162.0</ele><time>2026-04-19T10:02:49.819Z</time></trkpt><trkpt lat="43.1626051" lon="11.4712628"><ele>163.0</ele><time>2026-04-19T10:02:50.819Z</time></trkpt><trkpt lat="43.162594" lon="11.4714071"><ele>164.0</ele><time>2026-04-19T10:02:51.82Z</time></trkpt><trkpt lat="43.1625692" lon="11.4715538"><ele>165.0</ele><time>2026-04-19T10:02:52.82Z</time></trkpt><trkpt lat="43.162528" lon="11.4716899"><ele>166.0</ele><time>2026-04-19T10:02:53.82Z</time></trkpt><trkpt lat="43.1624669" lon="11.4718246"><ele>167.0</ele><time>2026-04-19T10:02:54.82Z</time></trkpt><trkpt lat="43.162404" lon="11.4719621"><ele>168.25</ele><time>2026-04-19T10:02:55.819Z</time></trkpt><trkpt lat="43.162323" lon="11.4721165"><ele>169.5</ele><time>2026-04-19T10:02:56.819Z</time></trkpt><trkpt lat="43.162243" lon="11.4722831"><ele>170.75</ele><time>2026-04-19T10:02:57.82Z</time></trkpt><trkpt lat="43.1621607" lon="11.4724476"><ele>172.0</ele><time>2026-04-19T10:02:58.82Z</time></trkpt><trkpt lat="43.1620856" lon="11.4725981"><ele>172.0</ele><time>2026-04-19T10:02:59.819Z</time></trkpt><trkpt lat="43.1620122" lon="11.4727404"><ele>172.0</ele><time>2026-04-19T10:03:00.819Z</time></trkpt><trkpt lat="43.1619476" lon="11.4728601"><ele>172.0</ele><time>2026-04-19T10:03:01.818Z</time></trkpt><trkpt lat="43.1618966" lon="11.4729572"><ele>172.0</ele><time>2026-04-19T10:03:02.818Z</time></trkpt><trkpt lat="43.1618628" lon="11.4730329"><ele>172.0</ele><time>2026-04-19T10:03:03.819Z</time></trkpt><trkpt lat="43.161827" lon="11.4731486"><ele>173.0</ele><time>2026-04-19T10:03:05.82Z</time></trkpt><trkpt lat="43.1618111" lon="11.4732596"><ele>174.0</ele><time>2026-04-19T10:03:15.819Z</time></trkpt><trkpt lat="43.1617983" lon="11.473386"><ele>175.0</ele><time>2026-04-19T10:03:17.819Z</time></trkpt><trkpt lat="43.161803" lon="11.4734733"><ele>176.0</ele><time>2026-04-19T10:03:18.819Z</time></trkpt><trkpt lat="43.1618122" lon="11.4735847"><ele>177.0</ele><time>2026-04-19T10:03:19.819Z</time></trkpt><trkpt lat="43.161837" lon="11.4737074"><ele>178.0</ele><time>2026-04-19T10:03:20.818Z</time></trkpt><trkpt lat="43.161865" lon="11.4738203"><ele>178.83333333333334</ele><time>2026-04-19T10:03:21.819Z</time></trkpt><trkpt lat="43.1618876" lon="11.4739253"><ele>179.66666666666669</ele><time>2026-04-19T10:03:22.819Z</time></trkpt><trkpt lat="43.1618993" lon="11.4740279"><ele>180.5</ele><time>2026-04-19T10:03:23.818Z</time></trkpt><trkpt lat="43.1619027" lon="11.4741345"><ele>181.33333333333334</ele><time>2026-04-19T10:03:24.82Z</time></trkpt><trkpt lat="43.1618988" lon="11.4742674"><ele>182.16666666666666</ele><time>2026-04-19T10:03:25.819Z</time></trkpt><trkpt lat="43.1619125" lon="11.4743971"><ele>183.0</ele><time>2026-04-19T10:03:26.82Z</time></trkpt><trkpt lat="43.1619412" lon="11.4745196"><ele>182.4</ele><time>2026-04-19T10:03:27.82Z</time></trkpt><trkpt lat="43.1619866" lon="11.4746384"><ele>181.8</ele><time>2026-04-19T10:03:28.82Z</time></trkpt><trkpt lat="43.1620534" lon="11.4747396"><ele>181.2</ele><time>2026-04-19T10:03:29.82Z</time></trkpt><trkpt lat="43.1621213" lon="11.4748271"><ele>180.6</ele><time>2026-04-19T10:03:30.82Z</time></trkpt><trkpt lat="43.1622224" lon="11.4748855"><ele>180.0</ele><time>2026-04-19T10:03:31.82Z</time></trkpt><trkpt lat="43.1623454" lon="11.4749387"><ele>182.0</ele><time>2026-04-19T10:03:32.819Z</time></trkpt><trkpt lat="43.1624568" lon="11.4749601"><ele>184.0</ele><time>2026-04-19T10:03:33.819Z</time></trkpt><trkpt lat="43.1625516" lon="11.4749826"><ele>186.0</ele><time>2026-04-19T10:03:34.819Z</time></trkpt><trkpt lat="43.1626463" lon="11.4750149"><ele>188.0</ele><time>2026-04-19T10:03:35.818Z</time></trkpt><trkpt lat="43.1627521" lon="11.4750829"><ele>190.0</ele><time>2026-04-19T10:03:36.82Z</time></trkpt><trkpt lat="43.1628517" lon="11.4751573"><ele>190.0</ele><time>2026-04-19T10:03:37.819Z</time></trkpt><trkpt lat="43.1629537" lon="11.47522"><ele>190.0</ele><time>2026-04-19T10:03:38.819Z</time></trkpt><trkpt lat="43.1630566" lon="11.4752752"><ele>190.0</ele><time>2026-04-19T10:03:39.82Z</time></trkpt><trkpt lat="43.1631619" lon="11.4753291"><ele>190.0</ele><time>2026-04-19T10:03:40.82Z</time></trkpt><trkpt lat="43.1632644" lon="11.4753799"><ele>190.0</ele><time>2026-04-19T10:03:41.82Z</time></trkpt><trkpt lat="43.1633614" lon="11.4754274"><ele>189.4</ele><time>2026-04-19T10:03:42.82Z</time></trkpt><trkpt lat="43.1634552" lon="11.4754697"><ele>188.8</ele><time>2026-04-19T10:03:43.82Z</time></trkpt><trkpt lat="43.1635396" lon="11.475509"><ele>188.2</ele><time>2026-04-19T10:03:44.82Z</time></trkpt><trkpt lat="43.163629" lon="11.4755459"><ele>187.6</ele><time>2026-04-19T10:03:45.82Z</time></trkpt><trkpt lat="43.1637348" lon="11.4755878"><ele>187.0</ele><time>2026-04-19T10:03:46.819Z</time></trkpt><trkpt lat="43.1638381" lon="11.4756346"><ele>187.0</ele><time>2026-04-19T10:03:47.819Z</time></trkpt><trkpt lat="43.1639437" lon="11.4756994"><ele>187.0</ele><time>2026-04-19T10:03:48.819Z</time></trkpt><trkpt lat="43.1640462" lon="11.4757557"><ele>187.0</ele><time>2026-04-19T10:03:49.819Z</time></trkpt><trkpt lat="43.1641486" lon="11.4758121"><ele>187.0</ele><time>2026-04-19T10:03:50.819Z</time></trkpt><trkpt lat="43.1642491" lon="11.4758632"><ele>187.0</ele><time>2026-04-19T10:03:51.819Z</time></trkpt><trkpt lat="43.1643518" lon="11.4759252"><ele>187.0</ele><time>2026-04-19T10:03:52.819Z</time></trkpt><trkpt lat="43.1644647" lon="11.4760005"><ele>187.0</ele><time>2026-04-19T10:03:53.819Z</time></trkpt><trkpt lat="43.1645737" lon="11.4760563"><ele>187.0</ele><time>2026-04-19T10:03:54.818Z</time></trkpt><trkpt lat="43.1646878" lon="11.4761005"><ele>187.0</ele><time>2026-04-19T10:03:55.82Z</time></trkpt><trkpt lat="43.1648044" lon="11.4761449"><ele>187.0</ele><time>2026-04-19T10:03:56.82Z</time></trkpt><trkpt lat="43.1649249" lon="11.4762001"><ele>187.0</ele><time>2026-04-19T10:03:57.82Z</time></trkpt><trkpt lat="43.1650317" lon="11.4762402"><ele>187.0</ele><time>2026-04-19T10:03:58.82Z</time></trkpt><trkpt lat="43.1651302" lon="11.4762707"><ele>187.0</ele><time>2026-04-19T10:03:59.82Z</time></trkpt><trkpt lat="43.165218" lon="11.4762951"><ele>187.0</ele><time>2026-04-19T10:04:00.82Z</time></trkpt><trkpt lat="43.1653057" lon="11.4763258"><ele>186.39999999999998</ele><time>2026-04-19T10:04:01.819Z</time></trkpt><trkpt lat="43.1654032" lon="11.4763635"><ele>185.79999999999998</ele><time>2026-04-19T10:04:02.819Z</time></trkpt><trkpt lat="43.1655011" lon="11.4764125"><ele>185.2</ele><time>2026-04-19T10:04:03.819Z</time></trkpt><trkpt lat="43.1656025" lon="11.4764775"><ele>184.6</ele><time>2026-04-19T10:04:04.819Z</time></trkpt><trkpt lat="43.16571" lon="11.4765479"><ele>184.0</ele><time>2026-04-19T10:04:05.82Z</time></trkpt><trkpt lat="43.1658182" lon="11.4766174"><ele>185.75</ele><time>2026-04-19T10:04:06.819Z</time></trkpt><trkpt lat="43.1659169" lon="11.4766772"><ele>187.5</ele><time>2026-04-19T10:04:07.819Z</time></trkpt><trkpt lat="43.1660171" lon="11.4767404"><ele>189.25</ele><time>2026-04-19T10:04:08.819Z</time></trkpt><trkpt lat="43.1661184" lon="11.476809"><ele>191.0</ele><time>2026-04-19T10:04:09.82Z</time></trkpt><trkpt lat="43.1662507" lon="11.4769017"><ele>191.0</ele><time>2026-04-19T10:04:10.819Z</time></trkpt><trkpt lat="43.1663485" lon="11.4769676"><ele>191.0</ele><time>2026-04-19T10:04:11.819Z</time></trkpt><trkpt lat="43.1664423" lon="11.4770369"><ele>191.0</ele><time>2026-04-19T10:04:12.819Z</time></trkpt><trkpt lat="43.1665263" lon="11.4771142"><ele>191.0</ele><time>2026-04-19T10:04:13.819Z</time></trkpt><trkpt lat="43.1666079" lon="11.4771948"><ele>191.0</ele><time>2026-04-19T10:04:14.819Z</time></trkpt><trkpt lat="43.1666913" lon="11.4772805"><ele>191.4</ele><time>2026-04-19T10:04:15.819Z</time></trkpt><trkpt lat="43.166773" lon="11.4773669"><ele>191.8</ele><time>2026-04-19T10:04:16.819Z</time></trkpt><trkpt lat="43.1668508" lon="11.4774483"><ele>192.20000000000002</ele><time>2026-04-19T10:04:17.818Z</time></trkpt><trkpt lat="43.1669264" lon="11.4775207"><ele>192.60000000000002</ele><time>2026-04-19T10:04:18.819Z</time></trkpt><trkpt lat="43.1669974" lon="11.477593"><ele>193.0</ele><time>2026-04-19T10:04:19.819Z</time></trkpt><trkpt lat="43.1670691" lon="11.4776572"><ele>193.0</ele><time>2026-04-19T10:04:20.82Z</time></trkpt><trkpt lat="43.1671459" lon="11.47771"><ele>193.0</ele><time>2026-04-19T10:04:21.819Z</time></trkpt><trkpt lat="43.167224" lon="11.4777545"><ele>193.0</ele><time>2026-04-19T10:04:22.82Z</time></trkpt><trkpt lat="43.1673167" lon="11.4777876"><ele>193.0</ele><time>2026-04-19T10:04:23.819Z</time></trkpt><trkpt lat="43.1674119" lon="11.4778171"><ele>193.0</ele><time>2026-04-19T10:04:24.819Z</time></trkpt><trkpt lat="43.1675054" lon="11.4778308"><ele>193.25</ele><time>2026-04-19T10:04:25.819Z</time></trkpt><trkpt lat="43.1676342" lon="11.4778138"><ele>193.5</ele><time>2026-04-19T10:04:26.819Z</time></trkpt><trkpt lat="43.1677491" lon="11.477814"><ele>193.75</ele><time>2026-04-19T10:04:27.819Z</time></trkpt><trkpt lat="43.1678665" lon="11.4778154"><ele>194.0</ele><time>2026-04-19T10:04:28.82Z</time></trkpt><trkpt lat="43.1679776" lon="11.4778182"><ele>194.0</ele><time>2026-04-19T10:04:29.82Z</time></trkpt><trkpt lat="43.1680713" lon="11.4778177"><ele>194.0</ele><time>2026-04-19T10:04:30.82Z</time></trkpt><trkpt lat="43.1681712" lon="11.4778228"><ele>194.0</ele><time>2026-04-19T10:04:31.82Z</time></trkpt><trkpt lat="43.1682745" lon="11.4778363"><ele>194.0</ele><time>2026-04-19T10:04:32.819Z</time></trkpt><trkpt lat="43.1683696" lon="11.4778557"><ele>194.0</ele><time>2026-04-19T10:04:33.819Z</time></trkpt><trkpt lat="43.1684716" lon="11.4778751"><ele>194.5</ele><time>2026-04-19T10:04:34.819Z</time></trkpt><trkpt lat="43.1685787" lon="11.4779009"><ele>195.0</ele><time>2026-04-19T10:04:35.818Z</time></trkpt><trkpt lat="43.1686946" lon="11.4779292"><ele>195.5</ele><time>2026-04-19T10:04:36.819Z</time></trkpt><trkpt lat="43.1688119" lon="11.4779555"><ele>196.0</ele><time>2026-04-19T10:04:37.819Z</time></trkpt><trkpt lat="43.1689274" lon="11.4779866"><ele>196.0</ele><time>2026-04-19T10:04:38.818Z</time></trkpt><trkpt lat="43.1690337" lon="11.4780192"><ele>196.0</ele><time>2026-04-19T10:04:39.819Z</time></trkpt><trkpt lat="43.1691295" lon="11.4780636"><ele>196.0</ele><time>2026-04-19T10:04:40.819Z</time></trkpt><trkpt lat="43.1692156" lon="11.4781204"><ele>196.0</ele><time>2026-04-19T10:04:41.818Z</time></trkpt><trkpt lat="43.1693014" lon="11.4781804"><ele>196.0</ele><time>2026-04-19T10:04:42.82Z</time></trkpt><trkpt lat="43.1693708" lon="11.4782581"><ele>196.0</ele><time>2026-04-19T10:04:43.819Z</time></trkpt><trkpt lat="43.1694318" lon="11.478353"><ele>196.0</ele><time>2026-04-19T10:04:44.819Z</time></trkpt><trkpt lat="43.1694914" lon="11.478459"><ele>196.0</ele><time>2026-04-19T10:04:45.82Z</time></trkpt><trkpt lat="43.1695476" lon="11.4785824"><ele>196.0</ele><time>2026-04-19T10:04:46.82Z</time></trkpt><trkpt lat="43.1696076" lon="11.4787069"><ele>196.0</ele><time>2026-04-19T10:04:47.82Z</time></trkpt><trkpt lat="43.1696694" lon="11.4788355"><ele>196.83333333333331</ele><time>2026-04-19T10:04:48.82Z</time></trkpt><trkpt lat="43.1697308" lon="11.4789503"><ele>197.66666666666666</ele><time>2026-04-19T10:04:49.819Z</time></trkpt><trkpt lat="43.1697887" lon="11.4790554"><ele>198.5</ele><time>2026-04-19T10:04:50.819Z</time></trkpt><trkpt lat="43.1698444" lon="11.4791489"><ele>199.33333333333331</ele><time>2026-04-19T10:04:51.819Z</time></trkpt><trkpt lat="43.1698981" lon="11.4792229"><ele>200.16666666666666</ele><time>2026-04-19T10:04:52.818Z</time></trkpt><trkpt lat="43.1699642" lon="11.4792933"><ele>201.0</ele><time>2026-04-19T10:04:53.819Z</time></trkpt><trkpt lat="43.1700344" lon="11.4793449"><ele>201.0</ele><time>2026-04-19T10:04:54.819Z</time></trkpt><trkpt lat="43.1701123" lon="11.479397"><ele>201.0</ele><time>2026-04-19T10:04:55.818Z</time></trkpt><trkpt lat="43.1702008" lon="11.4794403"><ele>201.0</ele><time>2026-04-19T10:04:56.819Z</time></trkpt><trkpt lat="43.1702957" lon="11.4794765"><ele>201.0</ele><time>2026-04-19T10:04:57.818Z</time></trkpt><trkpt lat="43.1703815" lon="11.4795169"><ele>201.0</ele><time>2026-04-19T10:04:58.819Z</time></trkpt><trkpt lat="43.1704702" lon="11.4795478"><ele>201.0</ele><time>2026-04-19T10:04:59.819Z</time></trkpt><trkpt lat="43.1705557" lon="11.479586"><ele>201.0</ele><time>2026-04-19T10:05:00.819Z</time></trkpt><trkpt lat="43.1706418" lon="11.479643"><ele>201.0</ele><time>2026-04-19T10:05:01.82Z</time></trkpt><trkpt lat="43.1707121" lon="11.4796892"><ele>201.0</ele><time>2026-04-19T10:05:02.819Z</time></trkpt><trkpt lat="43.1707872" lon="11.4797682"><ele>201.0</ele><time>2026-04-19T10:05:03.819Z</time></trkpt><trkpt lat="43.1708493" lon="11.479849"><ele>201.0</ele><time>2026-04-19T10:05:04.819Z</time></trkpt><trkpt lat="43.1709111" lon="11.4799476"><ele>201.4</ele><time>2026-04-19T10:05:05.819Z</time></trkpt><trkpt lat="43.1709626" lon="11.4800537"><ele>201.8</ele><time>2026-04-19T10:05:06.82Z</time></trkpt><trkpt lat="43.1709969" lon="11.4801848"><ele>202.20000000000002</ele><time>2026-04-19T10:05:07.82Z</time></trkpt><trkpt lat="43.1710355" lon="11.4803165"><ele>202.60000000000002</ele><time>2026-04-19T10:05:08.82Z</time></trkpt><trkpt lat="43.1710733" lon="11.4804759"><ele>203.0</ele><time>2026-04-19T10:05:09.819Z</time></trkpt><trkpt lat="43.1711075" lon="11.4806514"><ele>203.0</ele><time>2026-04-19T10:05:10.819Z</time></trkpt><trkpt lat="43.1711478" lon="11.4808423"><ele>203.0</ele><time>2026-04-19T10:05:11.82Z</time></trkpt><trkpt lat="43.1711845" lon="11.4810371"><ele>203.0</ele><time>2026-04-19T10:05:12.819Z</time></trkpt><trkpt lat="43.1712144" lon="11.4812386"><ele>203.0</ele><time>2026-04-19T10:05:13.818Z</time></trkpt><trkpt lat="43.1712466" lon="11.4814315"><ele>203.0</ele><time>2026-04-19T10:05:14.819Z</time></trkpt><trkpt lat="43.1712788" lon="11.48161"><ele>203.0</ele><time>2026-04-19T10:05:15.819Z</time></trkpt><trkpt lat="43.1712967" lon="11.4817787"><ele>203.0</ele><time>2026-04-19T10:05:16.818Z</time></trkpt><trkpt lat="43.1713213" lon="11.4819417"><ele>203.0</ele><time>2026-04-19T10:05:17.819Z</time></trkpt><trkpt lat="43.171347" lon="11.4820716"><ele>201.8</ele><time>2026-04-19T10:05:18.819Z</time></trkpt><trkpt lat="43.1713752" lon="11.4821949"><ele>200.60000000000002</ele><time>2026-04-19T10:05:19.817Z</time></trkpt><trkpt lat="43.1714232" lon="11.4823181"><ele>199.39999999999998</ele><time>2026-04-19T10:05:20.818Z</time></trkpt><trkpt lat="43.1714824" lon="11.4824322"><ele>198.2</ele><time>2026-04-19T10:05:21.819Z</time></trkpt><trkpt lat="43.1715397" lon="11.4825629"><ele>197.0</ele><time>2026-04-19T10:05:22.818Z</time></trkpt><trkpt lat="43.1716" lon="11.4826832"><ele>199.8</ele><time>2026-04-19T10:05:23.817Z</time></trkpt><trkpt lat="43.1716569" lon="11.4828182"><ele>202.6</ele><time>2026-04-19T10:05:24.819Z</time></trkpt><trkpt lat="43.1717141" lon="11.482948"><ele>205.4</ele><time>2026-04-19T10:05:25.819Z</time></trkpt><trkpt lat="43.1717698" lon="11.4830593"><ele>208.20000000000002</ele><time>2026-04-19T10:05:26.817Z</time></trkpt><trkpt lat="43.1718356" lon="11.4831599"><ele>211.0</ele><time>2026-04-19T10:05:27.818Z</time></trkpt><trkpt lat="43.171908" lon="11.4832561"><ele>211.0</ele><time>2026-04-19T10:05:28.818Z</time></trkpt><trkpt lat="43.171986" lon="11.4833374"><ele>211.0</ele><time>2026-04-19T10:05:29.818Z</time></trkpt><trkpt lat="43.1720707" lon="11.4834237"><ele>211.0</ele><time>2026-04-19T10:05:30.819Z</time></trkpt><trkpt lat="43.1721556" lon="11.4835159"><ele>211.0</ele><time>2026-04-19T10:05:31.819Z</time></trkpt><trkpt lat="43.1722356" lon="11.4835992"><ele>211.0</ele><time>2026-04-19T10:05:32.818Z</time></trkpt><trkpt lat="43.17232" lon="11.4836735"><ele>213.0</ele><time>2026-04-19T10:05:33.817Z</time></trkpt><trkpt lat="43.1724079" lon="11.483761"><ele>215.0</ele><time>2026-04-19T10:05:34.818Z</time></trkpt><trkpt lat="43.1724962" lon="11.4838014"><ele>217.00000000000003</ele><time>2026-04-19T10:05:35.819Z</time></trkpt><trkpt lat="43.1725937" lon="11.4838412"><ele>219.0</ele><time>2026-04-19T10:05:36.818Z</time></trkpt><trkpt lat="43.172692" lon="11.4838811"><ele>221.0</ele><time>2026-04-19T10:05:37.819Z</time></trkpt><trkpt lat="43.1727858" lon="11.4839236"><ele>221.8</ele><time>2026-04-19T10:05:38.819Z</time></trkpt><trkpt lat="43.1728771" lon="11.4839563"><ele>222.60000000000002</ele><time>2026-04-19T10:05:39.819Z</time></trkpt><trkpt lat="43.1729764" lon="11.4839975"><ele>223.4</ele><time>2026-04-19T10:05:40.819Z</time></trkpt><trkpt lat="43.1730686" lon="11.4840358"><ele>224.2</ele><time>2026-04-19T10:05:41.819Z</time></trkpt><trkpt lat="43.1731558" lon="11.4840654"><ele>225.0</ele><time>2026-04-19T10:05:42.819Z</time></trkpt><trkpt lat="43.173258" lon="11.4841004"><ele>225.8</ele><time>2026-04-19T10:05:43.818Z</time></trkpt><trkpt lat="43.1733446" lon="11.4841266"><ele>226.6</ele><time>2026-04-19T10:05:44.819Z</time></trkpt><trkpt lat="43.1734474" lon="11.4841517"><ele>227.39999999999998</ele><time>2026-04-19T10:05:45.819Z</time></trkpt><trkpt lat="43.1735599" lon="11.4841901"><ele>228.2</ele><time>2026-04-19T10:05:46.819Z</time></trkpt><trkpt lat="43.1736657" lon="11.484224"><ele>229.0</ele><time>2026-04-19T10:05:47.819Z</time></trkpt><trkpt lat="43.1737947" lon="11.4842776"><ele>229.0</ele><time>2026-04-19T10:05:48.818Z</time></trkpt><trkpt lat="43.173909" lon="11.4843116"><ele>228.99999999999997</ele><time>2026-04-19T10:05:49.818Z</time></trkpt><trkpt lat="43.1740262" lon="11.4843485"><ele>228.99999999999997</ele><time>2026-04-19T10:05:50.819Z</time></trkpt><trkpt lat="43.1741153" lon="11.4843903"><ele>229.0</ele><time>2026-04-19T10:05:51.818Z</time></trkpt><trkpt lat="43.1742202" lon="11.4844106"><ele>229.0</ele><time>2026-04-19T10:05:52.819Z</time></trkpt><trkpt lat="43.174322" lon="11.4844395"><ele>229.0</ele><time>2026-04-19T10:05:53.819Z</time></trkpt><trkpt lat="43.1744164" lon="11.4844766"><ele>228.99999999999997</ele><time>2026-04-19T10:05:54.819Z</time></trkpt><trkpt lat="43.1745035" lon="11.4845147"><ele>228.99999999999997</ele><time>2026-04-19T10:05:55.818Z</time></trkpt><trkpt lat="43.1746039" lon="11.4845613"><ele>229.0</ele><time>2026-04-19T10:05:56.817Z</time></trkpt><trkpt lat="43.1747175" lon="11.4846239"><ele>229.0</ele><time>2026-04-19T10:05:57.818Z</time></trkpt><trkpt lat="43.1748349" lon="11.4846895"><ele>229.0</ele><time>2026-04-19T10:05:58.819Z</time></trkpt><trkpt lat="43.174943" lon="11.484757"><ele>228.99999999999997</ele><time>2026-04-19T10:05:59.819Z</time></trkpt><trkpt lat="43.1750403" lon="11.4848172"><ele>228.99999999999997</ele><time>2026-04-19T10:06:00.818Z</time></trkpt><trkpt lat="43.1751252" lon="11.484868"><ele>229.0</ele><time>2026-04-19T10:06:01.818Z</time></trkpt><trkpt lat="43.1752005" lon="11.4849207"><ele>229.0</ele><time>2026-04-19T10:06:02.818Z</time></trkpt><trkpt lat="43.1752598" lon="11.4849579"><ele>229.0</ele><time>2026-04-19T10:06:03.818Z</time></trkpt><trkpt lat="43.1753602" lon="11.48502"><ele>228.99999999999997</ele><time>2026-04-19T10:06:05.819Z</time></trkpt><trkpt lat="43.1754255" lon="11.4850391"><ele>228.99999999999997</ele><time>2026-04-19T10:06:08.818Z</time></trkpt><trkpt lat="43.175495" lon="11.4849624"><ele>229.0</ele><time>2026-04-19T10:06:11.817Z</time></trkpt><trkpt lat="43.17554" lon="11.4848612"><ele>229.0</ele><time>2026-04-19T10:06:13.817Z</time></trkpt><trkpt lat="43.1755928" lon="11.4847452"><ele>229.0</ele><time>2026-04-19T10:06:15.817Z</time></trkpt><trkpt lat="43.1756565" lon="11.4846166"><ele>229.0</ele><time>2026-04-19T10:06:17.817Z</time></trkpt><trkpt lat="43.17572" lon="11.4844714"><ele>229.0</ele><time>2026-04-19T10:06:19.818Z</time></trkpt><trkpt lat="43.175777" lon="11.4843263"><ele>229.0</ele><time>2026-04-19T10:06:21.818Z</time></trkpt><trkpt lat="43.1758201" lon="11.4841725"><ele>229.0</ele><time>2026-04-19T10:06:23.818Z</time></trkpt><trkpt lat="43.1758285" lon="11.4840051"><ele>228.99999999999997</ele><time>2026-04-19T10:06:25.819Z</time></trkpt><trkpt lat="43.1758089" lon="11.4838243"><ele>228.99999999999997</ele><time>2026-04-19T10:06:27.819Z</time></trkpt><trkpt lat="43.1758055" lon="11.4837266"><ele>229.0</ele><time>2026-04-19T10:06:28.818Z</time></trkpt><trkpt lat="43.1757951" lon="11.4836046"><ele>229.0</ele><time>2026-04-19T10:06:29.819Z</time></trkpt><trkpt lat="43.1757902" lon="11.4834834"><ele>227.66666666666666</ele><time>2026-04-19T10:06:30.819Z</time></trkpt><trkpt lat="43.1757817" lon="11.4833671"><ele>226.33333333333331</ele><time>2026-04-19T10:06:31.819Z</time></trkpt><trkpt lat="43.1757749" lon="11.4832485"><ele>225.0</ele><time>2026-04-19T10:06:32.819Z</time></trkpt><trkpt lat="43.1757667" lon="11.4831377"><ele>223.66666666666669</ele><time>2026-04-19T10:06:33.818Z</time></trkpt><trkpt lat="43.1757603" lon="11.4830312"><ele>222.33333333333334</ele><time>2026-04-19T10:06:34.818Z</time></trkpt><trkpt lat="43.1757477" lon="11.4828824"><ele>221.0</ele><time>2026-04-19T10:06:36.819Z</time></trkpt><trkpt lat="43.1757217" lon="11.4827977"><ele>218.33333333333334</ele><time>2026-04-19T10:06:39.818Z</time></trkpt><trkpt lat="43.1756865" lon="11.4827033"><ele>215.66666666666669</ele><time>2026-04-19T10:06:42.819Z</time></trkpt><trkpt lat="43.1756489" lon="11.4825989"><ele>213.0</ele><time>2026-04-19T10:06:44.819Z</time></trkpt><trkpt lat="43.1756285" lon="11.4824443"><ele>210.33333333333331</ele><time>2026-04-19T10:06:46.818Z</time></trkpt><trkpt lat="43.1756377" lon="11.4823537"><ele>207.66666666666666</ele><time>2026-04-19T10:06:47.818Z</time></trkpt><trkpt lat="43.1756487" lon="11.4822548"><ele>205.0</ele><time>2026-04-19T10:06:48.818Z</time></trkpt><trkpt lat="43.1756624" lon="11.4821572"><ele>205.2857142857143</ele><time>2026-04-19T10:06:49.819Z</time></trkpt><trkpt lat="43.1756766" lon="11.4820658"><ele>205.57142857142856</ele><time>2026-04-19T10:06:50.819Z</time></trkpt><trkpt lat="43.1756942" lon="11.481976"><ele>205.85714285714286</ele><time>2026-04-19T10:06:51.819Z</time></trkpt><trkpt lat="43.1757191" lon="11.4818893"><ele>206.14285714285717</ele><time>2026-04-19T10:06:52.819Z</time></trkpt><trkpt lat="43.175749" lon="11.48181"><ele>206.42857142857144</ele><time>2026-04-19T10:06:53.818Z</time></trkpt><trkpt lat="43.17579" lon="11.4817366"><ele>206.71428571428572</ele><time>2026-04-19T10:06:54.819Z</time></trkpt><trkpt lat="43.1758412" lon="11.4816782"><ele>207.0</ele><time>2026-04-19T10:06:55.819Z</time></trkpt><trkpt lat="43.1758928" lon="11.4816237"><ele>207.00000000000003</ele><time>2026-04-19T10:06:56.819Z</time></trkpt><trkpt lat="43.1759433" lon="11.4815661"><ele>207.0</ele><time>2026-04-19T10:06:57.819Z</time></trkpt><trkpt lat="43.1759916" lon="11.4814982"><ele>207.0</ele><time>2026-04-19T10:06:58.819Z</time></trkpt><trkpt lat="43.1760314" lon="11.4814174"><ele>207.0</ele><time>2026-04-19T10:06:59.819Z</time></trkpt><trkpt lat="43.1760632" lon="11.4813271"><ele>207.0</ele><time>2026-04-19T10:07:00.819Z</time></trkpt><trkpt lat="43.1760891" lon="11.4812339"><ele>207.00000000000003</ele><time>2026-04-19T10:07:01.818Z</time></trkpt><trkpt lat="43.1761082" lon="11.4811364"><ele>207.0</ele><time>2026-04-19T10:07:02.818Z</time></trkpt><trkpt lat="43.1761284" lon="11.4810405"><ele>205.71428571428572</ele><time>2026-04-19T10:07:03.819Z</time></trkpt><trkpt lat="43.176143" lon="11.4809472"><ele>204.42857142857144</ele><time>2026-04-19T10:07:04.819Z</time></trkpt><trkpt lat="43.1761548" lon="11.4808513"><ele>203.14285714285717</ele><time>2026-04-19T10:07:05.819Z</time></trkpt><trkpt lat="43.1761645" lon="11.480757"><ele>201.85714285714286</ele><time>2026-04-19T10:07:06.818Z</time></trkpt><trkpt lat="43.17617" lon="11.4806603"><ele>200.57142857142856</ele><time>2026-04-19T10:07:07.819Z</time></trkpt><trkpt lat="43.1761787" lon="11.4805672"><ele>199.2857142857143</ele><time>2026-04-19T10:07:08.819Z</time></trkpt><trkpt lat="43.1761896" lon="11.4804732"><ele>198.0</ele><time>2026-04-19T10:07:09.819Z</time></trkpt><trkpt lat="43.1762011" lon="11.4803866"><ele>197.16666666666666</ele><time>2026-04-19T10:07:10.817Z</time></trkpt><trkpt lat="43.1762459" lon="11.4802261"><ele>196.33333333333331</ele><time>2026-04-19T10:07:12.817Z</time></trkpt><trkpt lat="43.176283" lon="11.4801507"><ele>195.5</ele><time>2026-04-19T10:07:13.817Z</time></trkpt><trkpt lat="43.1763312" lon="11.4800844"><ele>194.66666666666666</ele><time>2026-04-19T10:07:14.818Z</time></trkpt><trkpt lat="43.1763864" lon="11.4800087"><ele>193.83333333333331</ele><time>2026-04-19T10:07:15.818Z</time></trkpt><trkpt lat="43.1764428" lon="11.4799297"><ele>193.0</ele><time>2026-04-19T10:07:16.818Z</time></trkpt><trkpt lat="43.1765009" lon="11.4798502"><ele>193.33333333333331</ele><time>2026-04-19T10:07:17.819Z</time></trkpt><trkpt lat="43.1765542" lon="11.4797698"><ele>193.66666666666666</ele><time>2026-04-19T10:07:18.819Z</time></trkpt><trkpt lat="43.1766056" lon="11.4796819"><ele>194.0</ele><time>2026-04-19T10:07:19.818Z</time></trkpt><trkpt lat="43.1766435" lon="11.4795913"><ele>194.33333333333331</ele><time>2026-04-19T10:07:20.818Z</time></trkpt><trkpt lat="43.1766741" lon="11.4794923"><ele>194.66666666666666</ele><time>2026-04-19T10:07:21.818Z</time></trkpt><trkpt lat="43.1766938" lon="11.4793926"><ele>195.0</ele><time>2026-04-19T10:07:22.819Z</time></trkpt><trkpt lat="43.1767023" lon="11.4792914"><ele>193.66666666666666</ele><time>2026-04-19T10:07:23.819Z</time></trkpt><trkpt lat="43.176703" lon="11.4791883"><ele>192.33333333333334</ele><time>2026-04-19T10:07:24.817Z</time></trkpt><trkpt lat="43.1766959" lon="11.4790892"><ele>191.0</ele><time>2026-04-19T10:07:25.817Z</time></trkpt><trkpt lat="43.1766887" lon="11.4789882"><ele>189.66666666666669</ele><time>2026-04-19T10:07:26.817Z</time></trkpt><trkpt lat="43.1766793" lon="11.478885"><ele>188.33333333333334</ele><time>2026-04-19T10:07:27.819Z</time></trkpt><trkpt lat="43.1766681" lon="11.4787785"><ele>187.0</ele><time>2026-04-19T10:07:28.817Z</time></trkpt><trkpt lat="43.1766619" lon="11.4786687"><ele>185.66666666666669</ele><time>2026-04-19T10:07:29.818Z</time></trkpt><trkpt lat="43.1766593" lon="11.478554"><ele>184.33333333333334</ele><time>2026-04-19T10:07:30.818Z</time></trkpt><trkpt lat="43.1766619" lon="11.4784356"><ele>183.0</ele><time>2026-04-19T10:07:31.819Z</time></trkpt><trkpt lat="43.1766715" lon="11.4783161"><ele>181.66666666666666</ele><time>2026-04-19T10:07:32.818Z</time></trkpt><trkpt lat="43.176685" lon="11.4781964"><ele>180.33333333333331</ele><time>2026-04-19T10:07:33.819Z</time></trkpt><trkpt lat="43.1766988" lon="11.4780864"><ele>179.0</ele><time>2026-04-19T10:07:34.819Z</time></trkpt><trkpt lat="43.1767145" lon="11.4779792"><ele>177.57142857142858</ele><time>2026-04-19T10:07:35.819Z</time></trkpt><trkpt lat="43.1767251" lon="11.4778766"><ele>176.14285714285714</ele><time>2026-04-19T10:07:36.819Z</time></trkpt><trkpt lat="43.1767475" lon="11.4777876"><ele>174.71428571428572</ele><time>2026-04-19T10:07:37.819Z</time></trkpt><trkpt lat="43.1767859" lon="11.4777048"><ele>173.28571428571428</ele><time>2026-04-19T10:07:38.819Z</time></trkpt><trkpt lat="43.1768349" lon="11.4776372"><ele>171.85714285714286</ele><time>2026-04-19T10:07:39.818Z</time></trkpt><trkpt lat="43.1768941" lon="11.4775801"><ele>170.42857142857144</ele><time>2026-04-19T10:07:40.818Z</time></trkpt><trkpt lat="43.1769649" lon="11.4775456"><ele>169.0</ele><time>2026-04-19T10:07:41.817Z</time></trkpt><trkpt lat="43.1770536" lon="11.4775143"><ele>169.0</ele><time>2026-04-19T10:07:42.818Z</time></trkpt><trkpt lat="43.177178" lon="11.4774875"><ele>169.0</ele><time>2026-04-19T10:07:43.819Z</time></trkpt><trkpt lat="43.1773413" lon="11.4774592"><ele>169.0</ele><time>2026-04-19T10:07:44.817Z</time></trkpt><trkpt lat="43.1775249" lon="11.4774317"><ele>166.33333333333334</ele><time>2026-04-19T10:07:45.818Z</time></trkpt><trkpt lat="43.1777082" lon="11.4774005"><ele>163.66666666666666</ele><time>2026-04-19T10:07:46.817Z</time></trkpt><trkpt lat="43.177885" lon="11.4773771"><ele>161.0</ele><time>2026-04-19T10:07:47.818Z</time></trkpt><trkpt lat="43.1780561" lon="11.4773536"><ele>159.66666666666666</ele><time>2026-04-19T10:07:48.818Z</time></trkpt><trkpt lat="43.1782172" lon="11.4773253"><ele>158.33333333333334</ele><time>2026-04-19T10:07:49.819Z</time></trkpt><trkpt lat="43.1783668" lon="11.4772944"><ele>157.0</ele><time>2026-04-19T10:07:50.818Z</time></trkpt><trkpt lat="43.1785107" lon="11.47726"><ele>157.0</ele><time>2026-04-19T10:07:51.818Z</time></trkpt><trkpt lat="43.1786569" lon="11.4772233"><ele>157.0</ele><time>2026-04-19T10:07:52.818Z</time></trkpt><trkpt lat="43.1787921" lon="11.4771862"><ele>157.0</ele><time>2026-04-19T10:07:53.819Z</time></trkpt><trkpt lat="43.1789143" lon="11.4771501"><ele>157.0</ele><time>2026-04-19T10:07:54.818Z</time></trkpt><trkpt lat="43.1790195" lon="11.4771169"><ele>156.6</ele><time>2026-04-19T10:07:55.818Z</time></trkpt><trkpt lat="43.1791247" lon="11.4770908"><ele>156.2</ele><time>2026-04-19T10:07:56.818Z</time></trkpt><trkpt lat="43.1792273" lon="11.4770847"><ele>155.8</ele><time>2026-04-19T10:07:57.818Z</time></trkpt><trkpt lat="43.1793333" lon="11.4770769"><ele>155.4</ele><time>2026-04-19T10:07:58.817Z</time></trkpt><trkpt lat="43.1794475" lon="11.4770895"><ele>155.0</ele><time>2026-04-19T10:07:59.817Z</time></trkpt><trkpt lat="43.1795784" lon="11.4771175"><ele>155.0</ele><time>2026-04-19T10:08:00.817Z</time></trkpt><trkpt lat="43.1797286" lon="11.4771571"><ele>155.0</ele><time>2026-04-19T10:08:01.817Z</time></trkpt><trkpt lat="43.1798694" lon="11.4771955"><ele>155.0</ele><time>2026-04-19T10:08:02.818Z</time></trkpt><trkpt lat="43.179991" lon="11.4772274"><ele>155.0</ele><time>2026-04-19T10:08:03.817Z</time></trkpt><trkpt lat="43.1800975" lon="11.4772588"><ele>155.0</ele><time>2026-04-19T10:08:04.818Z</time></trkpt><trkpt lat="43.1802024" lon="11.4772879"><ele>155.0</ele><time>2026-04-19T10:08:05.818Z</time></trkpt><trkpt lat="43.180313" lon="11.4773202"><ele>155.0</ele><time>2026-04-19T10:08:06.816Z</time></trkpt><trkpt lat="43.1804113" lon="11.4773458"><ele>155.0</ele><time>2026-04-19T10:08:07.816Z</time></trkpt><trkpt lat="43.1805137" lon="11.4773687"><ele>155.0</ele><time>2026-04-19T10:08:08.818Z</time></trkpt><trkpt lat="43.1806267" lon="11.4773898"><ele>155.25</ele><time>2026-04-19T10:08:09.818Z</time></trkpt><trkpt lat="43.1807526" lon="11.4774136"><ele>155.5</ele><time>2026-04-19T10:08:10.817Z</time></trkpt><trkpt lat="43.1808942" lon="11.4774446"><ele>155.75</ele><time>2026-04-19T10:08:11.818Z</time></trkpt><trkpt lat="43.1810497" lon="11.4774864"><ele>156.0</ele><time>2026-04-19T10:08:12.816Z</time></trkpt><trkpt lat="43.1812076" lon="11.4775307"><ele>156.0</ele><time>2026-04-19T10:08:13.818Z</time></trkpt><trkpt lat="43.1813589" lon="11.4775728"><ele>156.0</ele><time>2026-04-19T10:08:14.817Z</time></trkpt><trkpt lat="43.1814994" lon="11.4776127"><ele>156.0</ele><time>2026-04-19T10:08:15.818Z</time></trkpt><trkpt lat="43.1816305" lon="11.4776496"><ele>156.0</ele><time>2026-04-19T10:08:16.817Z</time></trkpt><trkpt lat="43.1817542" lon="11.4776872"><ele>156.0</ele><time>2026-04-19T10:08:17.818Z</time></trkpt><trkpt lat="43.1818755" lon="11.4777213"><ele>156.0</ele><time>2026-04-19T10:08:18.818Z</time></trkpt><trkpt lat="43.1819898" lon="11.4777564"><ele>156.0</ele><time>2026-04-19T10:08:19.818Z</time></trkpt><trkpt lat="43.1820937" lon="11.4777907"><ele>156.0</ele><time>2026-04-19T10:08:20.818Z</time></trkpt><trkpt lat="43.1821862" lon="11.4778229"><ele>156.0</ele><time>2026-04-19T10:08:21.817Z</time></trkpt><trkpt lat="43.1822699" lon="11.4778317"><ele>156.0</ele><time>2026-04-19T10:08:22.818Z</time></trkpt><trkpt lat="43.1823443" lon="11.4778299"><ele>156.0</ele><time>2026-04-19T10:08:23.818Z</time></trkpt><trkpt lat="43.1824227" lon="11.4778074"><ele>156.0</ele><time>2026-04-19T10:08:24.818Z</time></trkpt><trkpt lat="43.1825101" lon="11.4777496"><ele>156.0</ele><time>2026-04-19T10:08:25.817Z</time></trkpt><trkpt lat="43.1826099" lon="11.4776677"><ele>156.0</ele><time>2026-04-19T10:08:26.818Z</time></trkpt><trkpt lat="43.1827377" lon="11.4775606"><ele>155.66666666666666</ele><time>2026-04-19T10:08:27.817Z</time></trkpt><trkpt lat="43.1828777" lon="11.4774427"><ele>155.33333333333331</ele><time>2026-04-19T10:08:28.817Z</time></trkpt><trkpt lat="43.1830416" lon="11.4773124"><ele>155.0</ele><time>2026-04-19T10:08:29.818Z</time></trkpt><trkpt lat="43.1832113" lon="11.4771739"><ele>154.33333333333331</ele><time>2026-04-19T10:08:30.817Z</time></trkpt><trkpt lat="43.1833771" lon="11.4770367"><ele>153.66666666666666</ele><time>2026-04-19T10:08:31.817Z</time></trkpt><trkpt lat="43.183536" lon="11.4769072"><ele>153.0</ele><time>2026-04-19T10:08:32.816Z</time></trkpt><trkpt lat="43.1836787" lon="11.4767924"><ele>153.0</ele><time>2026-04-19T10:08:33.817Z</time></trkpt><trkpt lat="43.1838214" lon="11.4766782"><ele>153.0</ele><time>2026-04-19T10:08:34.816Z</time></trkpt><trkpt lat="43.183965" lon="11.4765617"><ele>153.0</ele><time>2026-04-19T10:08:35.816Z</time></trkpt><trkpt lat="43.1841133" lon="11.4764425"><ele>153.33333333333334</ele><time>2026-04-19T10:08:36.817Z</time></trkpt><trkpt lat="43.1842562" lon="11.4763296"><ele>153.66666666666669</ele><time>2026-04-19T10:08:37.817Z</time></trkpt><trkpt lat="43.1843883" lon="11.4762208"><ele>154.0</ele><time>2026-04-19T10:08:38.817Z</time></trkpt><trkpt lat="43.1845161" lon="11.4761211"><ele>154.0</ele><time>2026-04-19T10:08:39.818Z</time></trkpt><trkpt lat="43.1846374" lon="11.4760236"><ele>154.0</ele><time>2026-04-19T10:08:40.817Z</time></trkpt><trkpt lat="43.1847599" lon="11.4759088"><ele>154.0</ele><time>2026-04-19T10:08:41.818Z</time></trkpt><trkpt lat="43.1848863" lon="11.4758007"><ele>154.0</ele><time>2026-04-19T10:08:42.818Z</time></trkpt><trkpt lat="43.1850199" lon="11.4756917"><ele>154.0</ele><time>2026-04-19T10:08:43.818Z</time></trkpt><trkpt lat="43.185146" lon="11.4755846"><ele>154.0</ele><time>2026-04-19T10:08:44.818Z</time></trkpt><trkpt lat="43.1852671" lon="11.475485"><ele>154.0</ele><time>2026-04-19T10:08:45.816Z</time></trkpt><trkpt lat="43.1853828" lon="11.4753867"><ele>154.0</ele><time>2026-04-19T10:08:46.817Z</time></trkpt><trkpt lat="43.1854918" lon="11.4753007"><ele>154.0</ele><time>2026-04-19T10:08:47.818Z</time></trkpt><trkpt lat="43.1856008" lon="11.4752063"><ele>154.0</ele><time>2026-04-19T10:08:48.818Z</time></trkpt><trkpt lat="43.1857011" lon="11.4751234"><ele>154.0</ele><time>2026-04-19T10:08:49.817Z</time></trkpt><trkpt lat="43.1857957" lon="11.4750489"><ele>154.0</ele><time>2026-04-19T10:08:50.818Z</time></trkpt><trkpt lat="43.185888" lon="11.4749824"><ele>154.0</ele><time>2026-04-19T10:08:51.817Z</time></trkpt><trkpt lat="43.1859832" lon="11.474924"><ele>154.0</ele><time>2026-04-19T10:08:52.817Z</time></trkpt><trkpt lat="43.1860817" lon="11.4748718"><ele>154.0</ele><time>2026-04-19T10:08:53.816Z</time></trkpt><trkpt lat="43.1861852" lon="11.4748389"><ele>154.0</ele><time>2026-04-19T10:08:54.816Z</time></trkpt><trkpt lat="43.1862933" lon="11.4748255"><ele>154.0</ele><time>2026-04-19T10:08:55.816Z</time></trkpt><trkpt lat="43.1864154" lon="11.4748273"><ele>154.25</ele><time>2026-04-19T10:08:56.817Z</time></trkpt><trkpt lat="43.1865442" lon="11.4748217"><ele>154.5</ele><time>2026-04-19T10:08:57.817Z</time></trkpt><trkpt lat="43.1866755" lon="11.4748093"><ele>154.75</ele><time>2026-04-19T10:08:58.817Z</time></trkpt><trkpt lat="43.1867896" lon="11.4747966"><ele>155.0</ele><time>2026-04-19T10:08:59.817Z</time></trkpt><trkpt lat="43.1869034" lon="11.4747752"><ele>155.0</ele><time>2026-04-19T10:09:00.816Z</time></trkpt><trkpt lat="43.1870145" lon="11.4747587"><ele>155.0</ele><time>2026-04-19T10:09:01.817Z</time></trkpt><trkpt lat="43.1871087" lon="11.4747467"><ele>155.0</ele><time>2026-04-19T10:09:02.817Z</time></trkpt><trkpt lat="43.1871913" lon="11.4747476"><ele>155.0</ele><time>2026-04-19T10:09:03.817Z</time></trkpt><trkpt lat="43.1872818" lon="11.4747655"><ele>155.0</ele><time>2026-04-19T10:09:04.817Z</time></trkpt><trkpt lat="43.1873664" lon="11.4748024"><ele>155.66666666666666</ele><time>2026-04-19T10:09:05.817Z</time></trkpt><trkpt lat="43.187446" lon="11.4748544"><ele>156.33333333333331</ele><time>2026-04-19T10:09:06.817Z</time></trkpt><trkpt lat="43.1875176" lon="11.474908"><ele>157.0</ele><time>2026-04-19T10:09:07.817Z</time></trkpt><trkpt lat="43.1875826" lon="11.4749496"><ele>157.66666666666666</ele><time>2026-04-19T10:09:08.817Z</time></trkpt><trkpt lat="43.1876479" lon="11.4749751"><ele>158.33333333333334</ele><time>2026-04-19T10:09:09.817Z</time></trkpt><trkpt lat="43.1877663" lon="11.4749654"><ele>159.0</ele><time>2026-04-19T10:09:11.817Z</time></trkpt><trkpt lat="43.1878564" lon="11.4749172"><ele>159.0</ele><time>2026-04-19T10:09:13.817Z</time></trkpt><trkpt lat="43.1878925" lon="11.4748445"><ele>159.0</ele><time>2026-04-19T10:09:14.817Z</time></trkpt><trkpt lat="43.1879219" lon="11.4747539"><ele>159.0</ele><time>2026-04-19T10:09:15.818Z</time></trkpt><trkpt lat="43.1879452" lon="11.4746462"><ele>159.0</ele><time>2026-04-19T10:09:16.817Z</time></trkpt><trkpt lat="43.1879727" lon="11.4745394"><ele>159.0</ele><time>2026-04-19T10:09:17.817Z</time></trkpt><trkpt lat="43.1880156" lon="11.4744388"><ele>159.0</ele><time>2026-04-19T10:09:18.817Z</time></trkpt><trkpt lat="43.1880727" lon="11.47436"><ele>159.0</ele><time>2026-04-19T10:09:19.817Z</time></trkpt><trkpt lat="43.1881472" lon="11.4742908"><ele>159.0</ele><time>2026-04-19T10:09:20.818Z</time></trkpt><trkpt lat="43.1882293" lon="11.4742312"><ele>159.0</ele><time>2026-04-19T10:09:21.817Z</time></trkpt><trkpt lat="43.1883121" lon="11.4741625"><ele>159.0</ele><time>2026-04-19T10:09:22.816Z</time></trkpt><trkpt lat="43.1883793" lon="11.4740795"><ele>159.0</ele><time>2026-04-19T10:09:23.816Z</time></trkpt><trkpt lat="43.1884453" lon="11.4739819"><ele>160.5</ele><time>2026-04-19T10:09:24.817Z</time></trkpt><trkpt lat="43.1885087" lon="11.4738637"><ele>162.0</ele><time>2026-04-19T10:09:25.818Z</time></trkpt><trkpt lat="43.1885647" lon="11.4737232"><ele>163.5</ele><time>2026-04-19T10:09:26.818Z</time></trkpt><trkpt lat="43.1886137" lon="11.4735638"><ele>165.0</ele><time>2026-04-19T10:09:27.817Z</time></trkpt><trkpt lat="43.1886627" lon="11.4734109"><ele>165.0</ele><time>2026-04-19T10:09:28.818Z</time></trkpt><trkpt lat="43.1887105" lon="11.4732794"><ele>165.0</ele><time>2026-04-19T10:09:29.818Z</time></trkpt><trkpt lat="43.188758" lon="11.4731588"><ele>165.0</ele><time>2026-04-19T10:09:30.818Z</time></trkpt><trkpt lat="43.1888098" lon="11.4730404"><ele>165.0</ele><time>2026-04-19T10:09:31.817Z</time></trkpt><trkpt lat="43.1888625" lon="11.4729119"><ele>165.0</ele><time>2026-04-19T10:09:32.817Z</time></trkpt><trkpt lat="43.1889179" lon="11.4727655"><ele>164.0</ele><time>2026-04-19T10:09:33.817Z</time></trkpt><trkpt lat="43.1889653" lon="11.4726075"><ele>163.0</ele><time>2026-04-19T10:09:34.817Z</time></trkpt><trkpt lat="43.1890088" lon="11.4724473"><ele>162.0</ele><time>2026-04-19T10:09:35.818Z</time></trkpt><trkpt lat="43.1890519" lon="11.4722937"><ele>161.0</ele><time>2026-04-19T10:09:36.818Z</time></trkpt><trkpt lat="43.1890954" lon="11.4721455"><ele>162.20000000000002</ele><time>2026-04-19T10:09:37.818Z</time></trkpt><trkpt lat="43.189127" lon="11.4720159"><ele>163.4</ele><time>2026-04-19T10:09:38.818Z</time></trkpt><trkpt lat="43.1891625" lon="11.471904"><ele>164.6</ele><time>2026-04-19T10:09:39.817Z</time></trkpt><trkpt lat="43.1892044" lon="11.4718003"><ele>165.8</ele><time>2026-04-19T10:09:40.817Z</time></trkpt><trkpt lat="43.1892627" lon="11.4716871"><ele>167.0</ele><time>2026-04-19T10:09:41.817Z</time></trkpt><trkpt lat="43.1893269" lon="11.4715812"><ele>167.0</ele><time>2026-04-19T10:09:42.817Z</time></trkpt><trkpt lat="43.189394" lon="11.471488"><ele>167.0</ele><time>2026-04-19T10:09:43.818Z</time></trkpt><trkpt lat="43.189478" lon="11.4714005"><ele>167.0</ele><time>2026-04-19T10:09:44.818Z</time></trkpt><trkpt lat="43.1895744" lon="11.4713253"><ele>167.0</ele><time>2026-04-19T10:09:45.817Z</time></trkpt><trkpt lat="43.1896843" lon="11.4712529"><ele>167.0</ele><time>2026-04-19T10:09:46.817Z</time></trkpt><trkpt lat="43.1898074" lon="11.4711803"><ele>166.5</ele><time>2026-04-19T10:09:47.817Z</time></trkpt><trkpt lat="43.1899259" lon="11.4711096"><ele>166.0</ele><time>2026-04-19T10:09:48.817Z</time></trkpt><trkpt lat="43.1900365" lon="11.4710557"><ele>165.5</ele><time>2026-04-19T10:09:49.817Z</time></trkpt><trkpt lat="43.190139" lon="11.4709642"><ele>165.0</ele><time>2026-04-19T10:09:50.818Z</time></trkpt><trkpt lat="43.1902297" lon="11.4708637"><ele>165.0</ele><time>2026-04-19T10:09:51.817Z</time></trkpt><trkpt lat="43.190326" lon="11.4707577"><ele>165.0</ele><time>2026-04-19T10:09:52.817Z</time></trkpt><trkpt lat="43.1904113" lon="11.4706536"><ele>165.0</ele><time>2026-04-19T10:09:53.817Z</time></trkpt><trkpt lat="43.1904936" lon="11.4705563"><ele>165.0</ele><time>2026-04-19T10:09:54.818Z</time></trkpt><trkpt lat="43.1905712" lon="11.4704677"><ele>165.0</ele><time>2026-04-19T10:09:55.818Z</time></trkpt><trkpt lat="43.1906513" lon="11.4703764"><ele>164.25</ele><time>2026-04-19T10:09:56.817Z</time></trkpt><trkpt lat="43.1907266" lon="11.4702758"><ele>163.5</ele><time>2026-04-19T10:09:57.816Z</time></trkpt><trkpt lat="43.1907885" lon="11.4701538"><ele>162.75</ele><time>2026-04-19T10:09:58.817Z</time></trkpt><trkpt lat="43.1908623" lon="11.4700014"><ele>162.0</ele><time>2026-04-19T10:09:59.818Z</time></trkpt><trkpt lat="43.1909335" lon="11.4698293"><ele>162.0</ele><time>2026-04-19T10:10:00.818Z</time></trkpt><trkpt lat="43.1910068" lon="11.4696602"><ele>162.0</ele><time>2026-04-19T10:10:01.818Z</time></trkpt><trkpt lat="43.1910686" lon="11.4695015"><ele>162.0</ele><time>2026-04-19T10:10:02.818Z</time></trkpt><trkpt lat="43.1911298" lon="11.4693494"><ele>162.0</ele><time>2026-04-19T10:10:03.818Z</time></trkpt><trkpt lat="43.1911948" lon="11.4692118"><ele>161.75</ele><time>2026-04-19T10:10:04.818Z</time></trkpt><trkpt lat="43.1912752" lon="11.4690904"><ele>161.5</ele><time>2026-04-19T10:10:05.818Z</time></trkpt><trkpt lat="43.1913806" lon="11.4689702"><ele>161.25</ele><time>2026-04-19T10:10:06.818Z</time></trkpt><trkpt lat="43.1915079" lon="11.4688385"><ele>161.0</ele><time>2026-04-19T10:10:07.818Z</time></trkpt><trkpt lat="43.1916336" lon="11.4687237"><ele>160.5</ele><time>2026-04-19T10:10:08.818Z</time></trkpt><trkpt lat="43.1917493" lon="11.4686168"><ele>160.0</ele><time>2026-04-19T10:10:09.818Z</time></trkpt><trkpt lat="43.1918616" lon="11.4685186"><ele>159.5</ele><time>2026-04-19T10:10:10.818Z</time></trkpt><trkpt lat="43.1919707" lon="11.4684154"><ele>159.0</ele><time>2026-04-19T10:10:11.818Z</time></trkpt><trkpt lat="43.1920895" lon="11.4683015"><ele>159.0</ele><time>2026-04-19T10:10:12.818Z</time></trkpt><trkpt lat="43.1922198" lon="11.4681785"><ele>159.0</ele><time>2026-04-19T10:10:13.817Z</time></trkpt><trkpt lat="43.1923467" lon="11.4680518"><ele>159.0</ele><time>2026-04-19T10:10:14.816Z</time></trkpt><trkpt lat="43.192474" lon="11.4679196"><ele>158.0</ele><time>2026-04-19T10:10:15.816Z</time></trkpt><trkpt lat="43.1926075" lon="11.4677889"><ele>157.0</ele><time>2026-04-19T10:10:16.818Z</time></trkpt><trkpt lat="43.1927331" lon="11.467665"><ele>156.0</ele><time>2026-04-19T10:10:17.817Z</time></trkpt><trkpt lat="43.1928506" lon="11.4675499"><ele>156.0</ele><time>2026-04-19T10:10:18.818Z</time></trkpt><trkpt lat="43.192962" lon="11.4674431"><ele>156.0</ele><time>2026-04-19T10:10:19.818Z</time></trkpt><trkpt lat="43.1930676" lon="11.4673433"><ele>156.0</ele><time>2026-04-19T10:10:20.816Z</time></trkpt><trkpt lat="43.1931776" lon="11.4672352"><ele>156.0</ele><time>2026-04-19T10:10:21.817Z</time></trkpt><trkpt lat="43.1932986" lon="11.4671225"><ele>156.0</ele><time>2026-04-19T10:10:22.817Z</time></trkpt><trkpt lat="43.1934137" lon="11.4670112"><ele>156.0</ele><time>2026-04-19T10:10:23.818Z</time></trkpt><trkpt lat="43.1935278" lon="11.4669071"><ele>156.0</ele><time>2026-04-19T10:10:24.818Z</time></trkpt><trkpt lat="43.1936383" lon="11.4668054"><ele>156.0</ele><time>2026-04-19T10:10:25.818Z</time></trkpt><trkpt lat="43.1937519" lon="11.4667022"><ele>156.0</ele><time>2026-04-19T10:10:26.818Z</time></trkpt><trkpt lat="43.1938696" lon="11.466594"><ele>156.0</ele><time>2026-04-19T10:10:27.817Z</time></trkpt><trkpt lat="43.1939939" lon="11.4664756"><ele>156.0</ele><time>2026-04-19T10:10:28.817Z</time></trkpt><trkpt lat="43.1941167" lon="11.4663679"><ele>156.0</ele><time>2026-04-19T10:10:29.817Z</time></trkpt><trkpt lat="43.1942412" lon="11.4662432"><ele>155.75</ele><time>2026-04-19T10:10:30.818Z</time></trkpt><trkpt lat="43.1943594" lon="11.4661258"><ele>155.5</ele><time>2026-04-19T10:10:31.818Z</time></trkpt><trkpt lat="43.194445" lon="11.4660325"><ele>155.25</ele><time>2026-04-19T10:10:32.817Z</time></trkpt><trkpt lat="43.1945383" lon="11.46595"><ele>155.0</ele><time>2026-04-19T10:10:33.816Z</time></trkpt><trkpt lat="43.1946265" lon="11.4658669"><ele>155.0</ele><time>2026-04-19T10:10:34.816Z</time></trkpt><trkpt lat="43.1947008" lon="11.4657889"><ele>155.0</ele><time>2026-04-19T10:10:35.817Z</time></trkpt><trkpt lat="43.194765" lon="11.4657163"><ele>155.0</ele><time>2026-04-19T10:10:36.817Z</time></trkpt><trkpt lat="43.1948142" lon="11.4656498"><ele>155.0</ele><time>2026-04-19T10:10:37.815Z</time></trkpt><trkpt lat="43.1948983" lon="11.4655078"><ele>155.0</ele><time>2026-04-19T10:10:39.816Z</time></trkpt><trkpt lat="43.1949525" lon="11.465392"><ele>154.33333333333331</ele><time>2026-04-19T10:10:40.817Z</time></trkpt><trkpt lat="43.1950144" lon="11.4652433"><ele>153.66666666666666</ele><time>2026-04-19T10:10:41.817Z</time></trkpt><trkpt lat="43.1950915" lon="11.4650613"><ele>153.0</ele><time>2026-04-19T10:10:42.815Z</time></trkpt><trkpt lat="43.1951779" lon="11.4648535"><ele>152.33333333333334</ele><time>2026-04-19T10:10:43.817Z</time></trkpt><trkpt lat="43.1952763" lon="11.4646078"><ele>151.66666666666669</ele><time>2026-04-19T10:10:44.816Z</time></trkpt><trkpt lat="43.1953793" lon="11.4643555"><ele>151.0</ele><time>2026-04-19T10:10:45.816Z</time></trkpt><trkpt lat="43.1954765" lon="11.4641163"><ele>151.0</ele><time>2026-04-19T10:10:46.816Z</time></trkpt><trkpt lat="43.1955676" lon="11.4638903"><ele>151.0</ele><time>2026-04-19T10:10:47.816Z</time></trkpt><trkpt lat="43.1956521" lon="11.4636709"><ele>151.0</ele><time>2026-04-19T10:10:48.817Z</time></trkpt><trkpt lat="43.1957345" lon="11.4634598"><ele>151.0</ele><time>2026-04-19T10:10:49.816Z</time></trkpt><trkpt lat="43.1958062" lon="11.4632615"><ele>151.0</ele><time>2026-04-19T10:10:50.816Z</time></trkpt><trkpt lat="43.1958701" lon="11.4630747"><ele>151.0</ele><time>2026-04-19T10:10:51.817Z</time></trkpt><trkpt lat="43.1959335" lon="11.4629004"><ele>151.0</ele><time>2026-04-19T10:10:52.817Z</time></trkpt><trkpt lat="43.1960008" lon="11.4627363"><ele>151.0</ele><time>2026-04-19T10:10:53.815Z</time></trkpt><trkpt lat="43.1960637" lon="11.4625921"><ele>151.0</ele><time>2026-04-19T10:10:54.815Z</time></trkpt><trkpt lat="43.1961138" lon="11.4624808"><ele>151.0</ele><time>2026-04-19T10:10:55.816Z</time></trkpt><trkpt lat="43.1961756" lon="11.4623562"><ele>151.0</ele><time>2026-04-19T10:10:56.816Z</time></trkpt><trkpt lat="43.1962268" lon="11.4622563"><ele>151.0</ele><time>2026-04-19T10:10:57.816Z</time></trkpt><trkpt lat="43.1962801" lon="11.4621424"><ele>151.0</ele><time>2026-04-19T10:10:58.815Z</time></trkpt><trkpt lat="43.1963523" lon="11.4620306"><ele>151.0</ele><time>2026-04-19T10:10:59.816Z</time></trkpt><trkpt lat="43.1964257" lon="11.461915"><ele>151.0</ele><time>2026-04-19T10:11:00.817Z</time></trkpt><trkpt lat="43.1965007" lon="11.4617845"><ele>152.0</ele><time>2026-04-19T10:11:01.816Z</time></trkpt><trkpt lat="43.1965878" lon="11.4616436"><ele>153.0</ele><time>2026-04-19T10:11:02.816Z</time></trkpt><trkpt lat="43.1966779" lon="11.4615009"><ele>154.0</ele><time>2026-04-19T10:11:03.816Z</time></trkpt><trkpt lat="43.1967721" lon="11.461356"><ele>155.0</ele><time>2026-04-19T10:11:04.815Z</time></trkpt><trkpt lat="43.1968643" lon="11.4612048"><ele>155.25</ele><time>2026-04-19T10:11:05.817Z</time></trkpt><trkpt lat="43.1969607" lon="11.4610545"><ele>155.5</ele><time>2026-04-19T10:11:06.816Z</time></trkpt><trkpt lat="43.1970571" lon="11.4609034"><ele>155.75</ele><time>2026-04-19T10:11:07.817Z</time></trkpt><trkpt lat="43.1971549" lon="11.4607515"><ele>156.0</ele><time>2026-04-19T10:11:08.817Z</time></trkpt><trkpt lat="43.1972494" lon="11.4606007"><ele>156.0</ele><time>2026-04-19T10:11:09.816Z</time></trkpt><trkpt lat="43.197341" lon="11.4604529"><ele>156.0</ele><time>2026-04-19T10:11:10.816Z</time></trkpt><trkpt lat="43.1974358" lon="11.4603073"><ele>156.0</ele><time>2026-04-19T10:11:11.815Z</time></trkpt><trkpt lat="43.1975265" lon="11.4601697"><ele>156.0</ele><time>2026-04-19T10:11:12.817Z</time></trkpt><trkpt lat="43.197615" lon="11.4600325"><ele>155.75</ele><time>2026-04-19T10:11:13.817Z</time></trkpt><trkpt lat="43.1976989" lon="11.4599058"><ele>155.5</ele><time>2026-04-19T10:11:14.816Z</time></trkpt><trkpt lat="43.1977824" lon="11.4597788"><ele>155.25</ele><time>2026-04-19T10:11:15.816Z</time></trkpt><trkpt lat="43.1978615" lon="11.4596586"><ele>155.0</ele><time>2026-04-19T10:11:16.817Z</time></trkpt><trkpt lat="43.1979369" lon="11.4595334"><ele>155.0</ele><time>2026-04-19T10:11:17.817Z</time></trkpt><trkpt lat="43.1980146" lon="11.4594099"><ele>155.0</ele><time>2026-04-19T10:11:18.815Z</time></trkpt><trkpt lat="43.1980981" lon="11.4592813"><ele>155.0</ele><time>2026-04-19T10:11:19.816Z</time></trkpt><trkpt lat="43.1981842" lon="11.4591398"><ele>155.0</ele><time>2026-04-19T10:11:20.815Z</time></trkpt><trkpt lat="43.198274" lon="11.4589917"><ele>155.75</ele><time>2026-04-19T10:11:21.817Z</time></trkpt><trkpt lat="43.1983635" lon="11.458843"><ele>156.5</ele><time>2026-04-19T10:11:22.817Z</time></trkpt><trkpt lat="43.1984504" lon="11.4587018"><ele>157.25</ele><time>2026-04-19T10:11:23.816Z</time></trkpt><trkpt lat="43.1985296" lon="11.4585728"><ele>158.0</ele><time>2026-04-19T10:11:24.817Z</time></trkpt><trkpt lat="43.1985976" lon="11.4584643"><ele>158.4</ele><time>2026-04-19T10:11:25.817Z</time></trkpt><trkpt lat="43.1986604" lon="11.458371"><ele>158.8</ele><time>2026-04-19T10:11:26.816Z</time></trkpt><trkpt lat="43.1987171" lon="11.4582836"><ele>159.2</ele><time>2026-04-19T10:11:27.817Z</time></trkpt><trkpt lat="43.1987685" lon="11.4582092"><ele>159.6</ele><time>2026-04-19T10:11:28.815Z</time></trkpt><trkpt lat="43.1988417" lon="11.4580948"><ele>160.0</ele><time>2026-04-19T10:11:30.816Z</time></trkpt><trkpt lat="43.1989078" lon="11.4579839"><ele>161.25</ele><time>2026-04-19T10:11:32.817Z</time></trkpt><trkpt lat="43.1990424" lon="11.4578228"><ele>162.5</ele><time>2026-04-19T10:11:34.817Z</time></trkpt><trkpt lat="43.1991331" lon="11.4577133"><ele>163.75</ele><time>2026-04-19T10:11:35.816Z</time></trkpt><trkpt lat="43.1992185" lon="11.4576085"><ele>165.0</ele><time>2026-04-19T10:11:36.817Z</time></trkpt><trkpt lat="43.1993166" lon="11.4575084"><ele>165.0</ele><time>2026-04-19T10:11:37.816Z</time></trkpt><trkpt lat="43.1994096" lon="11.4573976"><ele>165.0</ele><time>2026-04-19T10:11:38.817Z</time></trkpt><trkpt lat="43.1994991" lon="11.4573078"><ele>165.0</ele><time>2026-04-19T10:11:39.816Z</time></trkpt><trkpt lat="43.1995681" lon="11.4572134"><ele>165.0</ele><time>2026-04-19T10:11:40.816Z</time></trkpt><trkpt lat="43.1996464" lon="11.4571159"><ele>165.0</ele><time>2026-04-19T10:11:41.817Z</time></trkpt><trkpt lat="43.199701" lon="11.4570252"><ele>165.2</ele><time>2026-04-19T10:11:42.816Z</time></trkpt><trkpt lat="43.1997738" lon="11.4569445"><ele>165.4</ele><time>2026-04-19T10:11:43.817Z</time></trkpt><trkpt lat="43.1998527" lon="11.4568492"><ele>165.60000000000002</ele><time>2026-04-19T10:11:44.816Z</time></trkpt><trkpt lat="43.1999369" lon="11.4567479"><ele>165.8</ele><time>2026-04-19T10:11:45.816Z</time></trkpt><trkpt lat="43.2000255" lon="11.4566458"><ele>166.0</ele><time>2026-04-19T10:11:46.816Z</time></trkpt><trkpt lat="43.2000963" lon="11.4565612"><ele>166.0</ele><time>2026-04-19T10:11:47.817Z</time></trkpt><trkpt lat="43.2001751" lon="11.456456"><ele>166.0</ele><time>2026-04-19T10:11:49.817Z</time></trkpt><trkpt lat="43.2002435" lon="11.4563698"><ele>166.0</ele><time>2026-04-19T10:11:51.816Z</time></trkpt><trkpt lat="43.2003199" lon="11.4562578"><ele>166.0</ele><time>2026-04-19T10:11:53.817Z</time></trkpt><trkpt lat="43.200366" lon="11.4561881"><ele>166.0</ele><time>2026-04-19T10:11:54.817Z</time></trkpt><trkpt lat="43.2004201" lon="11.4561216"><ele>166.0</ele><time>2026-04-19T10:11:55.817Z</time></trkpt><trkpt lat="43.2004711" lon="11.4560511"><ele>166.0</ele><time>2026-04-19T10:11:56.815Z</time></trkpt><trkpt lat="43.2005246" lon="11.4559658"><ele>166.0</ele><time>2026-04-19T10:11:57.817Z</time></trkpt><trkpt lat="43.2005761" lon="11.4558914"><ele>166.0</ele><time>2026-04-19T10:11:58.817Z</time></trkpt><trkpt lat="43.2006286" lon="11.4558188"><ele>166.0</ele><time>2026-04-19T10:11:59.817Z</time></trkpt><trkpt lat="43.2006775" lon="11.4557485"><ele>166.0</ele><time>2026-04-19T10:12:00.815Z</time></trkpt><trkpt lat="43.2007272" lon="11.4556812"><ele>166.0</ele><time>2026-04-19T10:12:01.817Z</time></trkpt><trkpt lat="43.200775" lon="11.4556124"><ele>166.0</ele><time>2026-04-19T10:12:02.816Z</time></trkpt><trkpt lat="43.2008254" lon="11.4555368"><ele>166.0</ele><time>2026-04-19T10:12:03.817Z</time></trkpt><trkpt lat="43.200872" lon="11.4554689"><ele>166.0</ele><time>2026-04-19T10:12:04.817Z</time></trkpt><trkpt lat="43.2009151" lon="11.4553931"><ele>166.0</ele><time>2026-04-19T10:12:05.816Z</time></trkpt><trkpt lat="43.2009444" lon="11.4553078"><ele>166.0</ele><time>2026-04-19T10:12:06.815Z</time></trkpt><trkpt lat="43.2009654" lon="11.455218"><ele>166.0</ele><time>2026-04-19T10:12:07.817Z</time></trkpt><trkpt lat="43.2009696" lon="11.4551255"><ele>166.0</ele><time>2026-04-19T10:12:08.817Z</time></trkpt><trkpt lat="43.2009707" lon="11.4550264"><ele>165.57142857142856</ele><time>2026-04-19T10:12:09.817Z</time></trkpt><trkpt lat="43.2009739" lon="11.4549217"><ele>165.14285714285717</ele><time>2026-04-19T10:12:10.816Z</time></trkpt><trkpt lat="43.2009695" lon="11.4548292"><ele>164.71428571428572</ele><time>2026-04-19T10:12:11.816Z</time></trkpt><trkpt lat="43.2009655" lon="11.4547355"><ele>164.28571428571428</ele><time>2026-04-19T10:12:12.816Z</time></trkpt><trkpt lat="43.2009672" lon="11.45464"><ele>163.85714285714283</ele><time>2026-04-19T10:12:13.816Z</time></trkpt><trkpt lat="43.2009673" lon="11.4545417"><ele>163.42857142857144</ele><time>2026-04-19T10:12:14.816Z</time></trkpt><trkpt lat="43.200964" lon="11.4544453"><ele>163.0</ele><time>2026-04-19T10:12:15.817Z</time></trkpt><trkpt lat="43.2009574" lon="11.454344"><ele>162.20000000000002</ele><time>2026-04-19T10:12:16.817Z</time></trkpt><trkpt lat="43.2009431" lon="11.4542405"><ele>161.4</ele><time>2026-04-19T10:12:17.816Z</time></trkpt><trkpt lat="43.2009273" lon="11.4541251"><ele>160.60000000000002</ele><time>2026-04-19T10:12:18.816Z</time></trkpt><trkpt lat="43.200909" lon="11.4539872"><ele>159.8</ele><time>2026-04-19T10:12:19.816Z</time></trkpt><trkpt lat="43.2008962" lon="11.4538385"><ele>159.0</ele><time>2026-04-19T10:12:20.817Z</time></trkpt><trkpt lat="43.2008891" lon="11.4536808"><ele>157.6</ele><time>2026-04-19T10:12:21.816Z</time></trkpt><trkpt lat="43.2008883" lon="11.4535293"><ele>156.2</ele><time>2026-04-19T10:12:22.816Z</time></trkpt><trkpt lat="43.2008962" lon="11.4533741"><ele>154.79999999999998</ele><time>2026-04-19T10:12:23.816Z</time></trkpt><trkpt lat="43.2008922" lon="11.4532364"><ele>153.4</ele><time>2026-04-19T10:12:24.817Z</time></trkpt><trkpt lat="43.2008828" lon="11.453116"><ele>152.0</ele><time>2026-04-19T10:12:25.817Z</time></trkpt><trkpt lat="43.2008721" lon="11.4530117"><ele>151.6</ele><time>2026-04-19T10:12:26.816Z</time></trkpt><trkpt lat="43.200846" lon="11.4529077"><ele>151.2</ele><time>2026-04-19T10:12:27.816Z</time></trkpt><trkpt lat="43.2008094" lon="11.4527967"><ele>150.8</ele><time>2026-04-19T10:12:28.817Z</time></trkpt><trkpt lat="43.2007619" lon="11.45268"><ele>150.4</ele><time>2026-04-19T10:12:29.816Z</time></trkpt><trkpt lat="43.2007141" lon="11.4525595"><ele>150.0</ele><time>2026-04-19T10:12:30.816Z</time></trkpt><trkpt lat="43.2006735" lon="11.4524457"><ele>150.5</ele><time>2026-04-19T10:12:31.815Z</time></trkpt><trkpt lat="43.200641" lon="11.4523393"><ele>151.0</ele><time>2026-04-19T10:12:32.816Z</time></trkpt><trkpt lat="43.2006105" lon="11.4522278"><ele>151.5</ele><time>2026-04-19T10:12:33.816Z</time></trkpt><trkpt lat="43.200588" lon="11.4521107"><ele>152.0</ele><time>2026-04-19T10:12:34.815Z</time></trkpt><trkpt lat="43.2005619" lon="11.4519937"><ele>152.5</ele><time>2026-04-19T10:12:35.816Z</time></trkpt><trkpt lat="43.2005361" lon="11.4518769"><ele>153.0</ele><time>2026-04-19T10:12:36.817Z</time></trkpt><trkpt lat="43.200515" lon="11.4517645"><ele>153.20000000000002</ele><time>2026-04-19T10:12:37.816Z</time></trkpt><trkpt lat="43.2004955" lon="11.4516536"><ele>153.4</ele><time>2026-04-19T10:12:38.817Z</time></trkpt><trkpt lat="43.2004697" lon="11.4515378"><ele>153.60000000000002</ele><time>2026-04-19T10:12:39.816Z</time></trkpt><trkpt lat="43.200447" lon="11.451418"><ele>153.8</ele><time>2026-04-19T10:12:40.817Z</time></trkpt><trkpt lat="43.2004182" lon="11.4512924"><ele>154.0</ele><time>2026-04-19T10:12:41.817Z</time></trkpt><trkpt lat="43.200394" lon="11.4511574"><ele>154.5</ele><time>2026-04-19T10:12:42.817Z</time></trkpt><trkpt lat="43.2003565" lon="11.4510099"><ele>155.0</ele><time>2026-04-19T10:12:43.816Z</time></trkpt><trkpt lat="43.2003131" lon="11.4508326"><ele>155.5</ele><time>2026-04-19T10:12:44.817Z</time></trkpt><trkpt lat="43.2002679" lon="11.4506244"><ele>156.0</ele><time>2026-04-19T10:12:45.817Z</time></trkpt><trkpt lat="43.2002168" lon="11.450387"><ele>156.0</ele><time>2026-04-19T10:12:46.817Z</time></trkpt><trkpt lat="43.2001576" lon="11.4501304"><ele>156.0</ele><time>2026-04-19T10:12:47.817Z</time></trkpt><trkpt lat="43.2000891" lon="11.4498545"><ele>156.0</ele><time>2026-04-19T10:12:48.816Z</time></trkpt><trkpt lat="43.2000239" lon="11.4495904"><ele>156.0</ele><time>2026-04-19T10:12:49.815Z</time></trkpt><trkpt lat="43.1999615" lon="11.4493407"><ele>156.0</ele><time>2026-04-19T10:12:50.816Z</time></trkpt><trkpt lat="43.1999027" lon="11.4490992"><ele>156.0</ele><time>2026-04-19T10:12:51.817Z</time></trkpt><trkpt lat="43.1998479" lon="11.4488653"><ele>155.66666666666666</ele><time>2026-04-19T10:12:52.817Z</time></trkpt><trkpt lat="43.1997921" lon="11.4486279"><ele>155.33333333333331</ele><time>2026-04-19T10:12:53.816Z</time></trkpt><trkpt lat="43.1997327" lon="11.4483757"><ele>155.0</ele><time>2026-04-19T10:12:54.816Z</time></trkpt><trkpt lat="43.1996722" lon="11.4481289"><ele>155.0</ele><time>2026-04-19T10:12:55.817Z</time></trkpt><trkpt lat="43.1996174" lon="11.447893"><ele>155.0</ele><time>2026-04-19T10:12:56.817Z</time></trkpt><trkpt lat="43.1995647" lon="11.4476721"><ele>155.0</ele><time>2026-04-19T10:12:57.816Z</time></trkpt><trkpt lat="43.1995133" lon="11.4474598"><ele>155.0</ele><time>2026-04-19T10:12:58.816Z</time></trkpt><trkpt lat="43.1994593" lon="11.4472369"><ele>155.0</ele><time>2026-04-19T10:12:59.816Z</time></trkpt><trkpt lat="43.1993998" lon="11.4469953"><ele>155.0</ele><time>2026-04-19T10:13:00.817Z</time></trkpt><trkpt lat="43.1993393" lon="11.4467392"><ele>155.0</ele><time>2026-04-19T10:13:01.817Z</time></trkpt><trkpt lat="43.1992742" lon="11.4464721"><ele>155.0</ele><time>2026-04-19T10:13:02.816Z</time></trkpt><trkpt lat="43.199216" lon="11.4462097"><ele>155.0</ele><time>2026-04-19T10:13:03.815Z</time></trkpt><trkpt lat="43.199158" lon="11.4459604"><ele>155.33333333333331</ele><time>2026-04-19T10:13:04.817Z</time></trkpt><trkpt lat="43.1991025" lon="11.4457171"><ele>155.66666666666666</ele><time>2026-04-19T10:13:05.815Z</time></trkpt><trkpt lat="43.1990478" lon="11.4454837"><ele>156.0</ele><time>2026-04-19T10:13:06.816Z</time></trkpt><trkpt lat="43.1989971" lon="11.4452749"><ele>156.0</ele><time>2026-04-19T10:13:07.817Z</time></trkpt><trkpt lat="43.1989464" lon="11.4450753"><ele>156.0</ele><time>2026-04-19T10:13:08.816Z</time></trkpt><trkpt lat="43.1989001" lon="11.4448862"><ele>156.0</ele><time>2026-04-19T10:13:09.816Z</time></trkpt><trkpt lat="43.1988564" lon="11.4447099"><ele>156.0</ele><time>2026-04-19T10:13:10.816Z</time></trkpt><trkpt lat="43.1988107" lon="11.4445206"><ele>156.25</ele><time>2026-04-19T10:13:11.817Z</time></trkpt><trkpt lat="43.1987634" lon="11.4443295"><ele>156.5</ele><time>2026-04-19T10:13:12.817Z</time></trkpt><trkpt lat="43.1987242" lon="11.4441567"><ele>156.75</ele><time>2026-04-19T10:13:13.816Z</time></trkpt><trkpt lat="43.1986801" lon="11.4439965"><ele>157.0</ele><time>2026-04-19T10:13:14.817Z</time></trkpt><trkpt lat="43.1986427" lon="11.4438419"><ele>157.2</ele><time>2026-04-19T10:13:15.816Z</time></trkpt><trkpt lat="43.1986098" lon="11.4436992"><ele>157.39999999999998</ele><time>2026-04-19T10:13:16.816Z</time></trkpt><trkpt lat="43.198582" lon="11.443579"><ele>157.60000000000002</ele><time>2026-04-19T10:13:17.816Z</time></trkpt><trkpt lat="43.1985632" lon="11.4434875"><ele>157.8</ele><time>2026-04-19T10:13:18.815Z</time></trkpt><trkpt lat="43.1985432" lon="11.4433846"><ele>158.0</ele><time>2026-04-19T10:13:20.815Z</time></trkpt><trkpt lat="43.1984387" lon="11.4433506"><ele>158.0</ele><time>2026-04-19T10:13:25.816Z</time></trkpt><trkpt lat="43.1983548" lon="11.4433862"><ele>158.0</ele><time>2026-04-19T10:13:26.815Z</time></trkpt><trkpt lat="43.1982514" lon="11.4434381"><ele>158.0</ele><time>2026-04-19T10:13:27.815Z</time></trkpt><trkpt lat="43.1981162" lon="11.4435026"><ele>158.0</ele><time>2026-04-19T10:13:28.816Z</time></trkpt><trkpt lat="43.1979489" lon="11.4435844"><ele>158.0</ele><time>2026-04-19T10:13:29.815Z</time></trkpt><trkpt lat="43.1977715" lon="11.4436704"><ele>158.0</ele><time>2026-04-19T10:13:30.814Z</time></trkpt><trkpt lat="43.1975951" lon="11.4437582"><ele>158.0</ele><time>2026-04-19T10:13:31.815Z</time></trkpt><trkpt lat="43.1974295" lon="11.4438462"><ele>158.0</ele><time>2026-04-19T10:13:32.814Z</time></trkpt><trkpt lat="43.197275" lon="11.443927"><ele>158.0</ele><time>2026-04-19T10:13:33.816Z</time></trkpt><trkpt lat="43.1971281" lon="11.4440023"><ele>158.0</ele><time>2026-04-19T10:13:34.815Z</time></trkpt><trkpt lat="43.1969897" lon="11.4440765"><ele>158.0</ele><time>2026-04-19T10:13:35.816Z</time></trkpt><trkpt lat="43.1968416" lon="11.4441554"><ele>158.0</ele><time>2026-04-19T10:13:36.815Z</time></trkpt><trkpt lat="43.1966842" lon="11.44425"><ele>158.0</ele><time>2026-04-19T10:13:37.815Z</time></trkpt><trkpt lat="43.1965322" lon="11.4443589"><ele>159.0</ele><time>2026-04-19T10:13:38.814Z</time></trkpt><trkpt lat="43.196402" lon="11.4444803"><ele>160.0</ele><time>2026-04-19T10:13:39.816Z</time></trkpt><trkpt lat="43.196266" lon="11.4446132"><ele>161.0</ele><time>2026-04-19T10:13:40.815Z</time></trkpt><trkpt lat="43.1961408" lon="11.4448013"><ele>161.0</ele><time>2026-04-19T10:13:41.816Z</time></trkpt><trkpt lat="43.1960148" lon="11.44502"><ele>161.0</ele><time>2026-04-19T10:13:42.815Z</time></trkpt><trkpt lat="43.1959064" lon="11.4452524"><ele>161.0</ele><time>2026-04-19T10:13:43.815Z</time></trkpt><trkpt lat="43.1958291" lon="11.4455168"><ele>160.0</ele><time>2026-04-19T10:13:44.815Z</time></trkpt><trkpt lat="43.1957641" lon="11.4458307"><ele>159.0</ele><time>2026-04-19T10:13:45.816Z</time></trkpt><trkpt lat="43.19569" lon="11.4461578"><ele>164.0</ele><time>2026-04-19T10:13:46.815Z</time></trkpt><trkpt lat="43.1956046" lon="11.446511"><ele>169.0</ele><time>2026-04-19T10:13:47.815Z</time></trkpt><trkpt lat="43.1955365" lon="11.4468225"><ele>167.5</ele><time>2026-04-19T10:13:48.816Z</time></trkpt><trkpt lat="43.1954739" lon="11.4471331"><ele>166.0</ele><time>2026-04-19T10:13:49.816Z</time></trkpt><trkpt lat="43.1954171" lon="11.4474286"><ele>166.0</ele><time>2026-04-19T10:13:50.816Z</time></trkpt><trkpt lat="43.1953553" lon="11.4476952"><ele>166.0</ele><time>2026-04-19T10:13:51.816Z</time></trkpt><trkpt lat="43.1952918" lon="11.4479552"><ele>166.0</ele><time>2026-04-19T10:13:52.815Z</time></trkpt><trkpt lat="43.1952221" lon="11.4482001"><ele>164.33333333333334</ele><time>2026-04-19T10:13:53.816Z</time></trkpt><trkpt lat="43.1951391" lon="11.4484356"><ele>162.66666666666666</ele><time>2026-04-19T10:13:54.815Z</time></trkpt><trkpt lat="43.195031" lon="11.4486715"><ele>161.0</ele><time>2026-04-19T10:13:55.815Z</time></trkpt><trkpt lat="43.1949036" lon="11.4489085"><ele>164.5</ele><time>2026-04-19T10:13:56.814Z</time></trkpt><trkpt lat="43.1947686" lon="11.4491435"><ele>168.0</ele><time>2026-04-19T10:13:57.815Z</time></trkpt><trkpt lat="43.1946234" lon="11.4494004"><ele>164.0</ele><time>2026-04-19T10:13:58.816Z</time></trkpt><trkpt lat="43.1944677" lon="11.4496682"><ele>160.0</ele><time>2026-04-19T10:13:59.815Z</time></trkpt><trkpt lat="43.194304" lon="11.4499534"><ele>160.0</ele><time>2026-04-19T10:14:00.816Z</time></trkpt><trkpt lat="43.1941392" lon="11.4502368"><ele>160.0</ele><time>2026-04-19T10:14:01.815Z</time></trkpt><trkpt lat="43.1939786" lon="11.4505023"><ele>159.0</ele><time>2026-04-19T10:14:02.815Z</time></trkpt><trkpt lat="43.1938305" lon="11.4507603"><ele>158.0</ele><time>2026-04-19T10:14:03.814Z</time></trkpt><trkpt lat="43.1936835" lon="11.4510027"><ele>158.0</ele><time>2026-04-19T10:14:04.816Z</time></trkpt><trkpt lat="43.1935446" lon="11.451241"><ele>158.0</ele><time>2026-04-19T10:14:05.814Z</time></trkpt><trkpt lat="43.1934077" lon="11.4514748"><ele>158.0</ele><time>2026-04-19T10:14:06.815Z</time></trkpt><trkpt lat="43.1932721" lon="11.4517115"><ele>159.66666666666666</ele><time>2026-04-19T10:14:07.816Z</time></trkpt><trkpt lat="43.1931374" lon="11.4519428"><ele>161.33333333333334</ele><time>2026-04-19T10:14:08.816Z</time></trkpt><trkpt lat="43.1930118" lon="11.4521551"><ele>163.0</ele><time>2026-04-19T10:14:09.816Z</time></trkpt><trkpt lat="43.1928993" lon="11.4523632"><ele>163.66666666666669</ele><time>2026-04-19T10:14:10.815Z</time></trkpt><trkpt lat="43.1928025" lon="11.4525469"><ele>164.33333333333334</ele><time>2026-04-19T10:14:11.815Z</time></trkpt><trkpt lat="43.1927119" lon="11.4527221"><ele>165.0</ele><time>2026-04-19T10:14:12.814Z</time></trkpt><trkpt lat="43.1926674" lon="11.4528989"><ele>165.66666666666666</ele><time>2026-04-19T10:14:13.816Z</time></trkpt><trkpt lat="43.1926252" lon="11.4530757"><ele>166.33333333333331</ele><time>2026-04-19T10:14:14.815Z</time></trkpt><trkpt lat="43.1927815" lon="11.4532249"><ele>167.0</ele><time>2026-04-19T10:14:15.816Z</time></trkpt><trkpt lat="43.1928573" lon="11.4533929"><ele>167.0</ele><time>2026-04-19T10:14:16.816Z</time></trkpt><trkpt lat="43.1929448" lon="11.4535672"><ele>167.0</ele><time>2026-04-19T10:14:17.815Z</time></trkpt><trkpt lat="43.1930289" lon="11.4537572"><ele>167.0</ele><time>2026-04-19T10:14:18.815Z</time></trkpt><trkpt lat="43.1930989" lon="11.4539632"><ele>167.25</ele><time>2026-04-19T10:14:19.815Z</time></trkpt><trkpt lat="43.1930847" lon="11.454162"><ele>167.5</ele><time>2026-04-19T10:14:20.816Z</time></trkpt><trkpt lat="43.1931177" lon="11.4543377"><ele>167.75</ele><time>2026-04-19T10:14:21.814Z</time></trkpt><trkpt lat="43.1931175" lon="11.454498"><ele>168.0</ele><time>2026-04-19T10:14:22.816Z</time></trkpt><trkpt lat="43.1930981" lon="11.4546292"><ele>167.5</ele><time>2026-04-19T10:14:23.815Z</time></trkpt><trkpt lat="43.1930429" lon="11.454747"><ele>167.0</ele><time>2026-04-19T10:14:24.816Z</time></trkpt><trkpt lat="43.1929498" lon="11.4548485"><ele>166.5</ele><time>2026-04-19T10:14:25.814Z</time></trkpt><trkpt lat="43.1928422" lon="11.454934"><ele>166.0</ele><time>2026-04-19T10:14:26.816Z</time></trkpt><trkpt lat="43.1927283" lon="11.4549848"><ele>166.0</ele><time>2026-04-19T10:14:27.815Z</time></trkpt><trkpt lat="43.1926113" lon="11.4550028"><ele>166.0</ele><time>2026-04-19T10:14:28.815Z</time></trkpt><trkpt lat="43.1924814" lon="11.4549678"><ele>166.0</ele><time>2026-04-19T10:14:29.816Z</time></trkpt><trkpt lat="43.1923446" lon="11.4549138"><ele>166.0</ele><time>2026-04-19T10:14:30.815Z</time></trkpt><trkpt lat="43.1922207" lon="11.4548395"><ele>166.0</ele><time>2026-04-19T10:14:31.815Z</time></trkpt><trkpt lat="43.1921133" lon="11.4547352"><ele>166.0</ele><time>2026-04-19T10:14:32.816Z</time></trkpt><trkpt lat="43.1920194" lon="11.4545855"><ele>166.0</ele><time>2026-04-19T10:14:33.815Z</time></trkpt><trkpt lat="43.1919344" lon="11.4543955"><ele>166.0</ele><time>2026-04-19T10:14:34.816Z</time></trkpt><trkpt lat="43.1918425" lon="11.4541736"><ele>166.0</ele><time>2026-04-19T10:14:35.815Z</time></trkpt><trkpt lat="43.1917489" lon="11.4539406"><ele>166.0</ele><time>2026-04-19T10:14:36.816Z</time></trkpt><trkpt lat="43.1916649" lon="11.4537285"><ele>166.0</ele><time>2026-04-19T10:14:37.816Z</time></trkpt><trkpt lat="43.1915838" lon="11.4535473"><ele>167.25</ele><time>2026-04-19T10:14:38.816Z</time></trkpt><trkpt lat="43.1914917" lon="11.4534312"><ele>168.5</ele><time>2026-04-19T10:14:39.815Z</time></trkpt><trkpt lat="43.1913686" lon="11.4533554"><ele>169.75</ele><time>2026-04-19T10:14:40.816Z</time></trkpt><trkpt lat="43.1912197" lon="11.4533176"><ele>171.0</ele><time>2026-04-19T10:14:41.814Z</time></trkpt><trkpt lat="43.1910541" lon="11.4533329"><ele>171.0</ele><time>2026-04-19T10:14:42.816Z</time></trkpt><trkpt lat="43.1908597" lon="11.4533697"><ele>171.0</ele><time>2026-04-19T10:14:43.814Z</time></trkpt><trkpt lat="43.190661" lon="11.4534387"><ele>171.0</ele><time>2026-04-19T10:14:44.815Z</time></trkpt><trkpt lat="43.1904532" lon="11.453547"><ele>172.0</ele><time>2026-04-19T10:14:45.815Z</time></trkpt><trkpt lat="43.1902568" lon="11.4536734"><ele>173.0</ele><time>2026-04-19T10:14:46.816Z</time></trkpt><trkpt lat="43.1900689" lon="11.4537853"><ele>174.0</ele><time>2026-04-19T10:14:47.815Z</time></trkpt><trkpt lat="43.1899032" lon="11.453885"><ele>175.0</ele><time>2026-04-19T10:14:48.815Z</time></trkpt><trkpt lat="43.189734" lon="11.4539578"><ele>176.0</ele><time>2026-04-19T10:14:49.815Z</time></trkpt><trkpt lat="43.1895742" lon="11.4539944"><ele>177.0</ele><time>2026-04-19T10:14:50.815Z</time></trkpt><trkpt lat="43.1893967" lon="11.4540066"><ele>177.0</ele><time>2026-04-19T10:14:51.816Z</time></trkpt><trkpt lat="43.1892096" lon="11.4540101"><ele>177.0</ele><time>2026-04-19T10:14:52.816Z</time></trkpt><trkpt lat="43.1890094" lon="11.454008"><ele>177.0</ele><time>2026-04-19T10:14:53.814Z</time></trkpt><trkpt lat="43.1888146" lon="11.4540027"><ele>178.33333333333334</ele><time>2026-04-19T10:14:54.816Z</time></trkpt><trkpt lat="43.1886316" lon="11.4540025"><ele>179.66666666666669</ele><time>2026-04-19T10:14:55.815Z</time></trkpt><trkpt lat="43.1884584" lon="11.4540082"><ele>181.0</ele><time>2026-04-19T10:14:56.815Z</time></trkpt><trkpt lat="43.1882997" lon="11.4540213"><ele>180.33333333333334</ele><time>2026-04-19T10:14:57.816Z</time></trkpt><trkpt lat="43.1881461" lon="11.4540508"><ele>179.66666666666666</ele><time>2026-04-19T10:14:58.815Z</time></trkpt><trkpt lat="43.1879802" lon="11.4541193"><ele>179.0</ele><time>2026-04-19T10:14:59.814Z</time></trkpt><trkpt lat="43.1878116" lon="11.4542055"><ele>179.0</ele><time>2026-04-19T10:15:00.814Z</time></trkpt><trkpt lat="43.187629" lon="11.4543093"><ele>179.0</ele><time>2026-04-19T10:15:01.816Z</time></trkpt><trkpt lat="43.1874386" lon="11.4544179"><ele>179.0</ele><time>2026-04-19T10:15:02.816Z</time></trkpt><trkpt lat="43.1872375" lon="11.4545251"><ele>174.5</ele><time>2026-04-19T10:15:03.815Z</time></trkpt><trkpt lat="43.1870406" lon="11.4546411"><ele>170.0</ele><time>2026-04-19T10:15:04.815Z</time></trkpt><trkpt lat="43.1868154" lon="11.4547669"><ele>170.0</ele><time>2026-04-19T10:15:05.816Z</time></trkpt><trkpt lat="43.1865926" lon="11.4549003"><ele>170.0</ele><time>2026-04-19T10:15:06.815Z</time></trkpt><trkpt lat="43.1863675" lon="11.4550498"><ele>169.5</ele><time>2026-04-19T10:15:07.816Z</time></trkpt><trkpt lat="43.1861351" lon="11.4552274"><ele>169.0</ele><time>2026-04-19T10:15:08.814Z</time></trkpt><trkpt lat="43.1859021" lon="11.4554359"><ele>167.5</ele><time>2026-04-19T10:15:09.816Z</time></trkpt><trkpt lat="43.1856736" lon="11.4556724"><ele>166.0</ele><time>2026-04-19T10:15:10.815Z</time></trkpt><trkpt lat="43.1854591" lon="11.4559368"><ele>166.0</ele><time>2026-04-19T10:15:11.816Z</time></trkpt><trkpt lat="43.1852495" lon="11.4561998"><ele>166.0</ele><time>2026-04-19T10:15:12.814Z</time></trkpt><trkpt lat="43.1850511" lon="11.4564499"><ele>165.0</ele><time>2026-04-19T10:15:13.815Z</time></trkpt><trkpt lat="43.1848521" lon="11.4566929"><ele>164.0</ele><time>2026-04-19T10:15:14.814Z</time></trkpt><trkpt lat="43.1846659" lon="11.4569201"><ele>163.5</ele><time>2026-04-19T10:15:15.816Z</time></trkpt><trkpt lat="43.1844924" lon="11.457138"><ele>163.0</ele><time>2026-04-19T10:15:16.815Z</time></trkpt><trkpt lat="43.1843221" lon="11.4573361"><ele>163.0</ele><time>2026-04-19T10:15:17.814Z</time></trkpt><trkpt lat="43.1841537" lon="11.4575275"><ele>163.0</ele><time>2026-04-19T10:15:18.815Z</time></trkpt><trkpt lat="43.1839932" lon="11.4577187"><ele>163.0</ele><time>2026-04-19T10:15:19.815Z</time></trkpt><trkpt lat="43.1838281" lon="11.4579174"><ele>162.5</ele><time>2026-04-19T10:15:20.815Z</time></trkpt><trkpt lat="43.1836512" lon="11.4581038"><ele>162.0</ele><time>2026-04-19T10:15:21.815Z</time></trkpt><trkpt lat="43.1834587" lon="11.458286"><ele>162.0</ele><time>2026-04-19T10:15:22.815Z</time></trkpt><trkpt lat="43.1832624" lon="11.4584876"><ele>162.0</ele><time>2026-04-19T10:15:23.816Z</time></trkpt><trkpt lat="43.1830583" lon="11.4587013"><ele>161.0</ele><time>2026-04-19T10:15:24.816Z</time></trkpt><trkpt lat="43.1828459" lon="11.4589125"><ele>160.0</ele><time>2026-04-19T10:15:25.814Z</time></trkpt><trkpt lat="43.1826346" lon="11.4591328"><ele>160.0</ele><time>2026-04-19T10:15:26.815Z</time></trkpt><trkpt lat="43.1824193" lon="11.4593383"><ele>160.0</ele><time>2026-04-19T10:15:27.814Z</time></trkpt><trkpt lat="43.1822201" lon="11.4595395"><ele>160.0</ele><time>2026-04-19T10:15:28.815Z</time></trkpt><trkpt lat="43.1820297" lon="11.4597304"><ele>160.0</ele><time>2026-04-19T10:15:29.815Z</time></trkpt><trkpt lat="43.181848" lon="11.4599071"><ele>160.0</ele><time>2026-04-19T10:15:30.816Z</time></trkpt><trkpt lat="43.1816734" lon="11.4600901"><ele>160.0</ele><time>2026-04-19T10:15:31.815Z</time></trkpt><trkpt lat="43.1815051" lon="11.4602647"><ele>160.0</ele><time>2026-04-19T10:15:32.816Z</time></trkpt><trkpt lat="43.1813308" lon="11.4604424"><ele>160.66666666666669</ele><time>2026-04-19T10:15:33.816Z</time></trkpt><trkpt lat="43.1811655" lon="11.4606238"><ele>161.33333333333334</ele><time>2026-04-19T10:15:34.815Z</time></trkpt><trkpt lat="43.1810049" lon="11.4608021"><ele>162.0</ele><time>2026-04-19T10:15:35.816Z</time></trkpt><trkpt lat="43.180846" lon="11.4609665"><ele>162.0</ele><time>2026-04-19T10:15:36.815Z</time></trkpt><trkpt lat="43.1806868" lon="11.4611359"><ele>162.0</ele><time>2026-04-19T10:15:37.815Z</time></trkpt><trkpt lat="43.1805421" lon="11.4613082"><ele>162.0</ele><time>2026-04-19T10:15:38.815Z</time></trkpt><trkpt lat="43.1804126" lon="11.4614919"><ele>160.66666666666666</ele><time>2026-04-19T10:15:39.816Z</time></trkpt><trkpt lat="43.180338" lon="11.4617035"><ele>159.33333333333331</ele><time>2026-04-19T10:15:40.816Z</time></trkpt><trkpt lat="43.18026" lon="11.4619201"><ele>158.0</ele><time>2026-04-19T10:15:41.815Z</time></trkpt><trkpt lat="43.1801808" lon="11.4621213"><ele>158.0</ele><time>2026-04-19T10:15:42.815Z</time></trkpt><trkpt lat="43.1800945" lon="11.4623105"><ele>158.0</ele><time>2026-04-19T10:15:43.816Z</time></trkpt><trkpt lat="43.1799976" lon="11.4624886"><ele>158.0</ele><time>2026-04-19T10:15:44.816Z</time></trkpt><trkpt lat="43.179864" lon="11.4626057"><ele>157.66666666666666</ele><time>2026-04-19T10:15:45.816Z</time></trkpt><trkpt lat="43.1797231" lon="11.462689"><ele>157.33333333333334</ele><time>2026-04-19T10:15:46.816Z</time></trkpt><trkpt lat="43.179591" lon="11.4627645"><ele>157.0</ele><time>2026-04-19T10:15:47.816Z</time></trkpt><trkpt lat="43.1794173" lon="11.4627599"><ele>157.0</ele><time>2026-04-19T10:15:48.816Z</time></trkpt><trkpt lat="43.1792347" lon="11.4627311"><ele>157.0</ele><time>2026-04-19T10:15:49.814Z</time></trkpt><trkpt lat="43.1790397" lon="11.4626701"><ele>157.0</ele><time>2026-04-19T10:15:50.815Z</time></trkpt><trkpt lat="43.1788377" lon="11.4625934"><ele>155.0</ele><time>2026-04-19T10:15:51.816Z</time></trkpt><trkpt lat="43.1784541" lon="11.4624575"><ele>153.0</ele><time>2026-04-19T10:15:53.816Z</time></trkpt><trkpt lat="43.1782669" lon="11.4624071"><ele>153.33333333333334</ele><time>2026-04-19T10:15:54.815Z</time></trkpt><trkpt lat="43.1780911" lon="11.4624219"><ele>153.66666666666669</ele><time>2026-04-19T10:15:55.815Z</time></trkpt><trkpt lat="43.177902" lon="11.462473"><ele>154.0</ele><time>2026-04-19T10:15:56.815Z</time></trkpt><trkpt lat="43.1776983" lon="11.4625477"><ele>154.0</ele><time>2026-04-19T10:15:57.815Z</time></trkpt><trkpt lat="43.1774797" lon="11.4626306"><ele>154.0</ele><time>2026-04-19T10:15:58.816Z</time></trkpt><trkpt lat="43.177252" lon="11.4627271"><ele>153.5</ele><time>2026-04-19T10:15:59.815Z</time></trkpt><trkpt lat="43.1770179" lon="11.4628249"><ele>153.0</ele><time>2026-04-19T10:16:00.815Z</time></trkpt><trkpt lat="43.176774" lon="11.4629214"><ele>152.5</ele><time>2026-04-19T10:16:01.815Z</time></trkpt><trkpt lat="43.176538" lon="11.4630165"><ele>152.0</ele><time>2026-04-19T10:16:02.816Z</time></trkpt><trkpt lat="43.1763116" lon="11.4631057"><ele>152.0</ele><time>2026-04-19T10:16:03.815Z</time></trkpt><trkpt lat="43.1760936" lon="11.4631943"><ele>152.0</ele><time>2026-04-19T10:16:04.816Z</time></trkpt><trkpt lat="43.1758826" lon="11.46328"><ele>152.0</ele><time>2026-04-19T10:16:05.816Z</time></trkpt><trkpt lat="43.1756731" lon="11.4633687"><ele>151.33333333333331</ele><time>2026-04-19T10:16:06.816Z</time></trkpt><trkpt lat="43.1754695" lon="11.463451"><ele>150.66666666666666</ele><time>2026-04-19T10:16:07.816Z</time></trkpt><trkpt lat="43.1752642" lon="11.4635313"><ele>150.0</ele><time>2026-04-19T10:16:08.815Z</time></trkpt><trkpt lat="43.1750843" lon="11.4636066"><ele>150.0</ele><time>2026-04-19T10:16:09.815Z</time></trkpt><trkpt lat="43.174902" lon="11.4636781"><ele>150.0</ele><time>2026-04-19T10:16:10.815Z</time></trkpt><trkpt lat="43.1747239" lon="11.4637473"><ele>150.0</ele><time>2026-04-19T10:16:11.815Z</time></trkpt><trkpt lat="43.1745444" lon="11.4638196"><ele>149.33333333333334</ele><time>2026-04-19T10:16:12.814Z</time></trkpt><trkpt lat="43.174372" lon="11.4638868"><ele>148.66666666666669</ele><time>2026-04-19T10:16:13.815Z</time></trkpt><trkpt lat="43.1742055" lon="11.4639519"><ele>148.0</ele><time>2026-04-19T10:16:14.815Z</time></trkpt><trkpt lat="43.1740412" lon="11.4640135"><ele>148.66666666666669</ele><time>2026-04-19T10:16:15.814Z</time></trkpt><trkpt lat="43.1738805" lon="11.4640752"><ele>149.33333333333334</ele><time>2026-04-19T10:16:16.814Z</time></trkpt><trkpt lat="43.1737154" lon="11.4641428"><ele>150.0</ele><time>2026-04-19T10:16:17.815Z</time></trkpt><trkpt lat="43.173532" lon="11.4642189"><ele>150.0</ele><time>2026-04-19T10:16:18.815Z</time></trkpt><trkpt lat="43.1733328" lon="11.4643031"><ele>150.0</ele><time>2026-04-19T10:16:19.814Z</time></trkpt><trkpt lat="43.1731163" lon="11.4643926"><ele>150.0</ele><time>2026-04-19T10:16:20.815Z</time></trkpt><trkpt lat="43.1728979" lon="11.4644862"><ele>150.0</ele><time>2026-04-19T10:16:21.815Z</time></trkpt><trkpt lat="43.1726694" lon="11.4645779"><ele>150.0</ele><time>2026-04-19T10:16:22.815Z</time></trkpt><trkpt lat="43.1724475" lon="11.4646541"><ele>149.33333333333334</ele><time>2026-04-19T10:16:23.814Z</time></trkpt><trkpt lat="43.1722375" lon="11.4647332"><ele>148.66666666666669</ele><time>2026-04-19T10:16:24.815Z</time></trkpt><trkpt lat="43.1720359" lon="11.4648127"><ele>148.0</ele><time>2026-04-19T10:16:25.815Z</time></trkpt><trkpt lat="43.1718451" lon="11.4648881"><ele>148.0</ele><time>2026-04-19T10:16:26.815Z</time></trkpt><trkpt lat="43.1716602" lon="11.4649581"><ele>148.0</ele><time>2026-04-19T10:16:27.814Z</time></trkpt><trkpt lat="43.1714864" lon="11.4650244"><ele>148.0</ele><time>2026-04-19T10:16:28.814Z</time></trkpt><trkpt lat="43.1713199" lon="11.4650937"><ele>148.25</ele><time>2026-04-19T10:16:29.814Z</time></trkpt><trkpt lat="43.171166" lon="11.4651559"><ele>148.5</ele><time>2026-04-19T10:16:30.814Z</time></trkpt><trkpt lat="43.171021" lon="11.4652153"><ele>148.75</ele><time>2026-04-19T10:16:31.814Z</time></trkpt><trkpt lat="43.1708971" lon="11.4652638"><ele>149.0</ele><time>2026-04-19T10:16:32.815Z</time></trkpt><trkpt lat="43.1707786" lon="11.465309"><ele>149.0</ele><time>2026-04-19T10:16:33.814Z</time></trkpt><trkpt lat="43.1706746" lon="11.4653491"><ele>149.0</ele><time>2026-04-19T10:16:34.814Z</time></trkpt><trkpt lat="43.1705807" lon="11.465388"><ele>149.0</ele><time>2026-04-19T10:16:35.815Z</time></trkpt><trkpt lat="43.1704826" lon="11.4654271"><ele>149.0</ele><time>2026-04-19T10:16:36.814Z</time></trkpt><trkpt lat="43.170369" lon="11.4654734"><ele>149.0</ele><time>2026-04-19T10:16:37.815Z</time></trkpt><trkpt lat="43.1702387" lon="11.4655305"><ele>149.0</ele><time>2026-04-19T10:16:38.814Z</time></trkpt><trkpt lat="43.1701142" lon="11.4655823"><ele>149.0</ele><time>2026-04-19T10:16:39.814Z</time></trkpt><trkpt lat="43.169943" lon="11.4656391"><ele>149.0</ele><time>2026-04-19T10:16:40.815Z</time></trkpt><trkpt lat="43.1697454" lon="11.4656841"><ele>149.33333333333331</ele><time>2026-04-19T10:16:41.815Z</time></trkpt><trkpt lat="43.1695651" lon="11.4657099"><ele>149.66666666666666</ele><time>2026-04-19T10:16:42.814Z</time></trkpt><trkpt lat="43.1693932" lon="11.4657191"><ele>150.0</ele><time>2026-04-19T10:16:43.814Z</time></trkpt><trkpt lat="43.169216" lon="11.4657187"><ele>150.0</ele><time>2026-04-19T10:16:44.815Z</time></trkpt><trkpt lat="43.1690315" lon="11.4656992"><ele>150.0</ele><time>2026-04-19T10:16:45.815Z</time></trkpt><trkpt lat="43.1688491" lon="11.465664"><ele>150.0</ele><time>2026-04-19T10:16:46.814Z</time></trkpt><trkpt lat="43.1686688" lon="11.4656114"><ele>149.66666666666666</ele><time>2026-04-19T10:16:47.814Z</time></trkpt><trkpt lat="43.1684854" lon="11.4655312"><ele>149.33333333333331</ele><time>2026-04-19T10:16:48.815Z</time></trkpt><trkpt lat="43.1683153" lon="11.4654416"><ele>149.0</ele><time>2026-04-19T10:16:49.815Z</time></trkpt><trkpt lat="43.1681608" lon="11.4653561"><ele>149.0</ele><time>2026-04-19T10:16:50.815Z</time></trkpt><trkpt lat="43.1679977" lon="11.4652671"><ele>149.0</ele><time>2026-04-19T10:16:51.814Z</time></trkpt><trkpt lat="43.1678347" lon="11.4651772"><ele>149.0</ele><time>2026-04-19T10:16:52.814Z</time></trkpt><trkpt lat="43.1676723" lon="11.465108"><ele>149.0</ele><time>2026-04-19T10:16:53.815Z</time></trkpt><trkpt lat="43.1675045" lon="11.4650734"><ele>149.0</ele><time>2026-04-19T10:16:54.813Z</time></trkpt><trkpt lat="43.1673444" lon="11.4650402"><ele>149.0</ele><time>2026-04-19T10:16:55.814Z</time></trkpt><trkpt lat="43.1671932" lon="11.4650343"><ele>148.66666666666666</ele><time>2026-04-19T10:16:56.815Z</time></trkpt><trkpt lat="43.1670304" lon="11.4650855"><ele>148.33333333333334</ele><time>2026-04-19T10:16:57.815Z</time></trkpt><trkpt lat="43.1668789" lon="11.4651299"><ele>148.0</ele><time>2026-04-19T10:16:58.814Z</time></trkpt><trkpt lat="43.1667285" lon="11.46519"><ele>148.0</ele><time>2026-04-19T10:16:59.815Z</time></trkpt><trkpt lat="43.1665858" lon="11.4653155"><ele>148.0</ele><time>2026-04-19T10:17:00.815Z</time></trkpt><trkpt lat="43.1664489" lon="11.4654499"><ele>148.0</ele><time>2026-04-19T10:17:01.814Z</time></trkpt><trkpt lat="43.1663286" lon="11.4655933"><ele>147.0</ele><time>2026-04-19T10:17:02.814Z</time></trkpt><trkpt lat="43.1662157" lon="11.4657367"><ele>146.0</ele><time>2026-04-19T10:17:03.815Z</time></trkpt><trkpt lat="43.1661192" lon="11.465884"><ele>145.0</ele><time>2026-04-19T10:17:04.815Z</time></trkpt><trkpt lat="43.1660192" lon="11.4660185"><ele>144.0</ele><time>2026-04-19T10:17:05.814Z</time></trkpt><trkpt lat="43.1659263" lon="11.4661444"><ele>144.0</ele><time>2026-04-19T10:17:06.815Z</time></trkpt><trkpt lat="43.1658273" lon="11.4662568"><ele>144.0</ele><time>2026-04-19T10:17:07.814Z</time></trkpt><trkpt lat="43.1657161" lon="11.4663698"><ele>144.0</ele><time>2026-04-19T10:17:08.814Z</time></trkpt><trkpt lat="43.1655741" lon="11.4664683"><ele>144.0</ele><time>2026-04-19T10:17:09.815Z</time></trkpt><trkpt lat="43.1654119" lon="11.4665394"><ele>144.33333333333334</ele><time>2026-04-19T10:17:10.815Z</time></trkpt><trkpt lat="43.1652393" lon="11.4666418"><ele>144.66666666666669</ele><time>2026-04-19T10:17:11.813Z</time></trkpt><trkpt lat="43.1650693" lon="11.4667659"><ele>145.0</ele><time>2026-04-19T10:17:12.815Z</time></trkpt><trkpt lat="43.1648619" lon="11.4668999"><ele>145.0</ele><time>2026-04-19T10:17:13.815Z</time></trkpt><trkpt lat="43.1646538" lon="11.4670434"><ele>145.0</ele><time>2026-04-19T10:17:14.814Z</time></trkpt><trkpt lat="43.1644423" lon="11.4671931"><ele>145.5</ele><time>2026-04-19T10:17:15.814Z</time></trkpt><trkpt lat="43.164225" lon="11.4673454"><ele>146.0</ele><time>2026-04-19T10:17:16.814Z</time></trkpt><trkpt lat="43.1640175" lon="11.4674865"><ele>145.33333333333331</ele><time>2026-04-19T10:17:17.814Z</time></trkpt><trkpt lat="43.1638198" lon="11.4676246"><ele>144.66666666666666</ele><time>2026-04-19T10:17:18.814Z</time></trkpt><trkpt lat="43.1636335" lon="11.4677582"><ele>144.0</ele><time>2026-04-19T10:17:19.815Z</time></trkpt><trkpt lat="43.1634595" lon="11.4678874"><ele>144.66666666666666</ele><time>2026-04-19T10:17:20.814Z</time></trkpt><trkpt lat="43.1632822" lon="11.4680131"><ele>145.33333333333331</ele><time>2026-04-19T10:17:21.814Z</time></trkpt><trkpt lat="43.1631001" lon="11.468136"><ele>146.0</ele><time>2026-04-19T10:17:22.813Z</time></trkpt><trkpt lat="43.1628983" lon="11.4682464"><ele>147.0</ele><time>2026-04-19T10:17:23.814Z</time></trkpt><trkpt lat="43.1626806" lon="11.4683171"><ele>148.0</ele><time>2026-04-19T10:17:24.815Z</time></trkpt><trkpt lat="43.1624445" lon="11.468368"><ele>149.5</ele><time>2026-04-19T10:17:25.814Z</time></trkpt><trkpt lat="43.1622011" lon="11.4684192"><ele>151.0</ele><time>2026-04-19T10:17:26.814Z</time></trkpt><trkpt lat="43.1619522" lon="11.4684689"><ele>151.0</ele><time>2026-04-19T10:17:27.815Z</time></trkpt><trkpt lat="43.1617145" lon="11.4685174"><ele>151.0</ele><time>2026-04-19T10:17:28.815Z</time></trkpt><trkpt lat="43.1614876" lon="11.4685651"><ele>150.33333333333334</ele><time>2026-04-19T10:17:29.814Z</time></trkpt><trkpt lat="43.1612721" lon="11.4686098"><ele>149.66666666666666</ele><time>2026-04-19T10:17:30.815Z</time></trkpt><trkpt lat="43.1610749" lon="11.4686563"><ele>149.0</ele><time>2026-04-19T10:17:31.814Z</time></trkpt><trkpt lat="43.1608861" lon="11.4687185"><ele>148.0</ele><time>2026-04-19T10:17:32.815Z</time></trkpt><trkpt lat="43.1607074" lon="11.4688045"><ele>147.0</ele><time>2026-04-19T10:17:33.815Z</time></trkpt><trkpt lat="43.1605301" lon="11.4689302"><ele>146.0</ele><time>2026-04-19T10:17:34.815Z</time></trkpt><trkpt lat="43.1603483" lon="11.4690832"><ele>146.0</ele><time>2026-04-19T10:17:35.815Z</time></trkpt><trkpt lat="43.1601632" lon="11.4692543"><ele>146.0</ele><time>2026-04-19T10:17:36.814Z</time></trkpt><trkpt lat="43.1599761" lon="11.4694325"><ele>146.5</ele><time>2026-04-19T10:17:37.814Z</time></trkpt><trkpt lat="43.1597826" lon="11.4696192"><ele>147.0</ele><time>2026-04-19T10:17:38.815Z</time></trkpt><trkpt lat="43.1595835" lon="11.4698018"><ele>147.0</ele><time>2026-04-19T10:17:39.813Z</time></trkpt><trkpt lat="43.1593837" lon="11.4699851"><ele>147.0</ele><time>2026-04-19T10:17:40.814Z</time></trkpt><trkpt lat="43.1591848" lon="11.4701644"><ele>147.0</ele><time>2026-04-19T10:17:41.814Z</time></trkpt><trkpt lat="43.1589853" lon="11.4703377"><ele>147.0</ele><time>2026-04-19T10:17:42.815Z</time></trkpt><trkpt lat="43.1587813" lon="11.4705092"><ele>147.0</ele><time>2026-04-19T10:17:43.814Z</time></trkpt><trkpt lat="43.158571" lon="11.4706663"><ele>147.0</ele><time>2026-04-19T10:17:44.815Z</time></trkpt><trkpt lat="43.1583661" lon="11.4708223"><ele>146.66666666666666</ele><time>2026-04-19T10:17:45.814Z</time></trkpt><trkpt lat="43.1581723" lon="11.470967"><ele>146.33333333333331</ele><time>2026-04-19T10:17:46.814Z</time></trkpt><trkpt lat="43.157981" lon="11.4710949"><ele>146.0</ele><time>2026-04-19T10:17:47.814Z</time></trkpt><trkpt lat="43.1577861" lon="11.4712025"><ele>147.0</ele><time>2026-04-19T10:17:48.814Z</time></trkpt><trkpt lat="43.1575731" lon="11.4712783"><ele>148.0</ele><time>2026-04-19T10:17:49.815Z</time></trkpt><trkpt lat="43.1573575" lon="11.4713307"><ele>149.0</ele><time>2026-04-19T10:17:50.813Z</time></trkpt><trkpt lat="43.157128" lon="11.4713852"><ele>149.0</ele><time>2026-04-19T10:17:51.813Z</time></trkpt><trkpt lat="43.1568848" lon="11.4714481"><ele>149.0</ele><time>2026-04-19T10:17:52.814Z</time></trkpt><trkpt lat="43.1566338" lon="11.4715106"><ele>148.5</ele><time>2026-04-19T10:17:53.815Z</time></trkpt><trkpt lat="43.1563767" lon="11.4715705"><ele>148.0</ele><time>2026-04-19T10:17:54.814Z</time></trkpt><trkpt lat="43.1561198" lon="11.4716388"><ele>148.0</ele><time>2026-04-19T10:17:55.814Z</time></trkpt><trkpt lat="43.1558542" lon="11.4716945"><ele>148.0</ele><time>2026-04-19T10:17:56.814Z</time></trkpt><trkpt lat="43.1555917" lon="11.4717523"><ele>146.5</ele><time>2026-04-19T10:17:57.813Z</time></trkpt><trkpt lat="43.1553298" lon="11.4718077"><ele>145.0</ele><time>2026-04-19T10:17:58.815Z</time></trkpt><trkpt lat="43.1550692" lon="11.4718645"><ele>144.5</ele><time>2026-04-19T10:17:59.814Z</time></trkpt><trkpt lat="43.1548088" lon="11.4719273"><ele>144.0</ele><time>2026-04-19T10:18:00.812Z</time></trkpt><trkpt lat="43.15455" lon="11.4719908"><ele>144.0</ele><time>2026-04-19T10:18:01.812Z</time></trkpt><trkpt lat="43.1542909" lon="11.4720514"><ele>144.0</ele><time>2026-04-19T10:18:02.813Z</time></trkpt><trkpt lat="43.1540343" lon="11.4721099"><ele>143.5</ele><time>2026-04-19T10:18:03.812Z</time></trkpt><trkpt lat="43.1537742" lon="11.4721723"><ele>143.0</ele><time>2026-04-19T10:18:04.813Z</time></trkpt><trkpt lat="43.1535246" lon="11.4722317"><ele>143.0</ele><time>2026-04-19T10:18:05.814Z</time></trkpt><trkpt lat="43.1532859" lon="11.4722812"><ele>143.0</ele><time>2026-04-19T10:18:06.813Z</time></trkpt><trkpt lat="43.15305" lon="11.4723306"><ele>143.0</ele><time>2026-04-19T10:18:07.814Z</time></trkpt><trkpt lat="43.1528148" lon="11.4723835"><ele>143.0</ele><time>2026-04-19T10:18:08.812Z</time></trkpt><trkpt lat="43.1525851" lon="11.4724384"><ele>143.0</ele><time>2026-04-19T10:18:09.813Z</time></trkpt><trkpt lat="43.1524213" lon="11.4724794"><ele>143.0</ele><time>2026-04-19T10:18:10.813Z</time></trkpt><trkpt lat="43.1522215" lon="11.4725469"><ele>143.0</ele><time>2026-04-19T10:18:11.814Z</time></trkpt><trkpt lat="43.1520358" lon="11.472639"><ele>143.0</ele><time>2026-04-19T10:18:12.813Z</time></trkpt><trkpt lat="43.151841" lon="11.472749"><ele>143.0</ele><time>2026-04-19T10:18:13.814Z</time></trkpt><trkpt lat="43.1516518" lon="11.4728741"><ele>143.0</ele><time>2026-04-19T10:18:14.813Z</time></trkpt><trkpt lat="43.1514681" lon="11.4730109"><ele>144.66666666666666</ele><time>2026-04-19T10:18:15.812Z</time></trkpt><trkpt lat="43.1512865" lon="11.473165"><ele>146.33333333333334</ele><time>2026-04-19T10:18:16.814Z</time></trkpt><trkpt lat="43.1511206" lon="11.4733332"><ele>148.0</ele><time>2026-04-19T10:18:17.814Z</time></trkpt><trkpt lat="43.1509498" lon="11.4734913"><ele>148.0</ele><time>2026-04-19T10:18:18.813Z</time></trkpt><trkpt lat="43.150774" lon="11.4736647"><ele>148.0</ele><time>2026-04-19T10:18:19.814Z</time></trkpt><trkpt lat="43.1506001" lon="11.4738389"><ele>148.0</ele><time>2026-04-19T10:18:20.814Z</time></trkpt><trkpt lat="43.1504217" lon="11.4739985"><ele>147.66666666666669</ele><time>2026-04-19T10:18:21.813Z</time></trkpt><trkpt lat="43.150231" lon="11.4741488"><ele>147.33333333333334</ele><time>2026-04-19T10:18:22.814Z</time></trkpt><trkpt lat="43.1500286" lon="11.4742797"><ele>147.0</ele><time>2026-04-19T10:18:23.814Z</time></trkpt><trkpt lat="43.149828" lon="11.4744105"><ele>147.33333333333334</ele><time>2026-04-19T10:18:24.814Z</time></trkpt><trkpt lat="43.1496274" lon="11.4745336"><ele>147.66666666666669</ele><time>2026-04-19T10:18:25.813Z</time></trkpt><trkpt lat="43.1494291" lon="11.4746582"><ele>148.0</ele><time>2026-04-19T10:18:26.814Z</time></trkpt><trkpt lat="43.1492358" lon="11.4747711"><ele>147.33333333333334</ele><time>2026-04-19T10:18:27.813Z</time></trkpt><trkpt lat="43.1490311" lon="11.4748681"><ele>146.66666666666666</ele><time>2026-04-19T10:18:28.814Z</time></trkpt><trkpt lat="43.1488192" lon="11.4749518"><ele>146.0</ele><time>2026-04-19T10:18:29.813Z</time></trkpt><trkpt lat="43.1485974" lon="11.4750355"><ele>146.0</ele><time>2026-04-19T10:18:30.812Z</time></trkpt><trkpt lat="43.1483689" lon="11.47512"><ele>146.0</ele><time>2026-04-19T10:18:31.813Z</time></trkpt><trkpt lat="43.1481392" lon="11.4752042"><ele>145.33333333333331</ele><time>2026-04-19T10:18:32.813Z</time></trkpt><trkpt lat="43.1479213" lon="11.4752861"><ele>144.66666666666666</ele><time>2026-04-19T10:18:33.814Z</time></trkpt><trkpt lat="43.1477194" lon="11.475361"><ele>144.0</ele><time>2026-04-19T10:18:34.814Z</time></trkpt><trkpt lat="43.1475348" lon="11.4754228"><ele>145.33333333333334</ele><time>2026-04-19T10:18:35.814Z</time></trkpt><trkpt lat="43.1473554" lon="11.475495"><ele>146.66666666666669</ele><time>2026-04-19T10:18:36.813Z</time></trkpt><trkpt lat="43.1471807" lon="11.4755585"><ele>148.0</ele><time>2026-04-19T10:18:37.814Z</time></trkpt><trkpt lat="43.1470137" lon="11.4756164"><ele>148.0</ele><time>2026-04-19T10:18:38.813Z</time></trkpt><trkpt lat="43.1468423" lon="11.4756797"><ele>148.0</ele><time>2026-04-19T10:18:39.814Z</time></trkpt><trkpt lat="43.1466692" lon="11.4757478"><ele>148.0</ele><time>2026-04-19T10:18:40.814Z</time></trkpt><trkpt lat="43.1464845" lon="11.4758147"><ele>147.0</ele><time>2026-04-19T10:18:41.813Z</time></trkpt><trkpt lat="43.1462994" lon="11.4758852"><ele>146.0</ele><time>2026-04-19T10:18:42.813Z</time></trkpt><trkpt lat="43.1461163" lon="11.475945"><ele>145.0</ele><time>2026-04-19T10:18:43.814Z</time></trkpt><trkpt lat="43.1459241" lon="11.4760191"><ele>145.0</ele><time>2026-04-19T10:18:44.813Z</time></trkpt><trkpt lat="43.1457281" lon="11.4760867"><ele>145.0</ele><time>2026-04-19T10:18:45.813Z</time></trkpt><trkpt lat="43.1455357" lon="11.4761425"><ele>145.0</ele><time>2026-04-19T10:18:46.813Z</time></trkpt><trkpt lat="43.1453167" lon="11.4761819"><ele>144.0</ele><time>2026-04-19T10:18:47.814Z</time></trkpt><trkpt lat="43.1451044" lon="11.4762154"><ele>143.0</ele><time>2026-04-19T10:18:48.813Z</time></trkpt><trkpt lat="43.144919" lon="11.4762226"><ele>142.0</ele><time>2026-04-19T10:18:49.813Z</time></trkpt><trkpt lat="43.1447414" lon="11.4762072"><ele>142.0</ele><time>2026-04-19T10:18:50.814Z</time></trkpt><trkpt lat="43.1445827" lon="11.476172"><ele>142.0</ele><time>2026-04-19T10:18:51.813Z</time></trkpt><trkpt lat="43.1444326" lon="11.4761715"><ele>142.0</ele><time>2026-04-19T10:18:52.814Z</time></trkpt><trkpt lat="43.1442891" lon="11.47621"><ele>142.0</ele><time>2026-04-19T10:18:53.813Z</time></trkpt><trkpt lat="43.1441362" lon="11.4762364"><ele>142.0</ele><time>2026-04-19T10:18:54.813Z</time></trkpt><trkpt lat="43.1440068" lon="11.4764211"><ele>142.0</ele><time>2026-04-19T10:18:55.813Z</time></trkpt><trkpt lat="43.1438624" lon="11.476566"><ele>142.33333333333334</ele><time>2026-04-19T10:18:56.814Z</time></trkpt><trkpt lat="43.1437296" lon="11.4767051"><ele>142.66666666666666</ele><time>2026-04-19T10:18:57.813Z</time></trkpt><trkpt lat="43.1436104" lon="11.476834"><ele>143.0</ele><time>2026-04-19T10:18:58.814Z</time></trkpt><trkpt lat="43.1435028" lon="11.4769547"><ele>143.0</ele><time>2026-04-19T10:18:59.814Z</time></trkpt><trkpt lat="43.1434073" lon="11.4770648"><ele>143.0</ele><time>2026-04-19T10:19:00.813Z</time></trkpt><trkpt lat="43.1433269" lon="11.4771755"><ele>143.0</ele><time>2026-04-19T10:19:01.814Z</time></trkpt><trkpt lat="43.1432525" lon="11.4773039"><ele>143.0</ele><time>2026-04-19T10:19:02.813Z</time></trkpt><trkpt lat="43.1431783" lon="11.4774542"><ele>143.0</ele><time>2026-04-19T10:19:03.814Z</time></trkpt><trkpt lat="43.1431111" lon="11.4776272"><ele>143.0</ele><time>2026-04-19T10:19:04.814Z</time></trkpt><trkpt lat="43.1430526" lon="11.477828"><ele>143.0</ele><time>2026-04-19T10:19:05.812Z</time></trkpt><trkpt lat="43.142996" lon="11.478047"><ele>143.0</ele><time>2026-04-19T10:19:06.814Z</time></trkpt><trkpt lat="43.1429572" lon="11.4783008"><ele>143.0</ele><time>2026-04-19T10:19:07.812Z</time></trkpt><trkpt lat="43.1429171" lon="11.4785549"><ele>143.0</ele><time>2026-04-19T10:19:08.813Z</time></trkpt><trkpt lat="43.1428786" lon="11.4787969"><ele>143.0</ele><time>2026-04-19T10:19:09.813Z</time></trkpt><trkpt lat="43.1428387" lon="11.4790331"><ele>143.0</ele><time>2026-04-19T10:19:10.813Z</time></trkpt><trkpt lat="43.142801" lon="11.4792489"><ele>143.0</ele><time>2026-04-19T10:19:11.813Z</time></trkpt><trkpt lat="43.1427576" lon="11.4794607"><ele>143.25</ele><time>2026-04-19T10:19:12.814Z</time></trkpt><trkpt lat="43.1427046" lon="11.4796589"><ele>143.5</ele><time>2026-04-19T10:19:13.814Z</time></trkpt><trkpt lat="43.1426351" lon="11.4798296"><ele>143.75</ele><time>2026-04-19T10:19:14.812Z</time></trkpt><trkpt lat="43.1425501" lon="11.4799863"><ele>144.0</ele><time>2026-04-19T10:19:15.813Z</time></trkpt><trkpt lat="43.1424537" lon="11.4801354"><ele>143.5</ele><time>2026-04-19T10:19:16.813Z</time></trkpt><trkpt lat="43.1423494" lon="11.480265"><ele>143.0</ele><time>2026-04-19T10:19:17.814Z</time></trkpt><trkpt lat="43.1422436" lon="11.4803873"><ele>142.5</ele><time>2026-04-19T10:19:18.813Z</time></trkpt><trkpt lat="43.1421418" lon="11.4804992"><ele>142.0</ele><time>2026-04-19T10:19:19.814Z</time></trkpt><trkpt lat="43.1420492" lon="11.4806153"><ele>142.0</ele><time>2026-04-19T10:19:20.814Z</time></trkpt><trkpt lat="43.1419576" lon="11.4807312"><ele>142.0</ele><time>2026-04-19T10:19:21.814Z</time></trkpt><trkpt lat="43.1418651" lon="11.4808524"><ele>142.0</ele><time>2026-04-19T10:19:22.813Z</time></trkpt><trkpt lat="43.1417674" lon="11.480981"><ele>142.0</ele><time>2026-04-19T10:19:23.814Z</time></trkpt><trkpt lat="43.1416599" lon="11.4811071"><ele>141.66666666666669</ele><time>2026-04-19T10:19:24.812Z</time></trkpt><trkpt lat="43.1415479" lon="11.4812332"><ele>141.33333333333334</ele><time>2026-04-19T10:19:25.814Z</time></trkpt><trkpt lat="43.1414199" lon="11.4813494"><ele>141.0</ele><time>2026-04-19T10:19:26.814Z</time></trkpt><trkpt lat="43.1412878" lon="11.48146"><ele>141.0</ele><time>2026-04-19T10:19:27.813Z</time></trkpt><trkpt lat="43.1411477" lon="11.48156"><ele>141.0</ele><time>2026-04-19T10:19:28.813Z</time></trkpt><trkpt lat="43.1409991" lon="11.4816686"><ele>141.0</ele><time>2026-04-19T10:19:29.814Z</time></trkpt><trkpt lat="43.1408519" lon="11.4817864"><ele>141.33333333333334</ele><time>2026-04-19T10:19:30.812Z</time></trkpt><trkpt lat="43.1407028" lon="11.4818993"><ele>141.66666666666669</ele><time>2026-04-19T10:19:31.813Z</time></trkpt><trkpt lat="43.1405496" lon="11.4820145"><ele>142.0</ele><time>2026-04-19T10:19:32.811Z</time></trkpt><trkpt lat="43.1403945" lon="11.482122"><ele>142.33333333333334</ele><time>2026-04-19T10:19:33.812Z</time></trkpt><trkpt lat="43.140241" lon="11.4822258"><ele>142.66666666666666</ele><time>2026-04-19T10:19:34.813Z</time></trkpt><trkpt lat="43.1400947" lon="11.4823281"><ele>143.0</ele><time>2026-04-19T10:19:35.812Z</time></trkpt><trkpt lat="43.1399617" lon="11.4824265"><ele>144.0</ele><time>2026-04-19T10:19:36.812Z</time></trkpt><trkpt lat="43.1398335" lon="11.4825184"><ele>145.0</ele><time>2026-04-19T10:19:37.813Z</time></trkpt><trkpt lat="43.1397123" lon="11.4826117"><ele>146.0</ele><time>2026-04-19T10:19:38.813Z</time></trkpt><trkpt lat="43.1395958" lon="11.4826984"><ele>147.0</ele><time>2026-04-19T10:19:39.812Z</time></trkpt><trkpt lat="43.1394885" lon="11.482781"><ele>147.0</ele><time>2026-04-19T10:19:40.813Z</time></trkpt><trkpt lat="43.1393891" lon="11.4828511"><ele>147.0</ele><time>2026-04-19T10:19:41.812Z</time></trkpt><trkpt lat="43.1392861" lon="11.4829155"><ele>147.0</ele><time>2026-04-19T10:19:42.812Z</time></trkpt><trkpt lat="43.1391773" lon="11.4829834"><ele>147.0</ele><time>2026-04-19T10:19:43.813Z</time></trkpt><trkpt lat="43.1390697" lon="11.4830478"><ele>146.75</ele><time>2026-04-19T10:19:44.813Z</time></trkpt><trkpt lat="43.1389577" lon="11.483106"><ele>146.5</ele><time>2026-04-19T10:19:45.811Z</time></trkpt><trkpt lat="43.1388364" lon="11.4831552"><ele>146.25</ele><time>2026-04-19T10:19:46.813Z</time></trkpt><trkpt lat="43.1387155" lon="11.4832019"><ele>146.0</ele><time>2026-04-19T10:19:47.813Z</time></trkpt><trkpt lat="43.1385881" lon="11.483244"><ele>146.0</ele><time>2026-04-19T10:19:48.813Z</time></trkpt><trkpt lat="43.1384654" lon="11.4832735"><ele>146.0</ele><time>2026-04-19T10:19:49.812Z</time></trkpt><trkpt lat="43.138345" lon="11.4833007"><ele>146.0</ele><time>2026-04-19T10:19:50.812Z</time></trkpt><trkpt lat="43.1382212" lon="11.4833215"><ele>146.0</ele><time>2026-04-19T10:19:51.813Z</time></trkpt><trkpt lat="43.138102" lon="11.4833265"><ele>146.25</ele><time>2026-04-19T10:19:52.812Z</time></trkpt><trkpt lat="43.1379831" lon="11.4833261"><ele>146.5</ele><time>2026-04-19T10:19:53.813Z</time></trkpt><trkpt lat="43.1378596" lon="11.4833301"><ele>146.75</ele><time>2026-04-19T10:19:54.813Z</time></trkpt><trkpt lat="43.1377313" lon="11.4833398"><ele>147.0</ele><time>2026-04-19T10:19:55.812Z</time></trkpt><trkpt lat="43.1376053" lon="11.4833437"><ele>147.0</ele><time>2026-04-19T10:19:56.813Z</time></trkpt><trkpt lat="43.1374774" lon="11.4833502"><ele>147.0</ele><time>2026-04-19T10:19:57.813Z</time></trkpt><trkpt lat="43.1373469" lon="11.4833497"><ele>147.0</ele><time>2026-04-19T10:19:58.812Z</time></trkpt><trkpt lat="43.1372132" lon="11.4833543"><ele>147.0</ele><time>2026-04-19T10:19:59.813Z</time></trkpt><trkpt lat="43.1370737" lon="11.4833573"><ele>146.75</ele><time>2026-04-19T10:20:00.812Z</time></trkpt><trkpt lat="43.1369383" lon="11.4833633"><ele>146.5</ele><time>2026-04-19T10:20:01.811Z</time></trkpt><trkpt lat="43.1368088" lon="11.4833675"><ele>146.25</ele><time>2026-04-19T10:20:02.812Z</time></trkpt><trkpt lat="43.1366742" lon="11.4833754"><ele>146.0</ele><time>2026-04-19T10:20:03.813Z</time></trkpt><trkpt lat="43.1365452" lon="11.4833755"><ele>146.0</ele><time>2026-04-19T10:20:04.812Z</time></trkpt><trkpt lat="43.1364119" lon="11.4833766"><ele>146.0</ele><time>2026-04-19T10:20:05.812Z</time></trkpt><trkpt lat="43.1362797" lon="11.4833804"><ele>146.0</ele><time>2026-04-19T10:20:06.812Z</time></trkpt><trkpt lat="43.1361456" lon="11.4833741"><ele>146.0</ele><time>2026-04-19T10:20:07.812Z</time></trkpt><trkpt lat="43.1360093" lon="11.4833718"><ele>146.0</ele><time>2026-04-19T10:20:08.811Z</time></trkpt><trkpt lat="43.1358725" lon="11.4833722"><ele>146.0</ele><time>2026-04-19T10:20:09.813Z</time></trkpt><trkpt lat="43.1357426" lon="11.4833671"><ele>146.0</ele><time>2026-04-19T10:20:10.811Z</time></trkpt><trkpt lat="43.1356106" lon="11.4833515"><ele>146.0</ele><time>2026-04-19T10:20:11.811Z</time></trkpt><trkpt lat="43.1354797" lon="11.4833297"><ele>146.0</ele><time>2026-04-19T10:20:12.813Z</time></trkpt><trkpt lat="43.1353445" lon="11.4833053"><ele>146.0</ele><time>2026-04-19T10:20:13.813Z</time></trkpt><trkpt lat="43.1352106" lon="11.4832801"><ele>146.0</ele><time>2026-04-19T10:20:14.812Z</time></trkpt><trkpt lat="43.1350659" lon="11.4832554"><ele>146.0</ele><time>2026-04-19T10:20:15.812Z</time></trkpt><trkpt lat="43.1349234" lon="11.4832307"><ele>145.75</ele><time>2026-04-19T10:20:16.813Z</time></trkpt><trkpt lat="43.1347821" lon="11.4832133"><ele>145.5</ele><time>2026-04-19T10:20:17.813Z</time></trkpt><trkpt lat="43.1346349" lon="11.4831885"><ele>145.25</ele><time>2026-04-19T10:20:18.813Z</time></trkpt><trkpt lat="43.1344844" lon="11.483162"><ele>145.0</ele><time>2026-04-19T10:20:19.813Z</time></trkpt><trkpt lat="43.1343337" lon="11.4831325"><ele>145.0</ele><time>2026-04-19T10:20:20.813Z</time></trkpt><trkpt lat="43.1341867" lon="11.4831016"><ele>145.0</ele><time>2026-04-19T10:20:21.812Z</time></trkpt><trkpt lat="43.1340389" lon="11.4830767"><ele>145.0</ele><time>2026-04-19T10:20:22.813Z</time></trkpt><trkpt lat="43.1338827" lon="11.4830504"><ele>145.0</ele><time>2026-04-19T10:20:23.812Z</time></trkpt><trkpt lat="43.1337222" lon="11.4830091"><ele>145.0</ele><time>2026-04-19T10:20:24.812Z</time></trkpt><trkpt lat="43.1335335" lon="11.4829511"><ele>145.0</ele><time>2026-04-19T10:20:25.811Z</time></trkpt><trkpt lat="43.1333398" lon="11.4828749"><ele>144.33333333333334</ele><time>2026-04-19T10:20:26.813Z</time></trkpt><trkpt lat="43.1331308" lon="11.4827982"><ele>143.66666666666666</ele><time>2026-04-19T10:20:27.813Z</time></trkpt><trkpt lat="43.1329164" lon="11.4827155"><ele>143.0</ele><time>2026-04-19T10:20:28.812Z</time></trkpt><trkpt lat="43.1327119" lon="11.4826404"><ele>143.0</ele><time>2026-04-19T10:20:29.813Z</time></trkpt><trkpt lat="43.1325154" lon="11.4825691"><ele>143.0</ele><time>2026-04-19T10:20:30.812Z</time></trkpt><trkpt lat="43.1323308" lon="11.4824956"><ele>143.0</ele><time>2026-04-19T10:20:31.813Z</time></trkpt><trkpt lat="43.1321551" lon="11.482428"><ele>143.33333333333331</ele><time>2026-04-19T10:20:32.812Z</time></trkpt><trkpt lat="43.131984" lon="11.4823795"><ele>143.66666666666666</ele><time>2026-04-19T10:20:33.812Z</time></trkpt><trkpt lat="43.1318167" lon="11.4823471"><ele>144.0</ele><time>2026-04-19T10:20:34.813Z</time></trkpt><trkpt lat="43.1316412" lon="11.4823463"><ele>143.0</ele><time>2026-04-19T10:20:35.811Z</time></trkpt><trkpt lat="43.1314627" lon="11.4823623"><ele>142.0</ele><time>2026-04-19T10:20:36.813Z</time></trkpt><trkpt lat="43.1312828" lon="11.4823791"><ele>141.0</ele><time>2026-04-19T10:20:37.813Z</time></trkpt><trkpt lat="43.1311104" lon="11.4823962"><ele>141.0</ele><time>2026-04-19T10:20:38.812Z</time></trkpt><trkpt lat="43.1309423" lon="11.4824087"><ele>141.0</ele><time>2026-04-19T10:20:39.812Z</time></trkpt><trkpt lat="43.1307887" lon="11.4824257"><ele>141.0</ele><time>2026-04-19T10:20:40.812Z</time></trkpt><trkpt lat="43.1306398" lon="11.482437"><ele>141.25</ele><time>2026-04-19T10:20:41.811Z</time></trkpt><trkpt lat="43.1304957" lon="11.4824491"><ele>141.5</ele><time>2026-04-19T10:20:42.812Z</time></trkpt><trkpt lat="43.1303602" lon="11.482455"><ele>141.75</ele><time>2026-04-19T10:20:43.812Z</time></trkpt><trkpt lat="43.1302288" lon="11.4824631"><ele>142.0</ele><time>2026-04-19T10:20:44.813Z</time></trkpt><trkpt lat="43.1301072" lon="11.482474"><ele>142.0</ele><time>2026-04-19T10:20:45.813Z</time></trkpt><trkpt lat="43.1299893" lon="11.4824803"><ele>142.0</ele><time>2026-04-19T10:20:46.812Z</time></trkpt><trkpt lat="43.1298708" lon="11.4824893"><ele>142.0</ele><time>2026-04-19T10:20:47.811Z</time></trkpt><trkpt lat="43.1297548" lon="11.4824961"><ele>142.0</ele><time>2026-04-19T10:20:48.813Z</time></trkpt><trkpt lat="43.1296373" lon="11.4825068"><ele>142.5</ele><time>2026-04-19T10:20:49.813Z</time></trkpt><trkpt lat="43.1295162" lon="11.4825224"><ele>143.0</ele><time>2026-04-19T10:20:50.813Z</time></trkpt><trkpt lat="43.1293907" lon="11.4825335"><ele>143.5</ele><time>2026-04-19T10:20:51.812Z</time></trkpt><trkpt lat="43.1292516" lon="11.482545"><ele>144.0</ele><time>2026-04-19T10:20:52.812Z</time></trkpt><trkpt lat="43.129112" lon="11.4825608"><ele>144.25</ele><time>2026-04-19T10:20:53.812Z</time></trkpt><trkpt lat="43.1289688" lon="11.4825707"><ele>144.5</ele><time>2026-04-19T10:20:54.813Z</time></trkpt><trkpt lat="43.128822" lon="11.4825843"><ele>144.75</ele><time>2026-04-19T10:20:55.812Z</time></trkpt><trkpt lat="43.1286659" lon="11.4825957"><ele>145.0</ele><time>2026-04-19T10:20:56.812Z</time></trkpt><trkpt lat="43.1285158" lon="11.482608"><ele>145.0</ele><time>2026-04-19T10:20:57.813Z</time></trkpt><trkpt lat="43.1283572" lon="11.4826239"><ele>145.0</ele><time>2026-04-19T10:20:58.813Z</time></trkpt><trkpt lat="43.1281978" lon="11.4826362"><ele>145.0</ele><time>2026-04-19T10:20:59.812Z</time></trkpt><trkpt lat="43.1280372" lon="11.4826483"><ele>145.0</ele><time>2026-04-19T10:21:00.813Z</time></trkpt><trkpt lat="43.1278659" lon="11.4826583"><ele>145.0</ele><time>2026-04-19T10:21:01.813Z</time></trkpt><trkpt lat="43.1276928" lon="11.4826739"><ele>145.0</ele><time>2026-04-19T10:21:02.813Z</time></trkpt><trkpt lat="43.1275155" lon="11.4826895"><ele>144.66666666666669</ele><time>2026-04-19T10:21:03.812Z</time></trkpt><trkpt lat="43.1273407" lon="11.4827094"><ele>144.33333333333334</ele><time>2026-04-19T10:21:04.812Z</time></trkpt><trkpt lat="43.1271704" lon="11.4827217"><ele>144.0</ele><time>2026-04-19T10:21:05.813Z</time></trkpt><trkpt lat="43.1270076" lon="11.4827385"><ele>144.0</ele><time>2026-04-19T10:21:06.813Z</time></trkpt><trkpt lat="43.1268442" lon="11.4827491"><ele>144.0</ele><time>2026-04-19T10:21:07.812Z</time></trkpt><trkpt lat="43.1266813" lon="11.4827612"><ele>144.0</ele><time>2026-04-19T10:21:08.812Z</time></trkpt><trkpt lat="43.1265192" lon="11.4827797"><ele>143.33333333333334</ele><time>2026-04-19T10:21:09.813Z</time></trkpt><trkpt lat="43.1263598" lon="11.4827966"><ele>142.66666666666669</ele><time>2026-04-19T10:21:10.813Z</time></trkpt><trkpt lat="43.1261992" lon="11.4828089"><ele>142.0</ele><time>2026-04-19T10:21:11.812Z</time></trkpt><trkpt lat="43.1260441" lon="11.4828232"><ele>142.0</ele><time>2026-04-19T10:21:12.813Z</time></trkpt><trkpt lat="43.1258829" lon="11.4828373"><ele>142.0</ele><time>2026-04-19T10:21:13.813Z</time></trkpt><trkpt lat="43.1257181" lon="11.4828518"><ele>142.0</ele><time>2026-04-19T10:21:14.811Z</time></trkpt><trkpt lat="43.1255369" lon="11.4828725"><ele>141.66666666666669</ele><time>2026-04-19T10:21:15.813Z</time></trkpt><trkpt lat="43.1253568" lon="11.4828983"><ele>141.33333333333334</ele><time>2026-04-19T10:21:16.811Z</time></trkpt><trkpt lat="43.12516" lon="11.4829188"><ele>141.0</ele><time>2026-04-19T10:21:17.812Z</time></trkpt><trkpt lat="43.1249735" lon="11.4829315"><ele>141.66666666666666</ele><time>2026-04-19T10:21:18.812Z</time></trkpt><trkpt lat="43.1247975" lon="11.4829473"><ele>142.33333333333331</ele><time>2026-04-19T10:21:19.813Z</time></trkpt><trkpt lat="43.1246307" lon="11.4829611"><ele>143.0</ele><time>2026-04-19T10:21:20.813Z</time></trkpt><trkpt lat="43.1244699" lon="11.4829732"><ele>143.0</ele><time>2026-04-19T10:21:21.813Z</time></trkpt><trkpt lat="43.1243176" lon="11.4829818"><ele>143.0</ele><time>2026-04-19T10:21:22.812Z</time></trkpt><trkpt lat="43.1241753" lon="11.4829974"><ele>143.0</ele><time>2026-04-19T10:21:23.812Z</time></trkpt><trkpt lat="43.1240396" lon="11.4830101"><ele>143.0</ele><time>2026-04-19T10:21:24.811Z</time></trkpt><trkpt lat="43.1239013" lon="11.4830227"><ele>143.66666666666666</ele><time>2026-04-19T10:21:25.813Z</time></trkpt><trkpt lat="43.1237562" lon="11.4830307"><ele>144.33333333333334</ele><time>2026-04-19T10:21:26.812Z</time></trkpt><trkpt lat="43.1235973" lon="11.4830422"><ele>145.0</ele><time>2026-04-19T10:21:27.811Z</time></trkpt><trkpt lat="43.1234378" lon="11.483054"><ele>145.0</ele><time>2026-04-19T10:21:28.812Z</time></trkpt><trkpt lat="43.1232945" lon="11.4830712"><ele>145.0</ele><time>2026-04-19T10:21:29.812Z</time></trkpt><trkpt lat="43.1231484" lon="11.4830834"><ele>145.0</ele><time>2026-04-19T10:21:30.812Z</time></trkpt><trkpt lat="43.1230156" lon="11.4830972"><ele>145.0</ele><time>2026-04-19T10:21:31.813Z</time></trkpt><trkpt lat="43.1228866" lon="11.4831108"><ele>144.75</ele><time>2026-04-19T10:21:32.812Z</time></trkpt><trkpt lat="43.1227521" lon="11.4831225"><ele>144.5</ele><time>2026-04-19T10:21:33.812Z</time></trkpt><trkpt lat="43.1226251" lon="11.4831351"><ele>144.25</ele><time>2026-04-19T10:21:34.812Z</time></trkpt><trkpt lat="43.1224976" lon="11.4831414"><ele>144.0</ele><time>2026-04-19T10:21:35.813Z</time></trkpt><trkpt lat="43.1223762" lon="11.4831565"><ele>144.0</ele><time>2026-04-19T10:21:36.813Z</time></trkpt><trkpt lat="43.1222525" lon="11.4831636"><ele>144.0</ele><time>2026-04-19T10:21:37.812Z</time></trkpt><trkpt lat="43.1221367" lon="11.4831736"><ele>144.0</ele><time>2026-04-19T10:21:38.812Z</time></trkpt><trkpt lat="43.1220207" lon="11.4831791"><ele>144.0</ele><time>2026-04-19T10:21:39.812Z</time></trkpt><trkpt lat="43.1219023" lon="11.4831902"><ele>144.0</ele><time>2026-04-19T10:21:40.812Z</time></trkpt><trkpt lat="43.1217883" lon="11.4832015"><ele>144.0</ele><time>2026-04-19T10:21:41.812Z</time></trkpt><trkpt lat="43.1216666" lon="11.483218"><ele>144.0</ele><time>2026-04-19T10:21:42.812Z</time></trkpt><trkpt lat="43.1215398" lon="11.4832314"><ele>144.0</ele><time>2026-04-19T10:21:43.812Z</time></trkpt><trkpt lat="43.1214087" lon="11.4832414"><ele>143.75</ele><time>2026-04-19T10:21:44.812Z</time></trkpt><trkpt lat="43.1212682" lon="11.4832532"><ele>143.5</ele><time>2026-04-19T10:21:45.812Z</time></trkpt><trkpt lat="43.1211348" lon="11.4832652"><ele>143.25</ele><time>2026-04-19T10:21:46.812Z</time></trkpt><trkpt lat="43.1210074" lon="11.4832831"><ele>143.0</ele><time>2026-04-19T10:21:47.813Z</time></trkpt><trkpt lat="43.1208821" lon="11.4832932"><ele>143.0</ele><time>2026-04-19T10:21:48.812Z</time></trkpt><trkpt lat="43.1207497" lon="11.4833048"><ele>143.0</ele><time>2026-04-19T10:21:49.813Z</time></trkpt><trkpt lat="43.1206188" lon="11.4833116"><ele>143.0</ele><time>2026-04-19T10:21:50.812Z</time></trkpt><trkpt lat="43.1204811" lon="11.4833254"><ele>143.0</ele><time>2026-04-19T10:21:51.812Z</time></trkpt><trkpt lat="43.1203448" lon="11.4833362"><ele>142.75</ele><time>2026-04-19T10:21:52.812Z</time></trkpt><trkpt lat="43.1202025" lon="11.4833518"><ele>142.5</ele><time>2026-04-19T10:21:53.811Z</time></trkpt><trkpt lat="43.1200563" lon="11.4833665"><ele>142.25</ele><time>2026-04-19T10:21:54.811Z</time></trkpt><trkpt lat="43.1199077" lon="11.4833867"><ele>142.0</ele><time>2026-04-19T10:21:55.813Z</time></trkpt><trkpt lat="43.1197596" lon="11.4834178"><ele>142.0</ele><time>2026-04-19T10:21:56.812Z</time></trkpt><trkpt lat="43.1196132" lon="11.4834487"><ele>142.0</ele><time>2026-04-19T10:21:57.813Z</time></trkpt><trkpt lat="43.1194754" lon="11.4834765"><ele>142.0</ele><time>2026-04-19T10:21:58.813Z</time></trkpt><trkpt lat="43.1193425" lon="11.4835046"><ele>142.0</ele><time>2026-04-19T10:21:59.813Z</time></trkpt><trkpt lat="43.1192303" lon="11.4835265"><ele>142.0</ele><time>2026-04-19T10:22:00.812Z</time></trkpt><trkpt lat="43.1191058" lon="11.4835379"><ele>142.0</ele><time>2026-04-19T10:22:01.811Z</time></trkpt><trkpt lat="43.1189913" lon="11.4835554"><ele>142.0</ele><time>2026-04-19T10:22:02.813Z</time></trkpt><trkpt lat="43.1188918" lon="11.4835741"><ele>142.0</ele><time>2026-04-19T10:22:03.813Z</time></trkpt><trkpt lat="43.1187902" lon="11.483596"><ele>142.0</ele><time>2026-04-19T10:22:04.813Z</time></trkpt><trkpt lat="43.1186863" lon="11.4836146"><ele>142.25</ele><time>2026-04-19T10:22:05.812Z</time></trkpt><trkpt lat="43.1185891" lon="11.4836363"><ele>142.5</ele><time>2026-04-19T10:22:06.812Z</time></trkpt><trkpt lat="43.1184827" lon="11.4836571"><ele>142.75</ele><time>2026-04-19T10:22:07.812Z</time></trkpt><trkpt lat="43.1183676" lon="11.4836825"><ele>143.0</ele><time>2026-04-19T10:22:08.812Z</time></trkpt><trkpt lat="43.118222" lon="11.4837099"><ele>144.0</ele><time>2026-04-19T10:22:09.812Z</time></trkpt><trkpt lat="43.1180898" lon="11.4837417"><ele>145.0</ele><time>2026-04-19T10:22:10.812Z</time></trkpt><trkpt lat="43.1179316" lon="11.4837727"><ele>146.0</ele><time>2026-04-19T10:22:11.812Z</time></trkpt><trkpt lat="43.1177746" lon="11.4838076"><ele>146.66666666666666</ele><time>2026-04-19T10:22:12.813Z</time></trkpt><trkpt lat="43.1176148" lon="11.4838394"><ele>147.33333333333334</ele><time>2026-04-19T10:22:13.813Z</time></trkpt><trkpt lat="43.1174504" lon="11.4838637"><ele>148.0</ele><time>2026-04-19T10:22:14.812Z</time></trkpt><trkpt lat="43.1172956" lon="11.4838722"><ele>150.0</ele><time>2026-04-19T10:22:15.812Z</time></trkpt><trkpt lat="43.1171339" lon="11.4838498"><ele>152.0</ele><time>2026-04-19T10:22:16.813Z</time></trkpt><trkpt lat="43.1169729" lon="11.4837974"><ele>154.0</ele><time>2026-04-19T10:22:17.811Z</time></trkpt><trkpt lat="43.1168311" lon="11.4837259"><ele>154.0</ele><time>2026-04-19T10:22:18.812Z</time></trkpt><trkpt lat="43.1167054" lon="11.4836573"><ele>154.0</ele><time>2026-04-19T10:22:19.812Z</time></trkpt><trkpt lat="43.1165753" lon="11.4836032"><ele>154.0</ele><time>2026-04-19T10:22:20.812Z</time></trkpt><trkpt lat="43.1164478" lon="11.483595"><ele>154.0</ele><time>2026-04-19T10:22:21.812Z</time></trkpt><trkpt lat="43.1163273" lon="11.4836334"><ele>156.5</ele><time>2026-04-19T10:22:22.812Z</time></trkpt><trkpt lat="43.1162123" lon="11.4836793"><ele>159.0</ele><time>2026-04-19T10:22:23.812Z</time></trkpt><trkpt lat="43.1161017" lon="11.4837735"><ele>161.5</ele><time>2026-04-19T10:22:24.812Z</time></trkpt><trkpt lat="43.1161018" lon="11.4839859"><ele>164.0</ele><time>2026-04-19T10:22:25.812Z</time></trkpt><trkpt lat="43.1160922" lon="11.4842051"><ele>164.66666666666666</ele><time>2026-04-19T10:22:26.812Z</time></trkpt><trkpt lat="43.1160257" lon="11.4843792"><ele>165.33333333333334</ele><time>2026-04-19T10:22:27.812Z</time></trkpt><trkpt lat="43.115933" lon="11.484555"><ele>166.0</ele><time>2026-04-19T10:22:28.812Z</time></trkpt><trkpt lat="43.1158153" lon="11.4847039"><ele>168.0</ele><time>2026-04-19T10:22:29.813Z</time></trkpt><trkpt lat="43.1156824" lon="11.4848382"><ele>170.0</ele><time>2026-04-19T10:22:30.811Z</time></trkpt><trkpt lat="43.1155172" lon="11.484965"><ele>172.0</ele><time>2026-04-19T10:22:31.813Z</time></trkpt><trkpt lat="43.1153786" lon="11.485071"><ele>172.0</ele><time>2026-04-19T10:22:32.813Z</time></trkpt><trkpt lat="43.1152434" lon="11.4851789"><ele>172.0</ele><time>2026-04-19T10:22:33.812Z</time></trkpt><trkpt lat="43.1151032" lon="11.4852892"><ele>172.0</ele><time>2026-04-19T10:22:34.813Z</time></trkpt><trkpt lat="43.1149609" lon="11.4853997"><ele>173.33333333333334</ele><time>2026-04-19T10:22:35.813Z</time></trkpt><trkpt lat="43.1148267" lon="11.4855063"><ele>174.66666666666666</ele><time>2026-04-19T10:22:36.813Z</time></trkpt><trkpt lat="43.1146974" lon="11.4856101"><ele>176.0</ele><time>2026-04-19T10:22:37.812Z</time></trkpt><trkpt lat="43.1145714" lon="11.4857156"><ele>176.0</ele><time>2026-04-19T10:22:38.813Z</time></trkpt><trkpt lat="43.1144434" lon="11.4858186"><ele>176.0</ele><time>2026-04-19T10:22:39.812Z</time></trkpt><trkpt lat="43.1143127" lon="11.4859214"><ele>176.0</ele><time>2026-04-19T10:22:40.812Z</time></trkpt><trkpt lat="43.1141813" lon="11.4860281"><ele>175.75</ele><time>2026-04-19T10:22:41.812Z</time></trkpt><trkpt lat="43.1140516" lon="11.486129"><ele>175.5</ele><time>2026-04-19T10:22:42.813Z</time></trkpt><trkpt lat="43.1139221" lon="11.4862271"><ele>175.25</ele><time>2026-04-19T10:22:43.812Z</time></trkpt><trkpt lat="43.1137992" lon="11.4863187"><ele>175.0</ele><time>2026-04-19T10:22:44.812Z</time></trkpt><trkpt lat="43.1136792" lon="11.4864172"><ele>175.0</ele><time>2026-04-19T10:22:45.813Z</time></trkpt><trkpt lat="43.1135569" lon="11.4865208"><ele>175.0</ele><time>2026-04-19T10:22:46.811Z</time></trkpt><trkpt lat="43.113428" lon="11.4866332"><ele>175.0</ele><time>2026-04-19T10:22:47.811Z</time></trkpt><trkpt lat="43.1132918" lon="11.4867515"><ele>174.33333333333334</ele><time>2026-04-19T10:22:48.813Z</time></trkpt><trkpt lat="43.1131569" lon="11.4868672"><ele>173.66666666666666</ele><time>2026-04-19T10:22:49.812Z</time></trkpt><trkpt lat="43.1130194" lon="11.4869795"><ele>173.0</ele><time>2026-04-19T10:22:50.812Z</time></trkpt><trkpt lat="43.1128869" lon="11.4870952"><ele>173.0</ele><time>2026-04-19T10:22:51.811Z</time></trkpt><trkpt lat="43.112748" lon="11.4872154"><ele>173.0</ele><time>2026-04-19T10:22:52.811Z</time></trkpt><trkpt lat="43.1126146" lon="11.4873319"><ele>173.0</ele><time>2026-04-19T10:22:53.812Z</time></trkpt><trkpt lat="43.1124915" lon="11.4874523"><ele>171.0</ele><time>2026-04-19T10:22:54.813Z</time></trkpt><trkpt lat="43.1123817" lon="11.4875872"><ele>169.0</ele><time>2026-04-19T10:22:55.812Z</time></trkpt><trkpt lat="43.1122819" lon="11.4877436"><ele>167.0</ele><time>2026-04-19T10:22:56.813Z</time></trkpt><trkpt lat="43.1121879" lon="11.4879269"><ele>167.0</ele><time>2026-04-19T10:22:57.812Z</time></trkpt><trkpt lat="43.1120887" lon="11.4881229"><ele>167.0</ele><time>2026-04-19T10:22:58.813Z</time></trkpt><trkpt lat="43.1119911" lon="11.4883273"><ele>167.0</ele><time>2026-04-19T10:22:59.812Z</time></trkpt><trkpt lat="43.1118953" lon="11.4885375"><ele>167.0</ele><time>2026-04-19T10:23:00.811Z</time></trkpt><trkpt lat="43.1117975" lon="11.4887421"><ele>167.0</ele><time>2026-04-19T10:23:01.813Z</time></trkpt><trkpt lat="43.11171" lon="11.4889322"><ele>167.0</ele><time>2026-04-19T10:23:02.812Z</time></trkpt><trkpt lat="43.1116251" lon="11.489121"><ele>166.0</ele><time>2026-04-19T10:23:03.813Z</time></trkpt><trkpt lat="43.1115462" lon="11.4893085"><ele>165.0</ele><time>2026-04-19T10:23:04.811Z</time></trkpt><trkpt lat="43.1114755" lon="11.4894901"><ele>164.0</ele><time>2026-04-19T10:23:05.812Z</time></trkpt><trkpt lat="43.111408" lon="11.4896627"><ele>164.0</ele><time>2026-04-19T10:23:06.812Z</time></trkpt><trkpt lat="43.1113392" lon="11.4898157"><ele>164.0</ele><time>2026-04-19T10:23:07.812Z</time></trkpt><trkpt lat="43.1112663" lon="11.4899627"><ele>164.0</ele><time>2026-04-19T10:23:08.812Z</time></trkpt><trkpt lat="43.1111922" lon="11.4900986"><ele>164.0</ele><time>2026-04-19T10:23:09.813Z</time></trkpt><trkpt lat="43.1111121" lon="11.490228"><ele>164.0</ele><time>2026-04-19T10:23:10.813Z</time></trkpt><trkpt lat="43.1110232" lon="11.4903514"><ele>164.0</ele><time>2026-04-19T10:23:11.812Z</time></trkpt><trkpt lat="43.1109256" lon="11.4904803"><ele>164.0</ele><time>2026-04-19T10:23:12.812Z</time></trkpt><trkpt lat="43.1108279" lon="11.4906157"><ele>164.0</ele><time>2026-04-19T10:23:13.811Z</time></trkpt><trkpt lat="43.1107319" lon="11.490743"><ele>162.5</ele><time>2026-04-19T10:23:14.813Z</time></trkpt><trkpt lat="43.1106427" lon="11.49087"><ele>161.0</ele><time>2026-04-19T10:23:15.813Z</time></trkpt><trkpt lat="43.1105632" lon="11.4910031"><ele>159.5</ele><time>2026-04-19T10:23:16.812Z</time></trkpt><trkpt lat="43.1104888" lon="11.4911388"><ele>158.0</ele><time>2026-04-19T10:23:17.812Z</time></trkpt><trkpt lat="43.1104172" lon="11.4912744"><ele>158.0</ele><time>2026-04-19T10:23:18.812Z</time></trkpt><trkpt lat="43.1103468" lon="11.4914163"><ele>158.0</ele><time>2026-04-19T10:23:19.813Z</time></trkpt><trkpt lat="43.1102809" lon="11.4915572"><ele>158.0</ele><time>2026-04-19T10:23:20.812Z</time></trkpt><trkpt lat="43.1102205" lon="11.491714"><ele>158.0</ele><time>2026-04-19T10:23:21.812Z</time></trkpt><trkpt lat="43.1101548" lon="11.4918714"><ele>158.0</ele><time>2026-04-19T10:23:22.812Z</time></trkpt><trkpt lat="43.1100938" lon="11.4920465"><ele>158.0</ele><time>2026-04-19T10:23:23.813Z</time></trkpt><trkpt lat="43.1100501" lon="11.492252"><ele>158.0</ele><time>2026-04-19T10:23:24.81Z</time></trkpt><trkpt lat="43.1100311" lon="11.4924791"><ele>158.0</ele><time>2026-04-19T10:23:25.811Z</time></trkpt><trkpt lat="43.1100242" lon="11.492728"><ele>158.0</ele><time>2026-04-19T10:23:26.812Z</time></trkpt><trkpt lat="43.1100165" lon="11.4929962"><ele>158.0</ele><time>2026-04-19T10:23:27.812Z</time></trkpt><trkpt lat="43.1099993" lon="11.4932683"><ele>157.33333333333331</ele><time>2026-04-19T10:23:28.811Z</time></trkpt><trkpt lat="43.1099871" lon="11.4935476"><ele>156.66666666666666</ele><time>2026-04-19T10:23:29.811Z</time></trkpt><trkpt lat="43.1099676" lon="11.4938122"><ele>156.0</ele><time>2026-04-19T10:23:30.812Z</time></trkpt><trkpt lat="43.109938" lon="11.494065"><ele>153.0</ele><time>2026-04-19T10:23:31.811Z</time></trkpt><trkpt lat="43.1098903" lon="11.4943139"><ele>150.0</ele><time>2026-04-19T10:23:32.812Z</time></trkpt><trkpt lat="43.1098295" lon="11.4945545"><ele>147.0</ele><time>2026-04-19T10:23:33.81Z</time></trkpt><trkpt lat="43.1097513" lon="11.4947909"><ele>147.0</ele><time>2026-04-19T10:23:34.812Z</time></trkpt><trkpt lat="43.1096632" lon="11.4950239"><ele>147.0</ele><time>2026-04-19T10:23:35.811Z</time></trkpt><trkpt lat="43.109561" lon="11.4952574"><ele>147.0</ele><time>2026-04-19T10:23:36.812Z</time></trkpt><trkpt lat="43.1094529" lon="11.4954931"><ele>149.0</ele><time>2026-04-19T10:23:37.81Z</time></trkpt><trkpt lat="43.1093501" lon="11.4957367"><ele>151.0</ele><time>2026-04-19T10:23:38.811Z</time></trkpt><trkpt lat="43.1092461" lon="11.495975"><ele>153.0</ele><time>2026-04-19T10:23:39.812Z</time></trkpt><trkpt lat="43.1091426" lon="11.4962026"><ele>151.66666666666666</ele><time>2026-04-19T10:23:40.811Z</time></trkpt><trkpt lat="43.1090379" lon="11.4964228"><ele>150.33333333333331</ele><time>2026-04-19T10:23:41.812Z</time></trkpt><trkpt lat="43.1089441" lon="11.4966383"><ele>149.0</ele><time>2026-04-19T10:23:42.811Z</time></trkpt><trkpt lat="43.1088535" lon="11.4968519"><ele>149.0</ele><time>2026-04-19T10:23:43.811Z</time></trkpt><trkpt lat="43.1087666" lon="11.4970605"><ele>149.0</ele><time>2026-04-19T10:23:44.81Z</time></trkpt><trkpt lat="43.1086686" lon="11.4972551"><ele>149.0</ele><time>2026-04-19T10:23:45.811Z</time></trkpt><trkpt lat="43.1085631" lon="11.4974407"><ele>149.0</ele><time>2026-04-19T10:23:46.812Z</time></trkpt><trkpt lat="43.1084338" lon="11.4975876"><ele>149.0</ele><time>2026-04-19T10:23:47.811Z</time></trkpt><trkpt lat="43.1082869" lon="11.4977045"><ele>149.0</ele><time>2026-04-19T10:23:48.81Z</time></trkpt><trkpt lat="43.1081253" lon="11.4977986"><ele>148.66666666666666</ele><time>2026-04-19T10:23:49.811Z</time></trkpt><trkpt lat="43.1079527" lon="11.4978702"><ele>148.33333333333334</ele><time>2026-04-19T10:23:50.811Z</time></trkpt><trkpt lat="43.107774" lon="11.4979327"><ele>148.0</ele><time>2026-04-19T10:23:51.812Z</time></trkpt><trkpt lat="43.1075932" lon="11.4979944"><ele>149.33333333333334</ele><time>2026-04-19T10:23:52.811Z</time></trkpt><trkpt lat="43.1074102" lon="11.4980509"><ele>150.66666666666666</ele><time>2026-04-19T10:23:53.81Z</time></trkpt><trkpt lat="43.1072313" lon="11.4981062"><ele>152.0</ele><time>2026-04-19T10:23:54.811Z</time></trkpt><trkpt lat="43.1070594" lon="11.4981614"><ele>152.0</ele><time>2026-04-19T10:23:55.812Z</time></trkpt><trkpt lat="43.1068929" lon="11.4982125"><ele>152.0</ele><time>2026-04-19T10:23:56.811Z</time></trkpt><trkpt lat="43.1067371" lon="11.498272"><ele>152.0</ele><time>2026-04-19T10:23:57.812Z</time></trkpt><trkpt lat="43.1065896" lon="11.4983474"><ele>156.33333333333331</ele><time>2026-04-19T10:23:58.811Z</time></trkpt><trkpt lat="43.106459" lon="11.4984462"><ele>160.66666666666666</ele><time>2026-04-19T10:23:59.811Z</time></trkpt><trkpt lat="43.1063349" lon="11.4985635"><ele>165.0</ele><time>2026-04-19T10:24:00.812Z</time></trkpt><trkpt lat="43.1062123" lon="11.4987173"><ele>164.33333333333334</ele><time>2026-04-19T10:24:01.812Z</time></trkpt><trkpt lat="43.1061383" lon="11.498921"><ele>163.66666666666669</ele><time>2026-04-19T10:24:02.811Z</time></trkpt><trkpt lat="43.1060875" lon="11.49915"><ele>163.0</ele><time>2026-04-19T10:24:03.812Z</time></trkpt><trkpt lat="43.1060406" lon="11.4993893"><ele>161.5</ele><time>2026-04-19T10:24:04.812Z</time></trkpt><trkpt lat="43.1060376" lon="11.4996953"><ele>160.0</ele><time>2026-04-19T10:24:05.811Z</time></trkpt><trkpt lat="43.1060202" lon="11.5000093"><ele>160.0</ele><time>2026-04-19T10:24:06.812Z</time></trkpt><trkpt lat="43.1060124" lon="11.5003315"><ele>160.0</ele><time>2026-04-19T10:24:07.811Z</time></trkpt><trkpt lat="43.1060037" lon="11.5006839"><ele>159.5</ele><time>2026-04-19T10:24:08.811Z</time></trkpt><trkpt lat="43.1059878" lon="11.5010556"><ele>159.0</ele><time>2026-04-19T10:24:09.81Z</time></trkpt><trkpt lat="43.1059638" lon="11.5014412"><ele>157.5</ele><time>2026-04-19T10:24:10.811Z</time></trkpt><trkpt lat="43.1059408" lon="11.5018305"><ele>156.0</ele><time>2026-04-19T10:24:11.811Z</time></trkpt><trkpt lat="43.1059221" lon="11.5022003"><ele>154.5</ele><time>2026-04-19T10:24:12.812Z</time></trkpt><trkpt lat="43.1059042" lon="11.5025592"><ele>153.0</ele><time>2026-04-19T10:24:13.812Z</time></trkpt><trkpt lat="43.1058809" lon="11.5029024"><ele>152.5</ele><time>2026-04-19T10:24:14.811Z</time></trkpt><trkpt lat="43.1058613" lon="11.5032285"><ele>152.0</ele><time>2026-04-19T10:24:15.812Z</time></trkpt><trkpt lat="43.1058407" lon="11.5035389"><ele>153.0</ele><time>2026-04-19T10:24:16.811Z</time></trkpt><trkpt lat="43.1058209" lon="11.5038314"><ele>154.0</ele><time>2026-04-19T10:24:17.81Z</time></trkpt><trkpt lat="43.1058077" lon="11.5041132"><ele>155.0</ele><time>2026-04-19T10:24:18.812Z</time></trkpt><trkpt lat="43.1057978" lon="11.5043771"><ele>155.33333333333331</ele><time>2026-04-19T10:24:19.811Z</time></trkpt><trkpt lat="43.1057854" lon="11.5046309"><ele>155.66666666666666</ele><time>2026-04-19T10:24:20.812Z</time></trkpt><trkpt lat="43.1057717" lon="11.5048867"><ele>156.0</ele><time>2026-04-19T10:24:21.81Z</time></trkpt><trkpt lat="43.1057531" lon="11.5051398"><ele>158.66666666666666</ele><time>2026-04-19T10:24:22.811Z</time></trkpt><trkpt lat="43.1057321" lon="11.5054002"><ele>161.33333333333331</ele><time>2026-04-19T10:24:23.811Z</time></trkpt><trkpt lat="43.1056874" lon="11.5056667"><ele>164.0</ele><time>2026-04-19T10:24:24.811Z</time></trkpt><trkpt lat="43.1056253" lon="11.5059354"><ele>165.33333333333331</ele><time>2026-04-19T10:24:25.81Z</time></trkpt><trkpt lat="43.1055479" lon="11.506208"><ele>166.66666666666666</ele><time>2026-04-19T10:24:26.811Z</time></trkpt><trkpt lat="43.1054672" lon="11.5064919"><ele>168.0</ele><time>2026-04-19T10:24:27.812Z</time></trkpt><trkpt lat="43.1053802" lon="11.5067883"><ele>165.5</ele><time>2026-04-19T10:24:28.811Z</time></trkpt><trkpt lat="43.105289" lon="11.5070931"><ele>163.0</ele><time>2026-04-19T10:24:29.811Z</time></trkpt><trkpt lat="43.1051975" lon="11.5074103"><ele>163.0</ele><time>2026-04-19T10:24:30.812Z</time></trkpt><trkpt lat="43.1051065" lon="11.5077304"><ele>163.0</ele><time>2026-04-19T10:24:31.811Z</time></trkpt><trkpt lat="43.105017" lon="11.5080355"><ele>160.0</ele><time>2026-04-19T10:24:32.81Z</time></trkpt><trkpt lat="43.1049356" lon="11.5083352"><ele>157.0</ele><time>2026-04-19T10:24:33.812Z</time></trkpt><trkpt lat="43.1048531" lon="11.5086312"><ele>165.0</ele><time>2026-04-19T10:24:34.81Z</time></trkpt><trkpt lat="43.1047678" lon="11.50892"><ele>173.0</ele><time>2026-04-19T10:24:35.811Z</time></trkpt><trkpt lat="43.1046852" lon="11.5092045"><ele>173.0</ele><time>2026-04-19T10:24:36.811Z</time></trkpt><trkpt lat="43.1046191" lon="11.5094976"><ele>173.0</ele><time>2026-04-19T10:24:37.81Z</time></trkpt><trkpt lat="43.1045598" lon="11.5097974"><ele>172.0</ele><time>2026-04-19T10:24:38.811Z</time></trkpt><trkpt lat="43.1045124" lon="11.5100981"><ele>171.0</ele><time>2026-04-19T10:24:39.812Z</time></trkpt><trkpt lat="43.1044731" lon="11.5104013"><ele>170.0</ele><time>2026-04-19T10:24:40.811Z</time></trkpt><trkpt lat="43.1044195" lon="11.510695"><ele>168.0</ele><time>2026-04-19T10:24:41.812Z</time></trkpt><trkpt lat="43.1043515" lon="11.5109775"><ele>166.0</ele><time>2026-04-19T10:24:42.812Z</time></trkpt><trkpt lat="43.1042805" lon="11.5112543"><ele>164.0</ele><time>2026-04-19T10:24:43.811Z</time></trkpt><trkpt lat="43.1042151" lon="11.5115233"><ele>164.0</ele><time>2026-04-19T10:24:44.811Z</time></trkpt><trkpt lat="43.1041503" lon="11.5117863"><ele>164.0</ele><time>2026-04-19T10:24:45.811Z</time></trkpt><trkpt lat="43.1040852" lon="11.5120424"><ele>164.0</ele><time>2026-04-19T10:24:46.811Z</time></trkpt><trkpt lat="43.1040186" lon="11.5122982"><ele>164.0</ele><time>2026-04-19T10:24:47.81Z</time></trkpt><trkpt lat="43.1039452" lon="11.5125206"><ele>164.0</ele><time>2026-04-19T10:24:48.812Z</time></trkpt><trkpt lat="43.1038722" lon="11.5127401"><ele>164.0</ele><time>2026-04-19T10:24:49.812Z</time></trkpt><trkpt lat="43.1038081" lon="11.5129543"><ele>161.66666666666666</ele><time>2026-04-19T10:24:50.812Z</time></trkpt><trkpt lat="43.1037536" lon="11.5131695"><ele>159.33333333333334</ele><time>2026-04-19T10:24:51.812Z</time></trkpt><trkpt lat="43.1037073" lon="11.5133871"><ele>157.0</ele><time>2026-04-19T10:24:52.811Z</time></trkpt><trkpt lat="43.1036582" lon="11.5136081"><ele>157.0</ele><time>2026-04-19T10:24:53.812Z</time></trkpt><trkpt lat="43.1035958" lon="11.513832"><ele>157.0</ele><time>2026-04-19T10:24:54.812Z</time></trkpt><trkpt lat="43.1035145" lon="11.5140485"><ele>157.0</ele><time>2026-04-19T10:24:55.812Z</time></trkpt><trkpt lat="43.1033548" lon="11.5144749"><ele>157.0</ele><time>2026-04-19T10:24:57.81Z</time></trkpt><trkpt lat="43.1032874" lon="11.5146817"><ele>157.0</ele><time>2026-04-19T10:24:58.812Z</time></trkpt><trkpt lat="43.1032326" lon="11.5149057"><ele>157.0</ele><time>2026-04-19T10:24:59.811Z</time></trkpt><trkpt lat="43.1032086" lon="11.5151478"><ele>161.66666666666669</ele><time>2026-04-19T10:25:00.812Z</time></trkpt><trkpt lat="43.1031786" lon="11.5153853"><ele>166.33333333333334</ele><time>2026-04-19T10:25:01.812Z</time></trkpt><trkpt lat="43.1031463" lon="11.515635"><ele>171.0</ele><time>2026-04-19T10:25:02.812Z</time></trkpt><trkpt lat="43.1031229" lon="11.5158662"><ele>170.66666666666666</ele><time>2026-04-19T10:25:03.811Z</time></trkpt><trkpt lat="43.1030951" lon="11.5160882"><ele>170.33333333333331</ele><time>2026-04-19T10:25:04.812Z</time></trkpt><trkpt lat="43.1030658" lon="11.5163086"><ele>170.0</ele><time>2026-04-19T10:25:05.812Z</time></trkpt><trkpt lat="43.1030256" lon="11.5165259"><ele>170.0</ele><time>2026-04-19T10:25:06.811Z</time></trkpt><trkpt lat="43.1029928" lon="11.5167346"><ele>170.0</ele><time>2026-04-19T10:25:07.811Z</time></trkpt><trkpt lat="43.1029525" lon="11.5169281"><ele>170.0</ele><time>2026-04-19T10:25:08.812Z</time></trkpt><trkpt lat="43.1028965" lon="11.5171199"><ele>168.75</ele><time>2026-04-19T10:25:09.811Z</time></trkpt><trkpt lat="43.1028087" lon="11.5172778"><ele>167.5</ele><time>2026-04-19T10:25:10.812Z</time></trkpt><trkpt lat="43.1027251" lon="11.5174353"><ele>166.25</ele><time>2026-04-19T10:25:11.812Z</time></trkpt><trkpt lat="43.1026305" lon="11.517598"><ele>165.0</ele><time>2026-04-19T10:25:12.812Z</time></trkpt><trkpt lat="43.1025221" lon="11.5177548"><ele>165.66666666666666</ele><time>2026-04-19T10:25:13.812Z</time></trkpt><trkpt lat="43.1024123" lon="11.5179184"><ele>166.33333333333331</ele><time>2026-04-19T10:25:14.81Z</time></trkpt><trkpt lat="43.1023226" lon="11.5180839"><ele>167.0</ele><time>2026-04-19T10:25:15.811Z</time></trkpt><trkpt lat="43.1022471" lon="11.5182619"><ele>167.0</ele><time>2026-04-19T10:25:16.812Z</time></trkpt><trkpt lat="43.1021785" lon="11.5184354"><ele>167.0</ele><time>2026-04-19T10:25:17.811Z</time></trkpt><trkpt lat="43.1020967" lon="11.5185932"><ele>167.0</ele><time>2026-04-19T10:25:18.812Z</time></trkpt><trkpt lat="43.1019982" lon="11.518729"><ele>167.0</ele><time>2026-04-19T10:25:19.81Z</time></trkpt><trkpt lat="43.1018796" lon="11.5188411"><ele>166.25</ele><time>2026-04-19T10:25:20.811Z</time></trkpt><trkpt lat="43.1017586" lon="11.5189478"><ele>165.5</ele><time>2026-04-19T10:25:21.811Z</time></trkpt><trkpt lat="43.1016448" lon="11.5190523"><ele>164.75</ele><time>2026-04-19T10:25:22.812Z</time></trkpt><trkpt lat="43.1015303" lon="11.5191741"><ele>164.0</ele><time>2026-04-19T10:25:23.812Z</time></trkpt><trkpt lat="43.1014718" lon="11.5193603"><ele>166.0</ele><time>2026-04-19T10:25:24.812Z</time></trkpt><trkpt lat="43.1014065" lon="11.5195194"><ele>168.0</ele><time>2026-04-19T10:25:25.811Z</time></trkpt><trkpt lat="43.1013366" lon="11.5197045"><ele>170.0</ele><time>2026-04-19T10:25:26.811Z</time></trkpt><trkpt lat="43.1012564" lon="11.5198927"><ele>172.0</ele><time>2026-04-19T10:25:27.811Z</time></trkpt><trkpt lat="43.1011747" lon="11.5200877"><ele>172.0</ele><time>2026-04-19T10:25:28.812Z</time></trkpt><trkpt lat="43.1010809" lon="11.5203029"><ele>172.0</ele><time>2026-04-19T10:25:29.812Z</time></trkpt><trkpt lat="43.1009765" lon="11.5205148"><ele>172.0</ele><time>2026-04-19T10:25:30.811Z</time></trkpt><trkpt lat="43.1008628" lon="11.5207306"><ele>169.0</ele><time>2026-04-19T10:25:31.811Z</time></trkpt><trkpt lat="43.1007246" lon="11.5209496"><ele>166.0</ele><time>2026-04-19T10:25:32.81Z</time></trkpt><trkpt lat="43.1005691" lon="11.5211628"><ele>163.0</ele><time>2026-04-19T10:25:33.811Z</time></trkpt><trkpt lat="43.1004095" lon="11.5213787"><ele>161.66666666666669</ele><time>2026-04-19T10:25:34.81Z</time></trkpt><trkpt lat="43.1002434" lon="11.5215913"><ele>160.33333333333334</ele><time>2026-04-19T10:25:35.811Z</time></trkpt><trkpt lat="43.1000833" lon="11.5217931"><ele>159.0</ele><time>2026-04-19T10:25:36.811Z</time></trkpt><trkpt lat="43.099931" lon="11.5219768"><ele>161.33333333333334</ele><time>2026-04-19T10:25:37.811Z</time></trkpt><trkpt lat="43.0997747" lon="11.5221494"><ele>163.66666666666669</ele><time>2026-04-19T10:25:38.811Z</time></trkpt><trkpt lat="43.0995987" lon="11.5222705"><ele>166.0</ele><time>2026-04-19T10:25:39.812Z</time></trkpt><trkpt lat="43.0994262" lon="11.5224046"><ele>166.0</ele><time>2026-04-19T10:25:40.812Z</time></trkpt><trkpt lat="43.0992598" lon="11.5225645"><ele>166.0</ele><time>2026-04-19T10:25:41.811Z</time></trkpt><trkpt lat="43.0991052" lon="11.5227389"><ele>166.0</ele><time>2026-04-19T10:25:42.811Z</time></trkpt><trkpt lat="43.0989473" lon="11.5229296"><ele>167.66666666666669</ele><time>2026-04-19T10:25:43.811Z</time></trkpt><trkpt lat="43.0987951" lon="11.5231204"><ele>169.33333333333334</ele><time>2026-04-19T10:25:44.812Z</time></trkpt><trkpt lat="43.0986336" lon="11.5233106"><ele>171.0</ele><time>2026-04-19T10:25:45.812Z</time></trkpt><trkpt lat="43.0984803" lon="11.5234971"><ele>171.0</ele><time>2026-04-19T10:25:46.811Z</time></trkpt><trkpt lat="43.0983371" lon="11.5236734"><ele>171.0</ele><time>2026-04-19T10:25:47.811Z</time></trkpt><trkpt lat="43.0981966" lon="11.5238486"><ele>171.0</ele><time>2026-04-19T10:25:48.811Z</time></trkpt><trkpt lat="43.0980535" lon="11.5240168"><ele>171.0</ele><time>2026-04-19T10:25:49.812Z</time></trkpt><trkpt lat="43.0979049" lon="11.5241776"><ele>171.0</ele><time>2026-04-19T10:25:50.812Z</time></trkpt><trkpt lat="43.0977569" lon="11.5243449"><ele>171.0</ele><time>2026-04-19T10:25:51.812Z</time></trkpt><trkpt lat="43.0976067" lon="11.5245132"><ele>168.66666666666666</ele><time>2026-04-19T10:25:52.812Z</time></trkpt><trkpt lat="43.0974551" lon="11.5246817"><ele>166.33333333333331</ele><time>2026-04-19T10:25:53.811Z</time></trkpt><trkpt lat="43.0972999" lon="11.5248471"><ele>164.0</ele><time>2026-04-19T10:25:54.811Z</time></trkpt><trkpt lat="43.0971413" lon="11.5250137"><ele>164.0</ele><time>2026-04-19T10:25:55.811Z</time></trkpt><trkpt lat="43.0969826" lon="11.525184"><ele>164.0</ele><time>2026-04-19T10:25:56.811Z</time></trkpt><trkpt lat="43.0968197" lon="11.5253611"><ele>164.0</ele><time>2026-04-19T10:25:57.811Z</time></trkpt><trkpt lat="43.0966547" lon="11.5255332"><ele>165.33333333333331</ele><time>2026-04-19T10:25:58.811Z</time></trkpt><trkpt lat="43.0964838" lon="11.5257132"><ele>166.66666666666666</ele><time>2026-04-19T10:25:59.811Z</time></trkpt><trkpt lat="43.0963123" lon="11.5258916"><ele>168.0</ele><time>2026-04-19T10:26:00.811Z</time></trkpt><trkpt lat="43.0961424" lon="11.5260816"><ele>167.0</ele><time>2026-04-19T10:26:01.811Z</time></trkpt><trkpt lat="43.0959772" lon="11.5262629"><ele>166.0</ele><time>2026-04-19T10:26:02.811Z</time></trkpt><trkpt lat="43.0958151" lon="11.5264486"><ele>165.0</ele><time>2026-04-19T10:26:03.81Z</time></trkpt><trkpt lat="43.0956586" lon="11.5266464"><ele>165.66666666666666</ele><time>2026-04-19T10:26:04.811Z</time></trkpt><trkpt lat="43.0955044" lon="11.5268444"><ele>166.33333333333331</ele><time>2026-04-19T10:26:05.811Z</time></trkpt><trkpt lat="43.0953559" lon="11.5270439"><ele>167.0</ele><time>2026-04-19T10:26:06.812Z</time></trkpt><trkpt lat="43.0952184" lon="11.5272506"><ele>167.0</ele><time>2026-04-19T10:26:07.81Z</time></trkpt><trkpt lat="43.0950825" lon="11.5274606"><ele>167.0</ele><time>2026-04-19T10:26:08.81Z</time></trkpt><trkpt lat="43.0949554" lon="11.52768"><ele>167.0</ele><time>2026-04-19T10:26:09.811Z</time></trkpt><trkpt lat="43.0948335" lon="11.5279032"><ele>167.66666666666666</ele><time>2026-04-19T10:26:10.811Z</time></trkpt><trkpt lat="43.0947125" lon="11.5281369"><ele>168.33333333333334</ele><time>2026-04-19T10:26:11.811Z</time></trkpt><trkpt lat="43.0945918" lon="11.528375"><ele>169.0</ele><time>2026-04-19T10:26:12.811Z</time></trkpt><trkpt lat="43.0944736" lon="11.5286254"><ele>166.5</ele><time>2026-04-19T10:26:13.811Z</time></trkpt><trkpt lat="43.0943659" lon="11.5288915"><ele>164.0</ele><time>2026-04-19T10:26:14.811Z</time></trkpt><trkpt lat="43.0942602" lon="11.5291693"><ele>164.0</ele><time>2026-04-19T10:26:15.811Z</time></trkpt><trkpt lat="43.0941634" lon="11.5294568"><ele>164.0</ele><time>2026-04-19T10:26:16.81Z</time></trkpt><trkpt lat="43.094072" lon="11.5297453"><ele>164.5</ele><time>2026-04-19T10:26:17.81Z</time></trkpt><trkpt lat="43.0939816" lon="11.5300296"><ele>165.0</ele><time>2026-04-19T10:26:18.812Z</time></trkpt><trkpt lat="43.0938957" lon="11.5303149"><ele>165.0</ele><time>2026-04-19T10:26:19.812Z</time></trkpt><trkpt lat="43.0938232" lon="11.5305981"><ele>165.0</ele><time>2026-04-19T10:26:20.811Z</time></trkpt><trkpt lat="43.0937542" lon="11.5308806"><ele>165.0</ele><time>2026-04-19T10:26:21.811Z</time></trkpt><trkpt lat="43.0936922" lon="11.5311668"><ele>166.33333333333334</ele><time>2026-04-19T10:26:22.812Z</time></trkpt><trkpt lat="43.0936382" lon="11.5314529"><ele>167.66666666666669</ele><time>2026-04-19T10:26:23.812Z</time></trkpt><trkpt lat="43.0935928" lon="11.5317357"><ele>169.0</ele><time>2026-04-19T10:26:24.811Z</time></trkpt><trkpt lat="43.0935587" lon="11.5320203"><ele>170.66666666666669</ele><time>2026-04-19T10:26:25.812Z</time></trkpt><trkpt lat="43.0935249" lon="11.5322914"><ele>172.33333333333334</ele><time>2026-04-19T10:26:26.812Z</time></trkpt><trkpt lat="43.093495" lon="11.5325587"><ele>174.0</ele><time>2026-04-19T10:26:27.812Z</time></trkpt><trkpt lat="43.0934694" lon="11.5328208"><ele>175.66666666666666</ele><time>2026-04-19T10:26:28.811Z</time></trkpt><trkpt lat="43.0934434" lon="11.5330742"><ele>177.33333333333331</ele><time>2026-04-19T10:26:29.811Z</time></trkpt><trkpt lat="43.0934174" lon="11.5333227"><ele>179.0</ele><time>2026-04-19T10:26:30.811Z</time></trkpt><trkpt lat="43.0933928" lon="11.5335686"><ele>181.0</ele><time>2026-04-19T10:26:31.812Z</time></trkpt><trkpt lat="43.0933697" lon="11.5338218"><ele>183.0</ele><time>2026-04-19T10:26:32.811Z</time></trkpt><trkpt lat="43.093346" lon="11.5340739"><ele>185.0</ele><time>2026-04-19T10:26:33.81Z</time></trkpt><trkpt lat="43.0933261" lon="11.5343335"><ele>185.0</ele><time>2026-04-19T10:26:34.811Z</time></trkpt><trkpt lat="43.0933035" lon="11.5345991"><ele>185.0</ele><time>2026-04-19T10:26:35.811Z</time></trkpt><trkpt lat="43.0932764" lon="11.5348692"><ele>185.0</ele><time>2026-04-19T10:26:36.811Z</time></trkpt><trkpt lat="43.0932425" lon="11.5351396"><ele>186.33333333333331</ele><time>2026-04-19T10:26:37.81Z</time></trkpt><trkpt lat="43.093199" lon="11.5354156"><ele>187.66666666666666</ele><time>2026-04-19T10:26:38.812Z</time></trkpt><trkpt lat="43.0931508" lon="11.5356931"><ele>189.0</ele><time>2026-04-19T10:26:39.812Z</time></trkpt><trkpt lat="43.0930968" lon="11.535967"><ele>190.33333333333331</ele><time>2026-04-19T10:26:40.81Z</time></trkpt><trkpt lat="43.0930293" lon="11.5362403"><ele>191.66666666666666</ele><time>2026-04-19T10:26:41.812Z</time></trkpt><trkpt lat="43.0929541" lon="11.5365068"><ele>193.0</ele><time>2026-04-19T10:26:42.812Z</time></trkpt><trkpt lat="43.0928724" lon="11.5367693"><ele>193.0</ele><time>2026-04-19T10:26:43.812Z</time></trkpt><trkpt lat="43.0927817" lon="11.5370277"><ele>193.0</ele><time>2026-04-19T10:26:44.811Z</time></trkpt><trkpt lat="43.0926869" lon="11.5372749"><ele>193.0</ele><time>2026-04-19T10:26:45.812Z</time></trkpt><trkpt lat="43.0925843" lon="11.5375129"><ele>195.66666666666666</ele><time>2026-04-19T10:26:46.812Z</time></trkpt><trkpt lat="43.0924738" lon="11.5377438"><ele>198.33333333333331</ele><time>2026-04-19T10:26:47.811Z</time></trkpt><trkpt lat="43.0923581" lon="11.5379694"><ele>201.0</ele><time>2026-04-19T10:26:48.811Z</time></trkpt><trkpt lat="43.092231" lon="11.5381915"><ele>203.33333333333331</ele><time>2026-04-19T10:26:49.811Z</time></trkpt><trkpt lat="43.0920954" lon="11.5384091"><ele>205.66666666666666</ele><time>2026-04-19T10:26:50.81Z</time></trkpt><trkpt lat="43.0919548" lon="11.5386177"><ele>208.0</ele><time>2026-04-19T10:26:51.812Z</time></trkpt><trkpt lat="43.0918044" lon="11.5388153"><ele>210.33333333333331</ele><time>2026-04-19T10:26:52.812Z</time></trkpt><trkpt lat="43.0916412" lon="11.5390085"><ele>212.66666666666669</ele><time>2026-04-19T10:26:53.812Z</time></trkpt><trkpt lat="43.0914753" lon="11.5391963"><ele>215.0</ele><time>2026-04-19T10:26:54.812Z</time></trkpt><trkpt lat="43.0913067" lon="11.5393808"><ele>219.0</ele><time>2026-04-19T10:26:55.811Z</time></trkpt><trkpt lat="43.0911245" lon="11.5395541"><ele>223.0</ele><time>2026-04-19T10:26:56.81Z</time></trkpt><trkpt lat="43.0909574" lon="11.5397088"><ele>227.0</ele><time>2026-04-19T10:26:57.811Z</time></trkpt><trkpt lat="43.0907706" lon="11.539865"><ele>225.66666666666669</ele><time>2026-04-19T10:26:58.811Z</time></trkpt><trkpt lat="43.0905823" lon="11.5399994"><ele>224.33333333333331</ele><time>2026-04-19T10:26:59.811Z</time></trkpt><trkpt lat="43.0903821" lon="11.540128"><ele>223.0</ele><time>2026-04-19T10:27:00.812Z</time></trkpt><trkpt lat="43.0901809" lon="11.540244"><ele>223.0</ele><time>2026-04-19T10:27:01.811Z</time></trkpt><trkpt lat="43.0899763" lon="11.540354"><ele>223.0</ele><time>2026-04-19T10:27:02.811Z</time></trkpt><trkpt lat="43.0897715" lon="11.5404625"><ele>223.0</ele><time>2026-04-19T10:27:03.811Z</time></trkpt><trkpt lat="43.0895707" lon="11.5405727"><ele>224.33333333333331</ele><time>2026-04-19T10:27:04.811Z</time></trkpt><trkpt lat="43.0893702" lon="11.5406792"><ele>225.66666666666669</ele><time>2026-04-19T10:27:05.81Z</time></trkpt><trkpt lat="43.0891668" lon="11.540783"><ele>227.0</ele><time>2026-04-19T10:27:06.812Z</time></trkpt><trkpt lat="43.0889634" lon="11.5408868"><ele>227.0</ele><time>2026-04-19T10:27:07.812Z</time></trkpt><trkpt lat="43.0887606" lon="11.5409948"><ele>227.0</ele><time>2026-04-19T10:27:08.812Z</time></trkpt><trkpt lat="43.0885572" lon="11.5411027"><ele>227.0</ele><time>2026-04-19T10:27:09.812Z</time></trkpt><trkpt lat="43.0883546" lon="11.541213"><ele>231.33333333333334</ele><time>2026-04-19T10:27:10.812Z</time></trkpt><trkpt lat="43.0881546" lon="11.5413189"><ele>235.66666666666669</ele><time>2026-04-19T10:27:11.81Z</time></trkpt><trkpt lat="43.0879596" lon="11.541418"><ele>240.0</ele><time>2026-04-19T10:27:12.811Z</time></trkpt><trkpt lat="43.0877728" lon="11.5415156"><ele>240.0</ele><time>2026-04-19T10:27:13.811Z</time></trkpt><trkpt lat="43.0875891" lon="11.5416087"><ele>240.0</ele><time>2026-04-19T10:27:14.811Z</time></trkpt><trkpt lat="43.0874091" lon="11.5417022"><ele>240.0</ele><time>2026-04-19T10:27:15.81Z</time></trkpt><trkpt lat="43.0872282" lon="11.5417961"><ele>240.33333333333331</ele><time>2026-04-19T10:27:16.811Z</time></trkpt><trkpt lat="43.0870479" lon="11.5418929"><ele>240.66666666666666</ele><time>2026-04-19T10:27:17.811Z</time></trkpt><trkpt lat="43.0868683" lon="11.5420036"><ele>241.0</ele><time>2026-04-19T10:27:18.811Z</time></trkpt><trkpt lat="43.0866921" lon="11.5421316"><ele>246.0</ele><time>2026-04-19T10:27:19.811Z</time></trkpt><trkpt lat="43.0865224" lon="11.5422702"><ele>251.0</ele><time>2026-04-19T10:27:20.811Z</time></trkpt><trkpt lat="43.0863471" lon="11.5424231"><ele>256.0</ele><time>2026-04-19T10:27:21.811Z</time></trkpt><trkpt lat="43.0861837" lon="11.5425796"><ele>256.0</ele><time>2026-04-19T10:27:22.81Z</time></trkpt><trkpt lat="43.0860336" lon="11.5427392"><ele>256.0</ele><time>2026-04-19T10:27:23.81Z</time></trkpt><trkpt lat="43.0858946" lon="11.5429055"><ele>256.0</ele><time>2026-04-19T10:27:24.81Z</time></trkpt><trkpt lat="43.0857593" lon="11.5430806"><ele>260.5</ele><time>2026-04-19T10:27:25.811Z</time></trkpt><trkpt lat="43.0856301" lon="11.5432607"><ele>265.0</ele><time>2026-04-19T10:27:26.811Z</time></trkpt><trkpt lat="43.0846064" lon="11.5451"><ele>265.0</ele><time>2026-04-19T10:27:34.81Z</time></trkpt><trkpt lat="43.0844345" lon="11.5452345"><ele>265.0</ele><time>2026-04-19T10:27:35.81Z</time></trkpt><trkpt lat="43.0842919" lon="11.5454407"><ele>265.0</ele><time>2026-04-19T10:27:36.811Z</time></trkpt><trkpt lat="43.0841469" lon="11.5456423"><ele>266.0</ele><time>2026-04-19T10:27:37.811Z</time></trkpt><trkpt lat="43.0839922" lon="11.5458388"><ele>267.0</ele><time>2026-04-19T10:27:38.811Z</time></trkpt><trkpt lat="43.0838244" lon="11.5460256"><ele>268.0</ele><time>2026-04-19T10:27:39.811Z</time></trkpt><trkpt lat="43.083649" lon="11.546203"><ele>267.3333333333333</ele><time>2026-04-19T10:27:40.81Z</time></trkpt><trkpt lat="43.0834658" lon="11.5463644"><ele>266.6666666666667</ele><time>2026-04-19T10:27:41.81Z</time></trkpt><trkpt lat="43.0832776" lon="11.5465201"><ele>266.0</ele><time>2026-04-19T10:27:42.81Z</time></trkpt><trkpt lat="43.0830852" lon="11.5466531"><ele>266.0</ele><time>2026-04-19T10:27:43.81Z</time></trkpt><trkpt lat="43.0828883" lon="11.5467823"><ele>266.0</ele><time>2026-04-19T10:27:44.81Z</time></trkpt><trkpt lat="43.0826823" lon="11.5468992"><ele>266.0</ele><time>2026-04-19T10:27:45.811Z</time></trkpt><trkpt lat="43.0824732" lon="11.5469966"><ele>261.0</ele><time>2026-04-19T10:27:46.811Z</time></trkpt><trkpt lat="43.0822639" lon="11.5470798"><ele>256.0</ele><time>2026-04-19T10:27:47.81Z</time></trkpt><trkpt lat="43.0820546" lon="11.5471477"><ele>251.0</ele><time>2026-04-19T10:27:48.81Z</time></trkpt><trkpt lat="43.0818366" lon="11.5472"><ele>251.0</ele><time>2026-04-19T10:27:49.81Z</time></trkpt><trkpt lat="43.0816165" lon="11.5472341"><ele>251.0</ele><time>2026-04-19T10:27:50.811Z</time></trkpt><trkpt lat="43.0813985" lon="11.5472565"><ele>251.0</ele><time>2026-04-19T10:27:51.811Z</time></trkpt><trkpt lat="43.0811865" lon="11.5472652"><ele>250.33333333333334</ele><time>2026-04-19T10:27:52.811Z</time></trkpt><trkpt lat="43.0809808" lon="11.5472569"><ele>249.66666666666669</ele><time>2026-04-19T10:27:53.811Z</time></trkpt><trkpt lat="43.080779" lon="11.5472365"><ele>249.0</ele><time>2026-04-19T10:27:54.811Z</time></trkpt><trkpt lat="43.0805736" lon="11.5472052"><ele>249.0</ele><time>2026-04-19T10:27:55.811Z</time></trkpt><trkpt lat="43.0803682" lon="11.5471565"><ele>249.0</ele><time>2026-04-19T10:27:56.81Z</time></trkpt><trkpt lat="43.0801595" lon="11.5470894"><ele>249.0</ele><time>2026-04-19T10:27:57.81Z</time></trkpt><trkpt lat="43.0799529" lon="11.5470141"><ele>247.33333333333331</ele><time>2026-04-19T10:27:58.81Z</time></trkpt><trkpt lat="43.0797455" lon="11.5469317"><ele>245.66666666666666</ele><time>2026-04-19T10:27:59.81Z</time></trkpt><trkpt lat="43.079535" lon="11.5468469"><ele>244.0</ele><time>2026-04-19T10:28:00.81Z</time></trkpt><trkpt lat="43.0793209" lon="11.5467717"><ele>244.0</ele><time>2026-04-19T10:28:01.81Z</time></trkpt><trkpt lat="43.0791016" lon="11.5467017"><ele>244.0</ele><time>2026-04-19T10:28:02.81Z</time></trkpt><trkpt lat="43.078878" lon="11.5466435"><ele>243.5</ele><time>2026-04-19T10:28:03.81Z</time></trkpt><trkpt lat="43.0786539" lon="11.546596"><ele>243.0</ele><time>2026-04-19T10:28:04.811Z</time></trkpt><trkpt lat="43.0784273" lon="11.5465612"><ele>243.0</ele><time>2026-04-19T10:28:05.811Z</time></trkpt><trkpt lat="43.0782072" lon="11.5465444"><ele>243.0</ele><time>2026-04-19T10:28:06.81Z</time></trkpt><trkpt lat="43.0779817" lon="11.5465342"><ele>243.0</ele><time>2026-04-19T10:28:07.811Z</time></trkpt><trkpt lat="43.0777531" lon="11.5465366"><ele>243.0</ele><time>2026-04-19T10:28:08.811Z</time></trkpt><trkpt lat="43.0775263" lon="11.5465546"><ele>243.0</ele><time>2026-04-19T10:28:09.811Z</time></trkpt><trkpt lat="43.0773012" lon="11.5465943"><ele>244.5</ele><time>2026-04-19T10:28:10.81Z</time></trkpt><trkpt lat="43.0770784" lon="11.5466496"><ele>246.0</ele><time>2026-04-19T10:28:11.81Z</time></trkpt><trkpt lat="43.0768544" lon="11.5467054"><ele>246.0</ele><time>2026-04-19T10:28:12.81Z</time></trkpt><trkpt lat="43.0766309" lon="11.5467592"><ele>246.0</ele><time>2026-04-19T10:28:13.809Z</time></trkpt><trkpt lat="43.0764103" lon="11.5468131"><ele>247.33333333333331</ele><time>2026-04-19T10:28:14.811Z</time></trkpt><trkpt lat="43.076191" lon="11.5468673"><ele>248.66666666666666</ele><time>2026-04-19T10:28:15.81Z</time></trkpt><trkpt lat="43.0759735" lon="11.5469185"><ele>250.0</ele><time>2026-04-19T10:28:16.809Z</time></trkpt><trkpt lat="43.0757516" lon="11.5469695"><ele>249.0</ele><time>2026-04-19T10:28:17.81Z</time></trkpt><trkpt lat="43.0755327" lon="11.547023"><ele>248.0</ele><time>2026-04-19T10:28:18.81Z</time></trkpt><trkpt lat="43.0753207" lon="11.5470821"><ele>247.0</ele><time>2026-04-19T10:28:19.81Z</time></trkpt><trkpt lat="43.0750998" lon="11.5471346"><ele>247.66666666666666</ele><time>2026-04-19T10:28:20.81Z</time></trkpt><trkpt lat="43.0748797" lon="11.547185"><ele>248.33333333333331</ele><time>2026-04-19T10:28:21.809Z</time></trkpt><trkpt lat="43.0746629" lon="11.5472406"><ele>249.0</ele><time>2026-04-19T10:28:22.81Z</time></trkpt><trkpt lat="43.0744432" lon="11.5472973"><ele>249.0</ele><time>2026-04-19T10:28:23.81Z</time></trkpt><trkpt lat="43.0742235" lon="11.5473502"><ele>249.0</ele><time>2026-04-19T10:28:24.81Z</time></trkpt><trkpt lat="43.0740031" lon="11.5473945"><ele>249.0</ele><time>2026-04-19T10:28:25.81Z</time></trkpt><trkpt lat="43.0737803" lon="11.547439"><ele>248.5</ele><time>2026-04-19T10:28:26.81Z</time></trkpt><trkpt lat="43.0735537" lon="11.5474681"><ele>248.0</ele><time>2026-04-19T10:28:27.81Z</time></trkpt><trkpt lat="43.07332" lon="11.5474844"><ele>246.66666666666669</ele><time>2026-04-19T10:28:28.81Z</time></trkpt><trkpt lat="43.0730986" lon="11.5474855"><ele>245.33333333333331</ele><time>2026-04-19T10:28:29.809Z</time></trkpt><trkpt lat="43.0728797" lon="11.5474693"><ele>244.0</ele><time>2026-04-19T10:28:30.81Z</time></trkpt><trkpt lat="43.0726614" lon="11.5474505"><ele>242.5</ele><time>2026-04-19T10:28:31.809Z</time></trkpt><trkpt lat="43.0724373" lon="11.5474216"><ele>241.0</ele><time>2026-04-19T10:28:32.809Z</time></trkpt><trkpt lat="43.0722048" lon="11.5473708"><ele>241.0</ele><time>2026-04-19T10:28:33.81Z</time></trkpt><trkpt lat="43.0719638" lon="11.5473064"><ele>241.0</ele><time>2026-04-19T10:28:34.81Z</time></trkpt><trkpt lat="43.0717109" lon="11.5472337"><ele>241.5</ele><time>2026-04-19T10:28:35.81Z</time></trkpt><trkpt lat="43.0714484" lon="11.5471595"><ele>242.0</ele><time>2026-04-19T10:28:36.81Z</time></trkpt><trkpt lat="43.0711914" lon="11.5470828"><ele>242.0</ele><time>2026-04-19T10:28:37.81Z</time></trkpt><trkpt lat="43.0709363" lon="11.547005"><ele>242.0</ele><time>2026-04-19T10:28:38.809Z</time></trkpt><trkpt lat="43.0706876" lon="11.5469355"><ele>242.5</ele><time>2026-04-19T10:28:39.811Z</time></trkpt><trkpt lat="43.0704392" lon="11.5468778"><ele>243.0</ele><time>2026-04-19T10:28:40.81Z</time></trkpt><trkpt lat="43.0701901" lon="11.5468346"><ele>243.0</ele><time>2026-04-19T10:28:41.81Z</time></trkpt><trkpt lat="43.0699466" lon="11.546817"><ele>243.0</ele><time>2026-04-19T10:28:42.81Z</time></trkpt><trkpt lat="43.0697094" lon="11.5468231"><ele>245.0</ele><time>2026-04-19T10:28:43.809Z</time></trkpt><trkpt lat="43.0694734" lon="11.5468365"><ele>247.0</ele><time>2026-04-19T10:28:44.809Z</time></trkpt><trkpt lat="43.06924" lon="11.5468613"><ele>246.5</ele><time>2026-04-19T10:28:45.811Z</time></trkpt><trkpt lat="43.0690058" lon="11.5469196"><ele>246.0</ele><time>2026-04-19T10:28:46.809Z</time></trkpt><trkpt lat="43.0687734" lon="11.5469848"><ele>244.0</ele><time>2026-04-19T10:28:47.81Z</time></trkpt><trkpt lat="43.0685405" lon="11.5470673"><ele>242.0</ele><time>2026-04-19T10:28:48.809Z</time></trkpt><trkpt lat="43.0683136" lon="11.5471658"><ele>240.5</ele><time>2026-04-19T10:28:49.81Z</time></trkpt><trkpt lat="43.0680934" lon="11.5472792"><ele>239.0</ele><time>2026-04-19T10:28:50.81Z</time></trkpt><trkpt lat="43.0678841" lon="11.5474128"><ele>239.0</ele><time>2026-04-19T10:28:51.809Z</time></trkpt><trkpt lat="43.0676818" lon="11.5475659"><ele>239.0</ele><time>2026-04-19T10:28:52.81Z</time></trkpt><trkpt lat="43.0674872" lon="11.5477194"><ele>239.66666666666669</ele><time>2026-04-19T10:28:53.81Z</time></trkpt><trkpt lat="43.0673023" lon="11.5478852"><ele>240.33333333333331</ele><time>2026-04-19T10:28:54.81Z</time></trkpt><trkpt lat="43.0671278" lon="11.5480621"><ele>241.0</ele><time>2026-04-19T10:28:55.811Z</time></trkpt><trkpt lat="43.0669647" lon="11.5482618"><ele>241.0</ele><time>2026-04-19T10:28:56.811Z</time></trkpt><trkpt lat="43.0668028" lon="11.5484681"><ele>241.0</ele><time>2026-04-19T10:28:57.81Z</time></trkpt><trkpt lat="43.0666473" lon="11.5486923"><ele>241.0</ele><time>2026-04-19T10:28:58.811Z</time></trkpt><trkpt lat="43.0665031" lon="11.5489204"><ele>240.0</ele><time>2026-04-19T10:28:59.811Z</time></trkpt><trkpt lat="43.0663619" lon="11.549159"><ele>239.0</ele><time>2026-04-19T10:29:00.809Z</time></trkpt><trkpt lat="43.0662341" lon="11.5494061"><ele>238.0</ele><time>2026-04-19T10:29:01.81Z</time></trkpt><trkpt lat="43.0661196" lon="11.5496538"><ele>237.66666666666666</ele><time>2026-04-19T10:29:02.81Z</time></trkpt><trkpt lat="43.0660144" lon="11.5499091"><ele>237.33333333333331</ele><time>2026-04-19T10:29:03.81Z</time></trkpt><trkpt lat="43.0659071" lon="11.5501837"><ele>237.0</ele><time>2026-04-19T10:29:04.81Z</time></trkpt><trkpt lat="43.0658081" lon="11.5504769"><ele>234.5</ele><time>2026-04-19T10:29:05.809Z</time></trkpt><trkpt lat="43.0657054" lon="11.5507857"><ele>232.0</ele><time>2026-04-19T10:29:06.81Z</time></trkpt><trkpt lat="43.0655988" lon="11.5511043"><ele>232.5</ele><time>2026-04-19T10:29:07.81Z</time></trkpt><trkpt lat="43.0654914" lon="11.5514444"><ele>233.0</ele><time>2026-04-19T10:29:08.81Z</time></trkpt><trkpt lat="43.0653876" lon="11.5517987"><ele>234.0</ele><time>2026-04-19T10:29:09.811Z</time></trkpt><trkpt lat="43.0652725" lon="11.5521663"><ele>235.0</ele><time>2026-04-19T10:29:10.811Z</time></trkpt><trkpt lat="43.0651531" lon="11.552541"><ele>235.0</ele><time>2026-04-19T10:29:11.81Z</time></trkpt><trkpt lat="43.0650286" lon="11.5529074"><ele>235.0</ele><time>2026-04-19T10:29:12.81Z</time></trkpt><trkpt lat="43.0649083" lon="11.5532779"><ele>235.0</ele><time>2026-04-19T10:29:13.81Z</time></trkpt><trkpt lat="43.0647909" lon="11.5536383"><ele>235.0</ele><time>2026-04-19T10:29:14.81Z</time></trkpt><trkpt lat="43.0646779" lon="11.5539808"><ele>238.0</ele><time>2026-04-19T10:29:15.81Z</time></trkpt><trkpt lat="43.0645734" lon="11.5543142"><ele>241.0</ele><time>2026-04-19T10:29:16.81Z</time></trkpt><trkpt lat="43.0644786" lon="11.5546358"><ele>245.5</ele><time>2026-04-19T10:29:17.811Z</time></trkpt><trkpt lat="43.0643974" lon="11.5549529"><ele>250.0</ele><time>2026-04-19T10:29:18.81Z</time></trkpt><trkpt lat="43.0643281" lon="11.55528"><ele>250.0</ele><time>2026-04-19T10:29:19.81Z</time></trkpt><trkpt lat="43.0642664" lon="11.5556161"><ele>250.0</ele><time>2026-04-19T10:29:20.81Z</time></trkpt><trkpt lat="43.0642123" lon="11.5559491"><ele>248.5</ele><time>2026-04-19T10:29:21.81Z</time></trkpt><trkpt lat="43.0641746" lon="11.5562933"><ele>247.0</ele><time>2026-04-19T10:29:22.811Z</time></trkpt><trkpt lat="43.064146" lon="11.5566417"><ele>247.0</ele><time>2026-04-19T10:29:23.811Z</time></trkpt><trkpt lat="43.0641173" lon="11.557001"><ele>247.0</ele><time>2026-04-19T10:29:24.811Z</time></trkpt><trkpt lat="43.064091" lon="11.5573582"><ele>247.5</ele><time>2026-04-19T10:29:25.81Z</time></trkpt><trkpt lat="43.0640719" lon="11.5577111"><ele>248.0</ele><time>2026-04-19T10:29:26.811Z</time></trkpt><trkpt lat="43.0640493" lon="11.5580432"><ele>248.0</ele><time>2026-04-19T10:29:27.811Z</time></trkpt><trkpt lat="43.0640303" lon="11.5583657"><ele>248.0</ele><time>2026-04-19T10:29:28.81Z</time></trkpt><trkpt lat="43.0640096" lon="11.5586791"><ele>250.0</ele><time>2026-04-19T10:29:29.81Z</time></trkpt><trkpt lat="43.0639874" lon="11.558993"><ele>252.0</ele><time>2026-04-19T10:29:30.811Z</time></trkpt><trkpt lat="43.0639688" lon="11.5592978"><ele>254.33333333333331</ele><time>2026-04-19T10:29:31.81Z</time></trkpt><trkpt lat="43.0639526" lon="11.5595981"><ele>256.66666666666663</ele><time>2026-04-19T10:29:32.81Z</time></trkpt><trkpt lat="43.063932" lon="11.5598942"><ele>259.0</ele><time>2026-04-19T10:29:33.809Z</time></trkpt><trkpt lat="43.0639083" lon="11.5601794"><ele>260.0</ele><time>2026-04-19T10:29:34.811Z</time></trkpt><trkpt lat="43.0638847" lon="11.5604746"><ele>261.0</ele><time>2026-04-19T10:29:35.811Z</time></trkpt><trkpt lat="43.0638636" lon="11.5607759"><ele>262.0</ele><time>2026-04-19T10:29:36.811Z</time></trkpt><trkpt lat="43.0638505" lon="11.561088"><ele>257.5</ele><time>2026-04-19T10:29:37.811Z</time></trkpt><trkpt lat="43.0638297" lon="11.5614034"><ele>253.0</ele><time>2026-04-19T10:29:38.811Z</time></trkpt><trkpt lat="43.0638122" lon="11.5617194"><ele>249.5</ele><time>2026-04-19T10:29:39.811Z</time></trkpt><trkpt lat="43.063794" lon="11.5620359"><ele>246.0</ele><time>2026-04-19T10:29:40.81Z</time></trkpt><trkpt lat="43.0637861" lon="11.562357"><ele>246.0</ele><time>2026-04-19T10:29:41.81Z</time></trkpt><trkpt lat="43.0637885" lon="11.562674"><ele>246.0</ele><time>2026-04-19T10:29:42.81Z</time></trkpt><trkpt lat="43.0637938" lon="11.5629925"><ele>244.5</ele><time>2026-04-19T10:29:43.811Z</time></trkpt><trkpt lat="43.0638076" lon="11.563313"><ele>243.0</ele><time>2026-04-19T10:29:44.811Z</time></trkpt><trkpt lat="43.063832" lon="11.5636343"><ele>243.5</ele><time>2026-04-19T10:29:45.81Z</time></trkpt><trkpt lat="43.0638727" lon="11.5639427"><ele>244.0</ele><time>2026-04-19T10:29:46.811Z</time></trkpt><trkpt lat="43.0639263" lon="11.5642463"><ele>244.5</ele><time>2026-04-19T10:29:47.81Z</time></trkpt><trkpt lat="43.063992" lon="11.5645537"><ele>245.0</ele><time>2026-04-19T10:29:48.81Z</time></trkpt><trkpt lat="43.064069" lon="11.5648503"><ele>248.0</ele><time>2026-04-19T10:29:49.81Z</time></trkpt><trkpt lat="43.0641581" lon="11.5651495"><ele>251.0</ele><time>2026-04-19T10:29:50.81Z</time></trkpt><trkpt lat="43.0642513" lon="11.565437"><ele>251.0</ele><time>2026-04-19T10:29:51.811Z</time></trkpt><trkpt lat="43.064359" lon="11.5657279"><ele>251.0</ele><time>2026-04-19T10:29:52.81Z</time></trkpt><trkpt lat="43.0644802" lon="11.5660033"><ele>249.0</ele><time>2026-04-19T10:29:53.811Z</time></trkpt><trkpt lat="43.0646108" lon="11.5662707"><ele>247.0</ele><time>2026-04-19T10:29:54.811Z</time></trkpt><trkpt lat="43.0647551" lon="11.5665357"><ele>247.0</ele><time>2026-04-19T10:29:55.811Z</time></trkpt><trkpt lat="43.0649089" lon="11.5667945"><ele>247.0</ele><time>2026-04-19T10:29:56.811Z</time></trkpt><trkpt lat="43.0650682" lon="11.5670519"><ele>246.0</ele><time>2026-04-19T10:29:57.81Z</time></trkpt><trkpt lat="43.0652332" lon="11.5673072"><ele>245.0</ele><time>2026-04-19T10:29:58.811Z</time></trkpt><trkpt lat="43.0654001" lon="11.5675593"><ele>245.0</ele><time>2026-04-19T10:29:59.811Z</time></trkpt><trkpt lat="43.0655684" lon="11.5678093"><ele>245.0</ele><time>2026-04-19T10:30:00.809Z</time></trkpt><trkpt lat="43.0657383" lon="11.5680575"><ele>244.5</ele><time>2026-04-19T10:30:01.811Z</time></trkpt><trkpt lat="43.065902" lon="11.5683041"><ele>244.0</ele><time>2026-04-19T10:30:02.81Z</time></trkpt><trkpt lat="43.0660708" lon="11.5685509"><ele>243.5</ele><time>2026-04-19T10:30:03.809Z</time></trkpt><trkpt lat="43.0662393" lon="11.5687948"><ele>243.0</ele><time>2026-04-19T10:30:04.81Z</time></trkpt><trkpt lat="43.0664099" lon="11.5690366"><ele>243.0</ele><time>2026-04-19T10:30:05.81Z</time></trkpt><trkpt lat="43.0665807" lon="11.5692843"><ele>243.0</ele><time>2026-04-19T10:30:06.811Z</time></trkpt><trkpt lat="43.0667544" lon="11.5695307"><ele>245.5</ele><time>2026-04-19T10:30:07.81Z</time></trkpt><trkpt lat="43.0669325" lon="11.5697792"><ele>248.0</ele><time>2026-04-19T10:30:08.81Z</time></trkpt><trkpt lat="43.0671081" lon="11.5700259"><ele>248.0</ele><time>2026-04-19T10:30:09.81Z</time></trkpt><trkpt lat="43.067293" lon="11.5702809"><ele>248.0</ele><time>2026-04-19T10:30:10.81Z</time></trkpt><trkpt lat="43.0674741" lon="11.5705381"><ele>248.5</ele><time>2026-04-19T10:30:11.81Z</time></trkpt><trkpt lat="43.0676548" lon="11.5708016"><ele>249.0</ele><time>2026-04-19T10:30:12.81Z</time></trkpt><trkpt lat="43.0678416" lon="11.5710756"><ele>246.0</ele><time>2026-04-19T10:30:13.809Z</time></trkpt><trkpt lat="43.068028" lon="11.5713511"><ele>243.0</ele><time>2026-04-19T10:30:14.81Z</time></trkpt><trkpt lat="43.0682148" lon="11.5716293"><ele>244.0</ele><time>2026-04-19T10:30:15.81Z</time></trkpt><trkpt lat="43.068401" lon="11.5719131"><ele>245.0</ele><time>2026-04-19T10:30:16.81Z</time></trkpt><trkpt lat="43.068586" lon="11.5721961"><ele>245.0</ele><time>2026-04-19T10:30:17.81Z</time></trkpt><trkpt lat="43.0687633" lon="11.5724857"><ele>245.0</ele><time>2026-04-19T10:30:18.81Z</time></trkpt><trkpt lat="43.0689385" lon="11.5727841"><ele>245.5</ele><time>2026-04-19T10:30:19.811Z</time></trkpt><trkpt lat="43.0691053" lon="11.5730818"><ele>246.0</ele><time>2026-04-19T10:30:20.81Z</time></trkpt><trkpt lat="43.069261" lon="11.5733788"><ele>246.0</ele><time>2026-04-19T10:30:21.811Z</time></trkpt><trkpt lat="43.069408" lon="11.5736784"><ele>246.0</ele><time>2026-04-19T10:30:22.81Z</time></trkpt><trkpt lat="43.0695336" lon="11.5739574"><ele>245.5</ele><time>2026-04-19T10:30:23.81Z</time></trkpt><trkpt lat="43.0696502" lon="11.5742402"><ele>245.0</ele><time>2026-04-19T10:30:24.81Z</time></trkpt><trkpt lat="43.0697553" lon="11.574528"><ele>245.0</ele><time>2026-04-19T10:30:25.81Z</time></trkpt><trkpt lat="43.0698515" lon="11.5748227"><ele>245.0</ele><time>2026-04-19T10:30:26.81Z</time></trkpt><trkpt lat="43.0699364" lon="11.5751205"><ele>246.0</ele><time>2026-04-19T10:30:27.81Z</time></trkpt><trkpt lat="43.0700126" lon="11.5754144"><ele>247.0</ele><time>2026-04-19T10:30:28.81Z</time></trkpt><trkpt lat="43.0700769" lon="11.5757032"><ele>248.0</ele><time>2026-04-19T10:30:29.809Z</time></trkpt><trkpt lat="43.0701345" lon="11.5759915"><ele>248.66666666666669</ele><time>2026-04-19T10:30:30.809Z</time></trkpt><trkpt lat="43.0701789" lon="11.5762653"><ele>249.33333333333331</ele><time>2026-04-19T10:30:31.81Z</time></trkpt><trkpt lat="43.0702192" lon="11.5765586"><ele>250.0</ele><time>2026-04-19T10:30:32.811Z</time></trkpt><trkpt lat="43.0702393" lon="11.576866"><ele>253.5</ele><time>2026-04-19T10:30:33.811Z</time></trkpt><trkpt lat="43.0702445" lon="11.5771913"><ele>257.0</ele><time>2026-04-19T10:30:34.809Z</time></trkpt><trkpt lat="43.0702367" lon="11.5775191"><ele>261.0</ele><time>2026-04-19T10:30:35.81Z</time></trkpt><trkpt lat="43.0702118" lon="11.5778524"><ele>265.0</ele><time>2026-04-19T10:30:36.809Z</time></trkpt><trkpt lat="43.0701747" lon="11.5781905"><ele>265.0</ele><time>2026-04-19T10:30:37.81Z</time></trkpt><trkpt lat="43.0701167" lon="11.5785323"><ele>265.0</ele><time>2026-04-19T10:30:38.809Z</time></trkpt><trkpt lat="43.0700507" lon="11.5788713"><ele>269.5</ele><time>2026-04-19T10:30:39.81Z</time></trkpt><trkpt lat="43.0699733" lon="11.5792108"><ele>274.0</ele><time>2026-04-19T10:30:40.81Z</time></trkpt><trkpt lat="43.069881" lon="11.5795453"><ele>279.5</ele><time>2026-04-19T10:30:41.809Z</time></trkpt><trkpt lat="43.0697737" lon="11.5798605"><ele>285.0</ele><time>2026-04-19T10:30:42.81Z</time></trkpt><trkpt lat="43.0696576" lon="11.5801594"><ele>286.5</ele><time>2026-04-19T10:30:43.81Z</time></trkpt><trkpt lat="43.0695341" lon="11.5804407"><ele>288.0</ele><time>2026-04-19T10:30:44.809Z</time></trkpt><trkpt lat="43.0694035" lon="11.5807233"><ele>288.0</ele><time>2026-04-19T10:30:45.81Z</time></trkpt><trkpt lat="43.0692636" lon="11.5809834"><ele>288.0</ele><time>2026-04-19T10:30:46.81Z</time></trkpt><trkpt lat="43.0691167" lon="11.5812382"><ele>293.0</ele><time>2026-04-19T10:30:47.809Z</time></trkpt><trkpt lat="43.0689607" lon="11.5814731"><ele>298.0</ele><time>2026-04-19T10:30:48.81Z</time></trkpt><trkpt lat="43.0687999" lon="11.5817002"><ele>298.0</ele><time>2026-04-19T10:30:49.81Z</time></trkpt><trkpt lat="43.0686283" lon="11.5819106"><ele>298.0</ele><time>2026-04-19T10:30:50.809Z</time></trkpt><trkpt lat="43.0684528" lon="11.5821134"><ele>295.66666666666663</ele><time>2026-04-19T10:30:51.808Z</time></trkpt><trkpt lat="43.0682826" lon="11.5822938"><ele>293.3333333333333</ele><time>2026-04-19T10:30:52.81Z</time></trkpt><trkpt lat="43.0681106" lon="11.5824767"><ele>291.0</ele><time>2026-04-19T10:30:53.808Z</time></trkpt><trkpt lat="43.0679331" lon="11.5826445"><ele>293.0</ele><time>2026-04-19T10:30:54.81Z</time></trkpt><trkpt lat="43.0677572" lon="11.5828074"><ele>295.0</ele><time>2026-04-19T10:30:55.809Z</time></trkpt><trkpt lat="43.0675831" lon="11.5829545"><ele>297.0</ele><time>2026-04-19T10:30:56.809Z</time></trkpt><trkpt lat="43.0674047" lon="11.5831038"><ele>301.0</ele><time>2026-04-19T10:30:57.809Z</time></trkpt><trkpt lat="43.0672199" lon="11.5832286"><ele>305.0</ele><time>2026-04-19T10:30:58.81Z</time></trkpt><trkpt lat="43.0670307" lon="11.5833567"><ele>309.0</ele><time>2026-04-19T10:30:59.809Z</time></trkpt><trkpt lat="43.0668402" lon="11.5834808"><ele>309.0</ele><time>2026-04-19T10:31:00.808Z</time></trkpt><trkpt lat="43.0666487" lon="11.5836064"><ele>309.0</ele><time>2026-04-19T10:31:01.809Z</time></trkpt><trkpt lat="43.0664558" lon="11.5837254"><ele>309.0</ele><time>2026-04-19T10:31:02.81Z</time></trkpt><trkpt lat="43.0662618" lon="11.5838347"><ele>308.3333333333333</ele><time>2026-04-19T10:31:03.81Z</time></trkpt><trkpt lat="43.0660644" lon="11.5839476"><ele>307.66666666666663</ele><time>2026-04-19T10:31:04.81Z</time></trkpt><trkpt lat="43.0658677" lon="11.5840588"><ele>307.0</ele><time>2026-04-19T10:31:05.809Z</time></trkpt><trkpt lat="43.0656687" lon="11.5841953"><ele>309.0</ele><time>2026-04-19T10:31:06.809Z</time></trkpt><trkpt lat="43.0654712" lon="11.5843173"><ele>311.0</ele><time>2026-04-19T10:31:07.809Z</time></trkpt><trkpt lat="43.0652727" lon="11.5844351"><ele>313.0</ele><time>2026-04-19T10:31:08.809Z</time></trkpt><trkpt lat="43.0650747" lon="11.5845541"><ele>315.3333333333333</ele><time>2026-04-19T10:31:09.81Z</time></trkpt><trkpt lat="43.064878" lon="11.5846719"><ele>317.6666666666667</ele><time>2026-04-19T10:31:10.81Z</time></trkpt><trkpt lat="43.0646754" lon="11.5847977"><ele>320.0</ele><time>2026-04-19T10:31:11.809Z</time></trkpt><trkpt lat="43.0644702" lon="11.5849276"><ele>320.0</ele><time>2026-04-19T10:31:12.809Z</time></trkpt><trkpt lat="43.0642636" lon="11.5850635"><ele>320.0</ele><time>2026-04-19T10:31:13.809Z</time></trkpt><trkpt lat="43.0640502" lon="11.5852069"><ele>320.0</ele><time>2026-04-19T10:31:14.808Z</time></trkpt><trkpt lat="43.0638502" lon="11.5853722"><ele>320.0</ele><time>2026-04-19T10:31:15.81Z</time></trkpt><trkpt lat="43.0636495" lon="11.5855484"><ele>320.0</ele><time>2026-04-19T10:31:16.81Z</time></trkpt><trkpt lat="43.0634561" lon="11.585744"><ele>320.0</ele><time>2026-04-19T10:31:17.809Z</time></trkpt><trkpt lat="43.0632738" lon="11.5859642"><ele>323.5</ele><time>2026-04-19T10:31:18.809Z</time></trkpt><trkpt lat="43.0630941" lon="11.586206"><ele>327.0</ele><time>2026-04-19T10:31:19.809Z</time></trkpt><trkpt lat="43.0629239" lon="11.5864543"><ele>327.0</ele><time>2026-04-19T10:31:20.809Z</time></trkpt><trkpt lat="43.0627709" lon="11.5867205"><ele>327.0</ele><time>2026-04-19T10:31:21.809Z</time></trkpt><trkpt lat="43.0626319" lon="11.5869989"><ele>326.0</ele><time>2026-04-19T10:31:22.809Z</time></trkpt><trkpt lat="43.062498" lon="11.5872856"><ele>325.0</ele><time>2026-04-19T10:31:23.81Z</time></trkpt><trkpt lat="43.0623695" lon="11.587581"><ele>332.5</ele><time>2026-04-19T10:31:24.809Z</time></trkpt><trkpt lat="43.0622608" lon="11.5878812"><ele>340.0</ele><time>2026-04-19T10:31:25.809Z</time></trkpt><trkpt lat="43.0621559" lon="11.5881863"><ele>340.0</ele><time>2026-04-19T10:31:26.808Z</time></trkpt><trkpt lat="43.0620557" lon="11.5884856"><ele>340.0</ele><time>2026-04-19T10:31:27.81Z</time></trkpt><trkpt lat="43.061956" lon="11.5887831"><ele>341.0</ele><time>2026-04-19T10:31:28.81Z</time></trkpt><trkpt lat="43.0618583" lon="11.5890701"><ele>342.0</ele><time>2026-04-19T10:31:29.81Z</time></trkpt><trkpt lat="43.0617525" lon="11.5893555"><ele>340.5</ele><time>2026-04-19T10:31:30.809Z</time></trkpt><trkpt lat="43.0616437" lon="11.5896255"><ele>339.0</ele><time>2026-04-19T10:31:31.809Z</time></trkpt><trkpt lat="43.061527" lon="11.5898946"><ele>342.5</ele><time>2026-04-19T10:31:32.809Z</time></trkpt><trkpt lat="43.0614028" lon="11.5901576"><ele>346.0</ele><time>2026-04-19T10:31:33.809Z</time></trkpt><trkpt lat="43.0612759" lon="11.5904176"><ele>346.0</ele><time>2026-04-19T10:31:34.809Z</time></trkpt><trkpt lat="43.0611421" lon="11.5906806"><ele>346.0</ele><time>2026-04-19T10:31:35.81Z</time></trkpt><trkpt lat="43.0610051" lon="11.590951"><ele>344.5</ele><time>2026-04-19T10:31:36.81Z</time></trkpt><trkpt lat="43.0608639" lon="11.5912193"><ele>343.0</ele><time>2026-04-19T10:31:37.81Z</time></trkpt><trkpt lat="43.0607175" lon="11.5914913"><ele>343.0</ele><time>2026-04-19T10:31:38.809Z</time></trkpt><trkpt lat="43.0605766" lon="11.5917606"><ele>343.0</ele><time>2026-04-19T10:31:39.81Z</time></trkpt><trkpt lat="43.0604437" lon="11.5920426"><ele>344.5</ele><time>2026-04-19T10:31:40.81Z</time></trkpt><trkpt lat="43.0603238" lon="11.5923318"><ele>346.0</ele><time>2026-04-19T10:31:41.808Z</time></trkpt><trkpt lat="43.0602096" lon="11.5926271"><ele>349.5</ele><time>2026-04-19T10:31:42.808Z</time></trkpt><trkpt lat="43.0601105" lon="11.5929345"><ele>353.0</ele><time>2026-04-19T10:31:43.809Z</time></trkpt><trkpt lat="43.0600297" lon="11.5932503"><ele>353.0</ele><time>2026-04-19T10:31:44.808Z</time></trkpt><trkpt lat="43.0599556" lon="11.5935739"><ele>353.0</ele><time>2026-04-19T10:31:45.81Z</time></trkpt><trkpt lat="43.0598977" lon="11.5939037"><ele>361.0</ele><time>2026-04-19T10:31:46.81Z</time></trkpt><trkpt lat="43.0598537" lon="11.5942381"><ele>369.0</ele><time>2026-04-19T10:31:47.81Z</time></trkpt><trkpt lat="43.0598208" lon="11.5945757"><ele>373.0</ele><time>2026-04-19T10:31:48.81Z</time></trkpt><trkpt lat="43.0598039" lon="11.5949165"><ele>377.0</ele><time>2026-04-19T10:31:49.81Z</time></trkpt><trkpt lat="43.0597941" lon="11.5952584"><ele>378.5</ele><time>2026-04-19T10:31:50.808Z</time></trkpt><trkpt lat="43.0597889" lon="11.5956023"><ele>380.0</ele><time>2026-04-19T10:31:51.81Z</time></trkpt><trkpt lat="43.0597858" lon="11.5959417"><ele>381.5</ele><time>2026-04-19T10:31:52.81Z</time></trkpt><trkpt lat="43.0597892" lon="11.5962773"><ele>383.0</ele><time>2026-04-19T10:31:53.81Z</time></trkpt><trkpt lat="43.0597951" lon="11.5966123"><ele>383.0</ele><time>2026-04-19T10:31:54.808Z</time></trkpt><trkpt lat="43.0598051" lon="11.5969362"><ele>383.0</ele><time>2026-04-19T10:31:55.809Z</time></trkpt><trkpt lat="43.059816" lon="11.597255"><ele>382.0</ele><time>2026-04-19T10:31:56.81Z</time></trkpt><trkpt lat="43.0598456" lon="11.5975706"><ele>381.0</ele><time>2026-04-19T10:31:57.808Z</time></trkpt><trkpt lat="43.0598813" lon="11.5978871"><ele>378.0</ele><time>2026-04-19T10:31:58.81Z</time></trkpt><trkpt lat="43.0599374" lon="11.5981917"><ele>375.0</ele><time>2026-04-19T10:31:59.81Z</time></trkpt><trkpt lat="43.0600067" lon="11.5984911"><ele>371.0</ele><time>2026-04-19T10:32:00.81Z</time></trkpt><trkpt lat="43.0600829" lon="11.5987839"><ele>367.0</ele><time>2026-04-19T10:32:01.81Z</time></trkpt><trkpt lat="43.0601659" lon="11.5990713"><ele>367.0</ele><time>2026-04-19T10:32:02.809Z</time></trkpt><trkpt lat="43.0602648" lon="11.5993596"><ele>367.0</ele><time>2026-04-19T10:32:03.809Z</time></trkpt><trkpt lat="43.0603664" lon="11.5996242"><ele>370.3333333333333</ele><time>2026-04-19T10:32:04.81Z</time></trkpt><trkpt lat="43.0604683" lon="11.5998752"><ele>373.6666666666667</ele><time>2026-04-19T10:32:05.809Z</time></trkpt><trkpt lat="43.0605735" lon="11.6001146"><ele>377.0</ele><time>2026-04-19T10:32:06.81Z</time></trkpt><trkpt lat="43.0606829" lon="11.6003479"><ele>379.33333333333337</ele><time>2026-04-19T10:32:07.81Z</time></trkpt><trkpt lat="43.0607902" lon="11.6005694"><ele>381.6666666666667</ele><time>2026-04-19T10:32:08.81Z</time></trkpt><trkpt lat="43.0608993" lon="11.6007913"><ele>384.0</ele><time>2026-04-19T10:32:09.809Z</time></trkpt><trkpt lat="43.0610047" lon="11.6010026"><ele>387.0</ele><time>2026-04-19T10:32:10.81Z</time></trkpt><trkpt lat="43.0610932" lon="11.6011853"><ele>390.0</ele><time>2026-04-19T10:32:11.81Z</time></trkpt><trkpt lat="43.0611745" lon="11.6013811"><ele>393.0</ele><time>2026-04-19T10:32:12.809Z</time></trkpt><trkpt lat="43.0612462" lon="11.601581"><ele>393.0</ele><time>2026-04-19T10:32:13.809Z</time></trkpt><trkpt lat="43.0613014" lon="11.6017729"><ele>393.0</ele><time>2026-04-19T10:32:14.809Z</time></trkpt><trkpt lat="43.0613612" lon="11.6019573"><ele>393.0</ele><time>2026-04-19T10:32:15.81Z</time></trkpt><trkpt lat="43.0614087" lon="11.6021234"><ele>393.0</ele><time>2026-04-19T10:32:16.809Z</time></trkpt><trkpt lat="43.0614187" lon="11.6022811"><ele>394.59999999999997</ele><time>2026-04-19T10:32:17.809Z</time></trkpt><trkpt lat="43.0614352" lon="11.6024423"><ele>396.2</ele><time>2026-04-19T10:32:18.81Z</time></trkpt><trkpt lat="43.0614421" lon="11.6025882"><ele>397.8</ele><time>2026-04-19T10:32:19.81Z</time></trkpt><trkpt lat="43.0614558" lon="11.6027357"><ele>399.4</ele><time>2026-04-19T10:32:20.81Z</time></trkpt><trkpt lat="43.0614738" lon="11.6028696"><ele>401.0</ele><time>2026-04-19T10:32:21.81Z</time></trkpt><trkpt lat="43.0614933" lon="11.6029991"><ele>402.16666666666663</ele><time>2026-04-19T10:32:22.809Z</time></trkpt><trkpt lat="43.0614826" lon="11.6031166"><ele>403.3333333333333</ele><time>2026-04-19T10:32:23.809Z</time></trkpt><trkpt lat="43.0614437" lon="11.6032267"><ele>404.5</ele><time>2026-04-19T10:32:24.809Z</time></trkpt><trkpt lat="43.0613935" lon="11.6033085"><ele>405.66666666666663</ele><time>2026-04-19T10:32:25.81Z</time></trkpt><trkpt lat="43.0613202" lon="11.6033414"><ele>406.8333333333333</ele><time>2026-04-19T10:32:26.81Z</time></trkpt><trkpt lat="43.0612398" lon="11.6033381"><ele>408.0</ele><time>2026-04-19T10:32:27.81Z</time></trkpt><trkpt lat="43.0611686" lon="11.6033048"><ele>408.0</ele><time>2026-04-19T10:32:28.81Z</time></trkpt><trkpt lat="43.0611194" lon="11.6032319"><ele>408.0</ele><time>2026-04-19T10:32:29.81Z</time></trkpt><trkpt lat="43.0610935" lon="11.6031426"><ele>408.0</ele><time>2026-04-19T10:32:30.809Z</time></trkpt><trkpt lat="43.0610964" lon="11.6030303"><ele>408.0</ele><time>2026-04-19T10:32:31.81Z</time></trkpt><trkpt lat="43.0611252" lon="11.6029156"><ele>408.0</ele><time>2026-04-19T10:32:32.809Z</time></trkpt><trkpt lat="43.0611676" lon="11.602817"><ele>408.0</ele><time>2026-04-19T10:32:33.81Z</time></trkpt><trkpt lat="43.0612072" lon="11.6027175"><ele>407.0</ele><time>2026-04-19T10:32:34.81Z</time></trkpt><trkpt lat="43.0612372" lon="11.6026199"><ele>406.0</ele><time>2026-04-19T10:32:35.81Z</time></trkpt><trkpt lat="43.0612497" lon="11.6025284"><ele>405.0</ele><time>2026-04-19T10:32:36.81Z</time></trkpt><trkpt lat="43.0612515" lon="11.6024324"><ele>404.0</ele><time>2026-04-19T10:32:37.809Z</time></trkpt><trkpt lat="43.0612344" lon="11.6023379"><ele>403.0</ele><time>2026-04-19T10:32:38.81Z</time></trkpt><trkpt lat="43.061198" lon="11.6022631"><ele>402.0</ele><time>2026-04-19T10:32:39.809Z</time></trkpt><trkpt lat="43.0611355" lon="11.602215"><ele>401.0</ele><time>2026-04-19T10:32:40.809Z</time></trkpt><trkpt lat="43.061063" lon="11.6021852"><ele>400.99999999999994</ele><time>2026-04-19T10:32:41.809Z</time></trkpt><trkpt lat="43.0609972" lon="11.602179"><ele>401.0</ele><time>2026-04-19T10:32:42.81Z</time></trkpt><trkpt lat="43.0608958" lon="11.6022331"><ele>401.0</ele><time>2026-04-19T10:32:44.81Z</time></trkpt><trkpt lat="43.0608583" lon="11.6023109"><ele>401.0</ele><time>2026-04-19T10:32:46.81Z</time></trkpt><trkpt lat="43.0608662" lon="11.6024283"><ele>400.99999999999994</ele><time>2026-04-19T10:32:47.809Z</time></trkpt><trkpt lat="43.0608712" lon="11.602544"><ele>401.0</ele><time>2026-04-19T10:32:48.809Z</time></trkpt><trkpt lat="43.0608922" lon="11.6026838"><ele>402.75</ele><time>2026-04-19T10:32:49.808Z</time></trkpt><trkpt lat="43.0609108" lon="11.6028463"><ele>404.5</ele><time>2026-04-19T10:32:50.809Z</time></trkpt><trkpt lat="43.0609262" lon="11.6030236"><ele>406.25</ele><time>2026-04-19T10:32:51.809Z</time></trkpt><trkpt lat="43.0609304" lon="11.6032008"><ele>408.0</ele><time>2026-04-19T10:32:52.808Z</time></trkpt><trkpt lat="43.0609417" lon="11.6033927"><ele>408.0</ele><time>2026-04-19T10:32:53.809Z</time></trkpt><trkpt lat="43.0609381" lon="11.603555"><ele>408.0</ele><time>2026-04-19T10:32:54.809Z</time></trkpt><trkpt lat="43.0609399" lon="11.6037107"><ele>408.0</ele><time>2026-04-19T10:32:55.808Z</time></trkpt><trkpt lat="43.0609289" lon="11.6038467"><ele>408.0</ele><time>2026-04-19T10:32:56.809Z</time></trkpt><trkpt lat="43.0609351" lon="11.6039792"><ele>408.0</ele><time>2026-04-19T10:32:57.809Z</time></trkpt><trkpt lat="43.0609393" lon="11.6041029"><ele>408.1666666666667</ele><time>2026-04-19T10:32:58.809Z</time></trkpt><trkpt lat="43.0609354" lon="11.6042228"><ele>408.33333333333337</ele><time>2026-04-19T10:32:59.808Z</time></trkpt><trkpt lat="43.0609374" lon="11.6043411"><ele>408.5</ele><time>2026-04-19T10:33:00.809Z</time></trkpt><trkpt lat="43.0609328" lon="11.6044466"><ele>408.6666666666667</ele><time>2026-04-19T10:33:01.808Z</time></trkpt><trkpt lat="43.0609336" lon="11.6045571"><ele>408.83333333333337</ele><time>2026-04-19T10:33:02.809Z</time></trkpt><trkpt lat="43.0609339" lon="11.6046779"><ele>409.0</ele><time>2026-04-19T10:33:03.809Z</time></trkpt><trkpt lat="43.0609436" lon="11.6047919"><ele>409.00000000000006</ele><time>2026-04-19T10:33:04.809Z</time></trkpt><trkpt lat="43.0609471" lon="11.604913"><ele>409.0</ele><time>2026-04-19T10:33:05.809Z</time></trkpt><trkpt lat="43.0609422" lon="11.6050373"><ele>409.0</ele><time>2026-04-19T10:33:06.809Z</time></trkpt><trkpt lat="43.0609384" lon="11.6051603"><ele>409.0</ele><time>2026-04-19T10:33:07.809Z</time></trkpt><trkpt lat="43.0609257" lon="11.6052829"><ele>409.00000000000006</ele><time>2026-04-19T10:33:08.809Z</time></trkpt><trkpt lat="43.0608998" lon="11.6053976"><ele>409.0</ele><time>2026-04-19T10:33:09.81Z</time></trkpt><trkpt lat="43.0608693" lon="11.6054902"><ele>408.0</ele><time>2026-04-19T10:33:10.81Z</time></trkpt><trkpt lat="43.0608429" lon="11.6055755"><ele>407.0</ele><time>2026-04-19T10:33:11.809Z</time></trkpt><trkpt lat="43.0607855" lon="11.6057129"><ele>406.0</ele><time>2026-04-19T10:33:13.809Z</time></trkpt><trkpt lat="43.0607344" lon="11.6058281"><ele>405.0</ele><time>2026-04-19T10:33:15.81Z</time></trkpt><trkpt lat="43.0606813" lon="11.6059065"><ele>404.0</ele><time>2026-04-19T10:33:17.81Z</time></trkpt><trkpt lat="43.0605909" lon="11.6059291"><ele>403.99999999999994</ele><time>2026-04-19T10:33:19.809Z</time></trkpt><trkpt lat="43.0604767" lon="11.6059244"><ele>404.0</ele><time>2026-04-19T10:33:21.809Z</time></trkpt><trkpt lat="43.0603606" lon="11.6059063"><ele>404.0</ele><time>2026-04-19T10:33:23.81Z</time></trkpt><trkpt lat="43.0602897" lon="11.6058892"><ele>404.0</ele><time>2026-04-19T10:33:24.81Z</time></trkpt><trkpt lat="43.0602251" lon="11.6058767"><ele>403.99999999999994</ele><time>2026-04-19T10:33:25.808Z</time></trkpt><trkpt lat="43.0601505" lon="11.6058463"><ele>404.0</ele><time>2026-04-19T10:33:27.809Z</time></trkpt><trkpt lat="43.0600696" lon="11.6058242"><ele>404.0</ele><time>2026-04-19T10:33:30.809Z</time></trkpt><trkpt lat="43.0599788" lon="11.6058239"><ele>404.0</ele><time>2026-04-19T10:33:33.809Z</time></trkpt><trkpt lat="43.0598718" lon="11.6058303"><ele>404.0</ele><time>2026-04-19T10:33:35.81Z</time></trkpt><trkpt lat="43.059769" lon="11.6058392"><ele>404.0</ele><time>2026-04-19T10:33:37.809Z</time></trkpt><trkpt lat="43.0596765" lon="11.6058611"><ele>404.0</ele><time>2026-04-19T10:33:39.809Z</time></trkpt><trkpt lat="43.0595671" lon="11.6059258"><ele>404.49999999999994</ele><time>2026-04-19T10:33:41.809Z</time></trkpt><trkpt lat="43.0594858" lon="11.60598"><ele>405.0</ele><time>2026-04-19T10:33:42.808Z</time></trkpt><trkpt lat="43.0594072" lon="11.606033"><ele>405.5</ele><time>2026-04-19T10:33:43.808Z</time></trkpt><trkpt lat="43.0593334" lon="11.6060776"><ele>406.0</ele><time>2026-04-19T10:33:44.809Z</time></trkpt><trkpt lat="43.0592643" lon="11.6061218"><ele>406.49999999999994</ele><time>2026-04-19T10:33:45.809Z</time></trkpt><trkpt lat="43.0591982" lon="11.606173"><ele>407.0</ele><time>2026-04-19T10:33:46.809Z</time></trkpt><trkpt lat="43.0591396" lon="11.60623"><ele>407.40000000000003</ele><time>2026-04-19T10:33:47.808Z</time></trkpt><trkpt lat="43.0590593" lon="11.6063006"><ele>407.8</ele><time>2026-04-19T10:33:48.809Z</time></trkpt><trkpt lat="43.0589927" lon="11.6063647"><ele>408.2</ele><time>2026-04-19T10:33:49.809Z</time></trkpt><trkpt lat="43.0589279" lon="11.6064148"><ele>408.6</ele><time>2026-04-19T10:33:50.809Z</time></trkpt><trkpt lat="43.0588252" lon="11.6065081"><ele>409.0</ele><time>2026-04-19T10:33:52.809Z</time></trkpt><trkpt lat="43.058719" lon="11.6065975"><ele>409.0</ele><time>2026-04-19T10:33:54.809Z</time></trkpt><trkpt lat="43.0586588" lon="11.6066418"><ele>409.0</ele><time>2026-04-19T10:33:55.809Z</time></trkpt><trkpt lat="43.0585565" lon="11.6067229"><ele>409.0</ele><time>2026-04-19T10:33:57.808Z</time></trkpt><trkpt lat="43.0584655" lon="11.6068076"><ele>409.0</ele><time>2026-04-19T10:33:59.808Z</time></trkpt><trkpt lat="43.0583809" lon="11.6068718"><ele>409.0</ele><time>2026-04-19T10:34:01.808Z</time></trkpt><trkpt lat="43.0583118" lon="11.6069204"><ele>408.75</ele><time>2026-04-19T10:34:03.808Z</time></trkpt><trkpt lat="43.0582137" lon="11.6069828"><ele>408.5</ele><time>2026-04-19T10:34:05.809Z</time></trkpt><trkpt lat="43.0581031" lon="11.606989"><ele>408.25</ele><time>2026-04-19T10:34:07.809Z</time></trkpt><trkpt lat="43.057982" lon="11.6069394"><ele>408.0</ele><time>2026-04-19T10:34:09.809Z</time></trkpt><trkpt lat="43.0579034" lon="11.6068259"><ele>408.0</ele><time>2026-04-19T10:34:11.808Z</time></trkpt><trkpt lat="43.0578555" lon="11.6067457"><ele>408.0</ele><time>2026-04-19T10:34:14.809Z</time></trkpt><trkpt lat="43.0578054" lon="11.6066903"><ele>408.0</ele><time>2026-04-19T10:34:17.808Z</time></trkpt><trkpt lat="43.0577358" lon="11.60658"><ele>408.0</ele><time>2026-04-19T10:34:20.809Z</time></trkpt><trkpt lat="43.0576776" lon="11.6064292"><ele>408.0</ele><time>2026-04-19T10:34:22.809Z</time></trkpt><trkpt lat="43.0576487" lon="11.606343"><ele>408.0</ele><time>2026-04-19T10:34:23.809Z</time></trkpt><trkpt lat="43.0576096" lon="11.6062237"><ele>408.4</ele><time>2026-04-19T10:34:25.809Z</time></trkpt><trkpt lat="43.0575788" lon="11.6060729"><ele>408.79999999999995</ele><time>2026-04-19T10:34:27.808Z</time></trkpt><trkpt lat="43.0575238" lon="11.6059132"><ele>409.2</ele><time>2026-04-19T10:34:29.808Z</time></trkpt><trkpt lat="43.0574922" lon="11.6058256"><ele>409.6</ele><time>2026-04-19T10:34:30.807Z</time></trkpt><trkpt lat="43.0574509" lon="11.6057233"><ele>410.0</ele><time>2026-04-19T10:34:31.809Z</time></trkpt><trkpt lat="43.0574139" lon="11.6056105"><ele>410.0</ele><time>2026-04-19T10:34:32.808Z</time></trkpt><trkpt lat="43.0573795" lon="11.6054999"><ele>410.0</ele><time>2026-04-19T10:34:33.809Z</time></trkpt><trkpt lat="43.0573424" lon="11.6053827"><ele>410.0</ele><time>2026-04-19T10:34:34.808Z</time></trkpt><trkpt lat="43.0572995" lon="11.6052596"><ele>410.0</ele><time>2026-04-19T10:34:35.808Z</time></trkpt><trkpt lat="43.0572562" lon="11.6051406"><ele>410.0</ele><time>2026-04-19T10:34:36.807Z</time></trkpt><trkpt lat="43.057222" lon="11.6050283"><ele>415.0</ele><time>2026-04-19T10:34:37.807Z</time></trkpt><trkpt lat="43.0571844" lon="11.6049303"><ele>415.0</ele><time>2026-04-19T10:34:38.807Z</time></trkpt><trkpt lat="43.0571581" lon="11.6047861"><ele>415.0</ele><time>2026-04-19T10:34:40.808Z</time></trkpt><trkpt lat="43.0571524" lon="11.6046814"><ele>415.0</ele><time>2026-04-19T10:34:42.809Z</time></trkpt><trkpt lat="43.0571328" lon="11.6045755"><ele>415.0</ele><time>2026-04-19T10:34:45.808Z</time></trkpt></trkseg><trkseg><trkpt lat="43.057188" lon="11.6045977"><ele>415.00000000000006</ele><time>2026-04-19T11:20:03.8Z</time></trkpt><trkpt lat="43.0571534" lon="11.60471"><ele>415.0</ele><time>2026-04-19T11:20:23.799Z</time></trkpt><trkpt lat="43.0571567" lon="11.604865"><ele>415.0</ele><time>2026-04-19T11:20:25.8Z</time></trkpt><trkpt lat="43.0571739" lon="11.6049577"><ele>415.0</ele><time>2026-04-19T11:20:26.8Z</time></trkpt><trkpt lat="43.0572043" lon="11.6050649"><ele>415.00000000000006</ele><time>2026-04-19T11:20:27.801Z</time></trkpt><trkpt lat="43.0572416" lon="11.6051764"><ele>415.0</ele><time>2026-04-19T11:20:28.801Z</time></trkpt><trkpt lat="43.0572835" lon="11.6052957"><ele>414.6666666666667</ele><time>2026-04-19T11:20:29.8Z</time></trkpt><trkpt lat="43.0573209" lon="11.6054136"><ele>414.33333333333337</ele><time>2026-04-19T11:20:30.801Z</time></trkpt><trkpt lat="43.057356" lon="11.6055254"><ele>414.0</ele><time>2026-04-19T11:20:31.801Z</time></trkpt><trkpt lat="43.0573889" lon="11.6056325"><ele>413.66666666666663</ele><time>2026-04-19T11:20:32.801Z</time></trkpt><trkpt lat="43.0574213" lon="11.6057263"><ele>413.3333333333333</ele><time>2026-04-19T11:20:33.8Z</time></trkpt><trkpt lat="43.0574509" lon="11.6058178"><ele>413.0</ele><time>2026-04-19T11:20:34.8Z</time></trkpt><trkpt lat="43.0574846" lon="11.6059101"><ele>412.99999999999994</ele><time>2026-04-19T11:20:35.8Z</time></trkpt><trkpt lat="43.0575234" lon="11.6060084"><ele>413.0</ele><time>2026-04-19T11:20:36.8Z</time></trkpt><trkpt lat="43.0575634" lon="11.6061076"><ele>413.0</ele><time>2026-04-19T11:20:37.8Z</time></trkpt><trkpt lat="43.0576012" lon="11.6062113"><ele>413.0</ele><time>2026-04-19T11:20:38.8Z</time></trkpt><trkpt lat="43.0576376" lon="11.606302"><ele>412.99999999999994</ele><time>2026-04-19T11:20:39.8Z</time></trkpt><trkpt lat="43.0576699" lon="11.6063907"><ele>413.0</ele><time>2026-04-19T11:20:40.799Z</time></trkpt><trkpt lat="43.0577035" lon="11.6064736"><ele>412.0</ele><time>2026-04-19T11:20:41.8Z</time></trkpt><trkpt lat="43.0577537" lon="11.6065957"><ele>411.0</ele><time>2026-04-19T11:20:43.8Z</time></trkpt><trkpt lat="43.0577809" lon="11.6066753"><ele>410.0</ele><time>2026-04-19T11:20:45.801Z</time></trkpt><trkpt lat="43.0577619" lon="11.606808"><ele>409.0</ele><time>2026-04-19T11:20:53.801Z</time></trkpt><trkpt lat="43.0576622" lon="11.6069453"><ele>408.0</ele><time>2026-04-19T11:20:55.801Z</time></trkpt><trkpt lat="43.0575963" lon="11.6070528"><ele>407.0</ele><time>2026-04-19T11:20:56.8Z</time></trkpt><trkpt lat="43.0575268" lon="11.6071662"><ele>406.0</ele><time>2026-04-19T11:20:57.801Z</time></trkpt><trkpt lat="43.0574536" lon="11.6072873"><ele>405.0</ele><time>2026-04-19T11:20:58.8Z</time></trkpt><trkpt lat="43.0573759" lon="11.6074204"><ele>404.0</ele><time>2026-04-19T11:20:59.8Z</time></trkpt><trkpt lat="43.0573084" lon="11.6075373"><ele>403.2</ele><time>2026-04-19T11:21:00.8Z</time></trkpt><trkpt lat="43.0572465" lon="11.6076497"><ele>402.4</ele><time>2026-04-19T11:21:01.799Z</time></trkpt><trkpt lat="43.0571867" lon="11.6077528"><ele>401.6</ele><time>2026-04-19T11:21:02.8Z</time></trkpt><trkpt lat="43.0571236" lon="11.607853"><ele>400.8</ele><time>2026-04-19T11:21:03.799Z</time></trkpt><trkpt lat="43.0570616" lon="11.6079547"><ele>400.0</ele><time>2026-04-19T11:21:04.8Z</time></trkpt><trkpt lat="43.0569936" lon="11.6080643"><ele>398.6</ele><time>2026-04-19T11:21:05.8Z</time></trkpt><trkpt lat="43.0569254" lon="11.6081831"><ele>397.2</ele><time>2026-04-19T11:21:06.799Z</time></trkpt><trkpt lat="43.0568556" lon="11.6083008"><ele>395.79999999999995</ele><time>2026-04-19T11:21:07.799Z</time></trkpt><trkpt lat="43.0567865" lon="11.6084159"><ele>394.4</ele><time>2026-04-19T11:21:08.799Z</time></trkpt><trkpt lat="43.0567184" lon="11.6085351"><ele>393.0</ele><time>2026-04-19T11:21:09.8Z</time></trkpt><trkpt lat="43.0566513" lon="11.6086536"><ele>390.79999999999995</ele><time>2026-04-19T11:21:10.798Z</time></trkpt><trkpt lat="43.0565851" lon="11.6087718"><ele>388.6</ele><time>2026-04-19T11:21:11.8Z</time></trkpt><trkpt lat="43.056523" lon="11.608891"><ele>386.4</ele><time>2026-04-19T11:21:12.798Z</time></trkpt><trkpt lat="43.0564621" lon="11.6090148"><ele>384.20000000000005</ele><time>2026-04-19T11:21:13.799Z</time></trkpt><trkpt lat="43.0563944" lon="11.6091384"><ele>382.0</ele><time>2026-04-19T11:21:14.799Z</time></trkpt><trkpt lat="43.0563314" lon="11.6092417"><ele>382.0</ele><time>2026-04-19T11:21:15.8Z</time></trkpt><trkpt lat="43.0562546" lon="11.6093587"><ele>382.0</ele><time>2026-04-19T11:21:16.798Z</time></trkpt><trkpt lat="43.0561863" lon="11.6094566"><ele>382.0</ele><time>2026-04-19T11:21:17.799Z</time></trkpt><trkpt lat="43.0561265" lon="11.6095466"><ele>382.0</ele><time>2026-04-19T11:21:18.799Z</time></trkpt><trkpt lat="43.056075" lon="11.6096378"><ele>382.0</ele><time>2026-04-19T11:21:19.798Z</time></trkpt><trkpt lat="43.0560262" lon="11.6097115"><ele>381.16666666666663</ele><time>2026-04-19T11:21:20.8Z</time></trkpt><trkpt lat="43.0559791" lon="11.6098169"><ele>380.3333333333333</ele><time>2026-04-19T11:21:21.8Z</time></trkpt><trkpt lat="43.055938" lon="11.6098942"><ele>379.5</ele><time>2026-04-19T11:21:22.799Z</time></trkpt><trkpt lat="43.0559" lon="11.6099629"><ele>378.6666666666667</ele><time>2026-04-19T11:21:23.8Z</time></trkpt><trkpt lat="43.0558285" lon="11.6100251"><ele>377.83333333333337</ele><time>2026-04-19T11:21:25.798Z</time></trkpt><trkpt lat="43.0557213" lon="11.6099745"><ele>377.0</ele><time>2026-04-19T11:21:27.798Z</time></trkpt><trkpt lat="43.0556357" lon="11.6098996"><ele>374.75</ele><time>2026-04-19T11:21:28.799Z</time></trkpt><trkpt lat="43.0555271" lon="11.6098011"><ele>372.5</ele><time>2026-04-19T11:21:29.799Z</time></trkpt><trkpt lat="43.0554042" lon="11.6096897"><ele>370.25</ele><time>2026-04-19T11:21:30.799Z</time></trkpt><trkpt lat="43.0552802" lon="11.6095871"><ele>368.0</ele><time>2026-04-19T11:21:31.8Z</time></trkpt><trkpt lat="43.0551756" lon="11.6094999"><ele>366.75</ele><time>2026-04-19T11:21:32.798Z</time></trkpt><trkpt lat="43.0550709" lon="11.6094091"><ele>365.5</ele><time>2026-04-19T11:21:33.8Z</time></trkpt><trkpt lat="43.0549718" lon="11.6093303"><ele>364.25</ele><time>2026-04-19T11:21:34.799Z</time></trkpt><trkpt lat="43.0548799" lon="11.6092476"><ele>363.0</ele><time>2026-04-19T11:21:35.799Z</time></trkpt><trkpt lat="43.0547919" lon="11.6091733"><ele>363.0</ele><time>2026-04-19T11:21:36.8Z</time></trkpt><trkpt lat="43.0547017" lon="11.6091016"><ele>363.0</ele><time>2026-04-19T11:21:37.799Z</time></trkpt><trkpt lat="43.0546211" lon="11.6090397"><ele>363.0</ele><time>2026-04-19T11:21:38.8Z</time></trkpt><trkpt lat="43.0545388" lon="11.6089718"><ele>363.0</ele><time>2026-04-19T11:21:39.799Z</time></trkpt><trkpt lat="43.0544635" lon="11.608906"><ele>363.0</ele><time>2026-04-19T11:21:40.799Z</time></trkpt><trkpt lat="43.0543917" lon="11.6088405"><ele>363.0</ele><time>2026-04-19T11:21:41.799Z</time></trkpt><trkpt lat="43.0543185" lon="11.6087792"><ele>363.0</ele><time>2026-04-19T11:21:42.8Z</time></trkpt><trkpt lat="43.0542505" lon="11.6087215"><ele>363.0</ele><time>2026-04-19T11:21:43.799Z</time></trkpt><trkpt lat="43.0541806" lon="11.6086672"><ele>363.0</ele><time>2026-04-19T11:21:44.8Z</time></trkpt><trkpt lat="43.054111" lon="11.6086211"><ele>363.0</ele><time>2026-04-19T11:21:45.8Z</time></trkpt><trkpt lat="43.0540445" lon="11.6085684"><ele>363.0</ele><time>2026-04-19T11:21:46.799Z</time></trkpt><trkpt lat="43.0539827" lon="11.6085133"><ele>363.1428571428571</ele><time>2026-04-19T11:21:47.8Z</time></trkpt><trkpt lat="43.0539251" lon="11.6084621"><ele>363.2857142857143</ele><time>2026-04-19T11:21:48.799Z</time></trkpt><trkpt lat="43.0538619" lon="11.608417"><ele>363.42857142857144</ele><time>2026-04-19T11:21:49.798Z</time></trkpt><trkpt lat="43.0537981" lon="11.6083749"><ele>363.57142857142856</ele><time>2026-04-19T11:21:50.8Z</time></trkpt><trkpt lat="43.0537372" lon="11.6083445"><ele>363.7142857142857</ele><time>2026-04-19T11:21:51.8Z</time></trkpt><trkpt lat="43.0536382" lon="11.6083092"><ele>363.85714285714283</ele><time>2026-04-19T11:21:53.8Z</time></trkpt><trkpt lat="43.0535726" lon="11.6082939"><ele>364.0</ele><time>2026-04-19T11:21:56.8Z</time></trkpt><trkpt lat="43.0534579" lon="11.6082916"><ele>364.0</ele><time>2026-04-19T11:23:14.799Z</time></trkpt><trkpt lat="43.0533528" lon="11.608303"><ele>364.0</ele><time>2026-04-19T11:23:15.8Z</time></trkpt><trkpt lat="43.0532179" lon="11.6083434"><ele>364.0</ele><time>2026-04-19T11:23:16.8Z</time></trkpt><trkpt lat="43.0530676" lon="11.6084164"><ele>364.0</ele><time>2026-04-19T11:23:17.8Z</time></trkpt><trkpt lat="43.0529014" lon="11.6085102"><ele>362.0</ele><time>2026-04-19T11:23:18.8Z</time></trkpt><trkpt lat="43.0527228" lon="11.6086207"><ele>360.0</ele><time>2026-04-19T11:23:19.799Z</time></trkpt><trkpt lat="43.0525291" lon="11.6087317"><ele>358.0</ele><time>2026-04-19T11:23:20.799Z</time></trkpt><trkpt lat="43.0523299" lon="11.6088472"><ele>357.0</ele><time>2026-04-19T11:23:21.799Z</time></trkpt><trkpt lat="43.0521273" lon="11.6089626"><ele>356.0</ele><time>2026-04-19T11:23:22.799Z</time></trkpt><trkpt lat="43.0519317" lon="11.609074"><ele>355.0</ele><time>2026-04-19T11:23:23.8Z</time></trkpt><trkpt lat="43.0517384" lon="11.6091785"><ele>357.0</ele><time>2026-04-19T11:23:24.799Z</time></trkpt><trkpt lat="43.0515582" lon="11.6092918"><ele>359.0</ele><time>2026-04-19T11:23:25.8Z</time></trkpt><trkpt lat="43.0513647" lon="11.6094085"><ele>361.0</ele><time>2026-04-19T11:23:26.799Z</time></trkpt><trkpt lat="43.0511706" lon="11.6095389"><ele>356.5</ele><time>2026-04-19T11:23:27.798Z</time></trkpt><trkpt lat="43.0509772" lon="11.609704"><ele>352.0</ele><time>2026-04-19T11:23:28.8Z</time></trkpt><trkpt lat="43.0507844" lon="11.6098988"><ele>352.0</ele><time>2026-04-19T11:23:29.799Z</time></trkpt><trkpt lat="43.0505945" lon="11.610086"><ele>352.0</ele><time>2026-04-19T11:23:30.799Z</time></trkpt><trkpt lat="43.050393" lon="11.6102675"><ele>349.3333333333333</ele><time>2026-04-19T11:23:31.799Z</time></trkpt><trkpt lat="43.0502035" lon="11.6104223"><ele>346.6666666666667</ele><time>2026-04-19T11:23:32.798Z</time></trkpt><trkpt lat="43.0500198" lon="11.610576"><ele>344.0</ele><time>2026-04-19T11:23:33.799Z</time></trkpt><trkpt lat="43.0498363" lon="11.6107002"><ele>344.0</ele><time>2026-04-19T11:23:34.799Z</time></trkpt><trkpt lat="43.0496436" lon="11.6107641"><ele>344.0</ele><time>2026-04-19T11:23:35.799Z</time></trkpt><trkpt lat="43.049464" lon="11.6108063"><ele>344.0</ele><time>2026-04-19T11:23:36.799Z</time></trkpt><trkpt lat="43.0492876" lon="11.6108508"><ele>345.0</ele><time>2026-04-19T11:23:37.799Z</time></trkpt><trkpt lat="43.0491157" lon="11.6108862"><ele>346.0</ele><time>2026-04-19T11:23:38.8Z</time></trkpt><trkpt lat="43.0489489" lon="11.6109296"><ele>347.0</ele><time>2026-04-19T11:23:39.798Z</time></trkpt><trkpt lat="43.0487992" lon="11.6110025"><ele>347.0</ele><time>2026-04-19T11:23:40.799Z</time></trkpt><trkpt lat="43.048654" lon="11.6111077"><ele>347.0</ele><time>2026-04-19T11:23:41.799Z</time></trkpt><trkpt lat="43.0485237" lon="11.6112325"><ele>347.0</ele><time>2026-04-19T11:23:42.799Z</time></trkpt><trkpt lat="43.0484078" lon="11.6113843"><ele>347.33333333333337</ele><time>2026-04-19T11:23:43.799Z</time></trkpt><trkpt lat="43.0483022" lon="11.6115664"><ele>347.6666666666667</ele><time>2026-04-19T11:23:44.799Z</time></trkpt><trkpt lat="43.0482149" lon="11.6117713"><ele>348.0</ele><time>2026-04-19T11:23:45.8Z</time></trkpt><trkpt lat="43.0481567" lon="11.6119936"><ele>344.3333333333333</ele><time>2026-04-19T11:23:46.799Z</time></trkpt><trkpt lat="43.0481284" lon="11.6122293"><ele>340.66666666666663</ele><time>2026-04-19T11:23:47.799Z</time></trkpt><trkpt lat="43.0481235" lon="11.6124721"><ele>337.0</ele><time>2026-04-19T11:23:48.8Z</time></trkpt><trkpt lat="43.0481415" lon="11.6127058"><ele>335.3333333333333</ele><time>2026-04-19T11:23:49.8Z</time></trkpt><trkpt lat="43.0481789" lon="11.6129297"><ele>333.6666666666667</ele><time>2026-04-19T11:23:50.799Z</time></trkpt><trkpt lat="43.0482329" lon="11.613148"><ele>332.0</ele><time>2026-04-19T11:23:51.799Z</time></trkpt><trkpt lat="43.0482967" lon="11.6133686"><ele>329.6666666666667</ele><time>2026-04-19T11:23:52.799Z</time></trkpt><trkpt lat="43.0483736" lon="11.6136059"><ele>327.3333333333333</ele><time>2026-04-19T11:23:53.8Z</time></trkpt><trkpt lat="43.0484521" lon="11.6138465"><ele>325.0</ele><time>2026-04-19T11:23:54.799Z</time></trkpt><trkpt lat="43.0485265" lon="11.6140867"><ele>324.3333333333333</ele><time>2026-04-19T11:23:55.8Z</time></trkpt><trkpt lat="43.0485999" lon="11.6143223"><ele>323.6666666666667</ele><time>2026-04-19T11:23:56.8Z</time></trkpt><trkpt lat="43.048671" lon="11.614553"><ele>323.0</ele><time>2026-04-19T11:23:57.799Z</time></trkpt><trkpt lat="43.0487468" lon="11.6147901"><ele>322.0</ele><time>2026-04-19T11:23:58.8Z</time></trkpt><trkpt lat="43.0488167" lon="11.6150076"><ele>321.0</ele><time>2026-04-19T11:23:59.799Z</time></trkpt><trkpt lat="43.0488826" lon="11.6152221"><ele>320.0</ele><time>2026-04-19T11:24:00.799Z</time></trkpt><trkpt lat="43.0489497" lon="11.6154398"><ele>319.6666666666667</ele><time>2026-04-19T11:24:01.8Z</time></trkpt><trkpt lat="43.0490119" lon="11.6156548"><ele>319.3333333333333</ele><time>2026-04-19T11:24:02.8Z</time></trkpt><trkpt lat="43.0490637" lon="11.6158741"><ele>319.0</ele><time>2026-04-19T11:24:03.799Z</time></trkpt><trkpt lat="43.0491052" lon="11.6160967"><ele>316.66666666666663</ele><time>2026-04-19T11:24:04.799Z</time></trkpt><trkpt lat="43.0491373" lon="11.616322"><ele>314.3333333333333</ele><time>2026-04-19T11:24:05.8Z</time></trkpt><trkpt lat="43.0491605" lon="11.6165491"><ele>312.0</ele><time>2026-04-19T11:24:06.8Z</time></trkpt><trkpt lat="43.0491837" lon="11.616776"><ele>311.3333333333333</ele><time>2026-04-19T11:24:07.799Z</time></trkpt><trkpt lat="43.0492084" lon="11.6170134"><ele>310.66666666666663</ele><time>2026-04-19T11:24:08.8Z</time></trkpt><trkpt lat="43.049232" lon="11.6172491"><ele>310.0</ele><time>2026-04-19T11:24:09.8Z</time></trkpt><trkpt lat="43.0492555" lon="11.6174891"><ele>310.0</ele><time>2026-04-19T11:24:10.8Z</time></trkpt><trkpt lat="43.0492772" lon="11.6177312"><ele>310.0</ele><time>2026-04-19T11:24:11.798Z</time></trkpt><trkpt lat="43.0492992" lon="11.6179831"><ele>310.0</ele><time>2026-04-19T11:24:12.799Z</time></trkpt><trkpt lat="43.0493192" lon="11.6182337"><ele>308.66666666666663</ele><time>2026-04-19T11:24:13.8Z</time></trkpt><trkpt lat="43.0493406" lon="11.6184933"><ele>307.3333333333333</ele><time>2026-04-19T11:24:14.799Z</time></trkpt><trkpt lat="43.0493655" lon="11.6187608"><ele>306.0</ele><time>2026-04-19T11:24:15.8Z</time></trkpt><trkpt lat="43.0493942" lon="11.6190362"><ele>305.0</ele><time>2026-04-19T11:24:16.799Z</time></trkpt><trkpt lat="43.049422" lon="11.6193176"><ele>304.0</ele><time>2026-04-19T11:24:17.799Z</time></trkpt><trkpt lat="43.0494477" lon="11.6195981"><ele>303.0</ele><time>2026-04-19T11:24:18.799Z</time></trkpt><trkpt lat="43.0494697" lon="11.6198828"><ele>302.3333333333333</ele><time>2026-04-19T11:24:19.799Z</time></trkpt><trkpt lat="43.0494946" lon="11.6201731"><ele>301.66666666666663</ele><time>2026-04-19T11:24:20.799Z</time></trkpt><trkpt lat="43.0495179" lon="11.6204663"><ele>301.0</ele><time>2026-04-19T11:24:21.799Z</time></trkpt><trkpt lat="43.0495344" lon="11.6207612"><ele>301.0</ele><time>2026-04-19T11:24:22.799Z</time></trkpt><trkpt lat="43.0495355" lon="11.6210604"><ele>301.0</ele><time>2026-04-19T11:24:23.8Z</time></trkpt><trkpt lat="43.0495222" lon="11.6213586"><ele>301.0</ele><time>2026-04-19T11:24:24.8Z</time></trkpt><trkpt lat="43.049506" lon="11.6216415"><ele>300.0</ele><time>2026-04-19T11:24:25.799Z</time></trkpt><trkpt lat="43.0494698" lon="11.6219212"><ele>299.0</ele><time>2026-04-19T11:24:26.799Z</time></trkpt><trkpt lat="43.0494203" lon="11.6221965"><ele>298.0</ele><time>2026-04-19T11:24:27.799Z</time></trkpt><trkpt lat="43.0493571" lon="11.6224719"><ele>298.0</ele><time>2026-04-19T11:24:28.799Z</time></trkpt><trkpt lat="43.0492782" lon="11.6227509"><ele>298.0</ele><time>2026-04-19T11:24:29.799Z</time></trkpt><trkpt lat="43.0491894" lon="11.6230336"><ele>298.0</ele><time>2026-04-19T11:24:30.799Z</time></trkpt><trkpt lat="43.0490831" lon="11.6233155"><ele>298.0</ele><time>2026-04-19T11:24:31.799Z</time></trkpt><trkpt lat="43.0489658" lon="11.6235961"><ele>298.0</ele><time>2026-04-19T11:24:32.799Z</time></trkpt><trkpt lat="43.0488429" lon="11.6238623"><ele>296.3333333333333</ele><time>2026-04-19T11:24:33.798Z</time></trkpt><trkpt lat="43.0487226" lon="11.6241158"><ele>294.6666666666667</ele><time>2026-04-19T11:24:34.799Z</time></trkpt><trkpt lat="43.0486029" lon="11.6243629"><ele>293.0</ele><time>2026-04-19T11:24:35.799Z</time></trkpt><trkpt lat="43.0484879" lon="11.6245971"><ele>290.6666666666667</ele><time>2026-04-19T11:24:36.8Z</time></trkpt><trkpt lat="43.0483847" lon="11.6248119"><ele>288.3333333333333</ele><time>2026-04-19T11:24:37.799Z</time></trkpt><trkpt lat="43.0482893" lon="11.6250013"><ele>286.0</ele><time>2026-04-19T11:24:38.8Z</time></trkpt><trkpt lat="43.0481916" lon="11.62517"><ele>283.66666666666663</ele><time>2026-04-19T11:24:39.8Z</time></trkpt><trkpt lat="43.0480774" lon="11.6253168"><ele>281.3333333333333</ele><time>2026-04-19T11:24:40.8Z</time></trkpt><trkpt lat="43.0479422" lon="11.6254329"><ele>279.0</ele><time>2026-04-19T11:24:41.8Z</time></trkpt><trkpt lat="43.0477929" lon="11.6254867"><ele>279.0</ele><time>2026-04-19T11:24:42.8Z</time></trkpt><trkpt lat="43.0476257" lon="11.6255014"><ele>279.0</ele><time>2026-04-19T11:24:43.799Z</time></trkpt><trkpt lat="43.0474434" lon="11.6254948"><ele>279.0</ele><time>2026-04-19T11:24:44.798Z</time></trkpt><trkpt lat="43.047238" lon="11.6254894"><ele>278.3333333333333</ele><time>2026-04-19T11:24:45.8Z</time></trkpt><trkpt lat="43.0470214" lon="11.6254819"><ele>277.66666666666663</ele><time>2026-04-19T11:24:46.799Z</time></trkpt><trkpt lat="43.0467989" lon="11.6254712"><ele>277.0</ele><time>2026-04-19T11:24:47.798Z</time></trkpt><trkpt lat="43.0465896" lon="11.6254496"><ele>276.3333333333333</ele><time>2026-04-19T11:24:48.8Z</time></trkpt><trkpt lat="43.0463976" lon="11.6253703"><ele>275.6666666666667</ele><time>2026-04-19T11:24:49.799Z</time></trkpt><trkpt lat="43.0462097" lon="11.6252735"><ele>275.0</ele><time>2026-04-19T11:24:50.799Z</time></trkpt><trkpt lat="43.0460233" lon="11.6251869"><ele>276.0</ele><time>2026-04-19T11:24:51.8Z</time></trkpt><trkpt lat="43.0458355" lon="11.6251093"><ele>277.0</ele><time>2026-04-19T11:24:52.799Z</time></trkpt><trkpt lat="43.0456428" lon="11.6250586"><ele>278.0</ele><time>2026-04-19T11:24:53.799Z</time></trkpt><trkpt lat="43.045437" lon="11.6250415"><ele>278.0</ele><time>2026-04-19T11:24:54.799Z</time></trkpt><trkpt lat="43.0452163" lon="11.6250432"><ele>278.0</ele><time>2026-04-19T11:24:55.8Z</time></trkpt><trkpt lat="43.0449792" lon="11.6250469"><ele>278.5</ele><time>2026-04-19T11:24:56.799Z</time></trkpt><trkpt lat="43.0447327" lon="11.6250568"><ele>279.0</ele><time>2026-04-19T11:24:57.799Z</time></trkpt><trkpt lat="43.0444951" lon="11.6250902"><ele>279.0</ele><time>2026-04-19T11:24:58.799Z</time></trkpt><trkpt lat="43.0442729" lon="11.6251525"><ele>279.0</ele><time>2026-04-19T11:24:59.799Z</time></trkpt><trkpt lat="43.0440599" lon="11.6252379"><ele>279.0</ele><time>2026-04-19T11:25:00.799Z</time></trkpt><trkpt lat="43.0438525" lon="11.6253368"><ele>277.3333333333333</ele><time>2026-04-19T11:25:01.8Z</time></trkpt><trkpt lat="43.0436498" lon="11.6254432"><ele>275.66666666666663</ele><time>2026-04-19T11:25:02.799Z</time></trkpt><trkpt lat="43.0434425" lon="11.625552"><ele>274.0</ele><time>2026-04-19T11:25:03.8Z</time></trkpt><trkpt lat="43.0432302" lon="11.6256613"><ele>274.0</ele><time>2026-04-19T11:25:04.8Z</time></trkpt><trkpt lat="43.0430144" lon="11.6257732"><ele>274.0</ele><time>2026-04-19T11:25:05.799Z</time></trkpt><trkpt lat="43.0428009" lon="11.6258862"><ele>274.0</ele><time>2026-04-19T11:25:06.798Z</time></trkpt><trkpt lat="43.0425937" lon="11.6259937"><ele>274.0</ele><time>2026-04-19T11:25:07.8Z</time></trkpt><trkpt lat="43.0423975" lon="11.6260934"><ele>274.0</ele><time>2026-04-19T11:25:08.798Z</time></trkpt><trkpt lat="43.0422083" lon="11.6261869"><ele>272.66666666666663</ele><time>2026-04-19T11:25:09.8Z</time></trkpt><trkpt lat="43.0420234" lon="11.626281"><ele>271.3333333333333</ele><time>2026-04-19T11:25:10.798Z</time></trkpt><trkpt lat="43.0418483" lon="11.6263703"><ele>270.0</ele><time>2026-04-19T11:25:11.799Z</time></trkpt><trkpt lat="43.0416751" lon="11.6264508"><ele>271.0</ele><time>2026-04-19T11:25:12.799Z</time></trkpt><trkpt lat="43.0415108" lon="11.6265165"><ele>272.0</ele><time>2026-04-19T11:25:13.799Z</time></trkpt><trkpt lat="43.0413495" lon="11.6265762"><ele>273.0</ele><time>2026-04-19T11:25:14.798Z</time></trkpt><trkpt lat="43.0411939" lon="11.6266206"><ele>273.0</ele><time>2026-04-19T11:25:15.8Z</time></trkpt><trkpt lat="43.0410416" lon="11.6266543"><ele>273.0</ele><time>2026-04-19T11:25:16.8Z</time></trkpt><trkpt lat="43.0408954" lon="11.6266778"><ele>273.0</ele><time>2026-04-19T11:25:17.8Z</time></trkpt><trkpt lat="43.0407584" lon="11.626708"><ele>273.0</ele><time>2026-04-19T11:25:18.799Z</time></trkpt><trkpt lat="43.0406318" lon="11.6267569"><ele>272.5</ele><time>2026-04-19T11:25:19.799Z</time></trkpt><trkpt lat="43.0404961" lon="11.6268021"><ele>272.0</ele><time>2026-04-19T11:25:20.798Z</time></trkpt><trkpt lat="43.0403504" lon="11.6268337"><ele>271.5</ele><time>2026-04-19T11:25:21.8Z</time></trkpt><trkpt lat="43.0401984" lon="11.6268555"><ele>271.0</ele><time>2026-04-19T11:25:22.798Z</time></trkpt><trkpt lat="43.0400335" lon="11.6268549"><ele>271.66666666666663</ele><time>2026-04-19T11:25:23.799Z</time></trkpt><trkpt lat="43.0398596" lon="11.6268554"><ele>272.3333333333333</ele><time>2026-04-19T11:25:24.8Z</time></trkpt><trkpt lat="43.0396903" lon="11.6268559"><ele>273.0</ele><time>2026-04-19T11:25:25.798Z</time></trkpt><trkpt lat="43.0395289" lon="11.6268481"><ele>273.0</ele><time>2026-04-19T11:25:26.8Z</time></trkpt><trkpt lat="43.0393746" lon="11.6268473"><ele>273.0</ele><time>2026-04-19T11:25:27.799Z</time></trkpt><trkpt lat="43.0392305" lon="11.6268528"><ele>273.0</ele><time>2026-04-19T11:25:28.798Z</time></trkpt><trkpt lat="43.0390977" lon="11.626861"><ele>273.0</ele><time>2026-04-19T11:25:29.798Z</time></trkpt><trkpt lat="43.0389731" lon="11.6268647"><ele>273.0</ele><time>2026-04-19T11:25:30.798Z</time></trkpt><trkpt lat="43.0388518" lon="11.626875"><ele>273.0</ele><time>2026-04-19T11:25:31.799Z</time></trkpt><trkpt lat="43.0387214" lon="11.6268895"><ele>273.0</ele><time>2026-04-19T11:25:32.8Z</time></trkpt><trkpt lat="43.0385827" lon="11.626905"><ele>273.0</ele><time>2026-04-19T11:25:33.8Z</time></trkpt><trkpt lat="43.0384326" lon="11.6269237"><ele>272.3333333333333</ele><time>2026-04-19T11:25:34.799Z</time></trkpt><trkpt lat="43.0382647" lon="11.6269494"><ele>271.66666666666663</ele><time>2026-04-19T11:25:35.799Z</time></trkpt><trkpt lat="43.0380776" lon="11.6269794"><ele>271.0</ele><time>2026-04-19T11:25:36.798Z</time></trkpt><trkpt lat="43.0378751" lon="11.6270141"><ele>269.3333333333333</ele><time>2026-04-19T11:25:37.8Z</time></trkpt><trkpt lat="43.037664" lon="11.6270555"><ele>267.6666666666667</ele><time>2026-04-19T11:25:38.8Z</time></trkpt><trkpt lat="43.0374365" lon="11.6271033"><ele>266.0</ele><time>2026-04-19T11:25:39.8Z</time></trkpt><trkpt lat="43.0371797" lon="11.627151"><ele>266.0</ele><time>2026-04-19T11:25:40.8Z</time></trkpt><trkpt lat="43.0369331" lon="11.6271925"><ele>266.0</ele><time>2026-04-19T11:25:41.8Z</time></trkpt><trkpt lat="43.036703" lon="11.6272326"><ele>267.6666666666667</ele><time>2026-04-19T11:25:42.8Z</time></trkpt><trkpt lat="43.0364828" lon="11.6272769"><ele>269.3333333333333</ele><time>2026-04-19T11:25:43.8Z</time></trkpt><trkpt lat="43.0362672" lon="11.6273066"><ele>271.0</ele><time>2026-04-19T11:25:44.798Z</time></trkpt><trkpt lat="43.0360691" lon="11.627339"><ele>271.0</ele><time>2026-04-19T11:25:45.8Z</time></trkpt><trkpt lat="43.0358825" lon="11.6273713"><ele>271.0</ele><time>2026-04-19T11:25:46.799Z</time></trkpt><trkpt lat="43.035708" lon="11.6274051"><ele>271.0</ele><time>2026-04-19T11:25:47.799Z</time></trkpt><trkpt lat="43.0355319" lon="11.6274345"><ele>270.3333333333333</ele><time>2026-04-19T11:25:48.8Z</time></trkpt><trkpt lat="43.0353484" lon="11.6274594"><ele>269.6666666666667</ele><time>2026-04-19T11:25:49.8Z</time></trkpt><trkpt lat="43.0351643" lon="11.6274895"><ele>269.0</ele><time>2026-04-19T11:25:50.799Z</time></trkpt><trkpt lat="43.0349816" lon="11.627523"><ele>268.33333333333337</ele><time>2026-04-19T11:25:51.799Z</time></trkpt><trkpt lat="43.0348022" lon="11.6275594"><ele>267.6666666666667</ele><time>2026-04-19T11:25:52.8Z</time></trkpt><trkpt lat="43.0346377" lon="11.6275906"><ele>267.0</ele><time>2026-04-19T11:25:53.799Z</time></trkpt><trkpt lat="43.0344742" lon="11.6276149"><ele>267.0</ele><time>2026-04-19T11:25:54.8Z</time></trkpt><trkpt lat="43.0343223" lon="11.627631"><ele>267.0</ele><time>2026-04-19T11:25:55.8Z</time></trkpt><trkpt lat="43.0341728" lon="11.6276228"><ele>267.0</ele><time>2026-04-19T11:25:56.799Z</time></trkpt><trkpt lat="43.0340199" lon="11.6275882"><ele>265.0</ele><time>2026-04-19T11:25:57.798Z</time></trkpt><trkpt lat="43.0338675" lon="11.6275364"><ele>263.0</ele><time>2026-04-19T11:25:58.799Z</time></trkpt><trkpt lat="43.0337075" lon="11.6274854"><ele>261.0</ele><time>2026-04-19T11:25:59.799Z</time></trkpt><trkpt lat="43.0335316" lon="11.6274306"><ele>261.0</ele><time>2026-04-19T11:26:00.798Z</time></trkpt><trkpt lat="43.0333416" lon="11.6273716"><ele>261.0</ele><time>2026-04-19T11:26:01.799Z</time></trkpt><trkpt lat="43.0331417" lon="11.6273102"><ele>261.0</ele><time>2026-04-19T11:26:02.798Z</time></trkpt><trkpt lat="43.0329405" lon="11.6272503"><ele>259.6666666666667</ele><time>2026-04-19T11:26:03.799Z</time></trkpt><trkpt lat="43.0327368" lon="11.6271818"><ele>258.33333333333337</ele><time>2026-04-19T11:26:04.799Z</time></trkpt><trkpt lat="43.0325345" lon="11.6271119"><ele>257.0</ele><time>2026-04-19T11:26:05.8Z</time></trkpt><trkpt lat="43.0323245" lon="11.6270472"><ele>258.6666666666667</ele><time>2026-04-19T11:26:06.8Z</time></trkpt><trkpt lat="43.0321143" lon="11.6269772"><ele>260.3333333333333</ele><time>2026-04-19T11:26:07.8Z</time></trkpt><trkpt lat="43.0319015" lon="11.6269136"><ele>262.0</ele><time>2026-04-19T11:26:08.799Z</time></trkpt><trkpt lat="43.0316901" lon="11.626846"><ele>262.66666666666663</ele><time>2026-04-19T11:26:09.798Z</time></trkpt><trkpt lat="43.0314906" lon="11.6267858"><ele>263.3333333333333</ele><time>2026-04-19T11:26:10.799Z</time></trkpt><trkpt lat="43.0312979" lon="11.6267289"><ele>264.0</ele><time>2026-04-19T11:26:11.799Z</time></trkpt><trkpt lat="43.0311117" lon="11.6266742"><ele>264.0</ele><time>2026-04-19T11:26:12.8Z</time></trkpt><trkpt lat="43.0309344" lon="11.6266178"><ele>264.0</ele><time>2026-04-19T11:26:13.799Z</time></trkpt><trkpt lat="43.0307584" lon="11.6265673"><ele>264.0</ele><time>2026-04-19T11:26:14.799Z</time></trkpt><trkpt lat="43.030579" lon="11.6265244"><ele>262.3333333333333</ele><time>2026-04-19T11:26:15.799Z</time></trkpt><trkpt lat="43.0303973" lon="11.6264868"><ele>260.66666666666663</ele><time>2026-04-19T11:26:16.8Z</time></trkpt><trkpt lat="43.0302081" lon="11.62644"><ele>259.0</ele><time>2026-04-19T11:26:17.8Z</time></trkpt><trkpt lat="43.03002" lon="11.6263695"><ele>258.0</ele><time>2026-04-19T11:26:18.799Z</time></trkpt><trkpt lat="43.0298408" lon="11.6262746"><ele>257.0</ele><time>2026-04-19T11:26:19.799Z</time></trkpt><trkpt lat="43.0296659" lon="11.6261632"><ele>256.0</ele><time>2026-04-19T11:26:20.799Z</time></trkpt><trkpt lat="43.0294963" lon="11.6260654"><ele>257.3333333333333</ele><time>2026-04-19T11:26:21.8Z</time></trkpt><trkpt lat="43.0293288" lon="11.6259953"><ele>258.6666666666667</ele><time>2026-04-19T11:26:22.798Z</time></trkpt><trkpt lat="43.0291669" lon="11.6259273"><ele>260.0</ele><time>2026-04-19T11:26:23.8Z</time></trkpt><trkpt lat="43.0290151" lon="11.62585"><ele>260.0</ele><time>2026-04-19T11:26:24.8Z</time></trkpt><trkpt lat="43.0288788" lon="11.6257631"><ele>260.0</ele><time>2026-04-19T11:26:25.8Z</time></trkpt><trkpt lat="43.0287687" lon="11.6256614"><ele>260.0</ele><time>2026-04-19T11:26:26.8Z</time></trkpt><trkpt lat="43.0286757" lon="11.6255502"><ele>260.0</ele><time>2026-04-19T11:26:27.8Z</time></trkpt><trkpt lat="43.0286029" lon="11.6254378"><ele>260.0</ele><time>2026-04-19T11:26:28.799Z</time></trkpt><trkpt lat="43.0285309" lon="11.6253492"><ele>260.0</ele><time>2026-04-19T11:26:29.798Z</time></trkpt><trkpt lat="43.0284578" lon="11.6252783"><ele>260.0</ele><time>2026-04-19T11:26:30.799Z</time></trkpt><trkpt lat="43.0283849" lon="11.6251828"><ele>260.0</ele><time>2026-04-19T11:26:31.799Z</time></trkpt><trkpt lat="43.0283196" lon="11.6250713"><ele>260.0</ele><time>2026-04-19T11:26:32.799Z</time></trkpt><trkpt lat="43.0282677" lon="11.6249668"><ele>259.6666666666667</ele><time>2026-04-19T11:26:33.8Z</time></trkpt><trkpt lat="43.0282263" lon="11.6248657"><ele>259.33333333333337</ele><time>2026-04-19T11:26:34.798Z</time></trkpt><trkpt lat="43.0281985" lon="11.6247771"><ele>259.0</ele><time>2026-04-19T11:26:35.799Z</time></trkpt><trkpt lat="43.0281693" lon="11.6246977"><ele>258.6666666666667</ele><time>2026-04-19T11:26:36.799Z</time></trkpt><trkpt lat="43.0281326" lon="11.6245687"><ele>258.3333333333333</ele><time>2026-04-19T11:26:38.799Z</time></trkpt><trkpt lat="43.0281191" lon="11.6244662"><ele>258.0</ele><time>2026-04-19T11:26:40.799Z</time></trkpt><trkpt lat="43.0281014" lon="11.6245827"><ele>258.0</ele><time>2026-04-19T11:26:46.8Z</time></trkpt><trkpt lat="43.0281304" lon="11.6246742"><ele>258.0</ele><time>2026-04-19T11:26:47.8Z</time></trkpt><trkpt lat="43.0281655" lon="11.6247688"><ele>258.0</ele><time>2026-04-19T11:26:48.799Z</time></trkpt><trkpt lat="43.0282006" lon="11.6248617"><ele>258.0</ele><time>2026-04-19T11:26:49.799Z</time></trkpt><trkpt lat="43.0282332" lon="11.6249487"><ele>258.0</ele><time>2026-04-19T11:26:50.799Z</time></trkpt><trkpt lat="43.0282613" lon="11.625029"><ele>258.0</ele><time>2026-04-19T11:26:51.799Z</time></trkpt><trkpt lat="43.0282988" lon="11.625156"><ele>258.0</ele><time>2026-04-19T11:26:53.799Z</time></trkpt><trkpt lat="43.0282912" lon="11.6252565"><ele>258.0</ele><time>2026-04-19T11:26:57.797Z</time></trkpt><trkpt lat="43.0282258" lon="11.6253688"><ele>258.0</ele><time>2026-04-19T11:27:00.798Z</time></trkpt><trkpt lat="43.0281571" lon="11.6254343"><ele>258.0</ele><time>2026-04-19T11:27:01.799Z</time></trkpt><trkpt lat="43.0280723" lon="11.6255232"><ele>258.0</ele><time>2026-04-19T11:27:02.799Z</time></trkpt><trkpt lat="43.02797" lon="11.6256327"><ele>259.25</ele><time>2026-04-19T11:27:03.797Z</time></trkpt><trkpt lat="43.0278651" lon="11.6257491"><ele>260.5</ele><time>2026-04-19T11:27:04.797Z</time></trkpt><trkpt lat="43.027769" lon="11.6258582"><ele>261.75</ele><time>2026-04-19T11:27:05.798Z</time></trkpt><trkpt lat="43.0276883" lon="11.6259636"><ele>263.0</ele><time>2026-04-19T11:27:06.799Z</time></trkpt><trkpt lat="43.0276362" lon="11.6260753"><ele>265.25</ele><time>2026-04-19T11:27:07.799Z</time></trkpt><trkpt lat="43.0276175" lon="11.6262122"><ele>267.5</ele><time>2026-04-19T11:27:08.799Z</time></trkpt><trkpt lat="43.027627" lon="11.6263675"><ele>269.75</ele><time>2026-04-19T11:27:09.798Z</time></trkpt><trkpt lat="43.0276526" lon="11.626545"><ele>272.0</ele><time>2026-04-19T11:27:10.798Z</time></trkpt><trkpt lat="43.0276536" lon="11.6267162"><ele>272.0</ele><time>2026-04-19T11:27:11.799Z</time></trkpt><trkpt lat="43.0276277" lon="11.6268876"><ele>272.0</ele><time>2026-04-19T11:27:12.799Z</time></trkpt><trkpt lat="43.0275802" lon="11.627066"><ele>272.0</ele><time>2026-04-19T11:27:13.798Z</time></trkpt><trkpt lat="43.0275029" lon="11.6272383"><ele>272.0</ele><time>2026-04-19T11:27:14.799Z</time></trkpt><trkpt lat="43.0274296" lon="11.6273889"><ele>273.75</ele><time>2026-04-19T11:27:15.798Z</time></trkpt><trkpt lat="43.0273466" lon="11.6275139"><ele>275.5</ele><time>2026-04-19T11:27:16.799Z</time></trkpt><trkpt lat="43.0272551" lon="11.6275979"><ele>277.25</ele><time>2026-04-19T11:27:17.798Z</time></trkpt><trkpt lat="43.0271461" lon="11.6276649"><ele>279.0</ele><time>2026-04-19T11:27:18.798Z</time></trkpt><trkpt lat="43.0270195" lon="11.6277028"><ele>279.0</ele><time>2026-04-19T11:27:19.797Z</time></trkpt><trkpt lat="43.0268763" lon="11.6277298"><ele>279.0</ele><time>2026-04-19T11:27:20.799Z</time></trkpt><trkpt lat="43.0267254" lon="11.6277586"><ele>279.0</ele><time>2026-04-19T11:27:21.797Z</time></trkpt><trkpt lat="43.0265795" lon="11.6277867"><ele>279.0</ele><time>2026-04-19T11:27:22.798Z</time></trkpt><trkpt lat="43.0264431" lon="11.6278102"><ele>277.8</ele><time>2026-04-19T11:27:23.798Z</time></trkpt><trkpt lat="43.026322" lon="11.6278315"><ele>276.59999999999997</ele><time>2026-04-19T11:27:24.799Z</time></trkpt><trkpt lat="43.0262126" lon="11.6278518"><ele>275.4</ele><time>2026-04-19T11:27:25.797Z</time></trkpt><trkpt lat="43.0261185" lon="11.6278708"><ele>274.2</ele><time>2026-04-19T11:27:26.797Z</time></trkpt><trkpt lat="43.0260441" lon="11.6278837"><ele>273.0</ele><time>2026-04-19T11:27:27.798Z</time></trkpt><trkpt lat="43.0259717" lon="11.6278777"><ele>274.8</ele><time>2026-04-19T11:27:28.799Z</time></trkpt><trkpt lat="43.0259095" lon="11.6277828"><ele>276.6</ele><time>2026-04-19T11:27:30.798Z</time></trkpt><trkpt lat="43.0259643" lon="11.6276225"><ele>278.4</ele><time>2026-04-19T11:27:32.798Z</time></trkpt><trkpt lat="43.0260194" lon="11.627524"><ele>280.2</ele><time>2026-04-19T11:27:33.798Z</time></trkpt><trkpt lat="43.0260833" lon="11.6274017"><ele>282.0</ele><time>2026-04-19T11:27:34.798Z</time></trkpt><trkpt lat="43.0261606" lon="11.6272675"><ele>282.0</ele><time>2026-04-19T11:27:35.798Z</time></trkpt><trkpt lat="43.0262279" lon="11.6271377"><ele>282.0</ele><time>2026-04-19T11:27:36.799Z</time></trkpt><trkpt lat="43.0262875" lon="11.6270254"><ele>282.0</ele><time>2026-04-19T11:27:37.799Z</time></trkpt><trkpt lat="43.0263278" lon="11.6269333"><ele>282.0</ele><time>2026-04-19T11:27:38.797Z</time></trkpt><trkpt lat="43.0263498" lon="11.6268412"><ele>282.0</ele><time>2026-04-19T11:27:39.798Z</time></trkpt><trkpt lat="43.0263127" lon="11.6266954"><ele>283.6</ele><time>2026-04-19T11:27:41.799Z</time></trkpt><trkpt lat="43.0262489" lon="11.626656"><ele>285.2</ele><time>2026-04-19T11:27:42.798Z</time></trkpt><trkpt lat="43.0261716" lon="11.62663"><ele>286.8</ele><time>2026-04-19T11:27:43.797Z</time></trkpt><trkpt lat="43.0260593" lon="11.6266032"><ele>288.4</ele><time>2026-04-19T11:27:44.798Z</time></trkpt><trkpt lat="43.0259328" lon="11.6265535"><ele>290.0</ele><time>2026-04-19T11:27:45.798Z</time></trkpt><trkpt lat="43.0257923" lon="11.6265049"><ele>291.6666666666667</ele><time>2026-04-19T11:27:46.798Z</time></trkpt><trkpt lat="43.0256398" lon="11.626454"><ele>293.3333333333333</ele><time>2026-04-19T11:27:47.798Z</time></trkpt><trkpt lat="43.0254891" lon="11.626403"><ele>295.0</ele><time>2026-04-19T11:27:48.798Z</time></trkpt><trkpt lat="43.0253597" lon="11.6263254"><ele>295.0</ele><time>2026-04-19T11:27:49.799Z</time></trkpt><trkpt lat="43.0252416" lon="11.6262253"><ele>295.0</ele><time>2026-04-19T11:27:50.798Z</time></trkpt><trkpt lat="43.0251419" lon="11.6261022"><ele>295.0</ele><time>2026-04-19T11:27:51.797Z</time></trkpt><trkpt lat="43.0250353" lon="11.6259948"><ele>295.0</ele><time>2026-04-19T11:27:52.798Z</time></trkpt><trkpt lat="43.0249318" lon="11.6259211"><ele>298.2</ele><time>2026-04-19T11:27:53.798Z</time></trkpt><trkpt lat="43.0248278" lon="11.6258911"><ele>301.4</ele><time>2026-04-19T11:27:54.798Z</time></trkpt><trkpt lat="43.0247224" lon="11.6258587"><ele>304.6</ele><time>2026-04-19T11:27:55.798Z</time></trkpt><trkpt lat="43.0245996" lon="11.6259029"><ele>307.8</ele><time>2026-04-19T11:27:56.799Z</time></trkpt><trkpt lat="43.0245372" lon="11.6260101"><ele>311.0</ele><time>2026-04-19T11:27:57.798Z</time></trkpt><trkpt lat="43.0244779" lon="11.6261094"><ele>309.5</ele><time>2026-04-19T11:27:58.798Z</time></trkpt><trkpt lat="43.0243824" lon="11.6261813"><ele>308.0</ele><time>2026-04-19T11:27:59.798Z</time></trkpt><trkpt lat="43.024271" lon="11.6262271"><ele>306.5</ele><time>2026-04-19T11:28:00.798Z</time></trkpt><trkpt lat="43.0241429" lon="11.6262547"><ele>305.0</ele><time>2026-04-19T11:28:01.798Z</time></trkpt><trkpt lat="43.024013" lon="11.6262765"><ele>305.0</ele><time>2026-04-19T11:28:02.799Z</time></trkpt><trkpt lat="43.0238837" lon="11.6263017"><ele>305.0</ele><time>2026-04-19T11:28:03.799Z</time></trkpt><trkpt lat="43.0237487" lon="11.6262989"><ele>305.0</ele><time>2026-04-19T11:28:04.798Z</time></trkpt><trkpt lat="43.0236178" lon="11.6262806"><ele>305.0</ele><time>2026-04-19T11:28:05.798Z</time></trkpt><trkpt lat="43.0234921" lon="11.6262495"><ele>305.0</ele><time>2026-04-19T11:28:06.798Z</time></trkpt><trkpt lat="43.0233821" lon="11.6262114"><ele>305.0</ele><time>2026-04-19T11:28:07.797Z</time></trkpt><trkpt lat="43.0232787" lon="11.6261648"><ele>305.0</ele><time>2026-04-19T11:28:08.798Z</time></trkpt><trkpt lat="43.0231867" lon="11.6261029"><ele>305.0</ele><time>2026-04-19T11:28:09.799Z</time></trkpt><trkpt lat="43.0230984" lon="11.6260136"><ele>305.0</ele><time>2026-04-19T11:28:10.798Z</time></trkpt><trkpt lat="43.0230058" lon="11.6259"><ele>307.33333333333337</ele><time>2026-04-19T11:28:11.798Z</time></trkpt><trkpt lat="43.0228946" lon="11.6257833"><ele>309.6666666666667</ele><time>2026-04-19T11:28:12.798Z</time></trkpt><trkpt lat="43.0227657" lon="11.6256605"><ele>312.0</ele><time>2026-04-19T11:28:13.798Z</time></trkpt><trkpt lat="43.0226277" lon="11.6255272"><ele>312.0</ele><time>2026-04-19T11:28:14.797Z</time></trkpt><trkpt lat="43.0224818" lon="11.6253838"><ele>312.0</ele><time>2026-04-19T11:28:15.799Z</time></trkpt><trkpt lat="43.0223273" lon="11.6252321"><ele>312.0</ele><time>2026-04-19T11:28:16.798Z</time></trkpt><trkpt lat="43.0221691" lon="11.6250854"><ele>315.6666666666667</ele><time>2026-04-19T11:28:17.798Z</time></trkpt><trkpt lat="43.0220113" lon="11.6249409"><ele>319.33333333333337</ele><time>2026-04-19T11:28:18.797Z</time></trkpt><trkpt lat="43.0218615" lon="11.6248118"><ele>323.0</ele><time>2026-04-19T11:28:19.799Z</time></trkpt><trkpt lat="43.0217234" lon="11.6246884"><ele>323.0</ele><time>2026-04-19T11:28:20.799Z</time></trkpt><trkpt lat="43.021591" lon="11.6245795"><ele>323.0</ele><time>2026-04-19T11:28:21.798Z</time></trkpt><trkpt lat="43.0214577" lon="11.6244815"><ele>323.0</ele><time>2026-04-19T11:28:22.799Z</time></trkpt><trkpt lat="43.0213015" lon="11.624426"><ele>327.6666666666667</ele><time>2026-04-19T11:28:23.798Z</time></trkpt><trkpt lat="43.0211309" lon="11.6244009"><ele>332.3333333333333</ele><time>2026-04-19T11:28:24.799Z</time></trkpt><trkpt lat="43.0209766" lon="11.6243487"><ele>337.0</ele><time>2026-04-19T11:28:25.797Z</time></trkpt><trkpt lat="43.0208242" lon="11.6243075"><ele>337.6</ele><time>2026-04-19T11:28:26.798Z</time></trkpt><trkpt lat="43.0206835" lon="11.6242734"><ele>338.20000000000005</ele><time>2026-04-19T11:28:27.798Z</time></trkpt><trkpt lat="43.0205819" lon="11.6242282"><ele>338.8</ele><time>2026-04-19T11:28:28.798Z</time></trkpt><trkpt lat="43.0205085" lon="11.6241747"><ele>339.4</ele><time>2026-04-19T11:28:29.799Z</time></trkpt><trkpt lat="43.0204541" lon="11.6241154"><ele>340.0</ele><time>2026-04-19T11:28:30.799Z</time></trkpt><trkpt lat="43.0205202" lon="11.6239601"><ele>340.0</ele><time>2026-04-19T11:28:32.798Z</time></trkpt><trkpt lat="43.0206023" lon="11.6239199"><ele>340.0</ele><time>2026-04-19T11:28:33.797Z</time></trkpt><trkpt lat="43.0206866" lon="11.623883"><ele>340.0</ele><time>2026-04-19T11:28:34.799Z</time></trkpt><trkpt lat="43.0207956" lon="11.6238696"><ele>340.0</ele><time>2026-04-19T11:28:35.799Z</time></trkpt><trkpt lat="43.0209806" lon="11.6239256"><ele>339.25</ele><time>2026-04-19T11:28:36.798Z</time></trkpt><trkpt lat="43.0211366" lon="11.6239451"><ele>338.5</ele><time>2026-04-19T11:28:37.798Z</time></trkpt><trkpt lat="43.021276" lon="11.6239663"><ele>337.75</ele><time>2026-04-19T11:28:38.798Z</time></trkpt><trkpt lat="43.0213983" lon="11.6239728"><ele>337.0</ele><time>2026-04-19T11:28:39.798Z</time></trkpt><trkpt lat="43.021501" lon="11.6239455"><ele>337.0</ele><time>2026-04-19T11:28:40.799Z</time></trkpt><trkpt lat="43.0215708" lon="11.6238924"><ele>337.0</ele><time>2026-04-19T11:28:41.798Z</time></trkpt><trkpt lat="43.0216337" lon="11.6238294"><ele>337.0</ele><time>2026-04-19T11:28:42.798Z</time></trkpt><trkpt lat="43.0216303" lon="11.6236713"><ele>337.0</ele><time>2026-04-19T11:28:44.799Z</time></trkpt><trkpt lat="43.0215949" lon="11.6235869"><ele>337.0</ele><time>2026-04-19T11:28:45.799Z</time></trkpt><trkpt lat="43.0213432" lon="11.6235446"><ele>340.66666666666663</ele><time>2026-04-19T11:28:46.799Z</time></trkpt><trkpt lat="43.0211869" lon="11.6234774"><ele>344.3333333333333</ele><time>2026-04-19T11:28:47.798Z</time></trkpt><trkpt lat="43.0210048" lon="11.6234124"><ele>348.0</ele><time>2026-04-19T11:28:48.797Z</time></trkpt><trkpt lat="43.0208218" lon="11.623356"><ele>348.3333333333333</ele><time>2026-04-19T11:28:49.798Z</time></trkpt><trkpt lat="43.02065" lon="11.6233147"><ele>348.66666666666663</ele><time>2026-04-19T11:28:50.799Z</time></trkpt><trkpt lat="43.0204924" lon="11.6233057"><ele>349.0</ele><time>2026-04-19T11:28:51.799Z</time></trkpt><trkpt lat="43.0203443" lon="11.6233153"><ele>349.0</ele><time>2026-04-19T11:28:52.798Z</time></trkpt><trkpt lat="43.0202131" lon="11.623302"><ele>349.0</ele><time>2026-04-19T11:28:53.799Z</time></trkpt><trkpt lat="43.0200876" lon="11.6233038"><ele>349.0</ele><time>2026-04-19T11:28:54.798Z</time></trkpt><trkpt lat="43.0199655" lon="11.623255"><ele>349.0</ele><time>2026-04-19T11:28:55.799Z</time></trkpt><trkpt lat="43.0198845" lon="11.6231725"><ele>349.0</ele><time>2026-04-19T11:28:56.799Z</time></trkpt><trkpt lat="43.0198429" lon="11.6229998"><ele>349.0</ele><time>2026-04-19T11:28:57.798Z</time></trkpt><trkpt lat="43.0198895" lon="11.6227312"><ele>349.0</ele><time>2026-04-19T11:28:58.798Z</time></trkpt><trkpt lat="43.0198241" lon="11.6225422"><ele>349.0</ele><time>2026-04-19T11:28:59.798Z</time></trkpt><trkpt lat="43.0197605" lon="11.6223458"><ele>349.0</ele><time>2026-04-19T11:29:00.798Z</time></trkpt><trkpt lat="43.0197067" lon="11.6221615"><ele>349.0</ele><time>2026-04-19T11:29:01.798Z</time></trkpt><trkpt lat="43.0196422" lon="11.6219998"><ele>349.0</ele><time>2026-04-19T11:29:02.798Z</time></trkpt><trkpt lat="43.0195714" lon="11.6218618"><ele>350.25</ele><time>2026-04-19T11:29:03.798Z</time></trkpt><trkpt lat="43.0194933" lon="11.6217429"><ele>351.5</ele><time>2026-04-19T11:29:04.797Z</time></trkpt><trkpt lat="43.0193953" lon="11.6216464"><ele>352.75</ele><time>2026-04-19T11:29:05.798Z</time></trkpt><trkpt lat="43.0192767" lon="11.6215718"><ele>354.0</ele><time>2026-04-19T11:29:06.798Z</time></trkpt><trkpt lat="43.0191464" lon="11.6215012"><ele>354.3333333333333</ele><time>2026-04-19T11:29:07.799Z</time></trkpt><trkpt lat="43.019012" lon="11.6214322"><ele>354.66666666666663</ele><time>2026-04-19T11:29:08.799Z</time></trkpt><trkpt lat="43.018855" lon="11.6213515"><ele>355.0</ele><time>2026-04-19T11:29:09.799Z</time></trkpt><trkpt lat="43.0186889" lon="11.6212579"><ele>355.0</ele><time>2026-04-19T11:29:10.798Z</time></trkpt><trkpt lat="43.0185165" lon="11.6211495"><ele>355.0</ele><time>2026-04-19T11:29:11.799Z</time></trkpt><trkpt lat="43.0183349" lon="11.6210419"><ele>355.0</ele><time>2026-04-19T11:29:12.798Z</time></trkpt><trkpt lat="43.018154" lon="11.6209375"><ele>360.3333333333333</ele><time>2026-04-19T11:29:13.799Z</time></trkpt><trkpt lat="43.0179757" lon="11.6208443"><ele>365.6666666666667</ele><time>2026-04-19T11:29:14.798Z</time></trkpt><trkpt lat="43.0177919" lon="11.6207699"><ele>371.0</ele><time>2026-04-19T11:29:15.799Z</time></trkpt><trkpt lat="43.0175976" lon="11.6206952"><ele>377.6666666666667</ele><time>2026-04-19T11:29:16.798Z</time></trkpt><trkpt lat="43.0174135" lon="11.6206108"><ele>384.33333333333337</ele><time>2026-04-19T11:29:17.797Z</time></trkpt><trkpt lat="43.0172293" lon="11.6205336"><ele>391.0</ele><time>2026-04-19T11:29:18.798Z</time></trkpt><trkpt lat="43.0170491" lon="11.6204617"><ele>391.0</ele><time>2026-04-19T11:29:19.797Z</time></trkpt><trkpt lat="43.0168857" lon="11.620389"><ele>391.0</ele><time>2026-04-19T11:29:20.799Z</time></trkpt><trkpt lat="43.0167241" lon="11.6202949"><ele>391.0</ele><time>2026-04-19T11:29:21.799Z</time></trkpt><trkpt lat="43.0165596" lon="11.6201935"><ele>391.33333333333337</ele><time>2026-04-19T11:29:22.798Z</time></trkpt><trkpt lat="43.0163945" lon="11.6200798"><ele>391.66666666666663</ele><time>2026-04-19T11:29:23.798Z</time></trkpt><trkpt lat="43.0162342" lon="11.6199511"><ele>392.0</ele><time>2026-04-19T11:29:24.798Z</time></trkpt><trkpt lat="43.0160818" lon="11.6198282"><ele>392.0</ele><time>2026-04-19T11:29:25.797Z</time></trkpt><trkpt lat="43.0159429" lon="11.6197167"><ele>392.0</ele><time>2026-04-19T11:29:26.798Z</time></trkpt><trkpt lat="43.015806" lon="11.6196105"><ele>392.0</ele><time>2026-04-19T11:29:27.798Z</time></trkpt><trkpt lat="43.0156693" lon="11.6195014"><ele>392.75</ele><time>2026-04-19T11:29:28.799Z</time></trkpt><trkpt lat="43.0155418" lon="11.6193923"><ele>393.5</ele><time>2026-04-19T11:29:29.798Z</time></trkpt><trkpt lat="43.0154265" lon="11.619277"><ele>394.25</ele><time>2026-04-19T11:29:30.799Z</time></trkpt><trkpt lat="43.0153215" lon="11.6191651"><ele>395.0</ele><time>2026-04-19T11:29:31.799Z</time></trkpt><trkpt lat="43.0152216" lon="11.6190695"><ele>395.0</ele><time>2026-04-19T11:29:32.798Z</time></trkpt><trkpt lat="43.0151244" lon="11.6190117"><ele>395.0</ele><time>2026-04-19T11:29:33.799Z</time></trkpt><trkpt lat="43.0150242" lon="11.6189769"><ele>395.0</ele><time>2026-04-19T11:29:34.798Z</time></trkpt><trkpt lat="43.0149196" lon="11.6189634"><ele>395.0</ele><time>2026-04-19T11:29:35.799Z</time></trkpt><trkpt lat="43.0148068" lon="11.6189789"><ele>395.0</ele><time>2026-04-19T11:29:36.799Z</time></trkpt><trkpt lat="43.0146918" lon="11.6190117"><ele>398.5</ele><time>2026-04-19T11:29:37.798Z</time></trkpt><trkpt lat="43.0145708" lon="11.6190443"><ele>402.0</ele><time>2026-04-19T11:29:38.798Z</time></trkpt><trkpt lat="43.0144432" lon="11.6190664"><ele>405.5</ele><time>2026-04-19T11:29:39.798Z</time></trkpt><trkpt lat="43.014309" lon="11.619074"><ele>409.0</ele><time>2026-04-19T11:29:40.798Z</time></trkpt><trkpt lat="43.0141726" lon="11.6190733"><ele>413.5</ele><time>2026-04-19T11:29:41.798Z</time></trkpt><trkpt lat="43.0140396" lon="11.6190557"><ele>418.0</ele><time>2026-04-19T11:29:42.799Z</time></trkpt><trkpt lat="43.013913" lon="11.6190146"><ele>422.5</ele><time>2026-04-19T11:29:43.798Z</time></trkpt><trkpt lat="43.013803" lon="11.618932"><ele>427.0</ele><time>2026-04-19T11:29:44.799Z</time></trkpt><trkpt lat="43.0137075" lon="11.6188282"><ele>427.0</ele><time>2026-04-19T11:29:45.799Z</time></trkpt><trkpt lat="43.0136318" lon="11.6187025"><ele>427.0</ele><time>2026-04-19T11:29:46.798Z</time></trkpt><trkpt lat="43.013569" lon="11.6185564"><ele>427.0</ele><time>2026-04-19T11:29:47.798Z</time></trkpt><trkpt lat="43.0135162" lon="11.6183966"><ele>427.0</ele><time>2026-04-19T11:29:48.799Z</time></trkpt><trkpt lat="43.0134575" lon="11.618244"><ele>426.0</ele><time>2026-04-19T11:29:49.799Z</time></trkpt><trkpt lat="43.0133827" lon="11.6181043"><ele>425.0</ele><time>2026-04-19T11:29:50.798Z</time></trkpt><trkpt lat="43.0132965" lon="11.6179762"><ele>424.0</ele><time>2026-04-19T11:29:51.799Z</time></trkpt><trkpt lat="43.0131956" lon="11.6178687"><ele>423.0</ele><time>2026-04-19T11:29:52.798Z</time></trkpt><trkpt lat="43.0130839" lon="11.6177901"><ele>422.25</ele><time>2026-04-19T11:29:53.799Z</time></trkpt><trkpt lat="43.0129525" lon="11.6177476"><ele>421.5</ele><time>2026-04-19T11:29:54.798Z</time></trkpt><trkpt lat="43.012816" lon="11.617715"><ele>420.75</ele><time>2026-04-19T11:29:55.798Z</time></trkpt><trkpt lat="43.0126828" lon="11.617679"><ele>420.0</ele><time>2026-04-19T11:29:56.798Z</time></trkpt><trkpt lat="43.0125507" lon="11.6176447"><ele>422.0</ele><time>2026-04-19T11:29:57.798Z</time></trkpt><trkpt lat="43.012412" lon="11.6176069"><ele>424.0</ele><time>2026-04-19T11:29:58.797Z</time></trkpt><trkpt lat="43.012278" lon="11.6175701"><ele>426.0</ele><time>2026-04-19T11:29:59.799Z</time></trkpt><trkpt lat="43.012146" lon="11.6175183"><ele>428.0</ele><time>2026-04-19T11:30:00.799Z</time></trkpt><trkpt lat="43.0120264" lon="11.6174605"><ele>428.0</ele><time>2026-04-19T11:30:01.799Z</time></trkpt><trkpt lat="43.0119183" lon="11.6174122"><ele>427.99999999999994</ele><time>2026-04-19T11:30:02.797Z</time></trkpt><trkpt lat="43.0118185" lon="11.6173758"><ele>427.99999999999994</ele><time>2026-04-19T11:30:03.798Z</time></trkpt><trkpt lat="43.0117271" lon="11.6173705"><ele>428.0</ele><time>2026-04-19T11:30:04.799Z</time></trkpt><trkpt lat="43.0116487" lon="11.6173945"><ele>428.0</ele><time>2026-04-19T11:30:05.799Z</time></trkpt><trkpt lat="43.0115776" lon="11.6174536"><ele>430.79999999999995</ele><time>2026-04-19T11:30:06.798Z</time></trkpt><trkpt lat="43.0115203" lon="11.6175423"><ele>433.59999999999997</ele><time>2026-04-19T11:30:07.797Z</time></trkpt><trkpt lat="43.0114864" lon="11.6176593"><ele>436.40000000000003</ele><time>2026-04-19T11:30:08.799Z</time></trkpt><trkpt lat="43.0114684" lon="11.6177901"><ele>439.20000000000005</ele><time>2026-04-19T11:30:09.799Z</time></trkpt><trkpt lat="43.0114676" lon="11.6179326"><ele>442.0</ele><time>2026-04-19T11:30:10.797Z</time></trkpt><trkpt lat="43.0115168" lon="11.6182349"><ele>442.0</ele><time>2026-04-19T11:30:12.799Z</time></trkpt><trkpt lat="43.0115853" lon="11.6183943"><ele>442.0</ele><time>2026-04-19T11:30:13.797Z</time></trkpt><trkpt lat="43.0116597" lon="11.6185405"><ele>442.0</ele><time>2026-04-19T11:30:14.798Z</time></trkpt><trkpt lat="43.0117259" lon="11.6186789"><ele>442.0</ele><time>2026-04-19T11:30:15.798Z</time></trkpt><trkpt lat="43.0117938" lon="11.6188"><ele>441.0</ele><time>2026-04-19T11:30:16.799Z</time></trkpt><trkpt lat="43.011865" lon="11.6188928"><ele>440.00000000000006</ele><time>2026-04-19T11:30:17.798Z</time></trkpt><trkpt lat="43.0119598" lon="11.6189321"><ele>439.00000000000006</ele><time>2026-04-19T11:30:18.799Z</time></trkpt><trkpt lat="43.0120644" lon="11.6189543"><ele>438.0</ele><time>2026-04-19T11:30:19.797Z</time></trkpt><trkpt lat="43.0121762" lon="11.6189691"><ele>437.0</ele><time>2026-04-19T11:30:20.799Z</time></trkpt><trkpt lat="43.012295" lon="11.6189788"><ele>437.0</ele><time>2026-04-19T11:30:21.798Z</time></trkpt><trkpt lat="43.0124176" lon="11.6189956"><ele>437.0</ele><time>2026-04-19T11:30:22.799Z</time></trkpt><trkpt lat="43.0125412" lon="11.6190286"><ele>437.0</ele><time>2026-04-19T11:30:23.798Z</time></trkpt><trkpt lat="43.0126608" lon="11.6190674"><ele>437.0</ele><time>2026-04-19T11:30:24.799Z</time></trkpt><trkpt lat="43.0127778" lon="11.6191226"><ele>436.25</ele><time>2026-04-19T11:30:25.799Z</time></trkpt><trkpt lat="43.0128832" lon="11.6192009"><ele>435.5</ele><time>2026-04-19T11:30:26.798Z</time></trkpt><trkpt lat="43.0129879" lon="11.6192892"><ele>434.75</ele><time>2026-04-19T11:30:27.798Z</time></trkpt><trkpt lat="43.0130917" lon="11.6193816"><ele>434.0</ele><time>2026-04-19T11:30:28.799Z</time></trkpt><trkpt lat="43.0131267" lon="11.6195259"><ele>433.16666666666663</ele><time>2026-04-19T11:30:29.797Z</time></trkpt><trkpt lat="43.0131497" lon="11.6196443"><ele>432.3333333333333</ele><time>2026-04-19T11:30:30.798Z</time></trkpt><trkpt lat="43.013114" lon="11.6197391"><ele>431.5</ele><time>2026-04-19T11:30:31.799Z</time></trkpt><trkpt lat="43.0130766" lon="11.6198135"><ele>430.66666666666663</ele><time>2026-04-19T11:30:32.797Z</time></trkpt><trkpt lat="43.012974" lon="11.6197867"><ele>429.8333333333333</ele><time>2026-04-19T11:30:33.797Z</time></trkpt><trkpt lat="43.0128789" lon="11.6197389"><ele>429.0</ele><time>2026-04-19T11:30:34.799Z</time></trkpt><trkpt lat="43.0127809" lon="11.619665"><ele>429.0</ele><time>2026-04-19T11:30:35.799Z</time></trkpt><trkpt lat="43.0126702" lon="11.6195729"><ele>429.0</ele><time>2026-04-19T11:30:36.798Z</time></trkpt><trkpt lat="43.0125397" lon="11.6194974"><ele>429.0</ele><time>2026-04-19T11:30:37.799Z</time></trkpt><trkpt lat="43.0123922" lon="11.619453"><ele>429.0</ele><time>2026-04-19T11:30:38.797Z</time></trkpt><trkpt lat="43.0122438" lon="11.619457"><ele>431.66666666666663</ele><time>2026-04-19T11:30:39.797Z</time></trkpt><trkpt lat="43.0120859" lon="11.6195154"><ele>434.3333333333333</ele><time>2026-04-19T11:30:40.799Z</time></trkpt><trkpt lat="43.0119201" lon="11.6195934"><ele>437.0</ele><time>2026-04-19T11:30:41.798Z</time></trkpt><trkpt lat="43.0117647" lon="11.6196745"><ele>441.25</ele><time>2026-04-19T11:30:42.797Z</time></trkpt><trkpt lat="43.0116247" lon="11.6197534"><ele>445.5</ele><time>2026-04-19T11:30:43.799Z</time></trkpt><trkpt lat="43.0114913" lon="11.6198252"><ele>449.75</ele><time>2026-04-19T11:30:44.799Z</time></trkpt><trkpt lat="43.0113742" lon="11.6199138"><ele>454.0</ele><time>2026-04-19T11:30:45.798Z</time></trkpt><trkpt lat="43.0112725" lon="11.6200337"><ele>454.0</ele><time>2026-04-19T11:30:46.797Z</time></trkpt><trkpt lat="43.0111671" lon="11.6201719"><ele>454.0</ele><time>2026-04-19T11:30:47.798Z</time></trkpt><trkpt lat="43.0110641" lon="11.620319"><ele>454.0</ele><time>2026-04-19T11:30:48.798Z</time></trkpt><trkpt lat="43.0109749" lon="11.620465"><ele>454.0</ele><time>2026-04-19T11:30:49.799Z</time></trkpt><trkpt lat="43.0108854" lon="11.620594"><ele>455.0</ele><time>2026-04-19T11:30:50.798Z</time></trkpt><trkpt lat="43.0107854" lon="11.6207048"><ele>456.0</ele><time>2026-04-19T11:30:51.798Z</time></trkpt><trkpt lat="43.0106721" lon="11.6208075"><ele>457.0</ele><time>2026-04-19T11:30:52.798Z</time></trkpt><trkpt lat="43.01056" lon="11.6209016"><ele>458.0</ele><time>2026-04-19T11:30:53.798Z</time></trkpt><trkpt lat="43.0104519" lon="11.6209949"><ele>458.0</ele><time>2026-04-19T11:30:54.799Z</time></trkpt><trkpt lat="43.0103505" lon="11.621092"><ele>458.0</ele><time>2026-04-19T11:30:55.799Z</time></trkpt><trkpt lat="43.0102556" lon="11.6211974"><ele>458.0</ele><time>2026-04-19T11:30:56.799Z</time></trkpt><trkpt lat="43.0101746" lon="11.6212937"><ele>458.0</ele><time>2026-04-19T11:30:57.797Z</time></trkpt><trkpt lat="43.0101035" lon="11.6213834"><ele>458.2</ele><time>2026-04-19T11:30:58.799Z</time></trkpt><trkpt lat="43.0100374" lon="11.6214668"><ele>458.4</ele><time>2026-04-19T11:30:59.799Z</time></trkpt><trkpt lat="43.0099798" lon="11.6215349"><ele>458.59999999999997</ele><time>2026-04-19T11:31:00.798Z</time></trkpt><trkpt lat="43.0099368" lon="11.621598"><ele>458.79999999999995</ele><time>2026-04-19T11:31:01.799Z</time></trkpt><trkpt lat="43.0098994" lon="11.6217411"><ele>459.0</ele><time>2026-04-19T11:31:03.799Z</time></trkpt><trkpt lat="43.0098608" lon="11.6219091"><ele>456.5</ele><time>2026-04-19T11:31:05.799Z</time></trkpt><trkpt lat="43.0098246" lon="11.6219905"><ele>454.0</ele><time>2026-04-19T11:31:06.798Z</time></trkpt><trkpt lat="43.0097832" lon="11.6220643"><ele>451.5</ele><time>2026-04-19T11:31:07.799Z</time></trkpt><trkpt lat="43.0097339" lon="11.6221216"><ele>449.0</ele><time>2026-04-19T11:31:08.798Z</time></trkpt><trkpt lat="43.0096306" lon="11.6222085"><ele>446.5</ele><time>2026-04-19T11:31:10.798Z</time></trkpt><trkpt lat="43.0095232" lon="11.6222681"><ele>444.0</ele><time>2026-04-19T11:31:12.799Z</time></trkpt><trkpt lat="43.0094133" lon="11.6223285"><ele>444.0</ele><time>2026-04-19T11:31:14.799Z</time></trkpt><trkpt lat="43.009344" lon="11.6223626"><ele>444.0</ele><time>2026-04-19T11:31:15.799Z</time></trkpt><trkpt lat="43.0092693" lon="11.6224025"><ele>444.0</ele><time>2026-04-19T11:31:16.798Z</time></trkpt><trkpt lat="43.0091937" lon="11.6224555"><ele>444.0</ele><time>2026-04-19T11:31:17.798Z</time></trkpt><trkpt lat="43.0090988" lon="11.622499"><ele>444.0</ele><time>2026-04-19T11:31:18.798Z</time></trkpt><trkpt lat="43.0090098" lon="11.6225436"><ele>444.0</ele><time>2026-04-19T11:31:19.798Z</time></trkpt><trkpt lat="43.0089203" lon="11.6225824"><ele>444.3333333333333</ele><time>2026-04-19T11:31:20.798Z</time></trkpt><trkpt lat="43.0088257" lon="11.6226236"><ele>444.66666666666663</ele><time>2026-04-19T11:31:21.799Z</time></trkpt><trkpt lat="43.0087383" lon="11.6226506"><ele>445.0</ele><time>2026-04-19T11:31:22.799Z</time></trkpt><trkpt lat="43.0086498" lon="11.6226727"><ele>445.3333333333333</ele><time>2026-04-19T11:31:23.798Z</time></trkpt><trkpt lat="43.0085699" lon="11.6226937"><ele>445.66666666666663</ele><time>2026-04-19T11:31:24.798Z</time></trkpt><trkpt lat="43.0084943" lon="11.6227077"><ele>446.0</ele><time>2026-04-19T11:31:25.799Z</time></trkpt><trkpt lat="43.0084245" lon="11.622725"><ele>446.49999999999994</ele><time>2026-04-19T11:31:26.799Z</time></trkpt><trkpt lat="43.0082951" lon="11.6227521"><ele>447.0</ele><time>2026-04-19T11:31:28.798Z</time></trkpt><trkpt lat="43.0082265" lon="11.6227807"><ele>447.5</ele><time>2026-04-19T11:31:29.799Z</time></trkpt><trkpt lat="43.0081528" lon="11.6228217"><ele>448.0</ele><time>2026-04-19T11:31:30.798Z</time></trkpt><trkpt lat="43.0080892" lon="11.622876"><ele>448.49999999999994</ele><time>2026-04-19T11:31:31.798Z</time></trkpt><trkpt lat="43.008025" lon="11.62295"><ele>449.0</ele><time>2026-04-19T11:31:32.799Z</time></trkpt><trkpt lat="43.0079686" lon="11.6230464"><ele>446.6</ele><time>2026-04-19T11:31:33.799Z</time></trkpt><trkpt lat="43.0079144" lon="11.6231516"><ele>444.2</ele><time>2026-04-19T11:31:34.799Z</time></trkpt><trkpt lat="43.0078619" lon="11.623258"><ele>441.80000000000007</ele><time>2026-04-19T11:31:35.799Z</time></trkpt><trkpt lat="43.0078024" lon="11.6233563"><ele>439.40000000000003</ele><time>2026-04-19T11:31:36.798Z</time></trkpt><trkpt lat="43.0077426" lon="11.6234475"><ele>437.0</ele><time>2026-04-19T11:31:37.799Z</time></trkpt><trkpt lat="43.0076789" lon="11.6235324"><ele>437.0</ele><time>2026-04-19T11:31:38.798Z</time></trkpt><trkpt lat="43.0076082" lon="11.623608"><ele>437.0</ele><time>2026-04-19T11:31:39.799Z</time></trkpt><trkpt lat="43.007445" lon="11.623752"><ele>437.0</ele><time>2026-04-19T11:31:41.797Z</time></trkpt><trkpt lat="43.0073603" lon="11.6238105"><ele>437.0</ele><time>2026-04-19T11:31:42.797Z</time></trkpt><trkpt lat="43.0072762" lon="11.6238753"><ele>435.99999999999994</ele><time>2026-04-19T11:31:43.798Z</time></trkpt><trkpt lat="43.0072035" lon="11.6239504"><ele>435.0</ele><time>2026-04-19T11:31:44.797Z</time></trkpt><trkpt lat="43.0071389" lon="11.624027"><ele>434.0</ele><time>2026-04-19T11:31:45.797Z</time></trkpt><trkpt lat="43.0070796" lon="11.6241114"><ele>433.0</ele><time>2026-04-19T11:31:46.798Z</time></trkpt><trkpt lat="43.0070253" lon="11.6241898"><ele>431.99999999999994</ele><time>2026-04-19T11:31:47.796Z</time></trkpt><trkpt lat="43.0069708" lon="11.6242711"><ele>431.0</ele><time>2026-04-19T11:31:48.797Z</time></trkpt><trkpt lat="43.006914" lon="11.6243512"><ele>431.0</ele><time>2026-04-19T11:31:49.798Z</time></trkpt><trkpt lat="43.0068601" lon="11.6244235"><ele>431.0</ele><time>2026-04-19T11:31:50.798Z</time></trkpt><trkpt lat="43.0068014" lon="11.6244918"><ele>431.0</ele><time>2026-04-19T11:31:51.798Z</time></trkpt><trkpt lat="43.0067429" lon="11.6245529"><ele>431.0</ele><time>2026-04-19T11:31:52.797Z</time></trkpt><trkpt lat="43.0066844" lon="11.6246048"><ele>431.0</ele><time>2026-04-19T11:31:53.797Z</time></trkpt><trkpt lat="43.0066225" lon="11.6246445"><ele>431.0</ele><time>2026-04-19T11:31:54.797Z</time></trkpt><trkpt lat="43.0065576" lon="11.6246622"><ele>431.0</ele><time>2026-04-19T11:31:55.797Z</time></trkpt><trkpt lat="43.0064914" lon="11.6246784"><ele>428.49999999999994</ele><time>2026-04-19T11:31:56.798Z</time></trkpt><trkpt lat="43.0064239" lon="11.6246878"><ele>426.0</ele><time>2026-04-19T11:31:57.798Z</time></trkpt><trkpt lat="43.0063574" lon="11.6246899"><ele>423.5</ele><time>2026-04-19T11:31:58.797Z</time></trkpt><trkpt lat="43.0062334" lon="11.6246777"><ele>421.0</ele><time>2026-04-19T11:32:00.797Z</time></trkpt><trkpt lat="43.0061683" lon="11.6246835"><ele>418.49999999999994</ele><time>2026-04-19T11:32:01.797Z</time></trkpt><trkpt lat="43.0060431" lon="11.6246822"><ele>416.0</ele><time>2026-04-19T11:32:03.796Z</time></trkpt><trkpt lat="43.005979" lon="11.6246781"><ele>415.99999999999994</ele><time>2026-04-19T11:32:04.798Z</time></trkpt><trkpt lat="43.0058522" lon="11.6246828"><ele>416.0</ele><time>2026-04-19T11:32:06.798Z</time></trkpt><trkpt lat="43.005781" lon="11.6246801"><ele>416.0</ele><time>2026-04-19T11:32:07.797Z</time></trkpt><trkpt lat="43.005708" lon="11.6246762"><ele>416.0</ele><time>2026-04-19T11:32:08.796Z</time></trkpt><trkpt lat="43.0056276" lon="11.6246785"><ele>415.99999999999994</ele><time>2026-04-19T11:32:09.797Z</time></trkpt><trkpt lat="43.00555" lon="11.624685"><ele>416.0</ele><time>2026-04-19T11:32:10.798Z</time></trkpt><trkpt lat="43.0054721" lon="11.6247022"><ele>415.0</ele><time>2026-04-19T11:32:11.798Z</time></trkpt><trkpt lat="43.005403" lon="11.6247215"><ele>414.0</ele><time>2026-04-19T11:32:12.796Z</time></trkpt><trkpt lat="43.0053315" lon="11.6247367"><ele>413.0</ele><time>2026-04-19T11:32:13.796Z</time></trkpt><trkpt lat="43.0052621" lon="11.6247423"><ele>412.0</ele><time>2026-04-19T11:32:14.796Z</time></trkpt><trkpt lat="43.0051909" lon="11.6247446"><ele>411.0</ele><time>2026-04-19T11:32:15.797Z</time></trkpt><trkpt lat="43.0051224" lon="11.6247391"><ele>410.0</ele><time>2026-04-19T11:32:16.797Z</time></trkpt><trkpt lat="43.0050604" lon="11.6247181"><ele>409.0</ele><time>2026-04-19T11:32:17.798Z</time></trkpt><trkpt lat="43.0050014" lon="11.6246817"><ele>408.4285714285714</ele><time>2026-04-19T11:32:18.797Z</time></trkpt><trkpt lat="43.0049399" lon="11.624642"><ele>407.8571428571429</ele><time>2026-04-19T11:32:19.797Z</time></trkpt><trkpt lat="43.0048863" lon="11.624591"><ele>407.2857142857143</ele><time>2026-04-19T11:32:20.797Z</time></trkpt><trkpt lat="43.0048232" lon="11.6245566"><ele>406.71428571428567</ele><time>2026-04-19T11:32:21.797Z</time></trkpt><trkpt lat="43.0047559" lon="11.6245349"><ele>406.1428571428571</ele><time>2026-04-19T11:32:22.797Z</time></trkpt><trkpt lat="43.0046801" lon="11.6245309"><ele>405.57142857142856</ele><time>2026-04-19T11:32:23.798Z</time></trkpt><trkpt lat="43.0046034" lon="11.624549"><ele>405.0</ele><time>2026-04-19T11:32:24.798Z</time></trkpt><trkpt lat="43.0045281" lon="11.6245927"><ele>405.0</ele><time>2026-04-19T11:32:25.796Z</time></trkpt><trkpt lat="43.0044474" lon="11.6246687"><ele>405.0</ele><time>2026-04-19T11:32:26.797Z</time></trkpt><trkpt lat="43.0043583" lon="11.6247626"><ele>405.0</ele><time>2026-04-19T11:32:27.797Z</time></trkpt><trkpt lat="43.0042654" lon="11.6248602"><ele>405.0</ele><time>2026-04-19T11:32:28.798Z</time></trkpt><trkpt lat="43.0041741" lon="11.6249549"><ele>405.0</ele><time>2026-04-19T11:32:29.798Z</time></trkpt><trkpt lat="43.0040917" lon="11.6250377"><ele>404.1666666666667</ele><time>2026-04-19T11:32:30.798Z</time></trkpt><trkpt lat="43.0040275" lon="11.6251095"><ele>403.33333333333337</ele><time>2026-04-19T11:32:31.797Z</time></trkpt><trkpt lat="43.0039746" lon="11.6251659"><ele>402.5</ele><time>2026-04-19T11:32:32.797Z</time></trkpt><trkpt lat="43.0039227" lon="11.6252234"><ele>401.6666666666667</ele><time>2026-04-19T11:32:33.798Z</time></trkpt><trkpt lat="43.0038615" lon="11.6252873"><ele>400.83333333333337</ele><time>2026-04-19T11:32:34.797Z</time></trkpt><trkpt lat="43.0037941" lon="11.625344"><ele>400.0</ele><time>2026-04-19T11:32:35.797Z</time></trkpt><trkpt lat="43.0037149" lon="11.6253807"><ele>398.6</ele><time>2026-04-19T11:32:36.797Z</time></trkpt><trkpt lat="43.0036362" lon="11.6253979"><ele>397.2</ele><time>2026-04-19T11:32:37.798Z</time></trkpt><trkpt lat="43.0035368" lon="11.6253801"><ele>395.79999999999995</ele><time>2026-04-19T11:32:38.797Z</time></trkpt><trkpt lat="43.0034403" lon="11.6253499"><ele>394.4</ele><time>2026-04-19T11:32:39.796Z</time></trkpt><trkpt lat="43.0033347" lon="11.6253146"><ele>393.0</ele><time>2026-04-19T11:32:40.797Z</time></trkpt><trkpt lat="43.0032347" lon="11.6252728"><ele>393.0</ele><time>2026-04-19T11:32:41.797Z</time></trkpt><trkpt lat="43.0031178" lon="11.6252461"><ele>393.0</ele><time>2026-04-19T11:32:42.798Z</time></trkpt><trkpt lat="43.0029997" lon="11.625242"><ele>393.0</ele><time>2026-04-19T11:32:43.797Z</time></trkpt><trkpt lat="43.0028757" lon="11.6252626"><ele>393.0</ele><time>2026-04-19T11:32:44.797Z</time></trkpt><trkpt lat="43.002762" lon="11.625298"><ele>391.0</ele><time>2026-04-19T11:32:45.797Z</time></trkpt><trkpt lat="43.0026515" lon="11.6253325"><ele>389.0</ele><time>2026-04-19T11:32:46.797Z</time></trkpt><trkpt lat="43.0025545" lon="11.6253665"><ele>387.0</ele><time>2026-04-19T11:32:47.798Z</time></trkpt><trkpt lat="43.0024686" lon="11.6253846"><ele>385.0</ele><time>2026-04-19T11:32:48.796Z</time></trkpt><trkpt lat="43.0023884" lon="11.6253763"><ele>383.0</ele><time>2026-04-19T11:32:49.797Z</time></trkpt><trkpt lat="43.0023185" lon="11.6253421"><ele>383.42857142857144</ele><time>2026-04-19T11:32:50.798Z</time></trkpt><trkpt lat="43.0022652" lon="11.625275"><ele>383.85714285714283</ele><time>2026-04-19T11:32:51.797Z</time></trkpt><trkpt lat="43.0022209" lon="11.6251958"><ele>384.28571428571433</ele><time>2026-04-19T11:32:52.798Z</time></trkpt><trkpt lat="43.0021917" lon="11.6250983"><ele>384.7142857142857</ele><time>2026-04-19T11:32:53.797Z</time></trkpt><trkpt lat="43.0021704" lon="11.6249965"><ele>385.14285714285717</ele><time>2026-04-19T11:32:54.797Z</time></trkpt><trkpt lat="43.002152" lon="11.6249005"><ele>385.5714285714286</ele><time>2026-04-19T11:32:55.797Z</time></trkpt><trkpt lat="43.0021178" lon="11.6248197"><ele>386.0</ele><time>2026-04-19T11:32:56.797Z</time></trkpt><trkpt lat="43.0020622" lon="11.6247649"><ele>385.99999999999994</ele><time>2026-04-19T11:32:57.797Z</time></trkpt><trkpt lat="43.0019986" lon="11.6247485"><ele>386.0</ele><time>2026-04-19T11:32:58.798Z</time></trkpt><trkpt lat="43.0019252" lon="11.6247665"><ele>386.0</ele><time>2026-04-19T11:32:59.798Z</time></trkpt><trkpt lat="43.0018459" lon="11.6248051"><ele>386.0</ele><time>2026-04-19T11:33:00.797Z</time></trkpt><trkpt lat="43.0017557" lon="11.624861"><ele>385.99999999999994</ele><time>2026-04-19T11:33:01.797Z</time></trkpt><trkpt lat="43.0016586" lon="11.6249304"><ele>386.0</ele><time>2026-04-19T11:33:02.798Z</time></trkpt><trkpt lat="43.0015619" lon="11.6250002"><ele>386.4</ele><time>2026-04-19T11:33:03.798Z</time></trkpt><trkpt lat="43.0014591" lon="11.625064"><ele>386.8</ele><time>2026-04-19T11:33:04.797Z</time></trkpt><trkpt lat="43.0013572" lon="11.6251106"><ele>387.2</ele><time>2026-04-19T11:33:05.796Z</time></trkpt><trkpt lat="43.0012509" lon="11.6251542"><ele>387.59999999999997</ele><time>2026-04-19T11:33:06.796Z</time></trkpt><trkpt lat="43.0011443" lon="11.6251964"><ele>388.0</ele><time>2026-04-19T11:33:07.798Z</time></trkpt><trkpt lat="43.0010378" lon="11.6252466"><ele>388.0</ele><time>2026-04-19T11:33:08.798Z</time></trkpt><trkpt lat="43.0009368" lon="11.6253037"><ele>388.0</ele><time>2026-04-19T11:33:09.798Z</time></trkpt><trkpt lat="43.0008446" lon="11.6253611"><ele>388.0</ele><time>2026-04-19T11:33:10.797Z</time></trkpt><trkpt lat="43.0007618" lon="11.6254244"><ele>388.0</ele><time>2026-04-19T11:33:11.797Z</time></trkpt><trkpt lat="43.0006966" lon="11.6254995"><ele>388.0</ele><time>2026-04-19T11:33:12.798Z</time></trkpt><trkpt lat="43.0006523" lon="11.6255934"><ele>387.83333333333337</ele><time>2026-04-19T11:33:13.797Z</time></trkpt><trkpt lat="43.000624" lon="11.6256981"><ele>387.6666666666667</ele><time>2026-04-19T11:33:14.797Z</time></trkpt><trkpt lat="43.0006026" lon="11.6258106"><ele>387.5</ele><time>2026-04-19T11:33:15.798Z</time></trkpt><trkpt lat="43.0005769" lon="11.6259203"><ele>387.33333333333337</ele><time>2026-04-19T11:33:16.798Z</time></trkpt><trkpt lat="43.0005465" lon="11.6260163"><ele>387.1666666666667</ele><time>2026-04-19T11:33:17.798Z</time></trkpt><trkpt lat="43.0005046" lon="11.6261017"><ele>387.0</ele><time>2026-04-19T11:33:18.797Z</time></trkpt><trkpt lat="43.0004511" lon="11.6261748"><ele>384.8</ele><time>2026-04-19T11:33:19.796Z</time></trkpt><trkpt lat="43.0003814" lon="11.6262303"><ele>382.6</ele><time>2026-04-19T11:33:20.797Z</time></trkpt><trkpt lat="43.000293" lon="11.6262728"><ele>380.40000000000003</ele><time>2026-04-19T11:33:21.798Z</time></trkpt><trkpt lat="43.0001786" lon="11.6263092"><ele>378.20000000000005</ele><time>2026-04-19T11:33:22.798Z</time></trkpt><trkpt lat="43.0000443" lon="11.6263603"><ele>376.0</ele><time>2026-04-19T11:33:23.798Z</time></trkpt><trkpt lat="42.9998992" lon="11.6264185"><ele>376.0</ele><time>2026-04-19T11:33:24.797Z</time></trkpt><trkpt lat="42.9997632" lon="11.6264551"><ele>376.0</ele><time>2026-04-19T11:33:25.798Z</time></trkpt><trkpt lat="42.9996303" lon="11.6264907"><ele>376.0</ele><time>2026-04-19T11:33:26.796Z</time></trkpt><trkpt lat="42.9995061" lon="11.6265278"><ele>376.0</ele><time>2026-04-19T11:33:27.797Z</time></trkpt><trkpt lat="42.9993902" lon="11.6265652"><ele>376.0</ele><time>2026-04-19T11:33:28.798Z</time></trkpt><trkpt lat="42.999275" lon="11.6266123"><ele>376.0</ele><time>2026-04-19T11:33:29.797Z</time></trkpt><trkpt lat="42.9991618" lon="11.6266693"><ele>376.0</ele><time>2026-04-19T11:33:30.797Z</time></trkpt><trkpt lat="42.9990486" lon="11.6267572"><ele>376.0</ele><time>2026-04-19T11:33:31.797Z</time></trkpt><trkpt lat="42.9989397" lon="11.6268488"><ele>376.5</ele><time>2026-04-19T11:33:32.798Z</time></trkpt><trkpt lat="42.9988391" lon="11.6269469"><ele>377.0</ele><time>2026-04-19T11:33:33.797Z</time></trkpt><trkpt lat="42.9987497" lon="11.6270493"><ele>377.5</ele><time>2026-04-19T11:33:34.797Z</time></trkpt><trkpt lat="42.9986701" lon="11.6271547"><ele>378.0</ele><time>2026-04-19T11:33:35.797Z</time></trkpt><trkpt lat="42.998602" lon="11.6272748"><ele>375.5</ele><time>2026-04-19T11:33:36.797Z</time></trkpt><trkpt lat="42.9985352" lon="11.6274031"><ele>373.0</ele><time>2026-04-19T11:33:37.797Z</time></trkpt><trkpt lat="42.9984694" lon="11.6275413"><ele>370.5</ele><time>2026-04-19T11:33:38.797Z</time></trkpt><trkpt lat="42.9984085" lon="11.6276928"><ele>368.0</ele><time>2026-04-19T11:33:39.797Z</time></trkpt><trkpt lat="42.9983568" lon="11.6278258"><ele>368.83333333333337</ele><time>2026-04-19T11:33:40.796Z</time></trkpt><trkpt lat="42.9983093" lon="11.6279399"><ele>369.6666666666667</ele><time>2026-04-19T11:33:41.798Z</time></trkpt><trkpt lat="42.998265" lon="11.6280497"><ele>370.5</ele><time>2026-04-19T11:33:42.797Z</time></trkpt><trkpt lat="42.9982056" lon="11.6281529"><ele>371.3333333333333</ele><time>2026-04-19T11:33:43.796Z</time></trkpt><trkpt lat="42.998149" lon="11.6282284"><ele>372.16666666666663</ele><time>2026-04-19T11:33:44.797Z</time></trkpt><trkpt lat="42.9980846" lon="11.6282725"><ele>373.0</ele><time>2026-04-19T11:33:45.798Z</time></trkpt><trkpt lat="42.9980062" lon="11.6283171"><ele>373.0</ele><time>2026-04-19T11:33:46.798Z</time></trkpt><trkpt lat="42.9979112" lon="11.6283658"><ele>373.0</ele><time>2026-04-19T11:33:47.798Z</time></trkpt><trkpt lat="42.9978066" lon="11.6284177"><ele>373.0</ele><time>2026-04-19T11:33:48.797Z</time></trkpt><trkpt lat="42.9977076" lon="11.628461"><ele>373.0</ele><time>2026-04-19T11:33:49.798Z</time></trkpt><trkpt lat="42.9976115" lon="11.6284897"><ele>373.0</ele><time>2026-04-19T11:33:50.797Z</time></trkpt><trkpt lat="42.9975165" lon="11.6285034"><ele>373.59999999999997</ele><time>2026-04-19T11:33:51.797Z</time></trkpt><trkpt lat="42.9974236" lon="11.6285232"><ele>374.2</ele><time>2026-04-19T11:33:52.798Z</time></trkpt><trkpt lat="42.9973304" lon="11.6285521"><ele>374.8</ele><time>2026-04-19T11:33:53.798Z</time></trkpt><trkpt lat="42.9972393" lon="11.628582"><ele>375.4</ele><time>2026-04-19T11:33:54.798Z</time></trkpt><trkpt lat="42.9971488" lon="11.6286154"><ele>376.0</ele><time>2026-04-19T11:33:55.797Z</time></trkpt><trkpt lat="42.9970547" lon="11.6286613"><ele>373.6</ele><time>2026-04-19T11:33:56.797Z</time></trkpt><trkpt lat="42.9969549" lon="11.6287099"><ele>371.20000000000005</ele><time>2026-04-19T11:33:57.798Z</time></trkpt><trkpt lat="42.9968567" lon="11.6287587"><ele>368.79999999999995</ele><time>2026-04-19T11:33:58.797Z</time></trkpt><trkpt lat="42.9967616" lon="11.6288078"><ele>366.4</ele><time>2026-04-19T11:33:59.797Z</time></trkpt><trkpt lat="42.996669" lon="11.6288521"><ele>364.0</ele><time>2026-04-19T11:34:00.798Z</time></trkpt><trkpt lat="42.9965787" lon="11.6288903"><ele>363.66666666666663</ele><time>2026-04-19T11:34:01.798Z</time></trkpt><trkpt lat="42.9964901" lon="11.6289286"><ele>363.3333333333333</ele><time>2026-04-19T11:34:02.797Z</time></trkpt><trkpt lat="42.9964038" lon="11.6289597"><ele>363.0</ele><time>2026-04-19T11:34:03.798Z</time></trkpt><trkpt lat="42.9963182" lon="11.6289836"><ele>362.6666666666667</ele><time>2026-04-19T11:34:04.797Z</time></trkpt><trkpt lat="42.9962505" lon="11.6289988"><ele>362.33333333333337</ele><time>2026-04-19T11:34:05.796Z</time></trkpt><trkpt lat="42.9961552" lon="11.6290145"><ele>362.0</ele><time>2026-04-19T11:34:06.798Z</time></trkpt><trkpt lat="42.9960593" lon="11.6290273"><ele>362.0</ele><time>2026-04-19T11:34:07.798Z</time></trkpt><trkpt lat="42.9959524" lon="11.6290406"><ele>362.0</ele><time>2026-04-19T11:34:08.798Z</time></trkpt><trkpt lat="42.9958352" lon="11.6290502"><ele>362.0</ele><time>2026-04-19T11:34:09.797Z</time></trkpt><trkpt lat="42.9957179" lon="11.6290561"><ele>362.0</ele><time>2026-04-19T11:34:10.796Z</time></trkpt><trkpt lat="42.9956051" lon="11.6290654"><ele>360.8</ele><time>2026-04-19T11:34:11.798Z</time></trkpt><trkpt lat="42.9954951" lon="11.6290755"><ele>359.6</ele><time>2026-04-19T11:34:12.798Z</time></trkpt><trkpt lat="42.9953888" lon="11.6290814"><ele>358.40000000000003</ele><time>2026-04-19T11:34:13.798Z</time></trkpt><trkpt lat="42.9952815" lon="11.6290907"><ele>357.20000000000005</ele><time>2026-04-19T11:34:14.797Z</time></trkpt><trkpt lat="42.9951784" lon="11.6290926"><ele>356.0</ele><time>2026-04-19T11:34:15.797Z</time></trkpt><trkpt lat="42.9950728" lon="11.6290947"><ele>354.5</ele><time>2026-04-19T11:34:16.797Z</time></trkpt><trkpt lat="42.994963" lon="11.6291019"><ele>353.0</ele><time>2026-04-19T11:34:17.797Z</time></trkpt><trkpt lat="42.9948479" lon="11.6291071"><ele>351.5</ele><time>2026-04-19T11:34:18.798Z</time></trkpt><trkpt lat="42.9947222" lon="11.6291121"><ele>350.0</ele><time>2026-04-19T11:34:19.798Z</time></trkpt><trkpt lat="42.994603" lon="11.629118"><ele>350.0</ele><time>2026-04-19T11:34:20.797Z</time></trkpt><trkpt lat="42.9944863" lon="11.6291251"><ele>350.0</ele><time>2026-04-19T11:34:21.798Z</time></trkpt><trkpt lat="42.9943677" lon="11.6291331"><ele>350.0</ele><time>2026-04-19T11:34:22.798Z</time></trkpt><trkpt lat="42.9942516" lon="11.6291376"><ele>350.0</ele><time>2026-04-19T11:34:23.798Z</time></trkpt><trkpt lat="42.9941361" lon="11.62914"><ele>348.6</ele><time>2026-04-19T11:34:24.797Z</time></trkpt><trkpt lat="42.9940234" lon="11.629143"><ele>347.2</ele><time>2026-04-19T11:34:25.798Z</time></trkpt><trkpt lat="42.9939129" lon="11.6291571"><ele>345.79999999999995</ele><time>2026-04-19T11:34:26.798Z</time></trkpt><trkpt lat="42.9938067" lon="11.6291649"><ele>344.4</ele><time>2026-04-19T11:34:27.798Z</time></trkpt><trkpt lat="42.9937019" lon="11.6291702"><ele>343.0</ele><time>2026-04-19T11:34:28.798Z</time></trkpt><trkpt lat="42.9936008" lon="11.6291762"><ele>343.0</ele><time>2026-04-19T11:34:29.798Z</time></trkpt><trkpt lat="42.9935087" lon="11.6291921"><ele>343.0</ele><time>2026-04-19T11:34:30.797Z</time></trkpt><trkpt lat="42.9934216" lon="11.6292175"><ele>343.0</ele><time>2026-04-19T11:34:31.797Z</time></trkpt><trkpt lat="42.9933473" lon="11.629254"><ele>343.0</ele><time>2026-04-19T11:34:32.797Z</time></trkpt><trkpt lat="42.9932787" lon="11.629306"><ele>343.0</ele><time>2026-04-19T11:34:33.798Z</time></trkpt><trkpt lat="42.9932099" lon="11.6293746"><ele>343.0</ele><time>2026-04-19T11:34:34.798Z</time></trkpt><trkpt lat="42.9931558" lon="11.6294712"><ele>343.0</ele><time>2026-04-19T11:34:35.797Z</time></trkpt><trkpt lat="42.9931007" lon="11.6295843"><ele>343.0</ele><time>2026-04-19T11:34:36.797Z</time></trkpt><trkpt lat="42.9930407" lon="11.6297208"><ele>343.0</ele><time>2026-04-19T11:34:37.798Z</time></trkpt><trkpt lat="42.992974" lon="11.6298752"><ele>343.0</ele><time>2026-04-19T11:34:38.796Z</time></trkpt><trkpt lat="42.9929035" lon="11.6300332"><ele>343.0</ele><time>2026-04-19T11:34:39.798Z</time></trkpt><trkpt lat="42.9928358" lon="11.6301802"><ele>343.0</ele><time>2026-04-19T11:34:40.798Z</time></trkpt><trkpt lat="42.9927677" lon="11.630324"><ele>343.0</ele><time>2026-04-19T11:34:41.798Z</time></trkpt><trkpt lat="42.9927005" lon="11.6304712"><ele>343.0</ele><time>2026-04-19T11:34:42.798Z</time></trkpt><trkpt lat="42.9926364" lon="11.6306073"><ele>343.79999999999995</ele><time>2026-04-19T11:34:43.798Z</time></trkpt><trkpt lat="42.9925796" lon="11.6307355"><ele>344.6</ele><time>2026-04-19T11:34:44.796Z</time></trkpt><trkpt lat="42.9925309" lon="11.6308563"><ele>345.4</ele><time>2026-04-19T11:34:45.797Z</time></trkpt><trkpt lat="42.9925011" lon="11.6309722"><ele>346.20000000000005</ele><time>2026-04-19T11:34:46.798Z</time></trkpt><trkpt lat="42.9924855" lon="11.6311001"><ele>347.0</ele><time>2026-04-19T11:34:47.798Z</time></trkpt><trkpt lat="42.9924988" lon="11.6312652"><ele>350.5</ele><time>2026-04-19T11:34:48.796Z</time></trkpt><trkpt lat="42.992516" lon="11.6314296"><ele>354.0</ele><time>2026-04-19T11:34:49.797Z</time></trkpt><trkpt lat="42.9925422" lon="11.6316273"><ele>357.5</ele><time>2026-04-19T11:34:50.798Z</time></trkpt><trkpt lat="42.9925786" lon="11.6318244"><ele>361.0</ele><time>2026-04-19T11:34:51.797Z</time></trkpt><trkpt lat="42.992611" lon="11.6320274"><ele>361.5</ele><time>2026-04-19T11:34:52.798Z</time></trkpt><trkpt lat="42.9926418" lon="11.6322198"><ele>362.0</ele><time>2026-04-19T11:34:53.798Z</time></trkpt><trkpt lat="42.9926763" lon="11.632403"><ele>362.5</ele><time>2026-04-19T11:34:54.798Z</time></trkpt><trkpt lat="42.9927017" lon="11.6325703"><ele>363.0</ele><time>2026-04-19T11:34:55.798Z</time></trkpt><trkpt lat="42.9927244" lon="11.6327202"><ele>362.59999999999997</ele><time>2026-04-19T11:34:56.798Z</time></trkpt><trkpt lat="42.9927366" lon="11.6328607"><ele>362.2</ele><time>2026-04-19T11:34:57.798Z</time></trkpt><trkpt lat="42.992737" lon="11.6329976"><ele>361.8</ele><time>2026-04-19T11:34:58.797Z</time></trkpt><trkpt lat="42.9927206" lon="11.6331477"><ele>361.4</ele><time>2026-04-19T11:34:59.797Z</time></trkpt><trkpt lat="42.9927038" lon="11.6333106"><ele>361.0</ele><time>2026-04-19T11:35:00.798Z</time></trkpt><trkpt lat="42.992685" lon="11.6334841"><ele>360.25</ele><time>2026-04-19T11:35:01.797Z</time></trkpt><trkpt lat="42.9926627" lon="11.6336614"><ele>359.5</ele><time>2026-04-19T11:35:02.796Z</time></trkpt><trkpt lat="42.9926397" lon="11.633823"><ele>358.75</ele><time>2026-04-19T11:35:03.798Z</time></trkpt><trkpt lat="42.9926207" lon="11.6339727"><ele>358.0</ele><time>2026-04-19T11:35:04.797Z</time></trkpt><trkpt lat="42.9926001" lon="11.6341215"><ele>358.0</ele><time>2026-04-19T11:35:05.797Z</time></trkpt><trkpt lat="42.9925802" lon="11.6342762"><ele>358.0</ele><time>2026-04-19T11:35:06.798Z</time></trkpt><trkpt lat="42.9925508" lon="11.6344241"><ele>358.0</ele><time>2026-04-19T11:35:07.797Z</time></trkpt><trkpt lat="42.9925164" lon="11.6345757"><ele>358.0</ele><time>2026-04-19T11:35:08.798Z</time></trkpt><trkpt lat="42.9924645" lon="11.6347384"><ele>357.0</ele><time>2026-04-19T11:35:09.797Z</time></trkpt><trkpt lat="42.9923978" lon="11.634899"><ele>356.0</ele><time>2026-04-19T11:35:10.798Z</time></trkpt><trkpt lat="42.9923207" lon="11.6350474"><ele>355.0</ele><time>2026-04-19T11:35:11.798Z</time></trkpt><trkpt lat="42.9922122" lon="11.6351801"><ele>354.0</ele><time>2026-04-19T11:35:12.796Z</time></trkpt><trkpt lat="42.9921033" lon="11.6353011"><ele>356.0</ele><time>2026-04-19T11:35:13.796Z</time></trkpt><trkpt lat="42.9919656" lon="11.6354263"><ele>358.0</ele><time>2026-04-19T11:35:14.798Z</time></trkpt><trkpt lat="42.9918304" lon="11.6355493"><ele>360.0</ele><time>2026-04-19T11:35:15.798Z</time></trkpt><trkpt lat="42.991689" lon="11.6356848"><ele>359.3333333333333</ele><time>2026-04-19T11:35:16.798Z</time></trkpt><trkpt lat="42.9915414" lon="11.6358196"><ele>358.66666666666663</ele><time>2026-04-19T11:35:17.797Z</time></trkpt><trkpt lat="42.991399" lon="11.6359418"><ele>358.0</ele><time>2026-04-19T11:35:18.797Z</time></trkpt><trkpt lat="42.9912564" lon="11.636058"><ele>360.25</ele><time>2026-04-19T11:35:19.796Z</time></trkpt><trkpt lat="42.9911234" lon="11.6361532"><ele>362.5</ele><time>2026-04-19T11:35:20.798Z</time></trkpt><trkpt lat="42.9909978" lon="11.6362394"><ele>364.75</ele><time>2026-04-19T11:35:21.798Z</time></trkpt><trkpt lat="42.9908762" lon="11.6363326"><ele>367.0</ele><time>2026-04-19T11:35:22.797Z</time></trkpt><trkpt lat="42.9907705" lon="11.6364183"><ele>367.25</ele><time>2026-04-19T11:35:23.798Z</time></trkpt><trkpt lat="42.9906775" lon="11.6364917"><ele>367.5</ele><time>2026-04-19T11:35:24.798Z</time></trkpt><trkpt lat="42.9905809" lon="11.6365626"><ele>367.75</ele><time>2026-04-19T11:35:25.798Z</time></trkpt><trkpt lat="42.990481" lon="11.6366267"><ele>368.0</ele><time>2026-04-19T11:35:26.797Z</time></trkpt><trkpt lat="42.9903603" lon="11.6366917"><ele>368.0</ele><time>2026-04-19T11:35:27.797Z</time></trkpt><trkpt lat="42.9902246" lon="11.636754"><ele>368.0</ele><time>2026-04-19T11:35:28.798Z</time></trkpt><trkpt lat="42.9900843" lon="11.6368266"><ele>368.0</ele><time>2026-04-19T11:35:29.798Z</time></trkpt><trkpt lat="42.9899438" lon="11.6368963"><ele>368.0</ele><time>2026-04-19T11:35:30.798Z</time></trkpt><trkpt lat="42.989808" lon="11.6369651"><ele>369.0</ele><time>2026-04-19T11:35:31.797Z</time></trkpt><trkpt lat="42.9896755" lon="11.637018"><ele>370.0</ele><time>2026-04-19T11:35:32.798Z</time></trkpt><trkpt lat="42.9895434" lon="11.6370576"><ele>371.0</ele><time>2026-04-19T11:35:33.798Z</time></trkpt><trkpt lat="42.9894091" lon="11.6370884"><ele>372.0</ele><time>2026-04-19T11:35:34.797Z</time></trkpt><trkpt lat="42.9892713" lon="11.6371036"><ele>372.75</ele><time>2026-04-19T11:35:35.798Z</time></trkpt><trkpt lat="42.9891368" lon="11.637117"><ele>373.5</ele><time>2026-04-19T11:35:36.798Z</time></trkpt><trkpt lat="42.9890132" lon="11.6371307"><ele>374.25</ele><time>2026-04-19T11:35:37.796Z</time></trkpt><trkpt lat="42.9889034" lon="11.6371462"><ele>375.0</ele><time>2026-04-19T11:35:38.798Z</time></trkpt><trkpt lat="42.9888103" lon="11.6371803"><ele>375.0</ele><time>2026-04-19T11:35:39.797Z</time></trkpt><trkpt lat="42.9887213" lon="11.6372362"><ele>375.0</ele><time>2026-04-19T11:35:40.797Z</time></trkpt><trkpt lat="42.9886358" lon="11.6373021"><ele>375.0</ele><time>2026-04-19T11:35:41.797Z</time></trkpt><trkpt lat="42.988559" lon="11.6373644"><ele>375.0</ele><time>2026-04-19T11:35:42.798Z</time></trkpt><trkpt lat="42.9884742" lon="11.637435"><ele>375.0</ele><time>2026-04-19T11:35:43.797Z</time></trkpt><trkpt lat="42.9883838" lon="11.6375057"><ele>375.25</ele><time>2026-04-19T11:35:44.798Z</time></trkpt><trkpt lat="42.9882944" lon="11.6375844"><ele>375.5</ele><time>2026-04-19T11:35:45.797Z</time></trkpt><trkpt lat="42.9881986" lon="11.6376733"><ele>375.75</ele><time>2026-04-19T11:35:46.797Z</time></trkpt><trkpt lat="42.9881078" lon="11.6377739"><ele>376.0</ele><time>2026-04-19T11:35:47.798Z</time></trkpt><trkpt lat="42.9880252" lon="11.6378896"><ele>378.5</ele><time>2026-04-19T11:35:48.797Z</time></trkpt><trkpt lat="42.9879446" lon="11.6380274"><ele>381.0</ele><time>2026-04-19T11:35:49.798Z</time></trkpt><trkpt lat="42.9878593" lon="11.6381784"><ele>383.5</ele><time>2026-04-19T11:35:50.796Z</time></trkpt><trkpt lat="42.987769" lon="11.6383438"><ele>386.0</ele><time>2026-04-19T11:35:51.797Z</time></trkpt><trkpt lat="42.9876758" lon="11.6385176"><ele>386.5</ele><time>2026-04-19T11:35:52.798Z</time></trkpt><trkpt lat="42.9875903" lon="11.6386775"><ele>387.0</ele><time>2026-04-19T11:35:53.797Z</time></trkpt><trkpt lat="42.987511" lon="11.6388245"><ele>387.5</ele><time>2026-04-19T11:35:54.796Z</time></trkpt><trkpt lat="42.9874425" lon="11.6389581"><ele>388.0</ele><time>2026-04-19T11:35:55.798Z</time></trkpt><trkpt lat="42.9873859" lon="11.6390874"><ele>388.0</ele><time>2026-04-19T11:35:56.797Z</time></trkpt><trkpt lat="42.9873448" lon="11.6392113"><ele>388.0</ele><time>2026-04-19T11:35:57.798Z</time></trkpt><trkpt lat="42.9873117" lon="11.6393382"><ele>388.0</ele><time>2026-04-19T11:35:58.798Z</time></trkpt><trkpt lat="42.987295" lon="11.6394737"><ele>388.0</ele><time>2026-04-19T11:35:59.798Z</time></trkpt><trkpt lat="42.9872781" lon="11.6396237"><ele>388.0</ele><time>2026-04-19T11:36:00.797Z</time></trkpt><trkpt lat="42.9872665" lon="11.6397851"><ele>389.2</ele><time>2026-04-19T11:36:01.798Z</time></trkpt><trkpt lat="42.9872491" lon="11.6399375"><ele>390.4</ele><time>2026-04-19T11:36:02.797Z</time></trkpt><trkpt lat="42.987232" lon="11.6400714"><ele>391.59999999999997</ele><time>2026-04-19T11:36:03.798Z</time></trkpt><trkpt lat="42.9872139" lon="11.6401893"><ele>392.79999999999995</ele><time>2026-04-19T11:36:04.797Z</time></trkpt><trkpt lat="42.9871851" lon="11.6402998"><ele>394.0</ele><time>2026-04-19T11:36:05.797Z</time></trkpt><trkpt lat="42.9871387" lon="11.6403883"><ele>395.79999999999995</ele><time>2026-04-19T11:36:06.797Z</time></trkpt><trkpt lat="42.9870726" lon="11.6404541"><ele>397.59999999999997</ele><time>2026-04-19T11:36:07.798Z</time></trkpt><trkpt lat="42.9869904" lon="11.6405009"><ele>399.4</ele><time>2026-04-19T11:36:08.798Z</time></trkpt><trkpt lat="42.9868892" lon="11.6405409"><ele>401.2</ele><time>2026-04-19T11:36:09.797Z</time></trkpt><trkpt lat="42.9867845" lon="11.6405796"><ele>403.0</ele><time>2026-04-19T11:36:10.796Z</time></trkpt><trkpt lat="42.9866978" lon="11.6406186"><ele>402.1666666666667</ele><time>2026-04-19T11:36:11.796Z</time></trkpt><trkpt lat="42.9866143" lon="11.6406135"><ele>401.33333333333337</ele><time>2026-04-19T11:36:12.796Z</time></trkpt><trkpt lat="42.9865446" lon="11.6405797"><ele>400.5</ele><time>2026-04-19T11:36:13.796Z</time></trkpt><trkpt lat="42.9864816" lon="11.6405127"><ele>399.66666666666663</ele><time>2026-04-19T11:36:14.796Z</time></trkpt><trkpt lat="42.98642" lon="11.6404189"><ele>398.8333333333333</ele><time>2026-04-19T11:36:15.797Z</time></trkpt><trkpt lat="42.9863586" lon="11.6403065"><ele>398.0</ele><time>2026-04-19T11:36:16.797Z</time></trkpt><trkpt lat="42.9862825" lon="11.6401723"><ele>396.25</ele><time>2026-04-19T11:36:17.796Z</time></trkpt><trkpt lat="42.9861926" lon="11.6400285"><ele>394.5</ele><time>2026-04-19T11:36:18.797Z</time></trkpt><trkpt lat="42.9861149" lon="11.6398883"><ele>392.75</ele><time>2026-04-19T11:36:19.797Z</time></trkpt><trkpt lat="42.986042" lon="11.6397742"><ele>391.0</ele><time>2026-04-19T11:36:20.797Z</time></trkpt><trkpt lat="42.9859702" lon="11.6396821"><ele>391.0</ele><time>2026-04-19T11:36:21.795Z</time></trkpt><trkpt lat="42.9858984" lon="11.6396157"><ele>391.0</ele><time>2026-04-19T11:36:22.797Z</time></trkpt><trkpt lat="42.9858091" lon="11.6395686"><ele>391.0</ele><time>2026-04-19T11:36:23.796Z</time></trkpt><trkpt lat="42.9857066" lon="11.6395294"><ele>391.0</ele><time>2026-04-19T11:36:24.796Z</time></trkpt><trkpt lat="42.9855941" lon="11.6394881"><ele>391.0</ele><time>2026-04-19T11:36:25.796Z</time></trkpt><trkpt lat="42.9854668" lon="11.6394427"><ele>393.0</ele><time>2026-04-19T11:36:26.797Z</time></trkpt><trkpt lat="42.9853246" lon="11.6393866"><ele>395.0</ele><time>2026-04-19T11:36:27.796Z</time></trkpt><trkpt lat="42.9851777" lon="11.639326"><ele>397.0</ele><time>2026-04-19T11:36:28.795Z</time></trkpt><trkpt lat="42.9850331" lon="11.6392703"><ele>399.5</ele><time>2026-04-19T11:36:29.797Z</time></trkpt><trkpt lat="42.9849034" lon="11.639228"><ele>402.0</ele><time>2026-04-19T11:36:30.797Z</time></trkpt><trkpt lat="42.9847818" lon="11.6391773"><ele>404.5</ele><time>2026-04-19T11:36:31.797Z</time></trkpt><trkpt lat="42.984676" lon="11.6391342"><ele>407.0</ele><time>2026-04-19T11:36:32.796Z</time></trkpt><trkpt lat="42.9845666" lon="11.6391125"><ele>407.0</ele><time>2026-04-19T11:36:33.797Z</time></trkpt><trkpt lat="42.984453" lon="11.6391143"><ele>407.0</ele><time>2026-04-19T11:36:34.797Z</time></trkpt><trkpt lat="42.9843338" lon="11.6391399"><ele>407.0</ele><time>2026-04-19T11:36:35.797Z</time></trkpt><trkpt lat="42.9842058" lon="11.6391865"><ele>407.0</ele><time>2026-04-19T11:36:36.796Z</time></trkpt><trkpt lat="42.9840669" lon="11.6392341"><ele>408.40000000000003</ele><time>2026-04-19T11:36:37.796Z</time></trkpt><trkpt lat="42.9839603" lon="11.6392654"><ele>409.8</ele><time>2026-04-19T11:36:38.797Z</time></trkpt><trkpt lat="42.9838814" lon="11.6392897"><ele>411.2</ele><time>2026-04-19T11:36:39.797Z</time></trkpt><trkpt lat="42.9838065" lon="11.6393421"><ele>412.6</ele><time>2026-04-19T11:36:41.797Z</time></trkpt><trkpt lat="42.9838019" lon="11.6394388"><ele>414.0</ele><time>2026-04-19T11:36:43.796Z</time></trkpt><trkpt lat="42.9838709" lon="11.6395671"><ele>414.25</ele><time>2026-04-19T11:36:45.796Z</time></trkpt><trkpt lat="42.9839383" lon="11.6396407"><ele>414.5</ele><time>2026-04-19T11:36:46.797Z</time></trkpt><trkpt lat="42.984025" lon="11.6397517"><ele>414.75</ele><time>2026-04-19T11:36:47.797Z</time></trkpt><trkpt lat="42.9841237" lon="11.6398901"><ele>415.0</ele><time>2026-04-19T11:36:48.797Z</time></trkpt><trkpt lat="42.9842387" lon="11.640047"><ele>415.0</ele><time>2026-04-19T11:36:49.796Z</time></trkpt><trkpt lat="42.984343" lon="11.6401867"><ele>415.0</ele><time>2026-04-19T11:36:50.797Z</time></trkpt><trkpt lat="42.9844495" lon="11.6403007"><ele>415.0</ele><time>2026-04-19T11:36:51.797Z</time></trkpt><trkpt lat="42.9845502" lon="11.6404313"><ele>415.0</ele><time>2026-04-19T11:36:52.795Z</time></trkpt><trkpt lat="42.9846532" lon="11.640584"><ele>415.25</ele><time>2026-04-19T11:36:53.796Z</time></trkpt><trkpt lat="42.9847513" lon="11.640733"><ele>415.5</ele><time>2026-04-19T11:36:54.796Z</time></trkpt><trkpt lat="42.984838" lon="11.640882"><ele>415.75</ele><time>2026-04-19T11:36:55.796Z</time></trkpt><trkpt lat="42.9849229" lon="11.6410226"><ele>416.0</ele><time>2026-04-19T11:36:56.797Z</time></trkpt><trkpt lat="42.9850092" lon="11.6411548"><ele>416.0</ele><time>2026-04-19T11:36:57.796Z</time></trkpt><trkpt lat="42.9850966" lon="11.6412854"><ele>416.0</ele><time>2026-04-19T11:36:58.796Z</time></trkpt><trkpt lat="42.9851921" lon="11.6414213"><ele>416.0</ele><time>2026-04-19T11:36:59.796Z</time></trkpt><trkpt lat="42.985297" lon="11.6415757"><ele>416.0</ele><time>2026-04-19T11:37:00.797Z</time></trkpt><trkpt lat="42.9854074" lon="11.641737"><ele>416.0</ele><time>2026-04-19T11:37:01.797Z</time></trkpt><trkpt lat="42.985515" lon="11.641898"><ele>416.0</ele><time>2026-04-19T11:37:02.796Z</time></trkpt><trkpt lat="42.9856233" lon="11.6420523"><ele>416.0</ele><time>2026-04-19T11:37:03.796Z</time></trkpt><trkpt lat="42.9857266" lon="11.6421934"><ele>416.75</ele><time>2026-04-19T11:37:04.797Z</time></trkpt><trkpt lat="42.9858323" lon="11.6423221"><ele>417.5</ele><time>2026-04-19T11:37:05.796Z</time></trkpt><trkpt lat="42.9859363" lon="11.6424358"><ele>418.25</ele><time>2026-04-19T11:37:06.796Z</time></trkpt><trkpt lat="42.9860481" lon="11.6425297"><ele>419.0</ele><time>2026-04-19T11:37:07.796Z</time></trkpt><trkpt lat="42.986159" lon="11.6426176"><ele>419.25</ele><time>2026-04-19T11:37:08.796Z</time></trkpt><trkpt lat="42.9862604" lon="11.642704"><ele>419.5</ele><time>2026-04-19T11:37:09.796Z</time></trkpt><trkpt lat="42.9863532" lon="11.6428005"><ele>419.75</ele><time>2026-04-19T11:37:10.797Z</time></trkpt><trkpt lat="42.9864384" lon="11.6429139"><ele>420.0</ele><time>2026-04-19T11:37:11.796Z</time></trkpt><trkpt lat="42.9865232" lon="11.6430416"><ele>420.75</ele><time>2026-04-19T11:37:12.797Z</time></trkpt><trkpt lat="42.9866097" lon="11.6431872"><ele>421.5</ele><time>2026-04-19T11:37:13.797Z</time></trkpt><trkpt lat="42.9867022" lon="11.6433421"><ele>422.25</ele><time>2026-04-19T11:37:14.797Z</time></trkpt><trkpt lat="42.9868043" lon="11.6435143"><ele>423.0</ele><time>2026-04-19T11:37:15.795Z</time></trkpt><trkpt lat="42.986922" lon="11.6437002"><ele>425.33333333333337</ele><time>2026-04-19T11:37:16.796Z</time></trkpt><trkpt lat="42.9870421" lon="11.6438913"><ele>427.6666666666667</ele><time>2026-04-19T11:37:17.796Z</time></trkpt><trkpt lat="42.9871656" lon="11.6440859"><ele>430.0</ele><time>2026-04-19T11:37:18.797Z</time></trkpt><trkpt lat="42.9872873" lon="11.6442674"><ele>430.0</ele><time>2026-04-19T11:37:19.797Z</time></trkpt><trkpt lat="42.9873974" lon="11.6444276"><ele>430.0</ele><time>2026-04-19T11:37:20.797Z</time></trkpt><trkpt lat="42.9875077" lon="11.6445837"><ele>430.0</ele><time>2026-04-19T11:37:21.796Z</time></trkpt><trkpt lat="42.9876029" lon="11.6447223"><ele>430.5</ele><time>2026-04-19T11:37:22.796Z</time></trkpt><trkpt lat="42.987697" lon="11.6448537"><ele>431.0</ele><time>2026-04-19T11:37:23.796Z</time></trkpt><trkpt lat="42.9877849" lon="11.6449692"><ele>431.5</ele><time>2026-04-19T11:37:24.797Z</time></trkpt><trkpt lat="42.9878594" lon="11.6450803"><ele>432.0</ele><time>2026-04-19T11:37:25.796Z</time></trkpt><trkpt lat="42.9879208" lon="11.6451824"><ele>432.0</ele><time>2026-04-19T11:37:26.796Z</time></trkpt><trkpt lat="42.9879749" lon="11.6452883"><ele>432.00000000000006</ele><time>2026-04-19T11:37:27.797Z</time></trkpt><trkpt lat="42.9880216" lon="11.6454021"><ele>432.00000000000006</ele><time>2026-04-19T11:37:28.797Z</time></trkpt><trkpt lat="42.9880599" lon="11.6455239"><ele>432.0</ele><time>2026-04-19T11:37:29.796Z</time></trkpt><trkpt lat="42.9880883" lon="11.6456579"><ele>432.0</ele><time>2026-04-19T11:37:30.797Z</time></trkpt><trkpt lat="42.9881109" lon="11.6458022"><ele>432.8</ele><time>2026-04-19T11:37:31.797Z</time></trkpt><trkpt lat="42.9881236" lon="11.6459477"><ele>433.6</ele><time>2026-04-19T11:37:32.796Z</time></trkpt><trkpt lat="42.9881432" lon="11.6460984"><ele>434.40000000000003</ele><time>2026-04-19T11:37:33.796Z</time></trkpt><trkpt lat="42.9881671" lon="11.6462479"><ele>435.20000000000005</ele><time>2026-04-19T11:37:34.795Z</time></trkpt><trkpt lat="42.9882098" lon="11.6463827"><ele>436.0</ele><time>2026-04-19T11:37:35.797Z</time></trkpt><trkpt lat="42.9882643" lon="11.6465076"><ele>436.0</ele><time>2026-04-19T11:37:36.796Z</time></trkpt><trkpt lat="42.9883197" lon="11.6466186"><ele>436.0</ele><time>2026-04-19T11:37:37.795Z</time></trkpt><trkpt lat="42.9883793" lon="11.646727"><ele>436.0</ele><time>2026-04-19T11:37:38.796Z</time></trkpt><trkpt lat="42.9884301" lon="11.6468422"><ele>436.0</ele><time>2026-04-19T11:37:39.795Z</time></trkpt><trkpt lat="42.9884781" lon="11.6469632"><ele>436.0</ele><time>2026-04-19T11:37:40.797Z</time></trkpt><trkpt lat="42.9885205" lon="11.6470885"><ele>433.25</ele><time>2026-04-19T11:37:41.796Z</time></trkpt><trkpt lat="42.9885607" lon="11.647216"><ele>430.5</ele><time>2026-04-19T11:37:42.797Z</time></trkpt><trkpt lat="42.9886019" lon="11.6473558"><ele>427.75</ele><time>2026-04-19T11:37:43.797Z</time></trkpt><trkpt lat="42.988645" lon="11.6474956"><ele>425.0</ele><time>2026-04-19T11:37:44.797Z</time></trkpt><trkpt lat="42.988702" lon="11.6476732"><ele>425.5</ele><time>2026-04-19T11:37:45.796Z</time></trkpt><trkpt lat="42.9887492" lon="11.6478351"><ele>426.0</ele><time>2026-04-19T11:37:46.796Z</time></trkpt><trkpt lat="42.9887895" lon="11.6479948"><ele>426.5</ele><time>2026-04-19T11:37:47.795Z</time></trkpt><trkpt lat="42.9888257" lon="11.6481488"><ele>427.0</ele><time>2026-04-19T11:37:48.796Z</time></trkpt><trkpt lat="42.9888576" lon="11.6483029"><ele>427.0</ele><time>2026-04-19T11:37:49.797Z</time></trkpt><trkpt lat="42.9888733" lon="11.6484582"><ele>427.0</ele><time>2026-04-19T11:37:50.797Z</time></trkpt><trkpt lat="42.9888907" lon="11.6486144"><ele>427.0</ele><time>2026-04-19T11:37:51.797Z</time></trkpt><trkpt lat="42.9888999" lon="11.648789"><ele>427.0</ele><time>2026-04-19T11:37:52.796Z</time></trkpt><trkpt lat="42.9888982" lon="11.6489747"><ele>427.33333333333337</ele><time>2026-04-19T11:37:53.797Z</time></trkpt><trkpt lat="42.9888944" lon="11.6491894"><ele>427.66666666666663</ele><time>2026-04-19T11:37:54.797Z</time></trkpt><trkpt lat="42.9888919" lon="11.649403"><ele>428.0</ele><time>2026-04-19T11:37:55.796Z</time></trkpt><trkpt lat="42.9888899" lon="11.6496226"><ele>427.75</ele><time>2026-04-19T11:37:56.797Z</time></trkpt><trkpt lat="42.9888875" lon="11.6498325"><ele>427.5</ele><time>2026-04-19T11:37:57.795Z</time></trkpt><trkpt lat="42.9888843" lon="11.6500341"><ele>427.25</ele><time>2026-04-19T11:37:58.796Z</time></trkpt><trkpt lat="42.9888808" lon="11.6502245"><ele>427.0</ele><time>2026-04-19T11:37:59.796Z</time></trkpt><trkpt lat="42.9888723" lon="11.6504042"><ele>427.0</ele><time>2026-04-19T11:38:00.796Z</time></trkpt><trkpt lat="42.9888583" lon="11.6505665"><ele>427.0</ele><time>2026-04-19T11:38:01.796Z</time></trkpt><trkpt lat="42.9888357" lon="11.6507264"><ele>427.0</ele><time>2026-04-19T11:38:02.797Z</time></trkpt><trkpt lat="42.9888055" lon="11.6508883"><ele>427.0</ele><time>2026-04-19T11:38:03.796Z</time></trkpt><trkpt lat="42.9887635" lon="11.6510445"><ele>427.5</ele><time>2026-04-19T11:38:04.797Z</time></trkpt><trkpt lat="42.9887166" lon="11.6511975"><ele>428.0</ele><time>2026-04-19T11:38:05.796Z</time></trkpt><trkpt lat="42.9886653" lon="11.6513362"><ele>428.5</ele><time>2026-04-19T11:38:06.796Z</time></trkpt><trkpt lat="42.9886106" lon="11.6514869"><ele>429.0</ele><time>2026-04-19T11:38:07.795Z</time></trkpt><trkpt lat="42.9885615" lon="11.6516555"><ele>429.0</ele><time>2026-04-19T11:38:08.797Z</time></trkpt><trkpt lat="42.9885138" lon="11.6518365"><ele>429.0</ele><time>2026-04-19T11:38:09.796Z</time></trkpt><trkpt lat="42.9884589" lon="11.6520439"><ele>429.0</ele><time>2026-04-19T11:38:10.796Z</time></trkpt><trkpt lat="42.9883964" lon="11.652262"><ele>429.0</ele><time>2026-04-19T11:38:11.796Z</time></trkpt><trkpt lat="42.9883326" lon="11.6524876"><ele>429.0</ele><time>2026-04-19T11:38:12.795Z</time></trkpt><trkpt lat="42.9882714" lon="11.6527153"><ele>429.0</ele><time>2026-04-19T11:38:13.797Z</time></trkpt><trkpt lat="42.9882008" lon="11.6529612"><ele>429.0</ele><time>2026-04-19T11:38:14.797Z</time></trkpt><trkpt lat="42.9881308" lon="11.6532103"><ele>429.0</ele><time>2026-04-19T11:38:15.796Z</time></trkpt><trkpt lat="42.9880632" lon="11.653448"><ele>429.0</ele><time>2026-04-19T11:38:16.796Z</time></trkpt><trkpt lat="42.9879996" lon="11.6536692"><ele>429.0</ele><time>2026-04-19T11:38:17.797Z</time></trkpt><trkpt lat="42.9879379" lon="11.65388"><ele>429.0</ele><time>2026-04-19T11:38:18.796Z</time></trkpt><trkpt lat="42.9878677" lon="11.6541053"><ele>429.0</ele><time>2026-04-19T11:38:19.795Z</time></trkpt><trkpt lat="42.9878008" lon="11.6543335"><ele>428.33333333333337</ele><time>2026-04-19T11:38:20.796Z</time></trkpt><trkpt lat="42.9877358" lon="11.6545476"><ele>427.6666666666667</ele><time>2026-04-19T11:38:21.797Z</time></trkpt><trkpt lat="42.9876764" lon="11.6547507"><ele>427.0</ele><time>2026-04-19T11:38:22.796Z</time></trkpt><trkpt lat="42.9876238" lon="11.6549484"><ele>427.0</ele><time>2026-04-19T11:38:23.796Z</time></trkpt><trkpt lat="42.9875778" lon="11.6551424"><ele>427.0</ele><time>2026-04-19T11:38:24.796Z</time></trkpt><trkpt lat="42.9875431" lon="11.6553269"><ele>427.0</ele><time>2026-04-19T11:38:25.795Z</time></trkpt><trkpt lat="42.9875132" lon="11.6554987"><ele>427.0</ele><time>2026-04-19T11:38:26.796Z</time></trkpt><trkpt lat="42.9874907" lon="11.6556622"><ele>427.40000000000003</ele><time>2026-04-19T11:38:27.796Z</time></trkpt><trkpt lat="42.9874745" lon="11.6558131"><ele>427.80000000000007</ele><time>2026-04-19T11:38:28.796Z</time></trkpt><trkpt lat="42.987468" lon="11.6559513"><ele>428.2</ele><time>2026-04-19T11:38:29.795Z</time></trkpt><trkpt lat="42.9874653" lon="11.6560836"><ele>428.6</ele><time>2026-04-19T11:38:30.797Z</time></trkpt><trkpt lat="42.9874611" lon="11.6562047"><ele>429.0</ele><time>2026-04-19T11:38:31.797Z</time></trkpt><trkpt lat="42.9874603" lon="11.656314"><ele>429.2</ele><time>2026-04-19T11:38:32.797Z</time></trkpt><trkpt lat="42.9874693" lon="11.65642"><ele>429.4</ele><time>2026-04-19T11:38:33.796Z</time></trkpt><trkpt lat="42.9874923" lon="11.6565337"><ele>429.6</ele><time>2026-04-19T11:38:34.796Z</time></trkpt><trkpt lat="42.987534" lon="11.6566573"><ele>429.8</ele><time>2026-04-19T11:38:35.796Z</time></trkpt><trkpt lat="42.9875876" lon="11.6568013"><ele>430.0</ele><time>2026-04-19T11:38:36.796Z</time></trkpt><trkpt lat="42.9876531" lon="11.6569869"><ele>430.0</ele><time>2026-04-19T11:38:37.797Z</time></trkpt><trkpt lat="42.9877214" lon="11.6571686"><ele>430.0</ele><time>2026-04-19T11:38:38.797Z</time></trkpt><trkpt lat="42.9877965" lon="11.6573619"><ele>430.0</ele><time>2026-04-19T11:38:39.797Z</time></trkpt><trkpt lat="42.9878962" lon="11.6576259"><ele>430.0</ele><time>2026-04-19T11:38:40.797Z</time></trkpt><trkpt lat="42.9879835" lon="11.6578437"><ele>430.0</ele><time>2026-04-19T11:38:41.797Z</time></trkpt><trkpt lat="42.9880628" lon="11.6580487"><ele>430.0</ele><time>2026-04-19T11:38:42.797Z</time></trkpt><trkpt lat="42.9881372" lon="11.6582492"><ele>430.0</ele><time>2026-04-19T11:38:43.796Z</time></trkpt><trkpt lat="42.9882111" lon="11.6584408"><ele>430.0</ele><time>2026-04-19T11:38:44.797Z</time></trkpt><trkpt lat="42.9882796" lon="11.658624"><ele>430.0</ele><time>2026-04-19T11:38:45.797Z</time></trkpt><trkpt lat="42.9883491" lon="11.6587892"><ele>430.0</ele><time>2026-04-19T11:38:46.796Z</time></trkpt><trkpt lat="42.9884137" lon="11.658944"><ele>430.0</ele><time>2026-04-19T11:38:47.797Z</time></trkpt><trkpt lat="42.9884829" lon="11.6590967"><ele>430.0</ele><time>2026-04-19T11:38:48.796Z</time></trkpt><trkpt lat="42.9885532" lon="11.6592549"><ele>430.0</ele><time>2026-04-19T11:38:49.797Z</time></trkpt><trkpt lat="42.988635" lon="11.6594093"><ele>430.0</ele><time>2026-04-19T11:38:50.797Z</time></trkpt><trkpt lat="42.9887124" lon="11.6595627"><ele>429.75</ele><time>2026-04-19T11:38:51.797Z</time></trkpt><trkpt lat="42.9887861" lon="11.6597088"><ele>429.5</ele><time>2026-04-19T11:38:52.795Z</time></trkpt><trkpt lat="42.9888482" lon="11.6598503"><ele>429.25</ele><time>2026-04-19T11:38:53.796Z</time></trkpt><trkpt lat="42.9889014" lon="11.6599927"><ele>429.0</ele><time>2026-04-19T11:38:54.796Z</time></trkpt><trkpt lat="42.9889452" lon="11.6601395"><ele>427.75</ele><time>2026-04-19T11:38:55.797Z</time></trkpt><trkpt lat="42.9889956" lon="11.6602931"><ele>426.5</ele><time>2026-04-19T11:38:56.797Z</time></trkpt><trkpt lat="42.9890338" lon="11.6604632"><ele>425.25</ele><time>2026-04-19T11:38:57.795Z</time></trkpt><trkpt lat="42.9890761" lon="11.6606548"><ele>424.0</ele><time>2026-04-19T11:38:58.796Z</time></trkpt><trkpt lat="42.9891177" lon="11.6608603"><ele>424.0</ele><time>2026-04-19T11:38:59.795Z</time></trkpt><trkpt lat="42.9891553" lon="11.661064"><ele>424.0</ele><time>2026-04-19T11:39:00.796Z</time></trkpt><trkpt lat="42.9891951" lon="11.6612625"><ele>424.0</ele><time>2026-04-19T11:39:01.796Z</time></trkpt><trkpt lat="42.9892263" lon="11.6614699"><ele>421.6666666666667</ele><time>2026-04-19T11:39:02.795Z</time></trkpt><trkpt lat="42.9892606" lon="11.6616858"><ele>419.33333333333337</ele><time>2026-04-19T11:39:03.795Z</time></trkpt><trkpt lat="42.9892919" lon="11.6619"><ele>417.0</ele><time>2026-04-19T11:39:04.796Z</time></trkpt><trkpt lat="42.9893255" lon="11.6621211"><ele>417.0</ele><time>2026-04-19T11:39:05.797Z</time></trkpt><trkpt lat="42.9893561" lon="11.6623324"><ele>417.0</ele><time>2026-04-19T11:39:06.797Z</time></trkpt><trkpt lat="42.9893808" lon="11.6625345"><ele>417.0</ele><time>2026-04-19T11:39:07.796Z</time></trkpt><trkpt lat="42.989399" lon="11.6627371"><ele>416.75</ele><time>2026-04-19T11:39:08.796Z</time></trkpt><trkpt lat="42.9894178" lon="11.6629479"><ele>416.5</ele><time>2026-04-19T11:39:09.795Z</time></trkpt><trkpt lat="42.9894361" lon="11.6631482"><ele>416.25</ele><time>2026-04-19T11:39:10.797Z</time></trkpt><trkpt lat="42.9894532" lon="11.6633406"><ele>416.0</ele><time>2026-04-19T11:39:11.796Z</time></trkpt><trkpt lat="42.9894751" lon="11.6635227"><ele>416.75</ele><time>2026-04-19T11:39:12.797Z</time></trkpt><trkpt lat="42.9894979" lon="11.6636893"><ele>417.5</ele><time>2026-04-19T11:39:13.797Z</time></trkpt><trkpt lat="42.98952" lon="11.6638449"><ele>418.25</ele><time>2026-04-19T11:39:14.797Z</time></trkpt><trkpt lat="42.9895513" lon="11.6639873"><ele>419.0</ele><time>2026-04-19T11:39:15.796Z</time></trkpt><trkpt lat="42.9895936" lon="11.6641252"><ele>419.0</ele><time>2026-04-19T11:39:16.796Z</time></trkpt><trkpt lat="42.9896412" lon="11.6642624"><ele>419.0</ele><time>2026-04-19T11:39:17.796Z</time></trkpt><trkpt lat="42.9896992" lon="11.664408"><ele>419.0</ele><time>2026-04-19T11:39:18.797Z</time></trkpt><trkpt lat="42.9897662" lon="11.6645586"><ele>419.0</ele><time>2026-04-19T11:39:19.796Z</time></trkpt><trkpt lat="42.9898336" lon="11.6647138"><ele>419.25</ele><time>2026-04-19T11:39:20.796Z</time></trkpt><trkpt lat="42.9898997" lon="11.6648645"><ele>419.5</ele><time>2026-04-19T11:39:21.795Z</time></trkpt><trkpt lat="42.9899645" lon="11.6650106"><ele>419.75</ele><time>2026-04-19T11:39:22.796Z</time></trkpt><trkpt lat="42.9900277" lon="11.6651554"><ele>420.0</ele><time>2026-04-19T11:39:23.797Z</time></trkpt><trkpt lat="42.990087" lon="11.6652884"><ele>418.4</ele><time>2026-04-19T11:39:24.797Z</time></trkpt><trkpt lat="42.9901369" lon="11.6654228"><ele>416.8</ele><time>2026-04-19T11:39:25.796Z</time></trkpt><trkpt lat="42.9901724" lon="11.6655586"><ele>415.20000000000005</ele><time>2026-04-19T11:39:26.796Z</time></trkpt><trkpt lat="42.9901893" lon="11.665703"><ele>413.6</ele><time>2026-04-19T11:39:27.796Z</time></trkpt><trkpt lat="42.9901923" lon="11.6658342"><ele>412.0</ele><time>2026-04-19T11:39:28.796Z</time></trkpt><trkpt lat="42.9901926" lon="11.6659576"><ele>412.00000000000006</ele><time>2026-04-19T11:39:29.797Z</time></trkpt><trkpt lat="42.9901939" lon="11.6660718"><ele>412.0</ele><time>2026-04-19T11:39:30.796Z</time></trkpt><trkpt lat="42.9902182" lon="11.6661705"><ele>412.0</ele><time>2026-04-19T11:39:31.797Z</time></trkpt><trkpt lat="42.9902383" lon="11.6662727"><ele>412.0</ele><time>2026-04-19T11:39:32.797Z</time></trkpt><trkpt lat="42.9903079" lon="11.6663337"><ele>412.00000000000006</ele><time>2026-04-19T11:39:33.796Z</time></trkpt><trkpt lat="42.9903683" lon="11.6664063"><ele>412.0</ele><time>2026-04-19T11:39:34.797Z</time></trkpt><trkpt lat="42.9904346" lon="11.666479"><ele>412.33333333333337</ele><time>2026-04-19T11:39:35.796Z</time></trkpt><trkpt lat="42.9904956" lon="11.6665439"><ele>412.6666666666667</ele><time>2026-04-19T11:39:36.795Z</time></trkpt><trkpt lat="42.9905548" lon="11.6666107"><ele>413.0</ele><time>2026-04-19T11:39:37.796Z</time></trkpt><trkpt lat="42.990613" lon="11.6666808"><ele>413.33333333333337</ele><time>2026-04-19T11:39:38.796Z</time></trkpt><trkpt lat="42.9906646" lon="11.6667546"><ele>413.6666666666667</ele><time>2026-04-19T11:39:39.796Z</time></trkpt><trkpt lat="42.9907054" lon="11.6668388"><ele>414.0</ele><time>2026-04-19T11:39:40.796Z</time></trkpt><trkpt lat="42.9907389" lon="11.6669317"><ele>413.1666666666667</ele><time>2026-04-19T11:39:41.797Z</time></trkpt><trkpt lat="42.9907652" lon="11.6670268"><ele>412.33333333333337</ele><time>2026-04-19T11:39:42.796Z</time></trkpt><trkpt lat="42.9907833" lon="11.6671279"><ele>411.5</ele><time>2026-04-19T11:39:43.796Z</time></trkpt><trkpt lat="42.9907963" lon="11.6672317"><ele>410.6666666666667</ele><time>2026-04-19T11:39:44.795Z</time></trkpt><trkpt lat="42.9908129" lon="11.6673359"><ele>409.83333333333337</ele><time>2026-04-19T11:39:45.797Z</time></trkpt><trkpt lat="42.9908379" lon="11.6674329"><ele>409.0</ele><time>2026-04-19T11:39:46.797Z</time></trkpt><trkpt lat="42.9908713" lon="11.6675295"><ele>407.1666666666667</ele><time>2026-04-19T11:39:47.796Z</time></trkpt><trkpt lat="42.9909144" lon="11.6676162"><ele>405.33333333333337</ele><time>2026-04-19T11:39:48.797Z</time></trkpt><trkpt lat="42.9909675" lon="11.6676879"><ele>403.5</ele><time>2026-04-19T11:39:49.796Z</time></trkpt><trkpt lat="42.9910323" lon="11.6677361"><ele>401.66666666666663</ele><time>2026-04-19T11:39:50.796Z</time></trkpt><trkpt lat="42.9911093" lon="11.6677699"><ele>399.8333333333333</ele><time>2026-04-19T11:39:51.797Z</time></trkpt><trkpt lat="42.9911992" lon="11.6677947"><ele>398.0</ele><time>2026-04-19T11:39:52.797Z</time></trkpt><trkpt lat="42.9912993" lon="11.667818"><ele>397.79999999999995</ele><time>2026-04-19T11:39:53.796Z</time></trkpt><trkpt lat="42.9914051" lon="11.6678458"><ele>397.6</ele><time>2026-04-19T11:39:54.796Z</time></trkpt><trkpt lat="42.9915132" lon="11.6678799"><ele>397.4</ele><time>2026-04-19T11:39:55.796Z</time></trkpt><trkpt lat="42.9916218" lon="11.6679202"><ele>397.20000000000005</ele><time>2026-04-19T11:39:56.796Z</time></trkpt><trkpt lat="42.9917282" lon="11.6679696"><ele>397.0</ele><time>2026-04-19T11:39:57.796Z</time></trkpt><trkpt lat="42.9918389" lon="11.6680307"><ele>394.6666666666667</ele><time>2026-04-19T11:39:58.795Z</time></trkpt><trkpt lat="42.991972" lon="11.6681054"><ele>392.33333333333337</ele><time>2026-04-19T11:39:59.796Z</time></trkpt><trkpt lat="42.9921196" lon="11.6681916"><ele>390.0</ele><time>2026-04-19T11:40:00.796Z</time></trkpt><trkpt lat="42.9922833" lon="11.6682873"><ele>390.0</ele><time>2026-04-19T11:40:01.797Z</time></trkpt><trkpt lat="42.992444" lon="11.6683806"><ele>390.0</ele><time>2026-04-19T11:40:02.796Z</time></trkpt><trkpt lat="42.9925999" lon="11.6684728"><ele>390.0</ele><time>2026-04-19T11:40:03.797Z</time></trkpt><trkpt lat="42.9927528" lon="11.6685581"><ele>389.0</ele><time>2026-04-19T11:40:04.795Z</time></trkpt><trkpt lat="42.992898" lon="11.6686395"><ele>388.0</ele><time>2026-04-19T11:40:05.797Z</time></trkpt><trkpt lat="42.9930389" lon="11.6687171"><ele>387.0</ele><time>2026-04-19T11:40:06.797Z</time></trkpt><trkpt lat="42.9931768" lon="11.6687919"><ele>387.0</ele><time>2026-04-19T11:40:07.796Z</time></trkpt><trkpt lat="42.9933066" lon="11.6688638"><ele>387.0</ele><time>2026-04-19T11:40:08.796Z</time></trkpt><trkpt lat="42.993425" lon="11.6689311"><ele>387.0</ele><time>2026-04-19T11:40:09.797Z</time></trkpt><trkpt lat="42.9935406" lon="11.669"><ele>387.0</ele><time>2026-04-19T11:40:10.796Z</time></trkpt><trkpt lat="42.993648" lon="11.6690804"><ele>388.25</ele><time>2026-04-19T11:40:11.795Z</time></trkpt><trkpt lat="42.9937542" lon="11.6691573"><ele>389.5</ele><time>2026-04-19T11:40:12.796Z</time></trkpt><trkpt lat="42.9938374" lon="11.6692641"><ele>390.75</ele><time>2026-04-19T11:40:13.795Z</time></trkpt><trkpt lat="42.9939279" lon="11.6693836"><ele>392.0</ele><time>2026-04-19T11:40:14.796Z</time></trkpt><trkpt lat="42.9940165" lon="11.6695108"><ele>392.0</ele><time>2026-04-19T11:40:15.795Z</time></trkpt><trkpt lat="42.9941126" lon="11.6696381"><ele>392.0</ele><time>2026-04-19T11:40:16.796Z</time></trkpt><trkpt lat="42.9941998" lon="11.6697663"><ele>392.0</ele><time>2026-04-19T11:40:17.796Z</time></trkpt><trkpt lat="42.9942947" lon="11.6698963"><ele>392.0</ele><time>2026-04-19T11:40:18.796Z</time></trkpt><trkpt lat="42.9943894" lon="11.6700291"><ele>392.0</ele><time>2026-04-19T11:40:19.795Z</time></trkpt><trkpt lat="42.9944975" lon="11.6701656"><ele>392.0</ele><time>2026-04-19T11:40:20.795Z</time></trkpt><trkpt lat="42.9946172" lon="11.6703129"><ele>392.0</ele><time>2026-04-19T11:40:21.795Z</time></trkpt><trkpt lat="42.9947286" lon="11.6704572"><ele>392.5</ele><time>2026-04-19T11:40:22.796Z</time></trkpt><trkpt lat="42.9948352" lon="11.6705816"><ele>393.0</ele><time>2026-04-19T11:40:23.796Z</time></trkpt><trkpt lat="42.9949279" lon="11.6707041"><ele>393.5</ele><time>2026-04-19T11:40:24.796Z</time></trkpt><trkpt lat="42.9950068" lon="11.670817"><ele>394.0</ele><time>2026-04-19T11:40:25.795Z</time></trkpt><trkpt lat="42.9950719" lon="11.670937"><ele>392.25</ele><time>2026-04-19T11:40:26.795Z</time></trkpt><trkpt lat="42.9951257" lon="11.6710707"><ele>390.5</ele><time>2026-04-19T11:40:27.795Z</time></trkpt><trkpt lat="42.9951627" lon="11.6712311"><ele>388.75</ele><time>2026-04-19T11:40:28.795Z</time></trkpt><trkpt lat="42.9951978" lon="11.6714188"><ele>387.0</ele><time>2026-04-19T11:40:29.796Z</time></trkpt><trkpt lat="42.9952281" lon="11.6716266"><ele>387.0</ele><time>2026-04-19T11:40:30.795Z</time></trkpt><trkpt lat="42.99526" lon="11.6718435"><ele>387.0</ele><time>2026-04-19T11:40:31.794Z</time></trkpt><trkpt lat="42.9952913" lon="11.6720478"><ele>387.0</ele><time>2026-04-19T11:40:32.795Z</time></trkpt><trkpt lat="42.9953181" lon="11.6722417"><ele>387.0</ele><time>2026-04-19T11:40:33.795Z</time></trkpt><trkpt lat="42.9953396" lon="11.6724255"><ele>387.0</ele><time>2026-04-19T11:40:34.796Z</time></trkpt><trkpt lat="42.9953609" lon="11.6725998"><ele>387.0</ele><time>2026-04-19T11:40:35.795Z</time></trkpt><trkpt lat="42.9953872" lon="11.6727702"><ele>387.0</ele><time>2026-04-19T11:40:36.794Z</time></trkpt><trkpt lat="42.9954233" lon="11.6729498"><ele>387.0</ele><time>2026-04-19T11:40:37.795Z</time></trkpt><trkpt lat="42.9954647" lon="11.6731336"><ele>387.0</ele><time>2026-04-19T11:40:38.795Z</time></trkpt><trkpt lat="42.9955278" lon="11.6733294"><ele>387.0</ele><time>2026-04-19T11:40:39.794Z</time></trkpt><trkpt lat="42.9955947" lon="11.6735232"><ele>387.5</ele><time>2026-04-19T11:40:40.796Z</time></trkpt><trkpt lat="42.9956665" lon="11.6737042"><ele>388.0</ele><time>2026-04-19T11:40:41.795Z</time></trkpt><trkpt lat="42.9957303" lon="11.6738819"><ele>388.5</ele><time>2026-04-19T11:40:42.795Z</time></trkpt><trkpt lat="42.9958021" lon="11.6740569"><ele>389.0</ele><time>2026-04-19T11:40:43.795Z</time></trkpt><trkpt lat="42.9958745" lon="11.6742352"><ele>386.75</ele><time>2026-04-19T11:40:44.795Z</time></trkpt><trkpt lat="42.9959458" lon="11.674411"><ele>384.5</ele><time>2026-04-19T11:40:45.795Z</time></trkpt><trkpt lat="42.9960107" lon="11.6745844"><ele>382.25</ele><time>2026-04-19T11:40:46.795Z</time></trkpt><trkpt lat="42.9960707" lon="11.674748"><ele>380.0</ele><time>2026-04-19T11:40:47.795Z</time></trkpt><trkpt lat="42.9961254" lon="11.674902"><ele>380.0</ele><time>2026-04-19T11:40:48.795Z</time></trkpt><trkpt lat="42.9961776" lon="11.6750472"><ele>380.0</ele><time>2026-04-19T11:40:49.795Z</time></trkpt><trkpt lat="42.9962274" lon="11.6751835"><ele>380.0</ele><time>2026-04-19T11:40:50.796Z</time></trkpt><trkpt lat="42.9962855" lon="11.6753242"><ele>380.0</ele><time>2026-04-19T11:40:51.796Z</time></trkpt><trkpt lat="42.9963384" lon="11.6754698"><ele>380.5</ele><time>2026-04-19T11:40:52.795Z</time></trkpt><trkpt lat="42.9963894" lon="11.6756195"><ele>381.0</ele><time>2026-04-19T11:40:53.796Z</time></trkpt><trkpt lat="42.9964446" lon="11.6757582"><ele>381.5</ele><time>2026-04-19T11:40:54.796Z</time></trkpt><trkpt lat="42.9965021" lon="11.6758924"><ele>382.0</ele><time>2026-04-19T11:40:55.795Z</time></trkpt><trkpt lat="42.9965515" lon="11.6760152"><ele>381.8333333333333</ele><time>2026-04-19T11:40:56.795Z</time></trkpt><trkpt lat="42.9965965" lon="11.676133"><ele>381.66666666666663</ele><time>2026-04-19T11:40:57.795Z</time></trkpt><trkpt lat="42.996639" lon="11.6762463"><ele>381.5</ele><time>2026-04-19T11:40:58.796Z</time></trkpt><trkpt lat="42.9966776" lon="11.6763554"><ele>381.3333333333333</ele><time>2026-04-19T11:40:59.794Z</time></trkpt><trkpt lat="42.9967203" lon="11.6764538"><ele>381.1666666666667</ele><time>2026-04-19T11:41:00.795Z</time></trkpt><trkpt lat="42.9967603" lon="11.6765455"><ele>381.0</ele><time>2026-04-19T11:41:01.796Z</time></trkpt><trkpt lat="42.996797" lon="11.6766361"><ele>379.1666666666667</ele><time>2026-04-19T11:41:02.795Z</time></trkpt><trkpt lat="42.9968317" lon="11.676732"><ele>377.3333333333333</ele><time>2026-04-19T11:41:03.795Z</time></trkpt><trkpt lat="42.9968754" lon="11.6768196"><ele>375.5</ele><time>2026-04-19T11:41:04.796Z</time></trkpt><trkpt lat="42.996922" lon="11.6769064"><ele>373.66666666666663</ele><time>2026-04-19T11:41:05.795Z</time></trkpt><trkpt lat="42.99698" lon="11.6769835"><ele>371.8333333333333</ele><time>2026-04-19T11:41:06.795Z</time></trkpt><trkpt lat="42.9970442" lon="11.6770574"><ele>370.0</ele><time>2026-04-19T11:41:07.795Z</time></trkpt><trkpt lat="42.9971075" lon="11.6771265"><ele>369.8333333333333</ele><time>2026-04-19T11:41:08.796Z</time></trkpt><trkpt lat="42.9971707" lon="11.6771958"><ele>369.66666666666663</ele><time>2026-04-19T11:41:09.796Z</time></trkpt><trkpt lat="42.9972363" lon="11.6772571"><ele>369.5</ele><time>2026-04-19T11:41:10.794Z</time></trkpt><trkpt lat="42.9973059" lon="11.6773002"><ele>369.3333333333333</ele><time>2026-04-19T11:41:11.795Z</time></trkpt><trkpt lat="42.9973808" lon="11.6773293"><ele>369.1666666666667</ele><time>2026-04-19T11:41:12.796Z</time></trkpt><trkpt lat="42.9974551" lon="11.6773413"><ele>369.0</ele><time>2026-04-19T11:41:13.796Z</time></trkpt><trkpt lat="42.9975312" lon="11.6773466"><ele>367.2</ele><time>2026-04-19T11:41:14.796Z</time></trkpt><trkpt lat="42.9976068" lon="11.6773471"><ele>365.4</ele><time>2026-04-19T11:41:15.795Z</time></trkpt><trkpt lat="42.9977574" lon="11.677352"><ele>363.6</ele><time>2026-04-19T11:41:17.795Z</time></trkpt><trkpt lat="42.9978383" lon="11.6773647"><ele>361.8</ele><time>2026-04-19T11:41:18.796Z</time></trkpt><trkpt lat="42.9979169" lon="11.6773888"><ele>360.0</ele><time>2026-04-19T11:41:19.796Z</time></trkpt><trkpt lat="42.9979885" lon="11.677426"><ele>360.0</ele><time>2026-04-19T11:41:20.795Z</time></trkpt><trkpt lat="42.9980581" lon="11.6774719"><ele>360.0</ele><time>2026-04-19T11:41:21.795Z</time></trkpt><trkpt lat="42.9981314" lon="11.6775697"><ele>360.0</ele><time>2026-04-19T11:41:22.795Z</time></trkpt><trkpt lat="42.9982152" lon="11.6776857"><ele>360.0</ele><time>2026-04-19T11:41:23.796Z</time></trkpt><trkpt lat="42.9982929" lon="11.6778005"><ele>360.0</ele><time>2026-04-19T11:41:24.796Z</time></trkpt><trkpt lat="42.9983679" lon="11.6779101"><ele>357.0</ele><time>2026-04-19T11:41:25.795Z</time></trkpt><trkpt lat="42.9984354" lon="11.6780135"><ele>354.0</ele><time>2026-04-19T11:41:26.796Z</time></trkpt><trkpt lat="42.998494" lon="11.6781177"><ele>351.0</ele><time>2026-04-19T11:41:27.795Z</time></trkpt><trkpt lat="42.9985408" lon="11.678227"><ele>348.0</ele><time>2026-04-19T11:41:28.795Z</time></trkpt><trkpt lat="42.9985688" lon="11.6783433"><ele>345.0</ele><time>2026-04-19T11:41:29.795Z</time></trkpt><trkpt lat="42.9985893" lon="11.6784643"><ele>345.0</ele><time>2026-04-19T11:41:30.795Z</time></trkpt><trkpt lat="42.9986007" lon="11.678586"><ele>345.0</ele><time>2026-04-19T11:41:31.796Z</time></trkpt><trkpt lat="42.9985977" lon="11.6787179"><ele>345.0</ele><time>2026-04-19T11:41:32.796Z</time></trkpt><trkpt lat="42.9986069" lon="11.6788851"><ele>345.0</ele><time>2026-04-19T11:41:33.796Z</time></trkpt><trkpt lat="42.9986229" lon="11.6790649"><ele>345.0</ele><time>2026-04-19T11:41:34.795Z</time></trkpt><trkpt lat="42.9986335" lon="11.6792423"><ele>344.25</ele><time>2026-04-19T11:41:35.795Z</time></trkpt><trkpt lat="42.9986481" lon="11.6794206"><ele>343.5</ele><time>2026-04-19T11:41:36.795Z</time></trkpt><trkpt lat="42.9986629" lon="11.6795972"><ele>342.75</ele><time>2026-04-19T11:41:37.794Z</time></trkpt><trkpt lat="42.9986752" lon="11.6797717"><ele>342.0</ele><time>2026-04-19T11:41:38.795Z</time></trkpt><trkpt lat="42.9986848" lon="11.6799405"><ele>341.0</ele><time>2026-04-19T11:41:39.796Z</time></trkpt><trkpt lat="42.998699" lon="11.6800934"><ele>340.0</ele><time>2026-04-19T11:41:40.795Z</time></trkpt><trkpt lat="42.9987139" lon="11.6802366"><ele>339.0</ele><time>2026-04-19T11:41:41.796Z</time></trkpt><trkpt lat="42.9987239" lon="11.6803729"><ele>338.0</ele><time>2026-04-19T11:41:42.796Z</time></trkpt><trkpt lat="42.9987381" lon="11.6804977"><ele>337.0</ele><time>2026-04-19T11:41:43.796Z</time></trkpt><trkpt lat="42.9987579" lon="11.6806149"><ele>336.5</ele><time>2026-04-19T11:41:44.796Z</time></trkpt><trkpt lat="42.9987902" lon="11.6807212"><ele>336.0</ele><time>2026-04-19T11:41:45.796Z</time></trkpt><trkpt lat="42.9988326" lon="11.6808247"><ele>335.5</ele><time>2026-04-19T11:41:46.796Z</time></trkpt><trkpt lat="42.9988877" lon="11.6809148"><ele>335.0</ele><time>2026-04-19T11:41:47.795Z</time></trkpt><trkpt lat="42.9989486" lon="11.6809997"><ele>334.5</ele><time>2026-04-19T11:41:48.796Z</time></trkpt><trkpt lat="42.9990159" lon="11.6810782"><ele>334.0</ele><time>2026-04-19T11:41:49.796Z</time></trkpt><trkpt lat="42.9990805" lon="11.6811614"><ele>333.6</ele><time>2026-04-19T11:41:50.796Z</time></trkpt><trkpt lat="42.9991531" lon="11.6812521"><ele>333.2</ele><time>2026-04-19T11:41:51.796Z</time></trkpt><trkpt lat="42.9992223" lon="11.6813485"><ele>332.8</ele><time>2026-04-19T11:41:52.795Z</time></trkpt><trkpt lat="42.9992924" lon="11.6814435"><ele>332.40000000000003</ele><time>2026-04-19T11:41:53.796Z</time></trkpt><trkpt lat="42.9993561" lon="11.6815398"><ele>332.0</ele><time>2026-04-19T11:41:54.795Z</time></trkpt><trkpt lat="42.9994173" lon="11.6816415"><ele>330.20000000000005</ele><time>2026-04-19T11:41:55.796Z</time></trkpt><trkpt lat="42.9994654" lon="11.6817525"><ele>328.4</ele><time>2026-04-19T11:41:56.796Z</time></trkpt><trkpt lat="42.9995048" lon="11.6818614"><ele>326.6</ele><time>2026-04-19T11:41:57.796Z</time></trkpt><trkpt lat="42.9995366" lon="11.6819718"><ele>324.79999999999995</ele><time>2026-04-19T11:41:58.795Z</time></trkpt><trkpt lat="42.999563" lon="11.6820884"><ele>323.0</ele><time>2026-04-19T11:41:59.794Z</time></trkpt><trkpt lat="42.9995889" lon="11.682224"><ele>322.79999999999995</ele><time>2026-04-19T11:42:00.795Z</time></trkpt><trkpt lat="42.9996051" lon="11.6823677"><ele>322.6</ele><time>2026-04-19T11:42:01.796Z</time></trkpt><trkpt lat="42.9996209" lon="11.6825102"><ele>322.4</ele><time>2026-04-19T11:42:02.795Z</time></trkpt><trkpt lat="42.9996352" lon="11.6826538"><ele>322.20000000000005</ele><time>2026-04-19T11:42:03.796Z</time></trkpt><trkpt lat="42.9996526" lon="11.6827825"><ele>322.0</ele><time>2026-04-19T11:42:04.796Z</time></trkpt><trkpt lat="42.9996686" lon="11.6828933"><ele>321.8333333333333</ele><time>2026-04-19T11:42:05.795Z</time></trkpt><trkpt lat="42.9996827" lon="11.6829954"><ele>321.66666666666663</ele><time>2026-04-19T11:42:06.795Z</time></trkpt><trkpt lat="42.9996956" lon="11.683157"><ele>321.5</ele><time>2026-04-19T11:42:08.795Z</time></trkpt><trkpt lat="42.9997017" lon="11.6832443"><ele>321.3333333333333</ele><time>2026-04-19T11:42:09.796Z</time></trkpt><trkpt lat="42.9997147" lon="11.6833319"><ele>321.1666666666667</ele><time>2026-04-19T11:42:10.795Z</time></trkpt><trkpt lat="42.9997283" lon="11.6834667"><ele>321.0</ele><time>2026-04-19T11:42:12.794Z</time></trkpt><trkpt lat="42.9996995" lon="11.6835728"><ele>319.8</ele><time>2026-04-19T11:42:15.796Z</time></trkpt><trkpt lat="42.9995937" lon="11.6836224"><ele>318.6</ele><time>2026-04-19T11:42:17.796Z</time></trkpt><trkpt lat="42.9995244" lon="11.6836294"><ele>317.4</ele><time>2026-04-19T11:42:18.795Z</time></trkpt><trkpt lat="42.9993993" lon="11.6836325"><ele>316.2</ele><time>2026-04-19T11:42:19.795Z</time></trkpt><trkpt lat="42.9992642" lon="11.6836212"><ele>315.0</ele><time>2026-04-19T11:42:20.795Z</time></trkpt><trkpt lat="42.999111" lon="11.6836131"><ele>314.3333333333333</ele><time>2026-04-19T11:42:21.795Z</time></trkpt><trkpt lat="42.998944" lon="11.6836078"><ele>313.66666666666663</ele><time>2026-04-19T11:42:22.796Z</time></trkpt><trkpt lat="42.9987712" lon="11.6836083"><ele>313.0</ele><time>2026-04-19T11:42:23.796Z</time></trkpt><trkpt lat="42.9985803" lon="11.683611"><ele>313.0</ele><time>2026-04-19T11:42:24.795Z</time></trkpt><trkpt lat="42.9983762" lon="11.6836046"><ele>313.0</ele><time>2026-04-19T11:42:25.795Z</time></trkpt><trkpt lat="42.9981505" lon="11.6835998"><ele>313.0</ele><time>2026-04-19T11:42:26.795Z</time></trkpt><trkpt lat="42.9979222" lon="11.6835809"><ele>311.5</ele><time>2026-04-19T11:42:27.795Z</time></trkpt><trkpt lat="42.9976879" lon="11.6835571"><ele>310.0</ele><time>2026-04-19T11:42:28.795Z</time></trkpt><trkpt lat="42.9974638" lon="11.6835314"><ele>310.0</ele><time>2026-04-19T11:42:29.796Z</time></trkpt><trkpt lat="42.9972459" lon="11.6835108"><ele>310.0</ele><time>2026-04-19T11:42:30.795Z</time></trkpt><trkpt lat="42.9970404" lon="11.6835226"><ele>310.0</ele><time>2026-04-19T11:42:31.795Z</time></trkpt><trkpt lat="42.9968485" lon="11.6835619"><ele>309.25</ele><time>2026-04-19T11:42:32.795Z</time></trkpt><trkpt lat="42.9967013" lon="11.6836416"><ele>308.5</ele><time>2026-04-19T11:42:33.795Z</time></trkpt><trkpt lat="42.9965906" lon="11.6837697"><ele>307.75</ele><time>2026-04-19T11:42:34.795Z</time></trkpt><trkpt lat="42.9965156" lon="11.6839379"><ele>307.0</ele><time>2026-04-19T11:42:35.794Z</time></trkpt><trkpt lat="42.9964409" lon="11.6841143"><ele>307.0</ele><time>2026-04-19T11:42:36.796Z</time></trkpt><trkpt lat="42.9963366" lon="11.6842803"><ele>307.0</ele><time>2026-04-19T11:42:37.795Z</time></trkpt><trkpt lat="42.9962036" lon="11.6844318"><ele>307.0</ele><time>2026-04-19T11:42:38.795Z</time></trkpt><trkpt lat="42.9960488" lon="11.6845728"><ele>306.3333333333333</ele><time>2026-04-19T11:42:39.796Z</time></trkpt><trkpt lat="42.9958672" lon="11.6847155"><ele>305.6666666666667</ele><time>2026-04-19T11:42:40.795Z</time></trkpt><trkpt lat="42.9956721" lon="11.6848694"><ele>305.0</ele><time>2026-04-19T11:42:41.796Z</time></trkpt><trkpt lat="42.9954699" lon="11.6850299"><ele>305.0</ele><time>2026-04-19T11:42:42.796Z</time></trkpt><trkpt lat="42.9952495" lon="11.6851909"><ele>305.0</ele><time>2026-04-19T11:42:43.796Z</time></trkpt><trkpt lat="42.9950386" lon="11.685349"><ele>304.5</ele><time>2026-04-19T11:42:44.795Z</time></trkpt><trkpt lat="42.9948414" lon="11.685503"><ele>304.0</ele><time>2026-04-19T11:42:45.795Z</time></trkpt><trkpt lat="42.9946447" lon="11.6856525"><ele>304.0</ele><time>2026-04-19T11:42:46.796Z</time></trkpt><trkpt lat="42.994449" lon="11.6857977"><ele>304.0</ele><time>2026-04-19T11:42:47.794Z</time></trkpt><trkpt lat="42.9942782" lon="11.6859191"><ele>304.0</ele><time>2026-04-19T11:42:48.795Z</time></trkpt><trkpt lat="42.994106" lon="11.6860538"><ele>304.3333333333333</ele><time>2026-04-19T11:42:49.795Z</time></trkpt><trkpt lat="42.99394" lon="11.6861797"><ele>304.6666666666667</ele><time>2026-04-19T11:42:50.795Z</time></trkpt><trkpt lat="42.9937862" lon="11.6862973"><ele>305.0</ele><time>2026-04-19T11:42:51.796Z</time></trkpt><trkpt lat="42.9936238" lon="11.6864083"><ele>305.0</ele><time>2026-04-19T11:42:52.796Z</time></trkpt><trkpt lat="42.9934614" lon="11.6864921"><ele>305.0</ele><time>2026-04-19T11:42:53.795Z</time></trkpt><trkpt lat="42.9932885" lon="11.6865488"><ele>305.0</ele><time>2026-04-19T11:42:54.795Z</time></trkpt><trkpt lat="42.9930962" lon="11.6865995"><ele>306.0</ele><time>2026-04-19T11:42:55.796Z</time></trkpt><trkpt lat="42.9928901" lon="11.6866488"><ele>307.0</ele><time>2026-04-19T11:42:56.796Z</time></trkpt><trkpt lat="42.9926663" lon="11.6867049"><ele>308.0</ele><time>2026-04-19T11:42:57.796Z</time></trkpt><trkpt lat="42.992433" lon="11.6867639"><ele>309.5</ele><time>2026-04-19T11:42:58.795Z</time></trkpt><trkpt lat="42.9921939" lon="11.6868259"><ele>311.0</ele><time>2026-04-19T11:42:59.795Z</time></trkpt><trkpt lat="42.9919694" lon="11.686884"><ele>309.6666666666667</ele><time>2026-04-19T11:43:00.795Z</time></trkpt><trkpt lat="42.9917482" lon="11.6869384"><ele>308.3333333333333</ele><time>2026-04-19T11:43:01.794Z</time></trkpt><trkpt lat="42.991547" lon="11.6869847"><ele>307.0</ele><time>2026-04-19T11:43:02.796Z</time></trkpt><trkpt lat="42.9913609" lon="11.6870315"><ele>306.66666666666663</ele><time>2026-04-19T11:43:03.795Z</time></trkpt><trkpt lat="42.9911938" lon="11.687077"><ele>306.3333333333333</ele><time>2026-04-19T11:43:04.796Z</time></trkpt><trkpt lat="42.991052" lon="11.6871369"><ele>306.0</ele><time>2026-04-19T11:43:05.795Z</time></trkpt><trkpt lat="42.9909294" lon="11.6872278"><ele>306.25</ele><time>2026-04-19T11:43:06.795Z</time></trkpt><trkpt lat="42.9908253" lon="11.687361"><ele>306.5</ele><time>2026-04-19T11:43:07.795Z</time></trkpt><trkpt lat="42.9907496" lon="11.6875247"><ele>306.75</ele><time>2026-04-19T11:43:08.796Z</time></trkpt><trkpt lat="42.9907125" lon="11.6877123"><ele>307.0</ele><time>2026-04-19T11:43:09.795Z</time></trkpt><trkpt lat="42.9906921" lon="11.6879228"><ele>307.0</ele><time>2026-04-19T11:43:10.795Z</time></trkpt><trkpt lat="42.9906827" lon="11.6881468"><ele>307.0</ele><time>2026-04-19T11:43:11.796Z</time></trkpt><trkpt lat="42.9906802" lon="11.688358"><ele>307.0</ele><time>2026-04-19T11:43:12.795Z</time></trkpt><trkpt lat="42.9906706" lon="11.6885608"><ele>307.66666666666663</ele><time>2026-04-19T11:43:13.796Z</time></trkpt><trkpt lat="42.9906349" lon="11.6887493"><ele>308.3333333333333</ele><time>2026-04-19T11:43:14.796Z</time></trkpt><trkpt lat="42.990558" lon="11.6889342"><ele>309.0</ele><time>2026-04-19T11:43:15.795Z</time></trkpt><trkpt lat="42.9904473" lon="11.6891142"><ele>309.0</ele><time>2026-04-19T11:43:16.795Z</time></trkpt><trkpt lat="42.9903214" lon="11.6892861"><ele>309.0</ele><time>2026-04-19T11:43:17.795Z</time></trkpt><trkpt lat="42.9901686" lon="11.6894965"><ele>309.0</ele><time>2026-04-19T11:43:18.795Z</time></trkpt><trkpt lat="42.990001" lon="11.689724"><ele>309.5</ele><time>2026-04-19T11:43:19.796Z</time></trkpt><trkpt lat="42.9898329" lon="11.689965"><ele>310.0</ele><time>2026-04-19T11:43:20.795Z</time></trkpt><trkpt lat="42.9896561" lon="11.6902233"><ele>312.0</ele><time>2026-04-19T11:43:21.796Z</time></trkpt><trkpt lat="42.9894783" lon="11.6904822"><ele>314.0</ele><time>2026-04-19T11:43:22.796Z</time></trkpt><trkpt lat="42.9893077" lon="11.6907224"><ele>313.6666666666667</ele><time>2026-04-19T11:43:23.794Z</time></trkpt><trkpt lat="42.9891473" lon="11.6909493"><ele>313.3333333333333</ele><time>2026-04-19T11:43:24.796Z</time></trkpt><trkpt lat="42.9889976" lon="11.691165"><ele>313.0</ele><time>2026-04-19T11:43:25.796Z</time></trkpt><trkpt lat="42.9888523" lon="11.6913715"><ele>314.66666666666663</ele><time>2026-04-19T11:43:26.794Z</time></trkpt><trkpt lat="42.9887107" lon="11.6915704"><ele>316.3333333333333</ele><time>2026-04-19T11:43:27.796Z</time></trkpt><trkpt lat="42.988578" lon="11.6917546"><ele>318.0</ele><time>2026-04-19T11:43:28.795Z</time></trkpt><trkpt lat="42.9884553" lon="11.6919314"><ele>317.6666666666667</ele><time>2026-04-19T11:43:29.794Z</time></trkpt><trkpt lat="42.9883349" lon="11.692103"><ele>317.33333333333337</ele><time>2026-04-19T11:43:30.795Z</time></trkpt><trkpt lat="42.9882248" lon="11.6922646"><ele>317.0</ele><time>2026-04-19T11:43:31.796Z</time></trkpt><trkpt lat="42.9881195" lon="11.692419"><ele>317.0</ele><time>2026-04-19T11:43:32.795Z</time></trkpt><trkpt lat="42.988022" lon="11.6925629"><ele>317.0</ele><time>2026-04-19T11:43:33.796Z</time></trkpt><trkpt lat="42.9879219" lon="11.6927045"><ele>317.0</ele><time>2026-04-19T11:43:34.795Z</time></trkpt><trkpt lat="42.9878172" lon="11.6928527"><ele>317.0</ele><time>2026-04-19T11:43:35.794Z</time></trkpt><trkpt lat="42.9877049" lon="11.6930065"><ele>317.33333333333337</ele><time>2026-04-19T11:43:36.796Z</time></trkpt><trkpt lat="42.9875865" lon="11.6931768"><ele>317.6666666666667</ele><time>2026-04-19T11:43:37.796Z</time></trkpt><trkpt lat="42.9874613" lon="11.6933513"><ele>318.0</ele><time>2026-04-19T11:43:38.795Z</time></trkpt><trkpt lat="42.9873267" lon="11.6935362"><ele>320.0</ele><time>2026-04-19T11:43:39.794Z</time></trkpt><trkpt lat="42.9871853" lon="11.6937347"><ele>322.0</ele><time>2026-04-19T11:43:40.795Z</time></trkpt><trkpt lat="42.9870345" lon="11.6939467"><ele>324.0</ele><time>2026-04-19T11:43:41.794Z</time></trkpt><trkpt lat="42.9868749" lon="11.6941696"><ele>324.0</ele><time>2026-04-19T11:43:42.795Z</time></trkpt><trkpt lat="42.9867113" lon="11.6943989"><ele>324.0</ele><time>2026-04-19T11:43:43.795Z</time></trkpt><trkpt lat="42.9865524" lon="11.6946208"><ele>323.3333333333333</ele><time>2026-04-19T11:43:44.795Z</time></trkpt><trkpt lat="42.9864041" lon="11.6948307"><ele>322.66666666666663</ele><time>2026-04-19T11:43:45.793Z</time></trkpt><trkpt lat="42.9862598" lon="11.6950291"><ele>322.0</ele><time>2026-04-19T11:43:46.794Z</time></trkpt><trkpt lat="42.9861156" lon="11.6952297"><ele>322.3333333333333</ele><time>2026-04-19T11:43:47.794Z</time></trkpt><trkpt lat="42.9859632" lon="11.6954392"><ele>322.6666666666667</ele><time>2026-04-19T11:43:48.793Z</time></trkpt><trkpt lat="42.9858058" lon="11.695655"><ele>323.0</ele><time>2026-04-19T11:43:49.793Z</time></trkpt><trkpt lat="42.9856331" lon="11.6958948"><ele>322.0</ele><time>2026-04-19T11:43:50.795Z</time></trkpt><trkpt lat="42.9854631" lon="11.6961478"><ele>321.0</ele><time>2026-04-19T11:43:51.793Z</time></trkpt><trkpt lat="42.9852911" lon="11.696414"><ele>321.0</ele><time>2026-04-19T11:43:52.793Z</time></trkpt><trkpt lat="42.9851182" lon="11.6966937"><ele>321.0</ele><time>2026-04-19T11:43:53.793Z</time></trkpt><trkpt lat="42.9849493" lon="11.6969853"><ele>320.5</ele><time>2026-04-19T11:43:54.794Z</time></trkpt><trkpt lat="42.9847769" lon="11.697281"><ele>320.0</ele><time>2026-04-19T11:43:55.795Z</time></trkpt><trkpt lat="42.9846058" lon="11.6975809"><ele>323.5</ele><time>2026-04-19T11:43:56.794Z</time></trkpt><trkpt lat="42.9844449" lon="11.6978787"><ele>327.0</ele><time>2026-04-19T11:43:57.795Z</time></trkpt><trkpt lat="42.9842926" lon="11.6981717"><ele>326.5</ele><time>2026-04-19T11:43:58.795Z</time></trkpt><trkpt lat="42.9841494" lon="11.6984648"><ele>326.0</ele><time>2026-04-19T11:43:59.794Z</time></trkpt><trkpt lat="42.9840101" lon="11.6987624"><ele>329.0</ele><time>2026-04-19T11:44:00.795Z</time></trkpt><trkpt lat="42.9838754" lon="11.699077"><ele>332.0</ele><time>2026-04-19T11:44:01.793Z</time></trkpt><trkpt lat="42.9837386" lon="11.6994018"><ele>336.5</ele><time>2026-04-19T11:44:02.795Z</time></trkpt><trkpt lat="42.983594" lon="11.6997319"><ele>341.0</ele><time>2026-04-19T11:44:03.795Z</time></trkpt><trkpt lat="42.9834477" lon="11.7000647"><ele>338.0</ele><time>2026-04-19T11:44:04.795Z</time></trkpt><trkpt lat="42.9833147" lon="11.7003874"><ele>335.0</ele><time>2026-04-19T11:44:05.793Z</time></trkpt><trkpt lat="42.9831962" lon="11.7007013"><ele>335.0</ele><time>2026-04-19T11:44:06.794Z</time></trkpt><trkpt lat="42.9830881" lon="11.7010036"><ele>335.0</ele><time>2026-04-19T11:44:07.795Z</time></trkpt><trkpt lat="42.9829766" lon="11.7013004"><ele>336.5</ele><time>2026-04-19T11:44:08.794Z</time></trkpt><trkpt lat="42.9828665" lon="11.7015923"><ele>338.0</ele><time>2026-04-19T11:44:09.794Z</time></trkpt><trkpt lat="42.9827697" lon="11.7018612"><ele>339.33333333333337</ele><time>2026-04-19T11:44:10.795Z</time></trkpt><trkpt lat="42.982676" lon="11.7021151"><ele>340.6666666666667</ele><time>2026-04-19T11:44:11.795Z</time></trkpt><trkpt lat="42.9825797" lon="11.7023543"><ele>342.0</ele><time>2026-04-19T11:44:12.795Z</time></trkpt><trkpt lat="42.9824809" lon="11.7025927"><ele>344.3333333333333</ele><time>2026-04-19T11:44:13.795Z</time></trkpt><trkpt lat="42.9823812" lon="11.7028353"><ele>346.66666666666663</ele><time>2026-04-19T11:44:14.795Z</time></trkpt><trkpt lat="42.9822731" lon="11.7030755"><ele>349.0</ele><time>2026-04-19T11:44:15.795Z</time></trkpt><trkpt lat="42.982159" lon="11.703319"><ele>349.0</ele><time>2026-04-19T11:44:16.794Z</time></trkpt><trkpt lat="42.9820318" lon="11.7035615"><ele>349.0</ele><time>2026-04-19T11:44:17.795Z</time></trkpt><trkpt lat="42.9818504" lon="11.7038476"><ele>347.5</ele><time>2026-04-19T11:44:18.794Z</time></trkpt><trkpt lat="42.9816823" lon="11.7040964"><ele>346.0</ele><time>2026-04-19T11:44:19.794Z</time></trkpt><trkpt lat="42.9815137" lon="11.7043297"><ele>347.5</ele><time>2026-04-19T11:44:20.795Z</time></trkpt><trkpt lat="42.9813448" lon="11.7045433"><ele>349.0</ele><time>2026-04-19T11:44:21.795Z</time></trkpt><trkpt lat="42.9811764" lon="11.7047381"><ele>349.0</ele><time>2026-04-19T11:44:22.795Z</time></trkpt><trkpt lat="42.9810067" lon="11.7049274"><ele>349.0</ele><time>2026-04-19T11:44:23.795Z</time></trkpt><trkpt lat="42.9808108" lon="11.7051198"><ele>352.0</ele><time>2026-04-19T11:44:24.794Z</time></trkpt><trkpt lat="42.9806187" lon="11.7052933"><ele>355.0</ele><time>2026-04-19T11:44:25.795Z</time></trkpt><trkpt lat="42.9804196" lon="11.7054555"><ele>355.0</ele><time>2026-04-19T11:44:26.795Z</time></trkpt><trkpt lat="42.980205" lon="11.7056196"><ele>355.0</ele><time>2026-04-19T11:44:27.793Z</time></trkpt><trkpt lat="42.97998" lon="11.7057663"><ele>355.0</ele><time>2026-04-19T11:44:28.794Z</time></trkpt><trkpt lat="42.9797417" lon="11.7059027"><ele>355.0</ele><time>2026-04-19T11:44:29.793Z</time></trkpt><trkpt lat="42.9794872" lon="11.7060292"><ele>353.5</ele><time>2026-04-19T11:44:30.795Z</time></trkpt><trkpt lat="42.9792328" lon="11.7061323"><ele>352.0</ele><time>2026-04-19T11:44:31.793Z</time></trkpt><trkpt lat="42.9789699" lon="11.7062263"><ele>352.0</ele><time>2026-04-19T11:44:32.794Z</time></trkpt><trkpt lat="42.9787011" lon="11.7063077"><ele>352.0</ele><time>2026-04-19T11:44:33.795Z</time></trkpt><trkpt lat="42.9784273" lon="11.7063641"><ele>351.0</ele><time>2026-04-19T11:44:34.794Z</time></trkpt><trkpt lat="42.9781522" lon="11.7064037"><ele>350.0</ele><time>2026-04-19T11:44:35.795Z</time></trkpt><trkpt lat="42.9778747" lon="11.7064215"><ele>350.0</ele><time>2026-04-19T11:44:36.794Z</time></trkpt><trkpt lat="42.9775971" lon="11.7064175"><ele>350.0</ele><time>2026-04-19T11:44:37.795Z</time></trkpt><trkpt lat="42.9773204" lon="11.7063992"><ele>351.0</ele><time>2026-04-19T11:44:38.795Z</time></trkpt><trkpt lat="42.9770358" lon="11.706384"><ele>352.0</ele><time>2026-04-19T11:44:39.795Z</time></trkpt><trkpt lat="42.9767516" lon="11.706358"><ele>352.0</ele><time>2026-04-19T11:44:40.795Z</time></trkpt><trkpt lat="42.9764651" lon="11.7063331"><ele>352.0</ele><time>2026-04-19T11:44:41.795Z</time></trkpt><trkpt lat="42.9761759" lon="11.706311"><ele>352.0</ele><time>2026-04-19T11:44:42.794Z</time></trkpt><trkpt lat="42.975887" lon="11.7062872"><ele>352.0</ele><time>2026-04-19T11:44:43.795Z</time></trkpt><trkpt lat="42.9755986" lon="11.7062622"><ele>352.5</ele><time>2026-04-19T11:44:44.795Z</time></trkpt><trkpt lat="42.9753128" lon="11.7062361"><ele>353.0</ele><time>2026-04-19T11:44:45.795Z</time></trkpt><trkpt lat="42.9750289" lon="11.7062126"><ele>353.5</ele><time>2026-04-19T11:44:46.795Z</time></trkpt><trkpt lat="42.9747538" lon="11.7061826"><ele>354.0</ele><time>2026-04-19T11:44:47.794Z</time></trkpt><trkpt lat="42.9744887" lon="11.7061589"><ele>354.0</ele><time>2026-04-19T11:44:48.794Z</time></trkpt><trkpt lat="42.9742392" lon="11.7061339"><ele>354.0</ele><time>2026-04-19T11:44:49.793Z</time></trkpt><trkpt lat="42.9740074" lon="11.7061105"><ele>353.5</ele><time>2026-04-19T11:44:50.794Z</time></trkpt><trkpt lat="42.9737744" lon="11.7060828"><ele>353.0</ele><time>2026-04-19T11:44:51.793Z</time></trkpt><trkpt lat="42.9735479" lon="11.7060535"><ele>357.5</ele><time>2026-04-19T11:44:52.795Z</time></trkpt><trkpt lat="42.9733195" lon="11.7060273"><ele>362.0</ele><time>2026-04-19T11:44:53.795Z</time></trkpt><trkpt lat="42.9730891" lon="11.7060045"><ele>362.0</ele><time>2026-04-19T11:44:54.795Z</time></trkpt><trkpt lat="42.9728552" lon="11.7059846"><ele>362.0</ele><time>2026-04-19T11:44:55.795Z</time></trkpt><trkpt lat="42.9726198" lon="11.7059646"><ele>362.0</ele><time>2026-04-19T11:44:56.794Z</time></trkpt><trkpt lat="42.9723804" lon="11.7059404"><ele>362.0</ele><time>2026-04-19T11:44:57.795Z</time></trkpt><trkpt lat="42.9721348" lon="11.7059174"><ele>362.0</ele><time>2026-04-19T11:44:58.794Z</time></trkpt><trkpt lat="42.9718869" lon="11.7058885"><ele>362.0</ele><time>2026-04-19T11:44:59.794Z</time></trkpt><trkpt lat="42.9716383" lon="11.7058655"><ele>361.0</ele><time>2026-04-19T11:45:00.794Z</time></trkpt><trkpt lat="42.9713846" lon="11.7058356"><ele>360.0</ele><time>2026-04-19T11:45:01.795Z</time></trkpt><trkpt lat="42.9711288" lon="11.7058133"><ele>360.0</ele><time>2026-04-19T11:45:02.795Z</time></trkpt><trkpt lat="42.9708689" lon="11.7057841"><ele>360.0</ele><time>2026-04-19T11:45:03.793Z</time></trkpt><trkpt lat="42.97061" lon="11.7057611"><ele>361.5</ele><time>2026-04-19T11:45:04.793Z</time></trkpt><trkpt lat="42.9703478" lon="11.7057427"><ele>363.0</ele><time>2026-04-19T11:45:05.794Z</time></trkpt><trkpt lat="42.9700851" lon="11.7057225"><ele>363.5</ele><time>2026-04-19T11:45:06.795Z</time></trkpt><trkpt lat="42.9698216" lon="11.7057025"><ele>364.0</ele><time>2026-04-19T11:45:07.793Z</time></trkpt><trkpt lat="42.9695546" lon="11.7056916"><ele>364.0</ele><time>2026-04-19T11:45:08.793Z</time></trkpt><trkpt lat="42.9692841" lon="11.7056933"><ele>364.0</ele><time>2026-04-19T11:45:09.794Z</time></trkpt><trkpt lat="42.96901" lon="11.705696"><ele>364.5</ele><time>2026-04-19T11:45:10.794Z</time></trkpt><trkpt lat="42.9687385" lon="11.7057063"><ele>365.0</ele><time>2026-04-19T11:45:11.794Z</time></trkpt><trkpt lat="42.9684537" lon="11.7057155"><ele>365.5</ele><time>2026-04-19T11:45:12.794Z</time></trkpt><trkpt lat="42.9681667" lon="11.7057275"><ele>366.0</ele><time>2026-04-19T11:45:13.795Z</time></trkpt><trkpt lat="42.9678838" lon="11.7057398"><ele>366.0</ele><time>2026-04-19T11:45:14.795Z</time></trkpt><trkpt lat="42.9675973" lon="11.7057496"><ele>366.0</ele><time>2026-04-19T11:45:15.795Z</time></trkpt><trkpt lat="42.9673126" lon="11.7057621"><ele>367.5</ele><time>2026-04-19T11:45:16.795Z</time></trkpt><trkpt lat="42.9670205" lon="11.705771"><ele>369.0</ele><time>2026-04-19T11:45:17.793Z</time></trkpt><trkpt lat="42.9667287" lon="11.705779"><ele>369.0</ele><time>2026-04-19T11:45:18.795Z</time></trkpt><trkpt lat="42.966435" lon="11.7057875"><ele>369.0</ele><time>2026-04-19T11:45:19.795Z</time></trkpt><trkpt lat="42.966142" lon="11.7057997"><ele>371.0</ele><time>2026-04-19T11:45:20.794Z</time></trkpt><trkpt lat="42.9658463" lon="11.7058143"><ele>373.0</ele><time>2026-04-19T11:45:21.794Z</time></trkpt><trkpt lat="42.9655485" lon="11.7058241"><ele>373.0</ele><time>2026-04-19T11:45:22.794Z</time></trkpt><trkpt lat="42.9652478" lon="11.7058333"><ele>373.0</ele><time>2026-04-19T11:45:23.795Z</time></trkpt><trkpt lat="42.9649457" lon="11.7058366"><ele>372.5</ele><time>2026-04-19T11:45:24.794Z</time></trkpt><trkpt lat="42.9646434" lon="11.705848"><ele>372.0</ele><time>2026-04-19T11:45:25.795Z</time></trkpt><trkpt lat="42.9643393" lon="11.7058563"><ele>371.5</ele><time>2026-04-19T11:45:26.794Z</time></trkpt><trkpt lat="42.9640329" lon="11.705863"><ele>371.0</ele><time>2026-04-19T11:45:27.795Z</time></trkpt><trkpt lat="42.9637237" lon="11.7058771"><ele>371.0</ele><time>2026-04-19T11:45:28.795Z</time></trkpt><trkpt lat="42.9634167" lon="11.7058886"><ele>371.0</ele><time>2026-04-19T11:45:29.794Z</time></trkpt><trkpt lat="42.9631108" lon="11.7058978"><ele>372.5</ele><time>2026-04-19T11:45:30.794Z</time></trkpt><trkpt lat="42.9628079" lon="11.70591"><ele>374.0</ele><time>2026-04-19T11:45:31.795Z</time></trkpt><trkpt lat="42.962504" lon="11.7059286"><ele>375.0</ele><time>2026-04-19T11:45:32.794Z</time></trkpt><trkpt lat="42.9622003" lon="11.7059425"><ele>376.0</ele><time>2026-04-19T11:45:33.794Z</time></trkpt><trkpt lat="42.9619" lon="11.7059558"><ele>378.0</ele><time>2026-04-19T11:45:34.795Z</time></trkpt><trkpt lat="42.9615988" lon="11.7059707"><ele>380.0</ele><time>2026-04-19T11:45:35.795Z</time></trkpt><trkpt lat="42.961298" lon="11.7059907"><ele>380.0</ele><time>2026-04-19T11:45:36.795Z</time></trkpt><trkpt lat="42.9609983" lon="11.7060125"><ele>380.0</ele><time>2026-04-19T11:45:37.794Z</time></trkpt><trkpt lat="42.9607017" lon="11.7060402"><ele>380.0</ele><time>2026-04-19T11:45:38.795Z</time></trkpt><trkpt lat="42.9604081" lon="11.7060766"><ele>380.0</ele><time>2026-04-19T11:45:39.795Z</time></trkpt><trkpt lat="42.9601113" lon="11.7061129"><ele>378.0</ele><time>2026-04-19T11:45:40.794Z</time></trkpt><trkpt lat="42.9598174" lon="11.7061539"><ele>376.0</ele><time>2026-04-19T11:45:41.794Z</time></trkpt><trkpt lat="42.9595228" lon="11.7061928"><ele>376.0</ele><time>2026-04-19T11:45:42.794Z</time></trkpt><trkpt lat="42.959234" lon="11.706239"><ele>376.0</ele><time>2026-04-19T11:45:43.794Z</time></trkpt><trkpt lat="42.958944" lon="11.7062898"><ele>376.5</ele><time>2026-04-19T11:45:44.795Z</time></trkpt><trkpt lat="42.9586531" lon="11.7063443"><ele>377.0</ele><time>2026-04-19T11:45:45.795Z</time></trkpt><trkpt lat="42.9583621" lon="11.7064005"><ele>379.0</ele><time>2026-04-19T11:45:46.795Z</time></trkpt><trkpt lat="42.9580749" lon="11.7064509"><ele>381.0</ele><time>2026-04-19T11:45:47.795Z</time></trkpt><trkpt lat="42.957787" lon="11.706502"><ele>382.5</ele><time>2026-04-19T11:45:48.795Z</time></trkpt><trkpt lat="42.9575072" lon="11.7065516"><ele>384.0</ele><time>2026-04-19T11:45:49.795Z</time></trkpt><trkpt lat="42.9572263" lon="11.7066018"><ele>384.0</ele><time>2026-04-19T11:45:50.794Z</time></trkpt><trkpt lat="42.9569424" lon="11.7066509"><ele>384.0</ele><time>2026-04-19T11:45:51.795Z</time></trkpt><trkpt lat="42.9566598" lon="11.7067015"><ele>385.5</ele><time>2026-04-19T11:45:52.793Z</time></trkpt><trkpt lat="42.9563788" lon="11.7067518"><ele>387.0</ele><time>2026-04-19T11:45:53.795Z</time></trkpt><trkpt lat="42.9560932" lon="11.7068054"><ele>389.0</ele><time>2026-04-19T11:45:54.795Z</time></trkpt><trkpt lat="42.9558084" lon="11.7068549"><ele>391.0</ele><time>2026-04-19T11:45:55.795Z</time></trkpt><trkpt lat="42.9555252" lon="11.7069075"><ele>387.0</ele><time>2026-04-19T11:45:56.795Z</time></trkpt><trkpt lat="42.9552423" lon="11.7069587"><ele>383.0</ele><time>2026-04-19T11:45:57.794Z</time></trkpt><trkpt lat="42.9549598" lon="11.7070075"><ele>383.0</ele><time>2026-04-19T11:45:58.795Z</time></trkpt><trkpt lat="42.9546794" lon="11.7070617"><ele>383.0</ele><time>2026-04-19T11:45:59.795Z</time></trkpt><trkpt lat="42.954401" lon="11.7071146"><ele>384.0</ele><time>2026-04-19T11:46:00.795Z</time></trkpt><trkpt lat="42.954116" lon="11.7071661"><ele>385.0</ele><time>2026-04-19T11:46:01.794Z</time></trkpt><trkpt lat="42.953832" lon="11.7072198"><ele>385.0</ele><time>2026-04-19T11:46:02.795Z</time></trkpt><trkpt lat="42.9535446" lon="11.7072757"><ele>385.0</ele><time>2026-04-19T11:46:03.795Z</time></trkpt><trkpt lat="42.9532499" lon="11.7073269"><ele>386.5</ele><time>2026-04-19T11:46:04.794Z</time></trkpt><trkpt lat="42.9529582" lon="11.7073722"><ele>388.0</ele><time>2026-04-19T11:46:05.795Z</time></trkpt><trkpt lat="42.9526688" lon="11.7074185"><ele>391.0</ele><time>2026-04-19T11:46:06.794Z</time></trkpt><trkpt lat="42.9523844" lon="11.7074595"><ele>394.0</ele><time>2026-04-19T11:46:07.793Z</time></trkpt><trkpt lat="42.9521014" lon="11.7075025"><ele>394.0</ele><time>2026-04-19T11:46:08.794Z</time></trkpt><trkpt lat="42.9518176" lon="11.7075512"><ele>394.0</ele><time>2026-04-19T11:46:09.795Z</time></trkpt><trkpt lat="42.9515375" lon="11.7076024"><ele>396.5</ele><time>2026-04-19T11:46:10.795Z</time></trkpt><trkpt lat="42.9512639" lon="11.7076506"><ele>399.0</ele><time>2026-04-19T11:46:11.794Z</time></trkpt><trkpt lat="42.9509944" lon="11.7076948"><ele>397.0</ele><time>2026-04-19T11:46:12.795Z</time></trkpt><trkpt lat="42.9507296" lon="11.7077358"><ele>395.0</ele><time>2026-04-19T11:46:13.795Z</time></trkpt><trkpt lat="42.9504653" lon="11.707781"><ele>395.0</ele><time>2026-04-19T11:46:14.794Z</time></trkpt><trkpt lat="42.9502017" lon="11.7078302"><ele>395.0</ele><time>2026-04-19T11:46:15.795Z</time></trkpt><trkpt lat="42.9499386" lon="11.7078885"><ele>395.0</ele><time>2026-04-19T11:46:16.795Z</time></trkpt><trkpt lat="42.9496743" lon="11.7079544"><ele>395.0</ele><time>2026-04-19T11:46:17.794Z</time></trkpt><trkpt lat="42.9494106" lon="11.7080354"><ele>396.0</ele><time>2026-04-19T11:46:18.794Z</time></trkpt><trkpt lat="42.9491489" lon="11.7081312"><ele>397.0</ele><time>2026-04-19T11:46:19.794Z</time></trkpt><trkpt lat="42.9488891" lon="11.7082456"><ele>397.0</ele><time>2026-04-19T11:46:20.795Z</time></trkpt><trkpt lat="42.9486271" lon="11.7083764"><ele>397.0</ele><time>2026-04-19T11:46:21.795Z</time></trkpt><trkpt lat="42.948366" lon="11.7085157"><ele>396.0</ele><time>2026-04-19T11:46:22.794Z</time></trkpt><trkpt lat="42.9480995" lon="11.7086537"><ele>395.0</ele><time>2026-04-19T11:46:23.795Z</time></trkpt><trkpt lat="42.9478312" lon="11.7087887"><ele>395.0</ele><time>2026-04-19T11:46:24.795Z</time></trkpt><trkpt lat="42.9475661" lon="11.7089302"><ele>395.0</ele><time>2026-04-19T11:46:25.795Z</time></trkpt><trkpt lat="42.9472963" lon="11.7090646"><ele>396.5</ele><time>2026-04-19T11:46:26.794Z</time></trkpt><trkpt lat="42.9470273" lon="11.7091951"><ele>398.0</ele><time>2026-04-19T11:46:27.795Z</time></trkpt><trkpt lat="42.9467613" lon="11.709327"><ele>398.0</ele><time>2026-04-19T11:46:28.794Z</time></trkpt><trkpt lat="42.946502" lon="11.7094629"><ele>398.0</ele><time>2026-04-19T11:46:29.794Z</time></trkpt><trkpt lat="42.946244" lon="11.7095978"><ele>398.0</ele><time>2026-04-19T11:46:30.794Z</time></trkpt><trkpt lat="42.9459937" lon="11.7097212"><ele>398.0</ele><time>2026-04-19T11:46:31.794Z</time></trkpt><trkpt lat="42.9457553" lon="11.7098365"><ele>399.0</ele><time>2026-04-19T11:46:32.794Z</time></trkpt><trkpt lat="42.9455271" lon="11.7099432"><ele>400.0</ele><time>2026-04-19T11:46:33.793Z</time></trkpt><trkpt lat="42.9453" lon="11.7100378"><ele>400.0</ele><time>2026-04-19T11:46:34.795Z</time></trkpt><trkpt lat="42.9450707" lon="11.7101183"><ele>400.0</ele><time>2026-04-19T11:46:35.795Z</time></trkpt><trkpt lat="42.9448356" lon="11.7101946"><ele>400.0</ele><time>2026-04-19T11:46:36.794Z</time></trkpt><trkpt lat="42.9445852" lon="11.7102618"><ele>400.0</ele><time>2026-04-19T11:46:37.795Z</time></trkpt><trkpt lat="42.9443294" lon="11.7103152"><ele>401.5</ele><time>2026-04-19T11:46:38.794Z</time></trkpt><trkpt lat="42.944072" lon="11.7103604"><ele>403.0</ele><time>2026-04-19T11:46:39.794Z</time></trkpt><trkpt lat="42.9438048" lon="11.7104046"><ele>403.0</ele><time>2026-04-19T11:46:40.794Z</time></trkpt><trkpt lat="42.9435386" lon="11.7104474"><ele>403.0</ele><time>2026-04-19T11:46:41.795Z</time></trkpt><trkpt lat="42.9432697" lon="11.7104899"><ele>404.0</ele><time>2026-04-19T11:46:42.795Z</time></trkpt><trkpt lat="42.9429963" lon="11.7105348"><ele>405.0</ele><time>2026-04-19T11:46:43.795Z</time></trkpt><trkpt lat="42.9427211" lon="11.7105789"><ele>405.0</ele><time>2026-04-19T11:46:44.794Z</time></trkpt><trkpt lat="42.9424499" lon="11.7106272"><ele>405.0</ele><time>2026-04-19T11:46:45.793Z</time></trkpt><trkpt lat="42.9421873" lon="11.7106656"><ele>405.0</ele><time>2026-04-19T11:46:46.794Z</time></trkpt><trkpt lat="42.9419343" lon="11.7107079"><ele>405.0</ele><time>2026-04-19T11:46:47.793Z</time></trkpt><trkpt lat="42.9416956" lon="11.7107555"><ele>408.0</ele><time>2026-04-19T11:46:48.794Z</time></trkpt><trkpt lat="42.9414713" lon="11.7108106"><ele>411.0</ele><time>2026-04-19T11:46:49.795Z</time></trkpt><trkpt lat="42.941253" lon="11.7108692"><ele>411.0</ele><time>2026-04-19T11:46:50.795Z</time></trkpt><trkpt lat="42.9410349" lon="11.7109331"><ele>411.0</ele><time>2026-04-19T11:46:51.794Z</time></trkpt><trkpt lat="42.940813" lon="11.7110117"><ele>410.5</ele><time>2026-04-19T11:46:52.795Z</time></trkpt><trkpt lat="42.9405897" lon="11.7110966"><ele>410.0</ele><time>2026-04-19T11:46:53.795Z</time></trkpt><trkpt lat="42.9403635" lon="11.7111949"><ele>410.0</ele><time>2026-04-19T11:46:54.794Z</time></trkpt><trkpt lat="42.9401329" lon="11.7113072"><ele>410.0</ele><time>2026-04-19T11:46:55.795Z</time></trkpt><trkpt lat="42.9398988" lon="11.7114262"><ele>413.0</ele><time>2026-04-19T11:46:56.795Z</time></trkpt><trkpt lat="42.9396639" lon="11.7115498"><ele>416.0</ele><time>2026-04-19T11:46:57.794Z</time></trkpt><trkpt lat="42.9394239" lon="11.7116712"><ele>420.0</ele><time>2026-04-19T11:46:58.793Z</time></trkpt><trkpt lat="42.9391835" lon="11.7117891"><ele>424.0</ele><time>2026-04-19T11:46:59.793Z</time></trkpt><trkpt lat="42.9389449" lon="11.7119004"><ele>420.0</ele><time>2026-04-19T11:47:00.794Z</time></trkpt><trkpt lat="42.9387216" lon="11.7120083"><ele>416.0</ele><time>2026-04-19T11:47:01.794Z</time></trkpt><trkpt lat="42.9384838" lon="11.7121191"><ele>418.0</ele><time>2026-04-19T11:47:02.794Z</time></trkpt><trkpt lat="42.938251" lon="11.7122292"><ele>420.0</ele><time>2026-04-19T11:47:03.795Z</time></trkpt><trkpt lat="42.9380218" lon="11.7123418"><ele>420.0</ele><time>2026-04-19T11:47:04.795Z</time></trkpt><trkpt lat="42.9377965" lon="11.7124606"><ele>420.0</ele><time>2026-04-19T11:47:05.793Z</time></trkpt><trkpt lat="42.937569" lon="11.7125856"><ele>420.0</ele><time>2026-04-19T11:47:06.794Z</time></trkpt><trkpt lat="42.937335" lon="11.712713"><ele>420.0</ele><time>2026-04-19T11:47:07.794Z</time></trkpt><trkpt lat="42.9370952" lon="11.7128307"><ele>421.5</ele><time>2026-04-19T11:47:08.795Z</time></trkpt><trkpt lat="42.9368521" lon="11.7129505"><ele>423.0</ele><time>2026-04-19T11:47:09.793Z</time></trkpt><trkpt lat="42.936605" lon="11.7130716"><ele>426.0</ele><time>2026-04-19T11:47:10.793Z</time></trkpt><trkpt lat="42.9363529" lon="11.7131912"><ele>429.0</ele><time>2026-04-19T11:47:11.793Z</time></trkpt><trkpt lat="42.9360976" lon="11.7133054"><ele>430.0</ele><time>2026-04-19T11:47:12.794Z</time></trkpt><trkpt lat="42.9358376" lon="11.713411"><ele>431.0</ele><time>2026-04-19T11:47:13.793Z</time></trkpt><trkpt lat="42.9355747" lon="11.7135186"><ele>436.0</ele><time>2026-04-19T11:47:14.793Z</time></trkpt><trkpt lat="42.9353087" lon="11.713621"><ele>441.0</ele><time>2026-04-19T11:47:15.794Z</time></trkpt><trkpt lat="42.9350425" lon="11.7137181"><ele>441.5</ele><time>2026-04-19T11:47:16.794Z</time></trkpt><trkpt lat="42.9347735" lon="11.7138083"><ele>442.0</ele><time>2026-04-19T11:47:17.793Z</time></trkpt><trkpt lat="42.9345041" lon="11.7138964"><ele>442.0</ele><time>2026-04-19T11:47:18.793Z</time></trkpt><trkpt lat="42.9342295" lon="11.7139829"><ele>442.0</ele><time>2026-04-19T11:47:19.794Z</time></trkpt><trkpt lat="42.933951" lon="11.7140613"><ele>439.5</ele><time>2026-04-19T11:47:20.794Z</time></trkpt><trkpt lat="42.933669" lon="11.7141326"><ele>437.0</ele><time>2026-04-19T11:47:21.794Z</time></trkpt><trkpt lat="42.9333821" lon="11.7141951"><ele>434.5</ele><time>2026-04-19T11:47:22.794Z</time></trkpt><trkpt lat="42.9331005" lon="11.7142591"><ele>432.0</ele><time>2026-04-19T11:47:23.794Z</time></trkpt><trkpt lat="42.9328199" lon="11.7143212"><ele>432.0</ele><time>2026-04-19T11:47:24.793Z</time></trkpt><trkpt lat="42.9325473" lon="11.7143841"><ele>432.0</ele><time>2026-04-19T11:47:25.794Z</time></trkpt><trkpt lat="42.93228" lon="11.7144443"><ele>432.0</ele><time>2026-04-19T11:47:26.794Z</time></trkpt><trkpt lat="42.9320251" lon="11.7144997"><ele>432.0</ele><time>2026-04-19T11:47:27.793Z</time></trkpt><trkpt lat="42.9317792" lon="11.7145547"><ele>434.5</ele><time>2026-04-19T11:47:28.792Z</time></trkpt><trkpt lat="42.9315438" lon="11.714604"><ele>437.0</ele><time>2026-04-19T11:47:29.793Z</time></trkpt><trkpt lat="42.9313145" lon="11.714665"><ele>437.0</ele><time>2026-04-19T11:47:30.794Z</time></trkpt><trkpt lat="42.9310925" lon="11.7147544"><ele>437.0</ele><time>2026-04-19T11:47:31.794Z</time></trkpt><trkpt lat="42.9308786" lon="11.7148713"><ele>440.5</ele><time>2026-04-19T11:47:32.793Z</time></trkpt><trkpt lat="42.9306758" lon="11.7150201"><ele>444.0</ele><time>2026-04-19T11:47:33.793Z</time></trkpt><trkpt lat="42.9304942" lon="11.7152018"><ele>442.66666666666663</ele><time>2026-04-19T11:47:34.794Z</time></trkpt><trkpt lat="42.9303305" lon="11.7153994"><ele>441.3333333333333</ele><time>2026-04-19T11:47:35.794Z</time></trkpt><trkpt lat="42.930172" lon="11.7156146"><ele>440.0</ele><time>2026-04-19T11:47:36.793Z</time></trkpt><trkpt lat="42.9300185" lon="11.7158121"><ele>441.3333333333333</ele><time>2026-04-19T11:47:37.794Z</time></trkpt><trkpt lat="42.9298741" lon="11.7159979"><ele>442.66666666666663</ele><time>2026-04-19T11:47:38.793Z</time></trkpt><trkpt lat="42.9297236" lon="11.7161672"><ele>444.0</ele><time>2026-04-19T11:47:39.793Z</time></trkpt><trkpt lat="42.9295594" lon="11.7163241"><ele>444.0</ele><time>2026-04-19T11:47:40.794Z</time></trkpt><trkpt lat="42.9293916" lon="11.7164597"><ele>444.0</ele><time>2026-04-19T11:47:41.794Z</time></trkpt><trkpt lat="42.9292128" lon="11.7165718"><ele>444.0</ele><time>2026-04-19T11:47:42.792Z</time></trkpt><trkpt lat="42.9290194" lon="11.7166568"><ele>447.66666666666663</ele><time>2026-04-19T11:47:43.794Z</time></trkpt><trkpt lat="42.9288146" lon="11.7167204"><ele>451.3333333333333</ele><time>2026-04-19T11:47:44.792Z</time></trkpt><trkpt lat="42.9285985" lon="11.7167534"><ele>455.0</ele><time>2026-04-19T11:47:45.793Z</time></trkpt><trkpt lat="42.9283696" lon="11.716777"><ele>458.0</ele><time>2026-04-19T11:47:46.794Z</time></trkpt><trkpt lat="42.9281407" lon="11.7167915"><ele>461.0</ele><time>2026-04-19T11:47:47.792Z</time></trkpt><trkpt lat="42.927905" lon="11.7168006"><ele>461.0</ele><time>2026-04-19T11:47:48.793Z</time></trkpt><trkpt lat="42.9276635" lon="11.716818"><ele>461.0</ele><time>2026-04-19T11:47:49.794Z</time></trkpt><trkpt lat="42.9274195" lon="11.7168444"><ele>463.0</ele><time>2026-04-19T11:47:50.793Z</time></trkpt><trkpt lat="42.9271727" lon="11.7168858"><ele>465.0</ele><time>2026-04-19T11:47:51.794Z</time></trkpt><trkpt lat="42.9269254" lon="11.7169479"><ele>464.0</ele><time>2026-04-19T11:47:52.792Z</time></trkpt><trkpt lat="42.9266831" lon="11.7170385"><ele>463.0</ele><time>2026-04-19T11:47:53.794Z</time></trkpt><trkpt lat="42.9264484" lon="11.7171527"><ele>463.0</ele><time>2026-04-19T11:47:54.792Z</time></trkpt><trkpt lat="42.9262201" lon="11.7172822"><ele>463.0</ele><time>2026-04-19T11:47:55.793Z</time></trkpt><trkpt lat="42.9259811" lon="11.7174275"><ele>466.0</ele><time>2026-04-19T11:47:56.793Z</time></trkpt><trkpt lat="42.9257512" lon="11.7175659"><ele>469.0</ele><time>2026-04-19T11:47:57.793Z</time></trkpt><trkpt lat="42.9255263" lon="11.7177074"><ele>464.5</ele><time>2026-04-19T11:47:58.793Z</time></trkpt><trkpt lat="42.925314" lon="11.7178469"><ele>460.0</ele><time>2026-04-19T11:47:59.794Z</time></trkpt><trkpt lat="42.9251129" lon="11.717976"><ele>462.6666666666667</ele><time>2026-04-19T11:48:00.792Z</time></trkpt><trkpt lat="42.9249195" lon="11.7181017"><ele>465.33333333333337</ele><time>2026-04-19T11:48:01.794Z</time></trkpt><trkpt lat="42.9247254" lon="11.7182209"><ele>468.0</ele><time>2026-04-19T11:48:02.793Z</time></trkpt><trkpt lat="42.924533" lon="11.7183382"><ele>468.0</ele><time>2026-04-19T11:48:03.792Z</time></trkpt><trkpt lat="42.9243343" lon="11.7184523"><ele>468.0</ele><time>2026-04-19T11:48:04.793Z</time></trkpt><trkpt lat="42.9241291" lon="11.7185482"><ele>468.0</ele><time>2026-04-19T11:48:05.793Z</time></trkpt><trkpt lat="42.9239119" lon="11.7186235"><ele>467.5</ele><time>2026-04-19T11:48:06.793Z</time></trkpt><trkpt lat="42.9236895" lon="11.7186714"><ele>467.0</ele><time>2026-04-19T11:48:07.793Z</time></trkpt><trkpt lat="42.9234627" lon="11.7186904"><ele>468.5</ele><time>2026-04-19T11:48:08.793Z</time></trkpt><trkpt lat="42.9232342" lon="11.7186883"><ele>470.0</ele><time>2026-04-19T11:48:09.794Z</time></trkpt><trkpt lat="42.9230007" lon="11.7186745"><ele>470.0</ele><time>2026-04-19T11:48:10.793Z</time></trkpt><trkpt lat="42.922763" lon="11.718646"><ele>470.0</ele><time>2026-04-19T11:48:11.793Z</time></trkpt><trkpt lat="42.922524" lon="11.7186087"><ele>472.0</ele><time>2026-04-19T11:48:12.794Z</time></trkpt><trkpt lat="42.9222789" lon="11.7185684"><ele>474.0</ele><time>2026-04-19T11:48:13.794Z</time></trkpt><trkpt lat="42.9220338" lon="11.7185287"><ele>481.0</ele><time>2026-04-19T11:48:14.793Z</time></trkpt><trkpt lat="42.9217941" lon="11.718489"><ele>488.0</ele><time>2026-04-19T11:48:15.793Z</time></trkpt><trkpt lat="42.9215585" lon="11.7184563"><ele>488.0</ele><time>2026-04-19T11:48:16.794Z</time></trkpt><trkpt lat="42.9213256" lon="11.7184357"><ele>488.0</ele><time>2026-04-19T11:48:17.793Z</time></trkpt><trkpt lat="42.9210992" lon="11.7184489"><ele>486.66666666666663</ele><time>2026-04-19T11:48:18.793Z</time></trkpt><trkpt lat="42.9208806" lon="11.718489"><ele>485.33333333333337</ele><time>2026-04-19T11:48:19.793Z</time></trkpt><trkpt lat="42.9206681" lon="11.7185675"><ele>484.0</ele><time>2026-04-19T11:48:20.793Z</time></trkpt><trkpt lat="42.9204622" lon="11.7186871"><ele>484.0</ele><time>2026-04-19T11:48:21.794Z</time></trkpt><trkpt lat="42.9202611" lon="11.7188342"><ele>484.0</ele><time>2026-04-19T11:48:22.792Z</time></trkpt><trkpt lat="42.9200614" lon="11.7189871"><ele>486.6666666666667</ele><time>2026-04-19T11:48:23.793Z</time></trkpt><trkpt lat="42.9198609" lon="11.7191331"><ele>489.33333333333337</ele><time>2026-04-19T11:48:24.794Z</time></trkpt><trkpt lat="42.9196702" lon="11.7192616"><ele>492.0</ele><time>2026-04-19T11:48:25.794Z</time></trkpt><trkpt lat="42.9194808" lon="11.7193623"><ele>490.66666666666663</ele><time>2026-04-19T11:48:26.793Z</time></trkpt><trkpt lat="42.9192872" lon="11.7194491"><ele>489.3333333333333</ele><time>2026-04-19T11:48:27.793Z</time></trkpt><trkpt lat="42.9190893" lon="11.7195129"><ele>488.0</ele><time>2026-04-19T11:48:28.793Z</time></trkpt><trkpt lat="42.9188833" lon="11.7195492"><ele>488.0</ele><time>2026-04-19T11:48:29.794Z</time></trkpt><trkpt lat="42.9186671" lon="11.7195718"><ele>488.0</ele><time>2026-04-19T11:48:30.792Z</time></trkpt><trkpt lat="42.9184451" lon="11.7195828"><ele>488.0</ele><time>2026-04-19T11:48:31.794Z</time></trkpt><trkpt lat="42.918214" lon="11.7195919"><ele>491.0</ele><time>2026-04-19T11:48:32.793Z</time></trkpt><trkpt lat="42.9179793" lon="11.7196046"><ele>494.0</ele><time>2026-04-19T11:48:33.794Z</time></trkpt><trkpt lat="42.9177363" lon="11.7196189"><ele>495.0</ele><time>2026-04-19T11:48:34.793Z</time></trkpt><trkpt lat="42.9174923" lon="11.7196341"><ele>496.0</ele><time>2026-04-19T11:48:35.792Z</time></trkpt><trkpt lat="42.9172386" lon="11.7196488"><ele>496.0</ele><time>2026-04-19T11:48:36.793Z</time></trkpt><trkpt lat="42.916986" lon="11.7196602"><ele>496.0</ele><time>2026-04-19T11:48:37.794Z</time></trkpt><trkpt lat="42.916738" lon="11.7196733"><ele>498.5</ele><time>2026-04-19T11:48:38.792Z</time></trkpt><trkpt lat="42.9165066" lon="11.7196866"><ele>501.0</ele><time>2026-04-19T11:48:39.792Z</time></trkpt><trkpt lat="42.9162868" lon="11.7197031"><ele>501.0</ele><time>2026-04-19T11:48:40.793Z</time></trkpt><trkpt lat="42.9160801" lon="11.7197104"><ele>501.0</ele><time>2026-04-19T11:48:41.792Z</time></trkpt><trkpt lat="42.9158781" lon="11.7197117"><ele>501.0</ele><time>2026-04-19T11:48:42.792Z</time></trkpt><trkpt lat="42.9156848" lon="11.7197046"><ele>502.33333333333337</ele><time>2026-04-19T11:48:43.792Z</time></trkpt><trkpt lat="42.9154907" lon="11.7196851"><ele>503.6666666666667</ele><time>2026-04-19T11:48:44.793Z</time></trkpt><trkpt lat="42.9153056" lon="11.7196483"><ele>505.0</ele><time>2026-04-19T11:48:45.792Z</time></trkpt><trkpt lat="42.915115" lon="11.7196064"><ele>506.33333333333337</ele><time>2026-04-19T11:48:46.793Z</time></trkpt><trkpt lat="42.9149214" lon="11.7195617"><ele>507.66666666666663</ele><time>2026-04-19T11:48:47.792Z</time></trkpt><trkpt lat="42.91473" lon="11.7195212"><ele>509.0</ele><time>2026-04-19T11:48:48.791Z</time></trkpt><trkpt lat="42.9145319" lon="11.7194977"><ele>509.0</ele><time>2026-04-19T11:48:49.793Z</time></trkpt><trkpt lat="42.914338" lon="11.719483"><ele>509.0</ele><time>2026-04-19T11:48:50.793Z</time></trkpt><trkpt lat="42.9141369" lon="11.7194944"><ele>509.0</ele><time>2026-04-19T11:48:51.792Z</time></trkpt><trkpt lat="42.9139326" lon="11.7195352"><ele>509.3333333333333</ele><time>2026-04-19T11:48:52.792Z</time></trkpt><trkpt lat="42.9137254" lon="11.7196005"><ele>509.66666666666663</ele><time>2026-04-19T11:48:53.792Z</time></trkpt><trkpt lat="42.913523" lon="11.7196975"><ele>510.0</ele><time>2026-04-19T11:48:54.791Z</time></trkpt><trkpt lat="42.9133216" lon="11.7198218"><ele>514.0</ele><time>2026-04-19T11:48:55.792Z</time></trkpt><trkpt lat="42.9131273" lon="11.7199771"><ele>518.0</ele><time>2026-04-19T11:48:56.793Z</time></trkpt><trkpt lat="42.9129435" lon="11.7201573"><ele>520.0</ele><time>2026-04-19T11:48:57.791Z</time></trkpt><trkpt lat="42.9127593" lon="11.7203563"><ele>522.0</ele><time>2026-04-19T11:48:58.792Z</time></trkpt><trkpt lat="42.9125789" lon="11.7205714"><ele>527.5</ele><time>2026-04-19T11:48:59.792Z</time></trkpt><trkpt lat="42.9124113" lon="11.720792"><ele>533.0</ele><time>2026-04-19T11:49:00.792Z</time></trkpt><trkpt lat="42.9122543" lon="11.7209988"><ele>531.6666666666666</ele><time>2026-04-19T11:49:01.792Z</time></trkpt><trkpt lat="42.9121029" lon="11.721191"><ele>530.3333333333334</ele><time>2026-04-19T11:49:02.793Z</time></trkpt><trkpt lat="42.9119608" lon="11.7213733"><ele>529.0</ele><time>2026-04-19T11:49:03.792Z</time></trkpt><trkpt lat="42.9118344" lon="11.7215442"><ele>531.75</ele><time>2026-04-19T11:49:04.793Z</time></trkpt><trkpt lat="42.9117207" lon="11.7217007"><ele>534.5</ele><time>2026-04-19T11:49:05.792Z</time></trkpt><trkpt lat="42.9116123" lon="11.721849"><ele>537.25</ele><time>2026-04-19T11:49:06.791Z</time></trkpt><trkpt lat="42.9115136" lon="11.7219723"><ele>540.0</ele><time>2026-04-19T11:49:07.791Z</time></trkpt><trkpt lat="42.9114282" lon="11.7220823"><ele>540.0</ele><time>2026-04-19T11:49:08.791Z</time></trkpt><trkpt lat="42.9113539" lon="11.7221798"><ele>540.0</ele><time>2026-04-19T11:49:09.792Z</time></trkpt><trkpt lat="42.9112853" lon="11.7222751"><ele>540.0</ele><time>2026-04-19T11:49:10.792Z</time></trkpt><trkpt lat="42.9112331" lon="11.7223542"><ele>540.0</ele><time>2026-04-19T11:49:11.793Z</time></trkpt><trkpt lat="42.9111894" lon="11.7224183"><ele>540.0</ele><time>2026-04-19T11:49:12.792Z</time></trkpt><trkpt lat="42.911125" lon="11.7225086"><ele>540.0</ele><time>2026-04-19T11:49:14.792Z</time></trkpt><trkpt lat="42.9110716" lon="11.7225709"><ele>540.0</ele><time>2026-04-19T11:51:58.791Z</time></trkpt><trkpt lat="42.910979" lon="11.7227098"><ele>540.0</ele><time>2026-04-19T11:52:00.792Z</time></trkpt><trkpt lat="42.91091" lon="11.7228032"><ele>540.0</ele><time>2026-04-19T11:52:01.791Z</time></trkpt><trkpt lat="42.9108248" lon="11.7229107"><ele>540.0</ele><time>2026-04-19T11:52:02.792Z</time></trkpt><trkpt lat="42.9107315" lon="11.723032"><ele>541.5</ele><time>2026-04-19T11:52:03.792Z</time></trkpt><trkpt lat="42.9106399" lon="11.7231585"><ele>543.0</ele><time>2026-04-19T11:52:04.791Z</time></trkpt><trkpt lat="42.9105472" lon="11.7232754"><ele>544.5</ele><time>2026-04-19T11:52:05.791Z</time></trkpt><trkpt lat="42.9104499" lon="11.7233833"><ele>546.0</ele><time>2026-04-19T11:52:06.79Z</time></trkpt><trkpt lat="42.9030353" lon="11.7274921"><ele>539.3333333333334</ele><time>2026-04-19T11:52:53.792Z</time></trkpt><trkpt lat="42.9027867" lon="11.7273733"><ele>532.6666666666667</ele><time>2026-04-19T11:52:55.792Z</time></trkpt><trkpt lat="42.9026388" lon="11.7273331"><ele>526.0</ele><time>2026-04-19T11:52:56.791Z</time></trkpt><trkpt lat="42.9024748" lon="11.727275"><ele>519.6666666666667</ele><time>2026-04-19T11:52:57.791Z</time></trkpt><trkpt lat="42.9022886" lon="11.7271969"><ele>513.3333333333334</ele><time>2026-04-19T11:52:58.791Z</time></trkpt><trkpt lat="42.9021033" lon="11.7271232"><ele>507.0</ele><time>2026-04-19T11:52:59.791Z</time></trkpt><trkpt lat="42.9019161" lon="11.7270508"><ele>505.66666666666663</ele><time>2026-04-19T11:53:00.79Z</time></trkpt><trkpt lat="42.9017204" lon="11.7269796"><ele>504.3333333333333</ele><time>2026-04-19T11:53:01.79Z</time></trkpt><trkpt lat="42.9015193" lon="11.7269078"><ele>503.0</ele><time>2026-04-19T11:53:02.791Z</time></trkpt><trkpt lat="42.9013193" lon="11.7268396"><ele>505.3333333333333</ele><time>2026-04-19T11:53:03.791Z</time></trkpt><trkpt lat="42.9011152" lon="11.7267876"><ele>507.66666666666663</ele><time>2026-04-19T11:53:04.791Z</time></trkpt><trkpt lat="42.9009082" lon="11.7267683"><ele>510.0</ele><time>2026-04-19T11:53:05.791Z</time></trkpt><trkpt lat="42.9006968" lon="11.7267729"><ele>510.0</ele><time>2026-04-19T11:53:06.792Z</time></trkpt><trkpt lat="42.9004855" lon="11.7268076"><ele>510.0</ele><time>2026-04-19T11:53:07.792Z</time></trkpt><trkpt lat="42.9002785" lon="11.7268744"><ele>510.0</ele><time>2026-04-19T11:53:08.792Z</time></trkpt><trkpt lat="42.9000738" lon="11.7269627"><ele>505.33333333333337</ele><time>2026-04-19T11:53:09.791Z</time></trkpt><trkpt lat="42.8998765" lon="11.727071"><ele>500.6666666666667</ele><time>2026-04-19T11:53:10.791Z</time></trkpt><trkpt lat="42.8996788" lon="11.7271807"><ele>496.0</ele><time>2026-04-19T11:53:11.792Z</time></trkpt><trkpt lat="42.8994742" lon="11.7272882"><ele>496.0</ele><time>2026-04-19T11:53:12.792Z</time></trkpt><trkpt lat="42.8992719" lon="11.7273925"><ele>496.0</ele><time>2026-04-19T11:53:13.791Z</time></trkpt><trkpt lat="42.8990646" lon="11.7274981"><ele>496.0</ele><time>2026-04-19T11:53:14.791Z</time></trkpt><trkpt lat="42.898855" lon="11.7275972"><ele>496.33333333333337</ele><time>2026-04-19T11:53:15.792Z</time></trkpt><trkpt lat="42.8986489" lon="11.7276782"><ele>496.66666666666663</ele><time>2026-04-19T11:53:16.79Z</time></trkpt><trkpt lat="42.8984496" lon="11.7277295"><ele>497.0</ele><time>2026-04-19T11:53:17.792Z</time></trkpt><trkpt lat="42.8982488" lon="11.7277622"><ele>498.0</ele><time>2026-04-19T11:53:18.792Z</time></trkpt><trkpt lat="42.8980529" lon="11.727767"><ele>499.0</ele><time>2026-04-19T11:53:19.791Z</time></trkpt><trkpt lat="42.8978578" lon="11.7277397"><ele>500.0</ele><time>2026-04-19T11:53:20.791Z</time></trkpt><trkpt lat="42.8976611" lon="11.7276837"><ele>497.3333333333333</ele><time>2026-04-19T11:53:21.792Z</time></trkpt><trkpt lat="42.8974676" lon="11.7275989"><ele>494.66666666666663</ele><time>2026-04-19T11:53:22.79Z</time></trkpt><trkpt lat="42.8972792" lon="11.7274818"><ele>492.0</ele><time>2026-04-19T11:53:23.791Z</time></trkpt><trkpt lat="42.8970905" lon="11.7273427"><ele>492.0</ele><time>2026-04-19T11:53:24.791Z</time></trkpt><trkpt lat="42.896901" lon="11.7271903"><ele>492.0</ele><time>2026-04-19T11:53:25.792Z</time></trkpt><trkpt lat="42.8967095" lon="11.727026"><ele>492.0</ele><time>2026-04-19T11:53:26.791Z</time></trkpt><trkpt lat="42.8965164" lon="11.7268552"><ele>490.5</ele><time>2026-04-19T11:53:27.792Z</time></trkpt><trkpt lat="42.8963223" lon="11.7266805"><ele>489.0</ele><time>2026-04-19T11:53:28.792Z</time></trkpt><trkpt lat="42.8961257" lon="11.7265178"><ele>489.0</ele><time>2026-04-19T11:53:29.79Z</time></trkpt><trkpt lat="42.8959294" lon="11.7263717"><ele>489.0</ele><time>2026-04-19T11:53:30.792Z</time></trkpt><trkpt lat="42.8957338" lon="11.7262437"><ele>489.0</ele><time>2026-04-19T11:53:31.791Z</time></trkpt><trkpt lat="42.8955412" lon="11.7261206"><ele>488.66666666666663</ele><time>2026-04-19T11:53:32.792Z</time></trkpt><trkpt lat="42.8953594" lon="11.7259901"><ele>488.3333333333333</ele><time>2026-04-19T11:53:33.792Z</time></trkpt><trkpt lat="42.8951775" lon="11.7258506"><ele>488.0</ele><time>2026-04-19T11:53:34.792Z</time></trkpt><trkpt lat="42.8950029" lon="11.7257011"><ele>487.66666666666663</ele><time>2026-04-19T11:53:35.79Z</time></trkpt><trkpt lat="42.8948329" lon="11.7255389"><ele>487.33333333333337</ele><time>2026-04-19T11:53:36.791Z</time></trkpt><trkpt lat="42.8946717" lon="11.7253648"><ele>487.0</ele><time>2026-04-19T11:53:37.792Z</time></trkpt><trkpt lat="42.8945083" lon="11.7251841"><ele>487.0</ele><time>2026-04-19T11:53:38.791Z</time></trkpt><trkpt lat="42.8943425" lon="11.725012"><ele>487.0</ele><time>2026-04-19T11:53:39.791Z</time></trkpt><trkpt lat="42.8941673" lon="11.7248502"><ele>487.0</ele><time>2026-04-19T11:53:40.791Z</time></trkpt><trkpt lat="42.8939816" lon="11.7246987"><ele>480.6666666666667</ele><time>2026-04-19T11:53:41.792Z</time></trkpt><trkpt lat="42.8937864" lon="11.7245668"><ele>474.33333333333337</ele><time>2026-04-19T11:53:42.791Z</time></trkpt><trkpt lat="42.8935832" lon="11.7244533"><ele>468.0</ele><time>2026-04-19T11:53:43.792Z</time></trkpt><trkpt lat="42.8933785" lon="11.7243513"><ele>468.0</ele><time>2026-04-19T11:53:44.792Z</time></trkpt><trkpt lat="42.8931718" lon="11.7242666"><ele>468.0</ele><time>2026-04-19T11:53:45.791Z</time></trkpt><trkpt lat="42.8929713" lon="11.7241875"><ele>468.0</ele><time>2026-04-19T11:53:46.791Z</time></trkpt><trkpt lat="42.8927754" lon="11.7241068"><ele>464.0</ele><time>2026-04-19T11:53:47.792Z</time></trkpt><trkpt lat="42.8925749" lon="11.7240285"><ele>460.0</ele><time>2026-04-19T11:53:48.791Z</time></trkpt><trkpt lat="42.8923737" lon="11.7239419"><ele>456.0</ele><time>2026-04-19T11:53:49.791Z</time></trkpt><trkpt lat="42.8921761" lon="11.7238387"><ele>456.0</ele><time>2026-04-19T11:53:50.791Z</time></trkpt><trkpt lat="42.8919885" lon="11.7237097"><ele>456.0</ele><time>2026-04-19T11:53:51.791Z</time></trkpt><trkpt lat="42.8918054" lon="11.7235571"><ele>456.0</ele><time>2026-04-19T11:53:52.79Z</time></trkpt><trkpt lat="42.8916221" lon="11.7233871"><ele>455.0</ele><time>2026-04-19T11:53:53.79Z</time></trkpt><trkpt lat="42.8914553" lon="11.7231986"><ele>454.0</ele><time>2026-04-19T11:53:54.791Z</time></trkpt><trkpt lat="42.8913067" lon="11.7229918"><ele>453.0</ele><time>2026-04-19T11:53:55.79Z</time></trkpt><trkpt lat="42.8911712" lon="11.7227773"><ele>451.33333333333337</ele><time>2026-04-19T11:53:56.79Z</time></trkpt><trkpt lat="42.8910355" lon="11.7225555"><ele>449.6666666666667</ele><time>2026-04-19T11:53:57.791Z</time></trkpt><trkpt lat="42.8909073" lon="11.7223292"><ele>448.0</ele><time>2026-04-19T11:53:58.791Z</time></trkpt><trkpt lat="42.8907762" lon="11.7221008"><ele>443.33333333333337</ele><time>2026-04-19T11:53:59.791Z</time></trkpt><trkpt lat="42.8906394" lon="11.7218771"><ele>438.66666666666663</ele><time>2026-04-19T11:54:00.792Z</time></trkpt><trkpt lat="42.8904922" lon="11.7216608"><ele>434.0</ele><time>2026-04-19T11:54:01.791Z</time></trkpt><trkpt lat="42.8903316" lon="11.7214521"><ele>434.0</ele><time>2026-04-19T11:54:02.791Z</time></trkpt><trkpt lat="42.8901573" lon="11.7212616"><ele>434.0</ele><time>2026-04-19T11:54:03.791Z</time></trkpt><trkpt lat="42.8899758" lon="11.7210928"><ele>434.0</ele><time>2026-04-19T11:54:04.79Z</time></trkpt><trkpt lat="42.8897725" lon="11.7209422"><ele>436.0</ele><time>2026-04-19T11:54:05.791Z</time></trkpt><trkpt lat="42.8895646" lon="11.7208152"><ele>438.0</ele><time>2026-04-19T11:54:06.791Z</time></trkpt><trkpt lat="42.8893448" lon="11.7207144"><ele>434.5</ele><time>2026-04-19T11:54:07.792Z</time></trkpt><trkpt lat="42.8891188" lon="11.7206418"><ele>431.0</ele><time>2026-04-19T11:54:08.792Z</time></trkpt><trkpt lat="42.8888825" lon="11.7205921"><ele>431.0</ele><time>2026-04-19T11:54:09.791Z</time></trkpt><trkpt lat="42.8886538" lon="11.7205784"><ele>431.0</ele><time>2026-04-19T11:54:10.792Z</time></trkpt><trkpt lat="42.888425" lon="11.7205851"><ele>427.66666666666663</ele><time>2026-04-19T11:54:11.792Z</time></trkpt><trkpt lat="42.8882012" lon="11.7206189"><ele>424.33333333333337</ele><time>2026-04-19T11:54:12.792Z</time></trkpt><trkpt lat="42.8879852" lon="11.7206885"><ele>421.0</ele><time>2026-04-19T11:54:13.792Z</time></trkpt><trkpt lat="42.887777" lon="11.7207769"><ele>419.33333333333337</ele><time>2026-04-19T11:54:14.792Z</time></trkpt><trkpt lat="42.8875726" lon="11.7208923"><ele>417.66666666666663</ele><time>2026-04-19T11:54:15.79Z</time></trkpt><trkpt lat="42.8873773" lon="11.721044"><ele>416.0</ele><time>2026-04-19T11:54:16.792Z</time></trkpt><trkpt lat="42.8871908" lon="11.721215"><ele>413.5</ele><time>2026-04-19T11:54:17.79Z</time></trkpt><trkpt lat="42.887011" lon="11.7214032"><ele>411.0</ele><time>2026-04-19T11:54:18.791Z</time></trkpt><trkpt lat="42.8868428" lon="11.721619"><ele>411.0</ele><time>2026-04-19T11:54:19.79Z</time></trkpt><trkpt lat="42.886686" lon="11.7218601"><ele>411.0</ele><time>2026-04-19T11:54:20.79Z</time></trkpt><trkpt lat="42.8865488" lon="11.7221179"><ele>411.0</ele><time>2026-04-19T11:54:21.791Z</time></trkpt><trkpt lat="42.8864254" lon="11.7223942"><ele>411.0</ele><time>2026-04-19T11:54:22.791Z</time></trkpt><trkpt lat="42.8863183" lon="11.722687"><ele>409.5</ele><time>2026-04-19T11:54:23.79Z</time></trkpt><trkpt lat="42.886219" lon="11.7229842"><ele>408.0</ele><time>2026-04-19T11:54:24.79Z</time></trkpt><trkpt lat="42.8861216" lon="11.7232838"><ele>406.5</ele><time>2026-04-19T11:54:25.79Z</time></trkpt><trkpt lat="42.8860181" lon="11.7235781"><ele>405.0</ele><time>2026-04-19T11:54:26.791Z</time></trkpt><trkpt lat="42.8859033" lon="11.7238577"><ele>409.0</ele><time>2026-04-19T11:54:27.791Z</time></trkpt><trkpt lat="42.8857758" lon="11.7241206"><ele>413.0</ele><time>2026-04-19T11:54:28.79Z</time></trkpt><trkpt lat="42.8856389" lon="11.7243607"><ele>410.3333333333333</ele><time>2026-04-19T11:54:29.79Z</time></trkpt><trkpt lat="42.8854898" lon="11.7245818"><ele>407.66666666666663</ele><time>2026-04-19T11:54:30.79Z</time></trkpt><trkpt lat="42.8853305" lon="11.7247832"><ele>405.0</ele><time>2026-04-19T11:54:31.79Z</time></trkpt><trkpt lat="42.8851645" lon="11.7249743"><ele>404.33333333333337</ele><time>2026-04-19T11:54:32.79Z</time></trkpt><trkpt lat="42.8849965" lon="11.725157"><ele>403.6666666666667</ele><time>2026-04-19T11:54:33.789Z</time></trkpt><trkpt lat="42.8848354" lon="11.7253309"><ele>403.0</ele><time>2026-04-19T11:54:34.79Z</time></trkpt><trkpt lat="42.8846668" lon="11.725507"><ele>403.0</ele><time>2026-04-19T11:54:35.79Z</time></trkpt><trkpt lat="42.884492" lon="11.7256738"><ele>403.0</ele><time>2026-04-19T11:54:36.791Z</time></trkpt><trkpt lat="42.8843125" lon="11.7258241"><ele>403.0</ele><time>2026-04-19T11:54:37.789Z</time></trkpt><trkpt lat="42.8841232" lon="11.7259616"><ele>403.0</ele><time>2026-04-19T11:54:38.79Z</time></trkpt><trkpt lat="42.8839316" lon="11.726076"><ele>403.0</ele><time>2026-04-19T11:54:39.79Z</time></trkpt><trkpt lat="42.8837333" lon="11.7261754"><ele>403.0</ele><time>2026-04-19T11:54:40.791Z</time></trkpt><trkpt lat="42.8835316" lon="11.7262655"><ele>403.33333333333337</ele><time>2026-04-19T11:54:41.791Z</time></trkpt><trkpt lat="42.8833283" lon="11.7263519"><ele>403.66666666666663</ele><time>2026-04-19T11:54:42.79Z</time></trkpt><trkpt lat="42.8831244" lon="11.7264413"><ele>404.0</ele><time>2026-04-19T11:54:43.791Z</time></trkpt><trkpt lat="42.882918" lon="11.7265363"><ele>404.0</ele><time>2026-04-19T11:54:44.791Z</time></trkpt><trkpt lat="42.8827089" lon="11.7266317"><ele>404.0</ele><time>2026-04-19T11:54:45.791Z</time></trkpt><trkpt lat="42.8824968" lon="11.7267227"><ele>404.0</ele><time>2026-04-19T11:54:46.79Z</time></trkpt><trkpt lat="42.8822811" lon="11.7268154"><ele>400.0</ele><time>2026-04-19T11:54:47.79Z</time></trkpt><trkpt lat="42.8820621" lon="11.7269087"><ele>396.0</ele><time>2026-04-19T11:54:48.791Z</time></trkpt><trkpt lat="42.8818402" lon="11.7270033"><ele>397.0</ele><time>2026-04-19T11:54:49.791Z</time></trkpt><trkpt lat="42.8816175" lon="11.7270968"><ele>398.0</ele><time>2026-04-19T11:54:50.79Z</time></trkpt><trkpt lat="42.8813945" lon="11.7271915"><ele>398.0</ele><time>2026-04-19T11:54:51.79Z</time></trkpt><trkpt lat="42.8811688" lon="11.727288"><ele>398.0</ele><time>2026-04-19T11:54:52.79Z</time></trkpt><trkpt lat="42.8809419" lon="11.7273871"><ele>398.0</ele><time>2026-04-19T11:54:53.789Z</time></trkpt><trkpt lat="42.8807158" lon="11.7274883"><ele>398.0</ele><time>2026-04-19T11:54:54.79Z</time></trkpt><trkpt lat="42.8804803" lon="11.7275867"><ele>398.0</ele><time>2026-04-19T11:54:55.791Z</time></trkpt><trkpt lat="42.8802467" lon="11.7276962"><ele>398.0</ele><time>2026-04-19T11:54:56.791Z</time></trkpt><trkpt lat="42.8800117" lon="11.727813"><ele>393.5</ele><time>2026-04-19T11:54:57.789Z</time></trkpt><trkpt lat="42.8797761" lon="11.7279462"><ele>389.0</ele><time>2026-04-19T11:54:58.789Z</time></trkpt><trkpt lat="42.8795417" lon="11.728093"><ele>389.0</ele><time>2026-04-19T11:54:59.791Z</time></trkpt><trkpt lat="42.8793074" lon="11.7282482"><ele>389.0</ele><time>2026-04-19T11:55:00.791Z</time></trkpt><trkpt lat="42.8790726" lon="11.728409"><ele>385.5</ele><time>2026-04-19T11:55:01.791Z</time></trkpt><trkpt lat="42.8788381" lon="11.7285793"><ele>382.0</ele><time>2026-04-19T11:55:02.791Z</time></trkpt><trkpt lat="42.8786052" lon="11.728762"><ele>384.0</ele><time>2026-04-19T11:55:03.79Z</time></trkpt><trkpt lat="42.8783813" lon="11.7289527"><ele>386.0</ele><time>2026-04-19T11:55:04.791Z</time></trkpt><trkpt lat="42.8781632" lon="11.729151"><ele>386.0</ele><time>2026-04-19T11:55:05.791Z</time></trkpt><trkpt lat="42.8779444" lon="11.7293638"><ele>386.0</ele><time>2026-04-19T11:55:06.789Z</time></trkpt><trkpt lat="42.877728" lon="11.7295834"><ele>387.5</ele><time>2026-04-19T11:55:07.789Z</time></trkpt><trkpt lat="42.8775196" lon="11.7298063"><ele>389.0</ele><time>2026-04-19T11:55:08.79Z</time></trkpt><trkpt lat="42.8773119" lon="11.7300234"><ele>388.0</ele><time>2026-04-19T11:55:09.791Z</time></trkpt><trkpt lat="42.877105" lon="11.7302397"><ele>387.0</ele><time>2026-04-19T11:55:10.791Z</time></trkpt><trkpt lat="42.8769048" lon="11.7304617"><ele>387.5</ele><time>2026-04-19T11:55:11.791Z</time></trkpt><trkpt lat="42.8767034" lon="11.7306781"><ele>388.0</ele><time>2026-04-19T11:55:12.79Z</time></trkpt><trkpt lat="42.8765068" lon="11.7308889"><ele>385.0</ele><time>2026-04-19T11:55:13.791Z</time></trkpt><trkpt lat="42.876306" lon="11.7311007"><ele>382.0</ele><time>2026-04-19T11:55:14.79Z</time></trkpt><trkpt lat="42.8761044" lon="11.7313174"><ele>382.5</ele><time>2026-04-19T11:55:15.791Z</time></trkpt><trkpt lat="42.8759016" lon="11.7315304"><ele>383.0</ele><time>2026-04-19T11:55:16.791Z</time></trkpt><trkpt lat="42.8757016" lon="11.7317414"><ele>381.5</ele><time>2026-04-19T11:55:17.791Z</time></trkpt><trkpt lat="42.8754991" lon="11.7319521"><ele>380.0</ele><time>2026-04-19T11:55:18.791Z</time></trkpt><trkpt lat="42.8752955" lon="11.7321624"><ele>378.5</ele><time>2026-04-19T11:55:19.79Z</time></trkpt><trkpt lat="42.8750918" lon="11.7323747"><ele>377.0</ele><time>2026-04-19T11:55:20.79Z</time></trkpt><trkpt lat="42.8748891" lon="11.7325921"><ele>377.0</ele><time>2026-04-19T11:55:21.789Z</time></trkpt><trkpt lat="42.8746858" lon="11.7328087"><ele>377.0</ele><time>2026-04-19T11:55:22.79Z</time></trkpt><trkpt lat="42.8744876" lon="11.7330287"><ele>377.0</ele><time>2026-04-19T11:55:23.79Z</time></trkpt><trkpt lat="42.8742876" lon="11.7332447"><ele>377.0</ele><time>2026-04-19T11:55:24.79Z</time></trkpt><trkpt lat="42.8740932" lon="11.7334613"><ele>376.5</ele><time>2026-04-19T11:55:25.791Z</time></trkpt><trkpt lat="42.8739049" lon="11.7336901"><ele>376.0</ele><time>2026-04-19T11:55:26.791Z</time></trkpt><trkpt lat="42.8737297" lon="11.7339275"><ele>376.0</ele><time>2026-04-19T11:55:27.791Z</time></trkpt><trkpt lat="42.8735571" lon="11.7341784"><ele>376.0</ele><time>2026-04-19T11:55:28.79Z</time></trkpt><trkpt lat="42.8733866" lon="11.7344409"><ele>373.0</ele><time>2026-04-19T11:55:29.79Z</time></trkpt><trkpt lat="42.8732196" lon="11.7347107"><ele>370.0</ele><time>2026-04-19T11:55:30.791Z</time></trkpt><trkpt lat="42.8730591" lon="11.7349878"><ele>369.5</ele><time>2026-04-19T11:55:31.791Z</time></trkpt><trkpt lat="42.8729046" lon="11.7352778"><ele>369.0</ele><time>2026-04-19T11:55:32.791Z</time></trkpt><trkpt lat="42.8727605" lon="11.7355788"><ele>369.0</ele><time>2026-04-19T11:55:33.791Z</time></trkpt><trkpt lat="42.8726223" lon="11.7358914"><ele>369.0</ele><time>2026-04-19T11:55:34.79Z</time></trkpt><trkpt lat="42.8724913" lon="11.7362143"><ele>368.5</ele><time>2026-04-19T11:55:35.79Z</time></trkpt><trkpt lat="42.8723651" lon="11.7365381"><ele>368.0</ele><time>2026-04-19T11:55:36.791Z</time></trkpt><trkpt lat="42.8722448" lon="11.7368599"><ele>367.5</ele><time>2026-04-19T11:55:37.79Z</time></trkpt><trkpt lat="42.872128" lon="11.7371795"><ele>367.0</ele><time>2026-04-19T11:55:38.79Z</time></trkpt><trkpt lat="42.8720156" lon="11.7374956"><ele>367.0</ele><time>2026-04-19T11:55:39.79Z</time></trkpt><trkpt lat="42.8719051" lon="11.737806"><ele>367.0</ele><time>2026-04-19T11:55:40.79Z</time></trkpt><trkpt lat="42.8718011" lon="11.7381081"><ele>367.3333333333333</ele><time>2026-04-19T11:55:41.791Z</time></trkpt><trkpt lat="42.871703" lon="11.7383795"><ele>367.6666666666667</ele><time>2026-04-19T11:55:42.791Z</time></trkpt><trkpt lat="42.8716077" lon="11.7386208"><ele>368.0</ele><time>2026-04-19T11:55:43.79Z</time></trkpt><trkpt lat="42.8714982" lon="11.7388341"><ele>368.33333333333337</ele><time>2026-04-19T11:55:44.791Z</time></trkpt><trkpt lat="42.871371" lon="11.739027"><ele>368.6666666666667</ele><time>2026-04-19T11:55:45.79Z</time></trkpt><trkpt lat="42.8712293" lon="11.7391906"><ele>369.0</ele><time>2026-04-19T11:55:46.79Z</time></trkpt><trkpt lat="42.8710685" lon="11.7393182"><ele>367.3333333333333</ele><time>2026-04-19T11:55:47.791Z</time></trkpt><trkpt lat="42.8709001" lon="11.739408"><ele>365.66666666666663</ele><time>2026-04-19T11:55:48.791Z</time></trkpt><trkpt lat="42.8707478" lon="11.7394947"><ele>364.0</ele><time>2026-04-19T11:55:49.79Z</time></trkpt><trkpt lat="42.8706264" lon="11.7396032"><ele>364.0</ele><time>2026-04-19T11:55:50.789Z</time></trkpt><trkpt lat="42.8705248" lon="11.7397278"><ele>364.0</ele><time>2026-04-19T11:55:51.79Z</time></trkpt><trkpt lat="42.8704534" lon="11.7398669"><ele>364.0</ele><time>2026-04-19T11:55:52.791Z</time></trkpt><trkpt lat="42.8704205" lon="11.7400204"><ele>364.0</ele><time>2026-04-19T11:55:53.79Z</time></trkpt><trkpt lat="42.8704273" lon="11.7401964"><ele>363.75</ele><time>2026-04-19T11:55:54.791Z</time></trkpt><trkpt lat="42.8704504" lon="11.7403929"><ele>363.5</ele><time>2026-04-19T11:55:55.79Z</time></trkpt><trkpt lat="42.8704838" lon="11.7405837"><ele>363.25</ele><time>2026-04-19T11:55:56.79Z</time></trkpt><trkpt lat="42.8705139" lon="11.7407606"><ele>363.0</ele><time>2026-04-19T11:55:57.791Z</time></trkpt><trkpt lat="42.8705371" lon="11.7409159"><ele>364.5</ele><time>2026-04-19T11:55:58.791Z</time></trkpt><trkpt lat="42.8705474" lon="11.7410571"><ele>366.0</ele><time>2026-04-19T11:55:59.791Z</time></trkpt><trkpt lat="42.8705289" lon="11.7411664"><ele>367.5</ele><time>2026-04-19T11:56:00.79Z</time></trkpt><trkpt lat="42.8704878" lon="11.7412469"><ele>369.0</ele><time>2026-04-19T11:56:01.791Z</time></trkpt><trkpt lat="42.8704245" lon="11.7413116"><ele>370.5</ele><time>2026-04-19T11:56:02.791Z</time></trkpt><trkpt lat="42.8703321" lon="11.7413818"><ele>372.0</ele><time>2026-04-19T11:56:03.791Z</time></trkpt><trkpt lat="42.870204" lon="11.7414613"><ele>368.6666666666667</ele><time>2026-04-19T11:56:04.791Z</time></trkpt><trkpt lat="42.8700598" lon="11.7415478"><ele>365.33333333333337</ele><time>2026-04-19T11:56:05.789Z</time></trkpt><trkpt lat="42.8699012" lon="11.7416448"><ele>362.0</ele><time>2026-04-19T11:56:06.79Z</time></trkpt><trkpt lat="42.8696905" lon="11.7417638"><ele>362.0</ele><time>2026-04-19T11:56:07.79Z</time></trkpt><trkpt lat="42.8694813" lon="11.7418735"><ele>362.0</ele><time>2026-04-19T11:56:08.791Z</time></trkpt><trkpt lat="42.8692561" lon="11.741998"><ele>364.0</ele><time>2026-04-19T11:56:09.789Z</time></trkpt><trkpt lat="42.8690231" lon="11.7421247"><ele>366.0</ele><time>2026-04-19T11:56:10.79Z</time></trkpt><trkpt lat="42.8687976" lon="11.7422482"><ele>366.0</ele><time>2026-04-19T11:56:11.791Z</time></trkpt><trkpt lat="42.8685728" lon="11.7423756"><ele>366.0</ele><time>2026-04-19T11:56:12.791Z</time></trkpt><trkpt lat="42.8683604" lon="11.7425059"><ele>367.3333333333333</ele><time>2026-04-19T11:56:13.79Z</time></trkpt><trkpt lat="42.8681645" lon="11.7426573"><ele>368.66666666666663</ele><time>2026-04-19T11:56:14.79Z</time></trkpt><trkpt lat="42.8679756" lon="11.7428102"><ele>370.0</ele><time>2026-04-19T11:56:15.791Z</time></trkpt><trkpt lat="42.8677883" lon="11.7429655"><ele>367.0</ele><time>2026-04-19T11:56:16.79Z</time></trkpt><trkpt lat="42.8676062" lon="11.7431211"><ele>364.0</ele><time>2026-04-19T11:56:17.791Z</time></trkpt><trkpt lat="42.8674282" lon="11.7432774"><ele>361.0</ele><time>2026-04-19T11:56:18.789Z</time></trkpt><trkpt lat="42.8672532" lon="11.7434282"><ele>361.3333333333333</ele><time>2026-04-19T11:56:19.789Z</time></trkpt><trkpt lat="42.867084" lon="11.7435684"><ele>361.6666666666667</ele><time>2026-04-19T11:56:20.791Z</time></trkpt><trkpt lat="42.8669017" lon="11.7437154"><ele>362.0</ele><time>2026-04-19T11:56:21.791Z</time></trkpt><trkpt lat="42.8667124" lon="11.7438465"><ele>360.6666666666667</ele><time>2026-04-19T11:56:22.791Z</time></trkpt><trkpt lat="42.8665149" lon="11.7439679"><ele>359.3333333333333</ele><time>2026-04-19T11:56:23.79Z</time></trkpt><trkpt lat="42.8663102" lon="11.7440691"><ele>358.0</ele><time>2026-04-19T11:56:24.791Z</time></trkpt><trkpt lat="42.8661017" lon="11.7441628"><ele>356.5</ele><time>2026-04-19T11:56:25.79Z</time></trkpt><trkpt lat="42.8658879" lon="11.74425"><ele>355.0</ele><time>2026-04-19T11:56:26.791Z</time></trkpt><trkpt lat="42.8656698" lon="11.7443357"><ele>361.5</ele><time>2026-04-19T11:56:27.79Z</time></trkpt><trkpt lat="42.8654492" lon="11.7444241"><ele>368.0</ele><time>2026-04-19T11:56:28.789Z</time></trkpt><trkpt lat="42.8652286" lon="11.7445186"><ele>362.0</ele><time>2026-04-19T11:56:29.79Z</time></trkpt><trkpt lat="42.8650059" lon="11.7446184"><ele>356.0</ele><time>2026-04-19T11:56:30.789Z</time></trkpt><trkpt lat="42.8647836" lon="11.7447304"><ele>356.0</ele><time>2026-04-19T11:56:31.79Z</time></trkpt><trkpt lat="42.8645596" lon="11.7448467"><ele>356.0</ele><time>2026-04-19T11:56:32.79Z</time></trkpt><trkpt lat="42.8643321" lon="11.7449656"><ele>355.0</ele><time>2026-04-19T11:56:33.79Z</time></trkpt><trkpt lat="42.8641025" lon="11.7450814"><ele>354.0</ele><time>2026-04-19T11:56:34.789Z</time></trkpt><trkpt lat="42.8638642" lon="11.7451915"><ele>355.5</ele><time>2026-04-19T11:56:35.79Z</time></trkpt><trkpt lat="42.8636164" lon="11.7452883"><ele>357.0</ele><time>2026-04-19T11:56:36.789Z</time></trkpt><trkpt lat="42.8633624" lon="11.7453741"><ele>357.0</ele><time>2026-04-19T11:56:37.79Z</time></trkpt><trkpt lat="42.8631066" lon="11.7454571"><ele>357.0</ele><time>2026-04-19T11:56:38.791Z</time></trkpt><trkpt lat="42.8628486" lon="11.7455416"><ele>354.0</ele><time>2026-04-19T11:56:39.791Z</time></trkpt><trkpt lat="42.8625945" lon="11.7456229"><ele>351.0</ele><time>2026-04-19T11:56:40.791Z</time></trkpt><trkpt lat="42.8623594" lon="11.7457051"><ele>351.0</ele><time>2026-04-19T11:56:41.79Z</time></trkpt><trkpt lat="42.8621217" lon="11.7457999"><ele>351.0</ele><time>2026-04-19T11:56:42.79Z</time></trkpt><trkpt lat="42.8618919" lon="11.745901"><ele>350.0</ele><time>2026-04-19T11:56:43.791Z</time></trkpt><trkpt lat="42.8616677" lon="11.7460199"><ele>349.0</ele><time>2026-04-19T11:56:44.79Z</time></trkpt><trkpt lat="42.8614407" lon="11.7461611"><ele>353.5</ele><time>2026-04-19T11:56:45.79Z</time></trkpt><trkpt lat="42.8612168" lon="11.7463072"><ele>358.0</ele><time>2026-04-19T11:56:46.79Z</time></trkpt><trkpt lat="42.8609925" lon="11.7464571"><ele>355.0</ele><time>2026-04-19T11:56:47.791Z</time></trkpt><trkpt lat="42.8607681" lon="11.7466037"><ele>352.0</ele><time>2026-04-19T11:56:48.791Z</time></trkpt><trkpt lat="42.8605497" lon="11.7467468"><ele>355.5</ele><time>2026-04-19T11:56:49.79Z</time></trkpt><trkpt lat="42.8603356" lon="11.7468914"><ele>359.0</ele><time>2026-04-19T11:56:50.791Z</time></trkpt><trkpt lat="42.8601298" lon="11.7470447"><ele>353.5</ele><time>2026-04-19T11:56:51.79Z</time></trkpt><trkpt lat="42.8599298" lon="11.7472183"><ele>348.0</ele><time>2026-04-19T11:56:52.791Z</time></trkpt><trkpt lat="42.8597363" lon="11.7474054"><ele>348.0</ele><time>2026-04-19T11:56:53.79Z</time></trkpt><trkpt lat="42.8595385" lon="11.7476039"><ele>348.0</ele><time>2026-04-19T11:56:54.791Z</time></trkpt><trkpt lat="42.8593395" lon="11.7478014"><ele>346.5</ele><time>2026-04-19T11:56:55.789Z</time></trkpt><trkpt lat="42.8591363" lon="11.7479953"><ele>345.0</ele><time>2026-04-19T11:56:56.791Z</time></trkpt><trkpt lat="42.8589378" lon="11.7481866"><ele>345.0</ele><time>2026-04-19T11:56:57.791Z</time></trkpt><trkpt lat="42.8587442" lon="11.7483745"><ele>345.0</ele><time>2026-04-19T11:56:58.79Z</time></trkpt><trkpt lat="42.858557" lon="11.74856"><ele>344.6666666666667</ele><time>2026-04-19T11:56:59.791Z</time></trkpt><trkpt lat="42.8583801" lon="11.7487311"><ele>344.33333333333337</ele><time>2026-04-19T11:57:00.79Z</time></trkpt><trkpt lat="42.8582077" lon="11.7489008"><ele>344.0</ele><time>2026-04-19T11:57:01.79Z</time></trkpt><trkpt lat="42.8580276" lon="11.749067"><ele>344.0</ele><time>2026-04-19T11:57:02.791Z</time></trkpt><trkpt lat="42.8578423" lon="11.7492136"><ele>344.0</ele><time>2026-04-19T11:57:03.79Z</time></trkpt><trkpt lat="42.8576568" lon="11.7493415"><ele>344.0</ele><time>2026-04-19T11:57:04.789Z</time></trkpt><trkpt lat="42.8574508" lon="11.7494626"><ele>348.5</ele><time>2026-04-19T11:57:05.79Z</time></trkpt><trkpt lat="42.8572359" lon="11.7495568"><ele>353.0</ele><time>2026-04-19T11:57:06.79Z</time></trkpt><trkpt lat="42.8570111" lon="11.7496356"><ele>350.0</ele><time>2026-04-19T11:57:07.791Z</time></trkpt><trkpt lat="42.8567821" lon="11.7497105"><ele>347.0</ele><time>2026-04-19T11:57:08.791Z</time></trkpt><trkpt lat="42.856548" lon="11.7497863"><ele>347.0</ele><time>2026-04-19T11:57:09.791Z</time></trkpt><trkpt lat="42.856312" lon="11.7498623"><ele>347.0</ele><time>2026-04-19T11:57:10.791Z</time></trkpt><trkpt lat="42.8560741" lon="11.7499387"><ele>343.5</ele><time>2026-04-19T11:57:11.791Z</time></trkpt><trkpt lat="42.8558334" lon="11.7500183"><ele>340.0</ele><time>2026-04-19T11:57:12.791Z</time></trkpt><trkpt lat="42.8555907" lon="11.7500992"><ele>340.0</ele><time>2026-04-19T11:57:13.791Z</time></trkpt><trkpt lat="42.8553445" lon="11.7501849"><ele>340.0</ele><time>2026-04-19T11:57:14.791Z</time></trkpt><trkpt lat="42.8550991" lon="11.7502757"><ele>345.0</ele><time>2026-04-19T11:57:15.791Z</time></trkpt><trkpt lat="42.8548528" lon="11.7503793"><ele>350.0</ele><time>2026-04-19T11:57:16.79Z</time></trkpt><trkpt lat="42.8546047" lon="11.7504814"><ele>350.0</ele><time>2026-04-19T11:57:17.79Z</time></trkpt><trkpt lat="42.8543548" lon="11.7505851"><ele>350.0</ele><time>2026-04-19T11:57:18.79Z</time></trkpt><trkpt lat="42.8541007" lon="11.7506904"><ele>346.5</ele><time>2026-04-19T11:57:19.791Z</time></trkpt><trkpt lat="42.8538489" lon="11.7507946"><ele>343.0</ele><time>2026-04-19T11:57:20.79Z</time></trkpt><trkpt lat="42.853598" lon="11.7509058"><ele>346.0</ele><time>2026-04-19T11:57:21.79Z</time></trkpt><trkpt lat="42.8533494" lon="11.7510176"><ele>349.0</ele><time>2026-04-19T11:57:22.79Z</time></trkpt><trkpt lat="42.8530997" lon="11.7511286"><ele>349.0</ele><time>2026-04-19T11:57:23.79Z</time></trkpt><trkpt lat="42.8528542" lon="11.7512474"><ele>349.0</ele><time>2026-04-19T11:57:24.789Z</time></trkpt><trkpt lat="42.8526109" lon="11.75137"><ele>344.5</ele><time>2026-04-19T11:57:25.79Z</time></trkpt><trkpt lat="42.8523726" lon="11.7515042"><ele>340.0</ele><time>2026-04-19T11:57:26.79Z</time></trkpt><trkpt lat="42.8521394" lon="11.7516423"><ele>340.0</ele><time>2026-04-19T11:57:27.789Z</time></trkpt><trkpt lat="42.8519095" lon="11.7517747"><ele>340.0</ele><time>2026-04-19T11:57:28.789Z</time></trkpt><trkpt lat="42.8516863" lon="11.7519058"><ele>338.0</ele><time>2026-04-19T11:57:29.79Z</time></trkpt><trkpt lat="42.8514715" lon="11.7520306"><ele>336.0</ele><time>2026-04-19T11:57:30.789Z</time></trkpt><trkpt lat="42.8512615" lon="11.7521472"><ele>336.0</ele><time>2026-04-19T11:57:31.791Z</time></trkpt><trkpt lat="42.8510493" lon="11.7522599"><ele>336.0</ele><time>2026-04-19T11:57:32.79Z</time></trkpt><trkpt lat="42.8508312" lon="11.7523585"><ele>334.0</ele><time>2026-04-19T11:57:33.79Z</time></trkpt><trkpt lat="42.8506049" lon="11.7524427"><ele>332.0</ele><time>2026-04-19T11:57:34.79Z</time></trkpt><trkpt lat="42.8503781" lon="11.7525197"><ele>332.0</ele><time>2026-04-19T11:57:35.791Z</time></trkpt><trkpt lat="42.8501442" lon="11.7525921"><ele>332.0</ele><time>2026-04-19T11:57:36.79Z</time></trkpt><trkpt lat="42.8499061" lon="11.7526669"><ele>335.5</ele><time>2026-04-19T11:57:37.791Z</time></trkpt><trkpt lat="42.8496671" lon="11.7527452"><ele>339.0</ele><time>2026-04-19T11:57:38.789Z</time></trkpt><trkpt lat="42.8494229" lon="11.7528234"><ele>336.5</ele><time>2026-04-19T11:57:39.79Z</time></trkpt><trkpt lat="42.8491788" lon="11.7528976"><ele>334.0</ele><time>2026-04-19T11:57:40.79Z</time></trkpt><trkpt lat="42.8489302" lon="11.7529738"><ele>334.0</ele><time>2026-04-19T11:57:41.79Z</time></trkpt><trkpt lat="42.8486804" lon="11.7530488"><ele>334.0</ele><time>2026-04-19T11:57:42.79Z</time></trkpt><trkpt lat="42.8484262" lon="11.7531261"><ele>332.0</ele><time>2026-04-19T11:57:43.79Z</time></trkpt><trkpt lat="42.8481761" lon="11.753204"><ele>330.0</ele><time>2026-04-19T11:57:44.79Z</time></trkpt><trkpt lat="42.84793" lon="11.7532812"><ele>330.0</ele><time>2026-04-19T11:57:45.79Z</time></trkpt><trkpt lat="42.8476881" lon="11.7533588"><ele>330.0</ele><time>2026-04-19T11:57:46.791Z</time></trkpt><trkpt lat="42.847452" lon="11.7534308"><ele>329.3333333333333</ele><time>2026-04-19T11:57:47.791Z</time></trkpt><trkpt lat="42.8472281" lon="11.7535001"><ele>328.66666666666663</ele><time>2026-04-19T11:57:48.79Z</time></trkpt><trkpt lat="42.8470142" lon="11.7535657"><ele>328.0</ele><time>2026-04-19T11:57:49.79Z</time></trkpt><trkpt lat="42.8468035" lon="11.7536204"><ele>328.66666666666663</ele><time>2026-04-19T11:57:50.79Z</time></trkpt><trkpt lat="42.846588" lon="11.7536508"><ele>329.3333333333333</ele><time>2026-04-19T11:57:51.79Z</time></trkpt><trkpt lat="42.8463686" lon="11.7536691"><ele>330.0</ele><time>2026-04-19T11:57:52.79Z</time></trkpt><trkpt lat="42.8461428" lon="11.7536847"><ele>329.5</ele><time>2026-04-19T11:57:53.791Z</time></trkpt><trkpt lat="42.8459229" lon="11.7536979"><ele>329.0</ele><time>2026-04-19T11:57:54.789Z</time></trkpt><trkpt lat="42.8456831" lon="11.7537159"><ele>329.0</ele><time>2026-04-19T11:57:55.79Z</time></trkpt><trkpt lat="42.8454528" lon="11.7537335"><ele>329.0</ele><time>2026-04-19T11:57:56.79Z</time></trkpt><trkpt lat="42.8452304" lon="11.753745"><ele>328.33333333333337</ele><time>2026-04-19T11:57:57.789Z</time></trkpt><trkpt lat="42.8450163" lon="11.7537556"><ele>327.6666666666667</ele><time>2026-04-19T11:57:58.788Z</time></trkpt><trkpt lat="42.8448093" lon="11.753766"><ele>327.0</ele><time>2026-04-19T11:57:59.789Z</time></trkpt><trkpt lat="42.8446131" lon="11.753772"><ele>327.0</ele><time>2026-04-19T11:58:00.79Z</time></trkpt><trkpt lat="42.844421" lon="11.7537843"><ele>327.0</ele><time>2026-04-19T11:58:01.789Z</time></trkpt><trkpt lat="42.8442267" lon="11.753794"><ele>327.0</ele><time>2026-04-19T11:58:02.789Z</time></trkpt><trkpt lat="42.8440293" lon="11.7538072"><ele>326.3333333333333</ele><time>2026-04-19T11:58:03.79Z</time></trkpt><trkpt lat="42.8438246" lon="11.7538205"><ele>325.66666666666663</ele><time>2026-04-19T11:58:04.788Z</time></trkpt><trkpt lat="42.8436129" lon="11.7538308"><ele>325.0</ele><time>2026-04-19T11:58:05.789Z</time></trkpt><trkpt lat="42.843396" lon="11.7538419"><ele>324.66666666666663</ele><time>2026-04-19T11:58:06.79Z</time></trkpt><trkpt lat="42.8431754" lon="11.7538539"><ele>324.3333333333333</ele><time>2026-04-19T11:58:07.789Z</time></trkpt><trkpt lat="42.8429531" lon="11.7538646"><ele>324.0</ele><time>2026-04-19T11:58:08.79Z</time></trkpt><trkpt lat="42.8427334" lon="11.753874"><ele>323.6666666666667</ele><time>2026-04-19T11:58:09.79Z</time></trkpt><trkpt lat="42.8425245" lon="11.7538902"><ele>323.33333333333337</ele><time>2026-04-19T11:58:10.79Z</time></trkpt><trkpt lat="42.8423228" lon="11.7539041"><ele>323.0</ele><time>2026-04-19T11:58:11.789Z</time></trkpt><trkpt lat="42.8421237" lon="11.7539129"><ele>323.0</ele><time>2026-04-19T11:58:12.79Z</time></trkpt><trkpt lat="42.8419218" lon="11.7539192"><ele>323.0</ele><time>2026-04-19T11:58:13.79Z</time></trkpt><trkpt lat="42.8417091" lon="11.7539244"><ele>323.0</ele><time>2026-04-19T11:58:14.789Z</time></trkpt><trkpt lat="42.8414883" lon="11.7539362"><ele>322.0</ele><time>2026-04-19T11:58:15.789Z</time></trkpt><trkpt lat="42.8412631" lon="11.7539474"><ele>321.0</ele><time>2026-04-19T11:58:16.789Z</time></trkpt><trkpt lat="42.8410321" lon="11.753966"><ele>321.0</ele><time>2026-04-19T11:58:17.79Z</time></trkpt><trkpt lat="42.8407936" lon="11.7539969"><ele>321.0</ele><time>2026-04-19T11:58:18.789Z</time></trkpt><trkpt lat="42.8405549" lon="11.7540467"><ele>321.0</ele><time>2026-04-19T11:58:19.788Z</time></trkpt><trkpt lat="42.8403157" lon="11.7541231"><ele>321.0</ele><time>2026-04-19T11:58:20.788Z</time></trkpt><trkpt lat="42.8400821" lon="11.754225"><ele>321.0</ele><time>2026-04-19T11:58:21.788Z</time></trkpt><trkpt lat="42.8398479" lon="11.7543405"><ele>321.0</ele><time>2026-04-19T11:58:22.788Z</time></trkpt><trkpt lat="42.8396088" lon="11.7544543"><ele>321.5</ele><time>2026-04-19T11:58:23.79Z</time></trkpt><trkpt lat="42.839368" lon="11.7545708"><ele>322.0</ele><time>2026-04-19T11:58:24.79Z</time></trkpt><trkpt lat="42.8391301" lon="11.7546879"><ele>322.0</ele><time>2026-04-19T11:58:25.789Z</time></trkpt><trkpt lat="42.8388907" lon="11.754807"><ele>322.0</ele><time>2026-04-19T11:58:26.79Z</time></trkpt><trkpt lat="42.8386513" lon="11.7549264"><ele>320.5</ele><time>2026-04-19T11:58:27.79Z</time></trkpt><trkpt lat="42.838409" lon="11.755044"><ele>319.0</ele><time>2026-04-19T11:58:28.789Z</time></trkpt><trkpt lat="42.838165" lon="11.7551613"><ele>321.5</ele><time>2026-04-19T11:58:29.79Z</time></trkpt><trkpt lat="42.8379207" lon="11.7552821"><ele>324.0</ele><time>2026-04-19T11:58:30.789Z</time></trkpt><trkpt lat="42.8376773" lon="11.7553976"><ele>322.5</ele><time>2026-04-19T11:58:31.79Z</time></trkpt><trkpt lat="42.8374435" lon="11.7555118"><ele>321.0</ele><time>2026-04-19T11:58:32.789Z</time></trkpt><trkpt lat="42.8372212" lon="11.7556208"><ele>321.0</ele><time>2026-04-19T11:58:33.789Z</time></trkpt><trkpt lat="42.8370166" lon="11.7557237"><ele>321.0</ele><time>2026-04-19T11:58:34.79Z</time></trkpt><trkpt lat="42.836829" lon="11.7558137"><ele>321.0</ele><time>2026-04-19T11:58:35.788Z</time></trkpt><trkpt lat="42.8366563" lon="11.7558997"><ele>321.3333333333333</ele><time>2026-04-19T11:58:36.79Z</time></trkpt><trkpt lat="42.8364907" lon="11.7559824"><ele>321.66666666666663</ele><time>2026-04-19T11:58:37.789Z</time></trkpt><trkpt lat="42.8363298" lon="11.7560669"><ele>322.0</ele><time>2026-04-19T11:58:38.789Z</time></trkpt><trkpt lat="42.836169" lon="11.7561498"><ele>321.66666666666663</ele><time>2026-04-19T11:58:39.788Z</time></trkpt><trkpt lat="42.8360013" lon="11.7562289"><ele>321.3333333333333</ele><time>2026-04-19T11:58:40.789Z</time></trkpt><trkpt lat="42.8358223" lon="11.7563127"><ele>321.0</ele><time>2026-04-19T11:58:41.789Z</time></trkpt><trkpt lat="42.8356362" lon="11.7564013"><ele>321.0</ele><time>2026-04-19T11:58:42.79Z</time></trkpt><trkpt lat="42.8354387" lon="11.7564983"><ele>321.0</ele><time>2026-04-19T11:58:43.789Z</time></trkpt><trkpt lat="42.8352374" lon="11.7565997"><ele>321.0</ele><time>2026-04-19T11:58:44.789Z</time></trkpt><trkpt lat="42.8350329" lon="11.7566965"><ele>321.0</ele><time>2026-04-19T11:58:45.789Z</time></trkpt><trkpt lat="42.8348347" lon="11.7567985"><ele>321.0</ele><time>2026-04-19T11:58:46.789Z</time></trkpt><trkpt lat="42.8346447" lon="11.7569165"><ele>321.0</ele><time>2026-04-19T11:58:47.788Z</time></trkpt><trkpt lat="42.834459" lon="11.757071"><ele>320.0</ele><time>2026-04-19T11:58:48.79Z</time></trkpt><trkpt lat="42.8342647" lon="11.7572402"><ele>319.0</ele><time>2026-04-19T11:58:49.789Z</time></trkpt><trkpt lat="42.8340662" lon="11.7574222"><ele>319.0</ele><time>2026-04-19T11:58:50.789Z</time></trkpt><trkpt lat="42.8338586" lon="11.7576102"><ele>319.0</ele><time>2026-04-19T11:58:51.79Z</time></trkpt><trkpt lat="42.8336419" lon="11.7578039"><ele>319.0</ele><time>2026-04-19T11:58:52.788Z</time></trkpt><trkpt lat="42.8334212" lon="11.7579979"><ele>319.0</ele><time>2026-04-19T11:58:53.789Z</time></trkpt><trkpt lat="42.8332079" lon="11.758193"><ele>319.0</ele><time>2026-04-19T11:58:54.789Z</time></trkpt><trkpt lat="42.8329886" lon="11.7583986"><ele>319.0</ele><time>2026-04-19T11:58:55.789Z</time></trkpt><trkpt lat="42.8327658" lon="11.7585986"><ele>318.5</ele><time>2026-04-19T11:58:56.789Z</time></trkpt><trkpt lat="42.8325432" lon="11.7588037"><ele>318.0</ele><time>2026-04-19T11:58:57.789Z</time></trkpt><trkpt lat="42.8323221" lon="11.7590032"><ele>318.0</ele><time>2026-04-19T11:58:58.79Z</time></trkpt><trkpt lat="42.8320944" lon="11.7592145"><ele>318.0</ele><time>2026-04-19T11:58:59.79Z</time></trkpt><trkpt lat="42.8318692" lon="11.7594246"><ele>316.0</ele><time>2026-04-19T11:59:00.79Z</time></trkpt><trkpt lat="42.831642" lon="11.7596334"><ele>314.0</ele><time>2026-04-19T11:59:01.79Z</time></trkpt><trkpt lat="42.8314088" lon="11.7598434"><ele>314.0</ele><time>2026-04-19T11:59:02.789Z</time></trkpt><trkpt lat="42.8311742" lon="11.7600584"><ele>314.0</ele><time>2026-04-19T11:59:03.79Z</time></trkpt><trkpt lat="42.8309386" lon="11.760272"><ele>314.0</ele><time>2026-04-19T11:59:04.789Z</time></trkpt><trkpt lat="42.8307032" lon="11.760482"><ele>314.0</ele><time>2026-04-19T11:59:05.79Z</time></trkpt><trkpt lat="42.8304645" lon="11.760701"><ele>314.0</ele><time>2026-04-19T11:59:06.79Z</time></trkpt><trkpt lat="42.830226" lon="11.7609219"><ele>314.0</ele><time>2026-04-19T11:59:07.789Z</time></trkpt><trkpt lat="42.8299883" lon="11.7611389"><ele>311.5</ele><time>2026-04-19T11:59:08.79Z</time></trkpt><trkpt lat="42.8297508" lon="11.7613586"><ele>309.0</ele><time>2026-04-19T11:59:09.789Z</time></trkpt><trkpt lat="42.8295173" lon="11.7615686"><ele>308.0</ele><time>2026-04-19T11:59:10.789Z</time></trkpt><trkpt lat="42.8292856" lon="11.7617756"><ele>307.0</ele><time>2026-04-19T11:59:11.789Z</time></trkpt><trkpt lat="42.829057" lon="11.7619844"><ele>307.0</ele><time>2026-04-19T11:59:12.789Z</time></trkpt><trkpt lat="42.8288345" lon="11.7621872"><ele>307.0</ele><time>2026-04-19T11:59:13.788Z</time></trkpt><trkpt lat="42.8286241" lon="11.7623785"><ele>307.5</ele><time>2026-04-19T11:59:14.789Z</time></trkpt><trkpt lat="42.8284243" lon="11.7625594"><ele>308.0</ele><time>2026-04-19T11:59:15.789Z</time></trkpt><trkpt lat="42.8282377" lon="11.7627309"><ele>308.0</ele><time>2026-04-19T11:59:16.79Z</time></trkpt><trkpt lat="42.8280657" lon="11.7629208"><ele>308.0</ele><time>2026-04-19T11:59:17.79Z</time></trkpt><trkpt lat="42.8278944" lon="11.763122"><ele>308.0</ele><time>2026-04-19T11:59:18.789Z</time></trkpt><trkpt lat="42.8277255" lon="11.7633426"><ele>306.5</ele><time>2026-04-19T11:59:19.789Z</time></trkpt><trkpt lat="42.8275516" lon="11.7635671"><ele>305.0</ele><time>2026-04-19T11:59:20.789Z</time></trkpt><trkpt lat="42.8273709" lon="11.7637927"><ele>305.0</ele><time>2026-04-19T11:59:21.789Z</time></trkpt><trkpt lat="42.8271929" lon="11.7640242"><ele>305.0</ele><time>2026-04-19T11:59:22.789Z</time></trkpt><trkpt lat="42.8270135" lon="11.7642568"><ele>303.5</ele><time>2026-04-19T11:59:23.79Z</time></trkpt><trkpt lat="42.8268281" lon="11.7644977"><ele>302.0</ele><time>2026-04-19T11:59:24.79Z</time></trkpt><trkpt lat="42.8266418" lon="11.7647482"><ele>302.0</ele><time>2026-04-19T11:59:25.79Z</time></trkpt><trkpt lat="42.8264512" lon="11.7650003"><ele>302.0</ele><time>2026-04-19T11:59:26.789Z</time></trkpt><trkpt lat="42.8262565" lon="11.7652581"><ele>301.0</ele><time>2026-04-19T11:59:27.789Z</time></trkpt><trkpt lat="42.826061" lon="11.7655192"><ele>300.0</ele><time>2026-04-19T11:59:28.79Z</time></trkpt><trkpt lat="42.8258613" lon="11.765774"><ele>300.0</ele><time>2026-04-19T11:59:29.789Z</time></trkpt><trkpt lat="42.8256683" lon="11.7660246"><ele>300.0</ele><time>2026-04-19T11:59:30.788Z</time></trkpt><trkpt lat="42.8254673" lon="11.7662816"><ele>299.5</ele><time>2026-04-19T11:59:31.789Z</time></trkpt><trkpt lat="42.8252743" lon="11.7665384"><ele>299.0</ele><time>2026-04-19T11:59:32.789Z</time></trkpt><trkpt lat="42.8250812" lon="11.7667907"><ele>300.0</ele><time>2026-04-19T11:59:33.79Z</time></trkpt><trkpt lat="42.8248967" lon="11.7670325"><ele>301.0</ele><time>2026-04-19T11:59:34.79Z</time></trkpt><trkpt lat="42.8247225" lon="11.7672641"><ele>301.0</ele><time>2026-04-19T11:59:35.79Z</time></trkpt><trkpt lat="42.8245589" lon="11.7674922"><ele>301.0</ele><time>2026-04-19T11:59:36.79Z</time></trkpt><trkpt lat="42.8244083" lon="11.7677193"><ele>300.3333333333333</ele><time>2026-04-19T11:59:37.79Z</time></trkpt><trkpt lat="42.824282" lon="11.7679559"><ele>299.6666666666667</ele><time>2026-04-19T11:59:38.79Z</time></trkpt><trkpt lat="42.8241674" lon="11.7682116"><ele>299.0</ele><time>2026-04-19T11:59:39.79Z</time></trkpt><trkpt lat="42.8240613" lon="11.7684816"><ele>299.0</ele><time>2026-04-19T11:59:40.789Z</time></trkpt><trkpt lat="42.8239652" lon="11.7687623"><ele>299.0</ele><time>2026-04-19T11:59:41.789Z</time></trkpt><trkpt lat="42.823879" lon="11.769052"><ele>299.0</ele><time>2026-04-19T11:59:42.789Z</time></trkpt><trkpt lat="42.823807" lon="11.7693484"><ele>299.0</ele><time>2026-04-19T11:59:43.788Z</time></trkpt><trkpt lat="42.8237467" lon="11.7696552"><ele>299.0</ele><time>2026-04-19T11:59:44.789Z</time></trkpt><trkpt lat="42.823707" lon="11.7699705"><ele>299.0</ele><time>2026-04-19T11:59:45.788Z</time></trkpt><trkpt lat="42.8236852" lon="11.7702956"><ele>297.5</ele><time>2026-04-19T11:59:46.789Z</time></trkpt><trkpt lat="42.8236864" lon="11.7706145"><ele>296.0</ele><time>2026-04-19T11:59:47.789Z</time></trkpt><trkpt lat="42.8237014" lon="11.7709435"><ele>296.5</ele><time>2026-04-19T11:59:48.789Z</time></trkpt><trkpt lat="42.8237303" lon="11.7712792"><ele>297.0</ele><time>2026-04-19T11:59:49.789Z</time></trkpt><trkpt lat="42.8237715" lon="11.7716154"><ele>296.5</ele><time>2026-04-19T11:59:50.79Z</time></trkpt><trkpt lat="42.8238396" lon="11.7719456"><ele>296.0</ele><time>2026-04-19T11:59:51.79Z</time></trkpt><trkpt lat="42.8239241" lon="11.7722752"><ele>296.0</ele><time>2026-04-19T11:59:52.789Z</time></trkpt><trkpt lat="42.8240205" lon="11.7725978"><ele>296.0</ele><time>2026-04-19T11:59:53.789Z</time></trkpt><trkpt lat="42.824117" lon="11.7729144"><ele>296.0</ele><time>2026-04-19T11:59:54.79Z</time></trkpt><trkpt lat="42.8242067" lon="11.7732149"><ele>296.0</ele><time>2026-04-19T11:59:55.79Z</time></trkpt><trkpt lat="42.8242909" lon="11.7735047"><ele>298.33333333333337</ele><time>2026-04-19T11:59:56.788Z</time></trkpt><trkpt lat="42.8243715" lon="11.7737839"><ele>300.6666666666667</ele><time>2026-04-19T11:59:57.789Z</time></trkpt><trkpt lat="42.824452" lon="11.7740515"><ele>303.0</ele><time>2026-04-19T11:59:58.789Z</time></trkpt><trkpt lat="42.8245295" lon="11.7743121"><ele>301.6666666666667</ele><time>2026-04-19T11:59:59.789Z</time></trkpt><trkpt lat="42.8246094" lon="11.7745722"><ele>300.33333333333337</ele><time>2026-04-19T12:00:00.789Z</time></trkpt><trkpt lat="42.8246831" lon="11.7748214"><ele>299.0</ele><time>2026-04-19T12:00:01.789Z</time></trkpt><trkpt lat="42.8247549" lon="11.7750619"><ele>298.33333333333337</ele><time>2026-04-19T12:00:02.789Z</time></trkpt><trkpt lat="42.824834" lon="11.7753149"><ele>297.6666666666667</ele><time>2026-04-19T12:00:03.788Z</time></trkpt><trkpt lat="42.824901" lon="11.7755543"><ele>297.0</ele><time>2026-04-19T12:00:04.788Z</time></trkpt><trkpt lat="42.8249743" lon="11.7758106"><ele>296.0</ele><time>2026-04-19T12:00:05.79Z</time></trkpt><trkpt lat="42.8250471" lon="11.776054"><ele>295.0</ele><time>2026-04-19T12:00:06.789Z</time></trkpt><trkpt lat="42.8251269" lon="11.7762932"><ele>294.0</ele><time>2026-04-19T12:00:07.789Z</time></trkpt><trkpt lat="42.825198" lon="11.7765312"><ele>294.6666666666667</ele><time>2026-04-19T12:00:08.789Z</time></trkpt><trkpt lat="42.8252718" lon="11.7767645"><ele>295.33333333333337</ele><time>2026-04-19T12:00:09.789Z</time></trkpt><trkpt lat="42.8253453" lon="11.7769984"><ele>296.0</ele><time>2026-04-19T12:00:10.79Z</time></trkpt><trkpt lat="42.8254056" lon="11.7772379"><ele>296.0</ele><time>2026-04-19T12:00:11.79Z</time></trkpt><trkpt lat="42.8254492" lon="11.7774939"><ele>296.0</ele><time>2026-04-19T12:00:12.79Z</time></trkpt><trkpt lat="42.8254684" lon="11.7777456"><ele>296.0</ele><time>2026-04-19T12:00:13.788Z</time></trkpt><trkpt lat="42.8254611" lon="11.778"><ele>295.33333333333337</ele><time>2026-04-19T12:00:14.789Z</time></trkpt><trkpt lat="42.8254397" lon="11.7782543"><ele>294.6666666666667</ele><time>2026-04-19T12:00:15.79Z</time></trkpt><trkpt lat="42.8254135" lon="11.7785118"><ele>294.0</ele><time>2026-04-19T12:00:16.79Z</time></trkpt><trkpt lat="42.8253922" lon="11.7787681"><ele>294.0</ele><time>2026-04-19T12:00:17.789Z</time></trkpt><trkpt lat="42.8253635" lon="11.7790317"><ele>294.0</ele><time>2026-04-19T12:00:18.79Z</time></trkpt><trkpt lat="42.8253297" lon="11.7792962"><ele>294.0</ele><time>2026-04-19T12:00:19.79Z</time></trkpt><trkpt lat="42.8252887" lon="11.7795538"><ele>294.3333333333333</ele><time>2026-04-19T12:00:20.789Z</time></trkpt><trkpt lat="42.82524" lon="11.7798122"><ele>294.66666666666663</ele><time>2026-04-19T12:00:21.788Z</time></trkpt><trkpt lat="42.8251919" lon="11.7800728"><ele>295.0</ele><time>2026-04-19T12:00:22.789Z</time></trkpt><trkpt lat="42.8251606" lon="11.7803384"><ele>295.0</ele><time>2026-04-19T12:00:23.789Z</time></trkpt><trkpt lat="42.8251376" lon="11.7806147"><ele>295.0</ele><time>2026-04-19T12:00:24.788Z</time></trkpt><trkpt lat="42.8251177" lon="11.7808926"><ele>295.0</ele><time>2026-04-19T12:00:25.79Z</time></trkpt><trkpt lat="42.8250996" lon="11.7811781"><ele>295.0</ele><time>2026-04-19T12:00:26.789Z</time></trkpt><trkpt lat="42.8250721" lon="11.7814709"><ele>295.0</ele><time>2026-04-19T12:00:27.79Z</time></trkpt><trkpt lat="42.8250458" lon="11.7817594"><ele>295.0</ele><time>2026-04-19T12:00:28.789Z</time></trkpt><trkpt lat="42.8250122" lon="11.7820489"><ele>295.3333333333333</ele><time>2026-04-19T12:00:29.789Z</time></trkpt><trkpt lat="42.824971" lon="11.7823475"><ele>295.6666666666667</ele><time>2026-04-19T12:00:30.79Z</time></trkpt><trkpt lat="42.8249238" lon="11.7826474"><ele>296.0</ele><time>2026-04-19T12:00:31.79Z</time></trkpt><trkpt lat="42.8248754" lon="11.7829521"><ele>297.6666666666667</ele><time>2026-04-19T12:00:32.789Z</time></trkpt><trkpt lat="42.8248248" lon="11.7832526"><ele>299.3333333333333</ele><time>2026-04-19T12:00:33.79Z</time></trkpt><trkpt lat="42.8247726" lon="11.7835487"><ele>301.0</ele><time>2026-04-19T12:00:34.788Z</time></trkpt><trkpt lat="42.8247207" lon="11.7838441"><ele>302.3333333333333</ele><time>2026-04-19T12:00:35.788Z</time></trkpt><trkpt lat="42.8246746" lon="11.7841333"><ele>303.6666666666667</ele><time>2026-04-19T12:00:36.788Z</time></trkpt><trkpt lat="42.8246196" lon="11.7844345"><ele>305.0</ele><time>2026-04-19T12:00:37.79Z</time></trkpt><trkpt lat="42.8245711" lon="11.7847405"><ele>305.5</ele><time>2026-04-19T12:00:38.789Z</time></trkpt><trkpt lat="42.8245197" lon="11.7850552"><ele>306.0</ele><time>2026-04-19T12:00:39.79Z</time></trkpt><trkpt lat="42.8244641" lon="11.7853645"><ele>305.0</ele><time>2026-04-19T12:00:40.79Z</time></trkpt><trkpt lat="42.8243982" lon="11.7856715"><ele>304.0</ele><time>2026-04-19T12:00:41.789Z</time></trkpt><trkpt lat="42.8243098" lon="11.7859708"><ele>299.5</ele><time>2026-04-19T12:00:42.789Z</time></trkpt><trkpt lat="42.824213" lon="11.7862596"><ele>295.0</ele><time>2026-04-19T12:00:43.789Z</time></trkpt><trkpt lat="42.824097" lon="11.78654"><ele>295.0</ele><time>2026-04-19T12:00:44.79Z</time></trkpt><trkpt lat="42.8239655" lon="11.7868148"><ele>295.0</ele><time>2026-04-19T12:00:45.79Z</time></trkpt><trkpt lat="42.8238243" lon="11.7870795"><ele>296.0</ele><time>2026-04-19T12:00:46.789Z</time></trkpt><trkpt lat="42.8236809" lon="11.7873452"><ele>297.0</ele><time>2026-04-19T12:00:47.79Z</time></trkpt><trkpt lat="42.8235364" lon="11.7876033"><ele>296.5</ele><time>2026-04-19T12:00:48.789Z</time></trkpt><trkpt lat="42.8233949" lon="11.7878565"><ele>296.0</ele><time>2026-04-19T12:00:49.79Z</time></trkpt><trkpt lat="42.8232494" lon="11.7881093"><ele>296.0</ele><time>2026-04-19T12:00:50.79Z</time></trkpt><trkpt lat="42.8231061" lon="11.7883676"><ele>296.0</ele><time>2026-04-19T12:00:51.79Z</time></trkpt><trkpt lat="42.8229664" lon="11.7886203"><ele>298.0</ele><time>2026-04-19T12:00:52.79Z</time></trkpt><trkpt lat="42.8228269" lon="11.7888698"><ele>300.0</ele><time>2026-04-19T12:00:53.789Z</time></trkpt><trkpt lat="42.82269" lon="11.7891201"><ele>298.0</ele><time>2026-04-19T12:00:54.789Z</time></trkpt><trkpt lat="42.8225545" lon="11.789366"><ele>296.0</ele><time>2026-04-19T12:00:55.79Z</time></trkpt><trkpt lat="42.8224121" lon="11.7896194"><ele>296.0</ele><time>2026-04-19T12:00:56.79Z</time></trkpt><trkpt lat="42.8222707" lon="11.7898667"><ele>296.0</ele><time>2026-04-19T12:00:57.789Z</time></trkpt><trkpt lat="42.8221369" lon="11.7901168"><ele>297.5</ele><time>2026-04-19T12:00:58.79Z</time></trkpt><trkpt lat="42.8220019" lon="11.7903619"><ele>299.0</ele><time>2026-04-19T12:00:59.788Z</time></trkpt><trkpt lat="42.8218631" lon="11.7906115"><ele>297.0</ele><time>2026-04-19T12:01:00.789Z</time></trkpt><trkpt lat="42.8217282" lon="11.7908623"><ele>295.0</ele><time>2026-04-19T12:01:01.789Z</time></trkpt><trkpt lat="42.8215866" lon="11.7911113"><ele>295.0</ele><time>2026-04-19T12:01:02.789Z</time></trkpt><trkpt lat="42.8214434" lon="11.7913623"><ele>295.0</ele><time>2026-04-19T12:01:03.789Z</time></trkpt><trkpt lat="42.8213069" lon="11.791611"><ele>299.0</ele><time>2026-04-19T12:01:04.79Z</time></trkpt><trkpt lat="42.8211703" lon="11.7918595"><ele>303.0</ele><time>2026-04-19T12:01:05.79Z</time></trkpt><trkpt lat="42.8210291" lon="11.7921142"><ele>297.5</ele><time>2026-04-19T12:01:06.789Z</time></trkpt><trkpt lat="42.8208871" lon="11.7923717"><ele>292.0</ele><time>2026-04-19T12:01:07.789Z</time></trkpt><trkpt lat="42.8207503" lon="11.7926315"><ele>295.5</ele><time>2026-04-19T12:01:08.789Z</time></trkpt><trkpt lat="42.8206071" lon="11.7928887"><ele>299.0</ele><time>2026-04-19T12:01:09.79Z</time></trkpt><trkpt lat="42.8204639" lon="11.7931496"><ele>299.0</ele><time>2026-04-19T12:01:10.79Z</time></trkpt><trkpt lat="42.8203203" lon="11.7934114"><ele>299.0</ele><time>2026-04-19T12:01:11.789Z</time></trkpt><trkpt lat="42.8201758" lon="11.7936716"><ele>296.0</ele><time>2026-04-19T12:01:12.789Z</time></trkpt><trkpt lat="42.82003" lon="11.7939385"><ele>293.0</ele><time>2026-04-19T12:01:13.789Z</time></trkpt><trkpt lat="42.8198898" lon="11.794209"><ele>296.0</ele><time>2026-04-19T12:01:14.789Z</time></trkpt><trkpt lat="42.8197417" lon="11.7944762"><ele>299.0</ele><time>2026-04-19T12:01:15.79Z</time></trkpt><trkpt lat="42.8195923" lon="11.794739"><ele>299.0</ele><time>2026-04-19T12:01:16.79Z</time></trkpt><trkpt lat="42.8194493" lon="11.7950035"><ele>299.0</ele><time>2026-04-19T12:01:17.789Z</time></trkpt><trkpt lat="42.8193005" lon="11.795258"><ele>296.0</ele><time>2026-04-19T12:01:18.79Z</time></trkpt><trkpt lat="42.8191439" lon="11.7955091"><ele>293.0</ele><time>2026-04-19T12:01:19.79Z</time></trkpt><trkpt lat="42.8189827" lon="11.79575"><ele>293.0</ele><time>2026-04-19T12:01:20.79Z</time></trkpt><trkpt lat="42.8188131" lon="11.7959788"><ele>293.0</ele><time>2026-04-19T12:01:21.79Z</time></trkpt><trkpt lat="42.818636" lon="11.7961957"><ele>292.0</ele><time>2026-04-19T12:01:22.789Z</time></trkpt><trkpt lat="42.8184509" lon="11.7963948"><ele>291.0</ele><time>2026-04-19T12:01:23.79Z</time></trkpt><trkpt lat="42.8182575" lon="11.7965737"><ele>291.0</ele><time>2026-04-19T12:01:24.788Z</time></trkpt><trkpt lat="42.8180558" lon="11.7967362"><ele>291.0</ele><time>2026-04-19T12:01:25.787Z</time></trkpt><trkpt lat="42.8178519" lon="11.7968894"><ele>290.5</ele><time>2026-04-19T12:01:26.788Z</time></trkpt><trkpt lat="42.8176433" lon="11.797036"><ele>290.0</ele><time>2026-04-19T12:01:27.787Z</time></trkpt><trkpt lat="42.8174284" lon="11.7971745"><ele>290.0</ele><time>2026-04-19T12:01:28.789Z</time></trkpt><trkpt lat="42.8172074" lon="11.797302"><ele>290.0</ele><time>2026-04-19T12:01:29.789Z</time></trkpt><trkpt lat="42.816986" lon="11.7974373"><ele>290.5</ele><time>2026-04-19T12:01:30.788Z</time></trkpt><trkpt lat="42.816764" lon="11.7975739"><ele>291.0</ele><time>2026-04-19T12:01:31.788Z</time></trkpt><trkpt lat="42.8165382" lon="11.797711"><ele>291.0</ele><time>2026-04-19T12:01:32.787Z</time></trkpt><trkpt lat="42.8163152" lon="11.7978479"><ele>291.0</ele><time>2026-04-19T12:01:33.787Z</time></trkpt><trkpt lat="42.8160871" lon="11.7979917"><ele>289.0</ele><time>2026-04-19T12:01:34.789Z</time></trkpt><trkpt lat="42.815858" lon="11.7981279"><ele>287.0</ele><time>2026-04-19T12:01:35.788Z</time></trkpt><trkpt lat="42.8156267" lon="11.7982643"><ele>287.0</ele><time>2026-04-19T12:01:36.789Z</time></trkpt><trkpt lat="42.8153924" lon="11.7984035"><ele>287.0</ele><time>2026-04-19T12:01:37.788Z</time></trkpt><trkpt lat="42.8151604" lon="11.7985452"><ele>288.0</ele><time>2026-04-19T12:01:38.787Z</time></trkpt><trkpt lat="42.8149292" lon="11.7986915"><ele>289.0</ele><time>2026-04-19T12:01:39.789Z</time></trkpt><trkpt lat="42.8146955" lon="11.7988376"><ele>289.0</ele><time>2026-04-19T12:01:40.788Z</time></trkpt><trkpt lat="42.814462" lon="11.7989797"><ele>289.0</ele><time>2026-04-19T12:01:41.788Z</time></trkpt><trkpt lat="42.8142259" lon="11.799122"><ele>289.5</ele><time>2026-04-19T12:01:42.789Z</time></trkpt><trkpt lat="42.8139893" lon="11.7992643"><ele>290.0</ele><time>2026-04-19T12:01:43.788Z</time></trkpt><trkpt lat="42.8137531" lon="11.799414"><ele>290.0</ele><time>2026-04-19T12:01:44.787Z</time></trkpt><trkpt lat="42.8135135" lon="11.7995628"><ele>290.0</ele><time>2026-04-19T12:01:45.788Z</time></trkpt><trkpt lat="42.813272" lon="11.7997085"><ele>290.0</ele><time>2026-04-19T12:01:46.788Z</time></trkpt><trkpt lat="42.8130314" lon="11.7998497"><ele>290.0</ele><time>2026-04-19T12:01:47.788Z</time></trkpt><trkpt lat="42.812792" lon="11.7999932"><ele>290.0</ele><time>2026-04-19T12:01:48.788Z</time></trkpt><trkpt lat="42.8125501" lon="11.80014"><ele>290.0</ele><time>2026-04-19T12:01:49.788Z</time></trkpt><trkpt lat="42.8123134" lon="11.8002893"><ele>293.5</ele><time>2026-04-19T12:01:50.788Z</time></trkpt><trkpt lat="42.8120776" lon="11.8004386"><ele>297.0</ele><time>2026-04-19T12:01:51.789Z</time></trkpt><trkpt lat="42.811848" lon="11.8005794"><ele>295.5</ele><time>2026-04-19T12:01:52.789Z</time></trkpt><trkpt lat="42.811629" lon="11.8007146"><ele>294.0</ele><time>2026-04-19T12:01:53.788Z</time></trkpt><trkpt lat="42.8114266" lon="11.8008406"><ele>294.0</ele><time>2026-04-19T12:01:54.789Z</time></trkpt><trkpt lat="42.8112325" lon="11.8009567"><ele>294.0</ele><time>2026-04-19T12:01:55.788Z</time></trkpt><trkpt lat="42.811051" lon="11.8010701"><ele>294.0</ele><time>2026-04-19T12:01:56.788Z</time></trkpt><trkpt lat="42.8108782" lon="11.8011741"><ele>297.0</ele><time>2026-04-19T12:01:57.787Z</time></trkpt><trkpt lat="42.8107131" lon="11.8012698"><ele>300.0</ele><time>2026-04-19T12:01:58.788Z</time></trkpt><trkpt lat="42.8105389" lon="11.8013788"><ele>303.0</ele><time>2026-04-19T12:01:59.789Z</time></trkpt><trkpt lat="42.8103642" lon="11.8014787"><ele>303.0</ele><time>2026-04-19T12:02:00.788Z</time></trkpt><trkpt lat="42.8101848" lon="11.8015855"><ele>303.0</ele><time>2026-04-19T12:02:01.789Z</time></trkpt><trkpt lat="42.810016" lon="11.8016897"><ele>303.0</ele><time>2026-04-19T12:02:02.789Z</time></trkpt><trkpt lat="42.8098523" lon="11.8017936"><ele>304.3333333333333</ele><time>2026-04-19T12:02:03.789Z</time></trkpt><trkpt lat="42.8096901" lon="11.8018985"><ele>305.66666666666663</ele><time>2026-04-19T12:02:04.788Z</time></trkpt><trkpt lat="42.8095235" lon="11.8019969"><ele>307.0</ele><time>2026-04-19T12:02:05.788Z</time></trkpt><trkpt lat="42.8093524" lon="11.8020975"><ele>304.66666666666663</ele><time>2026-04-19T12:02:06.787Z</time></trkpt><trkpt lat="42.8091776" lon="11.8022007"><ele>302.3333333333333</ele><time>2026-04-19T12:02:07.788Z</time></trkpt><trkpt lat="42.8089969" lon="11.8023048"><ele>300.0</ele><time>2026-04-19T12:02:08.789Z</time></trkpt><trkpt lat="42.8088146" lon="11.8024126"><ele>300.0</ele><time>2026-04-19T12:02:09.789Z</time></trkpt><trkpt lat="42.8086259" lon="11.8025233"><ele>300.0</ele><time>2026-04-19T12:02:10.789Z</time></trkpt><trkpt lat="42.8084326" lon="11.802642"><ele>300.0</ele><time>2026-04-19T12:02:11.789Z</time></trkpt><trkpt lat="42.8082299" lon="11.8027613"><ele>298.5</ele><time>2026-04-19T12:02:12.789Z</time></trkpt><trkpt lat="42.8080236" lon="11.802889"><ele>297.0</ele><time>2026-04-19T12:02:13.789Z</time></trkpt><trkpt lat="42.8078111" lon="11.8030181"><ele>296.0</ele><time>2026-04-19T12:02:14.788Z</time></trkpt><trkpt lat="42.8075945" lon="11.8031498"><ele>295.0</ele><time>2026-04-19T12:02:15.788Z</time></trkpt><trkpt lat="42.8073728" lon="11.8032898"><ele>295.0</ele><time>2026-04-19T12:02:16.789Z</time></trkpt><trkpt lat="42.8071409" lon="11.8034311"><ele>295.0</ele><time>2026-04-19T12:02:17.788Z</time></trkpt><trkpt lat="42.8069116" lon="11.8035714"><ele>294.5</ele><time>2026-04-19T12:02:18.789Z</time></trkpt><trkpt lat="42.8066768" lon="11.8037107"><ele>294.0</ele><time>2026-04-19T12:02:19.788Z</time></trkpt><trkpt lat="42.8064381" lon="11.8038512"><ele>294.0</ele><time>2026-04-19T12:02:20.788Z</time></trkpt><trkpt lat="42.8061944" lon="11.8039907"><ele>294.0</ele><time>2026-04-19T12:02:21.789Z</time></trkpt><trkpt lat="42.8059516" lon="11.804137"><ele>295.0</ele><time>2026-04-19T12:02:22.788Z</time></trkpt><trkpt lat="42.8057103" lon="11.8042821"><ele>296.0</ele><time>2026-04-19T12:02:23.788Z</time></trkpt><trkpt lat="42.8054662" lon="11.8044294"><ele>296.0</ele><time>2026-04-19T12:02:24.788Z</time></trkpt><trkpt lat="42.8052214" lon="11.8045777"><ele>296.0</ele><time>2026-04-19T12:02:25.789Z</time></trkpt><trkpt lat="42.8049776" lon="11.8047269"><ele>294.5</ele><time>2026-04-19T12:02:26.788Z</time></trkpt><trkpt lat="42.8047336" lon="11.8048795"><ele>293.0</ele><time>2026-04-19T12:02:27.789Z</time></trkpt><trkpt lat="42.8044898" lon="11.8050295"><ele>299.0</ele><time>2026-04-19T12:02:28.789Z</time></trkpt><trkpt lat="42.8042443" lon="11.8051794"><ele>305.0</ele><time>2026-04-19T12:02:29.789Z</time></trkpt><trkpt lat="42.8040013" lon="11.8053301"><ele>305.0</ele><time>2026-04-19T12:02:30.789Z</time></trkpt><trkpt lat="42.8037587" lon="11.8054782"><ele>305.0</ele><time>2026-04-19T12:02:31.789Z</time></trkpt><trkpt lat="42.8035146" lon="11.8056245"><ele>299.0</ele><time>2026-04-19T12:02:32.789Z</time></trkpt><trkpt lat="42.8032795" lon="11.8057688"><ele>293.0</ele><time>2026-04-19T12:02:33.788Z</time></trkpt><trkpt lat="42.8030575" lon="11.8059065"><ele>295.0</ele><time>2026-04-19T12:02:34.789Z</time></trkpt><trkpt lat="42.8028444" lon="11.8060394"><ele>297.0</ele><time>2026-04-19T12:02:35.788Z</time></trkpt><trkpt lat="42.8026356" lon="11.8061671"><ele>294.3333333333333</ele><time>2026-04-19T12:02:36.788Z</time></trkpt><trkpt lat="42.8024321" lon="11.8062885"><ele>291.66666666666663</ele><time>2026-04-19T12:02:37.788Z</time></trkpt><trkpt lat="42.8022279" lon="11.8064036"><ele>289.0</ele><time>2026-04-19T12:02:38.787Z</time></trkpt><trkpt lat="42.8020268" lon="11.8065231"><ele>287.66666666666663</ele><time>2026-04-19T12:02:39.789Z</time></trkpt><trkpt lat="42.8018312" lon="11.8066414"><ele>286.3333333333333</ele><time>2026-04-19T12:02:40.788Z</time></trkpt><trkpt lat="42.8016477" lon="11.8067696"><ele>285.0</ele><time>2026-04-19T12:02:41.789Z</time></trkpt><trkpt lat="42.8014777" lon="11.8069114"><ele>284.6666666666667</ele><time>2026-04-19T12:02:42.788Z</time></trkpt><trkpt lat="42.8013128" lon="11.807072"><ele>284.33333333333337</ele><time>2026-04-19T12:02:43.788Z</time></trkpt><trkpt lat="42.8011564" lon="11.8072496"><ele>284.0</ele><time>2026-04-19T12:02:44.789Z</time></trkpt><trkpt lat="42.8010074" lon="11.8074548"><ele>281.0</ele><time>2026-04-19T12:02:45.788Z</time></trkpt><trkpt lat="42.8008712" lon="11.80768"><ele>278.0</ele><time>2026-04-19T12:02:46.788Z</time></trkpt><trkpt lat="42.8007449" lon="11.8079338"><ele>275.0</ele><time>2026-04-19T12:02:47.787Z</time></trkpt><trkpt lat="42.8006329" lon="11.8082045"><ele>274.5</ele><time>2026-04-19T12:02:48.788Z</time></trkpt><trkpt lat="42.8005296" lon="11.8084971"><ele>274.0</ele><time>2026-04-19T12:02:49.789Z</time></trkpt><trkpt lat="42.8004308" lon="11.8088053"><ele>274.0</ele><time>2026-04-19T12:02:50.787Z</time></trkpt><trkpt lat="42.8003283" lon="11.8091156"><ele>274.0</ele><time>2026-04-19T12:02:51.789Z</time></trkpt><trkpt lat="42.800222" lon="11.8094219"><ele>275.0</ele><time>2026-04-19T12:02:52.787Z</time></trkpt><trkpt lat="42.800116" lon="11.8097223"><ele>276.0</ele><time>2026-04-19T12:02:53.789Z</time></trkpt><trkpt lat="42.8000213" lon="11.8100157"><ele>276.0</ele><time>2026-04-19T12:02:54.789Z</time></trkpt><trkpt lat="42.799929" lon="11.8102863"><ele>276.0</ele><time>2026-04-19T12:02:55.789Z</time></trkpt><trkpt lat="42.7998399" lon="11.8105444"><ele>276.0</ele><time>2026-04-19T12:02:56.788Z</time></trkpt><trkpt lat="42.7997555" lon="11.8107846"><ele>276.0</ele><time>2026-04-19T12:02:57.789Z</time></trkpt><trkpt lat="42.79968" lon="11.8110177"><ele>276.0</ele><time>2026-04-19T12:02:58.789Z</time></trkpt><trkpt lat="42.7996053" lon="11.8112374"><ele>276.0</ele><time>2026-04-19T12:02:59.789Z</time></trkpt><trkpt lat="42.7995369" lon="11.8114446"><ele>276.0</ele><time>2026-04-19T12:03:00.788Z</time></trkpt><trkpt lat="42.7994704" lon="11.8116422"><ele>276.0</ele><time>2026-04-19T12:03:01.788Z</time></trkpt><trkpt lat="42.7993979" lon="11.8118381"><ele>276.0</ele><time>2026-04-19T12:03:02.788Z</time></trkpt><trkpt lat="42.7993162" lon="11.8120233"><ele>280.3333333333333</ele><time>2026-04-19T12:03:03.788Z</time></trkpt><trkpt lat="42.7992195" lon="11.8121957"><ele>284.66666666666663</ele><time>2026-04-19T12:03:04.788Z</time></trkpt><trkpt lat="42.7991153" lon="11.8123477"><ele>289.0</ele><time>2026-04-19T12:03:05.789Z</time></trkpt><trkpt lat="42.7990001" lon="11.8124822"><ele>289.0</ele><time>2026-04-19T12:03:06.788Z</time></trkpt><trkpt lat="42.7988703" lon="11.8126007"><ele>289.0</ele><time>2026-04-19T12:03:07.788Z</time></trkpt><trkpt lat="42.7987333" lon="11.8127082"><ele>289.0</ele><time>2026-04-19T12:03:08.789Z</time></trkpt><trkpt lat="42.798588" lon="11.8128305"><ele>288.3333333333333</ele><time>2026-04-19T12:03:09.789Z</time></trkpt><trkpt lat="42.7984365" lon="11.8129638"><ele>287.6666666666667</ele><time>2026-04-19T12:03:10.788Z</time></trkpt><trkpt lat="42.7982819" lon="11.8131025"><ele>287.0</ele><time>2026-04-19T12:03:11.789Z</time></trkpt><trkpt lat="42.7981256" lon="11.8132413"><ele>287.0</ele><time>2026-04-19T12:03:12.788Z</time></trkpt><trkpt lat="42.7979634" lon="11.8133751"><ele>287.0</ele><time>2026-04-19T12:03:13.788Z</time></trkpt><trkpt lat="42.7977902" lon="11.8135114"><ele>287.0</ele><time>2026-04-19T12:03:14.788Z</time></trkpt><trkpt lat="42.79763" lon="11.8136548"><ele>287.0</ele><time>2026-04-19T12:03:15.789Z</time></trkpt><trkpt lat="42.7974552" lon="11.8138046"><ele>287.0</ele><time>2026-04-19T12:03:16.788Z</time></trkpt><trkpt lat="42.7972734" lon="11.8139529"><ele>287.0</ele><time>2026-04-19T12:03:17.789Z</time></trkpt><trkpt lat="42.7970862" lon="11.8141138"><ele>287.0</ele><time>2026-04-19T12:03:18.789Z</time></trkpt><trkpt lat="42.7969005" lon="11.8142825"><ele>287.0</ele><time>2026-04-19T12:03:19.788Z</time></trkpt><trkpt lat="42.7967057" lon="11.8144545"><ele>287.0</ele><time>2026-04-19T12:03:20.788Z</time></trkpt><trkpt lat="42.7965008" lon="11.8146331"><ele>287.0</ele><time>2026-04-19T12:03:21.788Z</time></trkpt><trkpt lat="42.7962941" lon="11.8148044"><ele>287.0</ele><time>2026-04-19T12:03:22.788Z</time></trkpt><trkpt lat="42.7960884" lon="11.8149816"><ele>287.0</ele><time>2026-04-19T12:03:23.789Z</time></trkpt><trkpt lat="42.7958868" lon="11.8151648"><ele>286.5</ele><time>2026-04-19T12:03:24.788Z</time></trkpt><trkpt lat="42.7956883" lon="11.8153526"><ele>286.0</ele><time>2026-04-19T12:03:25.788Z</time></trkpt><trkpt lat="42.7954968" lon="11.8155538"><ele>286.0</ele><time>2026-04-19T12:03:26.787Z</time></trkpt><trkpt lat="42.7953098" lon="11.8157607"><ele>286.0</ele><time>2026-04-19T12:03:27.788Z</time></trkpt><trkpt lat="42.7951283" lon="11.8159764"><ele>285.0</ele><time>2026-04-19T12:03:28.788Z</time></trkpt><trkpt lat="42.7949482" lon="11.8161975"><ele>284.0</ele><time>2026-04-19T12:03:29.789Z</time></trkpt><trkpt lat="42.794774" lon="11.8164227"><ele>284.0</ele><time>2026-04-19T12:03:30.789Z</time></trkpt><trkpt lat="42.7946095" lon="11.8166596"><ele>284.0</ele><time>2026-04-19T12:03:31.788Z</time></trkpt><trkpt lat="42.7944476" lon="11.8169043"><ele>283.5</ele><time>2026-04-19T12:03:32.788Z</time></trkpt><trkpt lat="42.7942834" lon="11.8171534"><ele>283.0</ele><time>2026-04-19T12:03:33.788Z</time></trkpt><trkpt lat="42.7941257" lon="11.8173981"><ele>283.0</ele><time>2026-04-19T12:03:34.787Z</time></trkpt><trkpt lat="42.7939714" lon="11.8176471"><ele>283.0</ele><time>2026-04-19T12:03:35.787Z</time></trkpt><trkpt lat="42.7938202" lon="11.8178947"><ele>284.3333333333333</ele><time>2026-04-19T12:03:36.788Z</time></trkpt><trkpt lat="42.7936703" lon="11.8181219"><ele>285.6666666666667</ele><time>2026-04-19T12:03:37.787Z</time></trkpt><trkpt lat="42.7935229" lon="11.8183342"><ele>287.0</ele><time>2026-04-19T12:03:38.789Z</time></trkpt><trkpt lat="42.7933764" lon="11.8185286"><ele>287.0</ele><time>2026-04-19T12:03:39.788Z</time></trkpt><trkpt lat="42.7932254" lon="11.8187164"><ele>287.0</ele><time>2026-04-19T12:03:40.789Z</time></trkpt><trkpt lat="42.7930657" lon="11.818893"><ele>287.0</ele><time>2026-04-19T12:03:41.789Z</time></trkpt><trkpt lat="42.7929001" lon="11.8190597"><ele>287.0</ele><time>2026-04-19T12:03:42.789Z</time></trkpt><trkpt lat="42.7927312" lon="11.819221"><ele>287.0</ele><time>2026-04-19T12:03:43.787Z</time></trkpt><trkpt lat="42.792562" lon="11.8193943"><ele>287.0</ele><time>2026-04-19T12:03:44.788Z</time></trkpt><trkpt lat="42.792384" lon="11.8195695"><ele>285.6666666666667</ele><time>2026-04-19T12:03:45.788Z</time></trkpt><trkpt lat="42.7922149" lon="11.8197497"><ele>284.3333333333333</ele><time>2026-04-19T12:03:46.788Z</time></trkpt><trkpt lat="42.7920436" lon="11.8199286"><ele>283.0</ele><time>2026-04-19T12:03:47.788Z</time></trkpt><trkpt lat="42.7918685" lon="11.8201091"><ele>281.3333333333333</ele><time>2026-04-19T12:03:48.788Z</time></trkpt><trkpt lat="42.7916998" lon="11.8202864"><ele>279.6666666666667</ele><time>2026-04-19T12:03:49.789Z</time></trkpt><trkpt lat="42.7915307" lon="11.8204639"><ele>278.0</ele><time>2026-04-19T12:03:50.788Z</time></trkpt><trkpt lat="42.791363" lon="11.8206362"><ele>278.0</ele><time>2026-04-19T12:03:51.788Z</time></trkpt><trkpt lat="42.7912002" lon="11.8208124"><ele>278.0</ele><time>2026-04-19T12:03:52.789Z</time></trkpt><trkpt lat="42.7910452" lon="11.8209965"><ele>278.0</ele><time>2026-04-19T12:03:53.788Z</time></trkpt><trkpt lat="42.7908969" lon="11.8211873"><ele>276.0</ele><time>2026-04-19T12:03:54.788Z</time></trkpt><trkpt lat="42.790753" lon="11.8213848"><ele>274.0</ele><time>2026-04-19T12:03:55.788Z</time></trkpt><trkpt lat="42.7906083" lon="11.8215932"><ele>272.0</ele><time>2026-04-19T12:03:56.788Z</time></trkpt><trkpt lat="42.7904735" lon="11.8217903"><ele>272.33333333333337</ele><time>2026-04-19T12:03:57.788Z</time></trkpt><trkpt lat="42.790334" lon="11.8219936"><ele>272.6666666666667</ele><time>2026-04-19T12:03:58.787Z</time></trkpt><trkpt lat="42.7901887" lon="11.8221994"><ele>273.0</ele><time>2026-04-19T12:03:59.789Z</time></trkpt><trkpt lat="42.7900459" lon="11.8223962"><ele>273.0</ele><time>2026-04-19T12:04:00.787Z</time></trkpt><trkpt lat="42.7898986" lon="11.8225919"><ele>273.0</ele><time>2026-04-19T12:04:01.787Z</time></trkpt><trkpt lat="42.7897532" lon="11.8227857"><ele>273.0</ele><time>2026-04-19T12:04:02.787Z</time></trkpt><trkpt lat="42.7896033" lon="11.8229807"><ele>272.6666666666667</ele><time>2026-04-19T12:04:03.787Z</time></trkpt><trkpt lat="42.789453" lon="11.8231806"><ele>272.33333333333337</ele><time>2026-04-19T12:04:04.787Z</time></trkpt><trkpt lat="42.7893013" lon="11.8233784"><ele>272.0</ele><time>2026-04-19T12:04:05.788Z</time></trkpt><trkpt lat="42.789147" lon="11.8235778"><ele>272.0</ele><time>2026-04-19T12:04:06.788Z</time></trkpt><trkpt lat="42.7889941" lon="11.8237746"><ele>272.0</ele><time>2026-04-19T12:04:07.789Z</time></trkpt><trkpt lat="42.7888374" lon="11.8239665"><ele>272.0</ele><time>2026-04-19T12:04:08.788Z</time></trkpt><trkpt lat="42.7886832" lon="11.8241655"><ele>272.33333333333337</ele><time>2026-04-19T12:04:09.789Z</time></trkpt><trkpt lat="42.7885273" lon="11.8243688"><ele>272.6666666666667</ele><time>2026-04-19T12:04:10.788Z</time></trkpt><trkpt lat="42.7883701" lon="11.8245652"><ele>273.0</ele><time>2026-04-19T12:04:11.788Z</time></trkpt><trkpt lat="42.7882107" lon="11.8247644"><ele>273.0</ele><time>2026-04-19T12:04:12.789Z</time></trkpt><trkpt lat="42.7880527" lon="11.8249608"><ele>273.0</ele><time>2026-04-19T12:04:13.788Z</time></trkpt><trkpt lat="42.7878963" lon="11.8251618"><ele>273.0</ele><time>2026-04-19T12:04:14.788Z</time></trkpt><trkpt lat="42.78774" lon="11.8253627"><ele>273.3333333333333</ele><time>2026-04-19T12:04:15.787Z</time></trkpt><trkpt lat="42.787584" lon="11.8255628"><ele>273.66666666666663</ele><time>2026-04-19T12:04:16.789Z</time></trkpt><trkpt lat="42.7874344" lon="11.8257722"><ele>274.0</ele><time>2026-04-19T12:04:17.788Z</time></trkpt><trkpt lat="42.7872899" lon="11.825994"><ele>274.66666666666663</ele><time>2026-04-19T12:04:18.787Z</time></trkpt><trkpt lat="42.7871515" lon="11.8262272"><ele>275.3333333333333</ele><time>2026-04-19T12:04:19.788Z</time></trkpt><trkpt lat="42.7870132" lon="11.8264675"><ele>276.0</ele><time>2026-04-19T12:04:20.788Z</time></trkpt><trkpt lat="42.7868748" lon="11.8267047"><ele>272.5</ele><time>2026-04-19T12:04:21.788Z</time></trkpt><trkpt lat="42.7867333" lon="11.8269597"><ele>269.0</ele><time>2026-04-19T12:04:22.788Z</time></trkpt><trkpt lat="42.7865977" lon="11.8272286"><ele>269.0</ele><time>2026-04-19T12:04:23.788Z</time></trkpt><trkpt lat="42.7864652" lon="11.827496"><ele>269.0</ele><time>2026-04-19T12:04:24.789Z</time></trkpt><trkpt lat="42.786323" lon="11.8277639"><ele>271.5</ele><time>2026-04-19T12:04:25.789Z</time></trkpt><trkpt lat="42.7861802" lon="11.8280276"><ele>274.0</ele><time>2026-04-19T12:04:26.787Z</time></trkpt><trkpt lat="42.7860404" lon="11.8282811"><ele>270.0</ele><time>2026-04-19T12:04:27.789Z</time></trkpt><trkpt lat="42.7858954" lon="11.8285273"><ele>266.0</ele><time>2026-04-19T12:04:28.789Z</time></trkpt><trkpt lat="42.7857488" lon="11.8287594"><ele>266.0</ele><time>2026-04-19T12:04:29.788Z</time></trkpt><trkpt lat="42.7856007" lon="11.8289864"><ele>266.0</ele><time>2026-04-19T12:04:30.789Z</time></trkpt><trkpt lat="42.7854611" lon="11.8292045"><ele>266.0</ele><time>2026-04-19T12:04:31.788Z</time></trkpt><trkpt lat="42.7853221" lon="11.8294191"><ele>267.0</ele><time>2026-04-19T12:04:32.787Z</time></trkpt><trkpt lat="42.7851831" lon="11.8296325"><ele>268.0</ele><time>2026-04-19T12:04:33.787Z</time></trkpt><trkpt lat="42.7850507" lon="11.8298442"><ele>269.0</ele><time>2026-04-19T12:04:34.787Z</time></trkpt><trkpt lat="42.7849269" lon="11.8300409"><ele>269.33333333333337</ele><time>2026-04-19T12:04:35.789Z</time></trkpt><trkpt lat="42.7848026" lon="11.8302376"><ele>269.6666666666667</ele><time>2026-04-19T12:04:36.788Z</time></trkpt><trkpt lat="42.784674" lon="11.8304324"><ele>270.0</ele><time>2026-04-19T12:04:37.787Z</time></trkpt><trkpt lat="42.784547" lon="11.8306281"><ele>270.0</ele><time>2026-04-19T12:04:38.788Z</time></trkpt><trkpt lat="42.7844174" lon="11.8308256"><ele>270.0</ele><time>2026-04-19T12:04:39.788Z</time></trkpt><trkpt lat="42.7842879" lon="11.831026"><ele>270.0</ele><time>2026-04-19T12:04:40.788Z</time></trkpt><trkpt lat="42.7841574" lon="11.8312255"><ele>269.3333333333333</ele><time>2026-04-19T12:04:41.788Z</time></trkpt><trkpt lat="42.7840354" lon="11.831418"><ele>268.66666666666663</ele><time>2026-04-19T12:04:42.789Z</time></trkpt><trkpt lat="42.7839079" lon="11.8315816"><ele>268.0</ele><time>2026-04-19T12:04:43.788Z</time></trkpt><trkpt lat="42.7837677" lon="11.8317272"><ele>269.0</ele><time>2026-04-19T12:04:44.788Z</time></trkpt><trkpt lat="42.7836235" lon="11.8318441"><ele>270.0</ele><time>2026-04-19T12:04:45.788Z</time></trkpt><trkpt lat="42.7834705" lon="11.8319408"><ele>271.0</ele><time>2026-04-19T12:04:46.788Z</time></trkpt><trkpt lat="42.7833093" lon="11.8320258"><ele>271.0</ele><time>2026-04-19T12:04:47.788Z</time></trkpt><trkpt lat="42.7831438" lon="11.8321104"><ele>271.0</ele><time>2026-04-19T12:04:48.789Z</time></trkpt><trkpt lat="42.7829755" lon="11.8321979"><ele>271.0</ele><time>2026-04-19T12:04:49.788Z</time></trkpt><trkpt lat="42.7828052" lon="11.8322791"><ele>269.3333333333333</ele><time>2026-04-19T12:04:50.786Z</time></trkpt><trkpt lat="42.7826301" lon="11.832361"><ele>267.6666666666667</ele><time>2026-04-19T12:04:51.787Z</time></trkpt><trkpt lat="42.7824543" lon="11.8324442"><ele>266.0</ele><time>2026-04-19T12:04:52.788Z</time></trkpt><trkpt lat="42.7822784" lon="11.8325386"><ele>265.33333333333337</ele><time>2026-04-19T12:04:53.786Z</time></trkpt><trkpt lat="42.7821121" lon="11.8326453"><ele>264.6666666666667</ele><time>2026-04-19T12:04:54.788Z</time></trkpt><trkpt lat="42.7819454" lon="11.8327629"><ele>264.0</ele><time>2026-04-19T12:04:55.787Z</time></trkpt><trkpt lat="42.781787" lon="11.8329093"><ele>264.0</ele><time>2026-04-19T12:04:56.788Z</time></trkpt><trkpt lat="42.7816464" lon="11.8330784"><ele>264.0</ele><time>2026-04-19T12:04:57.787Z</time></trkpt><trkpt lat="42.7815158" lon="11.8332745"><ele>264.0</ele><time>2026-04-19T12:04:58.788Z</time></trkpt><trkpt lat="42.7814018" lon="11.8334934"><ele>264.3333333333333</ele><time>2026-04-19T12:04:59.787Z</time></trkpt><trkpt lat="42.7813006" lon="11.8337276"><ele>264.66666666666663</ele><time>2026-04-19T12:05:00.787Z</time></trkpt><trkpt lat="42.781198" lon="11.8339703"><ele>265.0</ele><time>2026-04-19T12:05:01.787Z</time></trkpt><trkpt lat="42.7810918" lon="11.8342192"><ele>264.3333333333333</ele><time>2026-04-19T12:05:02.788Z</time></trkpt><trkpt lat="42.7809801" lon="11.8344649"><ele>263.6666666666667</ele><time>2026-04-19T12:05:03.788Z</time></trkpt><trkpt lat="42.7808649" lon="11.8347177"><ele>263.0</ele><time>2026-04-19T12:05:04.788Z</time></trkpt><trkpt lat="42.780746" lon="11.8349644"><ele>264.0</ele><time>2026-04-19T12:05:05.787Z</time></trkpt><trkpt lat="42.7806175" lon="11.835204"><ele>265.0</ele><time>2026-04-19T12:05:06.787Z</time></trkpt><trkpt lat="42.780485" lon="11.8354465"><ele>266.0</ele><time>2026-04-19T12:05:07.786Z</time></trkpt><trkpt lat="42.780344" lon="11.8356899"><ele>266.0</ele><time>2026-04-19T12:05:08.787Z</time></trkpt><trkpt lat="42.780204" lon="11.8359311"><ele>266.0</ele><time>2026-04-19T12:05:09.786Z</time></trkpt><trkpt lat="42.7800567" lon="11.8361782"><ele>264.0</ele><time>2026-04-19T12:05:10.787Z</time></trkpt><trkpt lat="42.7799137" lon="11.8364263"><ele>262.0</ele><time>2026-04-19T12:05:11.788Z</time></trkpt><trkpt lat="42.7797687" lon="11.8366769"><ele>263.5</ele><time>2026-04-19T12:05:12.787Z</time></trkpt><trkpt lat="42.7796233" lon="11.8369288"><ele>265.0</ele><time>2026-04-19T12:05:13.788Z</time></trkpt><trkpt lat="42.7794753" lon="11.8371859"><ele>262.5</ele><time>2026-04-19T12:05:14.787Z</time></trkpt><trkpt lat="42.7793278" lon="11.8374428"><ele>260.0</ele><time>2026-04-19T12:05:15.787Z</time></trkpt><trkpt lat="42.7791733" lon="11.8377112"><ele>260.0</ele><time>2026-04-19T12:05:16.788Z</time></trkpt><trkpt lat="42.779017" lon="11.8379758"><ele>260.0</ele><time>2026-04-19T12:05:17.787Z</time></trkpt><trkpt lat="42.7788597" lon="11.8382478"><ele>262.0</ele><time>2026-04-19T12:05:18.787Z</time></trkpt><trkpt lat="42.7787017" lon="11.8385145"><ele>264.0</ele><time>2026-04-19T12:05:19.787Z</time></trkpt><trkpt lat="42.7785471" lon="11.8387851"><ele>263.5</ele><time>2026-04-19T12:05:20.788Z</time></trkpt><trkpt lat="42.7783846" lon="11.8390598"><ele>263.0</ele><time>2026-04-19T12:05:21.787Z</time></trkpt><trkpt lat="42.7782321" lon="11.839332"><ele>263.0</ele><time>2026-04-19T12:05:22.787Z</time></trkpt><trkpt lat="42.7780768" lon="11.8396034"><ele>263.0</ele><time>2026-04-19T12:05:23.786Z</time></trkpt><trkpt lat="42.7779241" lon="11.8398846"><ele>263.0</ele><time>2026-04-19T12:05:24.787Z</time></trkpt><trkpt lat="42.7777722" lon="11.8401639"><ele>263.0</ele><time>2026-04-19T12:05:25.788Z</time></trkpt><trkpt lat="42.7776232" lon="11.8404447"><ele>263.0</ele><time>2026-04-19T12:05:26.788Z</time></trkpt><trkpt lat="42.7774751" lon="11.8407305"><ele>263.0</ele><time>2026-04-19T12:05:27.787Z</time></trkpt><trkpt lat="42.7773296" lon="11.8410171"><ele>264.5</ele><time>2026-04-19T12:05:28.787Z</time></trkpt><trkpt lat="42.7771862" lon="11.841297"><ele>266.0</ele><time>2026-04-19T12:05:29.787Z</time></trkpt><trkpt lat="42.7770384" lon="11.8415775"><ele>264.5</ele><time>2026-04-19T12:05:30.786Z</time></trkpt><trkpt lat="42.7768956" lon="11.8418634"><ele>263.0</ele><time>2026-04-19T12:05:31.786Z</time></trkpt><trkpt lat="42.7767502" lon="11.8421413"><ele>263.0</ele><time>2026-04-19T12:05:32.788Z</time></trkpt><trkpt lat="42.7766045" lon="11.8424189"><ele>263.0</ele><time>2026-04-19T12:05:33.787Z</time></trkpt><trkpt lat="42.7764698" lon="11.8426875"><ele>263.5</ele><time>2026-04-19T12:05:34.787Z</time></trkpt><trkpt lat="42.7763287" lon="11.8429499"><ele>264.0</ele><time>2026-04-19T12:05:35.787Z</time></trkpt><trkpt lat="42.7761997" lon="11.8431998"><ele>264.0</ele><time>2026-04-19T12:05:36.788Z</time></trkpt><trkpt lat="42.7760694" lon="11.8434471"><ele>264.0</ele><time>2026-04-19T12:05:37.788Z</time></trkpt><trkpt lat="42.7759427" lon="11.843695"><ele>264.0</ele><time>2026-04-19T12:05:38.787Z</time></trkpt><trkpt lat="42.7758157" lon="11.8439407"><ele>263.6666666666667</ele><time>2026-04-19T12:05:39.787Z</time></trkpt><trkpt lat="42.7757007" lon="11.8441871"><ele>263.33333333333337</ele><time>2026-04-19T12:05:40.787Z</time></trkpt><trkpt lat="42.7755966" lon="11.844453"><ele>263.0</ele><time>2026-04-19T12:05:41.786Z</time></trkpt><trkpt lat="42.7755007" lon="11.8447282"><ele>264.0</ele><time>2026-04-19T12:05:42.788Z</time></trkpt><trkpt lat="42.7754146" lon="11.845014"><ele>265.0</ele><time>2026-04-19T12:05:43.787Z</time></trkpt><trkpt lat="42.7753342" lon="11.8453153"><ele>265.5</ele><time>2026-04-19T12:05:44.787Z</time></trkpt><trkpt lat="42.775264" lon="11.8456224"><ele>266.0</ele><time>2026-04-19T12:05:45.788Z</time></trkpt><trkpt lat="42.7752017" lon="11.8459207"><ele>265.5</ele><time>2026-04-19T12:05:46.787Z</time></trkpt><trkpt lat="42.7751435" lon="11.8462267"><ele>265.0</ele><time>2026-04-19T12:05:47.787Z</time></trkpt><trkpt lat="42.7750921" lon="11.8465202"><ele>265.0</ele><time>2026-04-19T12:05:48.786Z</time></trkpt><trkpt lat="42.7750335" lon="11.8467917"><ele>265.0</ele><time>2026-04-19T12:05:49.787Z</time></trkpt><trkpt lat="42.7749707" lon="11.8470417"><ele>265.0</ele><time>2026-04-19T12:05:50.787Z</time></trkpt><trkpt lat="42.774897" lon="11.847274"><ele>265.66666666666663</ele><time>2026-04-19T12:05:51.787Z</time></trkpt><trkpt lat="42.774811" lon="11.8474899"><ele>266.3333333333333</ele><time>2026-04-19T12:05:52.786Z</time></trkpt><trkpt lat="42.7747173" lon="11.8477031"><ele>267.0</ele><time>2026-04-19T12:05:53.786Z</time></trkpt><trkpt lat="42.7746084" lon="11.8479081"><ele>268.0</ele><time>2026-04-19T12:05:54.786Z</time></trkpt><trkpt lat="42.774493" lon="11.8481081"><ele>269.0</ele><time>2026-04-19T12:05:55.787Z</time></trkpt><trkpt lat="42.7743644" lon="11.8482999"><ele>270.0</ele><time>2026-04-19T12:05:56.788Z</time></trkpt><trkpt lat="42.7742258" lon="11.8484936"><ele>270.0</ele><time>2026-04-19T12:05:57.786Z</time></trkpt><trkpt lat="42.774088" lon="11.8486891"><ele>270.0</ele><time>2026-04-19T12:05:58.786Z</time></trkpt><trkpt lat="42.7739397" lon="11.8488866"><ele>270.0</ele><time>2026-04-19T12:05:59.786Z</time></trkpt><trkpt lat="42.7737915" lon="11.8490859"><ele>270.0</ele><time>2026-04-19T12:06:00.786Z</time></trkpt><trkpt lat="42.7736377" lon="11.8492922"><ele>270.0</ele><time>2026-04-19T12:06:01.786Z</time></trkpt><trkpt lat="42.7734839" lon="11.8495052"><ele>270.0</ele><time>2026-04-19T12:06:02.787Z</time></trkpt><trkpt lat="42.7733245" lon="11.8497269"><ele>271.0</ele><time>2026-04-19T12:06:03.787Z</time></trkpt><trkpt lat="42.7731582" lon="11.8499522"><ele>272.0</ele><time>2026-04-19T12:06:04.787Z</time></trkpt><trkpt lat="42.772996" lon="11.8501782"><ele>272.0</ele><time>2026-04-19T12:06:05.787Z</time></trkpt><trkpt lat="42.7728267" lon="11.8504063"><ele>272.0</ele><time>2026-04-19T12:06:06.787Z</time></trkpt><trkpt lat="42.7726602" lon="11.8506337"><ele>272.33333333333337</ele><time>2026-04-19T12:06:07.787Z</time></trkpt><trkpt lat="42.7724995" lon="11.850851"><ele>272.6666666666667</ele><time>2026-04-19T12:06:08.787Z</time></trkpt><trkpt lat="42.7723471" lon="11.8510596"><ele>273.0</ele><time>2026-04-19T12:06:09.787Z</time></trkpt><trkpt lat="42.7722029" lon="11.8512599"><ele>273.0</ele><time>2026-04-19T12:06:10.787Z</time></trkpt><trkpt lat="42.7720648" lon="11.8514489"><ele>273.0</ele><time>2026-04-19T12:06:11.787Z</time></trkpt><trkpt lat="42.7719336" lon="11.8516299"><ele>273.0</ele><time>2026-04-19T12:06:12.788Z</time></trkpt><trkpt lat="42.7718172" lon="11.8518083"><ele>270.6666666666667</ele><time>2026-04-19T12:06:13.788Z</time></trkpt><trkpt lat="42.7717194" lon="11.8519918"><ele>268.33333333333337</ele><time>2026-04-19T12:06:14.788Z</time></trkpt><trkpt lat="42.771644" lon="11.8521697"><ele>266.0</ele><time>2026-04-19T12:06:15.787Z</time></trkpt><trkpt lat="42.7715845" lon="11.852356"><ele>266.0</ele><time>2026-04-19T12:06:16.787Z</time></trkpt><trkpt lat="42.7715215" lon="11.8525572"><ele>266.0</ele><time>2026-04-19T12:06:17.788Z</time></trkpt><trkpt lat="42.7714828" lon="11.8527549"><ele>266.0</ele><time>2026-04-19T12:06:18.788Z</time></trkpt><trkpt lat="42.7714554" lon="11.8529655"><ele>265.33333333333337</ele><time>2026-04-19T12:06:19.787Z</time></trkpt><trkpt lat="42.7714219" lon="11.853176"><ele>264.6666666666667</ele><time>2026-04-19T12:06:20.788Z</time></trkpt><trkpt lat="42.7713867" lon="11.8534068"><ele>264.0</ele><time>2026-04-19T12:06:21.786Z</time></trkpt><trkpt lat="42.7713548" lon="11.85364"><ele>264.0</ele><time>2026-04-19T12:06:22.788Z</time></trkpt><trkpt lat="42.7713232" lon="11.8538816"><ele>264.0</ele><time>2026-04-19T12:06:23.788Z</time></trkpt><trkpt lat="42.7712964" lon="11.8541196"><ele>264.0</ele><time>2026-04-19T12:06:24.787Z</time></trkpt><trkpt lat="42.7712603" lon="11.8543487"><ele>264.3333333333333</ele><time>2026-04-19T12:06:25.788Z</time></trkpt><trkpt lat="42.7712221" lon="11.8545658"><ele>264.66666666666663</ele><time>2026-04-19T12:06:26.787Z</time></trkpt><trkpt lat="42.7711772" lon="11.8547774"><ele>265.0</ele><time>2026-04-19T12:06:27.788Z</time></trkpt><trkpt lat="42.771098" lon="11.8549604"><ele>263.66666666666663</ele><time>2026-04-19T12:06:28.788Z</time></trkpt><trkpt lat="42.7709867" lon="11.8551312"><ele>262.3333333333333</ele><time>2026-04-19T12:06:29.788Z</time></trkpt><trkpt lat="42.7708513" lon="11.8552835"><ele>261.0</ele><time>2026-04-19T12:06:30.787Z</time></trkpt><trkpt lat="42.7706858" lon="11.8554014"><ele>261.0</ele><time>2026-04-19T12:06:31.787Z</time></trkpt><trkpt lat="42.7705071" lon="11.8554925"><ele>261.0</ele><time>2026-04-19T12:06:32.787Z</time></trkpt><trkpt lat="42.7703151" lon="11.8555516"><ele>261.0</ele><time>2026-04-19T12:06:33.788Z</time></trkpt><trkpt lat="42.7701154" lon="11.8555853"><ele>260.3333333333333</ele><time>2026-04-19T12:06:34.788Z</time></trkpt><trkpt lat="42.7699093" lon="11.8556199"><ele>259.66666666666663</ele><time>2026-04-19T12:06:35.788Z</time></trkpt><trkpt lat="42.769695" lon="11.8556627"><ele>259.0</ele><time>2026-04-19T12:06:36.787Z</time></trkpt><trkpt lat="42.7694788" lon="11.8556989"><ele>258.5</ele><time>2026-04-19T12:06:37.786Z</time></trkpt><trkpt lat="42.7692553" lon="11.8557354"><ele>258.0</ele><time>2026-04-19T12:06:38.786Z</time></trkpt><trkpt lat="42.7690285" lon="11.8557705"><ele>258.0</ele><time>2026-04-19T12:06:39.788Z</time></trkpt><trkpt lat="42.768801" lon="11.8558079"><ele>258.0</ele><time>2026-04-19T12:06:40.787Z</time></trkpt><trkpt lat="42.7685669" lon="11.8558436"><ele>256.5</ele><time>2026-04-19T12:06:41.788Z</time></trkpt><trkpt lat="42.7683319" lon="11.8558837"><ele>255.0</ele><time>2026-04-19T12:06:42.787Z</time></trkpt><trkpt lat="42.7680974" lon="11.8559255"><ele>254.0</ele><time>2026-04-19T12:06:43.787Z</time></trkpt><trkpt lat="42.7678656" lon="11.855967"><ele>253.0</ele><time>2026-04-19T12:06:44.788Z</time></trkpt><trkpt lat="42.7676341" lon="11.8560058"><ele>253.0</ele><time>2026-04-19T12:06:45.788Z</time></trkpt><trkpt lat="42.7674075" lon="11.8560365"><ele>253.0</ele><time>2026-04-19T12:06:46.786Z</time></trkpt><trkpt lat="42.7671811" lon="11.856068"><ele>253.0</ele><time>2026-04-19T12:06:47.787Z</time></trkpt><trkpt lat="42.7669525" lon="11.8561042"><ele>253.0</ele><time>2026-04-19T12:06:48.788Z</time></trkpt><trkpt lat="42.766724" lon="11.8561462"><ele>252.0</ele><time>2026-04-19T12:06:49.788Z</time></trkpt><trkpt lat="42.7664966" lon="11.8561833"><ele>251.0</ele><time>2026-04-19T12:06:50.786Z</time></trkpt><trkpt lat="42.7662679" lon="11.8562216"><ele>251.0</ele><time>2026-04-19T12:06:51.788Z</time></trkpt><trkpt lat="42.7660384" lon="11.8562483"><ele>251.0</ele><time>2026-04-19T12:06:52.788Z</time></trkpt><trkpt lat="42.7658056" lon="11.8562762"><ele>249.0</ele><time>2026-04-19T12:06:53.787Z</time></trkpt><trkpt lat="42.765573" lon="11.8562901"><ele>247.0</ele><time>2026-04-19T12:06:54.787Z</time></trkpt><trkpt lat="42.7653435" lon="11.8562873"><ele>247.0</ele><time>2026-04-19T12:06:55.788Z</time></trkpt><trkpt lat="42.7651205" lon="11.8562874"><ele>247.0</ele><time>2026-04-19T12:06:56.787Z</time></trkpt><trkpt lat="42.7649045" lon="11.8562809"><ele>247.0</ele><time>2026-04-19T12:06:57.787Z</time></trkpt><trkpt lat="42.7647164" lon="11.8562835"><ele>247.0</ele><time>2026-04-19T12:06:58.787Z</time></trkpt><trkpt lat="42.7645292" lon="11.8562849"><ele>247.0</ele><time>2026-04-19T12:06:59.787Z</time></trkpt><trkpt lat="42.7643538" lon="11.85628"><ele>247.0</ele><time>2026-04-19T12:07:00.786Z</time></trkpt><trkpt lat="42.7641771" lon="11.8562737"><ele>246.66666666666666</ele><time>2026-04-19T12:07:01.786Z</time></trkpt><trkpt lat="42.7640158" lon="11.8562745"><ele>246.33333333333331</ele><time>2026-04-19T12:07:02.786Z</time></trkpt><trkpt lat="42.7638469" lon="11.856269"><ele>246.0</ele><time>2026-04-19T12:07:03.787Z</time></trkpt><trkpt lat="42.7636709" lon="11.8562696"><ele>246.33333333333331</ele><time>2026-04-19T12:07:04.788Z</time></trkpt><trkpt lat="42.7635013" lon="11.8562801"><ele>246.66666666666666</ele><time>2026-04-19T12:07:05.787Z</time></trkpt><trkpt lat="42.7633233" lon="11.8563112"><ele>247.0</ele><time>2026-04-19T12:07:06.787Z</time></trkpt><trkpt lat="42.7631461" lon="11.8563654"><ele>247.0</ele><time>2026-04-19T12:07:07.787Z</time></trkpt><trkpt lat="42.7629727" lon="11.8564446"><ele>247.0</ele><time>2026-04-19T12:07:08.788Z</time></trkpt><trkpt lat="42.7628065" lon="11.8565527"><ele>247.0</ele><time>2026-04-19T12:07:09.787Z</time></trkpt><trkpt lat="42.7626508" lon="11.8566771"><ele>247.33333333333331</ele><time>2026-04-19T12:07:10.788Z</time></trkpt><trkpt lat="42.7625112" lon="11.8568187"><ele>247.66666666666669</ele><time>2026-04-19T12:07:11.786Z</time></trkpt><trkpt lat="42.762374" lon="11.8569775"><ele>248.0</ele><time>2026-04-19T12:07:12.787Z</time></trkpt><trkpt lat="42.7622485" lon="11.8571506"><ele>248.0</ele><time>2026-04-19T12:07:13.787Z</time></trkpt><trkpt lat="42.7621318" lon="11.8573434"><ele>248.0</ele><time>2026-04-19T12:07:14.786Z</time></trkpt><trkpt lat="42.7620386" lon="11.8575618"><ele>248.0</ele><time>2026-04-19T12:07:15.788Z</time></trkpt><trkpt lat="42.7619517" lon="11.8577862"><ele>247.66666666666669</ele><time>2026-04-19T12:07:16.787Z</time></trkpt><trkpt lat="42.7618658" lon="11.8580201"><ele>247.33333333333331</ele><time>2026-04-19T12:07:17.787Z</time></trkpt><trkpt lat="42.761779" lon="11.8582541"><ele>247.0</ele><time>2026-04-19T12:07:18.788Z</time></trkpt><trkpt lat="42.7616901" lon="11.8585018"><ele>248.0</ele><time>2026-04-19T12:07:19.788Z</time></trkpt><trkpt lat="42.7616222" lon="11.8587599"><ele>249.0</ele><time>2026-04-19T12:07:20.788Z</time></trkpt><trkpt lat="42.7615652" lon="11.859041"><ele>250.0</ele><time>2026-04-19T12:07:21.786Z</time></trkpt><trkpt lat="42.7615108" lon="11.8593333"><ele>250.0</ele><time>2026-04-19T12:07:22.787Z</time></trkpt><trkpt lat="42.7614569" lon="11.859625"><ele>250.0</ele><time>2026-04-19T12:07:23.786Z</time></trkpt><trkpt lat="42.761401" lon="11.8599185"><ele>250.0</ele><time>2026-04-19T12:07:24.787Z</time></trkpt><trkpt lat="42.761342" lon="11.8602131"><ele>249.66666666666666</ele><time>2026-04-19T12:07:25.786Z</time></trkpt><trkpt lat="42.7612838" lon="11.8605034"><ele>249.33333333333331</ele><time>2026-04-19T12:07:26.786Z</time></trkpt><trkpt lat="42.7612276" lon="11.8607934"><ele>249.0</ele><time>2026-04-19T12:07:27.787Z</time></trkpt><trkpt lat="42.761176" lon="11.8610779"><ele>249.0</ele><time>2026-04-19T12:07:28.787Z</time></trkpt><trkpt lat="42.7611218" lon="11.8613523"><ele>249.0</ele><time>2026-04-19T12:07:29.788Z</time></trkpt><trkpt lat="42.761073" lon="11.8616222"><ele>249.0</ele><time>2026-04-19T12:07:30.788Z</time></trkpt><trkpt lat="42.761026" lon="11.8618832"><ele>249.66666666666669</ele><time>2026-04-19T12:07:31.786Z</time></trkpt><trkpt lat="42.7609777" lon="11.8621425"><ele>250.33333333333334</ele><time>2026-04-19T12:07:32.788Z</time></trkpt><trkpt lat="42.7609264" lon="11.8623941"><ele>251.0</ele><time>2026-04-19T12:07:33.787Z</time></trkpt><trkpt lat="42.7608755" lon="11.862633"><ele>251.0</ele><time>2026-04-19T12:07:34.788Z</time></trkpt><trkpt lat="42.7608229" lon="11.8628591"><ele>251.0</ele><time>2026-04-19T12:07:35.788Z</time></trkpt><trkpt lat="42.7607545" lon="11.8630694"><ele>251.0</ele><time>2026-04-19T12:07:36.788Z</time></trkpt><trkpt lat="42.760673" lon="11.8632441"><ele>251.0</ele><time>2026-04-19T12:07:37.786Z</time></trkpt><trkpt lat="42.7605691" lon="11.8633845"><ele>251.0</ele><time>2026-04-19T12:07:38.788Z</time></trkpt><trkpt lat="42.7604584" lon="11.8634941"><ele>251.0</ele><time>2026-04-19T12:07:39.787Z</time></trkpt><trkpt lat="42.7603282" lon="11.863583"><ele>251.0</ele><time>2026-04-19T12:07:40.787Z</time></trkpt><trkpt lat="42.7601935" lon="11.8636566"><ele>251.25</ele><time>2026-04-19T12:07:41.788Z</time></trkpt><trkpt lat="42.7600563" lon="11.8637248"><ele>251.5</ele><time>2026-04-19T12:07:42.786Z</time></trkpt><trkpt lat="42.7599201" lon="11.8637944"><ele>251.75</ele><time>2026-04-19T12:07:43.788Z</time></trkpt><trkpt lat="42.7597822" lon="11.8638696"><ele>252.0</ele><time>2026-04-19T12:07:44.787Z</time></trkpt><trkpt lat="42.7596387" lon="11.863939"><ele>252.0</ele><time>2026-04-19T12:07:45.788Z</time></trkpt><trkpt lat="42.7594926" lon="11.8640077"><ele>252.0</ele><time>2026-04-19T12:07:46.787Z</time></trkpt><trkpt lat="42.7593444" lon="11.8640889"><ele>252.0</ele><time>2026-04-19T12:07:47.787Z</time></trkpt><trkpt lat="42.7591928" lon="11.8641638"><ele>251.33333333333331</ele><time>2026-04-19T12:07:48.787Z</time></trkpt><trkpt lat="42.7590345" lon="11.8642277"><ele>250.66666666666666</ele><time>2026-04-19T12:07:49.787Z</time></trkpt><trkpt lat="42.7588731" lon="11.8642787"><ele>250.0</ele><time>2026-04-19T12:07:50.787Z</time></trkpt><trkpt lat="42.7587072" lon="11.8643266"><ele>250.0</ele><time>2026-04-19T12:07:51.787Z</time></trkpt><trkpt lat="42.7585444" lon="11.8643856"><ele>250.0</ele><time>2026-04-19T12:07:52.788Z</time></trkpt><trkpt lat="42.7583926" lon="11.8644566"><ele>250.0</ele><time>2026-04-19T12:07:53.787Z</time></trkpt><trkpt lat="42.7582532" lon="11.8645484"><ele>252.33333333333331</ele><time>2026-04-19T12:07:54.788Z</time></trkpt><trkpt lat="42.7581258" lon="11.8646734"><ele>254.66666666666669</ele><time>2026-04-19T12:07:55.788Z</time></trkpt><trkpt lat="42.7580228" lon="11.8648313"><ele>257.0</ele><time>2026-04-19T12:07:56.788Z</time></trkpt><trkpt lat="42.7579278" lon="11.8650161"><ele>259.0</ele><time>2026-04-19T12:07:57.787Z</time></trkpt><trkpt lat="42.7578313" lon="11.8652035"><ele>261.0</ele><time>2026-04-19T12:07:58.788Z</time></trkpt><trkpt lat="42.757716" lon="11.8653581"><ele>263.0</ele><time>2026-04-19T12:07:59.788Z</time></trkpt><trkpt lat="42.7576002" lon="11.8654723"><ele>263.0</ele><time>2026-04-19T12:08:00.787Z</time></trkpt><trkpt lat="42.7574673" lon="11.8655539"><ele>263.0</ele><time>2026-04-19T12:08:01.787Z</time></trkpt><trkpt lat="42.7573259" lon="11.8656036"><ele>263.0</ele><time>2026-04-19T12:08:02.788Z</time></trkpt><trkpt lat="42.7571751" lon="11.8656282"><ele>263.0</ele><time>2026-04-19T12:08:03.787Z</time></trkpt><trkpt lat="42.7570164" lon="11.8656433"><ele>266.33333333333337</ele><time>2026-04-19T12:08:04.787Z</time></trkpt><trkpt lat="42.756846" lon="11.8656461"><ele>269.6666666666667</ele><time>2026-04-19T12:08:05.787Z</time></trkpt><trkpt lat="42.7566724" lon="11.8656331"><ele>273.0</ele><time>2026-04-19T12:08:06.787Z</time></trkpt><trkpt lat="42.7564916" lon="11.865618"><ele>273.0</ele><time>2026-04-19T12:08:07.788Z</time></trkpt><trkpt lat="42.7563028" lon="11.8656016"><ele>273.0</ele><time>2026-04-19T12:08:08.788Z</time></trkpt><trkpt lat="42.7561061" lon="11.8655853"><ele>273.0</ele><time>2026-04-19T12:08:09.787Z</time></trkpt><trkpt lat="42.7559124" lon="11.8655699"><ele>274.6666666666667</ele><time>2026-04-19T12:08:10.787Z</time></trkpt><trkpt lat="42.7557303" lon="11.8655564"><ele>276.33333333333337</ele><time>2026-04-19T12:08:11.786Z</time></trkpt><trkpt lat="42.755555" lon="11.8655436"><ele>278.0</ele><time>2026-04-19T12:08:12.786Z</time></trkpt><trkpt lat="42.7553939" lon="11.8655532"><ele>278.0</ele><time>2026-04-19T12:08:13.787Z</time></trkpt><trkpt lat="42.7552238" lon="11.8655571"><ele>278.0</ele><time>2026-04-19T12:08:14.786Z</time></trkpt><trkpt lat="42.7550562" lon="11.865563"><ele>278.0</ele><time>2026-04-19T12:08:15.786Z</time></trkpt><trkpt lat="42.7548817" lon="11.8655579"><ele>281.33333333333337</ele><time>2026-04-19T12:08:16.785Z</time></trkpt><trkpt lat="42.7547058" lon="11.8655397"><ele>284.6666666666667</ele><time>2026-04-19T12:08:17.786Z</time></trkpt><trkpt lat="42.7545151" lon="11.8655243"><ele>288.0</ele><time>2026-04-19T12:08:18.786Z</time></trkpt><trkpt lat="42.7543294" lon="11.8655138"><ele>289.0</ele><time>2026-04-19T12:08:19.786Z</time></trkpt><trkpt lat="42.7541453" lon="11.8654966"><ele>290.0</ele><time>2026-04-19T12:08:20.786Z</time></trkpt><trkpt lat="42.7539635" lon="11.8654793"><ele>291.0</ele><time>2026-04-19T12:08:21.786Z</time></trkpt><trkpt lat="42.7537774" lon="11.8654582"><ele>291.0</ele><time>2026-04-19T12:08:22.787Z</time></trkpt><trkpt lat="42.7536065" lon="11.8654405"><ele>291.0</ele><time>2026-04-19T12:08:23.787Z</time></trkpt><trkpt lat="42.7534399" lon="11.8654237"><ele>291.0</ele><time>2026-04-19T12:08:24.786Z</time></trkpt><trkpt lat="42.7532789" lon="11.8653948"><ele>290.6666666666667</ele><time>2026-04-19T12:08:25.787Z</time></trkpt><trkpt lat="42.7531208" lon="11.8653435"><ele>290.33333333333337</ele><time>2026-04-19T12:08:26.787Z</time></trkpt><trkpt lat="42.7529645" lon="11.8652593"><ele>290.0</ele><time>2026-04-19T12:08:27.786Z</time></trkpt><trkpt lat="42.7528101" lon="11.8651475"><ele>293.33333333333337</ele><time>2026-04-19T12:08:28.787Z</time></trkpt><trkpt lat="42.7526599" lon="11.8650156"><ele>296.6666666666667</ele><time>2026-04-19T12:08:29.787Z</time></trkpt><trkpt lat="42.7525178" lon="11.8648866"><ele>300.0</ele><time>2026-04-19T12:08:30.787Z</time></trkpt><trkpt lat="42.7523822" lon="11.8647746"><ele>300.0</ele><time>2026-04-19T12:08:31.786Z</time></trkpt><trkpt lat="42.7522517" lon="11.8646904"><ele>300.0</ele><time>2026-04-19T12:08:32.786Z</time></trkpt><trkpt lat="42.7521098" lon="11.8646308"><ele>300.0</ele><time>2026-04-19T12:08:33.787Z</time></trkpt><trkpt lat="42.7519511" lon="11.864597"><ele>299.6666666666667</ele><time>2026-04-19T12:08:34.787Z</time></trkpt><trkpt lat="42.7517873" lon="11.8645955"><ele>299.33333333333337</ele><time>2026-04-19T12:08:35.787Z</time></trkpt><trkpt lat="42.7516156" lon="11.8646175"><ele>299.0</ele><time>2026-04-19T12:08:36.786Z</time></trkpt><trkpt lat="42.7514362" lon="11.8646561"><ele>299.0</ele><time>2026-04-19T12:08:37.787Z</time></trkpt><trkpt lat="42.7512488" lon="11.8647052"><ele>299.0</ele><time>2026-04-19T12:08:38.785Z</time></trkpt><trkpt lat="42.7510563" lon="11.8647526"><ele>299.0</ele><time>2026-04-19T12:08:39.787Z</time></trkpt><trkpt lat="42.7508639" lon="11.8647978"><ele>301.6666666666667</ele><time>2026-04-19T12:08:40.787Z</time></trkpt><trkpt lat="42.7506835" lon="11.8648383"><ele>304.3333333333333</ele><time>2026-04-19T12:08:41.787Z</time></trkpt><trkpt lat="42.7505167" lon="11.8648813"><ele>307.0</ele><time>2026-04-19T12:08:42.786Z</time></trkpt><trkpt lat="42.7503668" lon="11.8649161"><ele>307.0</ele><time>2026-04-19T12:08:43.786Z</time></trkpt><trkpt lat="42.7502321" lon="11.8649407"><ele>307.0</ele><time>2026-04-19T12:08:44.787Z</time></trkpt><trkpt lat="42.7501096" lon="11.864962"><ele>307.0</ele><time>2026-04-19T12:08:45.787Z</time></trkpt><trkpt lat="42.7499986" lon="11.8649816"><ele>307.0</ele><time>2026-04-19T12:08:46.787Z</time></trkpt><trkpt lat="42.7499016" lon="11.8649835"><ele>308.8</ele><time>2026-04-19T12:08:47.786Z</time></trkpt><trkpt lat="42.7498098" lon="11.8649531"><ele>310.6</ele><time>2026-04-19T12:08:48.786Z</time></trkpt><trkpt lat="42.7497468" lon="11.8648763"><ele>312.40000000000003</ele><time>2026-04-19T12:08:49.786Z</time></trkpt><trkpt lat="42.7496959" lon="11.864789"><ele>314.2</ele><time>2026-04-19T12:08:50.787Z</time></trkpt><trkpt lat="42.7497394" lon="11.864664"><ele>316.0</ele><time>2026-04-19T12:08:51.787Z</time></trkpt><trkpt lat="42.7497994" lon="11.8645571"><ele>316.0</ele><time>2026-04-19T12:08:52.787Z</time></trkpt><trkpt lat="42.7498811" lon="11.8644526"><ele>316.0</ele><time>2026-04-19T12:08:53.787Z</time></trkpt><trkpt lat="42.7499879" lon="11.8643428"><ele>316.0</ele><time>2026-04-19T12:08:54.787Z</time></trkpt><trkpt lat="42.7501186" lon="11.8642145"><ele>316.0</ele><time>2026-04-19T12:08:55.786Z</time></trkpt><trkpt lat="42.7502506" lon="11.8640748"><ele>317.3333333333333</ele><time>2026-04-19T12:08:56.787Z</time></trkpt><trkpt lat="42.7503981" lon="11.8639121"><ele>318.6666666666667</ele><time>2026-04-19T12:08:57.785Z</time></trkpt><trkpt lat="42.7505378" lon="11.863766"><ele>320.0</ele><time>2026-04-19T12:08:58.787Z</time></trkpt><trkpt lat="42.750667" lon="11.8636337"><ele>320.0</ele><time>2026-04-19T12:08:59.786Z</time></trkpt><trkpt lat="42.7507897" lon="11.8635178"><ele>320.0</ele><time>2026-04-19T12:09:00.786Z</time></trkpt><trkpt lat="42.75092" lon="11.863418"><ele>320.0</ele><time>2026-04-19T12:09:01.785Z</time></trkpt><trkpt lat="42.751062" lon="11.8633543"><ele>320.0</ele><time>2026-04-19T12:09:02.786Z</time></trkpt><trkpt lat="42.7512108" lon="11.8633254"><ele>323.0</ele><time>2026-04-19T12:09:03.786Z</time></trkpt><trkpt lat="42.7513621" lon="11.8633187"><ele>326.0</ele><time>2026-04-19T12:09:04.786Z</time></trkpt><trkpt lat="42.7515135" lon="11.8633123"><ele>329.0</ele><time>2026-04-19T12:09:05.786Z</time></trkpt><trkpt lat="42.7516599" lon="11.8633276"><ele>329.0</ele><time>2026-04-19T12:09:06.786Z</time></trkpt><trkpt lat="42.7517984" lon="11.8633328"><ele>329.0</ele><time>2026-04-19T12:09:07.785Z</time></trkpt><trkpt lat="42.7519259" lon="11.8633237"><ele>329.0</ele><time>2026-04-19T12:09:08.787Z</time></trkpt><trkpt lat="42.7520278" lon="11.8632858"><ele>329.0</ele><time>2026-04-19T12:09:09.787Z</time></trkpt><trkpt lat="42.7520997" lon="11.8632082"><ele>329.2</ele><time>2026-04-19T12:09:10.787Z</time></trkpt><trkpt lat="42.7521514" lon="11.8631078"><ele>329.4</ele><time>2026-04-19T12:09:11.787Z</time></trkpt><trkpt lat="42.7521709" lon="11.8629751"><ele>329.6</ele><time>2026-04-19T12:09:12.786Z</time></trkpt><trkpt lat="42.7521422" lon="11.8628424"><ele>329.8</ele><time>2026-04-19T12:09:13.786Z</time></trkpt><trkpt lat="42.7520731" lon="11.8627357"><ele>330.0</ele><time>2026-04-19T12:09:14.785Z</time></trkpt><trkpt lat="42.7519631" lon="11.8626623"><ele>334.3333333333333</ele><time>2026-04-19T12:09:15.786Z</time></trkpt><trkpt lat="42.7518205" lon="11.8626031"><ele>338.66666666666663</ele><time>2026-04-19T12:09:16.786Z</time></trkpt><trkpt lat="42.7516432" lon="11.8625649"><ele>343.0</ele><time>2026-04-19T12:09:17.787Z</time></trkpt><trkpt lat="42.7514447" lon="11.862532"><ele>343.0</ele><time>2026-04-19T12:09:18.787Z</time></trkpt><trkpt lat="42.7512152" lon="11.8625171"><ele>343.0</ele><time>2026-04-19T12:09:19.786Z</time></trkpt><trkpt lat="42.7509717" lon="11.862509"><ele>346.3333333333333</ele><time>2026-04-19T12:09:20.787Z</time></trkpt><trkpt lat="42.7507487" lon="11.8624909"><ele>349.6666666666667</ele><time>2026-04-19T12:09:21.785Z</time></trkpt><trkpt lat="42.7505339" lon="11.8624836"><ele>353.0</ele><time>2026-04-19T12:09:22.786Z</time></trkpt><trkpt lat="42.7503246" lon="11.8624881"><ele>358.0</ele><time>2026-04-19T12:09:23.785Z</time></trkpt><trkpt lat="42.7501042" lon="11.8625141"><ele>363.0</ele><time>2026-04-19T12:09:24.787Z</time></trkpt><trkpt lat="42.7498729" lon="11.8625574"><ele>363.0</ele><time>2026-04-19T12:09:25.787Z</time></trkpt><trkpt lat="42.7496366" lon="11.8626048"><ele>363.0</ele><time>2026-04-19T12:09:26.786Z</time></trkpt><trkpt lat="42.7494147" lon="11.8626473"><ele>360.6666666666667</ele><time>2026-04-19T12:09:27.785Z</time></trkpt><trkpt lat="42.7492104" lon="11.862683"><ele>358.33333333333337</ele><time>2026-04-19T12:09:28.787Z</time></trkpt><trkpt lat="42.7490141" lon="11.8627222"><ele>356.0</ele><time>2026-04-19T12:09:29.786Z</time></trkpt><trkpt lat="42.7488184" lon="11.8627604"><ele>356.0</ele><time>2026-04-19T12:09:30.787Z</time></trkpt><trkpt lat="42.74863" lon="11.8627748"><ele>356.0</ele><time>2026-04-19T12:09:31.785Z</time></trkpt><trkpt lat="42.7484285" lon="11.8628338"><ele>356.0</ele><time>2026-04-19T12:09:32.786Z</time></trkpt><trkpt lat="42.7482556" lon="11.8628735"><ele>355.6666666666667</ele><time>2026-04-19T12:09:33.787Z</time></trkpt><trkpt lat="42.7480858" lon="11.8628932"><ele>355.3333333333333</ele><time>2026-04-19T12:09:34.786Z</time></trkpt><trkpt lat="42.7479427" lon="11.8629462"><ele>355.0</ele><time>2026-04-19T12:09:35.786Z</time></trkpt><trkpt lat="42.747808" lon="11.8629683"><ele>357.0</ele><time>2026-04-19T12:09:36.786Z</time></trkpt><trkpt lat="42.7477003" lon="11.8629307"><ele>359.0</ele><time>2026-04-19T12:09:37.787Z</time></trkpt><trkpt lat="42.747585" lon="11.8629749"><ele>361.0</ele><time>2026-04-19T12:09:38.787Z</time></trkpt><trkpt lat="42.7474672" lon="11.8630185"><ele>363.0</ele><time>2026-04-19T12:09:39.786Z</time></trkpt><trkpt lat="42.7473628" lon="11.8630499"><ele>363.0</ele><time>2026-04-19T12:09:40.786Z</time></trkpt><trkpt lat="42.7472642" lon="11.8630854"><ele>363.0</ele><time>2026-04-19T12:09:41.786Z</time></trkpt><trkpt lat="42.7471692" lon="11.8631123"><ele>363.0</ele><time>2026-04-19T12:09:42.785Z</time></trkpt><trkpt lat="42.7470764" lon="11.8631272"><ele>363.0</ele><time>2026-04-19T12:09:43.785Z</time></trkpt><trkpt lat="42.7469751" lon="11.8631483"><ele>363.0</ele><time>2026-04-19T12:09:44.786Z</time></trkpt><trkpt lat="42.7468852" lon="11.8631614"><ele>365.79999999999995</ele><time>2026-04-19T12:09:45.786Z</time></trkpt><trkpt lat="42.7467934" lon="11.8631822"><ele>368.6</ele><time>2026-04-19T12:09:46.787Z</time></trkpt><trkpt lat="42.7467028" lon="11.8631928"><ele>371.4</ele><time>2026-04-19T12:09:47.786Z</time></trkpt><trkpt lat="42.7466092" lon="11.8632026"><ele>374.20000000000005</ele><time>2026-04-19T12:09:48.785Z</time></trkpt><trkpt lat="42.7465175" lon="11.8632028"><ele>377.0</ele><time>2026-04-19T12:09:49.786Z</time></trkpt><trkpt lat="42.7464246" lon="11.8631986"><ele>377.0</ele><time>2026-04-19T12:09:50.786Z</time></trkpt><trkpt lat="42.7463449" lon="11.8631883"><ele>377.0</ele><time>2026-04-19T12:09:51.786Z</time></trkpt><trkpt lat="42.7462597" lon="11.8631707"><ele>377.0</ele><time>2026-04-19T12:09:52.787Z</time></trkpt><trkpt lat="42.7461771" lon="11.8631504"><ele>377.0</ele><time>2026-04-19T12:09:53.787Z</time></trkpt><trkpt lat="42.7460886" lon="11.8631379"><ele>377.0</ele><time>2026-04-19T12:09:54.787Z</time></trkpt><trkpt lat="42.7460033" lon="11.8631301"><ele>377.0</ele><time>2026-04-19T12:09:55.787Z</time></trkpt><trkpt lat="42.745915" lon="11.8631209"><ele>377.6</ele><time>2026-04-19T12:09:56.786Z</time></trkpt><trkpt lat="42.7458238" lon="11.8631116"><ele>378.20000000000005</ele><time>2026-04-19T12:09:57.785Z</time></trkpt><trkpt lat="42.7457347" lon="11.8631009"><ele>378.8</ele><time>2026-04-19T12:09:58.786Z</time></trkpt><trkpt lat="42.7456397" lon="11.8630913"><ele>379.4</ele><time>2026-04-19T12:09:59.787Z</time></trkpt><trkpt lat="42.7455427" lon="11.8630861"><ele>380.0</ele><time>2026-04-19T12:10:00.787Z</time></trkpt><trkpt lat="42.7454419" lon="11.8630835"><ele>380.0</ele><time>2026-04-19T12:10:01.786Z</time></trkpt><trkpt lat="42.7453417" lon="11.8630797"><ele>380.0</ele><time>2026-04-19T12:10:02.786Z</time></trkpt><trkpt lat="42.7452395" lon="11.8630798"><ele>380.0</ele><time>2026-04-19T12:10:03.787Z</time></trkpt><trkpt lat="42.7451357" lon="11.8630837"><ele>380.0</ele><time>2026-04-19T12:10:04.786Z</time></trkpt><trkpt lat="42.7450111" lon="11.8630776"><ele>380.0</ele><time>2026-04-19T12:10:05.786Z</time></trkpt><trkpt lat="42.7449053" lon="11.8630735"><ele>382.0</ele><time>2026-04-19T12:10:06.787Z</time></trkpt><trkpt lat="42.7447802" lon="11.8630662"><ele>384.0</ele><time>2026-04-19T12:10:07.785Z</time></trkpt><trkpt lat="42.7446632" lon="11.8630537"><ele>386.0</ele><time>2026-04-19T12:10:08.786Z</time></trkpt><trkpt lat="42.7445475" lon="11.8630499"><ele>388.0</ele><time>2026-04-19T12:10:09.786Z</time></trkpt><trkpt lat="42.7444205" lon="11.8630432"><ele>389.5</ele><time>2026-04-19T12:10:10.786Z</time></trkpt><trkpt lat="42.7442946" lon="11.86304"><ele>391.0</ele><time>2026-04-19T12:10:11.786Z</time></trkpt><trkpt lat="42.7441706" lon="11.8630375"><ele>392.5</ele><time>2026-04-19T12:10:12.785Z</time></trkpt><trkpt lat="42.7440398" lon="11.8630333"><ele>394.0</ele><time>2026-04-19T12:10:13.786Z</time></trkpt><trkpt lat="42.7439284" lon="11.8630434"><ele>394.00000000000006</ele><time>2026-04-19T12:10:14.787Z</time></trkpt><trkpt lat="42.7438313" lon="11.8630541"><ele>394.0</ele><time>2026-04-19T12:10:15.787Z</time></trkpt><trkpt lat="42.7437427" lon="11.8630811"><ele>394.0</ele><time>2026-04-19T12:10:16.786Z</time></trkpt><trkpt lat="42.7436627" lon="11.8631148"><ele>394.0</ele><time>2026-04-19T12:10:17.787Z</time></trkpt><trkpt lat="42.743603" lon="11.8631425"><ele>394.00000000000006</ele><time>2026-04-19T12:10:18.786Z</time></trkpt><trkpt lat="42.7435351" lon="11.8631787"><ele>394.0</ele><time>2026-04-19T12:10:20.785Z</time></trkpt><trkpt lat="42.7434933" lon="11.8631123"><ele>394.00000000000006</ele><time>2026-04-19T12:10:24.786Z</time></trkpt><trkpt lat="42.7435542" lon="11.8631621"><ele>394.0</ele><time>2026-04-19T12:10:35.785Z</time></trkpt><trkpt lat="42.7435468" lon="11.8632868"><ele>394.0</ele><time>2026-04-19T12:10:38.786Z</time></trkpt><trkpt lat="42.7435191" lon="11.863381"><ele>394.0</ele><time>2026-04-19T12:10:40.786Z</time></trkpt><trkpt lat="42.7435021" lon="11.8634767"><ele>394.00000000000006</ele><time>2026-04-19T12:10:43.786Z</time></trkpt><trkpt lat="42.743494" lon="11.8635626"><ele>394.0</ele><time>2026-04-19T12:10:46.787Z</time></trkpt><trkpt lat="42.7435449" lon="11.8636427"><ele>394.00000000000006</ele><time>2026-04-19T12:10:50.787Z</time></trkpt><trkpt lat="42.7435893" lon="11.863578"><ele>394.0</ele><time>2026-04-19T12:10:54.787Z</time></trkpt><trkpt lat="42.7435198" lon="11.8635248"><ele>394.0</ele><time>2026-04-19T12:10:58.786Z</time></trkpt><trkpt lat="42.7434986" lon="11.8634303"><ele>394.0</ele><time>2026-04-19T12:11:01.787Z</time></trkpt><trkpt lat="42.7435618" lon="11.8633194"><ele>394.00000000000006</ele><time>2026-04-19T12:11:03.787Z</time></trkpt><trkpt lat="42.7435982" lon="11.8632472"><ele>394.0</ele><time>2026-04-19T12:11:05.786Z</time></trkpt><trkpt lat="42.7436757" lon="11.8631518"><ele>394.0</ele><time>2026-04-19T12:11:07.787Z</time></trkpt><trkpt lat="42.7437487" lon="11.863108"><ele>394.0</ele><time>2026-04-19T12:11:08.787Z</time></trkpt><trkpt lat="42.7438295" lon="11.8630845"><ele>394.0</ele><time>2026-04-19T12:11:09.786Z</time></trkpt><trkpt lat="42.7439297" lon="11.8630738"><ele>394.0</ele><time>2026-04-19T12:11:10.787Z</time></trkpt><trkpt lat="42.744042" lon="11.8630659"><ele>394.0</ele><time>2026-04-19T12:11:11.787Z</time></trkpt><trkpt lat="42.744161" lon="11.8630683"><ele>394.0</ele><time>2026-04-19T12:11:12.787Z</time></trkpt><trkpt lat="42.7442734" lon="11.8630656"><ele>394.0</ele><time>2026-04-19T12:11:13.786Z</time></trkpt><trkpt lat="42.7443829" lon="11.8630722"><ele>394.0</ele><time>2026-04-19T12:11:14.785Z</time></trkpt><trkpt lat="42.7445" lon="11.8630843"><ele>394.0</ele><time>2026-04-19T12:11:15.787Z</time></trkpt><trkpt lat="42.7446024" lon="11.8630896"><ele>394.0</ele><time>2026-04-19T12:11:16.787Z</time></trkpt><trkpt lat="42.7447063" lon="11.8630985"><ele>392.79999999999995</ele><time>2026-04-19T12:11:17.787Z</time></trkpt><trkpt lat="42.7448076" lon="11.8631074"><ele>391.59999999999997</ele><time>2026-04-19T12:11:18.786Z</time></trkpt><trkpt lat="42.7449026" lon="11.8631111"><ele>390.4</ele><time>2026-04-19T12:11:19.786Z</time></trkpt><trkpt lat="42.7449995" lon="11.8631125"><ele>389.2</ele><time>2026-04-19T12:11:20.786Z</time></trkpt><trkpt lat="42.7450904" lon="11.8631177"><ele>388.0</ele><time>2026-04-19T12:11:21.786Z</time></trkpt><trkpt lat="42.7451835" lon="11.8631203"><ele>386.6666666666667</ele><time>2026-04-19T12:11:22.785Z</time></trkpt><trkpt lat="42.7452737" lon="11.8631246"><ele>385.33333333333337</ele><time>2026-04-19T12:11:23.786Z</time></trkpt><trkpt lat="42.7453621" lon="11.8631242"><ele>384.0</ele><time>2026-04-19T12:11:24.786Z</time></trkpt><trkpt lat="42.7454467" lon="11.8631302"><ele>382.6666666666667</ele><time>2026-04-19T12:11:25.786Z</time></trkpt><trkpt lat="42.745533" lon="11.8631336"><ele>381.33333333333337</ele><time>2026-04-19T12:11:26.786Z</time></trkpt><trkpt lat="42.7456163" lon="11.8631293"><ele>380.0</ele><time>2026-04-19T12:11:27.786Z</time></trkpt><trkpt lat="42.7456942" lon="11.8631332"><ele>380.0</ele><time>2026-04-19T12:11:28.786Z</time></trkpt><trkpt lat="42.7457766" lon="11.8631387"><ele>380.0</ele><time>2026-04-19T12:11:29.787Z</time></trkpt><trkpt lat="42.7458551" lon="11.8631465"><ele>380.0</ele><time>2026-04-19T12:11:30.787Z</time></trkpt><trkpt lat="42.745925" lon="11.8631539"><ele>380.0</ele><time>2026-04-19T12:11:31.786Z</time></trkpt><trkpt lat="42.7460082" lon="11.8631606"><ele>380.0</ele><time>2026-04-19T12:11:32.785Z</time></trkpt><trkpt lat="42.7460843" lon="11.8631716"><ele>380.0</ele><time>2026-04-19T12:11:33.786Z</time></trkpt><trkpt lat="42.7461509" lon="11.8631833"><ele>379.5</ele><time>2026-04-19T12:11:34.786Z</time></trkpt><trkpt lat="42.7462584" lon="11.8632301"><ele>379.0</ele><time>2026-04-19T12:11:36.786Z</time></trkpt><trkpt lat="42.7463072" lon="11.8633081"><ele>378.5</ele><time>2026-04-19T12:11:38.786Z</time></trkpt><trkpt lat="42.7462676" lon="11.8634145"><ele>378.0</ele><time>2026-04-19T12:11:41.785Z</time></trkpt><trkpt lat="42.7462221" lon="11.8634874"><ele>377.5</ele><time>2026-04-19T12:11:43.785Z</time></trkpt><trkpt lat="42.7461808" lon="11.8635726"><ele>377.0</ele><time>2026-04-19T12:11:45.784Z</time></trkpt><trkpt lat="42.7461325" lon="11.8636568"><ele>375.6</ele><time>2026-04-19T12:11:47.785Z</time></trkpt><trkpt lat="42.7460751" lon="11.8637251"><ele>374.20000000000005</ele><time>2026-04-19T12:11:49.785Z</time></trkpt><trkpt lat="42.7460739" lon="11.8638533"><ele>372.8</ele><time>2026-04-19T12:11:52.785Z</time></trkpt><trkpt lat="42.7461127" lon="11.8639655"><ele>371.4</ele><time>2026-04-19T12:11:54.785Z</time></trkpt><trkpt lat="42.7461643" lon="11.8640897"><ele>370.0</ele><time>2026-04-19T12:11:56.785Z</time></trkpt><trkpt lat="42.7462144" lon="11.8642017"><ele>368.16666666666663</ele><time>2026-04-19T12:11:58.785Z</time></trkpt><trkpt lat="42.7462849" lon="11.8642877"><ele>366.3333333333333</ele><time>2026-04-19T12:12:00.785Z</time></trkpt><trkpt lat="42.7463452" lon="11.8643703"><ele>364.5</ele><time>2026-04-19T12:12:02.786Z</time></trkpt><trkpt lat="42.7463539" lon="11.864485"><ele>362.6666666666667</ele><time>2026-04-19T12:12:04.786Z</time></trkpt><trkpt lat="42.7463286" lon="11.8645905"><ele>360.83333333333337</ele><time>2026-04-19T12:12:06.785Z</time></trkpt><trkpt lat="42.7462686" lon="11.8646742"><ele>359.0</ele><time>2026-04-19T12:12:09.786Z</time></trkpt><trkpt lat="42.746199" lon="11.8646711"><ele>359.0</ele><time>2026-04-19T12:12:11.785Z</time></trkpt><trkpt lat="42.7460821" lon="11.8646727"><ele>359.0</ele><time>2026-04-19T12:12:13.786Z</time></trkpt><trkpt lat="42.7459532" lon="11.8646833"><ele>359.0</ele><time>2026-04-19T12:12:15.785Z</time></trkpt><trkpt lat="42.7458815" lon="11.864686"><ele>359.0</ele><time>2026-04-19T12:12:16.785Z</time></trkpt><trkpt lat="42.745816" lon="11.8646882"><ele>359.0</ele><time>2026-04-19T12:12:17.785Z</time></trkpt><trkpt lat="42.7457506" lon="11.8646926"><ele>359.0</ele><time>2026-04-19T12:12:18.785Z</time></trkpt><trkpt lat="42.7456385" lon="11.864705"><ele>361.2</ele><time>2026-04-19T12:12:20.785Z</time></trkpt><trkpt lat="42.7455423" lon="11.8647163"><ele>363.4</ele><time>2026-04-19T12:12:22.784Z</time></trkpt><trkpt lat="42.7454315" lon="11.8647341"><ele>365.6</ele><time>2026-04-19T12:12:24.785Z</time></trkpt><trkpt lat="42.7453195" lon="11.8647754"><ele>367.8</ele><time>2026-04-19T12:12:26.784Z</time></trkpt><trkpt lat="42.7452552" lon="11.8648063"><ele>370.0</ele><time>2026-04-19T12:12:27.786Z</time></trkpt><trkpt lat="42.7451924" lon="11.864829"><ele>375.0</ele><time>2026-04-19T12:12:28.786Z</time></trkpt><trkpt lat="42.7451299" lon="11.8648532"><ele>375.0</ele><time>2026-04-19T12:12:29.784Z</time></trkpt><trkpt lat="42.7450679" lon="11.8648858"><ele>375.0</ele><time>2026-04-19T12:12:30.784Z</time></trkpt><trkpt lat="42.7449872" lon="11.8649661"><ele>375.0</ele><time>2026-04-19T12:12:32.786Z</time></trkpt><trkpt lat="42.7449465" lon="11.8650451"><ele>375.0</ele><time>2026-04-19T12:12:34.786Z</time></trkpt></trkseg><trkseg><trkpt lat="42.7448237" lon="11.8650227"><ele>375.0</ele><time>2026-04-19T12:56:01.299Z</time></trkpt><trkpt lat="42.7447576" lon="11.8650737"><ele>375.0</ele><time>2026-04-19T12:56:02.3Z</time></trkpt><trkpt lat="42.7447301" lon="11.8651524"><ele>375.0</ele><time>2026-04-19T12:56:03.299Z</time></trkpt><trkpt lat="42.7449093" lon="11.8651323"><ele>375.0</ele><time>2026-04-19T12:56:06.299Z</time></trkpt><trkpt lat="42.7448491" lon="11.865194"><ele>375.0</ele><time>2026-04-19T12:57:46.777Z</time></trkpt><trkpt lat="42.7447835" lon="11.8652894"><ele>375.6666666666667</ele><time>2026-04-19T12:57:48.776Z</time></trkpt><trkpt lat="42.7447283" lon="11.8654195"><ele>376.3333333333333</ele><time>2026-04-19T12:57:50.777Z</time></trkpt><trkpt lat="42.7446717" lon="11.8654797"><ele>377.0</ele><time>2026-04-19T12:57:51.777Z</time></trkpt><trkpt lat="42.7446046" lon="11.8655259"><ele>377.66666666666663</ele><time>2026-04-19T12:57:52.776Z</time></trkpt><trkpt lat="42.7445376" lon="11.8655398"><ele>378.3333333333333</ele><time>2026-04-19T12:57:53.777Z</time></trkpt><trkpt lat="42.7444821" lon="11.8655898"><ele>379.0</ele><time>2026-04-19T12:57:55.776Z</time></trkpt><trkpt lat="42.7444034" lon="11.8655543"><ele>379.4</ele><time>2026-04-19T12:57:58.776Z</time></trkpt><trkpt lat="42.74436" lon="11.8654277"><ele>379.79999999999995</ele><time>2026-04-19T12:58:00.777Z</time></trkpt><trkpt lat="42.7443357" lon="11.8652995"><ele>380.20000000000005</ele><time>2026-04-19T12:58:02.777Z</time></trkpt><trkpt lat="42.7442998" lon="11.8651762"><ele>380.6</ele><time>2026-04-19T12:58:04.776Z</time></trkpt><trkpt lat="42.7442644" lon="11.865031"><ele>381.0</ele><time>2026-04-19T12:58:06.776Z</time></trkpt><trkpt lat="42.7442362" lon="11.8648895"><ele>381.20000000000005</ele><time>2026-04-19T12:58:08.777Z</time></trkpt><trkpt lat="42.7442369" lon="11.8647638"><ele>381.40000000000003</ele><time>2026-04-19T12:58:10.777Z</time></trkpt><trkpt lat="42.7442702" lon="11.8646553"><ele>381.6</ele><time>2026-04-19T12:58:12.777Z</time></trkpt><trkpt lat="42.7443582" lon="11.8645554"><ele>381.8</ele><time>2026-04-19T12:58:14.777Z</time></trkpt><trkpt lat="42.7444594" lon="11.8644715"><ele>382.0</ele><time>2026-04-19T12:58:16.777Z</time></trkpt><trkpt lat="42.7445392" lon="11.8644007"><ele>382.0</ele><time>2026-04-19T12:58:17.776Z</time></trkpt><trkpt lat="42.7445915" lon="11.8643366"><ele>382.0</ele><time>2026-04-19T12:58:18.776Z</time></trkpt><trkpt lat="42.7446571" lon="11.8643009"><ele>382.0</ele><time>2026-04-19T12:58:19.777Z</time></trkpt><trkpt lat="42.7447729" lon="11.8642487"><ele>382.0</ele><time>2026-04-19T12:58:21.776Z</time></trkpt><trkpt lat="42.7448491" lon="11.8642055"><ele>382.0</ele><time>2026-04-19T12:58:23.777Z</time></trkpt><trkpt lat="42.7449776" lon="11.864174"><ele>382.0</ele><time>2026-04-19T12:58:25.777Z</time></trkpt><trkpt lat="42.7450817" lon="11.8641416"><ele>382.0</ele><time>2026-04-19T12:58:27.776Z</time></trkpt><trkpt lat="42.745147" lon="11.8641194"><ele>382.0</ele><time>2026-04-19T12:58:28.776Z</time></trkpt><trkpt lat="42.7452098" lon="11.8641092"><ele>382.0</ele><time>2026-04-19T12:58:29.777Z</time></trkpt><trkpt lat="42.7452875" lon="11.8641103"><ele>382.0</ele><time>2026-04-19T12:58:31.775Z</time></trkpt><trkpt lat="42.745363" lon="11.8641045"><ele>382.0</ele><time>2026-04-19T12:58:33.776Z</time></trkpt><trkpt lat="42.7454664" lon="11.8640713"><ele>380.40000000000003</ele><time>2026-04-19T12:58:35.775Z</time></trkpt><trkpt lat="42.7455522" lon="11.8640258"><ele>378.8</ele><time>2026-04-19T12:58:37.776Z</time></trkpt><trkpt lat="42.74565" lon="11.8639604"><ele>377.2</ele><time>2026-04-19T12:58:39.775Z</time></trkpt><trkpt lat="42.7457563" lon="11.8639221"><ele>375.6</ele><time>2026-04-19T12:58:41.776Z</time></trkpt><trkpt lat="42.745863" lon="11.8638651"><ele>374.0</ele><time>2026-04-19T12:58:43.777Z</time></trkpt><trkpt lat="42.7459475" lon="11.8638334"><ele>374.0</ele><time>2026-04-19T12:58:45.777Z</time></trkpt><trkpt lat="42.7460294" lon="11.8637755"><ele>374.0</ele><time>2026-04-19T12:58:47.777Z</time></trkpt><trkpt lat="42.7461077" lon="11.8636771"><ele>374.0</ele><time>2026-04-19T12:58:49.777Z</time></trkpt><trkpt lat="42.7461975" lon="11.8635697"><ele>374.0</ele><time>2026-04-19T12:58:51.777Z</time></trkpt><trkpt lat="42.7462728" lon="11.86346"><ele>374.0</ele><time>2026-04-19T12:58:53.776Z</time></trkpt><trkpt lat="42.7463357" lon="11.8633632"><ele>374.5</ele><time>2026-04-19T12:58:55.777Z</time></trkpt><trkpt lat="42.7463507" lon="11.8632789"><ele>375.0</ele><time>2026-04-19T12:58:57.777Z</time></trkpt><trkpt lat="42.7463272" lon="11.8631804"><ele>375.5</ele><time>2026-04-19T12:59:04.776Z</time></trkpt><trkpt lat="42.7462464" lon="11.8631883"><ele>376.0</ele><time>2026-04-19T12:59:05.777Z</time></trkpt><trkpt lat="42.7461765" lon="11.8631804"><ele>376.5</ele><time>2026-04-19T12:59:06.775Z</time></trkpt><trkpt lat="42.746105" lon="11.8631588"><ele>377.0</ele><time>2026-04-19T12:59:07.777Z</time></trkpt><trkpt lat="42.7460223" lon="11.8631207"><ele>377.75</ele><time>2026-04-19T12:59:08.776Z</time></trkpt><trkpt lat="42.7458822" lon="11.8631392"><ele>378.5</ele><time>2026-04-19T12:59:09.776Z</time></trkpt><trkpt lat="42.7457377" lon="11.863143"><ele>379.25</ele><time>2026-04-19T12:59:10.777Z</time></trkpt><trkpt lat="42.7455949" lon="11.8631409"><ele>380.0</ele><time>2026-04-19T12:59:11.775Z</time></trkpt><trkpt lat="42.745447" lon="11.8631305"><ele>380.0</ele><time>2026-04-19T12:59:12.775Z</time></trkpt><trkpt lat="42.7452875" lon="11.8631303"><ele>380.0</ele><time>2026-04-19T12:59:13.776Z</time></trkpt><trkpt lat="42.7451413" lon="11.8631218"><ele>380.0</ele><time>2026-04-19T12:59:14.776Z</time></trkpt><trkpt lat="42.7449744" lon="11.8631209"><ele>382.0</ele><time>2026-04-19T12:59:15.775Z</time></trkpt><trkpt lat="42.7448323" lon="11.8630933"><ele>384.0</ele><time>2026-04-19T12:59:16.777Z</time></trkpt><trkpt lat="42.7446964" lon="11.8630938"><ele>386.0</ele><time>2026-04-19T12:59:17.776Z</time></trkpt><trkpt lat="42.7445576" lon="11.8630988"><ele>388.0</ele><time>2026-04-19T12:59:18.775Z</time></trkpt><trkpt lat="42.7444193" lon="11.8630854"><ele>389.5</ele><time>2026-04-19T12:59:19.776Z</time></trkpt><trkpt lat="42.7442937" lon="11.8630809"><ele>391.0</ele><time>2026-04-19T12:59:20.776Z</time></trkpt><trkpt lat="42.7441681" lon="11.8630617"><ele>392.5</ele><time>2026-04-19T12:59:21.777Z</time></trkpt><trkpt lat="42.7440281" lon="11.8630621"><ele>394.0</ele><time>2026-04-19T12:59:22.777Z</time></trkpt><trkpt lat="42.7438966" lon="11.863081"><ele>394.0</ele><time>2026-04-19T12:59:23.776Z</time></trkpt><trkpt lat="42.7437817" lon="11.8631206"><ele>394.0</ele><time>2026-04-19T12:59:24.775Z</time></trkpt><trkpt lat="42.7436684" lon="11.8631691"><ele>394.0</ele><time>2026-04-19T12:59:25.777Z</time></trkpt><trkpt lat="42.7435559" lon="11.863229"><ele>394.0</ele><time>2026-04-19T12:59:26.777Z</time></trkpt><trkpt lat="42.7434389" lon="11.8632989"><ele>394.0</ele><time>2026-04-19T12:59:27.777Z</time></trkpt><trkpt lat="42.743333" lon="11.863368"><ele>394.0</ele><time>2026-04-19T12:59:28.776Z</time></trkpt><trkpt lat="42.7432236" lon="11.8634459"><ele>394.0</ele><time>2026-04-19T12:59:29.776Z</time></trkpt><trkpt lat="42.7431048" lon="11.8635282"><ele>394.0</ele><time>2026-04-19T12:59:30.776Z</time></trkpt><trkpt lat="42.7429836" lon="11.8636084"><ele>394.0</ele><time>2026-04-19T12:59:31.776Z</time></trkpt><trkpt lat="42.7428475" lon="11.8636791"><ele>394.0</ele><time>2026-04-19T12:59:32.777Z</time></trkpt><trkpt lat="42.7427225" lon="11.8637324"><ele>394.0</ele><time>2026-04-19T12:59:33.776Z</time></trkpt><trkpt lat="42.7426123" lon="11.8637913"><ele>394.0</ele><time>2026-04-19T12:59:34.777Z</time></trkpt><trkpt lat="42.7425192" lon="11.8638685"><ele>393.2</ele><time>2026-04-19T12:59:35.776Z</time></trkpt><trkpt lat="42.7424412" lon="11.8639566"><ele>392.4</ele><time>2026-04-19T12:59:36.777Z</time></trkpt><trkpt lat="42.7424274" lon="11.864066"><ele>391.6</ele><time>2026-04-19T12:59:37.777Z</time></trkpt><trkpt lat="42.7424123" lon="11.8642044"><ele>390.8</ele><time>2026-04-19T12:59:38.776Z</time></trkpt><trkpt lat="42.742402" lon="11.864344"><ele>390.0</ele><time>2026-04-19T12:59:39.775Z</time></trkpt><trkpt lat="42.7423727" lon="11.8644696"><ele>390.0</ele><time>2026-04-19T12:59:40.777Z</time></trkpt><trkpt lat="42.7423191" lon="11.8645683"><ele>390.0</ele><time>2026-04-19T12:59:41.777Z</time></trkpt><trkpt lat="42.7422397" lon="11.8646272"><ele>390.0</ele><time>2026-04-19T12:59:42.777Z</time></trkpt><trkpt lat="42.7421525" lon="11.8646353"><ele>390.0</ele><time>2026-04-19T12:59:43.777Z</time></trkpt><trkpt lat="42.7420626" lon="11.8646171"><ele>390.0</ele><time>2026-04-19T12:59:44.777Z</time></trkpt><trkpt lat="42.7419654" lon="11.8645703"><ele>389.8</ele><time>2026-04-19T12:59:45.777Z</time></trkpt><trkpt lat="42.741862" lon="11.8645229"><ele>389.6</ele><time>2026-04-19T12:59:46.775Z</time></trkpt><trkpt lat="42.7417561" lon="11.8644873"><ele>389.4</ele><time>2026-04-19T12:59:47.777Z</time></trkpt><trkpt lat="42.7416543" lon="11.8644824"><ele>389.2</ele><time>2026-04-19T12:59:48.776Z</time></trkpt><trkpt lat="42.7415556" lon="11.8645135"><ele>389.0</ele><time>2026-04-19T12:59:49.775Z</time></trkpt><trkpt lat="42.7414693" lon="11.8645766"><ele>389.0</ele><time>2026-04-19T12:59:50.777Z</time></trkpt><trkpt lat="42.7413989" lon="11.8646715"><ele>389.0</ele><time>2026-04-19T12:59:51.776Z</time></trkpt><trkpt lat="42.7413503" lon="11.8648046"><ele>389.0</ele><time>2026-04-19T12:59:52.776Z</time></trkpt><trkpt lat="42.7413318" lon="11.864947"><ele>389.0</ele><time>2026-04-19T12:59:53.777Z</time></trkpt><trkpt lat="42.7413379" lon="11.8650988"><ele>389.0</ele><time>2026-04-19T12:59:54.776Z</time></trkpt><trkpt lat="42.7413593" lon="11.8652512"><ele>388.0</ele><time>2026-04-19T12:59:55.776Z</time></trkpt><trkpt lat="42.7413885" lon="11.8654164"><ele>387.0</ele><time>2026-04-19T12:59:56.776Z</time></trkpt><trkpt lat="42.741421" lon="11.865597"><ele>386.0</ele><time>2026-04-19T12:59:57.777Z</time></trkpt><trkpt lat="42.7414551" lon="11.8657912"><ele>385.0</ele><time>2026-04-19T12:59:58.776Z</time></trkpt><trkpt lat="42.7414912" lon="11.8659903"><ele>384.33333333333337</ele><time>2026-04-19T12:59:59.777Z</time></trkpt><trkpt lat="42.7415324" lon="11.8661979"><ele>383.6666666666667</ele><time>2026-04-19T13:00:00.777Z</time></trkpt><trkpt lat="42.7415764" lon="11.8664135"><ele>383.0</ele><time>2026-04-19T13:00:01.776Z</time></trkpt><trkpt lat="42.7416171" lon="11.866635"><ele>383.33333333333337</ele><time>2026-04-19T13:00:02.777Z</time></trkpt><trkpt lat="42.7416591" lon="11.8668541"><ele>383.6666666666667</ele><time>2026-04-19T13:00:03.776Z</time></trkpt><trkpt lat="42.7417047" lon="11.8670851"><ele>384.0</ele><time>2026-04-19T13:00:04.777Z</time></trkpt><trkpt lat="42.7417513" lon="11.8673221"><ele>384.0</ele><time>2026-04-19T13:00:05.776Z</time></trkpt><trkpt lat="42.7417976" lon="11.8675679"><ele>384.0</ele><time>2026-04-19T13:00:06.776Z</time></trkpt><trkpt lat="42.7418482" lon="11.8678118"><ele>384.0</ele><time>2026-04-19T13:00:07.777Z</time></trkpt><trkpt lat="42.7418974" lon="11.8680476"><ele>385.33333333333337</ele><time>2026-04-19T13:00:08.775Z</time></trkpt><trkpt lat="42.7419466" lon="11.8682735"><ele>386.6666666666667</ele><time>2026-04-19T13:00:09.777Z</time></trkpt><trkpt lat="42.7420002" lon="11.868487"><ele>388.0</ele><time>2026-04-19T13:00:10.776Z</time></trkpt><trkpt lat="42.7420791" lon="11.8686942"><ele>389.0</ele><time>2026-04-19T13:00:11.776Z</time></trkpt><trkpt lat="42.7421648" lon="11.8688923"><ele>390.0</ele><time>2026-04-19T13:00:12.776Z</time></trkpt><trkpt lat="42.7422491" lon="11.8690869"><ele>391.0</ele><time>2026-04-19T13:00:13.776Z</time></trkpt><trkpt lat="42.7423293" lon="11.8692763"><ele>391.5</ele><time>2026-04-19T13:00:14.776Z</time></trkpt><trkpt lat="42.742405" lon="11.8694553"><ele>392.0</ele><time>2026-04-19T13:00:15.775Z</time></trkpt><trkpt lat="42.7424685" lon="11.8696341"><ele>392.5</ele><time>2026-04-19T13:00:16.776Z</time></trkpt><trkpt lat="42.7425205" lon="11.8698219"><ele>393.0</ele><time>2026-04-19T13:00:17.777Z</time></trkpt><trkpt lat="42.7425615" lon="11.8700214"><ele>392.0</ele><time>2026-04-19T13:00:18.777Z</time></trkpt><trkpt lat="42.7425893" lon="11.8702182"><ele>391.0</ele><time>2026-04-19T13:00:19.777Z</time></trkpt><trkpt lat="42.7425975" lon="11.8704114"><ele>390.0</ele><time>2026-04-19T13:00:20.775Z</time></trkpt><trkpt lat="42.7425875" lon="11.8705936"><ele>389.0</ele><time>2026-04-19T13:00:21.776Z</time></trkpt><trkpt lat="42.7425544" lon="11.8707676"><ele>389.0</ele><time>2026-04-19T13:00:22.776Z</time></trkpt><trkpt lat="42.7424964" lon="11.8709347"><ele>389.0</ele><time>2026-04-19T13:00:23.776Z</time></trkpt><trkpt lat="42.7424319" lon="11.8711041"><ele>389.0</ele><time>2026-04-19T13:00:24.776Z</time></trkpt><trkpt lat="42.7423618" lon="11.8712757"><ele>389.0</ele><time>2026-04-19T13:00:25.776Z</time></trkpt><trkpt lat="42.7422812" lon="11.8714466"><ele>389.3333333333333</ele><time>2026-04-19T13:00:26.776Z</time></trkpt><trkpt lat="42.7422084" lon="11.8716252"><ele>389.66666666666663</ele><time>2026-04-19T13:00:27.776Z</time></trkpt><trkpt lat="42.7421509" lon="11.8718257"><ele>390.0</ele><time>2026-04-19T13:00:28.776Z</time></trkpt><trkpt lat="42.7421101" lon="11.8720449"><ele>390.0</ele><time>2026-04-19T13:00:29.777Z</time></trkpt><trkpt lat="42.7420678" lon="11.8722749"><ele>390.0</ele><time>2026-04-19T13:00:30.776Z</time></trkpt><trkpt lat="42.7420306" lon="11.8725149"><ele>390.0</ele><time>2026-04-19T13:00:31.777Z</time></trkpt><trkpt lat="42.7419941" lon="11.8727603"><ele>391.0</ele><time>2026-04-19T13:00:32.776Z</time></trkpt><trkpt lat="42.7419589" lon="11.8730037"><ele>392.0</ele><time>2026-04-19T13:00:33.777Z</time></trkpt><trkpt lat="42.74192" lon="11.873248"><ele>393.0</ele><time>2026-04-19T13:00:34.777Z</time></trkpt><trkpt lat="42.7418778" lon="11.8734949"><ele>393.0</ele><time>2026-04-19T13:00:35.775Z</time></trkpt><trkpt lat="42.7418407" lon="11.873744"><ele>393.0</ele><time>2026-04-19T13:00:36.776Z</time></trkpt><trkpt lat="42.7418047" lon="11.8739943"><ele>393.0</ele><time>2026-04-19T13:00:37.777Z</time></trkpt><trkpt lat="42.7417672" lon="11.8742435"><ele>396.0</ele><time>2026-04-19T13:00:38.776Z</time></trkpt><trkpt lat="42.7417236" lon="11.8744884"><ele>399.0</ele><time>2026-04-19T13:00:39.777Z</time></trkpt><trkpt lat="42.7416832" lon="11.8747319"><ele>402.0</ele><time>2026-04-19T13:00:40.777Z</time></trkpt><trkpt lat="42.7416429" lon="11.8749738"><ele>402.66666666666663</ele><time>2026-04-19T13:00:41.777Z</time></trkpt><trkpt lat="42.7416076" lon="11.8752152"><ele>403.3333333333333</ele><time>2026-04-19T13:00:42.776Z</time></trkpt><trkpt lat="42.7415675" lon="11.875458"><ele>404.0</ele><time>2026-04-19T13:00:43.777Z</time></trkpt><trkpt lat="42.741529" lon="11.8756965"><ele>404.0</ele><time>2026-04-19T13:00:44.776Z</time></trkpt><trkpt lat="42.7414905" lon="11.8759161"><ele>404.0</ele><time>2026-04-19T13:00:45.777Z</time></trkpt><trkpt lat="42.7414579" lon="11.8761217"><ele>404.0</ele><time>2026-04-19T13:00:46.777Z</time></trkpt><trkpt lat="42.7414284" lon="11.8763157"><ele>404.0</ele><time>2026-04-19T13:00:47.775Z</time></trkpt><trkpt lat="42.7413988" lon="11.8764944"><ele>404.0</ele><time>2026-04-19T13:00:48.776Z</time></trkpt><trkpt lat="42.7413688" lon="11.8766717"><ele>404.0</ele><time>2026-04-19T13:00:49.775Z</time></trkpt><trkpt lat="42.7413552" lon="11.8768183"><ele>404.0</ele><time>2026-04-19T13:00:50.776Z</time></trkpt><trkpt lat="42.7413279" lon="11.8769632"><ele>404.75</ele><time>2026-04-19T13:00:51.776Z</time></trkpt><trkpt lat="42.7412969" lon="11.87711"><ele>405.5</ele><time>2026-04-19T13:00:52.777Z</time></trkpt><trkpt lat="42.7412695" lon="11.8772722"><ele>406.25</ele><time>2026-04-19T13:00:53.776Z</time></trkpt><trkpt lat="42.7412406" lon="11.8774459"><ele>407.0</ele><time>2026-04-19T13:00:54.776Z</time></trkpt><trkpt lat="42.7412119" lon="11.8776274"><ele>407.5</ele><time>2026-04-19T13:00:55.777Z</time></trkpt><trkpt lat="42.7411808" lon="11.877816"><ele>408.0</ele><time>2026-04-19T13:00:56.776Z</time></trkpt><trkpt lat="42.7411504" lon="11.8780059"><ele>408.5</ele><time>2026-04-19T13:00:57.777Z</time></trkpt><trkpt lat="42.741122" lon="11.8781996"><ele>409.0</ele><time>2026-04-19T13:00:58.777Z</time></trkpt><trkpt lat="42.7410822" lon="11.8783948"><ele>410.0</ele><time>2026-04-19T13:00:59.775Z</time></trkpt><trkpt lat="42.7410439" lon="11.87859"><ele>411.0</ele><time>2026-04-19T13:01:00.776Z</time></trkpt><trkpt lat="42.7409954" lon="11.8787895"><ele>412.0</ele><time>2026-04-19T13:01:01.777Z</time></trkpt><trkpt lat="42.7409384" lon="11.8789947"><ele>412.0</ele><time>2026-04-19T13:01:02.777Z</time></trkpt><trkpt lat="42.7408687" lon="11.8791937"><ele>412.0</ele><time>2026-04-19T13:01:03.776Z</time></trkpt><trkpt lat="42.7407868" lon="11.879392"><ele>412.0</ele><time>2026-04-19T13:01:04.776Z</time></trkpt><trkpt lat="42.7406954" lon="11.8795952"><ele>410.6666666666667</ele><time>2026-04-19T13:01:05.777Z</time></trkpt><trkpt lat="42.7405991" lon="11.8798044"><ele>409.33333333333337</ele><time>2026-04-19T13:01:06.777Z</time></trkpt><trkpt lat="42.7404952" lon="11.8800218"><ele>408.0</ele><time>2026-04-19T13:01:07.777Z</time></trkpt><trkpt lat="42.740389" lon="11.8802442"><ele>408.0</ele><time>2026-04-19T13:01:08.777Z</time></trkpt><trkpt lat="42.7402889" lon="11.8804617"><ele>408.0</ele><time>2026-04-19T13:01:09.777Z</time></trkpt><trkpt lat="42.7401909" lon="11.8806753"><ele>408.0</ele><time>2026-04-19T13:01:10.777Z</time></trkpt><trkpt lat="42.7400902" lon="11.8808825"><ele>408.66666666666663</ele><time>2026-04-19T13:01:11.776Z</time></trkpt><trkpt lat="42.7399886" lon="11.8810943"><ele>409.3333333333333</ele><time>2026-04-19T13:01:12.776Z</time></trkpt><trkpt lat="42.7398858" lon="11.8813032"><ele>410.0</ele><time>2026-04-19T13:01:13.777Z</time></trkpt><trkpt lat="42.7397834" lon="11.8815108"><ele>410.0</ele><time>2026-04-19T13:01:14.776Z</time></trkpt><trkpt lat="42.7396749" lon="11.8817205"><ele>410.0</ele><time>2026-04-19T13:01:15.776Z</time></trkpt><trkpt lat="42.7395643" lon="11.8819288"><ele>410.0</ele><time>2026-04-19T13:01:16.777Z</time></trkpt><trkpt lat="42.7394454" lon="11.8821395"><ele>412.0</ele><time>2026-04-19T13:01:17.777Z</time></trkpt><trkpt lat="42.739318" lon="11.8823393"><ele>414.0</ele><time>2026-04-19T13:01:18.777Z</time></trkpt><trkpt lat="42.7391807" lon="11.8825271"><ele>416.0</ele><time>2026-04-19T13:01:19.777Z</time></trkpt><trkpt lat="42.7390393" lon="11.8827099"><ele>419.3333333333333</ele><time>2026-04-19T13:01:20.776Z</time></trkpt><trkpt lat="42.7388977" lon="11.8828865"><ele>422.66666666666663</ele><time>2026-04-19T13:01:21.777Z</time></trkpt><trkpt lat="42.7387556" lon="11.8830623"><ele>426.0</ele><time>2026-04-19T13:01:22.776Z</time></trkpt><trkpt lat="42.7386086" lon="11.8832345"><ele>425.66666666666663</ele><time>2026-04-19T13:01:23.776Z</time></trkpt><trkpt lat="42.7384584" lon="11.8833983"><ele>425.3333333333333</ele><time>2026-04-19T13:01:24.776Z</time></trkpt><trkpt lat="42.738305" lon="11.8835278"><ele>425.0</ele><time>2026-04-19T13:01:25.777Z</time></trkpt><trkpt lat="42.7381496" lon="11.8836223"><ele>425.0</ele><time>2026-04-19T13:01:26.775Z</time></trkpt><trkpt lat="42.7379824" lon="11.8836888"><ele>425.0</ele><time>2026-04-19T13:01:27.775Z</time></trkpt><trkpt lat="42.7378082" lon="11.8837231"><ele>425.0</ele><time>2026-04-19T13:01:28.777Z</time></trkpt><trkpt lat="42.7376294" lon="11.883729"><ele>425.0</ele><time>2026-04-19T13:01:29.777Z</time></trkpt><trkpt lat="42.7374495" lon="11.8837228"><ele>425.0</ele><time>2026-04-19T13:01:30.776Z</time></trkpt><trkpt lat="42.7372648" lon="11.8837159"><ele>425.0</ele><time>2026-04-19T13:01:31.776Z</time></trkpt><trkpt lat="42.7370742" lon="11.8837103"><ele>426.66666666666663</ele><time>2026-04-19T13:01:32.777Z</time></trkpt><trkpt lat="42.7368816" lon="11.883694"><ele>428.33333333333337</ele><time>2026-04-19T13:01:33.776Z</time></trkpt><trkpt lat="42.7366912" lon="11.8836832"><ele>430.0</ele><time>2026-04-19T13:01:34.777Z</time></trkpt><trkpt lat="42.7365024" lon="11.8836676"><ele>430.0</ele><time>2026-04-19T13:01:35.777Z</time></trkpt><trkpt lat="42.7363158" lon="11.8836593"><ele>430.0</ele><time>2026-04-19T13:01:36.776Z</time></trkpt><trkpt lat="42.7361342" lon="11.883652"><ele>430.0</ele><time>2026-04-19T13:01:37.777Z</time></trkpt><trkpt lat="42.7359495" lon="11.8836515"><ele>431.0</ele><time>2026-04-19T13:01:38.776Z</time></trkpt><trkpt lat="42.735764" lon="11.8836644"><ele>432.0</ele><time>2026-04-19T13:01:39.777Z</time></trkpt><trkpt lat="42.7355749" lon="11.8837023"><ele>433.0</ele><time>2026-04-19T13:01:40.776Z</time></trkpt><trkpt lat="42.7353844" lon="11.8837636"><ele>432.6666666666667</ele><time>2026-04-19T13:01:41.777Z</time></trkpt><trkpt lat="42.7351874" lon="11.8838344"><ele>432.33333333333337</ele><time>2026-04-19T13:01:42.776Z</time></trkpt><trkpt lat="42.7349865" lon="11.883901"><ele>432.0</ele><time>2026-04-19T13:01:43.777Z</time></trkpt><trkpt lat="42.734792" lon="11.8839646"><ele>432.0</ele><time>2026-04-19T13:01:44.776Z</time></trkpt><trkpt lat="42.7346031" lon="11.8840216"><ele>432.0</ele><time>2026-04-19T13:01:45.775Z</time></trkpt><trkpt lat="42.7344202" lon="11.8840719"><ele>432.0</ele><time>2026-04-19T13:01:46.777Z</time></trkpt><trkpt lat="42.7342439" lon="11.8841072"><ele>432.0</ele><time>2026-04-19T13:01:47.777Z</time></trkpt><trkpt lat="42.7340685" lon="11.8841304"><ele>432.0</ele><time>2026-04-19T13:01:48.777Z</time></trkpt><trkpt lat="42.7338889" lon="11.8841398"><ele>432.0</ele><time>2026-04-19T13:01:49.776Z</time></trkpt><trkpt lat="42.7337192" lon="11.8841438"><ele>432.66666666666663</ele><time>2026-04-19T13:01:50.776Z</time></trkpt><trkpt lat="42.7335519" lon="11.884156"><ele>433.3333333333333</ele><time>2026-04-19T13:01:51.776Z</time></trkpt><trkpt lat="42.7333878" lon="11.8841725"><ele>434.0</ele><time>2026-04-19T13:01:52.776Z</time></trkpt><trkpt lat="42.7332233" lon="11.8841813"><ele>434.0</ele><time>2026-04-19T13:01:53.775Z</time></trkpt><trkpt lat="42.7330549" lon="11.8842"><ele>434.0</ele><time>2026-04-19T13:01:54.776Z</time></trkpt><trkpt lat="42.7328918" lon="11.8842203"><ele>434.0</ele><time>2026-04-19T13:01:55.776Z</time></trkpt><trkpt lat="42.7327268" lon="11.8842394"><ele>432.66666666666663</ele><time>2026-04-19T13:01:56.776Z</time></trkpt><trkpt lat="42.7325571" lon="11.8842648"><ele>431.33333333333337</ele><time>2026-04-19T13:01:57.777Z</time></trkpt><trkpt lat="42.7323846" lon="11.884291"><ele>430.0</ele><time>2026-04-19T13:01:58.776Z</time></trkpt><trkpt lat="42.7322084" lon="11.8843155"><ele>430.0</ele><time>2026-04-19T13:01:59.777Z</time></trkpt><trkpt lat="42.7320183" lon="11.8843312"><ele>430.0</ele><time>2026-04-19T13:02:00.777Z</time></trkpt><trkpt lat="42.7318309" lon="11.8843528"><ele>430.0</ele><time>2026-04-19T13:02:01.777Z</time></trkpt><trkpt lat="42.7316247" lon="11.8843768"><ele>430.33333333333337</ele><time>2026-04-19T13:02:02.777Z</time></trkpt><trkpt lat="42.7314247" lon="11.884404"><ele>430.66666666666663</ele><time>2026-04-19T13:02:03.776Z</time></trkpt><trkpt lat="42.7312316" lon="11.884436"><ele>431.0</ele><time>2026-04-19T13:02:04.776Z</time></trkpt><trkpt lat="42.7310294" lon="11.8844854"><ele>431.66666666666663</ele><time>2026-04-19T13:02:05.777Z</time></trkpt><trkpt lat="42.7308153" lon="11.8845451"><ele>432.33333333333337</ele><time>2026-04-19T13:02:06.777Z</time></trkpt><trkpt lat="42.7306043" lon="11.8846098"><ele>433.0</ele><time>2026-04-19T13:02:07.776Z</time></trkpt><trkpt lat="42.730395" lon="11.8846522"><ele>433.6666666666667</ele><time>2026-04-19T13:02:08.776Z</time></trkpt><trkpt lat="42.7301909" lon="11.8846782"><ele>434.33333333333337</ele><time>2026-04-19T13:02:09.776Z</time></trkpt><trkpt lat="42.7299909" lon="11.884707"><ele>435.0</ele><time>2026-04-19T13:02:10.776Z</time></trkpt><trkpt lat="42.7297991" lon="11.8847582"><ele>435.0</ele><time>2026-04-19T13:02:11.777Z</time></trkpt><trkpt lat="42.7296151" lon="11.8848214"><ele>435.0</ele><time>2026-04-19T13:02:12.776Z</time></trkpt><trkpt lat="42.7294356" lon="11.8848976"><ele>435.0</ele><time>2026-04-19T13:02:13.776Z</time></trkpt><trkpt lat="42.7292671" lon="11.8849995"><ele>434.66666666666663</ele><time>2026-04-19T13:02:14.776Z</time></trkpt><trkpt lat="42.729105" lon="11.8851277"><ele>434.3333333333333</ele><time>2026-04-19T13:02:15.776Z</time></trkpt><trkpt lat="42.7289545" lon="11.8852773"><ele>434.0</ele><time>2026-04-19T13:02:16.776Z</time></trkpt><trkpt lat="42.7288154" lon="11.8854415"><ele>434.0</ele><time>2026-04-19T13:02:17.777Z</time></trkpt><trkpt lat="42.7286647" lon="11.885641"><ele>434.0</ele><time>2026-04-19T13:02:18.776Z</time></trkpt><trkpt lat="42.7285159" lon="11.8858357"><ele>434.0</ele><time>2026-04-19T13:02:19.777Z</time></trkpt><trkpt lat="42.72836" lon="11.8860217"><ele>434.0</ele><time>2026-04-19T13:02:20.776Z</time></trkpt><trkpt lat="42.7282004" lon="11.8862163"><ele>434.0</ele><time>2026-04-19T13:02:21.776Z</time></trkpt><trkpt lat="42.7280446" lon="11.886393"><ele>434.0</ele><time>2026-04-19T13:02:22.777Z</time></trkpt><trkpt lat="42.7278767" lon="11.8865947"><ele>435.5</ele><time>2026-04-19T13:02:23.777Z</time></trkpt><trkpt lat="42.7277058" lon="11.8867978"><ele>437.0</ele><time>2026-04-19T13:02:24.777Z</time></trkpt><trkpt lat="42.727537" lon="11.8870054"><ele>437.0</ele><time>2026-04-19T13:02:25.776Z</time></trkpt><trkpt lat="42.7273717" lon="11.8872096"><ele>437.0</ele><time>2026-04-19T13:02:26.777Z</time></trkpt><trkpt lat="42.7272073" lon="11.8874099"><ele>437.0</ele><time>2026-04-19T13:02:27.776Z</time></trkpt><trkpt lat="42.7270443" lon="11.8876083"><ele>438.3333333333333</ele><time>2026-04-19T13:02:28.776Z</time></trkpt><trkpt lat="42.7268753" lon="11.8878005"><ele>439.66666666666663</ele><time>2026-04-19T13:02:29.776Z</time></trkpt><trkpt lat="42.7267164" lon="11.8880001"><ele>441.0</ele><time>2026-04-19T13:02:30.777Z</time></trkpt><trkpt lat="42.7265608" lon="11.8881992"><ele>441.0</ele><time>2026-04-19T13:02:31.777Z</time></trkpt><trkpt lat="42.7264099" lon="11.8883964"><ele>441.0</ele><time>2026-04-19T13:02:32.777Z</time></trkpt><trkpt lat="42.7262667" lon="11.8885957"><ele>441.0</ele><time>2026-04-19T13:02:33.776Z</time></trkpt><trkpt lat="42.7261243" lon="11.8888011"><ele>441.0</ele><time>2026-04-19T13:02:34.775Z</time></trkpt><trkpt lat="42.7259837" lon="11.8890056"><ele>441.0</ele><time>2026-04-19T13:02:35.775Z</time></trkpt><trkpt lat="42.7258433" lon="11.8892094"><ele>441.0</ele><time>2026-04-19T13:02:36.777Z</time></trkpt><trkpt lat="42.7256983" lon="11.8894162"><ele>441.33333333333337</ele><time>2026-04-19T13:02:37.777Z</time></trkpt><trkpt lat="42.7255498" lon="11.8896103"><ele>441.6666666666667</ele><time>2026-04-19T13:02:38.776Z</time></trkpt><trkpt lat="42.7254086" lon="11.8897976"><ele>442.0</ele><time>2026-04-19T13:02:39.777Z</time></trkpt><trkpt lat="42.7252676" lon="11.8899706"><ele>442.0</ele><time>2026-04-19T13:02:40.777Z</time></trkpt><trkpt lat="42.725125" lon="11.8901249"><ele>442.0</ele><time>2026-04-19T13:02:41.777Z</time></trkpt><trkpt lat="42.7249784" lon="11.8902764"><ele>442.0</ele><time>2026-04-19T13:02:42.776Z</time></trkpt><trkpt lat="42.7248265" lon="11.890427"><ele>442.0</ele><time>2026-04-19T13:02:43.777Z</time></trkpt><trkpt lat="42.7246648" lon="11.8905786"><ele>442.0</ele><time>2026-04-19T13:02:44.777Z</time></trkpt><trkpt lat="42.7244895" lon="11.890717"><ele>442.0</ele><time>2026-04-19T13:02:45.776Z</time></trkpt><trkpt lat="42.7243059" lon="11.8908506"><ele>442.0</ele><time>2026-04-19T13:02:46.776Z</time></trkpt><trkpt lat="42.7241114" lon="11.8909735"><ele>442.0</ele><time>2026-04-19T13:02:47.776Z</time></trkpt><trkpt lat="42.7239101" lon="11.8910962"><ele>442.0</ele><time>2026-04-19T13:02:48.775Z</time></trkpt><trkpt lat="42.7237035" lon="11.8912178"><ele>441.5</ele><time>2026-04-19T13:02:49.776Z</time></trkpt><trkpt lat="42.7234918" lon="11.8913418"><ele>441.0</ele><time>2026-04-19T13:02:50.775Z</time></trkpt><trkpt lat="42.7232768" lon="11.891461"><ele>441.0</ele><time>2026-04-19T13:02:51.776Z</time></trkpt><trkpt lat="42.7230561" lon="11.8915775"><ele>441.0</ele><time>2026-04-19T13:02:52.777Z</time></trkpt><trkpt lat="42.7228306" lon="11.8916931"><ele>443.0</ele><time>2026-04-19T13:02:53.776Z</time></trkpt><trkpt lat="42.7226071" lon="11.8918074"><ele>445.0</ele><time>2026-04-19T13:02:54.775Z</time></trkpt><trkpt lat="42.7223853" lon="11.8919199"><ele>445.0</ele><time>2026-04-19T13:02:55.776Z</time></trkpt><trkpt lat="42.7221641" lon="11.8920313"><ele>445.0</ele><time>2026-04-19T13:02:56.776Z</time></trkpt><trkpt lat="42.7219527" lon="11.8921377"><ele>445.0</ele><time>2026-04-19T13:02:57.777Z</time></trkpt><trkpt lat="42.7217403" lon="11.8922434"><ele>445.0</ele><time>2026-04-19T13:02:58.777Z</time></trkpt><trkpt lat="42.721539" lon="11.8923418"><ele>445.0</ele><time>2026-04-19T13:02:59.777Z</time></trkpt><trkpt lat="42.721357" lon="11.8924422"><ele>445.0</ele><time>2026-04-19T13:03:00.777Z</time></trkpt><trkpt lat="42.7211818" lon="11.8925363"><ele>445.0</ele><time>2026-04-19T13:03:01.777Z</time></trkpt><trkpt lat="42.7210045" lon="11.8926243"><ele>445.0</ele><time>2026-04-19T13:03:02.777Z</time></trkpt><trkpt lat="42.7208331" lon="11.8927107"><ele>446.33333333333337</ele><time>2026-04-19T13:03:03.776Z</time></trkpt><trkpt lat="42.720665" lon="11.8928032"><ele>447.66666666666663</ele><time>2026-04-19T13:03:04.776Z</time></trkpt><trkpt lat="42.7205" lon="11.8929037"><ele>449.0</ele><time>2026-04-19T13:03:05.776Z</time></trkpt><trkpt lat="42.7203352" lon="11.893017"><ele>447.66666666666663</ele><time>2026-04-19T13:03:06.777Z</time></trkpt><trkpt lat="42.7201715" lon="11.8931403"><ele>446.33333333333337</ele><time>2026-04-19T13:03:07.776Z</time></trkpt><trkpt lat="42.7199998" lon="11.89327"><ele>445.0</ele><time>2026-04-19T13:03:08.775Z</time></trkpt><trkpt lat="42.719829" lon="11.8934008"><ele>445.0</ele><time>2026-04-19T13:03:09.776Z</time></trkpt><trkpt lat="42.7196533" lon="11.893536"><ele>445.0</ele><time>2026-04-19T13:03:10.777Z</time></trkpt><trkpt lat="42.7194752" lon="11.8936725"><ele>445.0</ele><time>2026-04-19T13:03:11.777Z</time></trkpt><trkpt lat="42.7192936" lon="11.8938051"><ele>444.6666666666667</ele><time>2026-04-19T13:03:12.777Z</time></trkpt><trkpt lat="42.7191081" lon="11.8939325"><ele>444.33333333333337</ele><time>2026-04-19T13:03:13.776Z</time></trkpt><trkpt lat="42.7189173" lon="11.8940451"><ele>444.0</ele><time>2026-04-19T13:03:14.775Z</time></trkpt><trkpt lat="42.7187212" lon="11.8941432"><ele>444.0</ele><time>2026-04-19T13:03:15.777Z</time></trkpt><trkpt lat="42.7185288" lon="11.8942272"><ele>444.0</ele><time>2026-04-19T13:03:16.777Z</time></trkpt><trkpt lat="42.718346" lon="11.8942995"><ele>444.0</ele><time>2026-04-19T13:03:17.777Z</time></trkpt><trkpt lat="42.7181684" lon="11.8943756"><ele>444.33333333333337</ele><time>2026-04-19T13:03:18.777Z</time></trkpt><trkpt lat="42.7179938" lon="11.8944476"><ele>444.6666666666667</ele><time>2026-04-19T13:03:19.777Z</time></trkpt><trkpt lat="42.7178138" lon="11.894522"><ele>445.0</ele><time>2026-04-19T13:03:20.777Z</time></trkpt><trkpt lat="42.7176305" lon="11.8945962"><ele>445.0</ele><time>2026-04-19T13:03:21.777Z</time></trkpt><trkpt lat="42.7174416" lon="11.894672"><ele>445.0</ele><time>2026-04-19T13:03:22.776Z</time></trkpt><trkpt lat="42.7172475" lon="11.8947513"><ele>445.0</ele><time>2026-04-19T13:03:23.776Z</time></trkpt><trkpt lat="42.7170492" lon="11.8948346"><ele>445.0</ele><time>2026-04-19T13:03:24.777Z</time></trkpt><trkpt lat="42.7168486" lon="11.8949187"><ele>445.0</ele><time>2026-04-19T13:03:25.776Z</time></trkpt><trkpt lat="42.7166415" lon="11.895004"><ele>445.0</ele><time>2026-04-19T13:03:26.777Z</time></trkpt><trkpt lat="42.7164325" lon="11.895091"><ele>445.33333333333337</ele><time>2026-04-19T13:03:27.777Z</time></trkpt><trkpt lat="42.7162223" lon="11.8951795"><ele>445.66666666666663</ele><time>2026-04-19T13:03:28.776Z</time></trkpt><trkpt lat="42.7160088" lon="11.8952652"><ele>446.0</ele><time>2026-04-19T13:03:29.776Z</time></trkpt><trkpt lat="42.7157958" lon="11.8953495"><ele>446.0</ele><time>2026-04-19T13:03:30.777Z</time></trkpt><trkpt lat="42.7155861" lon="11.8954362"><ele>446.0</ele><time>2026-04-19T13:03:31.776Z</time></trkpt><trkpt lat="42.715378" lon="11.8955328"><ele>446.0</ele><time>2026-04-19T13:03:32.775Z</time></trkpt><trkpt lat="42.7151621" lon="11.8956487"><ele>446.0</ele><time>2026-04-19T13:03:33.776Z</time></trkpt><trkpt lat="42.7149403" lon="11.89578"><ele>446.0</ele><time>2026-04-19T13:03:34.776Z</time></trkpt><trkpt lat="42.7147066" lon="11.8959203"><ele>447.0</ele><time>2026-04-19T13:03:35.776Z</time></trkpt><trkpt lat="42.7144635" lon="11.896069"><ele>448.0</ele><time>2026-04-19T13:03:36.777Z</time></trkpt><trkpt lat="42.7142076" lon="11.8962177"><ele>448.0</ele><time>2026-04-19T13:03:37.777Z</time></trkpt><trkpt lat="42.7139481" lon="11.8963623"><ele>448.0</ele><time>2026-04-19T13:03:38.777Z</time></trkpt><trkpt lat="42.7136844" lon="11.8965026"><ele>447.5</ele><time>2026-04-19T13:03:39.776Z</time></trkpt><trkpt lat="42.7134193" lon="11.896645"><ele>447.0</ele><time>2026-04-19T13:03:40.777Z</time></trkpt><trkpt lat="42.7131558" lon="11.896794"><ele>446.5</ele><time>2026-04-19T13:03:41.776Z</time></trkpt><trkpt lat="42.7129015" lon="11.8969376"><ele>446.0</ele><time>2026-04-19T13:03:42.776Z</time></trkpt><trkpt lat="42.7126624" lon="11.8970674"><ele>446.0</ele><time>2026-04-19T13:03:43.777Z</time></trkpt><trkpt lat="42.7124355" lon="11.8971944"><ele>446.0</ele><time>2026-04-19T13:03:44.775Z</time></trkpt><trkpt lat="42.7122025" lon="11.8973253"><ele>446.0</ele><time>2026-04-19T13:03:45.776Z</time></trkpt><trkpt lat="42.7119596" lon="11.8974593"><ele>446.0</ele><time>2026-04-19T13:03:46.777Z</time></trkpt><trkpt lat="42.7117109" lon="11.8975936"><ele>445.5</ele><time>2026-04-19T13:03:47.776Z</time></trkpt><trkpt lat="42.7114553" lon="11.8977226"><ele>445.0</ele><time>2026-04-19T13:03:48.776Z</time></trkpt><trkpt lat="42.7111943" lon="11.8978506"><ele>445.0</ele><time>2026-04-19T13:03:49.777Z</time></trkpt><trkpt lat="42.7109327" lon="11.8979747"><ele>445.0</ele><time>2026-04-19T13:03:50.777Z</time></trkpt><trkpt lat="42.7106737" lon="11.8980973"><ele>445.0</ele><time>2026-04-19T13:03:51.776Z</time></trkpt><trkpt lat="42.7104268" lon="11.8982114"><ele>445.0</ele><time>2026-04-19T13:03:52.776Z</time></trkpt><trkpt lat="42.7101944" lon="11.8983216"><ele>445.5</ele><time>2026-04-19T13:03:53.777Z</time></trkpt><trkpt lat="42.7099768" lon="11.8984337"><ele>446.0</ele><time>2026-04-19T13:03:54.776Z</time></trkpt><trkpt lat="42.7097739" lon="11.898552"><ele>446.0</ele><time>2026-04-19T13:03:55.776Z</time></trkpt><trkpt lat="42.7095852" lon="11.8986606"><ele>446.0</ele><time>2026-04-19T13:03:56.776Z</time></trkpt><trkpt lat="42.7094008" lon="11.8987613"><ele>446.0</ele><time>2026-04-19T13:03:57.777Z</time></trkpt><trkpt lat="42.7092116" lon="11.8988694"><ele>447.0</ele><time>2026-04-19T13:03:58.775Z</time></trkpt><trkpt lat="42.7090118" lon="11.8989825"><ele>448.0</ele><time>2026-04-19T13:03:59.775Z</time></trkpt><trkpt lat="42.708804" lon="11.8991032"><ele>449.0</ele><time>2026-04-19T13:04:00.775Z</time></trkpt><trkpt lat="42.7085871" lon="11.8992332"><ele>448.5</ele><time>2026-04-19T13:04:01.776Z</time></trkpt><trkpt lat="42.708362" lon="11.8993656"><ele>448.0</ele><time>2026-04-19T13:04:02.776Z</time></trkpt><trkpt lat="42.7081299" lon="11.8995028"><ele>448.0</ele><time>2026-04-19T13:04:03.775Z</time></trkpt><trkpt lat="42.7078991" lon="11.8996358"><ele>448.0</ele><time>2026-04-19T13:04:04.774Z</time></trkpt><trkpt lat="42.7076711" lon="11.8997579"><ele>448.5</ele><time>2026-04-19T13:04:05.775Z</time></trkpt><trkpt lat="42.7074416" lon="11.8998606"><ele>449.0</ele><time>2026-04-19T13:04:06.774Z</time></trkpt><trkpt lat="42.7072062" lon="11.8999494"><ele>449.0</ele><time>2026-04-19T13:04:07.776Z</time></trkpt><trkpt lat="42.7069666" lon="11.9000218"><ele>449.0</ele><time>2026-04-19T13:04:08.776Z</time></trkpt><trkpt lat="42.706718" lon="11.9000867"><ele>449.0</ele><time>2026-04-19T13:04:09.776Z</time></trkpt><trkpt lat="42.7064636" lon="11.9001426"><ele>449.0</ele><time>2026-04-19T13:04:10.776Z</time></trkpt><trkpt lat="42.7062048" lon="11.9002014"><ele>449.5</ele><time>2026-04-19T13:04:11.774Z</time></trkpt><trkpt lat="42.705943" lon="11.9002574"><ele>450.0</ele><time>2026-04-19T13:04:12.775Z</time></trkpt><trkpt lat="42.7056825" lon="11.9003106"><ele>450.0</ele><time>2026-04-19T13:04:13.775Z</time></trkpt><trkpt lat="42.705423" lon="11.9003691"><ele>450.0</ele><time>2026-04-19T13:04:14.775Z</time></trkpt><trkpt lat="42.7051666" lon="11.9004324"><ele>450.5</ele><time>2026-04-19T13:04:15.775Z</time></trkpt><trkpt lat="42.7049106" lon="11.9005007"><ele>451.0</ele><time>2026-04-19T13:04:16.775Z</time></trkpt><trkpt lat="42.7046576" lon="11.9005808"><ele>452.5</ele><time>2026-04-19T13:04:17.775Z</time></trkpt><trkpt lat="42.7044122" lon="11.900676"><ele>454.0</ele><time>2026-04-19T13:04:18.776Z</time></trkpt><trkpt lat="42.704172" lon="11.9007773"><ele>454.0</ele><time>2026-04-19T13:04:19.774Z</time></trkpt><trkpt lat="42.7039319" lon="11.9008694"><ele>454.0</ele><time>2026-04-19T13:04:20.775Z</time></trkpt><trkpt lat="42.7036915" lon="11.9009496"><ele>455.0</ele><time>2026-04-19T13:04:21.775Z</time></trkpt><trkpt lat="42.7034517" lon="11.901012"><ele>456.0</ele><time>2026-04-19T13:04:22.775Z</time></trkpt><trkpt lat="42.7032167" lon="11.9010568"><ele>456.0</ele><time>2026-04-19T13:04:23.776Z</time></trkpt><trkpt lat="42.7029844" lon="11.9010728"><ele>456.0</ele><time>2026-04-19T13:04:24.775Z</time></trkpt><trkpt lat="42.7027519" lon="11.9010744"><ele>455.5</ele><time>2026-04-19T13:04:25.775Z</time></trkpt><trkpt lat="42.7025152" lon="11.9010675"><ele>455.0</ele><time>2026-04-19T13:04:26.774Z</time></trkpt><trkpt lat="42.7022766" lon="11.9010681"><ele>455.0</ele><time>2026-04-19T13:04:27.775Z</time></trkpt><trkpt lat="42.7020391" lon="11.9010631"><ele>455.0</ele><time>2026-04-19T13:04:28.776Z</time></trkpt><trkpt lat="42.7017997" lon="11.9010598"><ele>455.5</ele><time>2026-04-19T13:04:29.776Z</time></trkpt><trkpt lat="42.7015628" lon="11.9010712"><ele>456.0</ele><time>2026-04-19T13:04:30.776Z</time></trkpt><trkpt lat="42.701327" lon="11.9011003"><ele>456.0</ele><time>2026-04-19T13:04:31.775Z</time></trkpt><trkpt lat="42.7010876" lon="11.9011463"><ele>456.0</ele><time>2026-04-19T13:04:32.775Z</time></trkpt><trkpt lat="42.7008476" lon="11.9012017"><ele>456.0</ele><time>2026-04-19T13:04:33.775Z</time></trkpt><trkpt lat="42.7006083" lon="11.9012635"><ele>456.0</ele><time>2026-04-19T13:04:34.775Z</time></trkpt><trkpt lat="42.7003645" lon="11.9013371"><ele>456.5</ele><time>2026-04-19T13:04:35.776Z</time></trkpt><trkpt lat="42.7001243" lon="11.9014171"><ele>457.0</ele><time>2026-04-19T13:04:36.775Z</time></trkpt><trkpt lat="42.6998793" lon="11.9015029"><ele>457.0</ele><time>2026-04-19T13:04:37.775Z</time></trkpt><trkpt lat="42.6996383" lon="11.9015896"><ele>457.0</ele><time>2026-04-19T13:04:38.776Z</time></trkpt><trkpt lat="42.6993975" lon="11.9016741"><ele>458.0</ele><time>2026-04-19T13:04:39.776Z</time></trkpt><trkpt lat="42.6991581" lon="11.9017244"><ele>459.0</ele><time>2026-04-19T13:04:40.775Z</time></trkpt><trkpt lat="42.6989289" lon="11.9017617"><ele>461.0</ele><time>2026-04-19T13:04:41.775Z</time></trkpt><trkpt lat="42.6987043" lon="11.9017993"><ele>463.0</ele><time>2026-04-19T13:04:42.774Z</time></trkpt><trkpt lat="42.6984819" lon="11.9018591"><ele>463.5</ele><time>2026-04-19T13:04:43.774Z</time></trkpt><trkpt lat="42.6982571" lon="11.9019396"><ele>464.0</ele><time>2026-04-19T13:04:44.776Z</time></trkpt><trkpt lat="42.6980293" lon="11.9020332"><ele>464.0</ele><time>2026-04-19T13:04:45.775Z</time></trkpt><trkpt lat="42.6978027" lon="11.9021326"><ele>464.0</ele><time>2026-04-19T13:04:46.776Z</time></trkpt><trkpt lat="42.6975775" lon="11.9022357"><ele>462.0</ele><time>2026-04-19T13:04:47.775Z</time></trkpt><trkpt lat="42.6973555" lon="11.9023358"><ele>460.0</ele><time>2026-04-19T13:04:48.776Z</time></trkpt><trkpt lat="42.6971341" lon="11.9024373"><ele>460.5</ele><time>2026-04-19T13:04:49.776Z</time></trkpt><trkpt lat="42.6969083" lon="11.9025274"><ele>461.0</ele><time>2026-04-19T13:04:50.775Z</time></trkpt><trkpt lat="42.6966804" lon="11.9025936"><ele>462.0</ele><time>2026-04-19T13:04:51.775Z</time></trkpt><trkpt lat="42.6964481" lon="11.9026264"><ele>463.0</ele><time>2026-04-19T13:04:52.775Z</time></trkpt><trkpt lat="42.6962171" lon="11.902636"><ele>463.5</ele><time>2026-04-19T13:04:53.776Z</time></trkpt><trkpt lat="42.6959833" lon="11.9026469"><ele>464.0</ele><time>2026-04-19T13:04:54.775Z</time></trkpt><trkpt lat="42.6957492" lon="11.9026516"><ele>464.0</ele><time>2026-04-19T13:04:55.775Z</time></trkpt><trkpt lat="42.6955109" lon="11.9026564"><ele>464.0</ele><time>2026-04-19T13:04:56.775Z</time></trkpt><trkpt lat="42.6952714" lon="11.9026779"><ele>464.0</ele><time>2026-04-19T13:04:57.775Z</time></trkpt><trkpt lat="42.6950273" lon="11.9027047"><ele>464.0</ele><time>2026-04-19T13:04:58.776Z</time></trkpt><trkpt lat="42.6947783" lon="11.9027437"><ele>464.0</ele><time>2026-04-19T13:04:59.776Z</time></trkpt><trkpt lat="42.6945264" lon="11.9027906"><ele>464.0</ele><time>2026-04-19T13:05:00.775Z</time></trkpt><trkpt lat="42.6942718" lon="11.9028381"><ele>465.0</ele><time>2026-04-19T13:05:01.776Z</time></trkpt><trkpt lat="42.6940178" lon="11.9028862"><ele>466.0</ele><time>2026-04-19T13:05:02.776Z</time></trkpt><trkpt lat="42.6937631" lon="11.9029386"><ele>466.5</ele><time>2026-04-19T13:05:03.776Z</time></trkpt><trkpt lat="42.6935124" lon="11.9029905"><ele>467.0</ele><time>2026-04-19T13:05:04.776Z</time></trkpt><trkpt lat="42.6932734" lon="11.9030378"><ele>467.0</ele><time>2026-04-19T13:05:05.776Z</time></trkpt><trkpt lat="42.6930469" lon="11.9030779"><ele>467.0</ele><time>2026-04-19T13:05:06.776Z</time></trkpt><trkpt lat="42.6928348" lon="11.9031153"><ele>467.0</ele><time>2026-04-19T13:05:07.775Z</time></trkpt><trkpt lat="42.6926326" lon="11.903152"><ele>467.3333333333333</ele><time>2026-04-19T13:05:08.776Z</time></trkpt><trkpt lat="42.6924345" lon="11.9031909"><ele>467.66666666666663</ele><time>2026-04-19T13:05:09.776Z</time></trkpt><trkpt lat="42.6922327" lon="11.9032258"><ele>468.0</ele><time>2026-04-19T13:05:10.776Z</time></trkpt><trkpt lat="42.692027" lon="11.9032649"><ele>469.33333333333337</ele><time>2026-04-19T13:05:11.774Z</time></trkpt><trkpt lat="42.6918231" lon="11.903294"><ele>470.6666666666667</ele><time>2026-04-19T13:05:12.776Z</time></trkpt><trkpt lat="42.6916161" lon="11.9033296"><ele>472.0</ele><time>2026-04-19T13:05:13.776Z</time></trkpt><trkpt lat="42.6914105" lon="11.9033716"><ele>471.6666666666667</ele><time>2026-04-19T13:05:14.775Z</time></trkpt><trkpt lat="42.691202" lon="11.9034456"><ele>471.33333333333337</ele><time>2026-04-19T13:05:15.775Z</time></trkpt><trkpt lat="42.690993" lon="11.9035417"><ele>471.0</ele><time>2026-04-19T13:05:16.775Z</time></trkpt><trkpt lat="42.6907796" lon="11.9036521"><ele>471.0</ele><time>2026-04-19T13:05:17.775Z</time></trkpt><trkpt lat="42.6905727" lon="11.9037654"><ele>471.0</ele><time>2026-04-19T13:05:18.775Z</time></trkpt><trkpt lat="42.6903731" lon="11.903878"><ele>471.0</ele><time>2026-04-19T13:05:19.774Z</time></trkpt><trkpt lat="42.6901865" lon="11.9039655"><ele>473.0</ele><time>2026-04-19T13:05:20.775Z</time></trkpt><trkpt lat="42.690002" lon="11.9040535"><ele>475.0</ele><time>2026-04-19T13:05:21.775Z</time></trkpt><trkpt lat="42.6898269" lon="11.9041031"><ele>477.0</ele><time>2026-04-19T13:05:22.775Z</time></trkpt><trkpt lat="42.6896534" lon="11.9041179"><ele>477.0</ele><time>2026-04-19T13:05:23.776Z</time></trkpt><trkpt lat="42.6894838" lon="11.9041021"><ele>477.0</ele><time>2026-04-19T13:05:24.774Z</time></trkpt><trkpt lat="42.689322" lon="11.9040893"><ele>477.0</ele><time>2026-04-19T13:05:25.776Z</time></trkpt><trkpt lat="42.6891577" lon="11.9040929"><ele>478.33333333333337</ele><time>2026-04-19T13:05:26.776Z</time></trkpt><trkpt lat="42.6889984" lon="11.9041148"><ele>479.6666666666667</ele><time>2026-04-19T13:05:27.775Z</time></trkpt><trkpt lat="42.688845" lon="11.9041732"><ele>481.0</ele><time>2026-04-19T13:05:28.775Z</time></trkpt><trkpt lat="42.688697" lon="11.9042622"><ele>483.0</ele><time>2026-04-19T13:05:29.775Z</time></trkpt><trkpt lat="42.6885542" lon="11.9043589"><ele>485.0</ele><time>2026-04-19T13:05:30.775Z</time></trkpt><trkpt lat="42.6884102" lon="11.9044607"><ele>487.0</ele><time>2026-04-19T13:05:31.775Z</time></trkpt><trkpt lat="42.6882643" lon="11.9045646"><ele>487.0</ele><time>2026-04-19T13:05:32.775Z</time></trkpt><trkpt lat="42.6881274" lon="11.9046645"><ele>487.0</ele><time>2026-04-19T13:05:33.776Z</time></trkpt><trkpt lat="42.688001" lon="11.9047592"><ele>487.0</ele><time>2026-04-19T13:05:34.775Z</time></trkpt><trkpt lat="42.6878837" lon="11.9048451"><ele>487.0</ele><time>2026-04-19T13:05:35.776Z</time></trkpt><trkpt lat="42.6877724" lon="11.9049291"><ele>487.0</ele><time>2026-04-19T13:05:36.775Z</time></trkpt><trkpt lat="42.687664" lon="11.9050056"><ele>487.0</ele><time>2026-04-19T13:05:37.776Z</time></trkpt><trkpt lat="42.6875612" lon="11.9050765"><ele>487.0</ele><time>2026-04-19T13:05:38.776Z</time></trkpt><trkpt lat="42.6874652" lon="11.9051472"><ele>487.0</ele><time>2026-04-19T13:05:39.775Z</time></trkpt><trkpt lat="42.6873716" lon="11.905212"><ele>487.6666666666667</ele><time>2026-04-19T13:05:40.775Z</time></trkpt><trkpt lat="42.687283" lon="11.9052758"><ele>488.33333333333337</ele><time>2026-04-19T13:05:41.775Z</time></trkpt><trkpt lat="42.6872027" lon="11.9053312"><ele>489.0</ele><time>2026-04-19T13:05:42.775Z</time></trkpt><trkpt lat="42.6871283" lon="11.9053866"><ele>489.66666666666663</ele><time>2026-04-19T13:05:43.775Z</time></trkpt><trkpt lat="42.6870585" lon="11.9054394"><ele>490.3333333333333</ele><time>2026-04-19T13:05:44.775Z</time></trkpt><trkpt lat="42.686996" lon="11.9054875"><ele>491.0</ele><time>2026-04-19T13:05:45.776Z</time></trkpt><trkpt lat="42.6869372" lon="11.9055285"><ele>491.6</ele><time>2026-04-19T13:05:46.776Z</time></trkpt><trkpt lat="42.6868362" lon="11.9055956"><ele>492.20000000000005</ele><time>2026-04-19T13:05:48.775Z</time></trkpt><trkpt lat="42.6867567" lon="11.9056524"><ele>492.79999999999995</ele><time>2026-04-19T13:05:50.775Z</time></trkpt><trkpt lat="42.6866866" lon="11.9057045"><ele>493.4</ele><time>2026-04-19T13:05:52.776Z</time></trkpt><trkpt lat="42.6866109" lon="11.9057621"><ele>494.0</ele><time>2026-04-19T13:05:54.775Z</time></trkpt><trkpt lat="42.6865254" lon="11.9058157"><ele>494.0</ele><time>2026-04-19T13:05:56.776Z</time></trkpt><trkpt lat="42.6864626" lon="11.9058591"><ele>494.0</ele><time>2026-04-19T13:05:58.776Z</time></trkpt><trkpt lat="42.6863931" lon="11.9059104"><ele>494.0</ele><time>2026-04-19T13:06:01.776Z</time></trkpt><trkpt lat="42.6863206" lon="11.9059684"><ele>494.0</ele><time>2026-04-19T13:06:17.774Z</time></trkpt><trkpt lat="42.6862063" lon="11.9060555"><ele>494.0</ele><time>2026-04-19T13:06:19.776Z</time></trkpt><trkpt lat="42.6861276" lon="11.9061093"><ele>494.25</ele><time>2026-04-19T13:06:20.775Z</time></trkpt><trkpt lat="42.6860395" lon="11.9061773"><ele>494.5</ele><time>2026-04-19T13:06:21.776Z</time></trkpt><trkpt lat="42.6859424" lon="11.9062471"><ele>494.75</ele><time>2026-04-19T13:06:22.776Z</time></trkpt><trkpt lat="42.6858356" lon="11.9063246"><ele>495.0</ele><time>2026-04-19T13:06:23.776Z</time></trkpt><trkpt lat="42.685723" lon="11.9064018"><ele>495.0</ele><time>2026-04-19T13:06:24.776Z</time></trkpt><trkpt lat="42.6856132" lon="11.9064818"><ele>495.0</ele><time>2026-04-19T13:06:25.776Z</time></trkpt><trkpt lat="42.6855045" lon="11.9065619"><ele>495.0</ele><time>2026-04-19T13:06:26.776Z</time></trkpt><trkpt lat="42.6853992" lon="11.9066345"><ele>495.0</ele><time>2026-04-19T13:06:27.776Z</time></trkpt><trkpt lat="42.6852978" lon="11.9067022"><ele>494.8</ele><time>2026-04-19T13:06:28.776Z</time></trkpt><trkpt lat="42.6852075" lon="11.9067585"><ele>494.6</ele><time>2026-04-19T13:06:29.774Z</time></trkpt><trkpt lat="42.6851193" lon="11.9068238"><ele>494.4</ele><time>2026-04-19T13:06:30.774Z</time></trkpt><trkpt lat="42.6850335" lon="11.906883"><ele>494.2</ele><time>2026-04-19T13:06:31.776Z</time></trkpt><trkpt lat="42.6849385" lon="11.9069436"><ele>494.0</ele><time>2026-04-19T13:06:32.776Z</time></trkpt><trkpt lat="42.6848401" lon="11.9070152"><ele>494.0</ele><time>2026-04-19T13:06:33.775Z</time></trkpt><trkpt lat="42.6847388" lon="11.907092"><ele>494.0</ele><time>2026-04-19T13:06:34.776Z</time></trkpt><trkpt lat="42.6846392" lon="11.90717"><ele>494.0</ele><time>2026-04-19T13:06:35.776Z</time></trkpt><trkpt lat="42.6845421" lon="11.907246"><ele>494.0</ele><time>2026-04-19T13:06:36.775Z</time></trkpt><trkpt lat="42.6844576" lon="11.9073325"><ele>494.0</ele><time>2026-04-19T13:06:37.775Z</time></trkpt><trkpt lat="42.6843763" lon="11.9074224"><ele>491.75</ele><time>2026-04-19T13:06:38.776Z</time></trkpt><trkpt lat="42.6842969" lon="11.9075285"><ele>489.5</ele><time>2026-04-19T13:06:39.776Z</time></trkpt><trkpt lat="42.6842216" lon="11.9076523"><ele>487.25</ele><time>2026-04-19T13:06:40.775Z</time></trkpt><trkpt lat="42.6841526" lon="11.9077915"><ele>485.0</ele><time>2026-04-19T13:06:41.775Z</time></trkpt><trkpt lat="42.684099" lon="11.9079567"><ele>484.5</ele><time>2026-04-19T13:06:42.775Z</time></trkpt><trkpt lat="42.6840648" lon="11.9081297"><ele>484.0</ele><time>2026-04-19T13:06:43.774Z</time></trkpt><trkpt lat="42.6840527" lon="11.9082938"><ele>483.5</ele><time>2026-04-19T13:06:44.776Z</time></trkpt><trkpt lat="42.6840592" lon="11.9084768"><ele>483.0</ele><time>2026-04-19T13:06:45.775Z</time></trkpt><trkpt lat="42.6840876" lon="11.90866"><ele>481.0</ele><time>2026-04-19T13:06:46.776Z</time></trkpt><trkpt lat="42.6841331" lon="11.9088401"><ele>479.0</ele><time>2026-04-19T13:06:47.775Z</time></trkpt><trkpt lat="42.6841892" lon="11.9090173"><ele>477.0</ele><time>2026-04-19T13:06:48.776Z</time></trkpt><trkpt lat="42.6842497" lon="11.9092034"><ele>475.0</ele><time>2026-04-19T13:06:49.775Z</time></trkpt><trkpt lat="42.6843085" lon="11.9093901"><ele>473.25</ele><time>2026-04-19T13:06:50.776Z</time></trkpt><trkpt lat="42.6843637" lon="11.9095737"><ele>471.5</ele><time>2026-04-19T13:06:51.775Z</time></trkpt><trkpt lat="42.6844155" lon="11.9097558"><ele>469.75</ele><time>2026-04-19T13:06:52.776Z</time></trkpt><trkpt lat="42.6844629" lon="11.9099396"><ele>468.0</ele><time>2026-04-19T13:06:53.776Z</time></trkpt><trkpt lat="42.6845046" lon="11.9101231"><ele>472.75</ele><time>2026-04-19T13:06:54.776Z</time></trkpt><trkpt lat="42.684539" lon="11.9103082"><ele>477.5</ele><time>2026-04-19T13:06:55.776Z</time></trkpt><trkpt lat="42.6845637" lon="11.9104984"><ele>482.25</ele><time>2026-04-19T13:06:56.775Z</time></trkpt><trkpt lat="42.6845747" lon="11.9106969"><ele>487.0</ele><time>2026-04-19T13:06:57.776Z</time></trkpt><trkpt lat="42.6845813" lon="11.9109046"><ele>486.6666666666667</ele><time>2026-04-19T13:06:58.776Z</time></trkpt><trkpt lat="42.6845836" lon="11.9111221"><ele>486.33333333333337</ele><time>2026-04-19T13:06:59.775Z</time></trkpt><trkpt lat="42.6845876" lon="11.9113405"><ele>486.0</ele><time>2026-04-19T13:07:00.775Z</time></trkpt><trkpt lat="42.6846043" lon="11.911549"><ele>485.0</ele><time>2026-04-19T13:07:01.775Z</time></trkpt><trkpt lat="42.6846179" lon="11.9117557"><ele>484.0</ele><time>2026-04-19T13:07:02.774Z</time></trkpt><trkpt lat="42.6846433" lon="11.9119689"><ele>483.0</ele><time>2026-04-19T13:07:03.776Z</time></trkpt><trkpt lat="42.6846668" lon="11.9121801"><ele>483.0</ele><time>2026-04-19T13:07:04.776Z</time></trkpt><trkpt lat="42.6847019" lon="11.9123983"><ele>483.0</ele><time>2026-04-19T13:07:05.776Z</time></trkpt><trkpt lat="42.6847286" lon="11.9126171"><ele>483.0</ele><time>2026-04-19T13:07:06.775Z</time></trkpt><trkpt lat="42.6847625" lon="11.912847"><ele>481.33333333333337</ele><time>2026-04-19T13:07:07.774Z</time></trkpt><trkpt lat="42.6848008" lon="11.913065"><ele>479.6666666666667</ele><time>2026-04-19T13:07:08.776Z</time></trkpt><trkpt lat="42.6848396" lon="11.9132612"><ele>478.0</ele><time>2026-04-19T13:07:09.775Z</time></trkpt><trkpt lat="42.6848759" lon="11.913473"><ele>475.6666666666667</ele><time>2026-04-19T13:07:10.776Z</time></trkpt><trkpt lat="42.6849115" lon="11.9136824"><ele>473.33333333333337</ele><time>2026-04-19T13:07:11.775Z</time></trkpt><trkpt lat="42.6849406" lon="11.9138899"><ele>471.0</ele><time>2026-04-19T13:07:12.776Z</time></trkpt><trkpt lat="42.6849476" lon="11.9140911"><ele>468.66666666666663</ele><time>2026-04-19T13:07:13.775Z</time></trkpt><trkpt lat="42.6849343" lon="11.9142988"><ele>466.3333333333333</ele><time>2026-04-19T13:07:14.775Z</time></trkpt><trkpt lat="42.6849038" lon="11.9145089"><ele>464.0</ele><time>2026-04-19T13:07:15.775Z</time></trkpt><trkpt lat="42.6848575" lon="11.9147154"><ele>464.0</ele><time>2026-04-19T13:07:16.776Z</time></trkpt><trkpt lat="42.6847877" lon="11.9149136"><ele>464.0</ele><time>2026-04-19T13:07:17.775Z</time></trkpt><trkpt lat="42.6847007" lon="11.9151097"><ele>464.0</ele><time>2026-04-19T13:07:18.774Z</time></trkpt><trkpt lat="42.6845908" lon="11.9153035"><ele>464.66666666666663</ele><time>2026-04-19T13:07:19.775Z</time></trkpt><trkpt lat="42.6844649" lon="11.9154967"><ele>465.33333333333337</ele><time>2026-04-19T13:07:20.776Z</time></trkpt><trkpt lat="42.684334" lon="11.9156897"><ele>466.0</ele><time>2026-04-19T13:07:21.775Z</time></trkpt><trkpt lat="42.6842136" lon="11.9158797"><ele>460.33333333333337</ele><time>2026-04-19T13:07:22.776Z</time></trkpt><trkpt lat="42.6840919" lon="11.9160716"><ele>454.66666666666663</ele><time>2026-04-19T13:07:23.776Z</time></trkpt><trkpt lat="42.6839771" lon="11.9162406"><ele>449.0</ele><time>2026-04-19T13:07:24.776Z</time></trkpt><trkpt lat="42.6838625" lon="11.9164063"><ele>449.0</ele><time>2026-04-19T13:07:25.776Z</time></trkpt><trkpt lat="42.6837471" lon="11.9165696"><ele>449.0</ele><time>2026-04-19T13:07:26.775Z</time></trkpt><trkpt lat="42.6836386" lon="11.9167163"><ele>449.0</ele><time>2026-04-19T13:07:27.776Z</time></trkpt><trkpt lat="42.6835332" lon="11.9168309"><ele>448.0</ele><time>2026-04-19T13:07:28.776Z</time></trkpt><trkpt lat="42.6834126" lon="11.9169159"><ele>447.0</ele><time>2026-04-19T13:07:29.775Z</time></trkpt><trkpt lat="42.6832758" lon="11.9169657"><ele>446.0</ele><time>2026-04-19T13:07:30.774Z</time></trkpt><trkpt lat="42.6831228" lon="11.9169662"><ele>445.0</ele><time>2026-04-19T13:07:31.774Z</time></trkpt><trkpt lat="42.6829598" lon="11.9169255"><ele>445.0</ele><time>2026-04-19T13:07:32.775Z</time></trkpt><trkpt lat="42.682782" lon="11.9168494"><ele>445.0</ele><time>2026-04-19T13:07:33.775Z</time></trkpt><trkpt lat="42.6825927" lon="11.916739"><ele>445.0</ele><time>2026-04-19T13:07:34.774Z</time></trkpt><trkpt lat="42.6824073" lon="11.9166159"><ele>444.33333333333337</ele><time>2026-04-19T13:07:35.776Z</time></trkpt><trkpt lat="42.682224" lon="11.9164935"><ele>443.66666666666663</ele><time>2026-04-19T13:07:36.775Z</time></trkpt><trkpt lat="42.6820418" lon="11.9163904"><ele>443.0</ele><time>2026-04-19T13:07:37.774Z</time></trkpt><trkpt lat="42.6818612" lon="11.9163024"><ele>443.0</ele><time>2026-04-19T13:07:38.775Z</time></trkpt><trkpt lat="42.6816856" lon="11.9162062"><ele>443.0</ele><time>2026-04-19T13:07:39.775Z</time></trkpt><trkpt lat="42.6814909" lon="11.9161909"><ele>443.0</ele><time>2026-04-19T13:07:40.774Z</time></trkpt><trkpt lat="42.6813068" lon="11.9161904"><ele>443.0</ele><time>2026-04-19T13:07:41.774Z</time></trkpt><trkpt lat="42.6811305" lon="11.9162154"><ele>443.0</ele><time>2026-04-19T13:07:42.776Z</time></trkpt><trkpt lat="42.6809488" lon="11.916265"><ele>443.0</ele><time>2026-04-19T13:07:43.774Z</time></trkpt><trkpt lat="42.6807765" lon="11.9163163"><ele>440.66666666666663</ele><time>2026-04-19T13:07:44.776Z</time></trkpt><trkpt lat="42.6805879" lon="11.9164868"><ele>438.33333333333337</ele><time>2026-04-19T13:07:45.775Z</time></trkpt><trkpt lat="42.6804509" lon="11.9167181"><ele>436.0</ele><time>2026-04-19T13:07:46.775Z</time></trkpt><trkpt lat="42.6803265" lon="11.9169564"><ele>431.0</ele><time>2026-04-19T13:07:47.775Z</time></trkpt><trkpt lat="42.6802033" lon="11.9172125"><ele>426.0</ele><time>2026-04-19T13:07:48.775Z</time></trkpt><trkpt lat="42.6799657" lon="11.917667"><ele>426.0</ele><time>2026-04-19T13:07:50.776Z</time></trkpt><trkpt lat="42.6798243" lon="11.9178578"><ele>426.0</ele><time>2026-04-19T13:07:51.775Z</time></trkpt><trkpt lat="42.679678" lon="11.9180375"><ele>426.0</ele><time>2026-04-19T13:07:52.776Z</time></trkpt><trkpt lat="42.6795219" lon="11.9181702"><ele>422.33333333333337</ele><time>2026-04-19T13:07:53.776Z</time></trkpt><trkpt lat="42.6793544" lon="11.9182918"><ele>418.6666666666667</ele><time>2026-04-19T13:07:54.775Z</time></trkpt><trkpt lat="42.679166" lon="11.9183941"><ele>415.0</ele><time>2026-04-19T13:07:55.776Z</time></trkpt><trkpt lat="42.6789675" lon="11.9184686"><ele>415.0</ele><time>2026-04-19T13:07:56.775Z</time></trkpt><trkpt lat="42.6787667" lon="11.9185207"><ele>415.0</ele><time>2026-04-19T13:07:57.775Z</time></trkpt><trkpt lat="42.678564" lon="11.9185613"><ele>415.0</ele><time>2026-04-19T13:07:58.776Z</time></trkpt><trkpt lat="42.6783546" lon="11.9185795"><ele>412.33333333333337</ele><time>2026-04-19T13:07:59.774Z</time></trkpt><trkpt lat="42.6781397" lon="11.9185743"><ele>409.66666666666663</ele><time>2026-04-19T13:08:00.776Z</time></trkpt><trkpt lat="42.6779067" lon="11.9185739"><ele>407.0</ele><time>2026-04-19T13:08:01.776Z</time></trkpt><trkpt lat="42.677666" lon="11.918581"><ele>404.5</ele><time>2026-04-19T13:08:02.774Z</time></trkpt><trkpt lat="42.677413" lon="11.9185859"><ele>402.0</ele><time>2026-04-19T13:08:03.776Z</time></trkpt><trkpt lat="42.6771546" lon="11.9185949"><ele>400.5</ele><time>2026-04-19T13:08:04.776Z</time></trkpt><trkpt lat="42.6768933" lon="11.9186042"><ele>399.0</ele><time>2026-04-19T13:08:05.776Z</time></trkpt><trkpt lat="42.6766307" lon="11.918608"><ele>399.0</ele><time>2026-04-19T13:08:06.775Z</time></trkpt><trkpt lat="42.676367" lon="11.9186124"><ele>399.0</ele><time>2026-04-19T13:08:07.776Z</time></trkpt><trkpt lat="42.6760971" lon="11.9186198"><ele>396.5</ele><time>2026-04-19T13:08:08.775Z</time></trkpt><trkpt lat="42.6758281" lon="11.9186299"><ele>394.0</ele><time>2026-04-19T13:08:09.776Z</time></trkpt><trkpt lat="42.6755623" lon="11.9186408"><ele>394.0</ele><time>2026-04-19T13:08:10.775Z</time></trkpt><trkpt lat="42.6752965" lon="11.9186511"><ele>394.0</ele><time>2026-04-19T13:08:11.776Z</time></trkpt><trkpt lat="42.6750334" lon="11.9186641"><ele>391.5</ele><time>2026-04-19T13:08:12.774Z</time></trkpt><trkpt lat="42.6747755" lon="11.918675"><ele>389.0</ele><time>2026-04-19T13:08:13.775Z</time></trkpt><trkpt lat="42.6745233" lon="11.9186808"><ele>386.5</ele><time>2026-04-19T13:08:14.775Z</time></trkpt><trkpt lat="42.6742783" lon="11.9186709"><ele>384.0</ele><time>2026-04-19T13:08:15.774Z</time></trkpt><trkpt lat="42.6740469" lon="11.918674"><ele>384.0</ele><time>2026-04-19T13:08:16.775Z</time></trkpt><trkpt lat="42.6738153" lon="11.9186818"><ele>384.0</ele><time>2026-04-19T13:08:17.776Z</time></trkpt><trkpt lat="42.673586" lon="11.9186896"><ele>382.0</ele><time>2026-04-19T13:08:18.776Z</time></trkpt><trkpt lat="42.6733592" lon="11.9186966"><ele>380.0</ele><time>2026-04-19T13:08:19.776Z</time></trkpt><trkpt lat="42.6731421" lon="11.918706"><ele>378.0</ele><time>2026-04-19T13:08:20.775Z</time></trkpt><trkpt lat="42.6729247" lon="11.9187017"><ele>377.0</ele><time>2026-04-19T13:08:21.774Z</time></trkpt><trkpt lat="42.6727094" lon="11.9187087"><ele>376.0</ele><time>2026-04-19T13:08:22.774Z</time></trkpt><trkpt lat="42.6725" lon="11.9187165"><ele>375.0</ele><time>2026-04-19T13:08:23.774Z</time></trkpt><trkpt lat="42.6722944" lon="11.9187235"><ele>375.0</ele><time>2026-04-19T13:08:24.775Z</time></trkpt><trkpt lat="42.6720925" lon="11.9187356"><ele>375.0</ele><time>2026-04-19T13:08:25.774Z</time></trkpt><trkpt lat="42.6718905" lon="11.9187427"><ele>375.0</ele><time>2026-04-19T13:08:26.774Z</time></trkpt><trkpt lat="42.6716915" lon="11.9187479"><ele>376.6666666666667</ele><time>2026-04-19T13:08:27.775Z</time></trkpt><trkpt lat="42.671494" lon="11.9187458"><ele>378.33333333333337</ele><time>2026-04-19T13:08:28.774Z</time></trkpt><trkpt lat="42.6712976" lon="11.9187384"><ele>380.0</ele><time>2026-04-19T13:08:29.774Z</time></trkpt><trkpt lat="42.6711016" lon="11.9187131"><ele>380.6666666666667</ele><time>2026-04-19T13:08:30.774Z</time></trkpt><trkpt lat="42.6709078" lon="11.9186774"><ele>381.3333333333333</ele><time>2026-04-19T13:08:31.775Z</time></trkpt><trkpt lat="42.67072" lon="11.9186138"><ele>382.0</ele><time>2026-04-19T13:08:32.775Z</time></trkpt><trkpt lat="42.6705369" lon="11.9185301"><ele>382.0</ele><time>2026-04-19T13:08:33.774Z</time></trkpt><trkpt lat="42.6703609" lon="11.9184271"><ele>382.0</ele><time>2026-04-19T13:08:34.775Z</time></trkpt><trkpt lat="42.670194" lon="11.9183061"><ele>382.0</ele><time>2026-04-19T13:08:35.775Z</time></trkpt><trkpt lat="42.6700346" lon="11.9181757"><ele>380.3333333333333</ele><time>2026-04-19T13:08:36.775Z</time></trkpt><trkpt lat="42.6698897" lon="11.9180287"><ele>378.6666666666667</ele><time>2026-04-19T13:08:37.774Z</time></trkpt><trkpt lat="42.6697616" lon="11.9178714"><ele>377.0</ele><time>2026-04-19T13:08:38.774Z</time></trkpt><trkpt lat="42.6696436" lon="11.9177082"><ele>376.33333333333337</ele><time>2026-04-19T13:08:39.775Z</time></trkpt><trkpt lat="42.6695355" lon="11.9175401"><ele>375.6666666666667</ele><time>2026-04-19T13:08:40.775Z</time></trkpt><trkpt lat="42.6694423" lon="11.9173657"><ele>375.0</ele><time>2026-04-19T13:08:41.775Z</time></trkpt><trkpt lat="42.6693553" lon="11.9171905"><ele>374.6666666666667</ele><time>2026-04-19T13:08:42.774Z</time></trkpt><trkpt lat="42.6692752" lon="11.9170067"><ele>374.33333333333337</ele><time>2026-04-19T13:08:43.774Z</time></trkpt><trkpt lat="42.6692038" lon="11.9168144"><ele>374.0</ele><time>2026-04-19T13:08:44.775Z</time></trkpt><trkpt lat="42.6691469" lon="11.9166098"><ele>373.6666666666667</ele><time>2026-04-19T13:08:45.775Z</time></trkpt><trkpt lat="42.6691021" lon="11.9164009"><ele>373.3333333333333</ele><time>2026-04-19T13:08:46.774Z</time></trkpt><trkpt lat="42.6690579" lon="11.9161947"><ele>373.0</ele><time>2026-04-19T13:08:47.774Z</time></trkpt><trkpt lat="42.6690158" lon="11.9159998"><ele>373.0</ele><time>2026-04-19T13:08:48.775Z</time></trkpt><trkpt lat="42.6689761" lon="11.9157905"><ele>373.0</ele><time>2026-04-19T13:08:49.774Z</time></trkpt><trkpt lat="42.6689405" lon="11.9155979"><ele>373.0</ele><time>2026-04-19T13:08:50.774Z</time></trkpt><trkpt lat="42.6689221" lon="11.9154173"><ele>373.0</ele><time>2026-04-19T13:08:51.774Z</time></trkpt><trkpt lat="42.6689146" lon="11.91523"><ele>371.5</ele><time>2026-04-19T13:08:52.773Z</time></trkpt><trkpt lat="42.6689259" lon="11.9150454"><ele>370.0</ele><time>2026-04-19T13:08:53.774Z</time></trkpt><trkpt lat="42.6689459" lon="11.9148583"><ele>368.5</ele><time>2026-04-19T13:08:54.774Z</time></trkpt><trkpt lat="42.6689724" lon="11.9146724"><ele>367.0</ele><time>2026-04-19T13:08:55.774Z</time></trkpt><trkpt lat="42.6689998" lon="11.9144866"><ele>367.0</ele><time>2026-04-19T13:08:56.773Z</time></trkpt><trkpt lat="42.6690274" lon="11.9142986"><ele>367.0</ele><time>2026-04-19T13:08:57.774Z</time></trkpt><trkpt lat="42.6690557" lon="11.9141099"><ele>367.0</ele><time>2026-04-19T13:08:58.774Z</time></trkpt><trkpt lat="42.6690824" lon="11.9139146"><ele>367.0</ele><time>2026-04-19T13:08:59.775Z</time></trkpt><trkpt lat="42.6691022" lon="11.9137236"><ele>366.5</ele><time>2026-04-19T13:09:00.773Z</time></trkpt><trkpt lat="42.669113" lon="11.9135289"><ele>366.0</ele><time>2026-04-19T13:09:01.774Z</time></trkpt><trkpt lat="42.6691092" lon="11.9133296"><ele>365.5</ele><time>2026-04-19T13:09:02.774Z</time></trkpt><trkpt lat="42.6690928" lon="11.9131278"><ele>365.0</ele><time>2026-04-19T13:09:03.774Z</time></trkpt><trkpt lat="42.6690714" lon="11.9129231"><ele>363.6666666666667</ele><time>2026-04-19T13:09:04.775Z</time></trkpt><trkpt lat="42.6690484" lon="11.9127195"><ele>362.3333333333333</ele><time>2026-04-19T13:09:05.773Z</time></trkpt><trkpt lat="42.6690231" lon="11.9125134"><ele>361.0</ele><time>2026-04-19T13:09:06.775Z</time></trkpt><trkpt lat="42.6689945" lon="11.9123153"><ele>359.0</ele><time>2026-04-19T13:09:07.774Z</time></trkpt><trkpt lat="42.6689463" lon="11.9121142"><ele>357.0</ele><time>2026-04-19T13:09:08.774Z</time></trkpt><trkpt lat="42.6688932" lon="11.9119198"><ele>355.0</ele><time>2026-04-19T13:09:09.774Z</time></trkpt><trkpt lat="42.6688281" lon="11.9117284"><ele>353.0</ele><time>2026-04-19T13:09:10.774Z</time></trkpt><trkpt lat="42.6687508" lon="11.9115415"><ele>351.0</ele><time>2026-04-19T13:09:11.774Z</time></trkpt><trkpt lat="42.6686857" lon="11.9113689"><ele>349.0</ele><time>2026-04-19T13:09:12.774Z</time></trkpt><trkpt lat="42.668616" lon="11.9111909"><ele>347.0</ele><time>2026-04-19T13:09:13.773Z</time></trkpt><trkpt lat="42.6685524" lon="11.910999"><ele>350.6666666666667</ele><time>2026-04-19T13:09:14.774Z</time></trkpt><trkpt lat="42.6684955" lon="11.9107983"><ele>354.3333333333333</ele><time>2026-04-19T13:09:15.775Z</time></trkpt><trkpt lat="42.6684505" lon="11.9105889"><ele>358.0</ele><time>2026-04-19T13:09:16.774Z</time></trkpt><trkpt lat="42.6684174" lon="11.9103727"><ele>358.0</ele><time>2026-04-19T13:09:17.774Z</time></trkpt><trkpt lat="42.6683901" lon="11.9101617"><ele>358.0</ele><time>2026-04-19T13:09:18.775Z</time></trkpt><trkpt lat="42.6683629" lon="11.9099526"><ele>358.0</ele><time>2026-04-19T13:09:19.775Z</time></trkpt><trkpt lat="42.6683289" lon="11.9097563"><ele>356.5</ele><time>2026-04-19T13:09:20.774Z</time></trkpt><trkpt lat="42.6682641" lon="11.9095794"><ele>355.0</ele><time>2026-04-19T13:09:21.773Z</time></trkpt><trkpt lat="42.6682177" lon="11.9093832"><ele>353.5</ele><time>2026-04-19T13:09:22.775Z</time></trkpt><trkpt lat="42.6681459" lon="11.909211"><ele>352.0</ele><time>2026-04-19T13:09:23.774Z</time></trkpt><trkpt lat="42.6680466" lon="11.9090694"><ele>351.66666666666663</ele><time>2026-04-19T13:09:24.775Z</time></trkpt><trkpt lat="42.6678857" lon="11.9089876"><ele>351.3333333333333</ele><time>2026-04-19T13:09:25.774Z</time></trkpt><trkpt lat="42.6677376" lon="11.9089026"><ele>351.0</ele><time>2026-04-19T13:09:26.774Z</time></trkpt><trkpt lat="42.6675765" lon="11.9088575"><ele>351.0</ele><time>2026-04-19T13:09:27.775Z</time></trkpt><trkpt lat="42.6674129" lon="11.9088136"><ele>351.0</ele><time>2026-04-19T13:09:28.775Z</time></trkpt><trkpt lat="42.6672452" lon="11.9087657"><ele>351.0</ele><time>2026-04-19T13:09:29.773Z</time></trkpt><trkpt lat="42.6670018" lon="11.9087776"><ele>351.3333333333333</ele><time>2026-04-19T13:09:30.775Z</time></trkpt><trkpt lat="42.6667899" lon="11.9087645"><ele>351.66666666666663</ele><time>2026-04-19T13:09:31.774Z</time></trkpt><trkpt lat="42.6665806" lon="11.9087696"><ele>352.0</ele><time>2026-04-19T13:09:32.775Z</time></trkpt><trkpt lat="42.6663758" lon="11.9087719"><ele>352.0</ele><time>2026-04-19T13:09:33.774Z</time></trkpt><trkpt lat="42.6661827" lon="11.9087669"><ele>352.0</ele><time>2026-04-19T13:09:34.775Z</time></trkpt><trkpt lat="42.6659957" lon="11.9087548"><ele>352.0</ele><time>2026-04-19T13:09:35.774Z</time></trkpt><trkpt lat="42.665815" lon="11.9087266"><ele>351.66666666666663</ele><time>2026-04-19T13:09:36.773Z</time></trkpt><trkpt lat="42.6656345" lon="11.9087012"><ele>351.3333333333333</ele><time>2026-04-19T13:09:37.775Z</time></trkpt><trkpt lat="42.6654698" lon="11.9086483"><ele>351.0</ele><time>2026-04-19T13:09:38.775Z</time></trkpt><trkpt lat="42.6653072" lon="11.9085967"><ele>349.3333333333333</ele><time>2026-04-19T13:09:39.774Z</time></trkpt><trkpt lat="42.6651433" lon="11.908545"><ele>347.66666666666663</ele><time>2026-04-19T13:09:40.774Z</time></trkpt><trkpt lat="42.6649795" lon="11.9085087"><ele>346.0</ele><time>2026-04-19T13:09:41.774Z</time></trkpt><trkpt lat="42.6648334" lon="11.9085264"><ele>346.0</ele><time>2026-04-19T13:09:42.774Z</time></trkpt><trkpt lat="42.664667" lon="11.9085246"><ele>346.0</ele><time>2026-04-19T13:09:43.774Z</time></trkpt><trkpt lat="42.6644811" lon="11.9085941"><ele>346.0</ele><time>2026-04-19T13:09:44.774Z</time></trkpt><trkpt lat="42.6642822" lon="11.9086609"><ele>342.3333333333333</ele><time>2026-04-19T13:09:45.773Z</time></trkpt><trkpt lat="42.6640793" lon="11.908754"><ele>338.6666666666667</ele><time>2026-04-19T13:09:46.774Z</time></trkpt><trkpt lat="42.6638791" lon="11.9088207"><ele>335.0</ele><time>2026-04-19T13:09:47.774Z</time></trkpt><trkpt lat="42.6636859" lon="11.9088697"><ele>334.33333333333337</ele><time>2026-04-19T13:09:48.773Z</time></trkpt><trkpt lat="42.6635075" lon="11.9088857"><ele>333.6666666666667</ele><time>2026-04-19T13:09:49.775Z</time></trkpt><trkpt lat="42.6633173" lon="11.9088807"><ele>333.0</ele><time>2026-04-19T13:09:50.773Z</time></trkpt><trkpt lat="42.6631266" lon="11.9088426"><ele>333.0</ele><time>2026-04-19T13:09:51.775Z</time></trkpt><trkpt lat="42.6629444" lon="11.9088113"><ele>333.0</ele><time>2026-04-19T13:09:52.775Z</time></trkpt><trkpt lat="42.6627685" lon="11.9087708"><ele>333.0</ele><time>2026-04-19T13:09:53.775Z</time></trkpt><trkpt lat="42.6626152" lon="11.9087392"><ele>332.0</ele><time>2026-04-19T13:09:54.775Z</time></trkpt><trkpt lat="42.6624692" lon="11.9087043"><ele>331.0</ele><time>2026-04-19T13:09:55.775Z</time></trkpt><trkpt lat="42.6623166" lon="11.9086766"><ele>330.0</ele><time>2026-04-19T13:09:56.774Z</time></trkpt><trkpt lat="42.6621665" lon="11.9086438"><ele>330.0</ele><time>2026-04-19T13:09:57.774Z</time></trkpt><trkpt lat="42.66202" lon="11.9086194"><ele>330.0</ele><time>2026-04-19T13:09:58.775Z</time></trkpt><trkpt lat="42.6618776" lon="11.9085919"><ele>330.0</ele><time>2026-04-19T13:09:59.775Z</time></trkpt><trkpt lat="42.6617454" lon="11.9085702"><ele>330.0</ele><time>2026-04-19T13:10:00.774Z</time></trkpt><trkpt lat="42.6616177" lon="11.9085563"><ele>329.0</ele><time>2026-04-19T13:10:01.773Z</time></trkpt><trkpt lat="42.6614865" lon="11.9085551"><ele>328.0</ele><time>2026-04-19T13:10:02.773Z</time></trkpt><trkpt lat="42.6613495" lon="11.9085795"><ele>327.0</ele><time>2026-04-19T13:10:03.775Z</time></trkpt><trkpt lat="42.6611902" lon="11.9086569"><ele>326.0</ele><time>2026-04-19T13:10:04.774Z</time></trkpt><trkpt lat="42.6610109" lon="11.9087407"><ele>323.5</ele><time>2026-04-19T13:10:05.775Z</time></trkpt><trkpt lat="42.6608028" lon="11.9088256"><ele>321.0</ele><time>2026-04-19T13:10:06.774Z</time></trkpt><trkpt lat="42.660569" lon="11.9089163"><ele>321.0</ele><time>2026-04-19T13:10:07.774Z</time></trkpt><trkpt lat="42.6603308" lon="11.9090128"><ele>321.0</ele><time>2026-04-19T13:10:08.774Z</time></trkpt><trkpt lat="42.6601061" lon="11.9091051"><ele>320.3333333333333</ele><time>2026-04-19T13:10:09.775Z</time></trkpt><trkpt lat="42.65989" lon="11.9091871"><ele>319.66666666666663</ele><time>2026-04-19T13:10:10.774Z</time></trkpt><trkpt lat="42.6596894" lon="11.9092611"><ele>319.0</ele><time>2026-04-19T13:10:11.775Z</time></trkpt><trkpt lat="42.659501" lon="11.9093329"><ele>317.3333333333333</ele><time>2026-04-19T13:10:12.775Z</time></trkpt><trkpt lat="42.6593259" lon="11.9094105"><ele>315.6666666666667</ele><time>2026-04-19T13:10:13.775Z</time></trkpt><trkpt lat="42.6591631" lon="11.9094883"><ele>314.0</ele><time>2026-04-19T13:10:14.774Z</time></trkpt><trkpt lat="42.6590192" lon="11.9095842"><ele>314.0</ele><time>2026-04-19T13:10:15.775Z</time></trkpt><trkpt lat="42.6588936" lon="11.9097082"><ele>314.0</ele><time>2026-04-19T13:10:16.774Z</time></trkpt><trkpt lat="42.6587816" lon="11.9098822"><ele>314.0</ele><time>2026-04-19T13:10:17.773Z</time></trkpt><trkpt lat="42.6586669" lon="11.9100688"><ele>313.6666666666667</ele><time>2026-04-19T13:10:18.774Z</time></trkpt><trkpt lat="42.6585641" lon="11.9102738"><ele>313.3333333333333</ele><time>2026-04-19T13:10:19.775Z</time></trkpt><trkpt lat="42.6584271" lon="11.9104573"><ele>313.0</ele><time>2026-04-19T13:10:20.773Z</time></trkpt><trkpt lat="42.6582961" lon="11.9106545"><ele>313.0</ele><time>2026-04-19T13:10:21.775Z</time></trkpt><trkpt lat="42.6581631" lon="11.9108476"><ele>313.0</ele><time>2026-04-19T13:10:22.773Z</time></trkpt><trkpt lat="42.6580291" lon="11.9110873"><ele>313.0</ele><time>2026-04-19T13:10:23.775Z</time></trkpt><trkpt lat="42.6579152" lon="11.9113628"><ele>314.0</ele><time>2026-04-19T13:10:24.774Z</time></trkpt><trkpt lat="42.6578094" lon="11.9116975"><ele>315.0</ele><time>2026-04-19T13:10:25.773Z</time></trkpt><trkpt lat="42.657691" lon="11.911993"><ele>315.0</ele><time>2026-04-19T13:10:26.774Z</time></trkpt><trkpt lat="42.657572" lon="11.9122777"><ele>315.0</ele><time>2026-04-19T13:10:27.775Z</time></trkpt><trkpt lat="42.6574443" lon="11.9125317"><ele>315.6666666666667</ele><time>2026-04-19T13:10:28.774Z</time></trkpt><trkpt lat="42.6573268" lon="11.9127803"><ele>316.33333333333337</ele><time>2026-04-19T13:10:29.774Z</time></trkpt><trkpt lat="42.6572104" lon="11.9130266"><ele>317.0</ele><time>2026-04-19T13:10:30.775Z</time></trkpt><trkpt lat="42.6570882" lon="11.9132778"><ele>316.6666666666667</ele><time>2026-04-19T13:10:31.773Z</time></trkpt><trkpt lat="42.6569698" lon="11.9135186"><ele>316.3333333333333</ele><time>2026-04-19T13:10:32.775Z</time></trkpt><trkpt lat="42.6568568" lon="11.9137542"><ele>316.0</ele><time>2026-04-19T13:10:33.775Z</time></trkpt><trkpt lat="42.6567455" lon="11.9139867"><ele>315.3333333333333</ele><time>2026-04-19T13:10:34.775Z</time></trkpt><trkpt lat="42.6566467" lon="11.9142061"><ele>314.6666666666667</ele><time>2026-04-19T13:10:35.774Z</time></trkpt><trkpt lat="42.6565526" lon="11.9144105"><ele>314.0</ele><time>2026-04-19T13:10:36.773Z</time></trkpt><trkpt lat="42.6564573" lon="11.9146103"><ele>314.0</ele><time>2026-04-19T13:10:37.773Z</time></trkpt><trkpt lat="42.656379" lon="11.9148184"><ele>314.0</ele><time>2026-04-19T13:10:38.773Z</time></trkpt><trkpt lat="42.6562989" lon="11.9150497"><ele>314.0</ele><time>2026-04-19T13:10:39.774Z</time></trkpt><trkpt lat="42.6562284" lon="11.9152859"><ele>314.0</ele><time>2026-04-19T13:10:40.775Z</time></trkpt><trkpt lat="42.6561518" lon="11.9155404"><ele>314.0</ele><time>2026-04-19T13:10:41.774Z</time></trkpt><trkpt lat="42.6560693" lon="11.9158188"><ele>314.0</ele><time>2026-04-19T13:10:42.774Z</time></trkpt><trkpt lat="42.6559885" lon="11.916097"><ele>312.0</ele><time>2026-04-19T13:10:43.775Z</time></trkpt><trkpt lat="42.6559089" lon="11.9163913"><ele>310.0</ele><time>2026-04-19T13:10:44.774Z</time></trkpt><trkpt lat="42.6558352" lon="11.916697"><ele>310.0</ele><time>2026-04-19T13:10:45.773Z</time></trkpt><trkpt lat="42.6557637" lon="11.9170086"><ele>310.0</ele><time>2026-04-19T13:10:46.775Z</time></trkpt><trkpt lat="42.6556956" lon="11.9173128"><ele>310.3333333333333</ele><time>2026-04-19T13:10:47.775Z</time></trkpt><trkpt lat="42.6556377" lon="11.9175998"><ele>310.6666666666667</ele><time>2026-04-19T13:10:48.774Z</time></trkpt><trkpt lat="42.6555898" lon="11.9178746"><ele>311.0</ele><time>2026-04-19T13:10:49.775Z</time></trkpt><trkpt lat="42.6555486" lon="11.9181412"><ele>310.6666666666667</ele><time>2026-04-19T13:10:50.775Z</time></trkpt><trkpt lat="42.6555127" lon="11.918414"><ele>310.3333333333333</ele><time>2026-04-19T13:10:51.773Z</time></trkpt><trkpt lat="42.6554965" lon="11.9186939"><ele>310.0</ele><time>2026-04-19T13:10:52.775Z</time></trkpt><trkpt lat="42.6555093" lon="11.9189971"><ele>309.5</ele><time>2026-04-19T13:10:53.775Z</time></trkpt><trkpt lat="42.6555331" lon="11.9193141"><ele>309.0</ele><time>2026-04-19T13:10:54.773Z</time></trkpt><trkpt lat="42.6555682" lon="11.919636"><ele>309.0</ele><time>2026-04-19T13:10:55.775Z</time></trkpt><trkpt lat="42.655612" lon="11.9199702"><ele>309.0</ele><time>2026-04-19T13:10:56.774Z</time></trkpt><trkpt lat="42.6556581" lon="11.9202838"><ele>308.5</ele><time>2026-04-19T13:10:57.774Z</time></trkpt><trkpt lat="42.6557024" lon="11.9205903"><ele>308.0</ele><time>2026-04-19T13:10:58.775Z</time></trkpt><trkpt lat="42.6557478" lon="11.9208909"><ele>308.6666666666667</ele><time>2026-04-19T13:10:59.774Z</time></trkpt><trkpt lat="42.6557925" lon="11.9211788"><ele>309.3333333333333</ele><time>2026-04-19T13:11:00.774Z</time></trkpt><trkpt lat="42.6558373" lon="11.9214463"><ele>310.0</ele><time>2026-04-19T13:11:01.775Z</time></trkpt><trkpt lat="42.655881" lon="11.9217027"><ele>310.0</ele><time>2026-04-19T13:11:02.775Z</time></trkpt><trkpt lat="42.6559259" lon="11.9219564"><ele>310.0</ele><time>2026-04-19T13:11:03.774Z</time></trkpt><trkpt lat="42.6559726" lon="11.9221753"><ele>310.0</ele><time>2026-04-19T13:11:04.774Z</time></trkpt><trkpt lat="42.6560249" lon="11.9223887"><ele>309.66666666666663</ele><time>2026-04-19T13:11:05.774Z</time></trkpt><trkpt lat="42.6560732" lon="11.9226031"><ele>309.3333333333333</ele><time>2026-04-19T13:11:06.775Z</time></trkpt><trkpt lat="42.656152" lon="11.9228078"><ele>309.0</ele><time>2026-04-19T13:11:07.775Z</time></trkpt><trkpt lat="42.6561851" lon="11.9229936"><ele>309.5</ele><time>2026-04-19T13:11:08.774Z</time></trkpt><trkpt lat="42.6562226" lon="11.9231645"><ele>310.0</ele><time>2026-04-19T13:11:09.775Z</time></trkpt><trkpt lat="42.6562394" lon="11.9233397"><ele>310.5</ele><time>2026-04-19T13:11:10.775Z</time></trkpt><trkpt lat="42.6562595" lon="11.9235071"><ele>311.0</ele><time>2026-04-19T13:11:11.774Z</time></trkpt><trkpt lat="42.6562798" lon="11.9236773"><ele>311.0</ele><time>2026-04-19T13:11:12.773Z</time></trkpt><trkpt lat="42.6562905" lon="11.9238388"><ele>311.0</ele><time>2026-04-19T13:11:13.774Z</time></trkpt><trkpt lat="42.6562977" lon="11.9240018"><ele>311.0</ele><time>2026-04-19T13:11:14.775Z</time></trkpt><trkpt lat="42.6562988" lon="11.9241749"><ele>311.0</ele><time>2026-04-19T13:11:15.775Z</time></trkpt><trkpt lat="42.6562964" lon="11.9243679"><ele>311.0</ele><time>2026-04-19T13:11:16.775Z</time></trkpt><trkpt lat="42.656293" lon="11.9245754"><ele>311.0</ele><time>2026-04-19T13:11:17.774Z</time></trkpt><trkpt lat="42.6562877" lon="11.9248057"><ele>311.0</ele><time>2026-04-19T13:11:18.774Z</time></trkpt><trkpt lat="42.6562851" lon="11.9250464"><ele>311.0</ele><time>2026-04-19T13:11:19.774Z</time></trkpt><trkpt lat="42.6562896" lon="11.9253034"><ele>311.0</ele><time>2026-04-19T13:11:20.775Z</time></trkpt><trkpt lat="42.6563015" lon="11.9256196"><ele>311.0</ele><time>2026-04-19T13:11:21.775Z</time></trkpt><trkpt lat="42.6563182" lon="11.9259368"><ele>311.0</ele><time>2026-04-19T13:11:22.774Z</time></trkpt><trkpt lat="42.6563286" lon="11.9262556"><ele>311.0</ele><time>2026-04-19T13:11:23.775Z</time></trkpt><trkpt lat="42.6563395" lon="11.9265844"><ele>311.5</ele><time>2026-04-19T13:11:24.774Z</time></trkpt><trkpt lat="42.6563532" lon="11.9269043"><ele>312.0</ele><time>2026-04-19T13:11:25.774Z</time></trkpt><trkpt lat="42.6563672" lon="11.9272059"><ele>312.0</ele><time>2026-04-19T13:11:26.774Z</time></trkpt><trkpt lat="42.6563869" lon="11.9274973"><ele>312.0</ele><time>2026-04-19T13:11:27.774Z</time></trkpt><trkpt lat="42.656408" lon="11.9277801"><ele>312.0</ele><time>2026-04-19T13:11:28.775Z</time></trkpt><trkpt lat="42.6564315" lon="11.9280492"><ele>312.0</ele><time>2026-04-19T13:11:29.774Z</time></trkpt><trkpt lat="42.6564498" lon="11.9283144"><ele>312.0</ele><time>2026-04-19T13:11:30.774Z</time></trkpt><trkpt lat="42.6564712" lon="11.9285674"><ele>312.0</ele><time>2026-04-19T13:11:31.774Z</time></trkpt><trkpt lat="42.6564897" lon="11.9288139"><ele>312.0</ele><time>2026-04-19T13:11:32.773Z</time></trkpt><trkpt lat="42.656499" lon="11.9290762"><ele>312.0</ele><time>2026-04-19T13:11:33.773Z</time></trkpt><trkpt lat="42.6565034" lon="11.9293413"><ele>312.0</ele><time>2026-04-19T13:11:34.774Z</time></trkpt><trkpt lat="42.6564981" lon="11.9296203"><ele>311.3333333333333</ele><time>2026-04-19T13:11:35.774Z</time></trkpt><trkpt lat="42.6564945" lon="11.929908"><ele>310.66666666666663</ele><time>2026-04-19T13:11:36.773Z</time></trkpt><trkpt lat="42.6564906" lon="11.9302028"><ele>310.0</ele><time>2026-04-19T13:11:37.775Z</time></trkpt><trkpt lat="42.6564867" lon="11.9305064"><ele>310.0</ele><time>2026-04-19T13:11:38.774Z</time></trkpt><trkpt lat="42.656493" lon="11.9308095"><ele>310.0</ele><time>2026-04-19T13:11:39.775Z</time></trkpt><trkpt lat="42.6565042" lon="11.9311057"><ele>310.0</ele><time>2026-04-19T13:11:40.773Z</time></trkpt><trkpt lat="42.6565226" lon="11.9313954"><ele>310.0</ele><time>2026-04-19T13:11:41.774Z</time></trkpt><trkpt lat="42.6565428" lon="11.9316837"><ele>310.0</ele><time>2026-04-19T13:11:42.774Z</time></trkpt><trkpt lat="42.6565658" lon="11.9319687"><ele>310.0</ele><time>2026-04-19T13:11:43.774Z</time></trkpt><trkpt lat="42.6565863" lon="11.9322446"><ele>310.66666666666663</ele><time>2026-04-19T13:11:44.775Z</time></trkpt><trkpt lat="42.6566083" lon="11.9325094"><ele>311.3333333333333</ele><time>2026-04-19T13:11:45.775Z</time></trkpt><trkpt lat="42.6566222" lon="11.9327602"><ele>312.0</ele><time>2026-04-19T13:11:46.774Z</time></trkpt><trkpt lat="42.6566272" lon="11.9330036"><ele>312.0</ele><time>2026-04-19T13:11:47.775Z</time></trkpt><trkpt lat="42.6566221" lon="11.9332509"><ele>312.0</ele><time>2026-04-19T13:11:48.774Z</time></trkpt><trkpt lat="42.6566149" lon="11.9335044"><ele>312.0</ele><time>2026-04-19T13:11:49.773Z</time></trkpt><trkpt lat="42.6566033" lon="11.9337659"><ele>311.6666666666667</ele><time>2026-04-19T13:11:50.774Z</time></trkpt><trkpt lat="42.6565952" lon="11.9340377"><ele>311.33333333333337</ele><time>2026-04-19T13:11:51.774Z</time></trkpt><trkpt lat="42.6565805" lon="11.934314"><ele>311.0</ele><time>2026-04-19T13:11:52.774Z</time></trkpt><trkpt lat="42.6565629" lon="11.9346076"><ele>311.0</ele><time>2026-04-19T13:11:53.774Z</time></trkpt><trkpt lat="42.6565429" lon="11.934913"><ele>311.0</ele><time>2026-04-19T13:11:54.775Z</time></trkpt><trkpt lat="42.6565258" lon="11.9352244"><ele>311.0</ele><time>2026-04-19T13:11:55.774Z</time></trkpt><trkpt lat="42.6565048" lon="11.9355309"><ele>311.0</ele><time>2026-04-19T13:11:56.775Z</time></trkpt><trkpt lat="42.6564769" lon="11.9358187"><ele>311.0</ele><time>2026-04-19T13:11:57.774Z</time></trkpt><trkpt lat="42.6564479" lon="11.9360983"><ele>311.0</ele><time>2026-04-19T13:11:58.775Z</time></trkpt><trkpt lat="42.6564018" lon="11.9363751"><ele>311.0</ele><time>2026-04-19T13:11:59.773Z</time></trkpt><trkpt lat="42.6563347" lon="11.9366359"><ele>311.0</ele><time>2026-04-19T13:12:00.774Z</time></trkpt><trkpt lat="42.656243" lon="11.9368968"><ele>311.0</ele><time>2026-04-19T13:12:01.775Z</time></trkpt><trkpt lat="42.6561389" lon="11.9371644"><ele>311.0</ele><time>2026-04-19T13:12:02.774Z</time></trkpt><trkpt lat="42.6560322" lon="11.937437"><ele>310.33333333333337</ele><time>2026-04-19T13:12:03.773Z</time></trkpt><trkpt lat="42.6559344" lon="11.9376889"><ele>309.6666666666667</ele><time>2026-04-19T13:12:04.774Z</time></trkpt><trkpt lat="42.6558241" lon="11.9379202"><ele>309.0</ele><time>2026-04-19T13:12:05.774Z</time></trkpt><trkpt lat="42.6557229" lon="11.9381543"><ele>309.3333333333333</ele><time>2026-04-19T13:12:06.774Z</time></trkpt><trkpt lat="42.6556216" lon="11.9383993"><ele>309.66666666666663</ele><time>2026-04-19T13:12:07.775Z</time></trkpt><trkpt lat="42.6555178" lon="11.9386546"><ele>310.0</ele><time>2026-04-19T13:12:08.775Z</time></trkpt><trkpt lat="42.6554153" lon="11.9389123"><ele>310.0</ele><time>2026-04-19T13:12:09.775Z</time></trkpt><trkpt lat="42.6553117" lon="11.9391591"><ele>310.0</ele><time>2026-04-19T13:12:10.773Z</time></trkpt><trkpt lat="42.6552094" lon="11.9394029"><ele>310.0</ele><time>2026-04-19T13:12:11.775Z</time></trkpt><trkpt lat="42.6551099" lon="11.9396518"><ele>309.66666666666663</ele><time>2026-04-19T13:12:12.774Z</time></trkpt><trkpt lat="42.6550135" lon="11.9398932"><ele>309.3333333333333</ele><time>2026-04-19T13:12:13.774Z</time></trkpt><trkpt lat="42.6549205" lon="11.9401301"><ele>309.0</ele><time>2026-04-19T13:12:14.774Z</time></trkpt><trkpt lat="42.654835" lon="11.9403587"><ele>308.3333333333333</ele><time>2026-04-19T13:12:15.775Z</time></trkpt><trkpt lat="42.654751" lon="11.9405774"><ele>307.66666666666663</ele><time>2026-04-19T13:12:16.775Z</time></trkpt><trkpt lat="42.6546707" lon="11.940788"><ele>307.0</ele><time>2026-04-19T13:12:17.774Z</time></trkpt><trkpt lat="42.6545933" lon="11.9409934"><ele>307.0</ele><time>2026-04-19T13:12:18.774Z</time></trkpt><trkpt lat="42.6545118" lon="11.9412246"><ele>307.0</ele><time>2026-04-19T13:12:19.775Z</time></trkpt><trkpt lat="42.6544153" lon="11.9414695"><ele>307.0</ele><time>2026-04-19T13:12:20.774Z</time></trkpt><trkpt lat="42.6543118" lon="11.9417328"><ele>306.0</ele><time>2026-04-19T13:12:21.774Z</time></trkpt><trkpt lat="42.654205" lon="11.942011"><ele>305.0</ele><time>2026-04-19T13:12:22.774Z</time></trkpt><trkpt lat="42.6540897" lon="11.9423041"><ele>306.0</ele><time>2026-04-19T13:12:23.775Z</time></trkpt><trkpt lat="42.6539714" lon="11.9425947"><ele>307.0</ele><time>2026-04-19T13:12:24.773Z</time></trkpt><trkpt lat="42.6538522" lon="11.942894"><ele>307.0</ele><time>2026-04-19T13:12:25.774Z</time></trkpt><trkpt lat="42.6537353" lon="11.9431929"><ele>307.0</ele><time>2026-04-19T13:12:26.775Z</time></trkpt><trkpt lat="42.6536193" lon="11.9434789"><ele>307.5</ele><time>2026-04-19T13:12:27.775Z</time></trkpt><trkpt lat="42.6535007" lon="11.9437698"><ele>308.0</ele><time>2026-04-19T13:12:28.775Z</time></trkpt><trkpt lat="42.6533824" lon="11.9440562"><ele>307.5</ele><time>2026-04-19T13:12:29.774Z</time></trkpt><trkpt lat="42.6532704" lon="11.9443386"><ele>307.0</ele><time>2026-04-19T13:12:30.775Z</time></trkpt><trkpt lat="42.6531611" lon="11.9446103"><ele>307.0</ele><time>2026-04-19T13:12:31.774Z</time></trkpt><trkpt lat="42.6530537" lon="11.944871"><ele>307.0</ele><time>2026-04-19T13:12:32.775Z</time></trkpt><trkpt lat="42.652949" lon="11.9451215"><ele>307.0</ele><time>2026-04-19T13:12:33.774Z</time></trkpt><trkpt lat="42.6528498" lon="11.9453508"><ele>307.0</ele><time>2026-04-19T13:12:34.774Z</time></trkpt><trkpt lat="42.6527639" lon="11.9455777"><ele>307.0</ele><time>2026-04-19T13:12:35.774Z</time></trkpt><trkpt lat="42.6526786" lon="11.9458271"><ele>307.0</ele><time>2026-04-19T13:12:36.774Z</time></trkpt><trkpt lat="42.6526244" lon="11.9460865"><ele>306.66666666666663</ele><time>2026-04-19T13:12:37.775Z</time></trkpt><trkpt lat="42.6525976" lon="11.9463593"><ele>306.3333333333333</ele><time>2026-04-19T13:12:38.774Z</time></trkpt><trkpt lat="42.6525731" lon="11.9466458"><ele>306.0</ele><time>2026-04-19T13:12:39.775Z</time></trkpt><trkpt lat="42.6525496" lon="11.9469512"><ele>305.5</ele><time>2026-04-19T13:12:40.774Z</time></trkpt><trkpt lat="42.6525271" lon="11.9472713"><ele>305.0</ele><time>2026-04-19T13:12:41.775Z</time></trkpt><trkpt lat="42.6525051" lon="11.9475978"><ele>305.0</ele><time>2026-04-19T13:12:42.774Z</time></trkpt><trkpt lat="42.6524826" lon="11.947935"><ele>305.0</ele><time>2026-04-19T13:12:43.774Z</time></trkpt><trkpt lat="42.6524588" lon="11.9482749"><ele>305.5</ele><time>2026-04-19T13:12:44.774Z</time></trkpt><trkpt lat="42.6524338" lon="11.9486197"><ele>306.0</ele><time>2026-04-19T13:12:45.774Z</time></trkpt><trkpt lat="42.6524102" lon="11.9489561"><ele>306.0</ele><time>2026-04-19T13:12:46.774Z</time></trkpt><trkpt lat="42.6523872" lon="11.9493047"><ele>306.0</ele><time>2026-04-19T13:12:47.775Z</time></trkpt><trkpt lat="42.6523562" lon="11.94965"><ele>306.0</ele><time>2026-04-19T13:12:48.775Z</time></trkpt><trkpt lat="42.6523291" lon="11.95"><ele>306.0</ele><time>2026-04-19T13:12:49.775Z</time></trkpt><trkpt lat="42.6523012" lon="11.9503428"><ele>306.0</ele><time>2026-04-19T13:12:50.775Z</time></trkpt><trkpt lat="42.6522771" lon="11.950666"><ele>306.0</ele><time>2026-04-19T13:12:51.774Z</time></trkpt><trkpt lat="42.6522504" lon="11.9509739"><ele>306.0</ele><time>2026-04-19T13:12:52.775Z</time></trkpt><trkpt lat="42.6522253" lon="11.9512763"><ele>306.0</ele><time>2026-04-19T13:12:53.774Z</time></trkpt><trkpt lat="42.6522029" lon="11.951573"><ele>306.0</ele><time>2026-04-19T13:12:54.775Z</time></trkpt><trkpt lat="42.652178" lon="11.9518748"><ele>306.5</ele><time>2026-04-19T13:12:55.775Z</time></trkpt><trkpt lat="42.6521513" lon="11.9521835"><ele>307.0</ele><time>2026-04-19T13:12:56.775Z</time></trkpt><trkpt lat="42.6521184" lon="11.9524871"><ele>307.0</ele><time>2026-04-19T13:12:57.774Z</time></trkpt><trkpt lat="42.6520844" lon="11.9527908"><ele>307.0</ele><time>2026-04-19T13:12:58.774Z</time></trkpt><trkpt lat="42.6520463" lon="11.9531028"><ele>307.0</ele><time>2026-04-19T13:12:59.774Z</time></trkpt><trkpt lat="42.6520034" lon="11.953414"><ele>307.0</ele><time>2026-04-19T13:13:00.773Z</time></trkpt><trkpt lat="42.6519638" lon="11.9537256"><ele>307.0</ele><time>2026-04-19T13:13:01.773Z</time></trkpt><trkpt lat="42.6519265" lon="11.9540373"><ele>307.0</ele><time>2026-04-19T13:13:02.774Z</time></trkpt><trkpt lat="42.6518882" lon="11.9543495"><ele>307.0</ele><time>2026-04-19T13:13:03.774Z</time></trkpt><trkpt lat="42.6518483" lon="11.9546701"><ele>307.0</ele><time>2026-04-19T13:13:04.773Z</time></trkpt><trkpt lat="42.6518071" lon="11.9549896"><ele>308.0</ele><time>2026-04-19T13:13:05.775Z</time></trkpt><trkpt lat="42.6517656" lon="11.9553173"><ele>309.0</ele><time>2026-04-19T13:13:06.774Z</time></trkpt><trkpt lat="42.6517222" lon="11.9556432"><ele>308.5</ele><time>2026-04-19T13:13:07.774Z</time></trkpt><trkpt lat="42.6516779" lon="11.9559753"><ele>308.0</ele><time>2026-04-19T13:13:08.774Z</time></trkpt><trkpt lat="42.6516354" lon="11.9563096"><ele>308.0</ele><time>2026-04-19T13:13:09.774Z</time></trkpt><trkpt lat="42.6515934" lon="11.9566474"><ele>308.0</ele><time>2026-04-19T13:13:10.774Z</time></trkpt><trkpt lat="42.6515448" lon="11.9569836"><ele>307.5</ele><time>2026-04-19T13:13:11.774Z</time></trkpt><trkpt lat="42.6514932" lon="11.9573207"><ele>307.0</ele><time>2026-04-19T13:13:12.774Z</time></trkpt><trkpt lat="42.6514457" lon="11.9576624"><ele>306.0</ele><time>2026-04-19T13:13:13.775Z</time></trkpt><trkpt lat="42.6514004" lon="11.9580022"><ele>305.0</ele><time>2026-04-19T13:13:14.775Z</time></trkpt><trkpt lat="42.651355" lon="11.9583501"><ele>305.5</ele><time>2026-04-19T13:13:15.775Z</time></trkpt><trkpt lat="42.6513071" lon="11.9586968"><ele>306.0</ele><time>2026-04-19T13:13:16.775Z</time></trkpt><trkpt lat="42.6512619" lon="11.9590401"><ele>306.5</ele><time>2026-04-19T13:13:17.774Z</time></trkpt><trkpt lat="42.6512103" lon="11.9593851"><ele>307.0</ele><time>2026-04-19T13:13:18.774Z</time></trkpt><trkpt lat="42.6511631" lon="11.9597328"><ele>306.5</ele><time>2026-04-19T13:13:19.775Z</time></trkpt><trkpt lat="42.6511229" lon="11.9600812"><ele>306.0</ele><time>2026-04-19T13:13:20.775Z</time></trkpt><trkpt lat="42.6510803" lon="11.9604272"><ele>306.0</ele><time>2026-04-19T13:13:21.773Z</time></trkpt><trkpt lat="42.6510387" lon="11.9607795"><ele>306.0</ele><time>2026-04-19T13:13:22.774Z</time></trkpt><trkpt lat="42.6509967" lon="11.9611256"><ele>306.5</ele><time>2026-04-19T13:13:23.774Z</time></trkpt><trkpt lat="42.650962" lon="11.961471"><ele>307.0</ele><time>2026-04-19T13:13:24.774Z</time></trkpt><trkpt lat="42.6509218" lon="11.96182"><ele>307.0</ele><time>2026-04-19T13:13:25.774Z</time></trkpt><trkpt lat="42.6508783" lon="11.9621606"><ele>307.0</ele><time>2026-04-19T13:13:26.775Z</time></trkpt><trkpt lat="42.6508355" lon="11.9625021"><ele>306.5</ele><time>2026-04-19T13:13:27.775Z</time></trkpt><trkpt lat="42.6507921" lon="11.9628453"><ele>306.0</ele><time>2026-04-19T13:13:28.775Z</time></trkpt><trkpt lat="42.6507505" lon="11.9631922"><ele>306.5</ele><time>2026-04-19T13:13:29.774Z</time></trkpt><trkpt lat="42.6507088" lon="11.9635381"><ele>307.0</ele><time>2026-04-19T13:13:30.774Z</time></trkpt><trkpt lat="42.6506686" lon="11.963879"><ele>307.5</ele><time>2026-04-19T13:13:31.774Z</time></trkpt><trkpt lat="42.6506254" lon="11.9642129"><ele>308.0</ele><time>2026-04-19T13:13:32.773Z</time></trkpt><trkpt lat="42.6505818" lon="11.9645393"><ele>308.0</ele><time>2026-04-19T13:13:33.774Z</time></trkpt><trkpt lat="42.6505374" lon="11.9648516"><ele>308.0</ele><time>2026-04-19T13:13:34.774Z</time></trkpt><trkpt lat="42.6505016" lon="11.965141"><ele>307.6666666666667</ele><time>2026-04-19T13:13:35.773Z</time></trkpt><trkpt lat="42.6504616" lon="11.9654279"><ele>307.3333333333333</ele><time>2026-04-19T13:13:36.775Z</time></trkpt><trkpt lat="42.650422" lon="11.9657061"><ele>307.0</ele><time>2026-04-19T13:13:37.774Z</time></trkpt><trkpt lat="42.6503869" lon="11.9659805"><ele>307.0</ele><time>2026-04-19T13:13:38.773Z</time></trkpt><trkpt lat="42.6503448" lon="11.9662556"><ele>307.0</ele><time>2026-04-19T13:13:39.773Z</time></trkpt><trkpt lat="42.6502987" lon="11.966534"><ele>307.0</ele><time>2026-04-19T13:13:40.774Z</time></trkpt><trkpt lat="42.6502511" lon="11.966823"><ele>307.0</ele><time>2026-04-19T13:13:41.774Z</time></trkpt><trkpt lat="42.6501988" lon="11.9671254"><ele>307.0</ele><time>2026-04-19T13:13:42.774Z</time></trkpt><trkpt lat="42.6501394" lon="11.967434"><ele>307.0</ele><time>2026-04-19T13:13:43.774Z</time></trkpt><trkpt lat="42.6500769" lon="11.9677547"><ele>307.0</ele><time>2026-04-19T13:13:44.774Z</time></trkpt><trkpt lat="42.6500125" lon="11.9680806"><ele>307.0</ele><time>2026-04-19T13:13:45.775Z</time></trkpt><trkpt lat="42.6499425" lon="11.9684015"><ele>307.0</ele><time>2026-04-19T13:13:46.773Z</time></trkpt><trkpt lat="42.6498729" lon="11.9687073"><ele>307.0</ele><time>2026-04-19T13:13:47.775Z</time></trkpt><trkpt lat="42.6498063" lon="11.9690043"><ele>307.0</ele><time>2026-04-19T13:13:48.775Z</time></trkpt><trkpt lat="42.6497433" lon="11.9693004"><ele>307.0</ele><time>2026-04-19T13:13:49.774Z</time></trkpt><trkpt lat="42.6496764" lon="11.969592"><ele>307.0</ele><time>2026-04-19T13:13:50.773Z</time></trkpt><trkpt lat="42.6496073" lon="11.9698662"><ele>307.0</ele><time>2026-04-19T13:13:51.774Z</time></trkpt><trkpt lat="42.6495407" lon="11.9701333"><ele>307.0</ele><time>2026-04-19T13:13:52.774Z</time></trkpt><trkpt lat="42.6494761" lon="11.970396"><ele>307.0</ele><time>2026-04-19T13:13:53.774Z</time></trkpt><trkpt lat="42.6494127" lon="11.9706473"><ele>307.0</ele><time>2026-04-19T13:13:54.774Z</time></trkpt><trkpt lat="42.6493473" lon="11.9708856"><ele>306.66666666666663</ele><time>2026-04-19T13:13:55.775Z</time></trkpt><trkpt lat="42.6492849" lon="11.9711208"><ele>306.3333333333333</ele><time>2026-04-19T13:13:56.775Z</time></trkpt><trkpt lat="42.6492216" lon="11.9713607"><ele>306.0</ele><time>2026-04-19T13:13:57.775Z</time></trkpt><trkpt lat="42.6491641" lon="11.9715963"><ele>306.0</ele><time>2026-04-19T13:13:58.775Z</time></trkpt><trkpt lat="42.6491045" lon="11.9718228"><ele>306.0</ele><time>2026-04-19T13:13:59.773Z</time></trkpt><trkpt lat="42.6490505" lon="11.9720393"><ele>306.0</ele><time>2026-04-19T13:14:00.774Z</time></trkpt><trkpt lat="42.6489962" lon="11.9722625"><ele>306.0</ele><time>2026-04-19T13:14:01.774Z</time></trkpt><trkpt lat="42.648948" lon="11.97249"><ele>306.0</ele><time>2026-04-19T13:14:02.773Z</time></trkpt><trkpt lat="42.6488999" lon="11.9727124"><ele>306.0</ele><time>2026-04-19T13:14:03.774Z</time></trkpt><trkpt lat="42.6488526" lon="11.9729449"><ele>306.3333333333333</ele><time>2026-04-19T13:14:04.774Z</time></trkpt><trkpt lat="42.6488016" lon="11.9731886"><ele>306.66666666666663</ele><time>2026-04-19T13:14:05.775Z</time></trkpt><trkpt lat="42.648751" lon="11.9734402"><ele>307.0</ele><time>2026-04-19T13:14:06.775Z</time></trkpt><trkpt lat="42.6487005" lon="11.9736978"><ele>307.3333333333333</ele><time>2026-04-19T13:14:07.774Z</time></trkpt><trkpt lat="42.6486421" lon="11.9739683"><ele>307.6666666666667</ele><time>2026-04-19T13:14:08.774Z</time></trkpt><trkpt lat="42.648581" lon="11.9742404"><ele>308.0</ele><time>2026-04-19T13:14:09.774Z</time></trkpt><trkpt lat="42.6485164" lon="11.9745126"><ele>308.0</ele><time>2026-04-19T13:14:10.775Z</time></trkpt><trkpt lat="42.6484528" lon="11.9747855"><ele>308.0</ele><time>2026-04-19T13:14:11.774Z</time></trkpt><trkpt lat="42.6483871" lon="11.9750419"><ele>308.0</ele><time>2026-04-19T13:14:12.775Z</time></trkpt><trkpt lat="42.6483256" lon="11.9752935"><ele>308.33333333333337</ele><time>2026-04-19T13:14:13.774Z</time></trkpt><trkpt lat="42.6482681" lon="11.9755079"><ele>308.6666666666667</ele><time>2026-04-19T13:14:14.774Z</time></trkpt><trkpt lat="42.6482115" lon="11.9757361"><ele>309.0</ele><time>2026-04-19T13:14:15.775Z</time></trkpt><trkpt lat="42.6481537" lon="11.9759679"><ele>309.6666666666667</ele><time>2026-04-19T13:14:16.773Z</time></trkpt><trkpt lat="42.6480999" lon="11.9762032"><ele>310.33333333333337</ele><time>2026-04-19T13:14:17.774Z</time></trkpt><trkpt lat="42.6480447" lon="11.9764255"><ele>311.0</ele><time>2026-04-19T13:14:18.774Z</time></trkpt><trkpt lat="42.6479925" lon="11.9766389"><ele>311.6666666666667</ele><time>2026-04-19T13:14:19.775Z</time></trkpt><trkpt lat="42.6479367" lon="11.9768476"><ele>312.3333333333333</ele><time>2026-04-19T13:14:20.775Z</time></trkpt><trkpt lat="42.6478783" lon="11.9770611"><ele>313.0</ele><time>2026-04-19T13:14:21.774Z</time></trkpt><trkpt lat="42.6478221" lon="11.9772789"><ele>313.0</ele><time>2026-04-19T13:14:22.775Z</time></trkpt><trkpt lat="42.6477631" lon="11.9775088"><ele>313.0</ele><time>2026-04-19T13:14:23.774Z</time></trkpt><trkpt lat="42.64771" lon="11.9777252"><ele>313.0</ele><time>2026-04-19T13:14:24.774Z</time></trkpt><trkpt lat="42.6476586" lon="11.9779317"><ele>313.0</ele><time>2026-04-19T13:14:25.775Z</time></trkpt><trkpt lat="42.6476111" lon="11.9781299"><ele>313.0</ele><time>2026-04-19T13:14:26.774Z</time></trkpt><trkpt lat="42.6475644" lon="11.9783188"><ele>313.0</ele><time>2026-04-19T13:14:27.774Z</time></trkpt><trkpt lat="42.6475166" lon="11.978511"><ele>313.0</ele><time>2026-04-19T13:14:28.773Z</time></trkpt><trkpt lat="42.6474696" lon="11.9787047"><ele>313.3333333333333</ele><time>2026-04-19T13:14:29.775Z</time></trkpt><trkpt lat="42.6474181" lon="11.9788973"><ele>313.6666666666667</ele><time>2026-04-19T13:14:30.774Z</time></trkpt><trkpt lat="42.6473667" lon="11.9790937"><ele>314.0</ele><time>2026-04-19T13:14:31.774Z</time></trkpt><trkpt lat="42.647316" lon="11.9792872"><ele>315.6666666666667</ele><time>2026-04-19T13:14:32.775Z</time></trkpt><trkpt lat="42.6472649" lon="11.9794841"><ele>317.3333333333333</ele><time>2026-04-19T13:14:33.774Z</time></trkpt><trkpt lat="42.6472153" lon="11.9796821"><ele>319.0</ele><time>2026-04-19T13:14:34.775Z</time></trkpt><trkpt lat="42.6471657" lon="11.9798783"><ele>319.5</ele><time>2026-04-19T13:14:35.774Z</time></trkpt><trkpt lat="42.6471139" lon="11.9800719"><ele>320.0</ele><time>2026-04-19T13:14:36.774Z</time></trkpt><trkpt lat="42.6470613" lon="11.9802606"><ele>320.5</ele><time>2026-04-19T13:14:37.773Z</time></trkpt><trkpt lat="42.6470158" lon="11.9804496"><ele>321.0</ele><time>2026-04-19T13:14:38.774Z</time></trkpt><trkpt lat="42.6469735" lon="11.9806224"><ele>320.0</ele><time>2026-04-19T13:14:39.774Z</time></trkpt><trkpt lat="42.6469306" lon="11.9807931"><ele>319.0</ele><time>2026-04-19T13:14:40.775Z</time></trkpt><trkpt lat="42.6468906" lon="11.9809542"><ele>318.0</ele><time>2026-04-19T13:14:41.775Z</time></trkpt><trkpt lat="42.6468489" lon="11.981108"><ele>317.0</ele><time>2026-04-19T13:14:42.773Z</time></trkpt><trkpt lat="42.6468088" lon="11.9812689"><ele>317.0</ele><time>2026-04-19T13:14:43.774Z</time></trkpt><trkpt lat="42.6467669" lon="11.9814316"><ele>317.0</ele><time>2026-04-19T13:14:44.774Z</time></trkpt><trkpt lat="42.6467211" lon="11.9815964"><ele>317.0</ele><time>2026-04-19T13:14:45.775Z</time></trkpt><trkpt lat="42.6466768" lon="11.9817672"><ele>317.0</ele><time>2026-04-19T13:14:46.775Z</time></trkpt><trkpt lat="42.6466314" lon="11.9819348"><ele>317.75</ele><time>2026-04-19T13:14:47.773Z</time></trkpt><trkpt lat="42.6465841" lon="11.9821062"><ele>318.5</ele><time>2026-04-19T13:14:48.774Z</time></trkpt><trkpt lat="42.6465322" lon="11.9822767"><ele>319.25</ele><time>2026-04-19T13:14:49.775Z</time></trkpt><trkpt lat="42.6464747" lon="11.9824452"><ele>320.0</ele><time>2026-04-19T13:14:50.774Z</time></trkpt><trkpt lat="42.6464169" lon="11.9826125"><ele>320.25</ele><time>2026-04-19T13:14:51.774Z</time></trkpt><trkpt lat="42.6463444" lon="11.9827752"><ele>320.5</ele><time>2026-04-19T13:14:52.775Z</time></trkpt><trkpt lat="42.6462571" lon="11.9829247"><ele>320.75</ele><time>2026-04-19T13:14:53.775Z</time></trkpt><trkpt lat="42.6461588" lon="11.9830686"><ele>321.0</ele><time>2026-04-19T13:14:54.774Z</time></trkpt><trkpt lat="42.646058" lon="11.9832137"><ele>320.75</ele><time>2026-04-19T13:14:55.775Z</time></trkpt><trkpt lat="42.6459539" lon="11.9833603"><ele>320.5</ele><time>2026-04-19T13:14:56.774Z</time></trkpt><trkpt lat="42.645853" lon="11.9835003"><ele>320.25</ele><time>2026-04-19T13:14:57.775Z</time></trkpt><trkpt lat="42.6457537" lon="11.9836384"><ele>320.0</ele><time>2026-04-19T13:14:58.774Z</time></trkpt><trkpt lat="42.6456652" lon="11.9837747"><ele>320.0</ele><time>2026-04-19T13:14:59.774Z</time></trkpt><trkpt lat="42.645577" lon="11.9839019"><ele>320.0</ele><time>2026-04-19T13:15:00.774Z</time></trkpt><trkpt lat="42.6454872" lon="11.9840274"><ele>320.0</ele><time>2026-04-19T13:15:01.774Z</time></trkpt><trkpt lat="42.6453991" lon="11.9841513"><ele>320.0</ele><time>2026-04-19T13:15:02.774Z</time></trkpt><trkpt lat="42.6453068" lon="11.9842818"><ele>319.25</ele><time>2026-04-19T13:15:03.775Z</time></trkpt><trkpt lat="42.6452224" lon="11.9844327"><ele>318.5</ele><time>2026-04-19T13:15:04.775Z</time></trkpt><trkpt lat="42.6451534" lon="11.9845811"><ele>317.75</ele><time>2026-04-19T13:15:05.774Z</time></trkpt><trkpt lat="42.645085" lon="11.9847261"><ele>317.0</ele><time>2026-04-19T13:15:06.774Z</time></trkpt><trkpt lat="42.6450159" lon="11.9848573"><ele>317.0</ele><time>2026-04-19T13:15:07.773Z</time></trkpt><trkpt lat="42.6449448" lon="11.9849743"><ele>317.0</ele><time>2026-04-19T13:15:08.775Z</time></trkpt><trkpt lat="42.6448679" lon="11.9850765"><ele>317.0</ele><time>2026-04-19T13:15:09.774Z</time></trkpt><trkpt lat="42.6447952" lon="11.985169"><ele>317.0</ele><time>2026-04-19T13:15:10.774Z</time></trkpt><trkpt lat="42.6447274" lon="11.98526"><ele>317.0</ele><time>2026-04-19T13:15:11.774Z</time></trkpt><trkpt lat="42.644669" lon="11.9853258"><ele>317.1666666666667</ele><time>2026-04-19T13:15:12.773Z</time></trkpt><trkpt lat="42.6446214" lon="11.9853832"><ele>317.33333333333337</ele><time>2026-04-19T13:15:13.774Z</time></trkpt><trkpt lat="42.6445357" lon="11.9855127"><ele>317.5</ele><time>2026-04-19T13:15:15.774Z</time></trkpt><trkpt lat="42.6444914" lon="11.9855813"><ele>317.6666666666667</ele><time>2026-04-19T13:15:16.774Z</time></trkpt><trkpt lat="42.6444356" lon="11.9856873"><ele>317.8333333333333</ele><time>2026-04-19T13:15:18.775Z</time></trkpt><trkpt lat="42.6443948" lon="11.9857838"><ele>318.0</ele><time>2026-04-19T13:15:20.774Z</time></trkpt><trkpt lat="42.6443489" lon="11.9858996"><ele>318.4</ele><time>2026-04-19T13:15:22.774Z</time></trkpt><trkpt lat="42.6443194" lon="11.9859885"><ele>318.8</ele><time>2026-04-19T13:15:24.773Z</time></trkpt><trkpt lat="42.6442959" lon="11.9860934"><ele>319.2</ele><time>2026-04-19T13:15:27.773Z</time></trkpt><trkpt lat="42.6442823" lon="11.9861935"><ele>319.6</ele><time>2026-04-19T13:15:39.774Z</time></trkpt><trkpt lat="42.6442744" lon="11.9863047"><ele>320.0</ele><time>2026-04-19T13:15:41.775Z</time></trkpt><trkpt lat="42.6441882" lon="11.9864821"><ele>320.0</ele><time>2026-04-19T13:15:43.775Z</time></trkpt><trkpt lat="42.6441025" lon="11.9865942"><ele>320.0</ele><time>2026-04-19T13:15:44.775Z</time></trkpt><trkpt lat="42.6439992" lon="11.9867183"><ele>320.0</ele><time>2026-04-19T13:15:45.775Z</time></trkpt><trkpt lat="42.6438895" lon="11.9868357"><ele>320.0</ele><time>2026-04-19T13:15:46.774Z</time></trkpt><trkpt lat="42.6437758" lon="11.9869533"><ele>319.5</ele><time>2026-04-19T13:15:47.773Z</time></trkpt><trkpt lat="42.6436566" lon="11.9870691"><ele>319.0</ele><time>2026-04-19T13:15:48.775Z</time></trkpt><trkpt lat="42.6435407" lon="11.9871824"><ele>318.5</ele><time>2026-04-19T13:15:49.774Z</time></trkpt><trkpt lat="42.6434386" lon="11.98729"><ele>318.0</ele><time>2026-04-19T13:15:50.773Z</time></trkpt><trkpt lat="42.6433374" lon="11.9873873"><ele>318.0</ele><time>2026-04-19T13:15:51.774Z</time></trkpt><trkpt lat="42.6432399" lon="11.9874934"><ele>318.0</ele><time>2026-04-19T13:15:52.773Z</time></trkpt><trkpt lat="42.6431456" lon="11.9875919"><ele>318.0</ele><time>2026-04-19T13:15:53.774Z</time></trkpt><trkpt lat="42.6430514" lon="11.9876909"><ele>318.0</ele><time>2026-04-19T13:15:54.774Z</time></trkpt><trkpt lat="42.6429458" lon="11.9877979"><ele>318.75</ele><time>2026-04-19T13:15:55.774Z</time></trkpt><trkpt lat="42.6428366" lon="11.9879033"><ele>319.5</ele><time>2026-04-19T13:15:56.774Z</time></trkpt><trkpt lat="42.6427373" lon="11.9880121"><ele>320.25</ele><time>2026-04-19T13:15:57.775Z</time></trkpt><trkpt lat="42.6426453" lon="11.9881114"><ele>321.0</ele><time>2026-04-19T13:15:58.774Z</time></trkpt><trkpt lat="42.6425577" lon="11.9881988"><ele>320.6</ele><time>2026-04-19T13:15:59.775Z</time></trkpt><trkpt lat="42.6424682" lon="11.9882798"><ele>320.20000000000005</ele><time>2026-04-19T13:16:00.774Z</time></trkpt><trkpt lat="42.6423891" lon="11.9883483"><ele>319.79999999999995</ele><time>2026-04-19T13:16:01.775Z</time></trkpt><trkpt lat="42.6423236" lon="11.9883975"><ele>319.4</ele><time>2026-04-19T13:16:02.773Z</time></trkpt><trkpt lat="42.6422077" lon="11.988437"><ele>319.0</ele><time>2026-04-19T13:16:04.773Z</time></trkpt><trkpt lat="42.6421052" lon="11.9884149"><ele>319.0</ele><time>2026-04-19T13:16:06.775Z</time></trkpt><trkpt lat="42.6420328" lon="11.9884313"><ele>319.0</ele><time>2026-04-19T13:16:08.774Z</time></trkpt><trkpt lat="42.6420463" lon="11.9885293"><ele>319.0</ele><time>2026-04-19T13:16:51.774Z</time></trkpt><trkpt lat="42.6420582" lon="11.9886174"><ele>319.0</ele><time>2026-04-19T13:16:58.774Z</time></trkpt><trkpt lat="42.6420314" lon="11.9885358"><ele>319.0</ele><time>2026-04-19T13:18:13.774Z</time></trkpt><trkpt lat="42.6420266" lon="11.9884473"><ele>319.0</ele><time>2026-04-19T13:18:17.774Z</time></trkpt><trkpt lat="42.6419683" lon="11.988562"><ele>319.0</ele><time>2026-04-19T13:20:58.773Z</time></trkpt><trkpt lat="42.641976" lon="11.9887002"><ele>319.0</ele><time>2026-04-19T13:21:00.775Z</time></trkpt><trkpt lat="42.6420054" lon="11.9887977"><ele>319.0</ele><time>2026-04-19T13:21:03.775Z</time></trkpt><trkpt lat="42.6419597" lon="11.9889591"><ele>319.0</ele><time>2026-04-19T13:21:05.775Z</time></trkpt><trkpt lat="42.6418975" lon="11.9890647"><ele>319.0</ele><time>2026-04-19T13:21:06.775Z</time></trkpt><trkpt lat="42.6418277" lon="11.9891842"><ele>319.0</ele><time>2026-04-19T13:21:07.774Z</time></trkpt><trkpt lat="42.6417532" lon="11.9893089"><ele>319.25</ele><time>2026-04-19T13:21:08.775Z</time></trkpt><trkpt lat="42.6416791" lon="11.9894422"><ele>319.5</ele><time>2026-04-19T13:21:09.774Z</time></trkpt><trkpt lat="42.6416008" lon="11.9895778"><ele>319.75</ele><time>2026-04-19T13:21:10.774Z</time></trkpt><trkpt lat="42.641522" lon="11.9897162"><ele>320.0</ele><time>2026-04-19T13:21:11.774Z</time></trkpt><trkpt lat="42.6414503" lon="11.9898305"><ele>320.0</ele><time>2026-04-19T13:21:12.775Z</time></trkpt><trkpt lat="42.6413629" lon="11.9899637"><ele>320.0</ele><time>2026-04-19T13:21:13.775Z</time></trkpt><trkpt lat="42.6412735" lon="11.9901165"><ele>320.0</ele><time>2026-04-19T13:21:14.775Z</time></trkpt><trkpt lat="42.6411741" lon="11.9902564"><ele>320.0</ele><time>2026-04-19T13:21:15.775Z</time></trkpt><trkpt lat="42.6410761" lon="11.9903771"><ele>320.0</ele><time>2026-04-19T13:21:16.775Z</time></trkpt><trkpt lat="42.6409648" lon="11.9904974"><ele>320.0</ele><time>2026-04-19T13:21:17.774Z</time></trkpt><trkpt lat="42.6408417" lon="11.9905954"><ele>320.0</ele><time>2026-04-19T13:21:18.775Z</time></trkpt><trkpt lat="42.6407103" lon="11.9907062"><ele>320.0</ele><time>2026-04-19T13:21:19.774Z</time></trkpt><trkpt lat="42.6405768" lon="11.9908131"><ele>320.0</ele><time>2026-04-19T13:21:20.774Z</time></trkpt><trkpt lat="42.640432" lon="11.9909237"><ele>320.0</ele><time>2026-04-19T13:21:21.774Z</time></trkpt><trkpt lat="42.6402914" lon="11.991033"><ele>320.0</ele><time>2026-04-19T13:21:22.774Z</time></trkpt><trkpt lat="42.640157" lon="11.9911446"><ele>320.0</ele><time>2026-04-19T13:21:23.774Z</time></trkpt><trkpt lat="42.6400314" lon="11.9912503"><ele>320.0</ele><time>2026-04-19T13:21:24.775Z</time></trkpt><trkpt lat="42.6399112" lon="11.9913537"><ele>320.0</ele><time>2026-04-19T13:21:25.773Z</time></trkpt><trkpt lat="42.6397963" lon="11.9914569"><ele>320.0</ele><time>2026-04-19T13:21:26.774Z</time></trkpt><trkpt lat="42.6396756" lon="11.9915729"><ele>320.33333333333337</ele><time>2026-04-19T13:21:27.774Z</time></trkpt><trkpt lat="42.6395551" lon="11.991703"><ele>320.6666666666667</ele><time>2026-04-19T13:21:28.774Z</time></trkpt><trkpt lat="42.6394324" lon="11.9918442"><ele>321.0</ele><time>2026-04-19T13:21:29.773Z</time></trkpt><trkpt lat="42.6393072" lon="11.9919888"><ele>321.6666666666667</ele><time>2026-04-19T13:21:30.774Z</time></trkpt><trkpt lat="42.6391831" lon="11.9921367"><ele>322.33333333333337</ele><time>2026-04-19T13:21:31.775Z</time></trkpt><trkpt lat="42.6390611" lon="11.9922877"><ele>323.0</ele><time>2026-04-19T13:21:32.774Z</time></trkpt><trkpt lat="42.6389399" lon="11.9924407"><ele>321.6666666666667</ele><time>2026-04-19T13:21:33.773Z</time></trkpt><trkpt lat="42.6388185" lon="11.9925934"><ele>320.3333333333333</ele><time>2026-04-19T13:21:34.775Z</time></trkpt><trkpt lat="42.6386922" lon="11.9927461"><ele>319.0</ele><time>2026-04-19T13:21:35.774Z</time></trkpt><trkpt lat="42.6385609" lon="11.9929006"><ele>319.0</ele><time>2026-04-19T13:21:36.774Z</time></trkpt><trkpt lat="42.6384195" lon="11.9930396"><ele>319.0</ele><time>2026-04-19T13:21:37.775Z</time></trkpt><trkpt lat="42.6382719" lon="11.9931679"><ele>319.0</ele><time>2026-04-19T13:21:38.775Z</time></trkpt><trkpt lat="42.6381183" lon="11.9932823"><ele>318.3333333333333</ele><time>2026-04-19T13:21:39.773Z</time></trkpt><trkpt lat="42.6379665" lon="11.9934017"><ele>317.6666666666667</ele><time>2026-04-19T13:21:40.774Z</time></trkpt><trkpt lat="42.6378182" lon="11.9935275"><ele>317.0</ele><time>2026-04-19T13:21:41.774Z</time></trkpt><trkpt lat="42.6376715" lon="11.9936558"><ele>317.0</ele><time>2026-04-19T13:21:42.774Z</time></trkpt><trkpt lat="42.6375207" lon="11.9937888"><ele>317.0</ele><time>2026-04-19T13:21:43.775Z</time></trkpt><trkpt lat="42.6373709" lon="11.9939165"><ele>317.0</ele><time>2026-04-19T13:21:44.774Z</time></trkpt><trkpt lat="42.6372236" lon="11.994047"><ele>317.0</ele><time>2026-04-19T13:21:45.774Z</time></trkpt><trkpt lat="42.6370842" lon="11.9941703"><ele>317.0</ele><time>2026-04-19T13:21:46.775Z</time></trkpt><trkpt lat="42.6369486" lon="11.994287"><ele>317.0</ele><time>2026-04-19T13:21:47.775Z</time></trkpt><trkpt lat="42.6368161" lon="11.9943933"><ele>317.6666666666667</ele><time>2026-04-19T13:21:48.774Z</time></trkpt><trkpt lat="42.6366855" lon="11.9944896"><ele>318.3333333333333</ele><time>2026-04-19T13:21:49.774Z</time></trkpt><trkpt lat="42.6365484" lon="11.9945776"><ele>319.0</ele><time>2026-04-19T13:21:50.773Z</time></trkpt><trkpt lat="42.6364037" lon="11.9946542"><ele>319.0</ele><time>2026-04-19T13:21:51.775Z</time></trkpt><trkpt lat="42.6362522" lon="11.9947236"><ele>319.0</ele><time>2026-04-19T13:21:52.774Z</time></trkpt><trkpt lat="42.6360948" lon="11.9947848"><ele>319.0</ele><time>2026-04-19T13:21:53.775Z</time></trkpt><trkpt lat="42.6359315" lon="11.9948433"><ele>317.3333333333333</ele><time>2026-04-19T13:21:54.774Z</time></trkpt><trkpt lat="42.6357636" lon="11.9948984"><ele>315.6666666666667</ele><time>2026-04-19T13:21:55.775Z</time></trkpt><trkpt lat="42.6355957" lon="11.9949463"><ele>314.0</ele><time>2026-04-19T13:21:56.774Z</time></trkpt><trkpt lat="42.6354259" lon="11.9949914"><ele>316.33333333333337</ele><time>2026-04-19T13:21:57.774Z</time></trkpt><trkpt lat="42.6352568" lon="11.9950411"><ele>318.6666666666667</ele><time>2026-04-19T13:21:58.775Z</time></trkpt><trkpt lat="42.6350891" lon="11.9950938"><ele>321.0</ele><time>2026-04-19T13:21:59.774Z</time></trkpt><trkpt lat="42.6349234" lon="11.9951511"><ele>321.0</ele><time>2026-04-19T13:22:00.775Z</time></trkpt><trkpt lat="42.6347665" lon="11.995212"><ele>321.0</ele><time>2026-04-19T13:22:01.775Z</time></trkpt><trkpt lat="42.634618" lon="11.9952822"><ele>321.0</ele><time>2026-04-19T13:22:02.773Z</time></trkpt><trkpt lat="42.6344824" lon="11.9953661"><ele>320.0</ele><time>2026-04-19T13:22:03.775Z</time></trkpt><trkpt lat="42.6343485" lon="11.9954586"><ele>319.0</ele><time>2026-04-19T13:22:04.774Z</time></trkpt><trkpt lat="42.6342145" lon="11.9955674"><ele>318.0</ele><time>2026-04-19T13:22:05.775Z</time></trkpt><trkpt lat="42.634075" lon="11.9956818"><ele>318.0</ele><time>2026-04-19T13:22:06.774Z</time></trkpt><trkpt lat="42.6339321" lon="11.9958031"><ele>318.0</ele><time>2026-04-19T13:22:07.774Z</time></trkpt><trkpt lat="42.6337853" lon="11.9959293"><ele>318.0</ele><time>2026-04-19T13:22:08.774Z</time></trkpt><trkpt lat="42.6336402" lon="11.9960646"><ele>322.0</ele><time>2026-04-19T13:22:09.775Z</time></trkpt><trkpt lat="42.6334932" lon="11.9961986"><ele>326.0</ele><time>2026-04-19T13:22:10.774Z</time></trkpt><trkpt lat="42.6333464" lon="11.9963344"><ele>330.0</ele><time>2026-04-19T13:22:11.774Z</time></trkpt><trkpt lat="42.6331992" lon="11.9964677"><ele>330.0</ele><time>2026-04-19T13:22:12.774Z</time></trkpt><trkpt lat="42.6330518" lon="11.9965981"><ele>330.0</ele><time>2026-04-19T13:22:13.774Z</time></trkpt><trkpt lat="42.6329093" lon="11.9967107"><ele>330.0</ele><time>2026-04-19T13:22:14.774Z</time></trkpt><trkpt lat="42.6327734" lon="11.9968098"><ele>332.5</ele><time>2026-04-19T13:22:15.775Z</time></trkpt><trkpt lat="42.6326399" lon="11.9969036"><ele>335.0</ele><time>2026-04-19T13:22:16.775Z</time></trkpt><trkpt lat="42.6325094" lon="11.9969917"><ele>337.5</ele><time>2026-04-19T13:22:17.774Z</time></trkpt><trkpt lat="42.6323745" lon="11.9970819"><ele>340.0</ele><time>2026-04-19T13:22:18.775Z</time></trkpt><trkpt lat="42.6322337" lon="11.9971702"><ele>340.0</ele><time>2026-04-19T13:22:19.774Z</time></trkpt><trkpt lat="42.632086" lon="11.9972633"><ele>340.0</ele><time>2026-04-19T13:22:20.774Z</time></trkpt><trkpt lat="42.6319386" lon="11.9973579"><ele>340.0</ele><time>2026-04-19T13:22:21.774Z</time></trkpt><trkpt lat="42.6317655" lon="11.9974715"><ele>344.0</ele><time>2026-04-19T13:22:22.773Z</time></trkpt><trkpt lat="42.6315743" lon="11.9975901"><ele>348.0</ele><time>2026-04-19T13:22:23.775Z</time></trkpt><trkpt lat="42.6313739" lon="11.9977161"><ele>352.0</ele><time>2026-04-19T13:22:24.774Z</time></trkpt><trkpt lat="42.6311517" lon="11.9978357"><ele>345.5</ele><time>2026-04-19T13:22:25.774Z</time></trkpt><trkpt lat="42.6309354" lon="11.9979435"><ele>339.0</ele><time>2026-04-19T13:22:26.775Z</time></trkpt><trkpt lat="42.6307161" lon="11.9980403"><ele>339.0</ele><time>2026-04-19T13:22:27.775Z</time></trkpt><trkpt lat="42.6304936" lon="11.9981222"><ele>339.0</ele><time>2026-04-19T13:22:28.774Z</time></trkpt><trkpt lat="42.6302674" lon="11.998194"><ele>332.5</ele><time>2026-04-19T13:22:29.775Z</time></trkpt><trkpt lat="42.6300388" lon="11.9982558"><ele>326.0</ele><time>2026-04-19T13:22:30.773Z</time></trkpt><trkpt lat="42.6297941" lon="11.998291"><ele>326.0</ele><time>2026-04-19T13:22:31.773Z</time></trkpt><trkpt lat="42.6295498" lon="11.9983144"><ele>326.0</ele><time>2026-04-19T13:22:32.775Z</time></trkpt><trkpt lat="42.6293106" lon="11.9983296"><ele>333.5</ele><time>2026-04-19T13:22:33.774Z</time></trkpt><trkpt lat="42.6290708" lon="11.998377"><ele>341.0</ele><time>2026-04-19T13:22:34.775Z</time></trkpt><trkpt lat="42.6288329" lon="11.9984324"><ele>338.33333333333337</ele><time>2026-04-19T13:22:35.773Z</time></trkpt><trkpt lat="42.6286164" lon="11.9985007"><ele>335.6666666666667</ele><time>2026-04-19T13:22:36.774Z</time></trkpt><trkpt lat="42.6284004" lon="11.9985767"><ele>333.0</ele><time>2026-04-19T13:22:37.773Z</time></trkpt><trkpt lat="42.6281882" lon="11.9986707"><ele>333.0</ele><time>2026-04-19T13:22:38.775Z</time></trkpt><trkpt lat="42.6279752" lon="11.9987579"><ele>333.0</ele><time>2026-04-19T13:22:39.775Z</time></trkpt><trkpt lat="42.6277671" lon="11.9988555"><ele>333.0</ele><time>2026-04-19T13:22:40.773Z</time></trkpt><trkpt lat="42.6275539" lon="11.9989397"><ele>331.0</ele><time>2026-04-19T13:22:41.775Z</time></trkpt><trkpt lat="42.6273434" lon="11.9990215"><ele>329.0</ele><time>2026-04-19T13:22:42.774Z</time></trkpt><trkpt lat="42.6271409" lon="11.9990965"><ele>327.0</ele><time>2026-04-19T13:22:43.774Z</time></trkpt><trkpt lat="42.6269548" lon="11.99917"><ele>335.6666666666667</ele><time>2026-04-19T13:22:44.773Z</time></trkpt><trkpt lat="42.6267759" lon="11.9992323"><ele>344.33333333333337</ele><time>2026-04-19T13:22:45.774Z</time></trkpt><trkpt lat="42.6265995" lon="11.9992803"><ele>353.0</ele><time>2026-04-19T13:22:46.775Z</time></trkpt><trkpt lat="42.6264319" lon="11.9993098"><ele>353.0</ele><time>2026-04-19T13:22:47.775Z</time></trkpt><trkpt lat="42.6262537" lon="11.9993339"><ele>353.0</ele><time>2026-04-19T13:22:48.774Z</time></trkpt><trkpt lat="42.6260698" lon="11.9993481"><ele>353.0</ele><time>2026-04-19T13:22:49.774Z</time></trkpt><trkpt lat="42.6258768" lon="11.9993562"><ele>349.6666666666667</ele><time>2026-04-19T13:22:50.774Z</time></trkpt><trkpt lat="42.6256798" lon="11.9993639"><ele>346.3333333333333</ele><time>2026-04-19T13:22:51.774Z</time></trkpt><trkpt lat="42.6254784" lon="11.9993735"><ele>343.0</ele><time>2026-04-19T13:22:52.774Z</time></trkpt><trkpt lat="42.6252661" lon="11.9993823"><ele>339.0</ele><time>2026-04-19T13:22:53.775Z</time></trkpt><trkpt lat="42.6250477" lon="11.9993939"><ele>335.0</ele><time>2026-04-19T13:22:54.774Z</time></trkpt><trkpt lat="42.6248238" lon="11.9994026"><ele>331.0</ele><time>2026-04-19T13:22:55.774Z</time></trkpt><trkpt lat="42.6246055" lon="11.9994051"><ele>329.0</ele><time>2026-04-19T13:22:56.774Z</time></trkpt><trkpt lat="42.6243997" lon="11.9994131"><ele>327.0</ele><time>2026-04-19T13:22:57.774Z</time></trkpt><trkpt lat="42.6242036" lon="11.99942"><ele>325.0</ele><time>2026-04-19T13:22:58.775Z</time></trkpt><trkpt lat="42.6240358" lon="11.9994186"><ele>325.0</ele><time>2026-04-19T13:22:59.774Z</time></trkpt><trkpt lat="42.6238848" lon="11.9994025"><ele>325.0</ele><time>2026-04-19T13:23:00.775Z</time></trkpt><trkpt lat="42.623746" lon="11.999379"><ele>325.0</ele><time>2026-04-19T13:23:01.775Z</time></trkpt><trkpt lat="42.6236097" lon="11.9993543"><ele>325.0</ele><time>2026-04-19T13:23:02.774Z</time></trkpt><trkpt lat="42.6234711" lon="11.9993079"><ele>325.3333333333333</ele><time>2026-04-19T13:23:03.775Z</time></trkpt><trkpt lat="42.6233369" lon="11.9992377"><ele>325.6666666666667</ele><time>2026-04-19T13:23:04.773Z</time></trkpt><trkpt lat="42.6232099" lon="11.9991396"><ele>326.0</ele><time>2026-04-19T13:23:05.773Z</time></trkpt><trkpt lat="42.6230685" lon="11.9990114"><ele>324.33333333333337</ele><time>2026-04-19T13:23:06.775Z</time></trkpt><trkpt lat="42.6229375" lon="11.9988476"><ele>322.6666666666667</ele><time>2026-04-19T13:23:07.775Z</time></trkpt><trkpt lat="42.6228153" lon="11.9986785"><ele>321.0</ele><time>2026-04-19T13:23:08.774Z</time></trkpt><trkpt lat="42.6226932" lon="11.9985185"><ele>321.0</ele><time>2026-04-19T13:23:09.775Z</time></trkpt><trkpt lat="42.622554" lon="11.9983865"><ele>321.0</ele><time>2026-04-19T13:23:10.775Z</time></trkpt><trkpt lat="42.6223852" lon="11.9983065"><ele>321.0</ele><time>2026-04-19T13:23:11.774Z</time></trkpt><trkpt lat="42.622193" lon="11.9982577"><ele>319.5</ele><time>2026-04-19T13:23:12.774Z</time></trkpt><trkpt lat="42.6219811" lon="11.9982341"><ele>318.0</ele><time>2026-04-19T13:23:13.775Z</time></trkpt><trkpt lat="42.6215126" lon="11.9981824"><ele>318.0</ele><time>2026-04-19T13:23:15.775Z</time></trkpt><trkpt lat="42.6212656" lon="11.9981593"><ele>318.0</ele><time>2026-04-19T13:23:16.775Z</time></trkpt><trkpt lat="42.6210193" lon="11.9981363"><ele>318.5</ele><time>2026-04-19T13:23:17.774Z</time></trkpt><trkpt lat="42.6207882" lon="11.9981197"><ele>319.0</ele><time>2026-04-19T13:23:18.775Z</time></trkpt><trkpt lat="42.6205707" lon="11.998096"><ele>319.0</ele><time>2026-04-19T13:23:19.775Z</time></trkpt><trkpt lat="42.6203644" lon="11.9980736"><ele>319.0</ele><time>2026-04-19T13:23:20.774Z</time></trkpt><trkpt lat="42.6201573" lon="11.9980412"><ele>319.0</ele><time>2026-04-19T13:23:21.774Z</time></trkpt><trkpt lat="42.6199782" lon="11.9979622"><ele>320.3333333333333</ele><time>2026-04-19T13:23:22.774Z</time></trkpt><trkpt lat="42.6197957" lon="11.9978451"><ele>321.6666666666667</ele><time>2026-04-19T13:23:23.774Z</time></trkpt><trkpt lat="42.6196205" lon="11.9976916"><ele>323.0</ele><time>2026-04-19T13:23:24.773Z</time></trkpt><trkpt lat="42.619444" lon="11.9975388"><ele>320.6666666666667</ele><time>2026-04-19T13:23:25.773Z</time></trkpt><trkpt lat="42.6192645" lon="11.9973948"><ele>318.3333333333333</ele><time>2026-04-19T13:23:26.774Z</time></trkpt><trkpt lat="42.6190718" lon="11.9972759"><ele>316.0</ele><time>2026-04-19T13:23:27.773Z</time></trkpt><trkpt lat="42.6188645" lon="11.9971757"><ele>316.0</ele><time>2026-04-19T13:23:28.772Z</time></trkpt><trkpt lat="42.6186274" lon="11.9971346"><ele>316.0</ele><time>2026-04-19T13:23:29.773Z</time></trkpt><trkpt lat="42.6183979" lon="11.9970639"><ele>316.0</ele><time>2026-04-19T13:23:30.774Z</time></trkpt><trkpt lat="42.6181655" lon="11.9969976"><ele>316.0</ele><time>2026-04-19T13:23:31.774Z</time></trkpt><trkpt lat="42.6179305" lon="11.9969309"><ele>316.5</ele><time>2026-04-19T13:23:32.773Z</time></trkpt><trkpt lat="42.6176976" lon="11.9968692"><ele>317.0</ele><time>2026-04-19T13:23:33.773Z</time></trkpt><trkpt lat="42.6174732" lon="11.9968168"><ele>317.0</ele><time>2026-04-19T13:23:34.773Z</time></trkpt><trkpt lat="42.6172567" lon="11.9967647"><ele>317.0</ele><time>2026-04-19T13:23:35.773Z</time></trkpt><trkpt lat="42.6170513" lon="11.9967071"><ele>317.0</ele><time>2026-04-19T13:23:36.773Z</time></trkpt><trkpt lat="42.6168604" lon="11.9966356"><ele>315.6666666666667</ele><time>2026-04-19T13:23:37.773Z</time></trkpt><trkpt lat="42.6166758" lon="11.9965443"><ele>314.3333333333333</ele><time>2026-04-19T13:23:38.774Z</time></trkpt><trkpt lat="42.6164983" lon="11.9964327"><ele>313.0</ele><time>2026-04-19T13:23:39.772Z</time></trkpt><trkpt lat="42.6163283" lon="11.9963138"><ele>313.0</ele><time>2026-04-19T13:23:40.772Z</time></trkpt><trkpt lat="42.616164" lon="11.9961947"><ele>313.0</ele><time>2026-04-19T13:23:41.772Z</time></trkpt><trkpt lat="42.616015" lon="11.9960672"><ele>313.0</ele><time>2026-04-19T13:23:42.773Z</time></trkpt><trkpt lat="42.6158811" lon="11.9959608"><ele>312.5</ele><time>2026-04-19T13:23:43.773Z</time></trkpt><trkpt lat="42.6157446" lon="11.9958595"><ele>312.0</ele><time>2026-04-19T13:23:44.772Z</time></trkpt><trkpt lat="42.6156329" lon="11.9958281"><ele>311.5</ele><time>2026-04-19T13:23:45.773Z</time></trkpt><trkpt lat="42.6154739" lon="11.9959422"><ele>311.0</ele><time>2026-04-19T13:23:46.772Z</time></trkpt><trkpt lat="42.6153458" lon="11.9959763"><ele>312.33333333333337</ele><time>2026-04-19T13:23:47.772Z</time></trkpt><trkpt lat="42.6152362" lon="11.9961604"><ele>313.6666666666667</ele><time>2026-04-19T13:23:48.773Z</time></trkpt><trkpt lat="42.6150997" lon="11.9963152"><ele>315.0</ele><time>2026-04-19T13:23:49.773Z</time></trkpt><trkpt lat="42.614963" lon="11.9964676"><ele>315.0</ele><time>2026-04-19T13:23:50.773Z</time></trkpt><trkpt lat="42.6148138" lon="11.9966119"><ele>315.0</ele><time>2026-04-19T13:23:51.773Z</time></trkpt><trkpt lat="42.6146525" lon="11.9967447"><ele>315.0</ele><time>2026-04-19T13:23:52.771Z</time></trkpt><trkpt lat="42.6144767" lon="11.9968742"><ele>317.6666666666667</ele><time>2026-04-19T13:23:53.772Z</time></trkpt><trkpt lat="42.6142892" lon="11.9969912"><ele>320.33333333333337</ele><time>2026-04-19T13:23:54.773Z</time></trkpt><trkpt lat="42.6140938" lon="11.9971124"><ele>323.0</ele><time>2026-04-19T13:23:55.772Z</time></trkpt><trkpt lat="42.6138953" lon="11.9972293"><ele>323.0</ele><time>2026-04-19T13:23:56.772Z</time></trkpt><trkpt lat="42.6136879" lon="11.9973379"><ele>323.0</ele><time>2026-04-19T13:23:57.772Z</time></trkpt><trkpt lat="42.6134758" lon="11.9974308"><ele>323.0</ele><time>2026-04-19T13:23:58.773Z</time></trkpt><trkpt lat="42.6132622" lon="11.9974966"><ele>328.6666666666667</ele><time>2026-04-19T13:23:59.772Z</time></trkpt><trkpt lat="42.6130521" lon="11.9975531"><ele>334.3333333333333</ele><time>2026-04-19T13:24:00.772Z</time></trkpt><trkpt lat="42.6128432" lon="11.9975835"><ele>340.0</ele><time>2026-04-19T13:24:01.773Z</time></trkpt><trkpt lat="42.6126358" lon="11.997583"><ele>340.3333333333333</ele><time>2026-04-19T13:24:02.772Z</time></trkpt><trkpt lat="42.612438" lon="11.9975515"><ele>340.6666666666667</ele><time>2026-04-19T13:24:03.772Z</time></trkpt><trkpt lat="42.6122394" lon="11.9974862"><ele>341.0</ele><time>2026-04-19T13:24:04.773Z</time></trkpt><trkpt lat="42.6120414" lon="11.9973982"><ele>335.0</ele><time>2026-04-19T13:24:05.773Z</time></trkpt><trkpt lat="42.6118427" lon="11.9973022"><ele>329.0</ele><time>2026-04-19T13:24:06.772Z</time></trkpt><trkpt lat="42.6116478" lon="11.9971812"><ele>323.0</ele><time>2026-04-19T13:24:07.771Z</time></trkpt><trkpt lat="42.6114464" lon="11.997077"><ele>327.0</ele><time>2026-04-19T13:24:08.772Z</time></trkpt><trkpt lat="42.6110823" lon="11.9968888"><ele>331.0</ele><time>2026-04-19T13:24:10.772Z</time></trkpt><trkpt lat="42.610906" lon="11.9968228"><ele>331.0</ele><time>2026-04-19T13:24:11.772Z</time></trkpt><trkpt lat="42.6107248" lon="11.9967617"><ele>331.0</ele><time>2026-04-19T13:24:12.773Z</time></trkpt><trkpt lat="42.6105132" lon="11.9968128"><ele>331.0</ele><time>2026-04-19T13:24:13.773Z</time></trkpt><trkpt lat="42.6103028" lon="11.9968135"><ele>332.5</ele><time>2026-04-19T13:24:14.772Z</time></trkpt><trkpt lat="42.6100881" lon="11.9968171"><ele>334.0</ele><time>2026-04-19T13:24:15.773Z</time></trkpt><trkpt lat="42.6096512" lon="11.9968373"><ele>329.66666666666663</ele><time>2026-04-19T13:24:17.772Z</time></trkpt><trkpt lat="42.6094287" lon="11.996835"><ele>325.3333333333333</ele><time>2026-04-19T13:24:18.772Z</time></trkpt><trkpt lat="42.6092083" lon="11.9968268"><ele>321.0</ele><time>2026-04-19T13:24:19.772Z</time></trkpt><trkpt lat="42.6089917" lon="11.9968087"><ele>321.0</ele><time>2026-04-19T13:24:20.773Z</time></trkpt><trkpt lat="42.6087724" lon="11.9967823"><ele>321.0</ele><time>2026-04-19T13:24:21.772Z</time></trkpt><trkpt lat="42.6085529" lon="11.9967552"><ele>321.0</ele><time>2026-04-19T13:24:22.772Z</time></trkpt><trkpt lat="42.6083351" lon="11.9967288"><ele>319.3333333333333</ele><time>2026-04-19T13:24:23.773Z</time></trkpt><trkpt lat="42.6081296" lon="11.9967065"><ele>317.66666666666663</ele><time>2026-04-19T13:24:24.772Z</time></trkpt><trkpt lat="42.6079243" lon="11.9966912"><ele>316.0</ele><time>2026-04-19T13:24:25.773Z</time></trkpt><trkpt lat="42.6077291" lon="11.9966709"><ele>314.66666666666663</ele><time>2026-04-19T13:24:26.773Z</time></trkpt><trkpt lat="42.6075352" lon="11.9966581"><ele>313.3333333333333</ele><time>2026-04-19T13:24:27.773Z</time></trkpt><trkpt lat="42.6073424" lon="11.9966403"><ele>312.0</ele><time>2026-04-19T13:24:28.772Z</time></trkpt><trkpt lat="42.6071525" lon="11.9966235"><ele>312.0</ele><time>2026-04-19T13:24:29.773Z</time></trkpt><trkpt lat="42.6069657" lon="11.9966094"><ele>312.0</ele><time>2026-04-19T13:24:30.771Z</time></trkpt><trkpt lat="42.6067831" lon="11.9965986"><ele>312.0</ele><time>2026-04-19T13:24:31.773Z</time></trkpt><trkpt lat="42.6066077" lon="11.9965857"><ele>312.0</ele><time>2026-04-19T13:24:32.772Z</time></trkpt><trkpt lat="42.6064372" lon="11.9965736"><ele>312.0</ele><time>2026-04-19T13:24:33.772Z</time></trkpt><trkpt lat="42.6062649" lon="11.9965623"><ele>312.0</ele><time>2026-04-19T13:24:34.772Z</time></trkpt><trkpt lat="42.6061022" lon="11.996551"><ele>312.25</ele><time>2026-04-19T13:24:35.772Z</time></trkpt><trkpt lat="42.6059454" lon="11.9965398"><ele>312.5</ele><time>2026-04-19T13:24:36.772Z</time></trkpt><trkpt lat="42.6057993" lon="11.9965247"><ele>312.75</ele><time>2026-04-19T13:24:37.772Z</time></trkpt><trkpt lat="42.6056555" lon="11.9965102"><ele>313.0</ele><time>2026-04-19T13:24:38.771Z</time></trkpt><trkpt lat="42.605512" lon="11.9964979"><ele>313.0</ele><time>2026-04-19T13:24:39.772Z</time></trkpt><trkpt lat="42.6053781" lon="11.9964876"><ele>313.0</ele><time>2026-04-19T13:24:40.773Z</time></trkpt><trkpt lat="42.6052493" lon="11.9964662"><ele>313.0</ele><time>2026-04-19T13:24:41.773Z</time></trkpt><trkpt lat="42.6051235" lon="11.9964468"><ele>313.0</ele><time>2026-04-19T13:24:42.772Z</time></trkpt><trkpt lat="42.6049999" lon="11.9964365"><ele>313.75</ele><time>2026-04-19T13:24:43.773Z</time></trkpt><trkpt lat="42.6048756" lon="11.9964379"><ele>314.5</ele><time>2026-04-19T13:24:44.772Z</time></trkpt><trkpt lat="42.6047624" lon="11.9964506"><ele>315.25</ele><time>2026-04-19T13:24:45.773Z</time></trkpt><trkpt lat="42.6046407" lon="11.9964865"><ele>316.0</ele><time>2026-04-19T13:24:46.772Z</time></trkpt><trkpt lat="42.6045271" lon="11.9965368"><ele>315.3333333333333</ele><time>2026-04-19T13:24:47.772Z</time></trkpt><trkpt lat="42.6043992" lon="11.9966552"><ele>314.6666666666667</ele><time>2026-04-19T13:24:48.773Z</time></trkpt><trkpt lat="42.6042659" lon="11.9967841"><ele>314.0</ele><time>2026-04-19T13:24:49.773Z</time></trkpt><trkpt lat="42.6041229" lon="11.996914"><ele>315.33333333333337</ele><time>2026-04-19T13:24:50.773Z</time></trkpt><trkpt lat="42.6039795" lon="11.9970534"><ele>316.6666666666667</ele><time>2026-04-19T13:24:51.772Z</time></trkpt><trkpt lat="42.6038024" lon="11.9971886"><ele>318.0</ele><time>2026-04-19T13:24:52.773Z</time></trkpt><trkpt lat="42.6036407" lon="11.9973211"><ele>318.6666666666667</ele><time>2026-04-19T13:24:53.773Z</time></trkpt><trkpt lat="42.6034862" lon="11.9974545"><ele>319.33333333333337</ele><time>2026-04-19T13:24:54.772Z</time></trkpt><trkpt lat="42.6033396" lon="11.9975798"><ele>320.0</ele><time>2026-04-19T13:24:55.772Z</time></trkpt><trkpt lat="42.6032028" lon="11.9976969"><ele>322.0</ele><time>2026-04-19T13:24:56.773Z</time></trkpt><trkpt lat="42.6030744" lon="11.997805"><ele>324.0</ele><time>2026-04-19T13:24:57.772Z</time></trkpt><trkpt lat="42.6029494" lon="11.9979031"><ele>326.0</ele><time>2026-04-19T13:24:58.772Z</time></trkpt><trkpt lat="42.6028127" lon="11.9979848"><ele>328.0</ele><time>2026-04-19T13:24:59.771Z</time></trkpt><trkpt lat="42.6026666" lon="11.9980463"><ele>328.0</ele><time>2026-04-19T13:25:00.772Z</time></trkpt><trkpt lat="42.6025108" lon="11.9980982"><ele>328.0</ele><time>2026-04-19T13:25:01.772Z</time></trkpt><trkpt lat="42.6023524" lon="11.9981248"><ele>328.0</ele><time>2026-04-19T13:25:02.772Z</time></trkpt><trkpt lat="42.6021755" lon="11.9981561"><ele>328.3333333333333</ele><time>2026-04-19T13:25:03.773Z</time></trkpt><trkpt lat="42.601951" lon="11.9982011"><ele>328.6666666666667</ele><time>2026-04-19T13:25:04.771Z</time></trkpt><trkpt lat="42.6017375" lon="11.9982372"><ele>329.0</ele><time>2026-04-19T13:25:05.771Z</time></trkpt><trkpt lat="42.6015142" lon="11.9982748"><ele>329.0</ele><time>2026-04-19T13:25:06.772Z</time></trkpt><trkpt lat="42.6012888" lon="11.9983181"><ele>329.0</ele><time>2026-04-19T13:25:07.773Z</time></trkpt><trkpt lat="42.6010565" lon="11.9983691"><ele>334.5</ele><time>2026-04-19T13:25:08.772Z</time></trkpt><trkpt lat="42.6008254" lon="11.9984145"><ele>340.0</ele><time>2026-04-19T13:25:09.771Z</time></trkpt><trkpt lat="42.6006082" lon="11.998458"><ele>340.0</ele><time>2026-04-19T13:25:10.772Z</time></trkpt><trkpt lat="42.6003974" lon="11.998495"><ele>340.0</ele><time>2026-04-19T13:25:11.772Z</time></trkpt><trkpt lat="42.600198" lon="11.998531"><ele>340.0</ele><time>2026-04-19T13:25:12.772Z</time></trkpt><trkpt lat="42.6000107" lon="11.9985771"><ele>339.3333333333333</ele><time>2026-04-19T13:25:13.773Z</time></trkpt><trkpt lat="42.5998268" lon="11.9986313"><ele>338.6666666666667</ele><time>2026-04-19T13:25:14.773Z</time></trkpt><trkpt lat="42.5996536" lon="11.9987094"><ele>338.0</ele><time>2026-04-19T13:25:15.772Z</time></trkpt><trkpt lat="42.5994746" lon="11.998832"><ele>337.6666666666667</ele><time>2026-04-19T13:25:16.771Z</time></trkpt><trkpt lat="42.5992961" lon="11.9989464"><ele>337.3333333333333</ele><time>2026-04-19T13:25:17.772Z</time></trkpt><trkpt lat="42.5991215" lon="11.9990476"><ele>337.0</ele><time>2026-04-19T13:25:18.772Z</time></trkpt><trkpt lat="42.5989618" lon="11.9991473"><ele>340.66666666666663</ele><time>2026-04-19T13:25:19.771Z</time></trkpt><trkpt lat="42.5988057" lon="11.9992504"><ele>344.3333333333333</ele><time>2026-04-19T13:25:20.772Z</time></trkpt><trkpt lat="42.5986555" lon="11.9993479"><ele>348.0</ele><time>2026-04-19T13:25:21.772Z</time></trkpt><trkpt lat="42.5984959" lon="11.9994311"><ele>348.0</ele><time>2026-04-19T13:25:22.771Z</time></trkpt><trkpt lat="42.5983265" lon="11.9994947"><ele>348.0</ele><time>2026-04-19T13:25:23.772Z</time></trkpt><trkpt lat="42.5981449" lon="11.999536"><ele>348.0</ele><time>2026-04-19T13:25:24.772Z</time></trkpt><trkpt lat="42.5979505" lon="11.9995584"><ele>348.3333333333333</ele><time>2026-04-19T13:25:25.772Z</time></trkpt><trkpt lat="42.5977456" lon="11.9995649"><ele>348.66666666666663</ele><time>2026-04-19T13:25:26.773Z</time></trkpt><trkpt lat="42.5975375" lon="11.9995437"><ele>349.0</ele><time>2026-04-19T13:25:27.773Z</time></trkpt><trkpt lat="42.5973325" lon="11.9995134"><ele>349.0</ele><time>2026-04-19T13:25:28.772Z</time></trkpt><trkpt lat="42.5971366" lon="11.9994861"><ele>349.0</ele><time>2026-04-19T13:25:29.772Z</time></trkpt><trkpt lat="42.5969617" lon="11.9994725"><ele>349.0</ele><time>2026-04-19T13:25:30.772Z</time></trkpt><trkpt lat="42.5967908" lon="11.9994812"><ele>349.66666666666663</ele><time>2026-04-19T13:25:31.772Z</time></trkpt><trkpt lat="42.5966164" lon="11.999523"><ele>350.3333333333333</ele><time>2026-04-19T13:25:32.771Z</time></trkpt><trkpt lat="42.5964317" lon="11.99957"><ele>351.0</ele><time>2026-04-19T13:25:33.773Z</time></trkpt><trkpt lat="42.5962594" lon="11.9996686"><ele>351.0</ele><time>2026-04-19T13:25:34.772Z</time></trkpt><trkpt lat="42.5960731" lon="11.9997759"><ele>351.0</ele><time>2026-04-19T13:25:35.773Z</time></trkpt><trkpt lat="42.595894" lon="11.9998816"><ele>351.0</ele><time>2026-04-19T13:25:36.773Z</time></trkpt><trkpt lat="42.5956938" lon="12.0000046"><ele>351.0</ele><time>2026-04-19T13:25:37.772Z</time></trkpt><trkpt lat="42.595503" lon="12.0001194"><ele>351.0</ele><time>2026-04-19T13:25:38.773Z</time></trkpt><trkpt lat="42.5953135" lon="12.000231"><ele>351.0</ele><time>2026-04-19T13:25:39.772Z</time></trkpt><trkpt lat="42.5951659" lon="12.0003284"><ele>351.3333333333333</ele><time>2026-04-19T13:25:40.772Z</time></trkpt><trkpt lat="42.5949815" lon="12.0004189"><ele>351.66666666666663</ele><time>2026-04-19T13:25:41.772Z</time></trkpt><trkpt lat="42.5947677" lon="12.0004457"><ele>352.0</ele><time>2026-04-19T13:25:42.772Z</time></trkpt><trkpt lat="42.5945696" lon="12.0004854"><ele>352.66666666666663</ele><time>2026-04-19T13:25:43.773Z</time></trkpt><trkpt lat="42.5943578" lon="12.0004993"><ele>353.3333333333333</ele><time>2026-04-19T13:25:44.773Z</time></trkpt><trkpt lat="42.5941462" lon="12.0005134"><ele>354.0</ele><time>2026-04-19T13:25:45.772Z</time></trkpt><trkpt lat="42.5939193" lon="12.0005147"><ele>354.0</ele><time>2026-04-19T13:25:46.772Z</time></trkpt><trkpt lat="42.5936779" lon="12.0005722"><ele>354.0</ele><time>2026-04-19T13:25:47.772Z</time></trkpt><trkpt lat="42.5934656" lon="12.0005795"><ele>354.6666666666667</ele><time>2026-04-19T13:25:48.771Z</time></trkpt><trkpt lat="42.5932504" lon="12.0006149"><ele>355.33333333333337</ele><time>2026-04-19T13:25:49.772Z</time></trkpt><trkpt lat="42.59304" lon="12.0006524"><ele>356.0</ele><time>2026-04-19T13:25:50.773Z</time></trkpt><trkpt lat="42.5928288" lon="12.0006952"><ele>357.0</ele><time>2026-04-19T13:25:51.773Z</time></trkpt><trkpt lat="42.5926217" lon="12.0007356"><ele>358.0</ele><time>2026-04-19T13:25:52.773Z</time></trkpt><trkpt lat="42.5924266" lon="12.0007738"><ele>359.0</ele><time>2026-04-19T13:25:53.772Z</time></trkpt><trkpt lat="42.5922415" lon="12.0008133"><ele>359.0</ele><time>2026-04-19T13:25:54.773Z</time></trkpt><trkpt lat="42.5920641" lon="12.0008277"><ele>359.0</ele><time>2026-04-19T13:25:55.773Z</time></trkpt><trkpt lat="42.5918783" lon="12.000838"><ele>359.0</ele><time>2026-04-19T13:25:56.773Z</time></trkpt><trkpt lat="42.5916901" lon="12.0008144"><ele>361.6666666666667</ele><time>2026-04-19T13:25:57.772Z</time></trkpt><trkpt lat="42.5914983" lon="12.0007949"><ele>364.3333333333333</ele><time>2026-04-19T13:25:58.773Z</time></trkpt><trkpt lat="42.5913036" lon="12.0007622"><ele>367.0</ele><time>2026-04-19T13:25:59.773Z</time></trkpt><trkpt lat="42.5911045" lon="12.0007209"><ele>369.0</ele><time>2026-04-19T13:26:00.773Z</time></trkpt><trkpt lat="42.5909168" lon="12.0006879"><ele>371.0</ele><time>2026-04-19T13:26:01.773Z</time></trkpt><trkpt lat="42.590746" lon="12.0006598"><ele>373.0</ele><time>2026-04-19T13:26:02.773Z</time></trkpt><trkpt lat="42.590557" lon="12.0006576"><ele>373.0</ele><time>2026-04-19T13:26:03.773Z</time></trkpt><trkpt lat="42.5903936" lon="12.0006932"><ele>373.0</ele><time>2026-04-19T13:26:04.772Z</time></trkpt><trkpt lat="42.5902116" lon="12.000755"><ele>373.0</ele><time>2026-04-19T13:26:05.773Z</time></trkpt><trkpt lat="42.5900368" lon="12.0008322"><ele>375.3333333333333</ele><time>2026-04-19T13:26:06.773Z</time></trkpt><trkpt lat="42.5898654" lon="12.0009497"><ele>377.6666666666667</ele><time>2026-04-19T13:26:07.773Z</time></trkpt><trkpt lat="42.589694" lon="12.0010845"><ele>380.0</ele><time>2026-04-19T13:26:08.773Z</time></trkpt><trkpt lat="42.5895148" lon="12.0012123"><ele>379.33333333333337</ele><time>2026-04-19T13:26:09.773Z</time></trkpt><trkpt lat="42.5893217" lon="12.0013127"><ele>378.6666666666667</ele><time>2026-04-19T13:26:10.772Z</time></trkpt><trkpt lat="42.5891227" lon="12.0014051"><ele>378.0</ele><time>2026-04-19T13:26:11.773Z</time></trkpt><trkpt lat="42.5889084" lon="12.0014711"><ele>378.0</ele><time>2026-04-19T13:26:12.773Z</time></trkpt><trkpt lat="42.5886891" lon="12.0015446"><ele>378.0</ele><time>2026-04-19T13:26:13.771Z</time></trkpt><trkpt lat="42.5884616" lon="12.0016248"><ele>380.66666666666663</ele><time>2026-04-19T13:26:14.772Z</time></trkpt><trkpt lat="42.5882496" lon="12.001704"><ele>383.3333333333333</ele><time>2026-04-19T13:26:15.771Z</time></trkpt><trkpt lat="42.5880453" lon="12.0017825"><ele>386.0</ele><time>2026-04-19T13:26:16.772Z</time></trkpt><trkpt lat="42.5878439" lon="12.0018422"><ele>386.0</ele><time>2026-04-19T13:26:17.772Z</time></trkpt><trkpt lat="42.587637" lon="12.0018738"><ele>386.0</ele><time>2026-04-19T13:26:18.772Z</time></trkpt><trkpt lat="42.5874303" lon="12.0018812"><ele>386.0</ele><time>2026-04-19T13:26:19.772Z</time></trkpt><trkpt lat="42.5872209" lon="12.0018621"><ele>386.0</ele><time>2026-04-19T13:26:20.773Z</time></trkpt><trkpt lat="42.5870157" lon="12.0018508"><ele>386.0</ele><time>2026-04-19T13:26:21.773Z</time></trkpt><trkpt lat="42.5868198" lon="12.0018559"><ele>386.0</ele><time>2026-04-19T13:26:22.771Z</time></trkpt><trkpt lat="42.5866303" lon="12.0018792"><ele>386.0</ele><time>2026-04-19T13:26:23.772Z</time></trkpt><trkpt lat="42.5864402" lon="12.0019274"><ele>386.0</ele><time>2026-04-19T13:26:24.772Z</time></trkpt><trkpt lat="42.5862571" lon="12.0019936"><ele>386.0</ele><time>2026-04-19T13:26:25.772Z</time></trkpt><trkpt lat="42.5860709" lon="12.0020583"><ele>386.0</ele><time>2026-04-19T13:26:26.772Z</time></trkpt><trkpt lat="42.585892" lon="12.0021168"><ele>386.0</ele><time>2026-04-19T13:26:27.772Z</time></trkpt><trkpt lat="42.5857285" lon="12.002179"><ele>386.0</ele><time>2026-04-19T13:26:28.772Z</time></trkpt><trkpt lat="42.5855703" lon="12.0022304"><ele>386.0</ele><time>2026-04-19T13:26:29.772Z</time></trkpt><trkpt lat="42.5854245" lon="12.0022862"><ele>386.0</ele><time>2026-04-19T13:26:30.773Z</time></trkpt><trkpt lat="42.5852982" lon="12.0023529"><ele>386.0</ele><time>2026-04-19T13:26:31.772Z</time></trkpt><trkpt lat="42.5851846" lon="12.0024376"><ele>386.0</ele><time>2026-04-19T13:26:32.772Z</time></trkpt><trkpt lat="42.5850995" lon="12.0025506"><ele>387.0</ele><time>2026-04-19T13:26:33.771Z</time></trkpt><trkpt lat="42.5850964" lon="12.0027381"><ele>388.0</ele><time>2026-04-19T13:26:34.772Z</time></trkpt><trkpt lat="42.5850782" lon="12.0029032"><ele>389.0</ele><time>2026-04-19T13:26:35.773Z</time></trkpt><trkpt lat="42.5851338" lon="12.0030461"><ele>390.0</ele><time>2026-04-19T13:26:36.772Z</time></trkpt><trkpt lat="42.5852331" lon="12.0031941"><ele>390.0</ele><time>2026-04-19T13:26:37.772Z</time></trkpt><trkpt lat="42.5853146" lon="12.003326"><ele>390.0</ele><time>2026-04-19T13:26:38.773Z</time></trkpt><trkpt lat="42.585401" lon="12.0034655"><ele>390.0</ele><time>2026-04-19T13:26:39.772Z</time></trkpt><trkpt lat="42.5854949" lon="12.0036007"><ele>390.0</ele><time>2026-04-19T13:26:40.773Z</time></trkpt><trkpt lat="42.5855672" lon="12.0037361"><ele>392.75</ele><time>2026-04-19T13:26:41.773Z</time></trkpt><trkpt lat="42.5856359" lon="12.0038911"><ele>395.5</ele><time>2026-04-19T13:26:42.772Z</time></trkpt><trkpt lat="42.5856853" lon="12.0040661"><ele>398.25</ele><time>2026-04-19T13:26:43.771Z</time></trkpt><trkpt lat="42.5857053" lon="12.0042421"><ele>401.0</ele><time>2026-04-19T13:26:44.772Z</time></trkpt><trkpt lat="42.5856562" lon="12.0044271"><ele>401.0</ele><time>2026-04-19T13:26:45.772Z</time></trkpt><trkpt lat="42.5855906" lon="12.0045885"><ele>401.0</ele><time>2026-04-19T13:26:46.772Z</time></trkpt><trkpt lat="42.5854942" lon="12.004732"><ele>401.0</ele><time>2026-04-19T13:26:47.772Z</time></trkpt><trkpt lat="42.5853442" lon="12.0048831"><ele>400.3333333333333</ele><time>2026-04-19T13:26:48.773Z</time></trkpt><trkpt lat="42.5851682" lon="12.0049843"><ele>399.66666666666663</ele><time>2026-04-19T13:26:49.773Z</time></trkpt><trkpt lat="42.5849944" lon="12.005147"><ele>399.0</ele><time>2026-04-19T13:26:50.773Z</time></trkpt><trkpt lat="42.5847962" lon="12.0052832"><ele>399.0</ele><time>2026-04-19T13:26:51.772Z</time></trkpt><trkpt lat="42.5845991" lon="12.0054184"><ele>399.0</ele><time>2026-04-19T13:26:52.773Z</time></trkpt><trkpt lat="42.5844168" lon="12.0055367"><ele>399.0</ele><time>2026-04-19T13:26:53.772Z</time></trkpt><trkpt lat="42.5842423" lon="12.0056607"><ele>399.66666666666663</ele><time>2026-04-19T13:26:54.771Z</time></trkpt><trkpt lat="42.5840846" lon="12.0057903"><ele>400.3333333333333</ele><time>2026-04-19T13:26:55.772Z</time></trkpt><trkpt lat="42.5839341" lon="12.0059207"><ele>401.0</ele><time>2026-04-19T13:26:56.773Z</time></trkpt><trkpt lat="42.5838026" lon="12.0060604"><ele>401.0</ele><time>2026-04-19T13:26:57.772Z</time></trkpt><trkpt lat="42.5836765" lon="12.0062484"><ele>401.0</ele><time>2026-04-19T13:26:58.773Z</time></trkpt><trkpt lat="42.5835502" lon="12.0064598"><ele>401.0</ele><time>2026-04-19T13:26:59.771Z</time></trkpt><trkpt lat="42.5834189" lon="12.0066887"><ele>401.0</ele><time>2026-04-19T13:27:00.772Z</time></trkpt><trkpt lat="42.5832652" lon="12.006894"><ele>401.0</ele><time>2026-04-19T13:27:01.773Z</time></trkpt><trkpt lat="42.5830918" lon="12.0070924"><ele>401.0</ele><time>2026-04-19T13:27:02.771Z</time></trkpt><trkpt lat="42.5829118" lon="12.0072902"><ele>401.66666666666663</ele><time>2026-04-19T13:27:03.772Z</time></trkpt><trkpt lat="42.5827302" lon="12.0074771"><ele>402.33333333333337</ele><time>2026-04-19T13:27:04.773Z</time></trkpt><trkpt lat="42.5825592" lon="12.0076599"><ele>403.0</ele><time>2026-04-19T13:27:05.772Z</time></trkpt><trkpt lat="42.5823997" lon="12.0078328"><ele>403.0</ele><time>2026-04-19T13:27:06.772Z</time></trkpt><trkpt lat="42.5822467" lon="12.007994"><ele>403.0</ele><time>2026-04-19T13:27:07.772Z</time></trkpt><trkpt lat="42.5820944" lon="12.0081331"><ele>403.0</ele><time>2026-04-19T13:27:08.772Z</time></trkpt><trkpt lat="42.5819352" lon="12.0082335"><ele>401.33333333333337</ele><time>2026-04-19T13:27:09.772Z</time></trkpt><trkpt lat="42.5817699" lon="12.0082821"><ele>399.66666666666663</ele><time>2026-04-19T13:27:10.772Z</time></trkpt><trkpt lat="42.5815986" lon="12.0082995"><ele>398.0</ele><time>2026-04-19T13:27:11.772Z</time></trkpt><trkpt lat="42.5814304" lon="12.0082858"><ele>401.3333333333333</ele><time>2026-04-19T13:27:12.772Z</time></trkpt><trkpt lat="42.5812532" lon="12.0083365"><ele>404.66666666666663</ele><time>2026-04-19T13:27:13.772Z</time></trkpt><trkpt lat="42.5810816" lon="12.0083697"><ele>408.0</ele><time>2026-04-19T13:27:14.772Z</time></trkpt><trkpt lat="42.5809314" lon="12.0084327"><ele>408.0</ele><time>2026-04-19T13:27:15.771Z</time></trkpt><trkpt lat="42.5807567" lon="12.0085275"><ele>408.0</ele><time>2026-04-19T13:27:16.771Z</time></trkpt><trkpt lat="42.5805753" lon="12.0087865"><ele>408.0</ele><time>2026-04-19T13:27:17.773Z</time></trkpt><trkpt lat="42.5804578" lon="12.009018"><ele>408.0</ele><time>2026-04-19T13:27:18.773Z</time></trkpt><trkpt lat="42.5803231" lon="12.0092018"><ele>408.0</ele><time>2026-04-19T13:27:19.773Z</time></trkpt><trkpt lat="42.5801963" lon="12.0093766"><ele>409.0</ele><time>2026-04-19T13:27:20.771Z</time></trkpt><trkpt lat="42.5800751" lon="12.009548"><ele>410.0</ele><time>2026-04-19T13:27:21.773Z</time></trkpt><trkpt lat="42.5799557" lon="12.0097143"><ele>411.0</ele><time>2026-04-19T13:27:22.772Z</time></trkpt><trkpt lat="42.5798422" lon="12.0098741"><ele>411.66666666666663</ele><time>2026-04-19T13:27:23.773Z</time></trkpt><trkpt lat="42.5797277" lon="12.0100272"><ele>412.3333333333333</ele><time>2026-04-19T13:27:24.773Z</time></trkpt><trkpt lat="42.579617" lon="12.0101662"><ele>413.0</ele><time>2026-04-19T13:27:25.773Z</time></trkpt><trkpt lat="42.5795016" lon="12.0102871"><ele>413.5</ele><time>2026-04-19T13:27:26.773Z</time></trkpt><trkpt lat="42.5793889" lon="12.0103598"><ele>414.0</ele><time>2026-04-19T13:27:27.773Z</time></trkpt><trkpt lat="42.5792627" lon="12.0104211"><ele>414.5</ele><time>2026-04-19T13:27:28.773Z</time></trkpt><trkpt lat="42.5791325" lon="12.0104501"><ele>415.0</ele><time>2026-04-19T13:27:29.773Z</time></trkpt><trkpt lat="42.5789846" lon="12.0104551"><ele>415.0</ele><time>2026-04-19T13:27:30.772Z</time></trkpt><trkpt lat="42.5788368" lon="12.0104422"><ele>415.0</ele><time>2026-04-19T13:27:31.773Z</time></trkpt><trkpt lat="42.5786499" lon="12.0104478"><ele>415.0</ele><time>2026-04-19T13:27:32.772Z</time></trkpt><trkpt lat="42.5784596" lon="12.0104369"><ele>418.0</ele><time>2026-04-19T13:27:33.772Z</time></trkpt><trkpt lat="42.5782498" lon="12.0104033"><ele>421.0</ele><time>2026-04-19T13:27:34.772Z</time></trkpt><trkpt lat="42.5780295" lon="12.0103778"><ele>424.0</ele><time>2026-04-19T13:27:35.773Z</time></trkpt><trkpt lat="42.5777945" lon="12.0103421"><ele>424.0</ele><time>2026-04-19T13:27:36.773Z</time></trkpt><trkpt lat="42.577552" lon="12.0103147"><ele>424.0</ele><time>2026-04-19T13:27:37.771Z</time></trkpt><trkpt lat="42.5772841" lon="12.0103169"><ele>424.0</ele><time>2026-04-19T13:27:38.772Z</time></trkpt><trkpt lat="42.5770198" lon="12.0102924"><ele>424.0</ele><time>2026-04-19T13:27:39.772Z</time></trkpt><trkpt lat="42.5767458" lon="12.0102637"><ele>423.0</ele><time>2026-04-19T13:27:40.772Z</time></trkpt><trkpt lat="42.5764804" lon="12.0102334"><ele>422.0</ele><time>2026-04-19T13:27:41.773Z</time></trkpt><trkpt lat="42.5762279" lon="12.0101978"><ele>422.5</ele><time>2026-04-19T13:27:42.773Z</time></trkpt><trkpt lat="42.5759854" lon="12.0101787"><ele>423.0</ele><time>2026-04-19T13:27:43.773Z</time></trkpt><trkpt lat="42.5757492" lon="12.0101575"><ele>423.0</ele><time>2026-04-19T13:27:44.773Z</time></trkpt><trkpt lat="42.5755204" lon="12.0101283"><ele>423.0</ele><time>2026-04-19T13:27:45.773Z</time></trkpt><trkpt lat="42.5752848" lon="12.0101059"><ele>423.5</ele><time>2026-04-19T13:27:46.773Z</time></trkpt><trkpt lat="42.5750493" lon="12.0100785"><ele>424.0</ele><time>2026-04-19T13:27:47.772Z</time></trkpt><trkpt lat="42.5748149" lon="12.0100568"><ele>424.0</ele><time>2026-04-19T13:27:48.772Z</time></trkpt><trkpt lat="42.5745882" lon="12.0100364"><ele>424.0</ele><time>2026-04-19T13:27:49.773Z</time></trkpt><trkpt lat="42.5743686" lon="12.0100172"><ele>424.0</ele><time>2026-04-19T13:27:50.771Z</time></trkpt><trkpt lat="42.5741555" lon="12.0100024"><ele>424.6666666666667</ele><time>2026-04-19T13:27:51.773Z</time></trkpt><trkpt lat="42.5739445" lon="12.0099756"><ele>425.33333333333337</ele><time>2026-04-19T13:27:52.773Z</time></trkpt><trkpt lat="42.5737278" lon="12.0099509"><ele>426.0</ele><time>2026-04-19T13:27:53.772Z</time></trkpt><trkpt lat="42.5735064" lon="12.0099232"><ele>426.0</ele><time>2026-04-19T13:27:54.772Z</time></trkpt><trkpt lat="42.573281" lon="12.0098875"><ele>426.0</ele><time>2026-04-19T13:27:55.772Z</time></trkpt><trkpt lat="42.5730599" lon="12.0098477"><ele>425.0</ele><time>2026-04-19T13:27:56.772Z</time></trkpt><trkpt lat="42.5728462" lon="12.0097959"><ele>424.0</ele><time>2026-04-19T13:27:57.772Z</time></trkpt><trkpt lat="42.5726403" lon="12.0097433"><ele>423.0</ele><time>2026-04-19T13:27:58.772Z</time></trkpt><trkpt lat="42.5724477" lon="12.0096845"><ele>423.0</ele><time>2026-04-19T13:27:59.772Z</time></trkpt><trkpt lat="42.5722514" lon="12.0096382"><ele>423.0</ele><time>2026-04-19T13:28:00.773Z</time></trkpt><trkpt lat="42.5720615" lon="12.0095917"><ele>423.0</ele><time>2026-04-19T13:28:01.773Z</time></trkpt><trkpt lat="42.5718731" lon="12.0095458"><ele>423.0</ele><time>2026-04-19T13:28:02.771Z</time></trkpt><trkpt lat="42.5716799" lon="12.0094931"><ele>423.0</ele><time>2026-04-19T13:28:03.772Z</time></trkpt><trkpt lat="42.5714806" lon="12.0094443"><ele>423.0</ele><time>2026-04-19T13:28:04.772Z</time></trkpt><trkpt lat="42.5712679" lon="12.009395"><ele>423.0</ele><time>2026-04-19T13:28:05.773Z</time></trkpt><trkpt lat="42.5710541" lon="12.0093508"><ele>423.0</ele><time>2026-04-19T13:28:06.772Z</time></trkpt><trkpt lat="42.5708307" lon="12.009293"><ele>423.0</ele><time>2026-04-19T13:28:07.773Z</time></trkpt><trkpt lat="42.5706071" lon="12.0092439"><ele>423.0</ele><time>2026-04-19T13:28:08.772Z</time></trkpt><trkpt lat="42.5703825" lon="12.0092091"><ele>423.0</ele><time>2026-04-19T13:28:09.773Z</time></trkpt><trkpt lat="42.570149" lon="12.0092029"><ele>422.5</ele><time>2026-04-19T13:28:10.772Z</time></trkpt><trkpt lat="42.5699078" lon="12.0092292"><ele>422.0</ele><time>2026-04-19T13:28:11.771Z</time></trkpt><trkpt lat="42.5696643" lon="12.0092615"><ele>422.5</ele><time>2026-04-19T13:28:12.773Z</time></trkpt><trkpt lat="42.5694293" lon="12.0092925"><ele>423.0</ele><time>2026-04-19T13:28:13.772Z</time></trkpt><trkpt lat="42.5692017" lon="12.0093199"><ele>423.0</ele><time>2026-04-19T13:28:14.772Z</time></trkpt><trkpt lat="42.5689803" lon="12.0093506"><ele>423.0</ele><time>2026-04-19T13:28:15.771Z</time></trkpt><trkpt lat="42.5687708" lon="12.00938"><ele>423.0</ele><time>2026-04-19T13:28:16.773Z</time></trkpt><trkpt lat="42.5685692" lon="12.0094051"><ele>428.5</ele><time>2026-04-19T13:28:17.772Z</time></trkpt><trkpt lat="42.5682044" lon="12.0094481"><ele>434.0</ele><time>2026-04-19T13:28:19.772Z</time></trkpt><trkpt lat="42.5680397" lon="12.0094732"><ele>434.0</ele><time>2026-04-19T13:28:20.772Z</time></trkpt><trkpt lat="42.5678823" lon="12.0094871"><ele>434.0</ele><time>2026-04-19T13:28:21.772Z</time></trkpt><trkpt lat="42.5677343" lon="12.0095046"><ele>434.0</ele><time>2026-04-19T13:28:22.772Z</time></trkpt><trkpt lat="42.5675927" lon="12.0095106"><ele>434.0</ele><time>2026-04-19T13:28:23.772Z</time></trkpt><trkpt lat="42.567461" lon="12.0095021"><ele>434.75</ele><time>2026-04-19T13:28:24.771Z</time></trkpt><trkpt lat="42.5673336" lon="12.0094704"><ele>435.5</ele><time>2026-04-19T13:28:25.772Z</time></trkpt><trkpt lat="42.5672058" lon="12.0094102"><ele>436.25</ele><time>2026-04-19T13:28:26.773Z</time></trkpt><trkpt lat="42.5670827" lon="12.0093228"><ele>437.0</ele><time>2026-04-19T13:28:27.771Z</time></trkpt><trkpt lat="42.5669597" lon="12.0092119"><ele>438.66666666666663</ele><time>2026-04-19T13:28:28.772Z</time></trkpt><trkpt lat="42.5668407" lon="12.0090644"><ele>440.33333333333337</ele><time>2026-04-19T13:28:29.772Z</time></trkpt><trkpt lat="42.5667259" lon="12.0088924"><ele>442.0</ele><time>2026-04-19T13:28:30.771Z</time></trkpt><trkpt lat="42.5666074" lon="12.0087044"><ele>442.0</ele><time>2026-04-19T13:28:31.772Z</time></trkpt><trkpt lat="42.5664793" lon="12.0085023"><ele>442.0</ele><time>2026-04-19T13:28:32.773Z</time></trkpt><trkpt lat="42.5663525" lon="12.0082852"><ele>442.0</ele><time>2026-04-19T13:28:33.773Z</time></trkpt><trkpt lat="42.5662324" lon="12.0080788"><ele>444.33333333333337</ele><time>2026-04-19T13:28:34.773Z</time></trkpt><trkpt lat="42.5661137" lon="12.007881"><ele>446.66666666666663</ele><time>2026-04-19T13:28:35.773Z</time></trkpt><trkpt lat="42.5659838" lon="12.0077058"><ele>449.0</ele><time>2026-04-19T13:28:36.773Z</time></trkpt><trkpt lat="42.5658423" lon="12.0075663"><ele>452.0</ele><time>2026-04-19T13:28:37.772Z</time></trkpt><trkpt lat="42.5656781" lon="12.0074606"><ele>455.0</ele><time>2026-04-19T13:28:38.773Z</time></trkpt><trkpt lat="42.5654971" lon="12.0073815"><ele>458.0</ele><time>2026-04-19T13:28:39.772Z</time></trkpt><trkpt lat="42.5652951" lon="12.0073316"><ele>458.0</ele><time>2026-04-19T13:28:40.772Z</time></trkpt><trkpt lat="42.5650765" lon="12.0072972"><ele>458.0</ele><time>2026-04-19T13:28:41.772Z</time></trkpt><trkpt lat="42.5648485" lon="12.0072375"><ele>458.0</ele><time>2026-04-19T13:28:42.773Z</time></trkpt><trkpt lat="42.5646187" lon="12.0071652"><ele>458.0</ele><time>2026-04-19T13:28:43.773Z</time></trkpt><trkpt lat="42.5643762" lon="12.0070987"><ele>458.0</ele><time>2026-04-19T13:28:44.773Z</time></trkpt><trkpt lat="42.5641279" lon="12.0070328"><ele>458.0</ele><time>2026-04-19T13:28:45.772Z</time></trkpt><trkpt lat="42.5638892" lon="12.0069709"><ele>461.0</ele><time>2026-04-19T13:28:46.772Z</time></trkpt><trkpt lat="42.5636497" lon="12.0069115"><ele>464.0</ele><time>2026-04-19T13:28:47.772Z</time></trkpt><trkpt lat="42.5634237" lon="12.0068558"><ele>464.0</ele><time>2026-04-19T13:28:48.771Z</time></trkpt><trkpt lat="42.5632075" lon="12.006804"><ele>464.0</ele><time>2026-04-19T13:28:49.772Z</time></trkpt><trkpt lat="42.5629892" lon="12.0067525"><ele>464.0</ele><time>2026-04-19T13:28:50.772Z</time></trkpt><trkpt lat="42.5627663" lon="12.0066983"><ele>459.5</ele><time>2026-04-19T13:28:51.772Z</time></trkpt><trkpt lat="42.5625428" lon="12.0066436"><ele>455.0</ele><time>2026-04-19T13:28:52.772Z</time></trkpt><trkpt lat="42.5623171" lon="12.0065871"><ele>455.0</ele><time>2026-04-19T13:28:53.772Z</time></trkpt><trkpt lat="42.5620939" lon="12.0065329"><ele>455.0</ele><time>2026-04-19T13:28:54.773Z</time></trkpt><trkpt lat="42.5618729" lon="12.0064804"><ele>458.3333333333333</ele><time>2026-04-19T13:28:55.773Z</time></trkpt><trkpt lat="42.5616556" lon="12.0064259"><ele>461.66666666666663</ele><time>2026-04-19T13:28:56.773Z</time></trkpt><trkpt lat="42.5614474" lon="12.0063724"><ele>465.0</ele><time>2026-04-19T13:28:57.772Z</time></trkpt><trkpt lat="42.5612309" lon="12.0063183"><ele>466.66666666666663</ele><time>2026-04-19T13:28:58.771Z</time></trkpt><trkpt lat="42.5610167" lon="12.0062646"><ele>468.3333333333333</ele><time>2026-04-19T13:28:59.773Z</time></trkpt><trkpt lat="42.5607993" lon="12.0062089"><ele>470.0</ele><time>2026-04-19T13:29:00.773Z</time></trkpt><trkpt lat="42.5605906" lon="12.0061628"><ele>470.0</ele><time>2026-04-19T13:29:01.772Z</time></trkpt><trkpt lat="42.5604017" lon="12.006125"><ele>470.0</ele><time>2026-04-19T13:29:02.772Z</time></trkpt><trkpt lat="42.560224" lon="12.0061067"><ele>470.0</ele><time>2026-04-19T13:29:03.771Z</time></trkpt><trkpt lat="42.5600469" lon="12.0061055"><ele>470.66666666666663</ele><time>2026-04-19T13:29:04.772Z</time></trkpt><trkpt lat="42.5599049" lon="12.0061246"><ele>471.33333333333337</ele><time>2026-04-19T13:29:05.773Z</time></trkpt><trkpt lat="42.5597757" lon="12.0061504"><ele>472.0</ele><time>2026-04-19T13:29:06.773Z</time></trkpt><trkpt lat="42.5596628" lon="12.0064"><ele>472.0</ele><time>2026-04-19T13:29:07.772Z</time></trkpt><trkpt lat="42.5595376" lon="12.0065104"><ele>472.0</ele><time>2026-04-19T13:29:08.772Z</time></trkpt><trkpt lat="42.5594091" lon="12.0066038"><ele>472.0</ele><time>2026-04-19T13:29:09.772Z</time></trkpt><trkpt lat="42.559275" lon="12.0066513"><ele>472.0</ele><time>2026-04-19T13:29:10.772Z</time></trkpt><trkpt lat="42.5591463" lon="12.0066603"><ele>473.5</ele><time>2026-04-19T13:29:11.773Z</time></trkpt><trkpt lat="42.5590189" lon="12.0066167"><ele>475.0</ele><time>2026-04-19T13:29:12.772Z</time></trkpt><trkpt lat="42.5589044" lon="12.0065391"><ele>476.5</ele><time>2026-04-19T13:29:13.771Z</time></trkpt><trkpt lat="42.558811" lon="12.0064238"><ele>478.0</ele><time>2026-04-19T13:29:14.772Z</time></trkpt><trkpt lat="42.5587102" lon="12.0062315"><ele>479.33333333333337</ele><time>2026-04-19T13:29:15.772Z</time></trkpt><trkpt lat="42.5586757" lon="12.0059746"><ele>480.66666666666663</ele><time>2026-04-19T13:29:16.772Z</time></trkpt><trkpt lat="42.5585848" lon="12.0057788"><ele>482.0</ele><time>2026-04-19T13:29:17.772Z</time></trkpt><trkpt lat="42.5584788" lon="12.0056086"><ele>482.0</ele><time>2026-04-19T13:29:18.773Z</time></trkpt><trkpt lat="42.5583706" lon="12.0054356"><ele>482.0</ele><time>2026-04-19T13:29:19.772Z</time></trkpt><trkpt lat="42.5581146" lon="12.0053022"><ele>482.0</ele><time>2026-04-19T13:29:20.771Z</time></trkpt><trkpt lat="42.5579603" lon="12.0051372"><ele>480.66666666666663</ele><time>2026-04-19T13:29:21.772Z</time></trkpt><trkpt lat="42.5577881" lon="12.0050104"><ele>479.33333333333337</ele><time>2026-04-19T13:29:22.773Z</time></trkpt><trkpt lat="42.5576026" lon="12.0049153"><ele>478.0</ele><time>2026-04-19T13:29:23.772Z</time></trkpt><trkpt lat="42.5574228" lon="12.0048398"><ele>478.0</ele><time>2026-04-19T13:29:24.771Z</time></trkpt><trkpt lat="42.5572494" lon="12.0047884"><ele>478.0</ele><time>2026-04-19T13:29:25.772Z</time></trkpt><trkpt lat="42.5570873" lon="12.0047589"><ele>478.0</ele><time>2026-04-19T13:29:26.773Z</time></trkpt><trkpt lat="42.5569292" lon="12.0047551"><ele>479.6666666666667</ele><time>2026-04-19T13:29:27.772Z</time></trkpt><trkpt lat="42.5567782" lon="12.0047655"><ele>481.33333333333337</ele><time>2026-04-19T13:29:28.773Z</time></trkpt><trkpt lat="42.5566258" lon="12.0048007"><ele>483.0</ele><time>2026-04-19T13:29:29.772Z</time></trkpt><trkpt lat="42.5564405" lon="12.0050029"><ele>484.66666666666663</ele><time>2026-04-19T13:29:30.773Z</time></trkpt><trkpt lat="42.5562671" lon="12.0051398"><ele>486.3333333333333</ele><time>2026-04-19T13:29:31.771Z</time></trkpt><trkpt lat="42.5560834" lon="12.0052903"><ele>488.0</ele><time>2026-04-19T13:29:32.772Z</time></trkpt><trkpt lat="42.5559091" lon="12.0054261"><ele>488.0</ele><time>2026-04-19T13:29:33.773Z</time></trkpt><trkpt lat="42.5557388" lon="12.0055459"><ele>488.0</ele><time>2026-04-19T13:29:34.772Z</time></trkpt><trkpt lat="42.555565" lon="12.005629"><ele>488.0</ele><time>2026-04-19T13:29:35.772Z</time></trkpt><trkpt lat="42.5553745" lon="12.0056966"><ele>488.3333333333333</ele><time>2026-04-19T13:29:36.773Z</time></trkpt><trkpt lat="42.5551825" lon="12.0057243"><ele>488.66666666666663</ele><time>2026-04-19T13:29:37.773Z</time></trkpt><trkpt lat="42.5549955" lon="12.0057296"><ele>489.0</ele><time>2026-04-19T13:29:38.771Z</time></trkpt><trkpt lat="42.5548199" lon="12.0056862"><ele>489.0</ele><time>2026-04-19T13:29:39.773Z</time></trkpt><trkpt lat="42.5546381" lon="12.0056197"><ele>489.0</ele><time>2026-04-19T13:29:40.773Z</time></trkpt><trkpt lat="42.5544624" lon="12.0055128"><ele>489.0</ele><time>2026-04-19T13:29:41.772Z</time></trkpt><trkpt lat="42.5543076" lon="12.005404"><ele>493.0</ele><time>2026-04-19T13:29:42.773Z</time></trkpt><trkpt lat="42.55415" lon="12.005299"><ele>497.0</ele><time>2026-04-19T13:29:43.772Z</time></trkpt><trkpt lat="42.5540232" lon="12.0052366"><ele>501.0</ele><time>2026-04-19T13:29:44.772Z</time></trkpt><trkpt lat="42.5538978" lon="12.0051598"><ele>505.0</ele><time>2026-04-19T13:29:45.773Z</time></trkpt><trkpt lat="42.5537911" lon="12.0050988"><ele>503.25</ele><time>2026-04-19T13:29:46.773Z</time></trkpt><trkpt lat="42.5536847" lon="12.0050762"><ele>501.5</ele><time>2026-04-19T13:29:47.772Z</time></trkpt><trkpt lat="42.5535815" lon="12.0051353"><ele>499.75</ele><time>2026-04-19T13:29:48.771Z</time></trkpt><trkpt lat="42.5535095" lon="12.0053006"><ele>498.0</ele><time>2026-04-19T13:29:49.772Z</time></trkpt><trkpt lat="42.553467" lon="12.0055149"><ele>498.0</ele><time>2026-04-19T13:29:50.772Z</time></trkpt><trkpt lat="42.5535223" lon="12.0058009"><ele>498.0</ele><time>2026-04-19T13:29:51.773Z</time></trkpt><trkpt lat="42.5537364" lon="12.006079"><ele>504.66666666666663</ele><time>2026-04-19T13:29:52.772Z</time></trkpt><trkpt lat="42.5538297" lon="12.0063247"><ele>511.3333333333333</ele><time>2026-04-19T13:29:53.771Z</time></trkpt><trkpt lat="42.5539328" lon="12.0065801"><ele>518.0</ele><time>2026-04-19T13:29:54.771Z</time></trkpt><trkpt lat="42.5540032" lon="12.0067918"><ele>518.0</ele><time>2026-04-19T13:29:55.771Z</time></trkpt><trkpt lat="42.5540793" lon="12.0069928"><ele>518.0</ele><time>2026-04-19T13:29:56.771Z</time></trkpt><trkpt lat="42.5541425" lon="12.0071854"><ele>518.0</ele><time>2026-04-19T13:29:57.772Z</time></trkpt><trkpt lat="42.5541956" lon="12.0073658"><ele>517.0</ele><time>2026-04-19T13:29:58.772Z</time></trkpt><trkpt lat="42.5542295" lon="12.0075342"><ele>516.0</ele><time>2026-04-19T13:29:59.772Z</time></trkpt><trkpt lat="42.5542536" lon="12.0077054"><ele>515.0</ele><time>2026-04-19T13:30:00.772Z</time></trkpt><trkpt lat="42.5542705" lon="12.0078897"><ele>514.0</ele><time>2026-04-19T13:30:01.771Z</time></trkpt><trkpt lat="42.5542718" lon="12.008079"><ele>514.0</ele><time>2026-04-19T13:30:02.773Z</time></trkpt><trkpt lat="42.5542685" lon="12.0082646"><ele>514.0</ele><time>2026-04-19T13:30:03.773Z</time></trkpt><trkpt lat="42.554262" lon="12.0084476"><ele>514.0</ele><time>2026-04-19T13:30:04.771Z</time></trkpt><trkpt lat="42.5542628" lon="12.0086287"><ele>514.0</ele><time>2026-04-19T13:30:05.773Z</time></trkpt><trkpt lat="42.5542566" lon="12.0088011"><ele>514.5</ele><time>2026-04-19T13:30:06.771Z</time></trkpt><trkpt lat="42.5542449" lon="12.0089328"><ele>515.0</ele><time>2026-04-19T13:30:07.773Z</time></trkpt><trkpt lat="42.5542252" lon="12.0091018"><ele>515.5</ele><time>2026-04-19T13:30:08.772Z</time></trkpt><trkpt lat="42.5542026" lon="12.0092847"><ele>516.0</ele><time>2026-04-19T13:30:09.772Z</time></trkpt><trkpt lat="42.554169" lon="12.0094765"><ele>516.0</ele><time>2026-04-19T13:30:10.772Z</time></trkpt><trkpt lat="42.5541305" lon="12.0096682"><ele>516.0</ele><time>2026-04-19T13:30:11.773Z</time></trkpt><trkpt lat="42.5540867" lon="12.0098521"><ele>516.0</ele><time>2026-04-19T13:30:12.771Z</time></trkpt><trkpt lat="42.5540517" lon="12.0100273"><ele>516.0</ele><time>2026-04-19T13:30:13.772Z</time></trkpt><trkpt lat="42.5540028" lon="12.0101905"><ele>516.75</ele><time>2026-04-19T13:30:14.772Z</time></trkpt><trkpt lat="42.5539419" lon="12.01035"><ele>517.5</ele><time>2026-04-19T13:30:15.773Z</time></trkpt><trkpt lat="42.5538577" lon="12.0104947"><ele>518.25</ele><time>2026-04-19T13:30:16.771Z</time></trkpt><trkpt lat="42.5537607" lon="12.0106216"><ele>519.0</ele><time>2026-04-19T13:30:17.773Z</time></trkpt><trkpt lat="42.5536616" lon="12.0107452"><ele>518.75</ele><time>2026-04-19T13:30:18.772Z</time></trkpt><trkpt lat="42.553573" lon="12.0108809"><ele>518.5</ele><time>2026-04-19T13:30:19.773Z</time></trkpt><trkpt lat="42.5534996" lon="12.0110293"><ele>518.25</ele><time>2026-04-19T13:30:20.772Z</time></trkpt><trkpt lat="42.5534407" lon="12.0111909"><ele>518.0</ele><time>2026-04-19T13:30:21.772Z</time></trkpt><trkpt lat="42.5533936" lon="12.0113716"><ele>518.0</ele><time>2026-04-19T13:30:22.772Z</time></trkpt><trkpt lat="42.5533655" lon="12.011575"><ele>518.0</ele><time>2026-04-19T13:30:23.772Z</time></trkpt><trkpt lat="42.5533328" lon="12.0118103"><ele>518.0</ele><time>2026-04-19T13:30:24.773Z</time></trkpt><trkpt lat="42.5532798" lon="12.0120506"><ele>519.6666666666666</ele><time>2026-04-19T13:30:25.772Z</time></trkpt><trkpt lat="42.5532098" lon="12.0122919"><ele>521.3333333333334</ele><time>2026-04-19T13:30:26.772Z</time></trkpt><trkpt lat="42.5531388" lon="12.0125107"><ele>523.0</ele><time>2026-04-19T13:30:27.772Z</time></trkpt><trkpt lat="42.5530629" lon="12.0127151"><ele>524.0</ele><time>2026-04-19T13:30:28.773Z</time></trkpt><trkpt lat="42.5529803" lon="12.0128992"><ele>525.0</ele><time>2026-04-19T13:30:29.773Z</time></trkpt><trkpt lat="42.5529083" lon="12.0130738"><ele>526.0</ele><time>2026-04-19T13:30:30.772Z</time></trkpt><trkpt lat="42.552849" lon="12.0132412"><ele>527.0</ele><time>2026-04-19T13:30:31.772Z</time></trkpt><trkpt lat="42.5528187" lon="12.0134038"><ele>529.0</ele><time>2026-04-19T13:30:32.772Z</time></trkpt><trkpt lat="42.55281" lon="12.0135794"><ele>531.0</ele><time>2026-04-19T13:30:33.773Z</time></trkpt><trkpt lat="42.5528386" lon="12.0137839"><ele>533.0</ele><time>2026-04-19T13:30:34.771Z</time></trkpt><trkpt lat="42.5528773" lon="12.0139502"><ele>535.0</ele><time>2026-04-19T13:30:35.772Z</time></trkpt><trkpt lat="42.5529305" lon="12.014134"><ele>536.5</ele><time>2026-04-19T13:30:36.772Z</time></trkpt><trkpt lat="42.5529788" lon="12.0143076"><ele>538.0</ele><time>2026-04-19T13:30:37.772Z</time></trkpt><trkpt lat="42.5530109" lon="12.014474"><ele>539.5</ele><time>2026-04-19T13:30:38.772Z</time></trkpt><trkpt lat="42.5530234" lon="12.0146488"><ele>541.0</ele><time>2026-04-19T13:30:39.773Z</time></trkpt><trkpt lat="42.5530184" lon="12.0148316"><ele>540.75</ele><time>2026-04-19T13:30:40.772Z</time></trkpt><trkpt lat="42.5529895" lon="12.0150112"><ele>540.5</ele><time>2026-04-19T13:30:41.772Z</time></trkpt><trkpt lat="42.5529504" lon="12.0151966"><ele>540.25</ele><time>2026-04-19T13:30:42.772Z</time></trkpt><trkpt lat="42.5529059" lon="12.0153902"><ele>540.0</ele><time>2026-04-19T13:30:43.773Z</time></trkpt><trkpt lat="42.5528646" lon="12.0155864"><ele>533.5</ele><time>2026-04-19T13:30:44.773Z</time></trkpt><trkpt lat="42.5528257" lon="12.0157807"><ele>527.0</ele><time>2026-04-19T13:30:45.772Z</time></trkpt><trkpt lat="42.5527888" lon="12.015959"><ele>520.5</ele><time>2026-04-19T13:30:46.772Z</time></trkpt><trkpt lat="42.5527431" lon="12.0161228"><ele>514.0</ele><time>2026-04-19T13:30:47.772Z</time></trkpt><trkpt lat="42.5526847" lon="12.016272"><ele>514.0</ele><time>2026-04-19T13:30:48.773Z</time></trkpt><trkpt lat="42.5526093" lon="12.0164123"><ele>514.0</ele><time>2026-04-19T13:30:49.772Z</time></trkpt><trkpt lat="42.5525342" lon="12.0165498"><ele>514.0</ele><time>2026-04-19T13:30:50.773Z</time></trkpt><trkpt lat="42.5524693" lon="12.0166939"><ele>514.0</ele><time>2026-04-19T13:30:51.773Z</time></trkpt><trkpt lat="42.5524263" lon="12.016845"><ele>516.75</ele><time>2026-04-19T13:30:52.771Z</time></trkpt><trkpt lat="42.5524129" lon="12.017004"><ele>519.5</ele><time>2026-04-19T13:30:53.772Z</time></trkpt><trkpt lat="42.5524229" lon="12.0171593"><ele>522.25</ele><time>2026-04-19T13:30:54.772Z</time></trkpt><trkpt lat="42.5524579" lon="12.017324"><ele>525.0</ele><time>2026-04-19T13:30:55.772Z</time></trkpt><trkpt lat="42.552498" lon="12.0174909"><ele>525.0</ele><time>2026-04-19T13:30:56.771Z</time></trkpt><trkpt lat="42.5525377" lon="12.0176757"><ele>525.0</ele><time>2026-04-19T13:30:57.773Z</time></trkpt><trkpt lat="42.5525806" lon="12.0178674"><ele>525.0</ele><time>2026-04-19T13:30:58.772Z</time></trkpt><trkpt lat="42.5526227" lon="12.0180527"><ele>525.0</ele><time>2026-04-19T13:30:59.773Z</time></trkpt><trkpt lat="42.5526545" lon="12.0182398"><ele>524.5</ele><time>2026-04-19T13:31:00.771Z</time></trkpt><trkpt lat="42.5526724" lon="12.0184255"><ele>524.0</ele><time>2026-04-19T13:31:01.773Z</time></trkpt><trkpt lat="42.5526653" lon="12.0186194"><ele>523.5</ele><time>2026-04-19T13:31:02.773Z</time></trkpt><trkpt lat="42.5526287" lon="12.0188144"><ele>523.0</ele><time>2026-04-19T13:31:03.772Z</time></trkpt><trkpt lat="42.5525637" lon="12.0189913"><ele>523.0</ele><time>2026-04-19T13:31:04.771Z</time></trkpt><trkpt lat="42.5524903" lon="12.0191467"><ele>523.0</ele><time>2026-04-19T13:31:05.773Z</time></trkpt><trkpt lat="42.5523743" lon="12.0192496"><ele>523.0</ele><time>2026-04-19T13:31:06.773Z</time></trkpt><trkpt lat="42.5522562" lon="12.0193346"><ele>523.0</ele><time>2026-04-19T13:31:07.773Z</time></trkpt><trkpt lat="42.5521473" lon="12.0194112"><ele>525.25</ele><time>2026-04-19T13:31:08.772Z</time></trkpt><trkpt lat="42.5520554" lon="12.019502"><ele>527.5</ele><time>2026-04-19T13:31:09.772Z</time></trkpt><trkpt lat="42.5519806" lon="12.0196127"><ele>529.75</ele><time>2026-04-19T13:31:10.771Z</time></trkpt><trkpt lat="42.551936" lon="12.0197449"><ele>532.0</ele><time>2026-04-19T13:31:11.773Z</time></trkpt><trkpt lat="42.5519037" lon="12.0198999"><ele>535.0</ele><time>2026-04-19T13:31:12.772Z</time></trkpt><trkpt lat="42.5519128" lon="12.0200787"><ele>538.0</ele><time>2026-04-19T13:31:13.773Z</time></trkpt><trkpt lat="42.5519507" lon="12.0202699"><ele>541.0</ele><time>2026-04-19T13:31:14.772Z</time></trkpt><trkpt lat="42.552006" lon="12.0204646"><ele>544.0</ele><time>2026-04-19T13:31:15.772Z</time></trkpt><trkpt lat="42.5520623" lon="12.0206668"><ele>544.5</ele><time>2026-04-19T13:31:16.773Z</time></trkpt><trkpt lat="42.5521131" lon="12.020857"><ele>545.0</ele><time>2026-04-19T13:31:17.773Z</time></trkpt><trkpt lat="42.5521461" lon="12.0210413"><ele>545.5</ele><time>2026-04-19T13:31:18.772Z</time></trkpt><trkpt lat="42.5521636" lon="12.0212235"><ele>546.0</ele><time>2026-04-19T13:31:19.772Z</time></trkpt><trkpt lat="42.5521711" lon="12.021409"><ele>546.0</ele><time>2026-04-19T13:31:20.772Z</time></trkpt><trkpt lat="42.5521735" lon="12.0215874"><ele>546.0</ele><time>2026-04-19T13:31:21.773Z</time></trkpt><trkpt lat="42.5521744" lon="12.0217566"><ele>546.0</ele><time>2026-04-19T13:31:22.773Z</time></trkpt><trkpt lat="42.5521754" lon="12.0219166"><ele>546.0</ele><time>2026-04-19T13:31:23.772Z</time></trkpt><trkpt lat="42.5521725" lon="12.0220723"><ele>544.75</ele><time>2026-04-19T13:31:24.771Z</time></trkpt><trkpt lat="42.5521709" lon="12.0222428"><ele>543.5</ele><time>2026-04-19T13:31:25.771Z</time></trkpt><trkpt lat="42.5521571" lon="12.0224216"><ele>542.25</ele><time>2026-04-19T13:31:26.771Z</time></trkpt><trkpt lat="42.5521388" lon="12.0226041"><ele>541.0</ele><time>2026-04-19T13:31:27.773Z</time></trkpt><trkpt lat="42.552066" lon="12.0227871"><ele>536.3333333333334</ele><time>2026-04-19T13:31:28.773Z</time></trkpt><trkpt lat="42.5519835" lon="12.0229659"><ele>531.6666666666666</ele><time>2026-04-19T13:31:29.772Z</time></trkpt><trkpt lat="42.5518958" lon="12.0231379"><ele>527.0</ele><time>2026-04-19T13:31:30.773Z</time></trkpt><trkpt lat="42.5518109" lon="12.0232954"><ele>527.75</ele><time>2026-04-19T13:31:31.772Z</time></trkpt><trkpt lat="42.5517392" lon="12.0234504"><ele>528.5</ele><time>2026-04-19T13:31:32.771Z</time></trkpt><trkpt lat="42.551669" lon="12.0235943"><ele>529.25</ele><time>2026-04-19T13:31:33.773Z</time></trkpt><trkpt lat="42.5516027" lon="12.0237304"><ele>530.0</ele><time>2026-04-19T13:31:34.771Z</time></trkpt><trkpt lat="42.5515345" lon="12.0238605"><ele>530.0</ele><time>2026-04-19T13:31:35.773Z</time></trkpt><trkpt lat="42.5514574" lon="12.0239971"><ele>530.0</ele><time>2026-04-19T13:31:36.773Z</time></trkpt><trkpt lat="42.5513758" lon="12.024132"><ele>530.0</ele><time>2026-04-19T13:31:37.772Z</time></trkpt><trkpt lat="42.5512837" lon="12.0242727"><ele>530.0</ele><time>2026-04-19T13:31:38.771Z</time></trkpt><trkpt lat="42.5511771" lon="12.0244071"><ele>528.3333333333333</ele><time>2026-04-19T13:31:39.771Z</time></trkpt><trkpt lat="42.5510544" lon="12.0245268"><ele>526.6666666666666</ele><time>2026-04-19T13:31:40.773Z</time></trkpt><trkpt lat="42.5509238" lon="12.0246288"><ele>525.0</ele><time>2026-04-19T13:31:41.773Z</time></trkpt><trkpt lat="42.5507918" lon="12.0247335"><ele>525.0</ele><time>2026-04-19T13:31:42.771Z</time></trkpt><trkpt lat="42.5506675" lon="12.024841"><ele>525.0</ele><time>2026-04-19T13:31:43.773Z</time></trkpt><trkpt lat="42.5505563" lon="12.0249627"><ele>525.0</ele><time>2026-04-19T13:31:44.773Z</time></trkpt><trkpt lat="42.5504703" lon="12.0250982"><ele>525.0</ele><time>2026-04-19T13:31:45.772Z</time></trkpt><trkpt lat="42.5504177" lon="12.0252626"><ele>526.0</ele><time>2026-04-19T13:31:46.771Z</time></trkpt><trkpt lat="42.5503945" lon="12.0254452"><ele>527.0</ele><time>2026-04-19T13:31:47.771Z</time></trkpt><trkpt lat="42.5503863" lon="12.0256475"><ele>528.0</ele><time>2026-04-19T13:31:48.771Z</time></trkpt><trkpt lat="42.5503728" lon="12.0258636"><ele>529.0</ele><time>2026-04-19T13:31:49.772Z</time></trkpt><trkpt lat="42.5503622" lon="12.0260908"><ele>529.0</ele><time>2026-04-19T13:31:50.772Z</time></trkpt><trkpt lat="42.5503472" lon="12.0263265"><ele>529.0</ele><time>2026-04-19T13:31:51.772Z</time></trkpt><trkpt lat="42.5503371" lon="12.026563"><ele>529.0</ele><time>2026-04-19T13:31:52.772Z</time></trkpt><trkpt lat="42.5503403" lon="12.0267933"><ele>530.6666666666667</ele><time>2026-04-19T13:31:53.771Z</time></trkpt><trkpt lat="42.5503631" lon="12.0270135"><ele>532.3333333333334</ele><time>2026-04-19T13:31:54.772Z</time></trkpt><trkpt lat="42.5504094" lon="12.0272256"><ele>534.0</ele><time>2026-04-19T13:31:55.772Z</time></trkpt><trkpt lat="42.5504732" lon="12.0274294"><ele>534.0</ele><time>2026-04-19T13:31:56.773Z</time></trkpt><trkpt lat="42.5505473" lon="12.0276034"><ele>534.0</ele><time>2026-04-19T13:31:57.772Z</time></trkpt><trkpt lat="42.550618" lon="12.027768"><ele>534.0</ele><time>2026-04-19T13:31:58.772Z</time></trkpt><trkpt lat="42.5506687" lon="12.027929"><ele>534.0</ele><time>2026-04-19T13:31:59.773Z</time></trkpt><trkpt lat="42.5506968" lon="12.028079"><ele>534.0</ele><time>2026-04-19T13:32:00.773Z</time></trkpt><trkpt lat="42.5506988" lon="12.0282309"><ele>534.0</ele><time>2026-04-19T13:32:01.772Z</time></trkpt><trkpt lat="42.5506534" lon="12.0283596"><ele>534.0</ele><time>2026-04-19T13:32:02.773Z</time></trkpt><trkpt lat="42.550573" lon="12.0284772"><ele>534.0</ele><time>2026-04-19T13:32:03.773Z</time></trkpt><trkpt lat="42.5504574" lon="12.0285657"><ele>533.25</ele><time>2026-04-19T13:32:04.773Z</time></trkpt><trkpt lat="42.5503354" lon="12.028643"><ele>532.5</ele><time>2026-04-19T13:32:05.773Z</time></trkpt><trkpt lat="42.5502027" lon="12.028738"><ele>531.75</ele><time>2026-04-19T13:32:06.771Z</time></trkpt><trkpt lat="42.5500619" lon="12.0288351"><ele>531.0</ele><time>2026-04-19T13:32:07.772Z</time></trkpt><trkpt lat="42.5499185" lon="12.0289452"><ele>531.0</ele><time>2026-04-19T13:32:08.772Z</time></trkpt><trkpt lat="42.5497676" lon="12.0290715"><ele>531.0</ele><time>2026-04-19T13:32:09.773Z</time></trkpt><trkpt lat="42.5496047" lon="12.0292074"><ele>531.0</ele><time>2026-04-19T13:32:10.772Z</time></trkpt><trkpt lat="42.5494317" lon="12.0293468"><ele>531.0</ele><time>2026-04-19T13:32:11.773Z</time></trkpt><trkpt lat="42.5492647" lon="12.0294961"><ele>531.0</ele><time>2026-04-19T13:32:12.773Z</time></trkpt><trkpt lat="42.5490988" lon="12.0296574"><ele>531.0</ele><time>2026-04-19T13:32:13.772Z</time></trkpt><trkpt lat="42.5489343" lon="12.0298143"><ele>531.0</ele><time>2026-04-19T13:32:14.773Z</time></trkpt><trkpt lat="42.5487872" lon="12.0299621"><ele>531.0</ele><time>2026-04-19T13:32:15.773Z</time></trkpt><trkpt lat="42.5486522" lon="12.0301021"><ele>531.0</ele><time>2026-04-19T13:32:16.773Z</time></trkpt><trkpt lat="42.5485236" lon="12.0302354"><ele>532.6666666666666</ele><time>2026-04-19T13:32:17.772Z</time></trkpt><trkpt lat="42.548402" lon="12.0303524"><ele>534.3333333333333</ele><time>2026-04-19T13:32:18.773Z</time></trkpt><trkpt lat="42.5482702" lon="12.030432"><ele>536.0</ele><time>2026-04-19T13:32:19.771Z</time></trkpt><trkpt lat="42.54799" lon="12.0304838"><ele>538.25</ele><time>2026-04-19T13:32:21.773Z</time></trkpt><trkpt lat="42.5478495" lon="12.0304759"><ele>540.5</ele><time>2026-04-19T13:32:22.772Z</time></trkpt><trkpt lat="42.5477157" lon="12.030473"><ele>542.75</ele><time>2026-04-19T13:32:23.773Z</time></trkpt><trkpt lat="42.5475826" lon="12.0304892"><ele>545.0</ele><time>2026-04-19T13:32:24.772Z</time></trkpt><trkpt lat="42.5474525" lon="12.0305238"><ele>545.0</ele><time>2026-04-19T13:32:25.772Z</time></trkpt><trkpt lat="42.5473268" lon="12.0306183"><ele>545.0</ele><time>2026-04-19T13:32:26.773Z</time></trkpt><trkpt lat="42.5471945" lon="12.0307137"><ele>545.0</ele><time>2026-04-19T13:32:27.772Z</time></trkpt><trkpt lat="42.5470603" lon="12.0308045"><ele>545.0</ele><time>2026-04-19T13:32:28.773Z</time></trkpt><trkpt lat="42.546915" lon="12.0308856"><ele>547.75</ele><time>2026-04-19T13:32:29.773Z</time></trkpt><trkpt lat="42.5467759" lon="12.0309569"><ele>550.5</ele><time>2026-04-19T13:32:30.772Z</time></trkpt><trkpt lat="42.5466401" lon="12.0310197"><ele>553.25</ele><time>2026-04-19T13:32:31.773Z</time></trkpt><trkpt lat="42.5465052" lon="12.0310641"><ele>556.0</ele><time>2026-04-19T13:32:32.772Z</time></trkpt><trkpt lat="42.5463624" lon="12.0310889"><ele>556.0</ele><time>2026-04-19T13:32:33.772Z</time></trkpt><trkpt lat="42.5462136" lon="12.0311009"><ele>556.0</ele><time>2026-04-19T13:32:34.771Z</time></trkpt><trkpt lat="42.546071" lon="12.0310936"><ele>556.0</ele><time>2026-04-19T13:32:35.773Z</time></trkpt><trkpt lat="42.5459404" lon="12.0310841"><ele>556.0</ele><time>2026-04-19T13:32:36.773Z</time></trkpt><trkpt lat="42.5458224" lon="12.0310724"><ele>557.0</ele><time>2026-04-19T13:32:37.772Z</time></trkpt><trkpt lat="42.5457158" lon="12.0310592"><ele>558.0</ele><time>2026-04-19T13:32:38.771Z</time></trkpt><trkpt lat="42.5456178" lon="12.0310543"><ele>559.0</ele><time>2026-04-19T13:32:39.772Z</time></trkpt><trkpt lat="42.545527" lon="12.0310559"><ele>560.0</ele><time>2026-04-19T13:32:40.772Z</time></trkpt><trkpt lat="42.5454479" lon="12.0310598"><ele>561.0</ele><time>2026-04-19T13:32:41.772Z</time></trkpt><trkpt lat="42.5453721" lon="12.0310752"><ele>561.5</ele><time>2026-04-19T13:32:42.772Z</time></trkpt><trkpt lat="42.5452938" lon="12.0311008"><ele>562.0</ele><time>2026-04-19T13:32:43.772Z</time></trkpt><trkpt lat="42.5452174" lon="12.0311339"><ele>562.5</ele><time>2026-04-19T13:32:44.773Z</time></trkpt><trkpt lat="42.545139" lon="12.0311608"><ele>563.0</ele><time>2026-04-19T13:32:45.772Z</time></trkpt><trkpt lat="42.5450656" lon="12.0312024"><ele>563.5</ele><time>2026-04-19T13:32:46.772Z</time></trkpt><trkpt lat="42.5449748" lon="12.0312319"><ele>564.0</ele><time>2026-04-19T13:32:47.772Z</time></trkpt><trkpt lat="42.5448862" lon="12.0312594"><ele>564.0</ele><time>2026-04-19T13:32:48.772Z</time></trkpt><trkpt lat="42.5447818" lon="12.0312875"><ele>564.0</ele><time>2026-04-19T13:32:49.772Z</time></trkpt><trkpt lat="42.5446602" lon="12.0313089"><ele>564.0</ele><time>2026-04-19T13:32:50.772Z</time></trkpt><trkpt lat="42.5445189" lon="12.031316"><ele>564.0</ele><time>2026-04-19T13:32:51.772Z</time></trkpt><trkpt lat="42.5443606" lon="12.031316"><ele>564.6666666666666</ele><time>2026-04-19T13:32:52.772Z</time></trkpt><trkpt lat="42.5441875" lon="12.031324"><ele>565.3333333333333</ele><time>2026-04-19T13:32:53.773Z</time></trkpt><trkpt lat="42.5440121" lon="12.0313506"><ele>566.0</ele><time>2026-04-19T13:32:54.772Z</time></trkpt><trkpt lat="42.5438335" lon="12.0313947"><ele>567.3333333333333</ele><time>2026-04-19T13:32:55.771Z</time></trkpt><trkpt lat="42.5436554" lon="12.0314453"><ele>568.6666666666666</ele><time>2026-04-19T13:32:56.773Z</time></trkpt><trkpt lat="42.5434925" lon="12.0315038"><ele>570.0</ele><time>2026-04-19T13:32:57.771Z</time></trkpt><trkpt lat="42.5433379" lon="12.0315584"><ele>570.0</ele><time>2026-04-19T13:32:58.773Z</time></trkpt><trkpt lat="42.5431873" lon="12.0315929"><ele>570.0</ele><time>2026-04-19T13:32:59.772Z</time></trkpt><trkpt lat="42.5430395" lon="12.0316251"><ele>570.0</ele><time>2026-04-19T13:33:00.771Z</time></trkpt><trkpt lat="42.5428941" lon="12.0316517"><ele>570.0</ele><time>2026-04-19T13:33:01.771Z</time></trkpt><trkpt lat="42.5427501" lon="12.0316664"><ele>570.0</ele><time>2026-04-19T13:33:02.773Z</time></trkpt><trkpt lat="42.5426116" lon="12.0316772"><ele>570.0</ele><time>2026-04-19T13:33:03.773Z</time></trkpt><trkpt lat="42.5424748" lon="12.0316908"><ele>570.0</ele><time>2026-04-19T13:33:04.773Z</time></trkpt><trkpt lat="42.5423417" lon="12.0317096"><ele>570.0</ele><time>2026-04-19T13:33:05.773Z</time></trkpt><trkpt lat="42.5422106" lon="12.0317442"><ele>570.0</ele><time>2026-04-19T13:33:06.772Z</time></trkpt><trkpt lat="42.5420833" lon="12.0318041"><ele>570.0</ele><time>2026-04-19T13:33:07.771Z</time></trkpt><trkpt lat="42.541955" lon="12.031876"><ele>570.0</ele><time>2026-04-19T13:33:08.773Z</time></trkpt><trkpt lat="42.541834" lon="12.0319731"><ele>570.0</ele><time>2026-04-19T13:33:09.772Z</time></trkpt><trkpt lat="42.5417104" lon="12.0320662"><ele>569.75</ele><time>2026-04-19T13:33:10.773Z</time></trkpt><trkpt lat="42.5415854" lon="12.0321709"><ele>569.5</ele><time>2026-04-19T13:33:11.773Z</time></trkpt><trkpt lat="42.5414598" lon="12.0322736"><ele>569.25</ele><time>2026-04-19T13:33:12.771Z</time></trkpt><trkpt lat="42.5413352" lon="12.032366"><ele>569.0</ele><time>2026-04-19T13:33:13.771Z</time></trkpt><trkpt lat="42.54122" lon="12.0324546"><ele>568.5</ele><time>2026-04-19T13:33:14.772Z</time></trkpt><trkpt lat="42.5410971" lon="12.0325418"><ele>568.0</ele><time>2026-04-19T13:33:15.773Z</time></trkpt><trkpt lat="42.5409846" lon="12.0326175"><ele>567.5</ele><time>2026-04-19T13:33:16.772Z</time></trkpt><trkpt lat="42.540874" lon="12.0326856"><ele>567.0</ele><time>2026-04-19T13:33:17.773Z</time></trkpt><trkpt lat="42.54077" lon="12.0327609"><ele>567.0</ele><time>2026-04-19T13:33:18.773Z</time></trkpt><trkpt lat="42.5406685" lon="12.0328363"><ele>567.0</ele><time>2026-04-19T13:33:19.773Z</time></trkpt><trkpt lat="42.5405644" lon="12.0329201"><ele>567.0</ele><time>2026-04-19T13:33:20.772Z</time></trkpt><trkpt lat="42.5404594" lon="12.032997"><ele>567.0</ele><time>2026-04-19T13:33:21.771Z</time></trkpt><trkpt lat="42.5403664" lon="12.0330831"><ele>569.0</ele><time>2026-04-19T13:33:22.772Z</time></trkpt><trkpt lat="42.5402824" lon="12.0331766"><ele>571.0</ele><time>2026-04-19T13:33:23.773Z</time></trkpt><trkpt lat="42.540217" lon="12.033277"><ele>573.0</ele><time>2026-04-19T13:33:24.772Z</time></trkpt><trkpt lat="42.5401659" lon="12.0333704"><ele>575.0</ele><time>2026-04-19T13:33:25.771Z</time></trkpt><trkpt lat="42.5401397" lon="12.0334709"><ele>577.0</ele><time>2026-04-19T13:33:26.771Z</time></trkpt><trkpt lat="42.5401113" lon="12.03362"><ele>577.2</ele><time>2026-04-19T13:33:28.772Z</time></trkpt><trkpt lat="42.5400761" lon="12.0337159"><ele>577.4000000000001</ele><time>2026-04-19T13:33:30.772Z</time></trkpt><trkpt lat="42.5400076" lon="12.0337942"><ele>577.5999999999999</ele><time>2026-04-19T13:33:32.771Z</time></trkpt><trkpt lat="42.5399096" lon="12.0338055"><ele>577.8</ele><time>2026-04-19T13:33:34.772Z</time></trkpt><trkpt lat="42.5397741" lon="12.0338379"><ele>578.0</ele><time>2026-04-19T13:33:36.772Z</time></trkpt><trkpt lat="42.5396848" lon="12.0338635"><ele>578.0</ele><time>2026-04-19T13:33:37.772Z</time></trkpt><trkpt lat="42.5395808" lon="12.0338863"><ele>578.0</ele><time>2026-04-19T13:33:38.772Z</time></trkpt><trkpt lat="42.539466" lon="12.0339086"><ele>578.0</ele><time>2026-04-19T13:33:39.773Z</time></trkpt><trkpt lat="42.5393417" lon="12.0339338"><ele>578.0</ele><time>2026-04-19T13:33:40.773Z</time></trkpt><trkpt lat="42.5392122" lon="12.0339576"><ele>579.25</ele><time>2026-04-19T13:33:41.773Z</time></trkpt><trkpt lat="42.5390876" lon="12.0339712"><ele>580.5</ele><time>2026-04-19T13:33:42.772Z</time></trkpt><trkpt lat="42.5389638" lon="12.0339708"><ele>581.75</ele><time>2026-04-19T13:33:43.772Z</time></trkpt><trkpt lat="42.5388449" lon="12.0339508"><ele>583.0</ele><time>2026-04-19T13:33:44.772Z</time></trkpt><trkpt lat="42.5387286" lon="12.0339161"><ele>580.8</ele><time>2026-04-19T13:33:45.773Z</time></trkpt><trkpt lat="42.5386169" lon="12.0338749"><ele>578.5999999999999</ele><time>2026-04-19T13:33:46.772Z</time></trkpt><trkpt lat="42.5385069" lon="12.0338315"><ele>576.4000000000001</ele><time>2026-04-19T13:33:47.771Z</time></trkpt><trkpt lat="42.5384054" lon="12.0337695"><ele>574.2</ele><time>2026-04-19T13:33:48.772Z</time></trkpt><trkpt lat="42.5383214" lon="12.0336804"><ele>572.0</ele><time>2026-04-19T13:33:49.772Z</time></trkpt><trkpt lat="42.5382514" lon="12.0335772"><ele>572.0</ele><time>2026-04-19T13:33:50.772Z</time></trkpt><trkpt lat="42.5381844" lon="12.0334761"><ele>572.0</ele><time>2026-04-19T13:33:51.772Z</time></trkpt><trkpt lat="42.5381139" lon="12.0333851"><ele>572.0</ele><time>2026-04-19T13:33:52.773Z</time></trkpt><trkpt lat="42.5380444" lon="12.0332953"><ele>572.0</ele><time>2026-04-19T13:33:53.773Z</time></trkpt><trkpt lat="42.5379669" lon="12.0332285"><ele>572.0</ele><time>2026-04-19T13:33:54.773Z</time></trkpt><trkpt lat="42.5378803" lon="12.0331927"><ele>571.5</ele><time>2026-04-19T13:33:55.772Z</time></trkpt><trkpt lat="42.5377956" lon="12.0331959"><ele>571.0</ele><time>2026-04-19T13:33:56.772Z</time></trkpt><trkpt lat="42.5377197" lon="12.0332366"><ele>570.5</ele><time>2026-04-19T13:33:57.772Z</time></trkpt><trkpt lat="42.5376537" lon="12.033299"><ele>570.0</ele><time>2026-04-19T13:33:58.772Z</time></trkpt><trkpt lat="42.5375951" lon="12.033378"><ele>569.5</ele><time>2026-04-19T13:33:59.773Z</time></trkpt><trkpt lat="42.5375451" lon="12.0334655"><ele>569.0</ele><time>2026-04-19T13:34:00.771Z</time></trkpt><trkpt lat="42.5375131" lon="12.033559"><ele>567.5</ele><time>2026-04-19T13:34:01.772Z</time></trkpt><trkpt lat="42.5375035" lon="12.0336664"><ele>566.0</ele><time>2026-04-19T13:34:02.773Z</time></trkpt><trkpt lat="42.5375222" lon="12.0337702"><ele>564.5</ele><time>2026-04-19T13:34:03.772Z</time></trkpt><trkpt lat="42.5375631" lon="12.033873"><ele>563.0</ele><time>2026-04-19T13:34:04.772Z</time></trkpt><trkpt lat="42.5376174" lon="12.033974"><ele>561.5</ele><time>2026-04-19T13:34:05.772Z</time></trkpt><trkpt lat="42.5376775" lon="12.0340806"><ele>560.0</ele><time>2026-04-19T13:34:06.773Z</time></trkpt><trkpt lat="42.5377361" lon="12.0341841"><ele>560.4</ele><time>2026-04-19T13:34:07.773Z</time></trkpt><trkpt lat="42.5377976" lon="12.0342792"><ele>560.8</ele><time>2026-04-19T13:34:08.773Z</time></trkpt><trkpt lat="42.5378697" lon="12.0343464"><ele>561.2</ele><time>2026-04-19T13:34:09.772Z</time></trkpt><trkpt lat="42.5379405" lon="12.0343932"><ele>561.6</ele><time>2026-04-19T13:34:11.772Z</time></trkpt><trkpt lat="42.5380543" lon="12.0344223"><ele>562.0</ele><time>2026-04-19T13:34:22.772Z</time></trkpt><trkpt lat="42.5381712" lon="12.0344961"><ele>562.0</ele><time>2026-04-19T13:34:24.771Z</time></trkpt><trkpt lat="42.5382281" lon="12.0345503"><ele>562.0</ele><time>2026-04-19T13:34:25.772Z</time></trkpt><trkpt lat="42.5382823" lon="12.0346133"><ele>562.0</ele><time>2026-04-19T13:34:26.773Z</time></trkpt><trkpt lat="42.5383287" lon="12.0346984"><ele>562.0</ele><time>2026-04-19T13:34:27.772Z</time></trkpt><trkpt lat="42.5383659" lon="12.0348013"><ele>562.0</ele><time>2026-04-19T13:34:28.773Z</time></trkpt><trkpt lat="42.538398" lon="12.0349217"><ele>562.0</ele><time>2026-04-19T13:34:29.772Z</time></trkpt><trkpt lat="42.5384156" lon="12.0350374"><ele>560.1666666666667</ele><time>2026-04-19T13:34:30.771Z</time></trkpt><trkpt lat="42.5384303" lon="12.0351472"><ele>558.3333333333334</ele><time>2026-04-19T13:34:31.772Z</time></trkpt><trkpt lat="42.5384441" lon="12.0352626"><ele>556.5</ele><time>2026-04-19T13:34:32.771Z</time></trkpt><trkpt lat="42.5384561" lon="12.0353657"><ele>554.6666666666666</ele><time>2026-04-19T13:34:33.772Z</time></trkpt><trkpt lat="42.538473" lon="12.035513"><ele>552.8333333333333</ele><time>2026-04-19T13:34:35.772Z</time></trkpt><trkpt lat="42.5384722" lon="12.0356247"><ele>551.0</ele><time>2026-04-19T13:34:37.773Z</time></trkpt><trkpt lat="42.5384445" lon="12.0357735"><ele>550.2</ele><time>2026-04-19T13:34:43.773Z</time></trkpt><trkpt lat="42.5383686" lon="12.0358867"><ele>549.4000000000001</ele><time>2026-04-19T13:34:44.772Z</time></trkpt><trkpt lat="42.5383032" lon="12.035989"><ele>548.6</ele><time>2026-04-19T13:34:45.773Z</time></trkpt><trkpt lat="42.5382484" lon="12.0360705"><ele>547.8000000000001</ele><time>2026-04-19T13:34:46.773Z</time></trkpt><trkpt lat="42.538185" lon="12.036159"><ele>547.0</ele><time>2026-04-19T13:34:47.773Z</time></trkpt><trkpt lat="42.5381115" lon="12.0362606"><ele>547.0</ele><time>2026-04-19T13:34:48.773Z</time></trkpt><trkpt lat="42.5380042" lon="12.0364152"><ele>547.0</ele><time>2026-04-19T13:34:49.772Z</time></trkpt><trkpt lat="42.5379068" lon="12.0365536"><ele>547.0</ele><time>2026-04-19T13:34:50.772Z</time></trkpt><trkpt lat="42.5378272" lon="12.0366737"><ele>547.0</ele><time>2026-04-19T13:34:51.773Z</time></trkpt><trkpt lat="42.5377522" lon="12.0367793"><ele>546.25</ele><time>2026-04-19T13:34:52.772Z</time></trkpt><trkpt lat="42.5376743" lon="12.0368849"><ele>545.5</ele><time>2026-04-19T13:34:53.773Z</time></trkpt><trkpt lat="42.537587" lon="12.0370147"><ele>544.75</ele><time>2026-04-19T13:34:54.773Z</time></trkpt><trkpt lat="42.5374723" lon="12.0371695"><ele>544.0</ele><time>2026-04-19T13:34:55.773Z</time></trkpt><trkpt lat="42.5373457" lon="12.0373301"><ele>543.3333333333334</ele><time>2026-04-19T13:34:56.773Z</time></trkpt><trkpt lat="42.5372113" lon="12.0375031"><ele>542.6666666666666</ele><time>2026-04-19T13:34:57.773Z</time></trkpt><trkpt lat="42.537082" lon="12.0376787"><ele>542.0</ele><time>2026-04-19T13:34:58.773Z</time></trkpt><trkpt lat="42.5369563" lon="12.0378556"><ele>541.3333333333333</ele><time>2026-04-19T13:34:59.773Z</time></trkpt><trkpt lat="42.5368282" lon="12.0380301"><ele>540.6666666666666</ele><time>2026-04-19T13:35:00.773Z</time></trkpt><trkpt lat="42.5367067" lon="12.0381951"><ele>540.0</ele><time>2026-04-19T13:35:01.771Z</time></trkpt><trkpt lat="42.5365912" lon="12.0383501"><ele>540.0</ele><time>2026-04-19T13:35:02.771Z</time></trkpt><trkpt lat="42.5364789" lon="12.0385001"><ele>540.0</ele><time>2026-04-19T13:35:03.772Z</time></trkpt><trkpt lat="42.5363689" lon="12.0386425"><ele>540.0</ele><time>2026-04-19T13:35:04.773Z</time></trkpt><trkpt lat="42.5362595" lon="12.0387812"><ele>540.3333333333334</ele><time>2026-04-19T13:35:05.772Z</time></trkpt><trkpt lat="42.5361408" lon="12.038926"><ele>540.6666666666667</ele><time>2026-04-19T13:35:06.771Z</time></trkpt><trkpt lat="42.5360215" lon="12.039073"><ele>541.0</ele><time>2026-04-19T13:35:07.773Z</time></trkpt><trkpt lat="42.5358924" lon="12.039241"><ele>539.3333333333334</ele><time>2026-04-19T13:35:08.773Z</time></trkpt><trkpt lat="42.5357468" lon="12.0394254"><ele>537.6666666666666</ele><time>2026-04-19T13:35:09.773Z</time></trkpt><trkpt lat="42.5355937" lon="12.0396049"><ele>536.0</ele><time>2026-04-19T13:35:10.772Z</time></trkpt><trkpt lat="42.5354372" lon="12.039783"><ele>536.3333333333333</ele><time>2026-04-19T13:35:11.773Z</time></trkpt><trkpt lat="42.5352844" lon="12.0399662"><ele>536.6666666666666</ele><time>2026-04-19T13:35:12.773Z</time></trkpt><trkpt lat="42.5351349" lon="12.0401632"><ele>537.0</ele><time>2026-04-19T13:35:13.772Z</time></trkpt><trkpt lat="42.5349884" lon="12.0403721"><ele>534.6666666666666</ele><time>2026-04-19T13:35:14.772Z</time></trkpt><trkpt lat="42.5348418" lon="12.0405905"><ele>532.3333333333333</ele><time>2026-04-19T13:35:15.772Z</time></trkpt><trkpt lat="42.5346954" lon="12.0408265"><ele>530.0</ele><time>2026-04-19T13:35:16.771Z</time></trkpt><trkpt lat="42.5345519" lon="12.0410716"><ele>527.0</ele><time>2026-04-19T13:35:17.773Z</time></trkpt><trkpt lat="42.5344138" lon="12.0413222"><ele>524.0</ele><time>2026-04-19T13:35:18.773Z</time></trkpt><trkpt lat="42.5342878" lon="12.0415716"><ele>522.3333333333333</ele><time>2026-04-19T13:35:19.772Z</time></trkpt><trkpt lat="42.5341642" lon="12.0418193"><ele>520.6666666666666</ele><time>2026-04-19T13:35:20.773Z</time></trkpt><trkpt lat="42.5340436" lon="12.0420791"><ele>519.0</ele><time>2026-04-19T13:35:21.773Z</time></trkpt><trkpt lat="42.5339233" lon="12.0423192"><ele>518.0</ele><time>2026-04-19T13:35:22.772Z</time></trkpt><trkpt lat="42.5338066" lon="12.0425302"><ele>517.0</ele><time>2026-04-19T13:35:23.772Z</time></trkpt><trkpt lat="42.5336874" lon="12.0427588"><ele>516.0</ele><time>2026-04-19T13:35:24.773Z</time></trkpt><trkpt lat="42.5335635" lon="12.042988"><ele>514.3333333333334</ele><time>2026-04-19T13:35:25.773Z</time></trkpt><trkpt lat="42.5334358" lon="12.0432123"><ele>512.6666666666667</ele><time>2026-04-19T13:35:26.773Z</time></trkpt><trkpt lat="42.5333096" lon="12.0434282"><ele>511.0</ele><time>2026-04-19T13:35:27.773Z</time></trkpt><trkpt lat="42.533186" lon="12.0436418"><ele>511.0</ele><time>2026-04-19T13:35:28.773Z</time></trkpt><trkpt lat="42.5330633" lon="12.04385"><ele>511.0</ele><time>2026-04-19T13:35:29.773Z</time></trkpt><trkpt lat="42.5329442" lon="12.0440505"><ele>511.0</ele><time>2026-04-19T13:35:30.772Z</time></trkpt><trkpt lat="42.5328255" lon="12.0442506"><ele>508.0</ele><time>2026-04-19T13:35:31.773Z</time></trkpt><trkpt lat="42.5327223" lon="12.0444438"><ele>505.0</ele><time>2026-04-19T13:35:32.772Z</time></trkpt><trkpt lat="42.5326317" lon="12.0446523"><ele>502.0</ele><time>2026-04-19T13:35:33.772Z</time></trkpt><trkpt lat="42.5325618" lon="12.0448734"><ele>501.6666666666667</ele><time>2026-04-19T13:35:34.771Z</time></trkpt><trkpt lat="42.5325143" lon="12.045086"><ele>501.33333333333337</ele><time>2026-04-19T13:35:35.773Z</time></trkpt><trkpt lat="42.5324638" lon="12.0453229"><ele>501.0</ele><time>2026-04-19T13:35:36.772Z</time></trkpt><trkpt lat="42.5324093" lon="12.0455729"><ele>499.66666666666663</ele><time>2026-04-19T13:35:37.773Z</time></trkpt><trkpt lat="42.5323564" lon="12.0458254"><ele>498.3333333333333</ele><time>2026-04-19T13:35:38.773Z</time></trkpt><trkpt lat="42.5323054" lon="12.046078"><ele>497.0</ele><time>2026-04-19T13:35:39.773Z</time></trkpt><trkpt lat="42.5322569" lon="12.0463297"><ele>497.0</ele><time>2026-04-19T13:35:40.773Z</time></trkpt><trkpt lat="42.5322098" lon="12.0465771"><ele>497.0</ele><time>2026-04-19T13:35:41.772Z</time></trkpt><trkpt lat="42.532157" lon="12.0468152"><ele>497.0</ele><time>2026-04-19T13:35:42.772Z</time></trkpt><trkpt lat="42.5321012" lon="12.0470378"><ele>493.66666666666663</ele><time>2026-04-19T13:35:43.772Z</time></trkpt><trkpt lat="42.5320415" lon="12.0472543"><ele>490.33333333333337</ele><time>2026-04-19T13:35:44.772Z</time></trkpt><trkpt lat="42.5319815" lon="12.047457"><ele>487.0</ele><time>2026-04-19T13:35:45.772Z</time></trkpt><trkpt lat="42.5319136" lon="12.0476363"><ele>487.0</ele><time>2026-04-19T13:35:46.772Z</time></trkpt><trkpt lat="42.5318461" lon="12.0478274"><ele>487.0</ele><time>2026-04-19T13:35:47.772Z</time></trkpt><trkpt lat="42.5317899" lon="12.0480333"><ele>487.0</ele><time>2026-04-19T13:35:48.772Z</time></trkpt><trkpt lat="42.5317414" lon="12.0482464"><ele>487.33333333333337</ele><time>2026-04-19T13:35:49.772Z</time></trkpt><trkpt lat="42.5316943" lon="12.0484644"><ele>487.66666666666663</ele><time>2026-04-19T13:35:50.772Z</time></trkpt><trkpt lat="42.5316486" lon="12.0486852"><ele>488.0</ele><time>2026-04-19T13:35:51.772Z</time></trkpt><trkpt lat="42.5316088" lon="12.0489016"><ele>488.0</ele><time>2026-04-19T13:35:52.772Z</time></trkpt><trkpt lat="42.5315642" lon="12.0491111"><ele>488.0</ele><time>2026-04-19T13:35:53.773Z</time></trkpt><trkpt lat="42.5315209" lon="12.0493144"><ele>488.0</ele><time>2026-04-19T13:35:54.773Z</time></trkpt><trkpt lat="42.5314802" lon="12.0495134"><ele>487.0</ele><time>2026-04-19T13:35:55.772Z</time></trkpt><trkpt lat="42.5314456" lon="12.0497113"><ele>486.0</ele><time>2026-04-19T13:35:56.772Z</time></trkpt><trkpt lat="42.5314085" lon="12.0498992"><ele>485.0</ele><time>2026-04-19T13:35:57.772Z</time></trkpt><trkpt lat="42.5313713" lon="12.0500879"><ele>484.0</ele><time>2026-04-19T13:35:58.773Z</time></trkpt><trkpt lat="42.5313347" lon="12.050269"><ele>482.75</ele><time>2026-04-19T13:35:59.773Z</time></trkpt><trkpt lat="42.5312963" lon="12.0504476"><ele>481.5</ele><time>2026-04-19T13:36:00.773Z</time></trkpt><trkpt lat="42.5312622" lon="12.0506222"><ele>480.25</ele><time>2026-04-19T13:36:01.772Z</time></trkpt><trkpt lat="42.5312239" lon="12.050794"><ele>479.0</ele><time>2026-04-19T13:36:02.773Z</time></trkpt><trkpt lat="42.531188" lon="12.050968"><ele>478.75</ele><time>2026-04-19T13:36:03.771Z</time></trkpt><trkpt lat="42.531155" lon="12.0511373"><ele>478.5</ele><time>2026-04-19T13:36:04.772Z</time></trkpt><trkpt lat="42.5311265" lon="12.0512949"><ele>478.25</ele><time>2026-04-19T13:36:05.773Z</time></trkpt><trkpt lat="42.5310999" lon="12.0514566"><ele>478.0</ele><time>2026-04-19T13:36:06.771Z</time></trkpt><trkpt lat="42.5310794" lon="12.0516055"><ele>476.79999999999995</ele><time>2026-04-19T13:36:07.772Z</time></trkpt><trkpt lat="42.5310546" lon="12.0517429"><ele>475.59999999999997</ele><time>2026-04-19T13:36:08.772Z</time></trkpt><trkpt lat="42.5310305" lon="12.0518949"><ele>474.40000000000003</ele><time>2026-04-19T13:36:09.772Z</time></trkpt><trkpt lat="42.5310083" lon="12.0520414"><ele>473.20000000000005</ele><time>2026-04-19T13:36:10.771Z</time></trkpt><trkpt lat="42.5309872" lon="12.0521805"><ele>472.0</ele><time>2026-04-19T13:36:11.772Z</time></trkpt><trkpt lat="42.5309604" lon="12.0523184"><ele>472.0</ele><time>2026-04-19T13:36:12.773Z</time></trkpt><trkpt lat="42.5309347" lon="12.0524533"><ele>472.00000000000006</ele><time>2026-04-19T13:36:13.773Z</time></trkpt><trkpt lat="42.5309076" lon="12.0525979"><ele>472.00000000000006</ele><time>2026-04-19T13:36:14.772Z</time></trkpt><trkpt lat="42.530876" lon="12.052749"><ele>472.0</ele><time>2026-04-19T13:36:15.771Z</time></trkpt><trkpt lat="42.5308481" lon="12.0528955"><ele>472.0</ele><time>2026-04-19T13:36:16.773Z</time></trkpt><trkpt lat="42.5308112" lon="12.0530306"><ele>471.75</ele><time>2026-04-19T13:36:17.772Z</time></trkpt><trkpt lat="42.5307653" lon="12.0531576"><ele>471.5</ele><time>2026-04-19T13:36:18.772Z</time></trkpt><trkpt lat="42.5307036" lon="12.0532715"><ele>471.25</ele><time>2026-04-19T13:36:19.772Z</time></trkpt><trkpt lat="42.5306267" lon="12.0533793"><ele>471.0</ele><time>2026-04-19T13:36:20.772Z</time></trkpt><trkpt lat="42.5305037" lon="12.0534466"><ele>468.5</ele><time>2026-04-19T13:36:21.772Z</time></trkpt><trkpt lat="42.5303607" lon="12.0535128"><ele>466.0</ele><time>2026-04-19T13:36:22.771Z</time></trkpt><trkpt lat="42.529879" lon="12.0536291"><ele>466.0</ele><time>2026-04-19T13:36:25.773Z</time></trkpt><trkpt lat="42.5297327" lon="12.0536675"><ele>466.0</ele><time>2026-04-19T13:36:26.773Z</time></trkpt><trkpt lat="42.5295964" lon="12.0536987"><ele>466.0</ele><time>2026-04-19T13:36:27.772Z</time></trkpt><trkpt lat="42.5294661" lon="12.0537317"><ele>466.0</ele><time>2026-04-19T13:36:28.771Z</time></trkpt><trkpt lat="42.5293295" lon="12.0537752"><ele>464.6666666666667</ele><time>2026-04-19T13:36:29.773Z</time></trkpt><trkpt lat="42.529172" lon="12.0538273"><ele>463.33333333333337</ele><time>2026-04-19T13:36:30.773Z</time></trkpt><trkpt lat="42.5290054" lon="12.0538636"><ele>462.0</ele><time>2026-04-19T13:36:31.773Z</time></trkpt><trkpt lat="42.5288423" lon="12.0538887"><ele>460.0</ele><time>2026-04-19T13:36:32.772Z</time></trkpt><trkpt lat="42.5286872" lon="12.0539052"><ele>458.0</ele><time>2026-04-19T13:36:33.772Z</time></trkpt><trkpt lat="42.5285368" lon="12.0539129"><ele>456.0</ele><time>2026-04-19T13:36:34.771Z</time></trkpt><trkpt lat="42.5283868" lon="12.0538884"><ele>456.0</ele><time>2026-04-19T13:36:35.773Z</time></trkpt><trkpt lat="42.5282439" lon="12.0538485"><ele>456.0</ele><time>2026-04-19T13:36:36.772Z</time></trkpt><trkpt lat="42.5281056" lon="12.0537933"><ele>456.0</ele><time>2026-04-19T13:36:37.772Z</time></trkpt><trkpt lat="42.5279672" lon="12.0537412"><ele>456.0</ele><time>2026-04-19T13:36:38.772Z</time></trkpt><trkpt lat="42.5278262" lon="12.0536941"><ele>455.25</ele><time>2026-04-19T13:36:39.773Z</time></trkpt><trkpt lat="42.5276903" lon="12.0536485"><ele>454.5</ele><time>2026-04-19T13:36:40.773Z</time></trkpt><trkpt lat="42.5275469" lon="12.0536166"><ele>453.75</ele><time>2026-04-19T13:36:41.773Z</time></trkpt><trkpt lat="42.5273971" lon="12.0535918"><ele>453.0</ele><time>2026-04-19T13:36:42.772Z</time></trkpt><trkpt lat="42.5272416" lon="12.0535722"><ele>453.0</ele><time>2026-04-19T13:36:43.772Z</time></trkpt><trkpt lat="42.5270765" lon="12.0535591"><ele>453.0</ele><time>2026-04-19T13:36:44.772Z</time></trkpt><trkpt lat="42.5269122" lon="12.0535537"><ele>453.0</ele><time>2026-04-19T13:36:45.772Z</time></trkpt><trkpt lat="42.5267449" lon="12.0535429"><ele>451.33333333333337</ele><time>2026-04-19T13:36:46.771Z</time></trkpt><trkpt lat="42.5265762" lon="12.0535324"><ele>449.6666666666667</ele><time>2026-04-19T13:36:47.772Z</time></trkpt><trkpt lat="42.5264058" lon="12.0535282"><ele>448.0</ele><time>2026-04-19T13:36:48.772Z</time></trkpt><trkpt lat="42.5262352" lon="12.0535279"><ele>447.0</ele><time>2026-04-19T13:36:49.772Z</time></trkpt><trkpt lat="42.5260648" lon="12.0535268"><ele>446.0</ele><time>2026-04-19T13:36:50.772Z</time></trkpt><trkpt lat="42.5258917" lon="12.0535173"><ele>445.0</ele><time>2026-04-19T13:36:51.773Z</time></trkpt><trkpt lat="42.5257249" lon="12.0535039"><ele>445.0</ele><time>2026-04-19T13:36:52.773Z</time></trkpt><trkpt lat="42.5255644" lon="12.053481"><ele>445.0</ele><time>2026-04-19T13:36:53.773Z</time></trkpt><trkpt lat="42.5254071" lon="12.0534485"><ele>445.0</ele><time>2026-04-19T13:36:54.773Z</time></trkpt><trkpt lat="42.5252562" lon="12.0534066"><ele>443.33333333333337</ele><time>2026-04-19T13:36:55.772Z</time></trkpt><trkpt lat="42.5251045" lon="12.0533568"><ele>441.66666666666663</ele><time>2026-04-19T13:36:56.772Z</time></trkpt><trkpt lat="42.5249563" lon="12.053298"><ele>440.0</ele><time>2026-04-19T13:36:57.772Z</time></trkpt><trkpt lat="42.5248184" lon="12.0532071"><ele>440.0</ele><time>2026-04-19T13:36:58.772Z</time></trkpt><trkpt lat="42.5246922" lon="12.0530891"><ele>440.0</ele><time>2026-04-19T13:36:59.772Z</time></trkpt><trkpt lat="42.5245856" lon="12.0529431"><ele>440.0</ele><time>2026-04-19T13:37:00.772Z</time></trkpt><trkpt lat="42.5244873" lon="12.0527659"><ele>438.66666666666663</ele><time>2026-04-19T13:37:01.771Z</time></trkpt><trkpt lat="42.5243919" lon="12.052593"><ele>437.33333333333337</ele><time>2026-04-19T13:37:02.773Z</time></trkpt><trkpt lat="42.5242971" lon="12.0524186"><ele>436.0</ele><time>2026-04-19T13:37:03.773Z</time></trkpt><trkpt lat="42.5241993" lon="12.0522387"><ele>435.33333333333337</ele><time>2026-04-19T13:37:04.772Z</time></trkpt><trkpt lat="42.5240991" lon="12.0520611"><ele>434.66666666666663</ele><time>2026-04-19T13:37:05.772Z</time></trkpt><trkpt lat="42.5239998" lon="12.0518762"><ele>434.0</ele><time>2026-04-19T13:37:06.773Z</time></trkpt><trkpt lat="42.5238953" lon="12.0516843"><ele>432.3333333333333</ele><time>2026-04-19T13:37:07.773Z</time></trkpt><trkpt lat="42.5237869" lon="12.0514862"><ele>430.66666666666663</ele><time>2026-04-19T13:37:08.773Z</time></trkpt><trkpt lat="42.5236784" lon="12.0512754"><ele>429.0</ele><time>2026-04-19T13:37:09.773Z</time></trkpt><trkpt lat="42.5235635" lon="12.0510565"><ele>429.0</ele><time>2026-04-19T13:37:10.773Z</time></trkpt><trkpt lat="42.5234451" lon="12.0508329"><ele>429.0</ele><time>2026-04-19T13:37:11.773Z</time></trkpt><trkpt lat="42.5233242" lon="12.0506136"><ele>429.0</ele><time>2026-04-19T13:37:12.772Z</time></trkpt><trkpt lat="42.5232073" lon="12.0503962"><ele>427.33333333333337</ele><time>2026-04-19T13:37:13.771Z</time></trkpt><trkpt lat="42.5230956" lon="12.0501855"><ele>425.6666666666667</ele><time>2026-04-19T13:37:14.772Z</time></trkpt><trkpt lat="42.5229816" lon="12.0499714"><ele>424.0</ele><time>2026-04-19T13:37:15.772Z</time></trkpt><trkpt lat="42.5228707" lon="12.0497843"><ele>422.33333333333337</ele><time>2026-04-19T13:37:16.772Z</time></trkpt><trkpt lat="42.5227744" lon="12.0496112"><ele>420.66666666666663</ele><time>2026-04-19T13:37:17.773Z</time></trkpt><trkpt lat="42.5226644" lon="12.0494277"><ele>419.0</ele><time>2026-04-19T13:37:18.773Z</time></trkpt><trkpt lat="42.5225422" lon="12.0492412"><ele>416.66666666666663</ele><time>2026-04-19T13:37:19.772Z</time></trkpt><trkpt lat="42.5224082" lon="12.0490673"><ele>414.33333333333337</ele><time>2026-04-19T13:37:20.772Z</time></trkpt><trkpt lat="42.5222603" lon="12.0488938"><ele>412.0</ele><time>2026-04-19T13:37:21.772Z</time></trkpt><trkpt lat="42.5221013" lon="12.0487295"><ele>411.0</ele><time>2026-04-19T13:37:22.772Z</time></trkpt><trkpt lat="42.5219261" lon="12.0485772"><ele>410.0</ele><time>2026-04-19T13:37:23.773Z</time></trkpt><trkpt lat="42.5217483" lon="12.0484383"><ele>409.0</ele><time>2026-04-19T13:37:24.773Z</time></trkpt><trkpt lat="42.5215593" lon="12.0483191"><ele>408.0</ele><time>2026-04-19T13:37:25.772Z</time></trkpt><trkpt lat="42.5213634" lon="12.0482124"><ele>407.0</ele><time>2026-04-19T13:37:26.772Z</time></trkpt><trkpt lat="42.521158" lon="12.0481312"><ele>406.0</ele><time>2026-04-19T13:37:27.773Z</time></trkpt><trkpt lat="42.5209515" lon="12.0480662"><ele>406.0</ele><time>2026-04-19T13:37:28.772Z</time></trkpt><trkpt lat="42.5207397" lon="12.0480212"><ele>406.0</ele><time>2026-04-19T13:37:29.772Z</time></trkpt><trkpt lat="42.5205211" lon="12.0480012"><ele>406.0</ele><time>2026-04-19T13:37:30.773Z</time></trkpt><trkpt lat="42.5202976" lon="12.0480022"><ele>406.5</ele><time>2026-04-19T13:37:31.773Z</time></trkpt><trkpt lat="42.5200739" lon="12.0480297"><ele>407.0</ele><time>2026-04-19T13:37:32.773Z</time></trkpt><trkpt lat="42.5198498" lon="12.0480793"><ele>407.0</ele><time>2026-04-19T13:37:33.772Z</time></trkpt><trkpt lat="42.5196342" lon="12.0481498"><ele>407.0</ele><time>2026-04-19T13:37:34.772Z</time></trkpt><trkpt lat="42.5194282" lon="12.0482399"><ele>407.0</ele><time>2026-04-19T13:37:35.772Z</time></trkpt><trkpt lat="42.5192339" lon="12.0483441"><ele>408.66666666666663</ele><time>2026-04-19T13:37:36.772Z</time></trkpt><trkpt lat="42.5190446" lon="12.0484682"><ele>410.33333333333337</ele><time>2026-04-19T13:37:37.772Z</time></trkpt><trkpt lat="42.5188614" lon="12.0486185"><ele>412.0</ele><time>2026-04-19T13:37:38.771Z</time></trkpt><trkpt lat="42.5186821" lon="12.0487971"><ele>412.0</ele><time>2026-04-19T13:37:39.772Z</time></trkpt><trkpt lat="42.5185066" lon="12.048986"><ele>412.0</ele><time>2026-04-19T13:37:40.773Z</time></trkpt><trkpt lat="42.5183306" lon="12.0491741"><ele>412.0</ele><time>2026-04-19T13:37:41.773Z</time></trkpt><trkpt lat="42.5181619" lon="12.0493664"><ele>412.0</ele><time>2026-04-19T13:37:42.772Z</time></trkpt><trkpt lat="42.5179955" lon="12.0495586"><ele>412.0</ele><time>2026-04-19T13:37:43.773Z</time></trkpt><trkpt lat="42.5178337" lon="12.0497456"><ele>412.0</ele><time>2026-04-19T13:37:44.773Z</time></trkpt><trkpt lat="42.5176758" lon="12.0499224"><ele>409.0</ele><time>2026-04-19T13:37:45.773Z</time></trkpt><trkpt lat="42.5175205" lon="12.0501006"><ele>406.0</ele><time>2026-04-19T13:37:46.771Z</time></trkpt><trkpt lat="42.517371" lon="12.0502788"><ele>403.0</ele><time>2026-04-19T13:37:47.772Z</time></trkpt><trkpt lat="42.5172286" lon="12.0504474"><ele>403.0</ele><time>2026-04-19T13:37:48.773Z</time></trkpt><trkpt lat="42.5170931" lon="12.0505998"><ele>403.0</ele><time>2026-04-19T13:37:49.773Z</time></trkpt><trkpt lat="42.5169651" lon="12.0507457"><ele>403.0</ele><time>2026-04-19T13:37:50.772Z</time></trkpt><trkpt lat="42.5168411" lon="12.050898"><ele>400.6666666666667</ele><time>2026-04-19T13:37:51.772Z</time></trkpt><trkpt lat="42.5167153" lon="12.0510509"><ele>398.33333333333337</ele><time>2026-04-19T13:37:52.773Z</time></trkpt><trkpt lat="42.5165899" lon="12.0511903"><ele>396.0</ele><time>2026-04-19T13:37:53.773Z</time></trkpt><trkpt lat="42.5164653" lon="12.0513262"><ele>396.0</ele><time>2026-04-19T13:37:54.772Z</time></trkpt><trkpt lat="42.516336" lon="12.0514578"><ele>396.0</ele><time>2026-04-19T13:37:55.771Z</time></trkpt><trkpt lat="42.5162111" lon="12.0515867"><ele>396.0</ele><time>2026-04-19T13:37:56.772Z</time></trkpt><trkpt lat="42.5160876" lon="12.0517117"><ele>394.0</ele><time>2026-04-19T13:37:57.771Z</time></trkpt><trkpt lat="42.5159624" lon="12.0518338"><ele>392.0</ele><time>2026-04-19T13:37:58.773Z</time></trkpt><trkpt lat="42.5158321" lon="12.0519561"><ele>390.0</ele><time>2026-04-19T13:37:59.773Z</time></trkpt><trkpt lat="42.515697" lon="12.0520804"><ele>390.0</ele><time>2026-04-19T13:38:00.773Z</time></trkpt><trkpt lat="42.5155593" lon="12.0521963"><ele>390.0</ele><time>2026-04-19T13:38:01.771Z</time></trkpt><trkpt lat="42.515424" lon="12.0522983"><ele>390.0</ele><time>2026-04-19T13:38:02.772Z</time></trkpt><trkpt lat="42.5152893" lon="12.0523905"><ele>389.25</ele><time>2026-04-19T13:38:03.772Z</time></trkpt><trkpt lat="42.5151535" lon="12.0524759"><ele>388.5</ele><time>2026-04-19T13:38:04.773Z</time></trkpt><trkpt lat="42.5150251" lon="12.0525708"><ele>387.75</ele><time>2026-04-19T13:38:05.772Z</time></trkpt><trkpt lat="42.5149036" lon="12.052651"><ele>387.0</ele><time>2026-04-19T13:38:06.773Z</time></trkpt><trkpt lat="42.5147886" lon="12.0527276"><ele>387.0</ele><time>2026-04-19T13:38:07.771Z</time></trkpt><trkpt lat="42.51468" lon="12.0528014"><ele>387.0</ele><time>2026-04-19T13:38:08.771Z</time></trkpt><trkpt lat="42.514578" lon="12.0528616"><ele>387.0</ele><time>2026-04-19T13:38:09.773Z</time></trkpt><trkpt lat="42.5144771" lon="12.0529301"><ele>387.0</ele><time>2026-04-19T13:38:10.771Z</time></trkpt><trkpt lat="42.5143761" lon="12.0529916"><ele>385.5</ele><time>2026-04-19T13:38:11.773Z</time></trkpt><trkpt lat="42.514278" lon="12.053059"><ele>384.0</ele><time>2026-04-19T13:38:12.772Z</time></trkpt><trkpt lat="42.5141721" lon="12.0531286"><ele>382.5</ele><time>2026-04-19T13:38:13.773Z</time></trkpt><trkpt lat="42.5140425" lon="12.0532186"><ele>381.0</ele><time>2026-04-19T13:38:14.772Z</time></trkpt><trkpt lat="42.5138182" lon="12.0533863"><ele>379.5</ele><time>2026-04-19T13:38:15.773Z</time></trkpt><trkpt lat="42.5136146" lon="12.0535134"><ele>378.0</ele><time>2026-04-19T13:38:16.772Z</time></trkpt><trkpt lat="42.5133973" lon="12.0536458"><ele>378.0</ele><time>2026-04-19T13:38:17.773Z</time></trkpt><trkpt lat="42.5131822" lon="12.0537753"><ele>378.0</ele><time>2026-04-19T13:38:18.772Z</time></trkpt><trkpt lat="42.5129709" lon="12.0539315"><ele>376.0</ele><time>2026-04-19T13:38:19.772Z</time></trkpt><trkpt lat="42.5127572" lon="12.0540757"><ele>374.0</ele><time>2026-04-19T13:38:20.771Z</time></trkpt><trkpt lat="42.5125418" lon="12.0542139"><ele>373.0</ele><time>2026-04-19T13:38:21.772Z</time></trkpt><trkpt lat="42.5123238" lon="12.0543636"><ele>372.0</ele><time>2026-04-19T13:38:22.773Z</time></trkpt><trkpt lat="42.5121126" lon="12.0545166"><ele>369.5</ele><time>2026-04-19T13:38:23.773Z</time></trkpt><trkpt lat="42.5118985" lon="12.0546693"><ele>367.0</ele><time>2026-04-19T13:38:24.772Z</time></trkpt><trkpt lat="42.511685" lon="12.0548256"><ele>366.5</ele><time>2026-04-19T13:38:25.772Z</time></trkpt><trkpt lat="42.5114724" lon="12.0549789"><ele>366.0</ele><time>2026-04-19T13:38:26.771Z</time></trkpt><trkpt lat="42.5112657" lon="12.0551339"><ele>364.0</ele><time>2026-04-19T13:38:27.771Z</time></trkpt><trkpt lat="42.5110594" lon="12.0552864"><ele>362.0</ele><time>2026-04-19T13:38:28.772Z</time></trkpt><trkpt lat="42.5108542" lon="12.0554361"><ele>362.0</ele><time>2026-04-19T13:38:29.771Z</time></trkpt><trkpt lat="42.5106524" lon="12.055582"><ele>362.0</ele><time>2026-04-19T13:38:30.772Z</time></trkpt><trkpt lat="42.510454" lon="12.0557287"><ele>359.5</ele><time>2026-04-19T13:38:31.773Z</time></trkpt><trkpt lat="42.5102569" lon="12.0558757"><ele>357.0</ele><time>2026-04-19T13:38:32.772Z</time></trkpt><trkpt lat="42.5100575" lon="12.0560237"><ele>357.0</ele><time>2026-04-19T13:38:33.773Z</time></trkpt><trkpt lat="42.5098566" lon="12.0561711"><ele>357.0</ele><time>2026-04-19T13:38:34.772Z</time></trkpt><trkpt lat="42.5096525" lon="12.05632"><ele>355.5</ele><time>2026-04-19T13:38:35.773Z</time></trkpt><trkpt lat="42.5094454" lon="12.0564659"><ele>354.0</ele><time>2026-04-19T13:38:36.773Z</time></trkpt><trkpt lat="42.5092359" lon="12.0566199"><ele>354.0</ele><time>2026-04-19T13:38:37.773Z</time></trkpt><trkpt lat="42.509024" lon="12.0567721"><ele>354.0</ele><time>2026-04-19T13:38:38.772Z</time></trkpt><trkpt lat="42.5088076" lon="12.0569179"><ele>353.5</ele><time>2026-04-19T13:38:39.772Z</time></trkpt><trkpt lat="42.5085911" lon="12.0570598"><ele>353.0</ele><time>2026-04-19T13:38:40.771Z</time></trkpt><trkpt lat="42.5083833" lon="12.0571952"><ele>353.0</ele><time>2026-04-19T13:38:41.772Z</time></trkpt><trkpt lat="42.5081835" lon="12.0573233"><ele>353.0</ele><time>2026-04-19T13:38:42.772Z</time></trkpt><trkpt lat="42.5079913" lon="12.0574447"><ele>353.0</ele><time>2026-04-19T13:38:43.772Z</time></trkpt><trkpt lat="42.5078067" lon="12.0575616"><ele>352.0</ele><time>2026-04-19T13:38:44.771Z</time></trkpt><trkpt lat="42.5076201" lon="12.0576735"><ele>351.0</ele><time>2026-04-19T13:38:45.772Z</time></trkpt><trkpt lat="42.507432" lon="12.0577783"><ele>350.0</ele><time>2026-04-19T13:38:46.772Z</time></trkpt><trkpt lat="42.5072407" lon="12.0578732"><ele>348.6666666666667</ele><time>2026-04-19T13:38:47.771Z</time></trkpt><trkpt lat="42.5070471" lon="12.057968"><ele>347.3333333333333</ele><time>2026-04-19T13:38:48.773Z</time></trkpt><trkpt lat="42.5068532" lon="12.0580571"><ele>346.0</ele><time>2026-04-19T13:38:49.772Z</time></trkpt><trkpt lat="42.5066563" lon="12.0581428"><ele>346.0</ele><time>2026-04-19T13:38:50.771Z</time></trkpt><trkpt lat="42.5064578" lon="12.0582264"><ele>346.0</ele><time>2026-04-19T13:38:51.772Z</time></trkpt><trkpt lat="42.5062598" lon="12.0583084"><ele>346.0</ele><time>2026-04-19T13:38:52.771Z</time></trkpt><trkpt lat="42.5060635" lon="12.05839"><ele>346.3333333333333</ele><time>2026-04-19T13:38:53.773Z</time></trkpt><trkpt lat="42.5058673" lon="12.0584813"><ele>346.6666666666667</ele><time>2026-04-19T13:38:54.772Z</time></trkpt><trkpt lat="42.5056729" lon="12.0585866"><ele>347.0</ele><time>2026-04-19T13:38:55.771Z</time></trkpt><trkpt lat="42.5054836" lon="12.0587093"><ele>346.6666666666667</ele><time>2026-04-19T13:38:56.772Z</time></trkpt><trkpt lat="42.5053007" lon="12.0588524"><ele>346.3333333333333</ele><time>2026-04-19T13:38:57.773Z</time></trkpt><trkpt lat="42.5051213" lon="12.059001"><ele>346.0</ele><time>2026-04-19T13:38:58.772Z</time></trkpt><trkpt lat="42.5049445" lon="12.0591508"><ele>345.66666666666663</ele><time>2026-04-19T13:38:59.772Z</time></trkpt><trkpt lat="42.5047651" lon="12.0592986"><ele>345.3333333333333</ele><time>2026-04-19T13:39:00.772Z</time></trkpt><trkpt lat="42.5045886" lon="12.0594417"><ele>345.0</ele><time>2026-04-19T13:39:01.772Z</time></trkpt><trkpt lat="42.504405" lon="12.0595855"><ele>344.6666666666667</ele><time>2026-04-19T13:39:02.772Z</time></trkpt><trkpt lat="42.5042218" lon="12.0597175"><ele>344.33333333333337</ele><time>2026-04-19T13:39:03.772Z</time></trkpt><trkpt lat="42.5040361" lon="12.0598355"><ele>344.0</ele><time>2026-04-19T13:39:04.773Z</time></trkpt><trkpt lat="42.5038516" lon="12.059943"><ele>344.0</ele><time>2026-04-19T13:39:05.772Z</time></trkpt><trkpt lat="42.5036635" lon="12.0600518"><ele>344.0</ele><time>2026-04-19T13:39:06.773Z</time></trkpt><trkpt lat="42.5034773" lon="12.0601522"><ele>344.0</ele><time>2026-04-19T13:39:07.772Z</time></trkpt><trkpt lat="42.503289" lon="12.0602488"><ele>344.0</ele><time>2026-04-19T13:39:08.773Z</time></trkpt><trkpt lat="42.5031015" lon="12.0603347"><ele>344.0</ele><time>2026-04-19T13:39:09.773Z</time></trkpt><trkpt lat="42.5029109" lon="12.0604098"><ele>344.0</ele><time>2026-04-19T13:39:10.773Z</time></trkpt><trkpt lat="42.5027172" lon="12.0604761"><ele>344.0</ele><time>2026-04-19T13:39:11.773Z</time></trkpt><trkpt lat="42.5025202" lon="12.0605458"><ele>344.0</ele><time>2026-04-19T13:39:12.773Z</time></trkpt><trkpt lat="42.5023214" lon="12.0606203"><ele>344.0</ele><time>2026-04-19T13:39:13.772Z</time></trkpt><trkpt lat="42.5021188" lon="12.0606978"><ele>343.33333333333337</ele><time>2026-04-19T13:39:14.773Z</time></trkpt><trkpt lat="42.501914" lon="12.0607733"><ele>342.6666666666667</ele><time>2026-04-19T13:39:15.772Z</time></trkpt><trkpt lat="42.5017056" lon="12.060852"><ele>342.0</ele><time>2026-04-19T13:39:16.773Z</time></trkpt><trkpt lat="42.5014941" lon="12.0609333"><ele>341.5</ele><time>2026-04-19T13:39:17.773Z</time></trkpt><trkpt lat="42.5012786" lon="12.0610175"><ele>341.0</ele><time>2026-04-19T13:39:18.773Z</time></trkpt><trkpt lat="42.5010588" lon="12.0611025"><ele>339.0</ele><time>2026-04-19T13:39:19.773Z</time></trkpt><trkpt lat="42.5008339" lon="12.0611874"><ele>337.0</ele><time>2026-04-19T13:39:20.773Z</time></trkpt><trkpt lat="42.5006046" lon="12.0612753"><ele>332.5</ele><time>2026-04-19T13:39:21.771Z</time></trkpt><trkpt lat="42.5003741" lon="12.061362"><ele>328.0</ele><time>2026-04-19T13:39:22.772Z</time></trkpt><trkpt lat="42.5001431" lon="12.0614543"><ele>328.0</ele><time>2026-04-19T13:39:23.773Z</time></trkpt><trkpt lat="42.4999105" lon="12.0615444"><ele>328.0</ele><time>2026-04-19T13:39:24.772Z</time></trkpt><trkpt lat="42.4996756" lon="12.0616361"><ele>326.0</ele><time>2026-04-19T13:39:25.772Z</time></trkpt><trkpt lat="42.4994381" lon="12.0617245"><ele>324.0</ele><time>2026-04-19T13:39:26.772Z</time></trkpt><trkpt lat="42.499205" lon="12.0618144"><ele>324.0</ele><time>2026-04-19T13:39:27.773Z</time></trkpt><trkpt lat="42.4989716" lon="12.0619018"><ele>324.0</ele><time>2026-04-19T13:39:28.773Z</time></trkpt><trkpt lat="42.4987396" lon="12.0619883"><ele>321.0</ele><time>2026-04-19T13:39:29.773Z</time></trkpt><trkpt lat="42.4985103" lon="12.0620759"><ele>318.0</ele><time>2026-04-19T13:39:30.772Z</time></trkpt><trkpt lat="42.4982771" lon="12.0621654"><ele>318.0</ele><time>2026-04-19T13:39:31.773Z</time></trkpt><trkpt lat="42.4980423" lon="12.0622552"><ele>318.0</ele><time>2026-04-19T13:39:32.773Z</time></trkpt><trkpt lat="42.4978075" lon="12.0623431"><ele>318.0</ele><time>2026-04-19T13:39:33.772Z</time></trkpt><trkpt lat="42.497569" lon="12.0624339"><ele>318.0</ele><time>2026-04-19T13:39:34.772Z</time></trkpt><trkpt lat="42.49733" lon="12.0625236"><ele>317.0</ele><time>2026-04-19T13:39:35.772Z</time></trkpt><trkpt lat="42.4970861" lon="12.0626182"><ele>316.0</ele><time>2026-04-19T13:39:36.771Z</time></trkpt><trkpt lat="42.4968421" lon="12.0627116"><ele>316.0</ele><time>2026-04-19T13:39:37.773Z</time></trkpt><trkpt lat="42.4965952" lon="12.062809"><ele>316.0</ele><time>2026-04-19T13:39:38.773Z</time></trkpt><trkpt lat="42.4963466" lon="12.0629065"><ele>315.0</ele><time>2026-04-19T13:39:39.771Z</time></trkpt><trkpt lat="42.4961008" lon="12.0630016"><ele>314.0</ele><time>2026-04-19T13:39:40.772Z</time></trkpt><trkpt lat="42.495859" lon="12.0630893"><ele>314.0</ele><time>2026-04-19T13:39:41.773Z</time></trkpt><trkpt lat="42.4956295" lon="12.0631754"><ele>314.0</ele><time>2026-04-19T13:39:42.772Z</time></trkpt><trkpt lat="42.4954089" lon="12.0632582"><ele>313.33333333333337</ele><time>2026-04-19T13:39:43.772Z</time></trkpt><trkpt lat="42.4951951" lon="12.0633367"><ele>312.6666666666667</ele><time>2026-04-19T13:39:44.773Z</time></trkpt><trkpt lat="42.4949854" lon="12.0634153"><ele>312.0</ele><time>2026-04-19T13:39:45.771Z</time></trkpt><trkpt lat="42.494776" lon="12.0634886"><ele>311.6666666666667</ele><time>2026-04-19T13:39:46.773Z</time></trkpt><trkpt lat="42.494565" lon="12.0635498"><ele>311.33333333333337</ele><time>2026-04-19T13:39:47.773Z</time></trkpt><trkpt lat="42.4943532" lon="12.063596"><ele>311.0</ele><time>2026-04-19T13:39:48.773Z</time></trkpt><trkpt lat="42.4941419" lon="12.063627"><ele>311.0</ele><time>2026-04-19T13:39:49.773Z</time></trkpt><trkpt lat="42.4939337" lon="12.0636524"><ele>311.0</ele><time>2026-04-19T13:39:50.773Z</time></trkpt><trkpt lat="42.493727" lon="12.0636761"><ele>311.0</ele><time>2026-04-19T13:39:51.773Z</time></trkpt><trkpt lat="42.4935232" lon="12.063701"><ele>311.0</ele><time>2026-04-19T13:39:52.773Z</time></trkpt><trkpt lat="42.4933253" lon="12.0637369"><ele>311.0</ele><time>2026-04-19T13:39:53.773Z</time></trkpt><trkpt lat="42.493135" lon="12.0637881"><ele>311.0</ele><time>2026-04-19T13:39:54.772Z</time></trkpt><trkpt lat="42.492946" lon="12.0638497"><ele>312.6666666666667</ele><time>2026-04-19T13:39:55.772Z</time></trkpt><trkpt lat="42.4927616" lon="12.0639219"><ele>314.3333333333333</ele><time>2026-04-19T13:39:56.772Z</time></trkpt><trkpt lat="42.4925786" lon="12.0640089"><ele>316.0</ele><time>2026-04-19T13:39:57.772Z</time></trkpt><trkpt lat="42.4924007" lon="12.0641098"><ele>316.0</ele><time>2026-04-19T13:39:58.771Z</time></trkpt><trkpt lat="42.4922299" lon="12.0642302"><ele>316.0</ele><time>2026-04-19T13:39:59.771Z</time></trkpt><trkpt lat="42.4920599" lon="12.0643484"><ele>316.0</ele><time>2026-04-19T13:40:00.772Z</time></trkpt><trkpt lat="42.4918879" lon="12.0644704"><ele>316.0</ele><time>2026-04-19T13:40:01.772Z</time></trkpt><trkpt lat="42.4917172" lon="12.0645913"><ele>316.0</ele><time>2026-04-19T13:40:02.772Z</time></trkpt><trkpt lat="42.4915497" lon="12.0647152"><ele>316.0</ele><time>2026-04-19T13:40:03.773Z</time></trkpt><trkpt lat="42.4913826" lon="12.0648452"><ele>316.3333333333333</ele><time>2026-04-19T13:40:04.773Z</time></trkpt><trkpt lat="42.491221" lon="12.0649829"><ele>316.6666666666667</ele><time>2026-04-19T13:40:05.772Z</time></trkpt><trkpt lat="42.4910521" lon="12.0651268"><ele>317.0</ele><time>2026-04-19T13:40:06.773Z</time></trkpt><trkpt lat="42.4908705" lon="12.0652704"><ele>317.0</ele><time>2026-04-19T13:40:07.773Z</time></trkpt><trkpt lat="42.4906855" lon="12.0654242"><ele>317.0</ele><time>2026-04-19T13:40:08.772Z</time></trkpt><trkpt lat="42.4904983" lon="12.065588"><ele>317.0</ele><time>2026-04-19T13:40:09.773Z</time></trkpt><trkpt lat="42.4903063" lon="12.065759"><ele>318.0</ele><time>2026-04-19T13:40:10.772Z</time></trkpt><trkpt lat="42.4901139" lon="12.0659311"><ele>319.0</ele><time>2026-04-19T13:40:11.773Z</time></trkpt><trkpt lat="42.4899204" lon="12.0661005"><ele>319.0</ele><time>2026-04-19T13:40:12.773Z</time></trkpt><trkpt lat="42.4897276" lon="12.0662606"><ele>319.0</ele><time>2026-04-19T13:40:13.772Z</time></trkpt><trkpt lat="42.4895355" lon="12.0664116"><ele>319.0</ele><time>2026-04-19T13:40:14.771Z</time></trkpt><trkpt lat="42.4893421" lon="12.0665444"><ele>320.3333333333333</ele><time>2026-04-19T13:40:15.773Z</time></trkpt><trkpt lat="42.4891468" lon="12.0666611"><ele>321.6666666666667</ele><time>2026-04-19T13:40:16.772Z</time></trkpt><trkpt lat="42.4889491" lon="12.0667668"><ele>323.0</ele><time>2026-04-19T13:40:17.772Z</time></trkpt><trkpt lat="42.4887419" lon="12.0668668"><ele>323.6666666666667</ele><time>2026-04-19T13:40:18.772Z</time></trkpt><trkpt lat="42.4885336" lon="12.0669657"><ele>324.3333333333333</ele><time>2026-04-19T13:40:19.773Z</time></trkpt><trkpt lat="42.488322" lon="12.0670647"><ele>325.0</ele><time>2026-04-19T13:40:20.773Z</time></trkpt><trkpt lat="42.4881058" lon="12.0671622"><ele>323.5</ele><time>2026-04-19T13:40:21.772Z</time></trkpt><trkpt lat="42.4878865" lon="12.0672548"><ele>322.0</ele><time>2026-04-19T13:40:22.772Z</time></trkpt><trkpt lat="42.4876655" lon="12.0673383"><ele>322.0</ele><time>2026-04-19T13:40:23.773Z</time></trkpt><trkpt lat="42.4874385" lon="12.0674242"><ele>322.0</ele><time>2026-04-19T13:40:24.772Z</time></trkpt><trkpt lat="42.487213" lon="12.0675042"><ele>320.5</ele><time>2026-04-19T13:40:25.772Z</time></trkpt><trkpt lat="42.4869838" lon="12.0675846"><ele>319.0</ele><time>2026-04-19T13:40:26.773Z</time></trkpt><trkpt lat="42.4867553" lon="12.0676579"><ele>319.0</ele><time>2026-04-19T13:40:27.773Z</time></trkpt><trkpt lat="42.4865257" lon="12.0677331"><ele>319.0</ele><time>2026-04-19T13:40:28.772Z</time></trkpt><trkpt lat="42.4862935" lon="12.0678084"><ele>319.5</ele><time>2026-04-19T13:40:29.772Z</time></trkpt><trkpt lat="42.4860662" lon="12.0678814"><ele>320.0</ele><time>2026-04-19T13:40:30.773Z</time></trkpt><trkpt lat="42.4858392" lon="12.0679574"><ele>320.0</ele><time>2026-04-19T13:40:31.773Z</time></trkpt><trkpt lat="42.4856088" lon="12.068034"><ele>320.0</ele><time>2026-04-19T13:40:32.773Z</time></trkpt><trkpt lat="42.485385" lon="12.0681071"><ele>319.33333333333337</ele><time>2026-04-19T13:40:33.772Z</time></trkpt><trkpt lat="42.4851723" lon="12.0681787"><ele>318.6666666666667</ele><time>2026-04-19T13:40:34.773Z</time></trkpt><trkpt lat="42.4849701" lon="12.0682477"><ele>318.0</ele><time>2026-04-19T13:40:35.773Z</time></trkpt><trkpt lat="42.4847774" lon="12.0683133"><ele>317.6666666666667</ele><time>2026-04-19T13:40:36.771Z</time></trkpt><trkpt lat="42.484589" lon="12.0683787"><ele>317.33333333333337</ele><time>2026-04-19T13:40:37.772Z</time></trkpt><trkpt lat="42.484401" lon="12.0684461"><ele>317.0</ele><time>2026-04-19T13:40:38.772Z</time></trkpt><trkpt lat="42.4842197" lon="12.06851"><ele>317.0</ele><time>2026-04-19T13:40:39.773Z</time></trkpt><trkpt lat="42.4840392" lon="12.0685704"><ele>317.0</ele><time>2026-04-19T13:40:40.773Z</time></trkpt><trkpt lat="42.4838642" lon="12.0686245"><ele>317.0</ele><time>2026-04-19T13:40:41.772Z</time></trkpt><trkpt lat="42.4836931" lon="12.0686795"><ele>317.33333333333337</ele><time>2026-04-19T13:40:42.772Z</time></trkpt><trkpt lat="42.4835259" lon="12.0687347"><ele>317.6666666666667</ele><time>2026-04-19T13:40:43.771Z</time></trkpt><trkpt lat="42.4833575" lon="12.0687935"><ele>318.0</ele><time>2026-04-19T13:40:44.772Z</time></trkpt><trkpt lat="42.4831917" lon="12.0688505"><ele>318.0</ele><time>2026-04-19T13:40:45.772Z</time></trkpt><trkpt lat="42.483024" lon="12.0689071"><ele>318.0</ele><time>2026-04-19T13:40:46.772Z</time></trkpt><trkpt lat="42.4828555" lon="12.068971"><ele>318.0</ele><time>2026-04-19T13:40:47.772Z</time></trkpt><trkpt lat="42.4826847" lon="12.069027"><ele>318.0</ele><time>2026-04-19T13:40:48.773Z</time></trkpt><trkpt lat="42.4825158" lon="12.0690838"><ele>318.0</ele><time>2026-04-19T13:40:49.773Z</time></trkpt><trkpt lat="42.4823509" lon="12.0691367"><ele>318.0</ele><time>2026-04-19T13:40:50.772Z</time></trkpt><trkpt lat="42.4821851" lon="12.0691924"><ele>319.3333333333333</ele><time>2026-04-19T13:40:51.772Z</time></trkpt><trkpt lat="42.4820137" lon="12.0692533"><ele>320.66666666666663</ele><time>2026-04-19T13:40:52.772Z</time></trkpt><trkpt lat="42.4818365" lon="12.0693104"><ele>322.0</ele><time>2026-04-19T13:40:53.772Z</time></trkpt><trkpt lat="42.4816571" lon="12.0693763"><ele>322.0</ele><time>2026-04-19T13:40:54.772Z</time></trkpt><trkpt lat="42.4814715" lon="12.069448"><ele>322.0</ele><time>2026-04-19T13:40:55.772Z</time></trkpt><trkpt lat="42.4812787" lon="12.0695167"><ele>322.0</ele><time>2026-04-19T13:40:56.772Z</time></trkpt><trkpt lat="42.4810749" lon="12.0695896"><ele>322.66666666666663</ele><time>2026-04-19T13:40:57.773Z</time></trkpt><trkpt lat="42.480864" lon="12.0696667"><ele>323.3333333333333</ele><time>2026-04-19T13:40:58.771Z</time></trkpt><trkpt lat="42.4806491" lon="12.0697377"><ele>324.0</ele><time>2026-04-19T13:40:59.773Z</time></trkpt><trkpt lat="42.4804363" lon="12.0698018"><ele>325.0</ele><time>2026-04-19T13:41:00.773Z</time></trkpt><trkpt lat="42.4802277" lon="12.0698653"><ele>326.0</ele><time>2026-04-19T13:41:01.773Z</time></trkpt><trkpt lat="42.4800211" lon="12.0699296"><ele>327.0</ele><time>2026-04-19T13:41:02.773Z</time></trkpt><trkpt lat="42.4798124" lon="12.0699998"><ele>327.0</ele><time>2026-04-19T13:41:03.771Z</time></trkpt><trkpt lat="42.4796008" lon="12.0700706"><ele>327.0</ele><time>2026-04-19T13:41:04.772Z</time></trkpt><trkpt lat="42.4793807" lon="12.0701457"><ele>327.0</ele><time>2026-04-19T13:41:05.773Z</time></trkpt><trkpt lat="42.4791584" lon="12.0702273"><ele>325.5</ele><time>2026-04-19T13:41:06.773Z</time></trkpt><trkpt lat="42.4789256" lon="12.070303"><ele>324.0</ele><time>2026-04-19T13:41:07.771Z</time></trkpt><trkpt lat="42.4786968" lon="12.0703717"><ele>322.5</ele><time>2026-04-19T13:41:08.771Z</time></trkpt><trkpt lat="42.4784748" lon="12.0704436"><ele>321.0</ele><time>2026-04-19T13:41:09.771Z</time></trkpt><trkpt lat="42.4782563" lon="12.0705158"><ele>321.0</ele><time>2026-04-19T13:41:10.772Z</time></trkpt><trkpt lat="42.4780407" lon="12.070592"><ele>321.0</ele><time>2026-04-19T13:41:11.773Z</time></trkpt><trkpt lat="42.4778213" lon="12.070681"><ele>319.5</ele><time>2026-04-19T13:41:12.771Z</time></trkpt><trkpt lat="42.477602" lon="12.0707916"><ele>318.0</ele><time>2026-04-19T13:41:13.772Z</time></trkpt><trkpt lat="42.4773861" lon="12.0709166"><ele>318.0</ele><time>2026-04-19T13:41:14.773Z</time></trkpt><trkpt lat="42.477173" lon="12.0710459"><ele>318.0</ele><time>2026-04-19T13:41:15.773Z</time></trkpt><trkpt lat="42.4769585" lon="12.0711682"><ele>318.5</ele><time>2026-04-19T13:41:16.773Z</time></trkpt><trkpt lat="42.4767475" lon="12.0712912"><ele>319.0</ele><time>2026-04-19T13:41:17.772Z</time></trkpt><trkpt lat="42.4765395" lon="12.0714125"><ele>319.0</ele><time>2026-04-19T13:41:18.773Z</time></trkpt><trkpt lat="42.4763342" lon="12.0715327"><ele>319.0</ele><time>2026-04-19T13:41:19.772Z</time></trkpt><trkpt lat="42.4761244" lon="12.0716469"><ele>318.0</ele><time>2026-04-19T13:41:20.773Z</time></trkpt><trkpt lat="42.4759119" lon="12.0717658"><ele>317.0</ele><time>2026-04-19T13:41:21.773Z</time></trkpt><trkpt lat="42.475699" lon="12.0718857"><ele>317.0</ele><time>2026-04-19T13:41:22.773Z</time></trkpt><trkpt lat="42.4754851" lon="12.0720064"><ele>317.0</ele><time>2026-04-19T13:41:23.772Z</time></trkpt><trkpt lat="42.4752689" lon="12.0721295"><ele>317.5</ele><time>2026-04-19T13:41:24.772Z</time></trkpt><trkpt lat="42.4750592" lon="12.0722431"><ele>318.0</ele><time>2026-04-19T13:41:25.773Z</time></trkpt><trkpt lat="42.4748529" lon="12.0723648"><ele>317.3333333333333</ele><time>2026-04-19T13:41:26.773Z</time></trkpt><trkpt lat="42.4746464" lon="12.0724854"><ele>316.66666666666663</ele><time>2026-04-19T13:41:27.773Z</time></trkpt><trkpt lat="42.4744429" lon="12.0726112"><ele>316.0</ele><time>2026-04-19T13:41:28.772Z</time></trkpt><trkpt lat="42.4742342" lon="12.072735"><ele>316.0</ele><time>2026-04-19T13:41:29.772Z</time></trkpt><trkpt lat="42.4740216" lon="12.0728583"><ele>316.0</ele><time>2026-04-19T13:41:30.772Z</time></trkpt><trkpt lat="42.4738024" lon="12.0729666"><ele>316.5</ele><time>2026-04-19T13:41:31.771Z</time></trkpt><trkpt lat="42.4735888" lon="12.0730687"><ele>317.0</ele><time>2026-04-19T13:41:32.772Z</time></trkpt><trkpt lat="42.4733702" lon="12.0731724"><ele>317.0</ele><time>2026-04-19T13:41:33.772Z</time></trkpt><trkpt lat="42.4731471" lon="12.0732737"><ele>317.0</ele><time>2026-04-19T13:41:34.773Z</time></trkpt><trkpt lat="42.4729296" lon="12.0733588"><ele>315.0</ele><time>2026-04-19T13:41:35.772Z</time></trkpt><trkpt lat="42.4727068" lon="12.0734412"><ele>313.0</ele><time>2026-04-19T13:41:36.772Z</time></trkpt><trkpt lat="42.4724797" lon="12.0735163"><ele>313.0</ele><time>2026-04-19T13:41:37.773Z</time></trkpt><trkpt lat="42.472246" lon="12.0735856"><ele>313.0</ele><time>2026-04-19T13:41:38.771Z</time></trkpt><trkpt lat="42.4720114" lon="12.0736426"><ele>312.0</ele><time>2026-04-19T13:41:39.772Z</time></trkpt><trkpt lat="42.4717688" lon="12.0736915"><ele>311.0</ele><time>2026-04-19T13:41:40.772Z</time></trkpt><trkpt lat="42.4715259" lon="12.0737339"><ele>311.0</ele><time>2026-04-19T13:41:41.773Z</time></trkpt><trkpt lat="42.4712818" lon="12.0737742"><ele>311.0</ele><time>2026-04-19T13:41:42.772Z</time></trkpt><trkpt lat="42.4710374" lon="12.0738137"><ele>310.0</ele><time>2026-04-19T13:41:43.772Z</time></trkpt><trkpt lat="42.4707941" lon="12.0738502"><ele>309.0</ele><time>2026-04-19T13:41:44.773Z</time></trkpt><trkpt lat="42.4705487" lon="12.0738844"><ele>312.0</ele><time>2026-04-19T13:41:45.772Z</time></trkpt><trkpt lat="42.4703076" lon="12.0739166"><ele>315.0</ele><time>2026-04-19T13:41:46.773Z</time></trkpt><trkpt lat="42.4700691" lon="12.073948"><ele>315.0</ele><time>2026-04-19T13:41:47.771Z</time></trkpt><trkpt lat="42.4698347" lon="12.0739747"><ele>315.0</ele><time>2026-04-19T13:41:48.771Z</time></trkpt><trkpt lat="42.4696058" lon="12.0739836"><ele>315.5</ele><time>2026-04-19T13:41:49.771Z</time></trkpt><trkpt lat="42.4693792" lon="12.0739753"><ele>316.0</ele><time>2026-04-19T13:41:50.772Z</time></trkpt><trkpt lat="42.469154" lon="12.0739517"><ele>316.0</ele><time>2026-04-19T13:41:51.772Z</time></trkpt><trkpt lat="42.4689274" lon="12.0739177"><ele>316.0</ele><time>2026-04-19T13:41:52.773Z</time></trkpt><trkpt lat="42.4686995" lon="12.0738786"><ele>315.5</ele><time>2026-04-19T13:41:53.772Z</time></trkpt><trkpt lat="42.4684714" lon="12.073839"><ele>315.0</ele><time>2026-04-19T13:41:54.773Z</time></trkpt><trkpt lat="42.4682429" lon="12.0737978"><ele>315.0</ele><time>2026-04-19T13:41:55.772Z</time></trkpt><trkpt lat="42.4680188" lon="12.0737597"><ele>315.0</ele><time>2026-04-19T13:41:56.772Z</time></trkpt><trkpt lat="42.4678039" lon="12.0737205"><ele>315.0</ele><time>2026-04-19T13:41:57.772Z</time></trkpt><trkpt lat="42.4675948" lon="12.0736852"><ele>315.3333333333333</ele><time>2026-04-19T13:41:58.772Z</time></trkpt><trkpt lat="42.4673926" lon="12.0736454"><ele>315.66666666666663</ele><time>2026-04-19T13:41:59.772Z</time></trkpt><trkpt lat="42.4671926" lon="12.0736061"><ele>316.0</ele><time>2026-04-19T13:42:00.772Z</time></trkpt><trkpt lat="42.4669987" lon="12.0735691"><ele>316.66666666666663</ele><time>2026-04-19T13:42:01.772Z</time></trkpt><trkpt lat="42.4668172" lon="12.0735336"><ele>317.3333333333333</ele><time>2026-04-19T13:42:02.772Z</time></trkpt><trkpt lat="42.4666409" lon="12.0735009"><ele>318.0</ele><time>2026-04-19T13:42:03.773Z</time></trkpt><trkpt lat="42.4664682" lon="12.0734654"><ele>318.0</ele><time>2026-04-19T13:42:04.772Z</time></trkpt><trkpt lat="42.4662944" lon="12.0734251"><ele>318.0</ele><time>2026-04-19T13:42:05.772Z</time></trkpt><trkpt lat="42.466123" lon="12.0733854"><ele>318.0</ele><time>2026-04-19T13:42:06.772Z</time></trkpt><trkpt lat="42.4659571" lon="12.0733477"><ele>317.6666666666667</ele><time>2026-04-19T13:42:07.773Z</time></trkpt><trkpt lat="42.465795" lon="12.0733149"><ele>317.33333333333337</ele><time>2026-04-19T13:42:08.772Z</time></trkpt><trkpt lat="42.4656404" lon="12.0732943"><ele>317.0</ele><time>2026-04-19T13:42:09.771Z</time></trkpt><trkpt lat="42.4654881" lon="12.0732951"><ele>316.33333333333337</ele><time>2026-04-19T13:42:10.772Z</time></trkpt><trkpt lat="42.4653363" lon="12.0733091"><ele>315.6666666666667</ele><time>2026-04-19T13:42:11.772Z</time></trkpt><trkpt lat="42.4651792" lon="12.0733457"><ele>315.0</ele><time>2026-04-19T13:42:12.772Z</time></trkpt><trkpt lat="42.4650195" lon="12.0733854"><ele>315.0</ele><time>2026-04-19T13:42:13.771Z</time></trkpt><trkpt lat="42.4648593" lon="12.0734266"><ele>315.0</ele><time>2026-04-19T13:42:14.771Z</time></trkpt><trkpt lat="42.4646995" lon="12.0734721"><ele>315.0</ele><time>2026-04-19T13:42:15.77Z</time></trkpt><trkpt lat="42.4645418" lon="12.0735157"><ele>315.0</ele><time>2026-04-19T13:42:16.77Z</time></trkpt><trkpt lat="42.4643892" lon="12.0735559"><ele>315.0</ele><time>2026-04-19T13:42:17.77Z</time></trkpt><trkpt lat="42.4642415" lon="12.0735987"><ele>315.0</ele><time>2026-04-19T13:42:18.772Z</time></trkpt><trkpt lat="42.4640985" lon="12.073635"><ele>315.0</ele><time>2026-04-19T13:42:19.772Z</time></trkpt><trkpt lat="42.4639602" lon="12.0736714"><ele>315.0</ele><time>2026-04-19T13:42:20.77Z</time></trkpt><trkpt lat="42.4638292" lon="12.0737059"><ele>315.0</ele><time>2026-04-19T13:42:21.772Z</time></trkpt><trkpt lat="42.4637034" lon="12.0737457"><ele>315.0</ele><time>2026-04-19T13:42:22.771Z</time></trkpt><trkpt lat="42.4635757" lon="12.0737955"><ele>315.0</ele><time>2026-04-19T13:42:23.772Z</time></trkpt><trkpt lat="42.4634449" lon="12.0738559"><ele>315.0</ele><time>2026-04-19T13:42:24.772Z</time></trkpt><trkpt lat="42.4633126" lon="12.0739219"><ele>315.0</ele><time>2026-04-19T13:42:25.771Z</time></trkpt><trkpt lat="42.4631827" lon="12.0739908"><ele>315.0</ele><time>2026-04-19T13:42:26.771Z</time></trkpt><trkpt lat="42.4630587" lon="12.0740542"><ele>314.5</ele><time>2026-04-19T13:42:27.77Z</time></trkpt><trkpt lat="42.4629327" lon="12.074118"><ele>314.0</ele><time>2026-04-19T13:42:28.771Z</time></trkpt><trkpt lat="42.4628016" lon="12.0741882"><ele>313.5</ele><time>2026-04-19T13:42:29.77Z</time></trkpt><trkpt lat="42.4626676" lon="12.0742596"><ele>313.0</ele><time>2026-04-19T13:42:30.771Z</time></trkpt><trkpt lat="42.4625288" lon="12.074333"><ele>313.0</ele><time>2026-04-19T13:42:31.772Z</time></trkpt><trkpt lat="42.4623905" lon="12.0744076"><ele>313.0</ele><time>2026-04-19T13:42:32.772Z</time></trkpt><trkpt lat="42.4622527" lon="12.0744846"><ele>313.0</ele><time>2026-04-19T13:42:33.771Z</time></trkpt><trkpt lat="42.4621103" lon="12.0745581"><ele>313.0</ele><time>2026-04-19T13:42:34.771Z</time></trkpt><trkpt lat="42.4619713" lon="12.0746283"><ele>313.0</ele><time>2026-04-19T13:42:35.771Z</time></trkpt><trkpt lat="42.4618364" lon="12.074698"><ele>313.0</ele><time>2026-04-19T13:42:36.772Z</time></trkpt><trkpt lat="42.461706" lon="12.0747628"><ele>313.0</ele><time>2026-04-19T13:42:37.772Z</time></trkpt><trkpt lat="42.4615759" lon="12.0748298"><ele>313.0</ele><time>2026-04-19T13:42:38.772Z</time></trkpt><trkpt lat="42.4614482" lon="12.0749021"><ele>313.0</ele><time>2026-04-19T13:42:39.771Z</time></trkpt><trkpt lat="42.4613222" lon="12.0749753"><ele>313.0</ele><time>2026-04-19T13:42:40.771Z</time></trkpt><trkpt lat="42.4612005" lon="12.0750401"><ele>313.0</ele><time>2026-04-19T13:42:41.772Z</time></trkpt><trkpt lat="42.4610843" lon="12.075097"><ele>313.0</ele><time>2026-04-19T13:42:42.772Z</time></trkpt><trkpt lat="42.4609803" lon="12.0751529"><ele>313.0</ele><time>2026-04-19T13:42:43.772Z</time></trkpt><trkpt lat="42.4608811" lon="12.0752061"><ele>313.0</ele><time>2026-04-19T13:42:44.772Z</time></trkpt><trkpt lat="42.4607848" lon="12.0752593"><ele>313.0</ele><time>2026-04-19T13:42:45.772Z</time></trkpt><trkpt lat="42.4606909" lon="12.0753154"><ele>313.0</ele><time>2026-04-19T13:42:46.771Z</time></trkpt><trkpt lat="42.4605901" lon="12.0753716"><ele>313.0</ele><time>2026-04-19T13:42:47.772Z</time></trkpt><trkpt lat="42.4604912" lon="12.0754258"><ele>313.0</ele><time>2026-04-19T13:42:48.772Z</time></trkpt><trkpt lat="42.4603903" lon="12.0754838"><ele>313.0</ele><time>2026-04-19T13:42:49.772Z</time></trkpt><trkpt lat="42.4602873" lon="12.0755433"><ele>313.0</ele><time>2026-04-19T13:42:50.772Z</time></trkpt><trkpt lat="42.4601887" lon="12.0756037"><ele>313.0</ele><time>2026-04-19T13:42:51.772Z</time></trkpt><trkpt lat="42.4600846" lon="12.0756589"><ele>313.0</ele><time>2026-04-19T13:42:52.771Z</time></trkpt><trkpt lat="42.4599812" lon="12.0757154"><ele>313.0</ele><time>2026-04-19T13:42:53.77Z</time></trkpt><trkpt lat="42.459872" lon="12.0757778"><ele>313.0</ele><time>2026-04-19T13:42:54.77Z</time></trkpt><trkpt lat="42.4597593" lon="12.0758334"><ele>313.0</ele><time>2026-04-19T13:42:55.771Z</time></trkpt><trkpt lat="42.4596379" lon="12.0759178"><ele>312.66666666666663</ele><time>2026-04-19T13:42:56.772Z</time></trkpt><trkpt lat="42.4594951" lon="12.0760215"><ele>312.3333333333333</ele><time>2026-04-19T13:42:57.772Z</time></trkpt><trkpt lat="42.4593309" lon="12.0761367"><ele>312.0</ele><time>2026-04-19T13:42:58.771Z</time></trkpt><trkpt lat="42.459145" lon="12.0762553"><ele>312.0</ele><time>2026-04-19T13:42:59.772Z</time></trkpt><trkpt lat="42.4589357" lon="12.0763932"><ele>312.0</ele><time>2026-04-19T13:43:00.772Z</time></trkpt><trkpt lat="42.4587082" lon="12.0765333"><ele>310.0</ele><time>2026-04-19T13:43:01.772Z</time></trkpt><trkpt lat="42.4584681" lon="12.076689"><ele>308.0</ele><time>2026-04-19T13:43:02.772Z</time></trkpt><trkpt lat="42.4582333" lon="12.0768507"><ele>308.0</ele><time>2026-04-19T13:43:03.77Z</time></trkpt><trkpt lat="42.4580111" lon="12.0770011"><ele>308.0</ele><time>2026-04-19T13:43:04.772Z</time></trkpt><trkpt lat="42.457794" lon="12.0771539"><ele>306.5</ele><time>2026-04-19T13:43:05.771Z</time></trkpt><trkpt lat="42.4575864" lon="12.077295"><ele>305.0</ele><time>2026-04-19T13:43:06.772Z</time></trkpt><trkpt lat="42.4573802" lon="12.0774306"><ele>305.6666666666667</ele><time>2026-04-19T13:43:07.771Z</time></trkpt><trkpt lat="42.4571811" lon="12.0775599"><ele>306.3333333333333</ele><time>2026-04-19T13:43:08.771Z</time></trkpt><trkpt lat="42.4569874" lon="12.0776932"><ele>307.0</ele><time>2026-04-19T13:43:09.771Z</time></trkpt><trkpt lat="42.4567921" lon="12.0778256"><ele>307.3333333333333</ele><time>2026-04-19T13:43:10.771Z</time></trkpt><trkpt lat="42.456595" lon="12.0779585"><ele>307.6666666666667</ele><time>2026-04-19T13:43:11.771Z</time></trkpt><trkpt lat="42.4564019" lon="12.0780913"><ele>308.0</ele><time>2026-04-19T13:43:12.771Z</time></trkpt><trkpt lat="42.4562099" lon="12.0782239"><ele>307.33333333333337</ele><time>2026-04-19T13:43:13.771Z</time></trkpt><trkpt lat="42.4560145" lon="12.0783557"><ele>306.6666666666667</ele><time>2026-04-19T13:43:14.772Z</time></trkpt><trkpt lat="42.4558206" lon="12.078484"><ele>306.0</ele><time>2026-04-19T13:43:15.772Z</time></trkpt><trkpt lat="42.4556306" lon="12.0786134"><ele>307.0</ele><time>2026-04-19T13:43:16.771Z</time></trkpt><trkpt lat="42.4554491" lon="12.0787388"><ele>308.0</ele><time>2026-04-19T13:43:17.771Z</time></trkpt><trkpt lat="42.4552787" lon="12.0788581"><ele>309.0</ele><time>2026-04-19T13:43:18.771Z</time></trkpt><trkpt lat="42.4551114" lon="12.0789884"><ele>308.3333333333333</ele><time>2026-04-19T13:43:19.771Z</time></trkpt><trkpt lat="42.4549496" lon="12.079117"><ele>307.66666666666663</ele><time>2026-04-19T13:43:20.772Z</time></trkpt><trkpt lat="42.4547939" lon="12.0792411"><ele>307.0</ele><time>2026-04-19T13:43:21.771Z</time></trkpt><trkpt lat="42.4546429" lon="12.0793738"><ele>307.0</ele><time>2026-04-19T13:43:22.771Z</time></trkpt><trkpt lat="42.4544888" lon="12.0795108"><ele>307.0</ele><time>2026-04-19T13:43:23.771Z</time></trkpt><trkpt lat="42.4543337" lon="12.0796441"><ele>307.0</ele><time>2026-04-19T13:43:24.772Z</time></trkpt><trkpt lat="42.454186" lon="12.0797693"><ele>307.0</ele><time>2026-04-19T13:43:25.772Z</time></trkpt><trkpt lat="42.4540492" lon="12.0798891"><ele>307.0</ele><time>2026-04-19T13:43:26.772Z</time></trkpt><trkpt lat="42.4539206" lon="12.0799937"><ele>307.0</ele><time>2026-04-19T13:43:27.772Z</time></trkpt><trkpt lat="42.4537985" lon="12.0800987"><ele>307.5</ele><time>2026-04-19T13:43:28.771Z</time></trkpt><trkpt lat="42.4536811" lon="12.0802"><ele>308.0</ele><time>2026-04-19T13:43:29.772Z</time></trkpt><trkpt lat="42.4535647" lon="12.0803003"><ele>308.5</ele><time>2026-04-19T13:43:30.771Z</time></trkpt><trkpt lat="42.4534335" lon="12.080415"><ele>309.0</ele><time>2026-04-19T13:43:31.77Z</time></trkpt><trkpt lat="42.4533114" lon="12.0805234"><ele>309.0</ele><time>2026-04-19T13:43:32.77Z</time></trkpt><trkpt lat="42.4532008" lon="12.0806129"><ele>309.0</ele><time>2026-04-19T13:43:33.771Z</time></trkpt><trkpt lat="42.4531065" lon="12.0806913"><ele>309.0</ele><time>2026-04-19T13:43:34.771Z</time></trkpt><trkpt lat="42.4530291" lon="12.0807553"><ele>309.0</ele><time>2026-04-19T13:43:35.772Z</time></trkpt><trkpt lat="42.4529613" lon="12.0808118"><ele>309.0</ele><time>2026-04-19T13:43:36.772Z</time></trkpt><trkpt lat="42.4528959" lon="12.0808761"><ele>309.5</ele><time>2026-04-19T13:43:37.772Z</time></trkpt><trkpt lat="42.4528268" lon="12.0809253"><ele>310.0</ele><time>2026-04-19T13:43:38.771Z</time></trkpt><trkpt lat="42.4527512" lon="12.0809669"><ele>310.5</ele><time>2026-04-19T13:43:39.77Z</time></trkpt><trkpt lat="42.4526717" lon="12.0810051"><ele>311.0</ele><time>2026-04-19T13:43:40.77Z</time></trkpt><trkpt lat="42.4525904" lon="12.0810498"><ele>311.5</ele><time>2026-04-19T13:43:41.77Z</time></trkpt><trkpt lat="42.4525059" lon="12.0810898"><ele>312.0</ele><time>2026-04-19T13:43:42.77Z</time></trkpt><trkpt lat="42.4524145" lon="12.0811305"><ele>312.0</ele><time>2026-04-19T13:43:43.77Z</time></trkpt><trkpt lat="42.4523232" lon="12.0811591"><ele>312.0</ele><time>2026-04-19T13:43:44.77Z</time></trkpt><trkpt lat="42.4522373" lon="12.0811955"><ele>312.0</ele><time>2026-04-19T13:43:45.77Z</time></trkpt><trkpt lat="42.4521554" lon="12.0812348"><ele>312.0</ele><time>2026-04-19T13:43:46.77Z</time></trkpt><trkpt lat="42.4520749" lon="12.0812598"><ele>312.0</ele><time>2026-04-19T13:43:47.769Z</time></trkpt><trkpt lat="42.4519925" lon="12.0812992"><ele>312.0</ele><time>2026-04-19T13:43:48.769Z</time></trkpt><trkpt lat="42.4519036" lon="12.0813496"><ele>312.1666666666667</ele><time>2026-04-19T13:43:49.77Z</time></trkpt><trkpt lat="42.4518132" lon="12.0814007"><ele>312.3333333333333</ele><time>2026-04-19T13:43:50.77Z</time></trkpt><trkpt lat="42.4517271" lon="12.08145"><ele>312.5</ele><time>2026-04-19T13:43:51.77Z</time></trkpt><trkpt lat="42.4516542" lon="12.0814934"><ele>312.66666666666663</ele><time>2026-04-19T13:43:52.77Z</time></trkpt><trkpt lat="42.4515831" lon="12.0815448"><ele>312.8333333333333</ele><time>2026-04-19T13:43:53.77Z</time></trkpt><trkpt lat="42.4515025" lon="12.0816043"><ele>313.0</ele><time>2026-04-19T13:43:54.771Z</time></trkpt><trkpt lat="42.4514217" lon="12.0816664"><ele>313.0</ele><time>2026-04-19T13:43:55.769Z</time></trkpt><trkpt lat="42.4513414" lon="12.0817244"><ele>313.0</ele><time>2026-04-19T13:43:56.77Z</time></trkpt><trkpt lat="42.4512667" lon="12.0817794"><ele>313.0</ele><time>2026-04-19T13:43:57.77Z</time></trkpt><trkpt lat="42.4512015" lon="12.0818563"><ele>313.0</ele><time>2026-04-19T13:43:58.77Z</time></trkpt><trkpt lat="42.4511304" lon="12.0819135"><ele>313.0</ele><time>2026-04-19T13:43:59.771Z</time></trkpt><trkpt lat="42.4510485" lon="12.0819599"><ele>313.0</ele><time>2026-04-19T13:44:00.771Z</time></trkpt><trkpt lat="42.4509756" lon="12.0820146"><ele>313.3333333333333</ele><time>2026-04-19T13:44:01.771Z</time></trkpt><trkpt lat="42.450903" lon="12.0820558"><ele>313.66666666666663</ele><time>2026-04-19T13:44:02.771Z</time></trkpt><trkpt lat="42.4508291" lon="12.0821084"><ele>314.0</ele><time>2026-04-19T13:44:03.771Z</time></trkpt><trkpt lat="42.4507533" lon="12.0821659"><ele>314.3333333333333</ele><time>2026-04-19T13:44:04.77Z</time></trkpt><trkpt lat="42.4506833" lon="12.0822186"><ele>314.6666666666667</ele><time>2026-04-19T13:44:05.771Z</time></trkpt><trkpt lat="42.4506276" lon="12.0822637"><ele>315.0</ele><time>2026-04-19T13:44:06.77Z</time></trkpt><trkpt lat="42.4505312" lon="12.0823525"><ele>315.0</ele><time>2026-04-19T13:44:08.769Z</time></trkpt><trkpt lat="42.4504446" lon="12.0824198"><ele>315.0</ele><time>2026-04-19T13:44:10.77Z</time></trkpt><trkpt lat="42.4503842" lon="12.082473"><ele>315.0</ele><time>2026-04-19T13:44:11.77Z</time></trkpt><trkpt lat="42.4502576" lon="12.0825817"><ele>315.0</ele><time>2026-04-19T13:44:12.771Z</time></trkpt><trkpt lat="42.4501189" lon="12.0826681"><ele>315.3333333333333</ele><time>2026-04-19T13:44:13.77Z</time></trkpt><trkpt lat="42.4499636" lon="12.0827807"><ele>315.66666666666663</ele><time>2026-04-19T13:44:14.77Z</time></trkpt><trkpt lat="42.4497765" lon="12.0829123"><ele>316.0</ele><time>2026-04-19T13:44:15.77Z</time></trkpt><trkpt lat="42.4495932" lon="12.0830527"><ele>316.0</ele><time>2026-04-19T13:44:16.771Z</time></trkpt><trkpt lat="42.4493908" lon="12.0832148"><ele>316.0</ele><time>2026-04-19T13:44:17.769Z</time></trkpt><trkpt lat="42.4491701" lon="12.0833695"><ele>316.0</ele><time>2026-04-19T13:44:18.77Z</time></trkpt><trkpt lat="42.4489603" lon="12.0835155"><ele>316.0</ele><time>2026-04-19T13:44:19.771Z</time></trkpt><trkpt lat="42.448771" lon="12.0836521"><ele>316.0</ele><time>2026-04-19T13:44:20.77Z</time></trkpt><trkpt lat="42.448587" lon="12.0837919"><ele>316.0</ele><time>2026-04-19T13:44:21.771Z</time></trkpt><trkpt lat="42.4484172" lon="12.0839203"><ele>316.0</ele><time>2026-04-19T13:44:22.771Z</time></trkpt><trkpt lat="42.4482503" lon="12.0840446"><ele>316.0</ele><time>2026-04-19T13:44:23.77Z</time></trkpt><trkpt lat="42.4480955" lon="12.084166"><ele>316.0</ele><time>2026-04-19T13:44:24.771Z</time></trkpt><trkpt lat="42.4479507" lon="12.0842879"><ele>316.0</ele><time>2026-04-19T13:44:25.77Z</time></trkpt><trkpt lat="42.4478125" lon="12.0844158"><ele>316.0</ele><time>2026-04-19T13:44:26.771Z</time></trkpt><trkpt lat="42.4476678" lon="12.0845549"><ele>316.0</ele><time>2026-04-19T13:44:27.771Z</time></trkpt><trkpt lat="42.4475216" lon="12.0846851"><ele>316.0</ele><time>2026-04-19T13:44:28.771Z</time></trkpt><trkpt lat="42.4473669" lon="12.084818"><ele>315.66666666666663</ele><time>2026-04-19T13:44:29.771Z</time></trkpt><trkpt lat="42.4472091" lon="12.0849456"><ele>315.3333333333333</ele><time>2026-04-19T13:44:30.771Z</time></trkpt><trkpt lat="42.4470611" lon="12.0850695"><ele>315.0</ele><time>2026-04-19T13:44:31.771Z</time></trkpt><trkpt lat="42.4469107" lon="12.0851886"><ele>314.6666666666667</ele><time>2026-04-19T13:44:32.77Z</time></trkpt><trkpt lat="42.4467659" lon="12.0853141"><ele>314.33333333333337</ele><time>2026-04-19T13:44:33.77Z</time></trkpt><trkpt lat="42.4466221" lon="12.0854136"><ele>314.0</ele><time>2026-04-19T13:44:34.771Z</time></trkpt><trkpt lat="42.446468" lon="12.085508"><ele>314.0</ele><time>2026-04-19T13:44:35.771Z</time></trkpt><trkpt lat="42.4463131" lon="12.0855875"><ele>314.0</ele><time>2026-04-19T13:44:36.771Z</time></trkpt><trkpt lat="42.4461693" lon="12.0856622"><ele>314.0</ele><time>2026-04-19T13:44:37.771Z</time></trkpt><trkpt lat="42.4460295" lon="12.0857384"><ele>313.75</ele><time>2026-04-19T13:44:38.771Z</time></trkpt><trkpt lat="42.4458986" lon="12.0857993"><ele>313.5</ele><time>2026-04-19T13:44:39.771Z</time></trkpt><trkpt lat="42.445774" lon="12.0858603"><ele>313.25</ele><time>2026-04-19T13:44:40.77Z</time></trkpt><trkpt lat="42.4456554" lon="12.0859154"><ele>313.0</ele><time>2026-04-19T13:44:41.77Z</time></trkpt><trkpt lat="42.4455562" lon="12.0859745"><ele>313.0</ele><time>2026-04-19T13:44:42.77Z</time></trkpt><trkpt lat="42.4454642" lon="12.0860363"><ele>313.0</ele><time>2026-04-19T13:44:43.769Z</time></trkpt><trkpt lat="42.4453445" lon="12.0861104"><ele>313.0</ele><time>2026-04-19T13:44:44.77Z</time></trkpt><trkpt lat="42.4452011" lon="12.0861951"><ele>313.0</ele><time>2026-04-19T13:44:45.77Z</time></trkpt><trkpt lat="42.4450444" lon="12.0862957"><ele>313.3333333333333</ele><time>2026-04-19T13:44:46.77Z</time></trkpt><trkpt lat="42.4448721" lon="12.0864193"><ele>313.6666666666667</ele><time>2026-04-19T13:44:47.77Z</time></trkpt><trkpt lat="42.4447101" lon="12.0865524"><ele>314.0</ele><time>2026-04-19T13:44:48.771Z</time></trkpt><trkpt lat="42.4445475" lon="12.0866978"><ele>314.6666666666667</ele><time>2026-04-19T13:44:49.771Z</time></trkpt><trkpt lat="42.4444047" lon="12.0868268"><ele>315.3333333333333</ele><time>2026-04-19T13:44:50.77Z</time></trkpt><trkpt lat="42.4442591" lon="12.0869631"><ele>316.0</ele><time>2026-04-19T13:44:51.77Z</time></trkpt><trkpt lat="42.4441186" lon="12.087083"><ele>316.0</ele><time>2026-04-19T13:44:52.77Z</time></trkpt><trkpt lat="42.4439751" lon="12.0872081"><ele>316.0</ele><time>2026-04-19T13:44:53.771Z</time></trkpt><trkpt lat="42.4438418" lon="12.0873191"><ele>316.0</ele><time>2026-04-19T13:44:54.771Z</time></trkpt><trkpt lat="42.4437143" lon="12.0874345"><ele>317.0</ele><time>2026-04-19T13:44:55.771Z</time></trkpt><trkpt lat="42.4435873" lon="12.0875667"><ele>318.0</ele><time>2026-04-19T13:44:56.769Z</time></trkpt><trkpt lat="42.4434597" lon="12.087702"><ele>319.0</ele><time>2026-04-19T13:44:57.77Z</time></trkpt><trkpt lat="42.4433371" lon="12.0878242"><ele>319.0</ele><time>2026-04-19T13:44:58.771Z</time></trkpt><trkpt lat="42.4432239" lon="12.0879129"><ele>319.0</ele><time>2026-04-19T13:44:59.771Z</time></trkpt><trkpt lat="42.4431279" lon="12.0879952"><ele>319.0</ele><time>2026-04-19T13:45:00.771Z</time></trkpt><trkpt lat="42.44303" lon="12.0880778"><ele>319.0</ele><time>2026-04-19T13:45:01.77Z</time></trkpt><trkpt lat="42.4429368" lon="12.088151"><ele>318.5</ele><time>2026-04-19T13:45:02.771Z</time></trkpt><trkpt lat="42.4428373" lon="12.0882223"><ele>318.0</ele><time>2026-04-19T13:45:03.77Z</time></trkpt><trkpt lat="42.4427328" lon="12.0883014"><ele>317.5</ele><time>2026-04-19T13:45:04.77Z</time></trkpt><trkpt lat="42.4426207" lon="12.0883717"><ele>317.0</ele><time>2026-04-19T13:45:05.77Z</time></trkpt><trkpt lat="42.4424993" lon="12.0884409"><ele>317.0</ele><time>2026-04-19T13:45:06.77Z</time></trkpt><trkpt lat="42.442373" lon="12.0885053"><ele>317.0</ele><time>2026-04-19T13:45:07.769Z</time></trkpt><trkpt lat="42.4422395" lon="12.0885793"><ele>317.0</ele><time>2026-04-19T13:45:08.77Z</time></trkpt><trkpt lat="42.4420996" lon="12.0886503"><ele>317.0</ele><time>2026-04-19T13:45:09.77Z</time></trkpt><trkpt lat="42.4419642" lon="12.0887108"><ele>316.25</ele><time>2026-04-19T13:45:10.77Z</time></trkpt><trkpt lat="42.4418325" lon="12.0887718"><ele>315.5</ele><time>2026-04-19T13:45:11.771Z</time></trkpt><trkpt lat="42.4417036" lon="12.0888233"><ele>314.75</ele><time>2026-04-19T13:45:12.769Z</time></trkpt><trkpt lat="42.441576" lon="12.0888716"><ele>314.0</ele><time>2026-04-19T13:45:13.771Z</time></trkpt><trkpt lat="42.4414566" lon="12.0889268"><ele>314.0</ele><time>2026-04-19T13:45:14.77Z</time></trkpt><trkpt lat="42.4413305" lon="12.0889775"><ele>314.0</ele><time>2026-04-19T13:45:15.77Z</time></trkpt><trkpt lat="42.4412101" lon="12.0890246"><ele>314.0</ele><time>2026-04-19T13:45:16.77Z</time></trkpt><trkpt lat="42.4410908" lon="12.0890548"><ele>314.0</ele><time>2026-04-19T13:45:17.77Z</time></trkpt><trkpt lat="42.4409849" lon="12.0890773"><ele>314.0</ele><time>2026-04-19T13:45:18.77Z</time></trkpt><trkpt lat="42.4408919" lon="12.089094"><ele>314.0</ele><time>2026-04-19T13:45:19.77Z</time></trkpt><trkpt lat="42.4408238" lon="12.0891028"><ele>314.0</ele><time>2026-04-19T13:45:20.77Z</time></trkpt><trkpt lat="42.440718" lon="12.0890515"><ele>314.0</ele><time>2026-04-19T13:45:22.77Z</time></trkpt><trkpt lat="42.4406225" lon="12.0889632"><ele>314.0</ele><time>2026-04-19T13:45:24.77Z</time></trkpt><trkpt lat="42.4404962" lon="12.0889402"><ele>313.57142857142856</ele><time>2026-04-19T13:45:26.77Z</time></trkpt><trkpt lat="42.440428" lon="12.0889586"><ele>313.1428571428571</ele><time>2026-04-19T13:45:27.77Z</time></trkpt><trkpt lat="42.440367" lon="12.0890072"><ele>312.71428571428567</ele><time>2026-04-19T13:45:28.77Z</time></trkpt><trkpt lat="42.4403192" lon="12.089081"><ele>312.2857142857143</ele><time>2026-04-19T13:45:29.771Z</time></trkpt><trkpt lat="42.440288" lon="12.0891767"><ele>311.8571428571429</ele><time>2026-04-19T13:45:30.771Z</time></trkpt><trkpt lat="42.4402796" lon="12.0892774"><ele>311.4285714285714</ele><time>2026-04-19T13:45:31.77Z</time></trkpt><trkpt lat="42.4402708" lon="12.0893769"><ele>311.0</ele><time>2026-04-19T13:45:32.771Z</time></trkpt><trkpt lat="42.4402376" lon="12.0894857"><ele>311.0</ele><time>2026-04-19T13:45:33.769Z</time></trkpt><trkpt lat="42.4401877" lon="12.0895846"><ele>311.0</ele><time>2026-04-19T13:45:34.771Z</time></trkpt><trkpt lat="42.4401269" lon="12.0896853"><ele>311.0</ele><time>2026-04-19T13:45:35.77Z</time></trkpt><trkpt lat="42.4400563" lon="12.0897977"><ele>311.0</ele><time>2026-04-19T13:45:36.77Z</time></trkpt><trkpt lat="42.4399797" lon="12.0899251"><ele>311.0</ele><time>2026-04-19T13:45:37.77Z</time></trkpt><trkpt lat="42.4398886" lon="12.0900926"><ele>311.6666666666667</ele><time>2026-04-19T13:45:38.771Z</time></trkpt><trkpt lat="42.4397799" lon="12.0902792"><ele>312.3333333333333</ele><time>2026-04-19T13:45:39.77Z</time></trkpt><trkpt lat="42.4396525" lon="12.0904764"><ele>313.0</ele><time>2026-04-19T13:45:40.77Z</time></trkpt><trkpt lat="42.4395216" lon="12.0906827"><ele>315.3333333333333</ele><time>2026-04-19T13:45:41.769Z</time></trkpt><trkpt lat="42.4394027" lon="12.0908733"><ele>317.6666666666667</ele><time>2026-04-19T13:45:42.769Z</time></trkpt><trkpt lat="42.4392894" lon="12.0910587"><ele>320.0</ele><time>2026-04-19T13:45:43.771Z</time></trkpt><trkpt lat="42.4391855" lon="12.0912316"><ele>320.0</ele><time>2026-04-19T13:45:44.771Z</time></trkpt><trkpt lat="42.4390912" lon="12.0914045"><ele>320.0</ele><time>2026-04-19T13:45:45.771Z</time></trkpt><trkpt lat="42.4389971" lon="12.0915917"><ele>320.0</ele><time>2026-04-19T13:45:46.771Z</time></trkpt><trkpt lat="42.4388977" lon="12.0917961"><ele>320.6666666666667</ele><time>2026-04-19T13:45:47.769Z</time></trkpt><trkpt lat="42.4387887" lon="12.0920083"><ele>321.3333333333333</ele><time>2026-04-19T13:45:48.769Z</time></trkpt><trkpt lat="42.4386751" lon="12.0922135"><ele>322.0</ele><time>2026-04-19T13:45:49.77Z</time></trkpt><trkpt lat="42.4385638" lon="12.0923953"><ele>323.0</ele><time>2026-04-19T13:45:50.771Z</time></trkpt><trkpt lat="42.4384469" lon="12.0925661"><ele>324.0</ele><time>2026-04-19T13:45:51.77Z</time></trkpt><trkpt lat="42.4383414" lon="12.0927084"><ele>325.0</ele><time>2026-04-19T13:45:52.771Z</time></trkpt><trkpt lat="42.4382315" lon="12.092847"><ele>325.0</ele><time>2026-04-19T13:45:53.77Z</time></trkpt><trkpt lat="42.4381308" lon="12.0929864"><ele>325.0</ele><time>2026-04-19T13:45:54.769Z</time></trkpt><trkpt lat="42.4380338" lon="12.0931136"><ele>325.0</ele><time>2026-04-19T13:45:55.77Z</time></trkpt><trkpt lat="42.4379368" lon="12.0932361"><ele>325.0</ele><time>2026-04-19T13:45:56.771Z</time></trkpt><trkpt lat="42.4378342" lon="12.0933493"><ele>324.5</ele><time>2026-04-19T13:45:57.77Z</time></trkpt><trkpt lat="42.4377341" lon="12.0934477"><ele>324.0</ele><time>2026-04-19T13:45:58.771Z</time></trkpt><trkpt lat="42.4376307" lon="12.0935327"><ele>323.5</ele><time>2026-04-19T13:45:59.771Z</time></trkpt><trkpt lat="42.4375247" lon="12.0935942"><ele>323.0</ele><time>2026-04-19T13:46:00.771Z</time></trkpt><trkpt lat="42.4374122" lon="12.0936253"><ele>323.0</ele><time>2026-04-19T13:46:01.77Z</time></trkpt><trkpt lat="42.437292" lon="12.0936193"><ele>323.0</ele><time>2026-04-19T13:46:02.77Z</time></trkpt><trkpt lat="42.4371769" lon="12.0935739"><ele>323.0</ele><time>2026-04-19T13:46:03.771Z</time></trkpt><trkpt lat="42.4370711" lon="12.0934961"><ele>323.0</ele><time>2026-04-19T13:46:04.771Z</time></trkpt><trkpt lat="42.4369723" lon="12.0934057"><ele>322.5</ele><time>2026-04-19T13:46:05.77Z</time></trkpt><trkpt lat="42.4368887" lon="12.0932843"><ele>322.0</ele><time>2026-04-19T13:46:06.771Z</time></trkpt><trkpt lat="42.4368022" lon="12.0931579"><ele>321.5</ele><time>2026-04-19T13:46:07.771Z</time></trkpt><trkpt lat="42.436728" lon="12.0930417"><ele>321.0</ele><time>2026-04-19T13:46:08.771Z</time></trkpt><trkpt lat="42.4366555" lon="12.0929124"><ele>321.0</ele><time>2026-04-19T13:46:09.77Z</time></trkpt><trkpt lat="42.4365871" lon="12.0927731"><ele>321.0</ele><time>2026-04-19T13:46:10.77Z</time></trkpt><trkpt lat="42.4365343" lon="12.0926183"><ele>321.0</ele><time>2026-04-19T13:46:11.771Z</time></trkpt><trkpt lat="42.4365009" lon="12.0924495"><ele>321.0</ele><time>2026-04-19T13:46:12.77Z</time></trkpt><trkpt lat="42.4364871" lon="12.0922802"><ele>321.3333333333333</ele><time>2026-04-19T13:46:13.771Z</time></trkpt><trkpt lat="42.4365102" lon="12.0921047"><ele>321.66666666666663</ele><time>2026-04-19T13:46:14.771Z</time></trkpt><trkpt lat="42.4365616" lon="12.0919065"><ele>322.0</ele><time>2026-04-19T13:46:15.771Z</time></trkpt><trkpt lat="42.4366709" lon="12.0917288"><ele>322.0</ele><time>2026-04-19T13:46:16.771Z</time></trkpt><trkpt lat="42.4367744" lon="12.0915424"><ele>322.0</ele><time>2026-04-19T13:46:17.771Z</time></trkpt><trkpt lat="42.4368976" lon="12.0913518"><ele>322.0</ele><time>2026-04-19T13:46:18.77Z</time></trkpt><trkpt lat="42.4370308" lon="12.0911529"><ele>321.66666666666663</ele><time>2026-04-19T13:46:19.77Z</time></trkpt><trkpt lat="42.4371542" lon="12.0909525"><ele>321.3333333333333</ele><time>2026-04-19T13:46:20.77Z</time></trkpt><trkpt lat="42.4372802" lon="12.0907513"><ele>321.0</ele><time>2026-04-19T13:46:21.771Z</time></trkpt><trkpt lat="42.4374032" lon="12.0905651"><ele>321.0</ele><time>2026-04-19T13:46:22.771Z</time></trkpt><trkpt lat="42.4375004" lon="12.0903911"><ele>321.0</ele><time>2026-04-19T13:46:23.771Z</time></trkpt><trkpt lat="42.4375878" lon="12.0902091"><ele>321.0</ele><time>2026-04-19T13:46:24.771Z</time></trkpt><trkpt lat="42.4376644" lon="12.0900437"><ele>320.25</ele><time>2026-04-19T13:46:25.77Z</time></trkpt><trkpt lat="42.4377056" lon="12.0898677"><ele>319.5</ele><time>2026-04-19T13:46:26.771Z</time></trkpt><trkpt lat="42.437708" lon="12.089707"><ele>318.75</ele><time>2026-04-19T13:46:27.77Z</time></trkpt><trkpt lat="42.4376749" lon="12.0895329"><ele>318.0</ele><time>2026-04-19T13:46:28.77Z</time></trkpt><trkpt lat="42.4376031" lon="12.089381"><ele>318.0</ele><time>2026-04-19T13:46:29.77Z</time></trkpt><trkpt lat="42.4375011" lon="12.0892619"><ele>318.0</ele><time>2026-04-19T13:46:30.769Z</time></trkpt><trkpt lat="42.4373815" lon="12.0891848"><ele>318.0</ele><time>2026-04-19T13:46:31.769Z</time></trkpt><trkpt lat="42.4372525" lon="12.0891535"><ele>318.0</ele><time>2026-04-19T13:46:32.77Z</time></trkpt><trkpt lat="42.4371192" lon="12.0891656"><ele>318.5</ele><time>2026-04-19T13:46:33.771Z</time></trkpt><trkpt lat="42.4369852" lon="12.0892163"><ele>319.0</ele><time>2026-04-19T13:46:34.771Z</time></trkpt><trkpt lat="42.4368574" lon="12.0892843"><ele>319.5</ele><time>2026-04-19T13:46:35.771Z</time></trkpt><trkpt lat="42.4367252" lon="12.0893425"><ele>320.0</ele><time>2026-04-19T13:46:36.771Z</time></trkpt><trkpt lat="42.4365919" lon="12.0893771"><ele>320.0</ele><time>2026-04-19T13:46:37.77Z</time></trkpt><trkpt lat="42.4364561" lon="12.0893886"><ele>320.0</ele><time>2026-04-19T13:46:38.771Z</time></trkpt><trkpt lat="42.4363175" lon="12.0893766"><ele>320.0</ele><time>2026-04-19T13:46:39.771Z</time></trkpt><trkpt lat="42.4361814" lon="12.0893294"><ele>320.0</ele><time>2026-04-19T13:46:40.771Z</time></trkpt><trkpt lat="42.4360442" lon="12.0892481"><ele>319.6666666666667</ele><time>2026-04-19T13:46:41.771Z</time></trkpt><trkpt lat="42.4359067" lon="12.0891364"><ele>319.3333333333333</ele><time>2026-04-19T13:46:42.771Z</time></trkpt><trkpt lat="42.4357585" lon="12.0890018"><ele>319.0</ele><time>2026-04-19T13:46:43.77Z</time></trkpt><trkpt lat="42.4355978" lon="12.0888507"><ele>318.3333333333333</ele><time>2026-04-19T13:46:44.771Z</time></trkpt><trkpt lat="42.4354216" lon="12.088683"><ele>317.6666666666667</ele><time>2026-04-19T13:46:45.77Z</time></trkpt><trkpt lat="42.4352348" lon="12.0885019"><ele>317.0</ele><time>2026-04-19T13:46:46.771Z</time></trkpt><trkpt lat="42.4350424" lon="12.0883026"><ele>316.0</ele><time>2026-04-19T13:46:47.77Z</time></trkpt><trkpt lat="42.4348409" lon="12.0880924"><ele>315.0</ele><time>2026-04-19T13:46:48.771Z</time></trkpt><trkpt lat="42.4346323" lon="12.0878754"><ele>315.0</ele><time>2026-04-19T13:46:49.771Z</time></trkpt><trkpt lat="42.4344199" lon="12.0876543"><ele>315.0</ele><time>2026-04-19T13:46:50.77Z</time></trkpt><trkpt lat="42.4342076" lon="12.0874287"><ele>315.5</ele><time>2026-04-19T13:46:51.771Z</time></trkpt><trkpt lat="42.4339929" lon="12.0872055"><ele>316.0</ele><time>2026-04-19T13:46:52.771Z</time></trkpt><trkpt lat="42.4337809" lon="12.086984"><ele>316.0</ele><time>2026-04-19T13:46:53.771Z</time></trkpt><trkpt lat="42.4335684" lon="12.0867591"><ele>316.0</ele><time>2026-04-19T13:46:54.771Z</time></trkpt><trkpt lat="42.4333622" lon="12.0865378"><ele>316.0</ele><time>2026-04-19T13:46:55.771Z</time></trkpt><trkpt lat="42.4331553" lon="12.0863211"><ele>316.0</ele><time>2026-04-19T13:46:56.771Z</time></trkpt><trkpt lat="42.4329515" lon="12.0861156"><ele>315.5</ele><time>2026-04-19T13:46:57.77Z</time></trkpt><trkpt lat="42.432755" lon="12.0859034"><ele>315.0</ele><time>2026-04-19T13:46:58.771Z</time></trkpt><trkpt lat="42.4325679" lon="12.0857063"><ele>315.0</ele><time>2026-04-19T13:46:59.771Z</time></trkpt><trkpt lat="42.4323791" lon="12.0855151"><ele>315.0</ele><time>2026-04-19T13:47:00.771Z</time></trkpt><trkpt lat="42.4321943" lon="12.0853228"><ele>315.0</ele><time>2026-04-19T13:47:01.771Z</time></trkpt><trkpt lat="42.4320189" lon="12.0851444"><ele>315.0</ele><time>2026-04-19T13:47:02.771Z</time></trkpt><trkpt lat="42.4318468" lon="12.0849538"><ele>315.0</ele><time>2026-04-19T13:47:03.771Z</time></trkpt><trkpt lat="42.4316675" lon="12.0847801"><ele>315.0</ele><time>2026-04-19T13:47:04.771Z</time></trkpt><trkpt lat="42.4314891" lon="12.0846159"><ele>315.0</ele><time>2026-04-19T13:47:05.771Z</time></trkpt><trkpt lat="42.4313057" lon="12.0844521"><ele>315.0</ele><time>2026-04-19T13:47:06.771Z</time></trkpt><trkpt lat="42.4311215" lon="12.0842858"><ele>315.0</ele><time>2026-04-19T13:47:07.769Z</time></trkpt><trkpt lat="42.4309365" lon="12.0841113"><ele>315.0</ele><time>2026-04-19T13:47:08.769Z</time></trkpt><trkpt lat="42.4307348" lon="12.083932"><ele>315.0</ele><time>2026-04-19T13:47:09.77Z</time></trkpt><trkpt lat="42.4305299" lon="12.0837455"><ele>315.0</ele><time>2026-04-19T13:47:10.771Z</time></trkpt><trkpt lat="42.4303206" lon="12.0835535"><ele>315.0</ele><time>2026-04-19T13:47:11.77Z</time></trkpt><trkpt lat="42.4301079" lon="12.0833695"><ele>315.0</ele><time>2026-04-19T13:47:12.771Z</time></trkpt><trkpt lat="42.4298889" lon="12.083192"><ele>314.0</ele><time>2026-04-19T13:47:13.771Z</time></trkpt><trkpt lat="42.4296681" lon="12.0830232"><ele>313.0</ele><time>2026-04-19T13:47:14.77Z</time></trkpt><trkpt lat="42.4294472" lon="12.0828606"><ele>313.0</ele><time>2026-04-19T13:47:15.77Z</time></trkpt><trkpt lat="42.4292243" lon="12.0827028"><ele>313.0</ele><time>2026-04-19T13:47:16.771Z</time></trkpt><trkpt lat="42.4290072" lon="12.0825527"><ele>310.5</ele><time>2026-04-19T13:47:17.771Z</time></trkpt><trkpt lat="42.4287753" lon="12.0823919"><ele>308.0</ele><time>2026-04-19T13:47:18.771Z</time></trkpt><trkpt lat="42.4285492" lon="12.0822413"><ele>308.0</ele><time>2026-04-19T13:47:19.771Z</time></trkpt><trkpt lat="42.4283194" lon="12.0820917"><ele>308.0</ele><time>2026-04-19T13:47:20.77Z</time></trkpt><trkpt lat="42.4280821" lon="12.0819474"><ele>308.0</ele><time>2026-04-19T13:47:21.77Z</time></trkpt><trkpt lat="42.4278376" lon="12.0818047"><ele>308.0</ele><time>2026-04-19T13:47:22.771Z</time></trkpt><trkpt lat="42.4275925" lon="12.081666"><ele>306.5</ele><time>2026-04-19T13:47:23.771Z</time></trkpt><trkpt lat="42.4273396" lon="12.0815336"><ele>305.0</ele><time>2026-04-19T13:47:24.77Z</time></trkpt><trkpt lat="42.4270838" lon="12.0814027"><ele>305.0</ele><time>2026-04-19T13:47:25.771Z</time></trkpt><trkpt lat="42.4268233" lon="12.0812761"><ele>305.0</ele><time>2026-04-19T13:47:26.771Z</time></trkpt><trkpt lat="42.4265606" lon="12.0811502"><ele>304.5</ele><time>2026-04-19T13:47:27.771Z</time></trkpt><trkpt lat="42.4262935" lon="12.0810275"><ele>304.0</ele><time>2026-04-19T13:47:28.771Z</time></trkpt><trkpt lat="42.4260209" lon="12.0809177"><ele>304.0</ele><time>2026-04-19T13:47:29.771Z</time></trkpt><trkpt lat="42.4257478" lon="12.080813"><ele>304.0</ele><time>2026-04-19T13:47:30.77Z</time></trkpt><trkpt lat="42.4254746" lon="12.0807071"><ele>302.5</ele><time>2026-04-19T13:47:31.77Z</time></trkpt><trkpt lat="42.4251935" lon="12.0805952"><ele>301.0</ele><time>2026-04-19T13:47:32.77Z</time></trkpt><trkpt lat="42.4249114" lon="12.0804822"><ele>300.5</ele><time>2026-04-19T13:47:33.77Z</time></trkpt><trkpt lat="42.4246286" lon="12.0803746"><ele>300.0</ele><time>2026-04-19T13:47:34.771Z</time></trkpt><trkpt lat="42.4243452" lon="12.0802606"><ele>300.0</ele><time>2026-04-19T13:47:35.77Z</time></trkpt><trkpt lat="42.4240581" lon="12.080149"><ele>300.0</ele><time>2026-04-19T13:47:36.77Z</time></trkpt><trkpt lat="42.4237671" lon="12.0800397"><ele>299.5</ele><time>2026-04-19T13:47:37.769Z</time></trkpt><trkpt lat="42.4234794" lon="12.0799296"><ele>299.0</ele><time>2026-04-19T13:47:38.77Z</time></trkpt><trkpt lat="42.4231837" lon="12.0798193"><ele>297.5</ele><time>2026-04-19T13:47:39.769Z</time></trkpt><trkpt lat="42.4228912" lon="12.0797136"><ele>296.0</ele><time>2026-04-19T13:47:40.77Z</time></trkpt><trkpt lat="42.4226029" lon="12.079604"><ele>296.0</ele><time>2026-04-19T13:47:41.771Z</time></trkpt><trkpt lat="42.4223161" lon="12.0794929"><ele>296.0</ele><time>2026-04-19T13:47:42.77Z</time></trkpt><trkpt lat="42.422031" lon="12.0793818"><ele>296.5</ele><time>2026-04-19T13:47:43.771Z</time></trkpt><trkpt lat="42.4217453" lon="12.0792687"><ele>297.0</ele><time>2026-04-19T13:47:44.771Z</time></trkpt><trkpt lat="42.421459" lon="12.0791533"><ele>294.5</ele><time>2026-04-19T13:47:45.771Z</time></trkpt><trkpt lat="42.4211748" lon="12.0790448"><ele>292.0</ele><time>2026-04-19T13:47:46.771Z</time></trkpt><trkpt lat="42.4208935" lon="12.078934"><ele>292.0</ele><time>2026-04-19T13:47:47.77Z</time></trkpt><trkpt lat="42.4206123" lon="12.0788193"><ele>292.0</ele><time>2026-04-19T13:47:48.77Z</time></trkpt><trkpt lat="42.4203349" lon="12.0787057"><ele>292.5</ele><time>2026-04-19T13:47:49.771Z</time></trkpt><trkpt lat="42.4200587" lon="12.0785867"><ele>293.0</ele><time>2026-04-19T13:47:50.771Z</time></trkpt><trkpt lat="42.4197877" lon="12.0784698"><ele>292.0</ele><time>2026-04-19T13:47:51.77Z</time></trkpt><trkpt lat="42.419511" lon="12.0783528"><ele>291.0</ele><time>2026-04-19T13:47:52.77Z</time></trkpt><trkpt lat="42.4192322" lon="12.0782381"><ele>290.0</ele><time>2026-04-19T13:47:53.77Z</time></trkpt><trkpt lat="42.4189535" lon="12.0781303"><ele>289.0</ele><time>2026-04-19T13:47:54.771Z</time></trkpt><trkpt lat="42.418675" lon="12.0780196"><ele>288.0</ele><time>2026-04-19T13:47:55.771Z</time></trkpt><trkpt lat="42.4183982" lon="12.0779068"><ele>287.0</ele><time>2026-04-19T13:47:56.77Z</time></trkpt><trkpt lat="42.41812" lon="12.0777984"><ele>283.5</ele><time>2026-04-19T13:47:57.77Z</time></trkpt><trkpt lat="42.417844" lon="12.0776898"><ele>280.0</ele><time>2026-04-19T13:47:58.771Z</time></trkpt><trkpt lat="42.417565" lon="12.0775779"><ele>280.0</ele><time>2026-04-19T13:47:59.77Z</time></trkpt><trkpt lat="42.4172895" lon="12.0774676"><ele>280.0</ele><time>2026-04-19T13:48:00.771Z</time></trkpt><trkpt lat="42.4170089" lon="12.0773522"><ele>275.0</ele><time>2026-04-19T13:48:01.771Z</time></trkpt><trkpt lat="42.4167351" lon="12.0772323"><ele>270.0</ele><time>2026-04-19T13:48:02.77Z</time></trkpt><trkpt lat="42.4164543" lon="12.0771104"><ele>273.0</ele><time>2026-04-19T13:48:03.771Z</time></trkpt><trkpt lat="42.4161771" lon="12.0769767"><ele>276.0</ele><time>2026-04-19T13:48:04.771Z</time></trkpt><trkpt lat="42.4159062" lon="12.0768358"><ele>276.0</ele><time>2026-04-19T13:48:05.771Z</time></trkpt><trkpt lat="42.4156389" lon="12.0766798"><ele>276.0</ele><time>2026-04-19T13:48:06.771Z</time></trkpt><trkpt lat="42.4153737" lon="12.0765189"><ele>280.5</ele><time>2026-04-19T13:48:07.77Z</time></trkpt><trkpt lat="42.4151146" lon="12.0763478"><ele>285.0</ele><time>2026-04-19T13:48:08.771Z</time></trkpt><trkpt lat="42.4148547" lon="12.076177"><ele>283.5</ele><time>2026-04-19T13:48:09.771Z</time></trkpt><trkpt lat="42.4145939" lon="12.0760045"><ele>282.0</ele><time>2026-04-19T13:48:10.771Z</time></trkpt><trkpt lat="42.4143334" lon="12.0758273"><ele>283.0</ele><time>2026-04-19T13:48:11.771Z</time></trkpt><trkpt lat="42.4140748" lon="12.0756572"><ele>284.0</ele><time>2026-04-19T13:48:12.77Z</time></trkpt><trkpt lat="42.4138177" lon="12.075471"><ele>281.0</ele><time>2026-04-19T13:48:13.771Z</time></trkpt><trkpt lat="42.4135552" lon="12.0752868"><ele>278.0</ele><time>2026-04-19T13:48:14.771Z</time></trkpt><trkpt lat="42.4132986" lon="12.0751005"><ele>278.0</ele><time>2026-04-19T13:48:15.771Z</time></trkpt><trkpt lat="42.4130411" lon="12.0749176"><ele>278.0</ele><time>2026-04-19T13:48:16.77Z</time></trkpt><trkpt lat="42.4127775" lon="12.0747377"><ele>276.0</ele><time>2026-04-19T13:48:17.77Z</time></trkpt><trkpt lat="42.4125197" lon="12.0745527"><ele>274.0</ele><time>2026-04-19T13:48:18.771Z</time></trkpt><trkpt lat="42.4122598" lon="12.0743727"><ele>273.5</ele><time>2026-04-19T13:48:19.769Z</time></trkpt><trkpt lat="42.4120021" lon="12.0741943"><ele>273.0</ele><time>2026-04-19T13:48:20.77Z</time></trkpt><trkpt lat="42.411745" lon="12.0740154"><ele>273.0</ele><time>2026-04-19T13:48:21.771Z</time></trkpt><trkpt lat="42.4114903" lon="12.0738318"><ele>273.0</ele><time>2026-04-19T13:48:22.771Z</time></trkpt><trkpt lat="42.4112352" lon="12.0736526"><ele>274.0</ele><time>2026-04-19T13:48:23.771Z</time></trkpt><trkpt lat="42.4109773" lon="12.0734749"><ele>275.0</ele><time>2026-04-19T13:48:24.77Z</time></trkpt><trkpt lat="42.4107173" lon="12.0732991"><ele>273.5</ele><time>2026-04-19T13:48:25.771Z</time></trkpt><trkpt lat="42.4104568" lon="12.073121"><ele>272.0</ele><time>2026-04-19T13:48:26.77Z</time></trkpt><trkpt lat="42.4102015" lon="12.0729386"><ele>272.0</ele><time>2026-04-19T13:48:27.771Z</time></trkpt><trkpt lat="42.4099521" lon="12.0727616"><ele>272.0</ele><time>2026-04-19T13:48:28.771Z</time></trkpt><trkpt lat="42.4096977" lon="12.0725679"><ele>271.0</ele><time>2026-04-19T13:48:29.771Z</time></trkpt><trkpt lat="42.4094485" lon="12.0723895"><ele>270.0</ele><time>2026-04-19T13:48:30.77Z</time></trkpt><trkpt lat="42.4091951" lon="12.072204"><ele>270.0</ele><time>2026-04-19T13:48:31.769Z</time></trkpt><trkpt lat="42.4089403" lon="12.0720216"><ele>270.0</ele><time>2026-04-19T13:48:32.769Z</time></trkpt><trkpt lat="42.4086829" lon="12.0718413"><ele>267.5</ele><time>2026-04-19T13:48:33.77Z</time></trkpt><trkpt lat="42.4084265" lon="12.0716591"><ele>265.0</ele><time>2026-04-19T13:48:34.771Z</time></trkpt><trkpt lat="42.4081723" lon="12.0714752"><ele>264.0</ele><time>2026-04-19T13:48:35.77Z</time></trkpt><trkpt lat="42.4079196" lon="12.0712862"><ele>263.0</ele><time>2026-04-19T13:48:36.771Z</time></trkpt><trkpt lat="42.4076673" lon="12.0710983"><ele>263.0</ele><time>2026-04-19T13:48:37.771Z</time></trkpt><trkpt lat="42.4074162" lon="12.0709081"><ele>263.0</ele><time>2026-04-19T13:48:38.771Z</time></trkpt><trkpt lat="42.4071657" lon="12.0707167"><ele>264.5</ele><time>2026-04-19T13:48:39.771Z</time></trkpt><trkpt lat="42.4069188" lon="12.0705173"><ele>266.0</ele><time>2026-04-19T13:48:40.771Z</time></trkpt><trkpt lat="42.4066546" lon="12.0703324"><ele>266.0</ele><time>2026-04-19T13:48:41.771Z</time></trkpt><trkpt lat="42.406397" lon="12.0701381"><ele>266.0</ele><time>2026-04-19T13:48:42.771Z</time></trkpt><trkpt lat="42.4061475" lon="12.0699397"><ele>261.0</ele><time>2026-04-19T13:48:43.771Z</time></trkpt><trkpt lat="42.4058944" lon="12.0697408"><ele>256.0</ele><time>2026-04-19T13:48:44.77Z</time></trkpt><trkpt lat="42.4056452" lon="12.0695431"><ele>250.5</ele><time>2026-04-19T13:48:45.771Z</time></trkpt><trkpt lat="42.4053915" lon="12.0693502"><ele>245.0</ele><time>2026-04-19T13:48:46.771Z</time></trkpt><trkpt lat="42.405139" lon="12.0691574"><ele>244.0</ele><time>2026-04-19T13:48:47.771Z</time></trkpt><trkpt lat="42.4048853" lon="12.0689674"><ele>243.0</ele><time>2026-04-19T13:48:48.77Z</time></trkpt><trkpt lat="42.4046314" lon="12.0687859"><ele>245.0</ele><time>2026-04-19T13:48:49.771Z</time></trkpt><trkpt lat="42.4043712" lon="12.0686073"><ele>247.0</ele><time>2026-04-19T13:48:50.771Z</time></trkpt><trkpt lat="42.4041105" lon="12.0684404"><ele>247.0</ele><time>2026-04-19T13:48:51.771Z</time></trkpt><trkpt lat="42.4038445" lon="12.0682828"><ele>247.0</ele><time>2026-04-19T13:48:52.769Z</time></trkpt><trkpt lat="42.4035764" lon="12.0681324"><ele>253.5</ele><time>2026-04-19T13:48:53.77Z</time></trkpt><trkpt lat="42.4033066" lon="12.0679876"><ele>260.0</ele><time>2026-04-19T13:48:54.77Z</time></trkpt><trkpt lat="42.4030381" lon="12.0678441"><ele>263.5</ele><time>2026-04-19T13:48:55.77Z</time></trkpt><trkpt lat="42.4027676" lon="12.067708"><ele>267.0</ele><time>2026-04-19T13:48:56.77Z</time></trkpt><trkpt lat="42.402498" lon="12.0675756"><ele>266.5</ele><time>2026-04-19T13:48:57.769Z</time></trkpt><trkpt lat="42.4022278" lon="12.067438"><ele>266.0</ele><time>2026-04-19T13:48:58.769Z</time></trkpt><trkpt lat="42.4019547" lon="12.0673074"><ele>266.0</ele><time>2026-04-19T13:48:59.77Z</time></trkpt><trkpt lat="42.4016907" lon="12.0671722"><ele>266.0</ele><time>2026-04-19T13:49:00.77Z</time></trkpt><trkpt lat="42.401417" lon="12.0670356"><ele>263.5</ele><time>2026-04-19T13:49:01.771Z</time></trkpt><trkpt lat="42.4011463" lon="12.0669025"><ele>261.0</ele><time>2026-04-19T13:49:02.77Z</time></trkpt><trkpt lat="42.400873" lon="12.0667605"><ele>261.0</ele><time>2026-04-19T13:49:03.769Z</time></trkpt><trkpt lat="42.4005994" lon="12.0666213"><ele>261.0</ele><time>2026-04-19T13:49:04.77Z</time></trkpt><trkpt lat="42.4003274" lon="12.0664821"><ele>256.0</ele><time>2026-04-19T13:49:05.771Z</time></trkpt><trkpt lat="42.4000555" lon="12.0663407"><ele>251.0</ele><time>2026-04-19T13:49:06.771Z</time></trkpt><trkpt lat="42.3997859" lon="12.066204"><ele>249.5</ele><time>2026-04-19T13:49:07.77Z</time></trkpt><trkpt lat="42.3995142" lon="12.066067"><ele>248.0</ele><time>2026-04-19T13:49:08.771Z</time></trkpt><trkpt lat="42.3992455" lon="12.0659257"><ele>248.0</ele><time>2026-04-19T13:49:09.77Z</time></trkpt><trkpt lat="42.3989747" lon="12.0657917"><ele>248.0</ele><time>2026-04-19T13:49:10.771Z</time></trkpt><trkpt lat="42.3987055" lon="12.0656531"><ele>247.5</ele><time>2026-04-19T13:49:11.771Z</time></trkpt><trkpt lat="42.3984379" lon="12.0655124"><ele>247.0</ele><time>2026-04-19T13:49:12.77Z</time></trkpt><trkpt lat="42.3981637" lon="12.0653773"><ele>247.5</ele><time>2026-04-19T13:49:13.77Z</time></trkpt><trkpt lat="42.3978944" lon="12.0652385"><ele>248.0</ele><time>2026-04-19T13:49:14.769Z</time></trkpt><trkpt lat="42.3976203" lon="12.0651041"><ele>248.0</ele><time>2026-04-19T13:49:15.77Z</time></trkpt><trkpt lat="42.3973488" lon="12.0649674"><ele>248.0</ele><time>2026-04-19T13:49:16.769Z</time></trkpt><trkpt lat="42.3970805" lon="12.0648329"><ele>249.0</ele><time>2026-04-19T13:49:17.77Z</time></trkpt><trkpt lat="42.3968093" lon="12.064694"><ele>250.0</ele><time>2026-04-19T13:49:18.77Z</time></trkpt><trkpt lat="42.3965377" lon="12.0645581"><ele>252.5</ele><time>2026-04-19T13:49:19.77Z</time></trkpt><trkpt lat="42.3962689" lon="12.0644218"><ele>255.0</ele><time>2026-04-19T13:49:20.771Z</time></trkpt><trkpt lat="42.3960023" lon="12.0642876"><ele>255.0</ele><time>2026-04-19T13:49:21.77Z</time></trkpt><trkpt lat="42.3957314" lon="12.064152"><ele>255.0</ele><time>2026-04-19T13:49:22.77Z</time></trkpt><trkpt lat="42.39546" lon="12.0640127"><ele>254.0</ele><time>2026-04-19T13:49:23.771Z</time></trkpt><trkpt lat="42.39519" lon="12.0638655"><ele>253.0</ele><time>2026-04-19T13:49:24.77Z</time></trkpt><trkpt lat="42.3949215" lon="12.0637136"><ele>253.5</ele><time>2026-04-19T13:49:25.77Z</time></trkpt><trkpt lat="42.3946553" lon="12.0635658"><ele>254.0</ele><time>2026-04-19T13:49:26.77Z</time></trkpt><trkpt lat="42.3943885" lon="12.0634251"><ele>254.0</ele><time>2026-04-19T13:49:27.771Z</time></trkpt><trkpt lat="42.3941188" lon="12.0632826"><ele>254.0</ele><time>2026-04-19T13:49:28.771Z</time></trkpt><trkpt lat="42.3938523" lon="12.0631192"><ele>251.5</ele><time>2026-04-19T13:49:29.771Z</time></trkpt><trkpt lat="42.3935844" lon="12.0629668"><ele>249.0</ele><time>2026-04-19T13:49:30.771Z</time></trkpt><trkpt lat="42.3933221" lon="12.0628171"><ele>249.0</ele><time>2026-04-19T13:49:31.77Z</time></trkpt><trkpt lat="42.393055" lon="12.0626653"><ele>249.0</ele><time>2026-04-19T13:49:32.771Z</time></trkpt><trkpt lat="42.3927912" lon="12.0625109"><ele>248.5</ele><time>2026-04-19T13:49:33.771Z</time></trkpt><trkpt lat="42.3925295" lon="12.0623613"><ele>248.0</ele><time>2026-04-19T13:49:34.769Z</time></trkpt><trkpt lat="42.392265" lon="12.0622001"><ele>247.0</ele><time>2026-04-19T13:49:35.77Z</time></trkpt><trkpt lat="42.3919989" lon="12.0620416"><ele>246.0</ele><time>2026-04-19T13:49:36.77Z</time></trkpt><trkpt lat="42.3917344" lon="12.0618832"><ele>246.0</ele><time>2026-04-19T13:49:37.769Z</time></trkpt><trkpt lat="42.3914688" lon="12.0617227"><ele>246.0</ele><time>2026-04-19T13:49:38.771Z</time></trkpt><trkpt lat="42.3912044" lon="12.0615704"><ele>244.5</ele><time>2026-04-19T13:49:39.771Z</time></trkpt><trkpt lat="42.3909407" lon="12.0614092"><ele>243.0</ele><time>2026-04-19T13:49:40.77Z</time></trkpt><trkpt lat="42.3906776" lon="12.0612483"><ele>243.0</ele><time>2026-04-19T13:49:41.769Z</time></trkpt><trkpt lat="42.3904141" lon="12.0610839"><ele>243.0</ele><time>2026-04-19T13:49:42.77Z</time></trkpt><trkpt lat="42.3901528" lon="12.0609185"><ele>243.0</ele><time>2026-04-19T13:49:43.77Z</time></trkpt><trkpt lat="42.3898933" lon="12.0607588"><ele>243.0</ele><time>2026-04-19T13:49:44.769Z</time></trkpt><trkpt lat="42.389634" lon="12.0605933"><ele>243.0</ele><time>2026-04-19T13:49:45.769Z</time></trkpt><trkpt lat="42.3893693" lon="12.0604313"><ele>243.0</ele><time>2026-04-19T13:49:46.77Z</time></trkpt><trkpt lat="42.3891064" lon="12.0602672"><ele>243.0</ele><time>2026-04-19T13:49:47.769Z</time></trkpt><trkpt lat="42.3888442" lon="12.0600992"><ele>243.0</ele><time>2026-04-19T13:49:48.771Z</time></trkpt><trkpt lat="42.3885755" lon="12.0599374"><ele>244.0</ele><time>2026-04-19T13:49:49.771Z</time></trkpt><trkpt lat="42.3883114" lon="12.0597753"><ele>245.0</ele><time>2026-04-19T13:49:50.771Z</time></trkpt><trkpt lat="42.3880496" lon="12.059617"><ele>245.5</ele><time>2026-04-19T13:49:51.771Z</time></trkpt><trkpt lat="42.3877879" lon="12.0594531"><ele>246.0</ele><time>2026-04-19T13:49:52.77Z</time></trkpt><trkpt lat="42.3875224" lon="12.0592906"><ele>246.0</ele><time>2026-04-19T13:49:53.77Z</time></trkpt><trkpt lat="42.3872573" lon="12.0591315"><ele>246.0</ele><time>2026-04-19T13:49:54.77Z</time></trkpt><trkpt lat="42.3869931" lon="12.0589714"><ele>246.5</ele><time>2026-04-19T13:49:55.77Z</time></trkpt><trkpt lat="42.3867261" lon="12.058812"><ele>247.0</ele><time>2026-04-19T13:49:56.771Z</time></trkpt><trkpt lat="42.3864565" lon="12.0586572"><ele>247.0</ele><time>2026-04-19T13:49:57.771Z</time></trkpt><trkpt lat="42.3861904" lon="12.0585039"><ele>247.0</ele><time>2026-04-19T13:49:58.77Z</time></trkpt><trkpt lat="42.3859268" lon="12.0583557"><ele>246.0</ele><time>2026-04-19T13:49:59.77Z</time></trkpt><trkpt lat="42.3856598" lon="12.0582042"><ele>245.0</ele><time>2026-04-19T13:50:00.77Z</time></trkpt><trkpt lat="42.385394" lon="12.0580548"><ele>245.0</ele><time>2026-04-19T13:50:01.769Z</time></trkpt><trkpt lat="42.3851277" lon="12.057905"><ele>245.0</ele><time>2026-04-19T13:50:02.771Z</time></trkpt><trkpt lat="42.3848602" lon="12.057759"><ele>246.5</ele><time>2026-04-19T13:50:03.77Z</time></trkpt><trkpt lat="42.3845897" lon="12.0576147"><ele>248.0</ele><time>2026-04-19T13:50:04.771Z</time></trkpt><trkpt lat="42.3843188" lon="12.057473"><ele>246.5</ele><time>2026-04-19T13:50:05.771Z</time></trkpt><trkpt lat="42.3840557" lon="12.0573234"><ele>245.0</ele><time>2026-04-19T13:50:06.771Z</time></trkpt><trkpt lat="42.3837824" lon="12.0571788"><ele>245.0</ele><time>2026-04-19T13:50:07.77Z</time></trkpt><trkpt lat="42.3835165" lon="12.0570339"><ele>245.0</ele><time>2026-04-19T13:50:08.77Z</time></trkpt><trkpt lat="42.383247" lon="12.0568912"><ele>245.5</ele><time>2026-04-19T13:50:09.77Z</time></trkpt><trkpt lat="42.3829759" lon="12.0567535"><ele>246.0</ele><time>2026-04-19T13:50:10.77Z</time></trkpt><trkpt lat="42.3827029" lon="12.0566168"><ele>244.5</ele><time>2026-04-19T13:50:11.771Z</time></trkpt><trkpt lat="42.3824317" lon="12.0564778"><ele>243.0</ele><time>2026-04-19T13:50:12.771Z</time></trkpt><trkpt lat="42.3821607" lon="12.0563428"><ele>243.0</ele><time>2026-04-19T13:50:13.771Z</time></trkpt><trkpt lat="42.3818827" lon="12.0562074"><ele>243.0</ele><time>2026-04-19T13:50:14.771Z</time></trkpt><trkpt lat="42.3815991" lon="12.056065"><ele>242.0</ele><time>2026-04-19T13:50:15.77Z</time></trkpt><trkpt lat="42.3813091" lon="12.0559223"><ele>241.0</ele><time>2026-04-19T13:50:16.77Z</time></trkpt><trkpt lat="42.3810155" lon="12.0557724"><ele>240.5</ele><time>2026-04-19T13:50:17.769Z</time></trkpt><trkpt lat="42.3807168" lon="12.0556196"><ele>240.0</ele><time>2026-04-19T13:50:18.769Z</time></trkpt><trkpt lat="42.38042" lon="12.0554594"><ele>238.5</ele><time>2026-04-19T13:50:19.769Z</time></trkpt><trkpt lat="42.3801187" lon="12.0553039"><ele>237.0</ele><time>2026-04-19T13:50:20.769Z</time></trkpt><trkpt lat="42.3798205" lon="12.0551438"><ele>237.5</ele><time>2026-04-19T13:50:21.77Z</time></trkpt><trkpt lat="42.3795275" lon="12.0549863"><ele>238.0</ele><time>2026-04-19T13:50:22.769Z</time></trkpt><trkpt lat="42.379235" lon="12.0548306"><ele>238.0</ele><time>2026-04-19T13:50:23.77Z</time></trkpt><trkpt lat="42.378957" lon="12.0546713"><ele>238.0</ele><time>2026-04-19T13:50:24.77Z</time></trkpt><trkpt lat="42.3786757" lon="12.0545118"><ele>239.0</ele><time>2026-04-19T13:50:25.771Z</time></trkpt><trkpt lat="42.3783944" lon="12.054361"><ele>240.0</ele><time>2026-04-19T13:50:26.771Z</time></trkpt><trkpt lat="42.3781158" lon="12.0542137"><ele>239.5</ele><time>2026-04-19T13:50:27.771Z</time></trkpt><trkpt lat="42.3778436" lon="12.0540685"><ele>239.0</ele><time>2026-04-19T13:50:28.77Z</time></trkpt><trkpt lat="42.3775738" lon="12.0539265"><ele>239.0</ele><time>2026-04-19T13:50:29.771Z</time></trkpt><trkpt lat="42.3773142" lon="12.0537929"><ele>239.0</ele><time>2026-04-19T13:50:30.77Z</time></trkpt><trkpt lat="42.3770446" lon="12.0536474"><ele>239.0</ele><time>2026-04-19T13:50:31.771Z</time></trkpt><trkpt lat="42.376776" lon="12.0535051"><ele>239.0</ele><time>2026-04-19T13:50:32.771Z</time></trkpt><trkpt lat="42.3765096" lon="12.0533586"><ele>237.0</ele><time>2026-04-19T13:50:33.771Z</time></trkpt><trkpt lat="42.3762476" lon="12.0532014"><ele>235.0</ele><time>2026-04-19T13:50:34.771Z</time></trkpt><trkpt lat="42.375988" lon="12.0530453"><ele>235.0</ele><time>2026-04-19T13:50:35.771Z</time></trkpt><trkpt lat="42.3757174" lon="12.0528765"><ele>235.0</ele><time>2026-04-19T13:50:36.77Z</time></trkpt><trkpt lat="42.3754619" lon="12.0526975"><ele>235.0</ele><time>2026-04-19T13:50:37.77Z</time></trkpt><trkpt lat="42.3752054" lon="12.0525193"><ele>235.0</ele><time>2026-04-19T13:50:38.77Z</time></trkpt><trkpt lat="42.3749511" lon="12.0523327"><ele>235.0</ele><time>2026-04-19T13:50:39.771Z</time></trkpt><trkpt lat="42.3747012" lon="12.0521371"><ele>235.0</ele><time>2026-04-19T13:50:40.77Z</time></trkpt><trkpt lat="42.3744579" lon="12.0519287"><ele>235.5</ele><time>2026-04-19T13:50:41.771Z</time></trkpt><trkpt lat="42.3742162" lon="12.0517038"><ele>236.0</ele><time>2026-04-19T13:50:42.771Z</time></trkpt><trkpt lat="42.3739868" lon="12.0514479"><ele>234.0</ele><time>2026-04-19T13:50:43.771Z</time></trkpt><trkpt lat="42.3737769" lon="12.0512024"><ele>232.0</ele><time>2026-04-19T13:50:44.771Z</time></trkpt><trkpt lat="42.3735627" lon="12.0509476"><ele>229.5</ele><time>2026-04-19T13:50:45.77Z</time></trkpt><trkpt lat="42.3733595" lon="12.0506719"><ele>227.0</ele><time>2026-04-19T13:50:46.771Z</time></trkpt><trkpt lat="42.3731634" lon="12.0503845"><ele>227.5</ele><time>2026-04-19T13:50:47.77Z</time></trkpt><trkpt lat="42.3729772" lon="12.0500946"><ele>228.0</ele><time>2026-04-19T13:50:48.771Z</time></trkpt><trkpt lat="42.3727959" lon="12.0497861"><ele>228.0</ele><time>2026-04-19T13:50:49.771Z</time></trkpt><trkpt lat="42.3726219" lon="12.0494755"><ele>228.0</ele><time>2026-04-19T13:50:50.77Z</time></trkpt><trkpt lat="42.3724655" lon="12.0491505"><ele>228.0</ele><time>2026-04-19T13:50:51.771Z</time></trkpt><trkpt lat="42.3723195" lon="12.0488164"><ele>228.0</ele><time>2026-04-19T13:50:52.771Z</time></trkpt><trkpt lat="42.3721806" lon="12.0484687"><ele>229.0</ele><time>2026-04-19T13:50:53.771Z</time></trkpt><trkpt lat="42.3720495" lon="12.048115"><ele>230.0</ele><time>2026-04-19T13:50:54.771Z</time></trkpt><trkpt lat="42.371929" lon="12.0477638"><ele>229.0</ele><time>2026-04-19T13:50:55.771Z</time></trkpt><trkpt lat="42.3718192" lon="12.0473986"><ele>228.0</ele><time>2026-04-19T13:50:56.771Z</time></trkpt><trkpt lat="42.3717191" lon="12.0470306"><ele>228.0</ele><time>2026-04-19T13:50:57.77Z</time></trkpt><trkpt lat="42.3716267" lon="12.046661"><ele>228.0</ele><time>2026-04-19T13:50:58.77Z</time></trkpt><trkpt lat="42.3715433" lon="12.0462854"><ele>227.5</ele><time>2026-04-19T13:50:59.77Z</time></trkpt><trkpt lat="42.3714657" lon="12.0459074"><ele>227.0</ele><time>2026-04-19T13:51:00.77Z</time></trkpt><trkpt lat="42.3713932" lon="12.0455282"><ele>224.5</ele><time>2026-04-19T13:51:01.77Z</time></trkpt><trkpt lat="42.3713251" lon="12.0451408"><ele>222.0</ele><time>2026-04-19T13:51:02.77Z</time></trkpt><trkpt lat="42.3712617" lon="12.0447607"><ele>222.0</ele><time>2026-04-19T13:51:03.77Z</time></trkpt><trkpt lat="42.3712043" lon="12.0443784"><ele>222.0</ele><time>2026-04-19T13:51:04.77Z</time></trkpt><trkpt lat="42.3711487" lon="12.0440048"><ele>222.0</ele><time>2026-04-19T13:51:05.77Z</time></trkpt><trkpt lat="42.37109" lon="12.0436218"><ele>222.0</ele><time>2026-04-19T13:51:06.77Z</time></trkpt><trkpt lat="42.3710279" lon="12.0432426"><ele>221.5</ele><time>2026-04-19T13:51:07.771Z</time></trkpt><trkpt lat="42.3709661" lon="12.0428609"><ele>221.0</ele><time>2026-04-19T13:51:08.771Z</time></trkpt><trkpt lat="42.3709054" lon="12.0424781"><ele>220.0</ele><time>2026-04-19T13:51:09.771Z</time></trkpt><trkpt lat="42.3708444" lon="12.042095"><ele>219.0</ele><time>2026-04-19T13:51:10.771Z</time></trkpt><trkpt lat="42.370786" lon="12.0417118"><ele>217.5</ele><time>2026-04-19T13:51:11.77Z</time></trkpt><trkpt lat="42.3707276" lon="12.0413309"><ele>216.0</ele><time>2026-04-19T13:51:12.771Z</time></trkpt><trkpt lat="42.3706693" lon="12.0409477"><ele>216.0</ele><time>2026-04-19T13:51:13.771Z</time></trkpt><trkpt lat="42.3706104" lon="12.0405677"><ele>216.0</ele><time>2026-04-19T13:51:14.771Z</time></trkpt><trkpt lat="42.3705502" lon="12.0401851"><ele>214.5</ele><time>2026-04-19T13:51:15.771Z</time></trkpt><trkpt lat="42.3704887" lon="12.0398025"><ele>213.0</ele><time>2026-04-19T13:51:16.771Z</time></trkpt><trkpt lat="42.3704278" lon="12.0394208"><ele>212.5</ele><time>2026-04-19T13:51:17.77Z</time></trkpt><trkpt lat="42.370367" lon="12.0390404"><ele>212.0</ele><time>2026-04-19T13:51:18.771Z</time></trkpt><trkpt lat="42.3702982" lon="12.0386574"><ele>212.0</ele><time>2026-04-19T13:51:19.771Z</time></trkpt><trkpt lat="42.3702275" lon="12.038269"><ele>212.0</ele><time>2026-04-19T13:51:20.771Z</time></trkpt><trkpt lat="42.3701652" lon="12.037888"><ele>212.0</ele><time>2026-04-19T13:51:21.77Z</time></trkpt><trkpt lat="42.3701069" lon="12.0375087"><ele>212.0</ele><time>2026-04-19T13:51:22.771Z</time></trkpt><trkpt lat="42.3700473" lon="12.037129"><ele>211.5</ele><time>2026-04-19T13:51:23.771Z</time></trkpt><trkpt lat="42.3699875" lon="12.0367441"><ele>211.0</ele><time>2026-04-19T13:51:24.771Z</time></trkpt><trkpt lat="42.3699323" lon="12.0363641"><ele>211.0</ele><time>2026-04-19T13:51:25.771Z</time></trkpt><trkpt lat="42.3698778" lon="12.0359736"><ele>211.0</ele><time>2026-04-19T13:51:26.771Z</time></trkpt><trkpt lat="42.3698221" lon="12.0355879"><ele>211.0</ele><time>2026-04-19T13:51:27.771Z</time></trkpt><trkpt lat="42.3697682" lon="12.0352087"><ele>211.0</ele><time>2026-04-19T13:51:28.771Z</time></trkpt><trkpt lat="42.3697064" lon="12.0348247"><ele>207.0</ele><time>2026-04-19T13:51:29.769Z</time></trkpt><trkpt lat="42.3696441" lon="12.0344416"><ele>203.0</ele><time>2026-04-19T13:51:30.77Z</time></trkpt><trkpt lat="42.3695893" lon="12.0340612"><ele>202.0</ele><time>2026-04-19T13:51:31.769Z</time></trkpt><trkpt lat="42.3695347" lon="12.0336879"><ele>201.0</ele><time>2026-04-19T13:51:32.771Z</time></trkpt><trkpt lat="42.3694788" lon="12.0333076"><ele>201.0</ele><time>2026-04-19T13:51:33.77Z</time></trkpt><trkpt lat="42.3694218" lon="12.0329259"><ele>201.0</ele><time>2026-04-19T13:51:34.771Z</time></trkpt><trkpt lat="42.3693679" lon="12.0325387"><ele>200.5</ele><time>2026-04-19T13:51:35.771Z</time></trkpt><trkpt lat="42.3693142" lon="12.0321536"><ele>200.0</ele><time>2026-04-19T13:51:36.771Z</time></trkpt><trkpt lat="42.3692668" lon="12.0317691"><ele>200.0</ele><time>2026-04-19T13:51:37.77Z</time></trkpt><trkpt lat="42.3692168" lon="12.0313813"><ele>200.0</ele><time>2026-04-19T13:51:38.771Z</time></trkpt><trkpt lat="42.3691661" lon="12.0309973"><ele>201.0</ele><time>2026-04-19T13:51:39.77Z</time></trkpt><trkpt lat="42.3691185" lon="12.0306135"><ele>202.0</ele><time>2026-04-19T13:51:40.771Z</time></trkpt><trkpt lat="42.3690671" lon="12.0302338"><ele>201.0</ele><time>2026-04-19T13:51:41.771Z</time></trkpt><trkpt lat="42.3690175" lon="12.029855"><ele>200.0</ele><time>2026-04-19T13:51:42.77Z</time></trkpt><trkpt lat="42.3689721" lon="12.0294702"><ele>199.0</ele><time>2026-04-19T13:51:43.77Z</time></trkpt><trkpt lat="42.3689293" lon="12.0290852"><ele>198.0</ele><time>2026-04-19T13:51:44.771Z</time></trkpt><trkpt lat="42.3688849" lon="12.0287003"><ele>197.0</ele><time>2026-04-19T13:51:45.771Z</time></trkpt><trkpt lat="42.3688424" lon="12.0283147"><ele>196.0</ele><time>2026-04-19T13:51:46.77Z</time></trkpt><trkpt lat="42.3687937" lon="12.0279302"><ele>196.5</ele><time>2026-04-19T13:51:47.771Z</time></trkpt><trkpt lat="42.3687408" lon="12.0275397"><ele>197.0</ele><time>2026-04-19T13:51:48.769Z</time></trkpt><trkpt lat="42.3686931" lon="12.0271594"><ele>197.0</ele><time>2026-04-19T13:51:49.769Z</time></trkpt><trkpt lat="42.3686449" lon="12.0267706"><ele>197.0</ele><time>2026-04-19T13:51:50.771Z</time></trkpt><trkpt lat="42.3685939" lon="12.0263864"><ele>196.5</ele><time>2026-04-19T13:51:51.771Z</time></trkpt><trkpt lat="42.3685454" lon="12.0260029"><ele>196.0</ele><time>2026-04-19T13:51:52.77Z</time></trkpt><trkpt lat="42.3684967" lon="12.0256216"><ele>196.0</ele><time>2026-04-19T13:51:53.77Z</time></trkpt><trkpt lat="42.3684464" lon="12.0252301"><ele>196.0</ele><time>2026-04-19T13:51:54.77Z</time></trkpt><trkpt lat="42.368396" lon="12.0248418"><ele>196.0</ele><time>2026-04-19T13:51:55.77Z</time></trkpt><trkpt lat="42.3683414" lon="12.0244584"><ele>196.0</ele><time>2026-04-19T13:51:56.771Z</time></trkpt><trkpt lat="42.3682842" lon="12.0240688"><ele>195.0</ele><time>2026-04-19T13:51:57.77Z</time></trkpt><trkpt lat="42.3682218" lon="12.0236896"><ele>194.0</ele><time>2026-04-19T13:51:58.771Z</time></trkpt><trkpt lat="42.368159" lon="12.0233038"><ele>193.5</ele><time>2026-04-19T13:51:59.77Z</time></trkpt><trkpt lat="42.3680931" lon="12.022924"><ele>193.0</ele><time>2026-04-19T13:52:00.771Z</time></trkpt><trkpt lat="42.3680252" lon="12.022548"><ele>192.5</ele><time>2026-04-19T13:52:01.77Z</time></trkpt><trkpt lat="42.3679536" lon="12.022174"><ele>192.0</ele><time>2026-04-19T13:52:02.771Z</time></trkpt><trkpt lat="42.3678782" lon="12.0218005"><ele>191.0</ele><time>2026-04-19T13:52:03.77Z</time></trkpt><trkpt lat="42.3678016" lon="12.0214341"><ele>190.0</ele><time>2026-04-19T13:52:04.77Z</time></trkpt><trkpt lat="42.3677263" lon="12.0210855"><ele>189.5</ele><time>2026-04-19T13:52:05.77Z</time></trkpt><trkpt lat="42.3676501" lon="12.020755"><ele>189.0</ele><time>2026-04-19T13:52:06.77Z</time></trkpt><trkpt lat="42.3675765" lon="12.0204258"><ele>189.0</ele><time>2026-04-19T13:52:07.77Z</time></trkpt><trkpt lat="42.3674966" lon="12.0201036"><ele>189.0</ele><time>2026-04-19T13:52:08.769Z</time></trkpt><trkpt lat="42.3674125" lon="12.0197815"><ele>189.0</ele><time>2026-04-19T13:52:09.77Z</time></trkpt><trkpt lat="42.3673257" lon="12.0194626"><ele>189.0</ele><time>2026-04-19T13:52:10.77Z</time></trkpt><trkpt lat="42.3672363" lon="12.0191409"><ele>187.5</ele><time>2026-04-19T13:52:11.77Z</time></trkpt><trkpt lat="42.3671475" lon="12.0188129"><ele>186.0</ele><time>2026-04-19T13:52:12.77Z</time></trkpt><trkpt lat="42.3670551" lon="12.0184805"><ele>184.0</ele><time>2026-04-19T13:52:13.769Z</time></trkpt><trkpt lat="42.3669608" lon="12.0181479"><ele>182.0</ele><time>2026-04-19T13:52:14.77Z</time></trkpt><trkpt lat="42.3668675" lon="12.0178076"><ele>180.0</ele><time>2026-04-19T13:52:15.77Z</time></trkpt><trkpt lat="42.3667695" lon="12.017455"><ele>178.0</ele><time>2026-04-19T13:52:16.77Z</time></trkpt><trkpt lat="42.3666716" lon="12.0171038"><ele>178.0</ele><time>2026-04-19T13:52:17.771Z</time></trkpt><trkpt lat="42.3665694" lon="12.0167514"><ele>178.0</ele><time>2026-04-19T13:52:18.771Z</time></trkpt><trkpt lat="42.3664657" lon="12.0163961"><ele>176.5</ele><time>2026-04-19T13:52:19.771Z</time></trkpt><trkpt lat="42.366364" lon="12.0160455"><ele>175.0</ele><time>2026-04-19T13:52:20.771Z</time></trkpt><trkpt lat="42.3662687" lon="12.0157059"><ele>175.0</ele><time>2026-04-19T13:52:21.771Z</time></trkpt><trkpt lat="42.3661726" lon="12.0153687"><ele>175.0</ele><time>2026-04-19T13:52:22.77Z</time></trkpt><trkpt lat="42.3660827" lon="12.0150406"><ele>174.0</ele><time>2026-04-19T13:52:23.771Z</time></trkpt><trkpt lat="42.3659943" lon="12.0146998"><ele>173.0</ele><time>2026-04-19T13:52:24.771Z</time></trkpt><trkpt lat="42.3659003" lon="12.0143635"><ele>172.0</ele><time>2026-04-19T13:52:25.771Z</time></trkpt><trkpt lat="42.3658005" lon="12.0140262"><ele>171.0</ele><time>2026-04-19T13:52:26.771Z</time></trkpt><trkpt lat="42.3657019" lon="12.0136905"><ele>171.0</ele><time>2026-04-19T13:52:27.769Z</time></trkpt><trkpt lat="42.3656042" lon="12.0133535"><ele>171.0</ele><time>2026-04-19T13:52:28.77Z</time></trkpt><trkpt lat="42.3655106" lon="12.0130218"><ele>171.5</ele><time>2026-04-19T13:52:29.771Z</time></trkpt><trkpt lat="42.3654171" lon="12.0126906"><ele>172.0</ele><time>2026-04-19T13:52:30.771Z</time></trkpt><trkpt lat="42.3653228" lon="12.0123518"><ele>171.0</ele><time>2026-04-19T13:52:31.77Z</time></trkpt><trkpt lat="42.3652293" lon="12.0120223"><ele>170.0</ele><time>2026-04-19T13:52:32.771Z</time></trkpt><trkpt lat="42.3651391" lon="12.0116929"><ele>172.5</ele><time>2026-04-19T13:52:33.771Z</time></trkpt><trkpt lat="42.3650536" lon="12.0113716"><ele>175.0</ele><time>2026-04-19T13:52:34.77Z</time></trkpt><trkpt lat="42.364962" lon="12.0110585"><ele>177.5</ele><time>2026-04-19T13:52:35.771Z</time></trkpt><trkpt lat="42.3648733" lon="12.0107577"><ele>180.0</ele><time>2026-04-19T13:52:36.77Z</time></trkpt><trkpt lat="42.3647892" lon="12.0104599"><ele>180.0</ele><time>2026-04-19T13:52:37.771Z</time></trkpt><trkpt lat="42.3647085" lon="12.0101665"><ele>180.0</ele><time>2026-04-19T13:52:38.77Z</time></trkpt><trkpt lat="42.3646276" lon="12.0098745"><ele>181.0</ele><time>2026-04-19T13:52:39.771Z</time></trkpt><trkpt lat="42.364551" lon="12.0095853"><ele>182.0</ele><time>2026-04-19T13:52:40.771Z</time></trkpt><trkpt lat="42.3644734" lon="12.0092963"><ele>182.0</ele><time>2026-04-19T13:52:41.771Z</time></trkpt><trkpt lat="42.364402" lon="12.0090118"><ele>182.0</ele><time>2026-04-19T13:52:42.771Z</time></trkpt><trkpt lat="42.3643425" lon="12.0087316"><ele>182.0</ele><time>2026-04-19T13:52:43.77Z</time></trkpt><trkpt lat="42.364293" lon="12.008466"><ele>181.0</ele><time>2026-04-19T13:52:44.771Z</time></trkpt><trkpt lat="42.3642499" lon="12.0082138"><ele>180.0</ele><time>2026-04-19T13:52:45.771Z</time></trkpt><trkpt lat="42.364209" lon="12.0079692"><ele>179.0</ele><time>2026-04-19T13:52:46.771Z</time></trkpt><trkpt lat="42.36417" lon="12.0077356"><ele>179.0</ele><time>2026-04-19T13:52:47.771Z</time></trkpt><trkpt lat="42.364132" lon="12.0075211"><ele>179.0</ele><time>2026-04-19T13:52:48.77Z</time></trkpt><trkpt lat="42.3641046" lon="12.0073149"><ele>179.0</ele><time>2026-04-19T13:52:49.77Z</time></trkpt><trkpt lat="42.3640834" lon="12.0071055"><ele>178.33333333333331</ele><time>2026-04-19T13:52:50.771Z</time></trkpt><trkpt lat="42.3640652" lon="12.0068911"><ele>177.66666666666666</ele><time>2026-04-19T13:52:51.77Z</time></trkpt><trkpt lat="42.3640445" lon="12.0066699"><ele>177.0</ele><time>2026-04-19T13:52:52.771Z</time></trkpt><trkpt lat="42.3640267" lon="12.0064521"><ele>176.66666666666666</ele><time>2026-04-19T13:52:53.771Z</time></trkpt><trkpt lat="42.3640112" lon="12.0062247"><ele>176.33333333333331</ele><time>2026-04-19T13:52:54.771Z</time></trkpt><trkpt lat="42.3639941" lon="12.0060033"><ele>176.0</ele><time>2026-04-19T13:52:55.771Z</time></trkpt><trkpt lat="42.363978" lon="12.0057766"><ele>176.0</ele><time>2026-04-19T13:52:56.771Z</time></trkpt><trkpt lat="42.363965" lon="12.005541"><ele>176.0</ele><time>2026-04-19T13:52:57.77Z</time></trkpt><trkpt lat="42.363956" lon="12.0053036"><ele>176.0</ele><time>2026-04-19T13:52:58.771Z</time></trkpt><trkpt lat="42.3639406" lon="12.0050647"><ele>176.33333333333331</ele><time>2026-04-19T13:52:59.771Z</time></trkpt><trkpt lat="42.3639254" lon="12.0048275"><ele>176.66666666666666</ele><time>2026-04-19T13:53:00.769Z</time></trkpt><trkpt lat="42.3639043" lon="12.0045897"><ele>177.0</ele><time>2026-04-19T13:53:01.77Z</time></trkpt><trkpt lat="42.3638846" lon="12.0043664"><ele>178.25</ele><time>2026-04-19T13:53:02.77Z</time></trkpt><trkpt lat="42.3638719" lon="12.0041572"><ele>179.5</ele><time>2026-04-19T13:53:03.771Z</time></trkpt><trkpt lat="42.3638587" lon="12.0039564"><ele>180.75</ele><time>2026-04-19T13:53:04.771Z</time></trkpt><trkpt lat="42.3638484" lon="12.0037699"><ele>182.0</ele><time>2026-04-19T13:53:05.771Z</time></trkpt><trkpt lat="42.3638417" lon="12.0035892"><ele>182.0</ele><time>2026-04-19T13:53:06.771Z</time></trkpt><trkpt lat="42.3638336" lon="12.0034172"><ele>182.0</ele><time>2026-04-19T13:53:07.77Z</time></trkpt><trkpt lat="42.3638213" lon="12.0032569"><ele>182.0</ele><time>2026-04-19T13:53:08.77Z</time></trkpt><trkpt lat="42.3638107" lon="12.0030966"><ele>182.0</ele><time>2026-04-19T13:53:09.77Z</time></trkpt><trkpt lat="42.3637947" lon="12.0029461"><ele>181.8</ele><time>2026-04-19T13:53:10.77Z</time></trkpt><trkpt lat="42.3637733" lon="12.0028086"><ele>181.6</ele><time>2026-04-19T13:53:11.771Z</time></trkpt><trkpt lat="42.3637417" lon="12.0027051"><ele>181.4</ele><time>2026-04-19T13:53:12.771Z</time></trkpt><trkpt lat="42.3636701" lon="12.0026201"><ele>181.20000000000002</ele><time>2026-04-19T13:53:14.771Z</time></trkpt><trkpt lat="42.3635987" lon="12.0026367"><ele>181.0</ele><time>2026-04-19T13:53:16.771Z</time></trkpt><trkpt lat="42.3635184" lon="12.0027617"><ele>181.0</ele><time>2026-04-19T13:53:18.771Z</time></trkpt><trkpt lat="42.3634698" lon="12.0028646"><ele>181.0</ele><time>2026-04-19T13:53:19.771Z</time></trkpt><trkpt lat="42.3634167" lon="12.0029859"><ele>181.0</ele><time>2026-04-19T13:53:20.77Z</time></trkpt><trkpt lat="42.3633562" lon="12.0031352"><ele>181.0</ele><time>2026-04-19T13:53:21.77Z</time></trkpt><trkpt lat="42.3632873" lon="12.0033056"><ele>181.33333333333334</ele><time>2026-04-19T13:53:22.77Z</time></trkpt><trkpt lat="42.3632066" lon="12.0034913"><ele>181.66666666666666</ele><time>2026-04-19T13:53:23.77Z</time></trkpt><trkpt lat="42.363127" lon="12.0036814"><ele>182.0</ele><time>2026-04-19T13:53:24.771Z</time></trkpt><trkpt lat="42.363051" lon="12.0038651"><ele>181.5</ele><time>2026-04-19T13:53:25.771Z</time></trkpt><trkpt lat="42.3629775" lon="12.0040349"><ele>181.0</ele><time>2026-04-19T13:53:26.771Z</time></trkpt><trkpt lat="42.3629081" lon="12.0042066"><ele>180.5</ele><time>2026-04-19T13:53:27.77Z</time></trkpt><trkpt lat="42.3628376" lon="12.0043786"><ele>180.0</ele><time>2026-04-19T13:53:28.771Z</time></trkpt><trkpt lat="42.3627621" lon="12.0045588"><ele>180.0</ele><time>2026-04-19T13:53:29.771Z</time></trkpt><trkpt lat="42.3626787" lon="12.0047667"><ele>180.0</ele><time>2026-04-19T13:53:30.771Z</time></trkpt><trkpt lat="42.3625944" lon="12.0049785"><ele>180.0</ele><time>2026-04-19T13:53:31.77Z</time></trkpt><trkpt lat="42.362502" lon="12.0052121"><ele>181.0</ele><time>2026-04-19T13:53:32.77Z</time></trkpt><trkpt lat="42.3624103" lon="12.0054477"><ele>182.0</ele><time>2026-04-19T13:53:33.77Z</time></trkpt><trkpt lat="42.3623156" lon="12.0056829"><ele>183.0</ele><time>2026-04-19T13:53:34.77Z</time></trkpt><trkpt lat="42.3622151" lon="12.0059161"><ele>182.33333333333334</ele><time>2026-04-19T13:53:35.771Z</time></trkpt><trkpt lat="42.3621097" lon="12.0061436"><ele>181.66666666666669</ele><time>2026-04-19T13:53:36.77Z</time></trkpt><trkpt lat="42.3620076" lon="12.0063824"><ele>181.0</ele><time>2026-04-19T13:53:37.769Z</time></trkpt><trkpt lat="42.3619023" lon="12.006639"><ele>181.66666666666669</ele><time>2026-04-19T13:53:38.77Z</time></trkpt><trkpt lat="42.3617969" lon="12.0069052"><ele>182.33333333333334</ele><time>2026-04-19T13:53:39.77Z</time></trkpt><trkpt lat="42.3616895" lon="12.0071733"><ele>183.0</ele><time>2026-04-19T13:53:40.771Z</time></trkpt><trkpt lat="42.3615795" lon="12.0074482"><ele>183.0</ele><time>2026-04-19T13:53:41.769Z</time></trkpt><trkpt lat="42.3614644" lon="12.0077192"><ele>183.0</ele><time>2026-04-19T13:53:42.771Z</time></trkpt><trkpt lat="42.3613447" lon="12.0079965"><ele>183.5</ele><time>2026-04-19T13:53:43.771Z</time></trkpt><trkpt lat="42.3612228" lon="12.0082729"><ele>184.0</ele><time>2026-04-19T13:53:44.771Z</time></trkpt><trkpt lat="42.3611068" lon="12.0085406"><ele>184.33333333333334</ele><time>2026-04-19T13:53:45.771Z</time></trkpt><trkpt lat="42.3609954" lon="12.0087891"><ele>184.66666666666666</ele><time>2026-04-19T13:53:46.771Z</time></trkpt><trkpt lat="42.3608828" lon="12.0090413"><ele>185.0</ele><time>2026-04-19T13:53:47.771Z</time></trkpt><trkpt lat="42.3607736" lon="12.0092872"><ele>185.0</ele><time>2026-04-19T13:53:48.769Z</time></trkpt><trkpt lat="42.3606677" lon="12.0095206"><ele>185.0</ele><time>2026-04-19T13:53:49.77Z</time></trkpt><trkpt lat="42.3605608" lon="12.0097533"><ele>185.0</ele><time>2026-04-19T13:53:50.77Z</time></trkpt><trkpt lat="42.3604555" lon="12.0099841"><ele>185.0</ele><time>2026-04-19T13:53:51.771Z</time></trkpt><trkpt lat="42.3603551" lon="12.0102155"><ele>185.0</ele><time>2026-04-19T13:53:52.771Z</time></trkpt><trkpt lat="42.3602498" lon="12.0104422"><ele>185.0</ele><time>2026-04-19T13:53:53.771Z</time></trkpt><trkpt lat="42.3601475" lon="12.01067"><ele>185.0</ele><time>2026-04-19T13:53:54.771Z</time></trkpt><trkpt lat="42.3600447" lon="12.0109014"><ele>185.0</ele><time>2026-04-19T13:53:55.771Z</time></trkpt><trkpt lat="42.3599415" lon="12.0111358"><ele>185.0</ele><time>2026-04-19T13:53:56.771Z</time></trkpt><trkpt lat="42.3598328" lon="12.0113752"><ele>185.0</ele><time>2026-04-19T13:53:57.771Z</time></trkpt><trkpt lat="42.3597227" lon="12.0116162"><ele>185.0</ele><time>2026-04-19T13:53:58.77Z</time></trkpt><trkpt lat="42.3596088" lon="12.0118642"><ele>185.0</ele><time>2026-04-19T13:53:59.771Z</time></trkpt><trkpt lat="42.3594959" lon="12.0121154"><ele>184.66666666666666</ele><time>2026-04-19T13:54:00.77Z</time></trkpt><trkpt lat="42.3593848" lon="12.0123679"><ele>184.33333333333334</ele><time>2026-04-19T13:54:01.77Z</time></trkpt><trkpt lat="42.3592724" lon="12.0126189"><ele>184.0</ele><time>2026-04-19T13:54:02.769Z</time></trkpt><trkpt lat="42.3591597" lon="12.0128712"><ele>185.0</ele><time>2026-04-19T13:54:03.77Z</time></trkpt><trkpt lat="42.3590489" lon="12.0131224"><ele>186.0</ele><time>2026-04-19T13:54:04.77Z</time></trkpt><trkpt lat="42.358937" lon="12.0133665"><ele>187.0</ele><time>2026-04-19T13:54:05.77Z</time></trkpt><trkpt lat="42.3588214" lon="12.0136131"><ele>187.0</ele><time>2026-04-19T13:54:06.77Z</time></trkpt><trkpt lat="42.3587082" lon="12.0138616"><ele>187.0</ele><time>2026-04-19T13:54:07.77Z</time></trkpt><trkpt lat="42.3585951" lon="12.0141163"><ele>187.0</ele><time>2026-04-19T13:54:08.77Z</time></trkpt><trkpt lat="42.3584825" lon="12.0143717"><ele>187.0</ele><time>2026-04-19T13:54:09.769Z</time></trkpt><trkpt lat="42.3583674" lon="12.0146293"><ele>187.0</ele><time>2026-04-19T13:54:10.77Z</time></trkpt><trkpt lat="42.3582492" lon="12.0148844"><ele>187.0</ele><time>2026-04-19T13:54:11.77Z</time></trkpt><trkpt lat="42.3581333" lon="12.0151394"><ele>188.5</ele><time>2026-04-19T13:54:12.77Z</time></trkpt><trkpt lat="42.3580163" lon="12.0154026"><ele>190.0</ele><time>2026-04-19T13:54:13.769Z</time></trkpt><trkpt lat="42.3578989" lon="12.0156612"><ele>191.0</ele><time>2026-04-19T13:54:14.771Z</time></trkpt><trkpt lat="42.3577817" lon="12.0159199"><ele>192.0</ele><time>2026-04-19T13:54:15.77Z</time></trkpt><trkpt lat="42.3576638" lon="12.0161837"><ele>192.0</ele><time>2026-04-19T13:54:16.771Z</time></trkpt><trkpt lat="42.357545" lon="12.016445"><ele>192.0</ele><time>2026-04-19T13:54:17.771Z</time></trkpt><trkpt lat="42.3574266" lon="12.0167065"><ele>192.5</ele><time>2026-04-19T13:54:18.771Z</time></trkpt><trkpt lat="42.357307" lon="12.0169716"><ele>193.0</ele><time>2026-04-19T13:54:19.77Z</time></trkpt><trkpt lat="42.3571899" lon="12.0172366"><ele>192.33333333333331</ele><time>2026-04-19T13:54:20.77Z</time></trkpt><trkpt lat="42.3570749" lon="12.0174937"><ele>191.66666666666666</ele><time>2026-04-19T13:54:21.771Z</time></trkpt><trkpt lat="42.3569628" lon="12.0177523"><ele>191.0</ele><time>2026-04-19T13:54:22.771Z</time></trkpt><trkpt lat="42.3568509" lon="12.018009"><ele>191.0</ele><time>2026-04-19T13:54:23.771Z</time></trkpt><trkpt lat="42.3567409" lon="12.0182657"><ele>191.0</ele><time>2026-04-19T13:54:24.77Z</time></trkpt><trkpt lat="42.3566308" lon="12.018523"><ele>191.0</ele><time>2026-04-19T13:54:25.771Z</time></trkpt><trkpt lat="42.3565221" lon="12.0187785"><ele>191.66666666666666</ele><time>2026-04-19T13:54:26.771Z</time></trkpt><trkpt lat="42.3564116" lon="12.0190285"><ele>192.33333333333331</ele><time>2026-04-19T13:54:27.769Z</time></trkpt><trkpt lat="42.3563029" lon="12.0192813"><ele>193.0</ele><time>2026-04-19T13:54:28.771Z</time></trkpt><trkpt lat="42.3561951" lon="12.0195308"><ele>193.0</ele><time>2026-04-19T13:54:29.771Z</time></trkpt><trkpt lat="42.3560911" lon="12.0197804"><ele>193.0</ele><time>2026-04-19T13:54:30.771Z</time></trkpt><trkpt lat="42.3559885" lon="12.0200273"><ele>193.0</ele><time>2026-04-19T13:54:31.771Z</time></trkpt><trkpt lat="42.3558831" lon="12.0202714"><ele>194.0</ele><time>2026-04-19T13:54:32.771Z</time></trkpt><trkpt lat="42.3557761" lon="12.0205158"><ele>195.0</ele><time>2026-04-19T13:54:33.771Z</time></trkpt><trkpt lat="42.3556693" lon="12.02076"><ele>196.0</ele><time>2026-04-19T13:54:34.77Z</time></trkpt><trkpt lat="42.3555629" lon="12.0210093"><ele>196.33333333333331</ele><time>2026-04-19T13:54:35.771Z</time></trkpt><trkpt lat="42.3554535" lon="12.0212622"><ele>196.66666666666669</ele><time>2026-04-19T13:54:36.771Z</time></trkpt><trkpt lat="42.3553412" lon="12.0215158"><ele>197.0</ele><time>2026-04-19T13:54:37.771Z</time></trkpt><trkpt lat="42.355225" lon="12.0217733"><ele>197.5</ele><time>2026-04-19T13:54:38.771Z</time></trkpt><trkpt lat="42.3551112" lon="12.0220343"><ele>198.0</ele><time>2026-04-19T13:54:39.77Z</time></trkpt><trkpt lat="42.3549975" lon="12.022298"><ele>198.66666666666669</ele><time>2026-04-19T13:54:40.77Z</time></trkpt><trkpt lat="42.3548858" lon="12.0225541"><ele>199.33333333333334</ele><time>2026-04-19T13:54:41.769Z</time></trkpt><trkpt lat="42.3547727" lon="12.0228076"><ele>200.0</ele><time>2026-04-19T13:54:42.769Z</time></trkpt><trkpt lat="42.3546589" lon="12.0230613"><ele>200.33333333333334</ele><time>2026-04-19T13:54:43.771Z</time></trkpt><trkpt lat="42.3545501" lon="12.0233068"><ele>200.66666666666669</ele><time>2026-04-19T13:54:44.77Z</time></trkpt><trkpt lat="42.3544441" lon="12.0235441"><ele>201.0</ele><time>2026-04-19T13:54:45.771Z</time></trkpt><trkpt lat="42.3543408" lon="12.0237765"><ele>201.66666666666669</ele><time>2026-04-19T13:54:46.77Z</time></trkpt><trkpt lat="42.3542402" lon="12.0240052"><ele>202.33333333333334</ele><time>2026-04-19T13:54:47.77Z</time></trkpt><trkpt lat="42.354144" lon="12.0242356"><ele>203.0</ele><time>2026-04-19T13:54:48.77Z</time></trkpt><trkpt lat="42.3540472" lon="12.0244667"><ele>203.33333333333334</ele><time>2026-04-19T13:54:49.769Z</time></trkpt><trkpt lat="42.3539518" lon="12.0246888"><ele>203.66666666666669</ele><time>2026-04-19T13:54:50.77Z</time></trkpt><trkpt lat="42.3538585" lon="12.024896"><ele>204.0</ele><time>2026-04-19T13:54:51.77Z</time></trkpt><trkpt lat="42.3537586" lon="12.0250888"><ele>204.0</ele><time>2026-04-19T13:54:52.77Z</time></trkpt><trkpt lat="42.3536473" lon="12.0252756"><ele>204.0</ele><time>2026-04-19T13:54:53.771Z</time></trkpt><trkpt lat="42.3535281" lon="12.0254529"><ele>204.0</ele><time>2026-04-19T13:54:54.77Z</time></trkpt><trkpt lat="42.3533949" lon="12.0256229"><ele>204.0</ele><time>2026-04-19T13:54:55.771Z</time></trkpt><trkpt lat="42.3532611" lon="12.0257853"><ele>204.0</ele><time>2026-04-19T13:54:56.771Z</time></trkpt><trkpt lat="42.353125" lon="12.0259556"><ele>204.0</ele><time>2026-04-19T13:54:57.771Z</time></trkpt><trkpt lat="42.3529862" lon="12.0261219"><ele>204.0</ele><time>2026-04-19T13:54:58.769Z</time></trkpt><trkpt lat="42.3528459" lon="12.0262957"><ele>204.0</ele><time>2026-04-19T13:54:59.769Z</time></trkpt><trkpt lat="42.3527008" lon="12.0264708"><ele>204.0</ele><time>2026-04-19T13:55:00.77Z</time></trkpt><trkpt lat="42.3525528" lon="12.0266522"><ele>204.33333333333331</ele><time>2026-04-19T13:55:01.77Z</time></trkpt><trkpt lat="42.3524005" lon="12.0268417"><ele>204.66666666666666</ele><time>2026-04-19T13:55:02.77Z</time></trkpt><trkpt lat="42.3522455" lon="12.0270341"><ele>205.0</ele><time>2026-04-19T13:55:03.771Z</time></trkpt><trkpt lat="42.3520941" lon="12.0272187"><ele>204.33333333333331</ele><time>2026-04-19T13:55:04.771Z</time></trkpt><trkpt lat="42.3519521" lon="12.0273999"><ele>203.66666666666669</ele><time>2026-04-19T13:55:05.77Z</time></trkpt><trkpt lat="42.3518157" lon="12.0275734"><ele>203.0</ele><time>2026-04-19T13:55:06.769Z</time></trkpt><trkpt lat="42.3516799" lon="12.0277405"><ele>204.66666666666669</ele><time>2026-04-19T13:55:07.77Z</time></trkpt><trkpt lat="42.3515505" lon="12.0278964"><ele>206.33333333333331</ele><time>2026-04-19T13:55:08.769Z</time></trkpt><trkpt lat="42.3514266" lon="12.0280385"><ele>208.0</ele><time>2026-04-19T13:55:09.77Z</time></trkpt><trkpt lat="42.3512985" lon="12.0281613"><ele>208.0</ele><time>2026-04-19T13:55:10.769Z</time></trkpt><trkpt lat="42.3511663" lon="12.0282616"><ele>208.0</ele><time>2026-04-19T13:55:11.77Z</time></trkpt><trkpt lat="42.3510165" lon="12.028332"><ele>208.0</ele><time>2026-04-19T13:55:12.771Z</time></trkpt><trkpt lat="42.3508594" lon="12.0283902"><ele>208.0</ele><time>2026-04-19T13:55:13.771Z</time></trkpt><trkpt lat="42.350696" lon="12.0284508"><ele>208.0</ele><time>2026-04-19T13:55:14.77Z</time></trkpt><trkpt lat="42.3505249" lon="12.0285174"><ele>208.0</ele><time>2026-04-19T13:55:15.771Z</time></trkpt><trkpt lat="42.3503446" lon="12.028587"><ele>208.0</ele><time>2026-04-19T13:55:16.771Z</time></trkpt><trkpt lat="42.3501549" lon="12.0286553"><ele>208.0</ele><time>2026-04-19T13:55:17.771Z</time></trkpt><trkpt lat="42.3499575" lon="12.0287309"><ele>208.0</ele><time>2026-04-19T13:55:18.77Z</time></trkpt><trkpt lat="42.3497553" lon="12.0288087"><ele>208.66666666666666</ele><time>2026-04-19T13:55:19.771Z</time></trkpt><trkpt lat="42.3495594" lon="12.02889"><ele>209.33333333333331</ele><time>2026-04-19T13:55:20.77Z</time></trkpt><trkpt lat="42.3493434" lon="12.0289674"><ele>210.0</ele><time>2026-04-19T13:55:21.77Z</time></trkpt><trkpt lat="42.3491304" lon="12.0290432"><ele>210.0</ele><time>2026-04-19T13:55:22.769Z</time></trkpt><trkpt lat="42.3489175" lon="12.0291221"><ele>210.0</ele><time>2026-04-19T13:55:23.769Z</time></trkpt><trkpt lat="42.348705" lon="12.0292019"><ele>210.0</ele><time>2026-04-19T13:55:24.77Z</time></trkpt><trkpt lat="42.3484989" lon="12.029281"><ele>211.66666666666669</ele><time>2026-04-19T13:55:25.77Z</time></trkpt><trkpt lat="42.3482932" lon="12.0293556"><ele>213.33333333333334</ele><time>2026-04-19T13:55:26.77Z</time></trkpt><trkpt lat="42.3480946" lon="12.0294296"><ele>215.0</ele><time>2026-04-19T13:55:27.77Z</time></trkpt><trkpt lat="42.3478959" lon="12.029502"><ele>216.66666666666669</ele><time>2026-04-19T13:55:28.769Z</time></trkpt><trkpt lat="42.3477025" lon="12.0295719"><ele>218.33333333333331</ele><time>2026-04-19T13:55:29.77Z</time></trkpt><trkpt lat="42.3475132" lon="12.0296383"><ele>220.0</ele><time>2026-04-19T13:55:30.77Z</time></trkpt><trkpt lat="42.3473272" lon="12.0297093"><ele>221.66666666666666</ele><time>2026-04-19T13:55:31.771Z</time></trkpt><trkpt lat="42.3471474" lon="12.0297796"><ele>223.33333333333331</ele><time>2026-04-19T13:55:32.77Z</time></trkpt><trkpt lat="42.3469719" lon="12.0298487"><ele>225.0</ele><time>2026-04-19T13:55:33.771Z</time></trkpt><trkpt lat="42.3467957" lon="12.0299139"><ele>225.0</ele><time>2026-04-19T13:55:34.77Z</time></trkpt><trkpt lat="42.3466201" lon="12.029975"><ele>225.0</ele><time>2026-04-19T13:55:35.769Z</time></trkpt><trkpt lat="42.3464467" lon="12.0300388"><ele>225.0</ele><time>2026-04-19T13:55:36.77Z</time></trkpt><trkpt lat="42.3462738" lon="12.0301052"><ele>226.33333333333331</ele><time>2026-04-19T13:55:37.77Z</time></trkpt><trkpt lat="42.346106" lon="12.0301682"><ele>227.66666666666666</ele><time>2026-04-19T13:55:38.771Z</time></trkpt><trkpt lat="42.3459507" lon="12.0302266"><ele>229.0</ele><time>2026-04-19T13:55:39.771Z</time></trkpt><trkpt lat="42.3457966" lon="12.0302807"><ele>229.0</ele><time>2026-04-19T13:55:40.771Z</time></trkpt><trkpt lat="42.3456456" lon="12.030338"><ele>229.0</ele><time>2026-04-19T13:55:41.771Z</time></trkpt><trkpt lat="42.3454872" lon="12.030394"><ele>229.0</ele><time>2026-04-19T13:55:42.769Z</time></trkpt><trkpt lat="42.3453276" lon="12.0304532"><ele>229.0</ele><time>2026-04-19T13:55:43.77Z</time></trkpt><trkpt lat="42.3451656" lon="12.0305053"><ele>229.0</ele><time>2026-04-19T13:55:44.771Z</time></trkpt><trkpt lat="42.3450123" lon="12.0305601"><ele>229.0</ele><time>2026-04-19T13:55:45.771Z</time></trkpt><trkpt lat="42.3448526" lon="12.0306196"><ele>229.66666666666666</ele><time>2026-04-19T13:55:46.77Z</time></trkpt><trkpt lat="42.3446923" lon="12.030678"><ele>230.33333333333331</ele><time>2026-04-19T13:55:47.77Z</time></trkpt><trkpt lat="42.3445343" lon="12.0307356"><ele>231.0</ele><time>2026-04-19T13:55:48.77Z</time></trkpt><trkpt lat="42.3443842" lon="12.030789"><ele>231.25</ele><time>2026-04-19T13:55:49.769Z</time></trkpt><trkpt lat="42.3442448" lon="12.0308379"><ele>231.5</ele><time>2026-04-19T13:55:50.771Z</time></trkpt><trkpt lat="42.3441077" lon="12.0308881"><ele>231.75</ele><time>2026-04-19T13:55:51.77Z</time></trkpt><trkpt lat="42.3439753" lon="12.0309335"><ele>232.0</ele><time>2026-04-19T13:55:52.769Z</time></trkpt><trkpt lat="42.343845" lon="12.0309773"><ele>232.25</ele><time>2026-04-19T13:55:53.771Z</time></trkpt><trkpt lat="42.3437183" lon="12.0310233"><ele>232.5</ele><time>2026-04-19T13:55:54.769Z</time></trkpt><trkpt lat="42.3435974" lon="12.0310704"><ele>232.75</ele><time>2026-04-19T13:55:55.771Z</time></trkpt><trkpt lat="42.3434771" lon="12.0311249"><ele>233.0</ele><time>2026-04-19T13:55:56.769Z</time></trkpt><trkpt lat="42.3433591" lon="12.0311852"><ele>233.0</ele><time>2026-04-19T13:55:57.77Z</time></trkpt><trkpt lat="42.3432456" lon="12.0312476"><ele>233.0</ele><time>2026-04-19T13:55:58.77Z</time></trkpt><trkpt lat="42.3431352" lon="12.0313096"><ele>233.0</ele><time>2026-04-19T13:55:59.769Z</time></trkpt><trkpt lat="42.3430295" lon="12.0313963"><ele>233.0</ele><time>2026-04-19T13:56:00.771Z</time></trkpt><trkpt lat="42.3429276" lon="12.0314965"><ele>233.25</ele><time>2026-04-19T13:56:01.77Z</time></trkpt><trkpt lat="42.3428321" lon="12.0316148"><ele>233.5</ele><time>2026-04-19T13:56:02.77Z</time></trkpt><trkpt lat="42.34274" lon="12.0317399"><ele>233.75</ele><time>2026-04-19T13:56:03.771Z</time></trkpt><trkpt lat="42.3426508" lon="12.0318778"><ele>234.0</ele><time>2026-04-19T13:56:04.77Z</time></trkpt><trkpt lat="42.342552" lon="12.0320208"><ele>234.0</ele><time>2026-04-19T13:56:05.769Z</time></trkpt><trkpt lat="42.3424323" lon="12.0321722"><ele>234.0</ele><time>2026-04-19T13:56:06.77Z</time></trkpt><trkpt lat="42.3423042" lon="12.0323341"><ele>234.0</ele><time>2026-04-19T13:56:07.769Z</time></trkpt><trkpt lat="42.3421661" lon="12.0325213"><ele>235.0</ele><time>2026-04-19T13:56:08.769Z</time></trkpt><trkpt lat="42.3420236" lon="12.0327142"><ele>236.0</ele><time>2026-04-19T13:56:09.771Z</time></trkpt><trkpt lat="42.3418653" lon="12.0329315"><ele>237.0</ele><time>2026-04-19T13:56:10.771Z</time></trkpt><trkpt lat="42.3416955" lon="12.0331635"><ele>237.0</ele><time>2026-04-19T13:56:11.771Z</time></trkpt><trkpt lat="42.3415131" lon="12.0334082"><ele>237.0</ele><time>2026-04-19T13:56:12.769Z</time></trkpt><trkpt lat="42.3413223" lon="12.0336493"><ele>237.0</ele><time>2026-04-19T13:56:13.771Z</time></trkpt><trkpt lat="42.341122" lon="12.033901"><ele>237.0</ele><time>2026-04-19T13:56:14.77Z</time></trkpt><trkpt lat="42.340922" lon="12.0341633"><ele>239.5</ele><time>2026-04-19T13:56:15.771Z</time></trkpt><trkpt lat="42.3407357" lon="12.0344065"><ele>242.0</ele><time>2026-04-19T13:56:16.769Z</time></trkpt><trkpt lat="42.3405589" lon="12.034635"><ele>242.0</ele><time>2026-04-19T13:56:17.77Z</time></trkpt><trkpt lat="42.3403878" lon="12.0348627"><ele>242.0</ele><time>2026-04-19T13:56:18.77Z</time></trkpt><trkpt lat="42.3402274" lon="12.0350768"><ele>243.5</ele><time>2026-04-19T13:56:19.771Z</time></trkpt><trkpt lat="42.3400631" lon="12.0352899"><ele>245.0</ele><time>2026-04-19T13:56:20.771Z</time></trkpt><trkpt lat="42.3399025" lon="12.0354994"><ele>245.0</ele><time>2026-04-19T13:56:21.77Z</time></trkpt><trkpt lat="42.339752" lon="12.0357016"><ele>245.0</ele><time>2026-04-19T13:56:22.77Z</time></trkpt><trkpt lat="42.3395995" lon="12.0359043"><ele>245.0</ele><time>2026-04-19T13:56:23.77Z</time></trkpt><trkpt lat="42.3394498" lon="12.0360998"><ele>246.33333333333334</ele><time>2026-04-19T13:56:24.77Z</time></trkpt><trkpt lat="42.3393055" lon="12.0362883"><ele>247.66666666666669</ele><time>2026-04-19T13:56:25.771Z</time></trkpt><trkpt lat="42.3391606" lon="12.0364795"><ele>249.0</ele><time>2026-04-19T13:56:26.771Z</time></trkpt><trkpt lat="42.3390174" lon="12.0366697"><ele>250.33333333333331</ele><time>2026-04-19T13:56:27.771Z</time></trkpt><trkpt lat="42.3388708" lon="12.0368716"><ele>251.66666666666666</ele><time>2026-04-19T13:56:28.77Z</time></trkpt><trkpt lat="42.33873" lon="12.0370955"><ele>253.0</ele><time>2026-04-19T13:56:29.77Z</time></trkpt><trkpt lat="42.3385955" lon="12.0373334"><ele>253.0</ele><time>2026-04-19T13:56:30.769Z</time></trkpt><trkpt lat="42.3384644" lon="12.0375801"><ele>253.0</ele><time>2026-04-19T13:56:31.77Z</time></trkpt><trkpt lat="42.3383348" lon="12.0378334"><ele>253.0</ele><time>2026-04-19T13:56:32.771Z</time></trkpt><trkpt lat="42.338209" lon="12.0380914"><ele>253.0</ele><time>2026-04-19T13:56:33.77Z</time></trkpt><trkpt lat="42.3380855" lon="12.038351"><ele>253.0</ele><time>2026-04-19T13:56:34.77Z</time></trkpt><trkpt lat="42.3379613" lon="12.0386174"><ele>253.0</ele><time>2026-04-19T13:56:35.77Z</time></trkpt><trkpt lat="42.3378315" lon="12.0388825"><ele>255.0</ele><time>2026-04-19T13:56:36.77Z</time></trkpt><trkpt lat="42.3376965" lon="12.0391482"><ele>257.0</ele><time>2026-04-19T13:56:37.771Z</time></trkpt><trkpt lat="42.3375563" lon="12.0394119"><ele>257.0</ele><time>2026-04-19T13:56:38.771Z</time></trkpt><trkpt lat="42.3374131" lon="12.0396781"><ele>257.0</ele><time>2026-04-19T13:56:39.77Z</time></trkpt><trkpt lat="42.3372658" lon="12.0399459"><ele>257.0</ele><time>2026-04-19T13:56:40.77Z</time></trkpt><trkpt lat="42.3371171" lon="12.0402129"><ele>257.0</ele><time>2026-04-19T13:56:41.77Z</time></trkpt><trkpt lat="42.3369642" lon="12.0404844"><ele>257.0</ele><time>2026-04-19T13:56:42.77Z</time></trkpt><trkpt lat="42.3368147" lon="12.0407529"><ele>257.0</ele><time>2026-04-19T13:56:43.77Z</time></trkpt><trkpt lat="42.3366582" lon="12.0410199"><ele>257.0</ele><time>2026-04-19T13:56:44.771Z</time></trkpt><trkpt lat="42.3364909" lon="12.0412844"><ele>257.0</ele><time>2026-04-19T13:56:45.771Z</time></trkpt><trkpt lat="42.3363196" lon="12.0415472"><ele>258.5</ele><time>2026-04-19T13:56:46.77Z</time></trkpt><trkpt lat="42.336143" lon="12.0418099"><ele>260.0</ele><time>2026-04-19T13:56:47.77Z</time></trkpt><trkpt lat="42.3359646" lon="12.0420723"><ele>260.0</ele><time>2026-04-19T13:56:48.77Z</time></trkpt><trkpt lat="42.3357898" lon="12.0423267"><ele>260.0</ele><time>2026-04-19T13:56:49.771Z</time></trkpt><trkpt lat="42.335613" lon="12.0425754"><ele>260.0</ele><time>2026-04-19T13:56:50.771Z</time></trkpt><trkpt lat="42.3354424" lon="12.0428147"><ele>260.0</ele><time>2026-04-19T13:56:51.771Z</time></trkpt><trkpt lat="42.3352788" lon="12.0430384"><ele>260.0</ele><time>2026-04-19T13:56:52.769Z</time></trkpt><trkpt lat="42.3351172" lon="12.0432564"><ele>260.0</ele><time>2026-04-19T13:56:53.77Z</time></trkpt><trkpt lat="42.334959" lon="12.043464"><ele>260.0</ele><time>2026-04-19T13:56:54.771Z</time></trkpt><trkpt lat="42.3348078" lon="12.0436749"><ele>259.6666666666667</ele><time>2026-04-19T13:56:55.771Z</time></trkpt><trkpt lat="42.3346648" lon="12.0438946"><ele>259.3333333333333</ele><time>2026-04-19T13:56:56.77Z</time></trkpt><trkpt lat="42.3345323" lon="12.0441192"><ele>259.0</ele><time>2026-04-19T13:56:57.77Z</time></trkpt><trkpt lat="42.3344013" lon="12.0443461"><ele>260.0</ele><time>2026-04-19T13:56:58.77Z</time></trkpt><trkpt lat="42.3342732" lon="12.044563"><ele>261.0</ele><time>2026-04-19T13:56:59.77Z</time></trkpt><trkpt lat="42.334145" lon="12.0447808"><ele>262.0</ele><time>2026-04-19T13:57:00.771Z</time></trkpt><trkpt lat="42.3340191" lon="12.0449935"><ele>262.3333333333333</ele><time>2026-04-19T13:57:01.771Z</time></trkpt><trkpt lat="42.3339011" lon="12.0452114"><ele>262.6666666666667</ele><time>2026-04-19T13:57:02.77Z</time></trkpt><trkpt lat="42.333788" lon="12.0454419"><ele>263.0</ele><time>2026-04-19T13:57:03.771Z</time></trkpt><trkpt lat="42.3336876" lon="12.0456871"><ele>265.33333333333337</ele><time>2026-04-19T13:57:04.77Z</time></trkpt><trkpt lat="42.3335965" lon="12.0459472"><ele>267.6666666666667</ele><time>2026-04-19T13:57:05.771Z</time></trkpt><trkpt lat="42.3335014" lon="12.0462064"><ele>270.0</ele><time>2026-04-19T13:57:06.77Z</time></trkpt><trkpt lat="42.3333968" lon="12.0464688"><ele>271.0</ele><time>2026-04-19T13:57:07.771Z</time></trkpt><trkpt lat="42.3332831" lon="12.0467307"><ele>272.0</ele><time>2026-04-19T13:57:08.769Z</time></trkpt><trkpt lat="42.3331625" lon="12.0469912"><ele>272.0</ele><time>2026-04-19T13:57:09.769Z</time></trkpt><trkpt lat="42.3330349" lon="12.0472513"><ele>272.0</ele><time>2026-04-19T13:57:10.769Z</time></trkpt><trkpt lat="42.3329057" lon="12.0475107"><ele>273.0</ele><time>2026-04-19T13:57:11.77Z</time></trkpt><trkpt lat="42.3327724" lon="12.0477712"><ele>274.0</ele><time>2026-04-19T13:57:12.771Z</time></trkpt><trkpt lat="42.3326392" lon="12.0480331"><ele>274.0</ele><time>2026-04-19T13:57:13.771Z</time></trkpt><trkpt lat="42.3325118" lon="12.0482889"><ele>274.0</ele><time>2026-04-19T13:57:14.77Z</time></trkpt><trkpt lat="42.3323799" lon="12.0485325"><ele>274.66666666666663</ele><time>2026-04-19T13:57:15.77Z</time></trkpt><trkpt lat="42.3322535" lon="12.0487597"><ele>275.3333333333333</ele><time>2026-04-19T13:57:16.77Z</time></trkpt><trkpt lat="42.3321358" lon="12.0489856"><ele>276.0</ele><time>2026-04-19T13:57:17.77Z</time></trkpt><trkpt lat="42.3320161" lon="12.0492068"><ele>276.6666666666667</ele><time>2026-04-19T13:57:18.77Z</time></trkpt><trkpt lat="42.3318967" lon="12.0494215"><ele>277.33333333333337</ele><time>2026-04-19T13:57:19.77Z</time></trkpt><trkpt lat="42.3317698" lon="12.0496363"><ele>278.0</ele><time>2026-04-19T13:57:20.769Z</time></trkpt><trkpt lat="42.3316352" lon="12.0498617"><ele>278.6666666666667</ele><time>2026-04-19T13:57:21.771Z</time></trkpt><trkpt lat="42.3314956" lon="12.0500897"><ele>279.3333333333333</ele><time>2026-04-19T13:57:22.771Z</time></trkpt><trkpt lat="42.3313534" lon="12.0503292"><ele>280.0</ele><time>2026-04-19T13:57:23.77Z</time></trkpt><trkpt lat="42.3312093" lon="12.050575"><ele>283.0</ele><time>2026-04-19T13:57:24.77Z</time></trkpt><trkpt lat="42.3310668" lon="12.0508122"><ele>286.0</ele><time>2026-04-19T13:57:25.771Z</time></trkpt><trkpt lat="42.3309226" lon="12.0510566"><ele>286.0</ele><time>2026-04-19T13:57:26.771Z</time></trkpt><trkpt lat="42.3307784" lon="12.0512958"><ele>286.0</ele><time>2026-04-19T13:57:27.771Z</time></trkpt><trkpt lat="42.3306433" lon="12.0515268"><ele>286.0</ele><time>2026-04-19T13:57:28.77Z</time></trkpt><trkpt lat="42.3305098" lon="12.051756"><ele>287.0</ele><time>2026-04-19T13:57:29.77Z</time></trkpt><trkpt lat="42.3303785" lon="12.0519774"><ele>288.0</ele><time>2026-04-19T13:57:30.77Z</time></trkpt><trkpt lat="42.3302583" lon="12.0521807"><ele>289.0</ele><time>2026-04-19T13:57:31.771Z</time></trkpt><trkpt lat="42.330154" lon="12.0523696"><ele>289.0</ele><time>2026-04-19T13:57:32.771Z</time></trkpt><trkpt lat="42.3300717" lon="12.0525252"><ele>289.0</ele><time>2026-04-19T13:57:33.771Z</time></trkpt><trkpt lat="42.3299992" lon="12.0526887"><ele>289.0</ele><time>2026-04-19T13:57:34.77Z</time></trkpt><trkpt lat="42.3299404" lon="12.0528351"><ele>289.0</ele><time>2026-04-19T13:57:35.77Z</time></trkpt><trkpt lat="42.3298888" lon="12.0529621"><ele>289.0</ele><time>2026-04-19T13:57:36.769Z</time></trkpt><trkpt lat="42.3298394" lon="12.0530612"><ele>289.0</ele><time>2026-04-19T13:57:37.77Z</time></trkpt><trkpt lat="42.3297778" lon="12.0531347"><ele>289.0</ele><time>2026-04-19T13:57:38.77Z</time></trkpt><trkpt lat="42.3297081" lon="12.053185"><ele>289.0</ele><time>2026-04-19T13:57:39.77Z</time></trkpt><trkpt lat="42.3296212" lon="12.0532254"><ele>289.0</ele><time>2026-04-19T13:57:40.77Z</time></trkpt><trkpt lat="42.3295125" lon="12.0532597"><ele>289.0</ele><time>2026-04-19T13:57:41.769Z</time></trkpt><trkpt lat="42.329375" lon="12.0533011"><ele>289.0</ele><time>2026-04-19T13:57:42.771Z</time></trkpt><trkpt lat="42.3292118" lon="12.0533525"><ele>289.0</ele><time>2026-04-19T13:57:43.77Z</time></trkpt><trkpt lat="42.3290381" lon="12.0534087"><ele>288.66666666666663</ele><time>2026-04-19T13:57:44.77Z</time></trkpt><trkpt lat="42.3288469" lon="12.0534931"><ele>288.3333333333333</ele><time>2026-04-19T13:57:45.771Z</time></trkpt><trkpt lat="42.3286424" lon="12.0535934"><ele>288.0</ele><time>2026-04-19T13:57:46.771Z</time></trkpt><trkpt lat="42.3284336" lon="12.0536908"><ele>288.0</ele><time>2026-04-19T13:57:47.771Z</time></trkpt><trkpt lat="42.3282237" lon="12.0537869"><ele>288.0</ele><time>2026-04-19T13:57:48.77Z</time></trkpt><trkpt lat="42.3280238" lon="12.0538756"><ele>288.0</ele><time>2026-04-19T13:57:49.77Z</time></trkpt><trkpt lat="42.3278167" lon="12.0539579"><ele>288.0</ele><time>2026-04-19T13:57:50.771Z</time></trkpt><trkpt lat="42.3276055" lon="12.0540189"><ele>288.0</ele><time>2026-04-19T13:57:51.77Z</time></trkpt><trkpt lat="42.3273947" lon="12.0540537"><ele>288.0</ele><time>2026-04-19T13:57:52.771Z</time></trkpt><trkpt lat="42.3271872" lon="12.0540735"><ele>289.3333333333333</ele><time>2026-04-19T13:57:53.771Z</time></trkpt><trkpt lat="42.3269893" lon="12.0541038"><ele>290.66666666666663</ele><time>2026-04-19T13:57:54.769Z</time></trkpt><trkpt lat="42.3268059" lon="12.0541489"><ele>292.0</ele><time>2026-04-19T13:57:55.77Z</time></trkpt><trkpt lat="42.326628" lon="12.0541879"><ele>292.0</ele><time>2026-04-19T13:57:56.77Z</time></trkpt><trkpt lat="42.3264557" lon="12.0542148"><ele>292.0</ele><time>2026-04-19T13:57:57.771Z</time></trkpt><trkpt lat="42.3262853" lon="12.0542255"><ele>292.0</ele><time>2026-04-19T13:57:58.77Z</time></trkpt><trkpt lat="42.3261171" lon="12.0542297"><ele>290.66666666666663</ele><time>2026-04-19T13:57:59.77Z</time></trkpt><trkpt lat="42.3259507" lon="12.0542228"><ele>289.3333333333333</ele><time>2026-04-19T13:58:00.77Z</time></trkpt><trkpt lat="42.3257871" lon="12.0542138"><ele>288.0</ele><time>2026-04-19T13:58:01.771Z</time></trkpt><trkpt lat="42.3256225" lon="12.0542077"><ele>284.3333333333333</ele><time>2026-04-19T13:58:02.77Z</time></trkpt><trkpt lat="42.325462" lon="12.0541876"><ele>280.66666666666663</ele><time>2026-04-19T13:58:03.77Z</time></trkpt><trkpt lat="42.3253016" lon="12.054154"><ele>277.0</ele><time>2026-04-19T13:58:04.77Z</time></trkpt><trkpt lat="42.3251518" lon="12.0540998"><ele>277.0</ele><time>2026-04-19T13:58:05.77Z</time></trkpt><trkpt lat="42.3250075" lon="12.0540189"><ele>277.0</ele><time>2026-04-19T13:58:06.77Z</time></trkpt><trkpt lat="42.3248703" lon="12.0539337"><ele>277.0</ele><time>2026-04-19T13:58:07.771Z</time></trkpt><trkpt lat="42.3247495" lon="12.0538427"><ele>277.0</ele><time>2026-04-19T13:58:08.77Z</time></trkpt><trkpt lat="42.3246398" lon="12.0537367"><ele>280.25</ele><time>2026-04-19T13:58:09.77Z</time></trkpt><trkpt lat="42.3245582" lon="12.0535889"><ele>283.5</ele><time>2026-04-19T13:58:10.77Z</time></trkpt><trkpt lat="42.3245093" lon="12.0534163"><ele>286.75</ele><time>2026-04-19T13:58:11.77Z</time></trkpt><trkpt lat="42.3244866" lon="12.0532254"><ele>290.0</ele><time>2026-04-19T13:58:12.769Z</time></trkpt><trkpt lat="42.3244762" lon="12.0530209"><ele>290.33333333333337</ele><time>2026-04-19T13:58:13.77Z</time></trkpt><trkpt lat="42.3244736" lon="12.0528067"><ele>290.6666666666667</ele><time>2026-04-19T13:58:14.77Z</time></trkpt><trkpt lat="42.3244776" lon="12.0525853"><ele>291.0</ele><time>2026-04-19T13:58:15.77Z</time></trkpt><trkpt lat="42.3244849" lon="12.0523652"><ele>290.3333333333333</ele><time>2026-04-19T13:58:16.77Z</time></trkpt><trkpt lat="42.3244749" lon="12.0521406"><ele>289.66666666666663</ele><time>2026-04-19T13:58:17.771Z</time></trkpt><trkpt lat="42.3244482" lon="12.0519242"><ele>289.0</ele><time>2026-04-19T13:58:18.77Z</time></trkpt><trkpt lat="42.3244243" lon="12.0517212"><ele>287.66666666666663</ele><time>2026-04-19T13:58:19.771Z</time></trkpt><trkpt lat="42.3243362" lon="12.0515117"><ele>286.3333333333333</ele><time>2026-04-19T13:58:20.769Z</time></trkpt><trkpt lat="42.3242731" lon="12.0513223"><ele>285.0</ele><time>2026-04-19T13:58:21.77Z</time></trkpt><trkpt lat="42.3241823" lon="12.0511512"><ele>285.0</ele><time>2026-04-19T13:58:22.77Z</time></trkpt><trkpt lat="42.3240539" lon="12.0510273"><ele>285.0</ele><time>2026-04-19T13:58:23.77Z</time></trkpt><trkpt lat="42.3239191" lon="12.0509594"><ele>285.0</ele><time>2026-04-19T13:58:24.771Z</time></trkpt><trkpt lat="42.3237944" lon="12.0509266"><ele>285.0</ele><time>2026-04-19T13:58:25.771Z</time></trkpt><trkpt lat="42.3236728" lon="12.0509137"><ele>283.75</ele><time>2026-04-19T13:58:26.77Z</time></trkpt><trkpt lat="42.3235541" lon="12.0509873"><ele>282.5</ele><time>2026-04-19T13:58:27.77Z</time></trkpt><trkpt lat="42.3234455" lon="12.0510683"><ele>281.25</ele><time>2026-04-19T13:58:28.77Z</time></trkpt><trkpt lat="42.3233395" lon="12.0511749"><ele>280.0</ele><time>2026-04-19T13:58:29.771Z</time></trkpt><trkpt lat="42.3232526" lon="12.0513177"><ele>280.0</ele><time>2026-04-19T13:58:30.77Z</time></trkpt><trkpt lat="42.3231831" lon="12.0514775"><ele>280.0</ele><time>2026-04-19T13:58:31.77Z</time></trkpt><trkpt lat="42.3231208" lon="12.0516581"><ele>280.0</ele><time>2026-04-19T13:58:32.77Z</time></trkpt><trkpt lat="42.3230539" lon="12.0518479"><ele>280.0</ele><time>2026-04-19T13:58:33.77Z</time></trkpt><trkpt lat="42.3229823" lon="12.0520518"><ele>282.3333333333333</ele><time>2026-04-19T13:58:34.77Z</time></trkpt><trkpt lat="42.322903" lon="12.0522652"><ele>284.6666666666667</ele><time>2026-04-19T13:58:35.77Z</time></trkpt><trkpt lat="42.3228232" lon="12.0524899"><ele>287.0</ele><time>2026-04-19T13:58:36.77Z</time></trkpt><trkpt lat="42.3227455" lon="12.0527107"><ele>287.0</ele><time>2026-04-19T13:58:37.77Z</time></trkpt><trkpt lat="42.3226691" lon="12.0529214"><ele>287.0</ele><time>2026-04-19T13:58:38.771Z</time></trkpt><trkpt lat="42.3225944" lon="12.0531266"><ele>287.0</ele><time>2026-04-19T13:58:39.769Z</time></trkpt><trkpt lat="42.322522" lon="12.0533179"><ele>288.0</ele><time>2026-04-19T13:58:40.771Z</time></trkpt><trkpt lat="42.3224546" lon="12.0535092"><ele>289.0</ele><time>2026-04-19T13:58:41.77Z</time></trkpt><trkpt lat="42.3223871" lon="12.0536917"><ele>290.0</ele><time>2026-04-19T13:58:42.769Z</time></trkpt><trkpt lat="42.3223242" lon="12.0538607"><ele>291.0</ele><time>2026-04-19T13:58:43.769Z</time></trkpt><trkpt lat="42.3222595" lon="12.0540229"><ele>292.25</ele><time>2026-04-19T13:58:44.771Z</time></trkpt><trkpt lat="42.3221994" lon="12.0541784"><ele>293.5</ele><time>2026-04-19T13:58:45.771Z</time></trkpt><trkpt lat="42.3221432" lon="12.0543315"><ele>294.75</ele><time>2026-04-19T13:58:46.771Z</time></trkpt><trkpt lat="42.3220876" lon="12.0544727"><ele>296.0</ele><time>2026-04-19T13:58:47.771Z</time></trkpt><trkpt lat="42.3220368" lon="12.0546201"><ele>296.0</ele><time>2026-04-19T13:58:48.77Z</time></trkpt><trkpt lat="42.3219884" lon="12.0547519"><ele>296.0</ele><time>2026-04-19T13:58:49.77Z</time></trkpt><trkpt lat="42.3219394" lon="12.0548839"><ele>296.0</ele><time>2026-04-19T13:58:50.77Z</time></trkpt><trkpt lat="42.3218912" lon="12.0550075"><ele>296.0</ele><time>2026-04-19T13:58:51.77Z</time></trkpt><trkpt lat="42.3218468" lon="12.055122"><ele>296.0</ele><time>2026-04-19T13:58:52.771Z</time></trkpt><trkpt lat="42.3218048" lon="12.0552387"><ele>296.0</ele><time>2026-04-19T13:58:53.77Z</time></trkpt><trkpt lat="42.3217681" lon="12.0553459"><ele>296.0</ele><time>2026-04-19T13:58:54.769Z</time></trkpt><trkpt lat="42.3217343" lon="12.0554357"><ele>296.0</ele><time>2026-04-19T13:58:55.77Z</time></trkpt><trkpt lat="42.3216856" lon="12.0555552"><ele>296.0</ele><time>2026-04-19T13:58:57.77Z</time></trkpt><trkpt lat="42.3216551" lon="12.0556618"><ele>296.0</ele><time>2026-04-19T13:59:07.769Z</time></trkpt><trkpt lat="42.3215973" lon="12.0557379"><ele>296.0</ele><time>2026-04-19T13:59:08.771Z</time></trkpt><trkpt lat="42.3215551" lon="12.0558553"><ele>296.0</ele><time>2026-04-19T13:59:09.771Z</time></trkpt><trkpt lat="42.3214869" lon="12.055981"><ele>296.0</ele><time>2026-04-19T13:59:10.77Z</time></trkpt><trkpt lat="42.3214446" lon="12.0561369"><ele>296.0</ele><time>2026-04-19T13:59:11.771Z</time></trkpt><trkpt lat="42.3213584" lon="12.0563346"><ele>296.0</ele><time>2026-04-19T13:59:12.771Z</time></trkpt><trkpt lat="42.3212778" lon="12.0565243"><ele>296.0</ele><time>2026-04-19T13:59:13.771Z</time></trkpt><trkpt lat="42.321192" lon="12.0567549"><ele>296.0</ele><time>2026-04-19T13:59:14.77Z</time></trkpt><trkpt lat="42.3211062" lon="12.0569822"><ele>296.0</ele><time>2026-04-19T13:59:15.77Z</time></trkpt><trkpt lat="42.321014" lon="12.0572137"><ele>297.0</ele><time>2026-04-19T13:59:16.77Z</time></trkpt><trkpt lat="42.3209203" lon="12.057453"><ele>298.0</ele><time>2026-04-19T13:59:17.77Z</time></trkpt><trkpt lat="42.3208163" lon="12.0577117"><ele>299.0</ele><time>2026-04-19T13:59:18.769Z</time></trkpt><trkpt lat="42.3207153" lon="12.0579642"><ele>299.0</ele><time>2026-04-19T13:59:19.77Z</time></trkpt><trkpt lat="42.3206114" lon="12.0582207"><ele>299.0</ele><time>2026-04-19T13:59:20.77Z</time></trkpt><trkpt lat="42.3205094" lon="12.0584776"><ele>299.0</ele><time>2026-04-19T13:59:21.77Z</time></trkpt><trkpt lat="42.3204069" lon="12.0587371"><ele>301.0</ele><time>2026-04-19T13:59:22.77Z</time></trkpt><trkpt lat="42.3203034" lon="12.0589928"><ele>303.0</ele><time>2026-04-19T13:59:23.77Z</time></trkpt><trkpt lat="42.3202061" lon="12.0592394"><ele>305.0</ele><time>2026-04-19T13:59:24.77Z</time></trkpt><trkpt lat="42.3201079" lon="12.059486"><ele>305.0</ele><time>2026-04-19T13:59:25.77Z</time></trkpt><trkpt lat="42.3200074" lon="12.0597284"><ele>305.0</ele><time>2026-04-19T13:59:26.769Z</time></trkpt><trkpt lat="42.3199109" lon="12.0599712"><ele>305.0</ele><time>2026-04-19T13:59:27.77Z</time></trkpt><trkpt lat="42.3198154" lon="12.0602118"><ele>306.0</ele><time>2026-04-19T13:59:28.771Z</time></trkpt><trkpt lat="42.3197194" lon="12.0604457"><ele>307.0</ele><time>2026-04-19T13:59:29.77Z</time></trkpt><trkpt lat="42.3196267" lon="12.0606746"><ele>308.0</ele><time>2026-04-19T13:59:30.77Z</time></trkpt><trkpt lat="42.3195333" lon="12.0609045"><ele>308.33333333333337</ele><time>2026-04-19T13:59:31.77Z</time></trkpt><trkpt lat="42.3194396" lon="12.0611291"><ele>308.6666666666667</ele><time>2026-04-19T13:59:32.769Z</time></trkpt><trkpt lat="42.3193491" lon="12.0613492"><ele>309.0</ele><time>2026-04-19T13:59:33.77Z</time></trkpt><trkpt lat="42.3192591" lon="12.0615609"><ele>309.6666666666667</ele><time>2026-04-19T13:59:34.77Z</time></trkpt><trkpt lat="42.3191713" lon="12.0617644"><ele>310.33333333333337</ele><time>2026-04-19T13:59:35.77Z</time></trkpt><trkpt lat="42.3190878" lon="12.0619623"><ele>311.0</ele><time>2026-04-19T13:59:36.769Z</time></trkpt><trkpt lat="42.3189937" lon="12.0621358"><ele>311.75</ele><time>2026-04-19T13:59:37.77Z</time></trkpt><trkpt lat="42.3188831" lon="12.0622826"><ele>312.5</ele><time>2026-04-19T13:59:38.769Z</time></trkpt><trkpt lat="42.3187535" lon="12.0623824"><ele>313.25</ele><time>2026-04-19T13:59:39.77Z</time></trkpt><trkpt lat="42.3186189" lon="12.0624502"><ele>314.0</ele><time>2026-04-19T13:59:40.771Z</time></trkpt><trkpt lat="42.3184746" lon="12.0624777"><ele>314.0</ele><time>2026-04-19T13:59:41.771Z</time></trkpt><trkpt lat="42.3183197" lon="12.0624946"><ele>314.0</ele><time>2026-04-19T13:59:42.771Z</time></trkpt><trkpt lat="42.3181618" lon="12.0624995"><ele>314.0</ele><time>2026-04-19T13:59:43.771Z</time></trkpt><trkpt lat="42.3179973" lon="12.0625005"><ele>315.6666666666667</ele><time>2026-04-19T13:59:44.771Z</time></trkpt><trkpt lat="42.3178259" lon="12.0625088"><ele>317.3333333333333</ele><time>2026-04-19T13:59:45.771Z</time></trkpt><trkpt lat="42.3176495" lon="12.0625192"><ele>319.0</ele><time>2026-04-19T13:59:46.771Z</time></trkpt><trkpt lat="42.3174681" lon="12.0625302"><ele>319.0</ele><time>2026-04-19T13:59:47.771Z</time></trkpt><trkpt lat="42.3172868" lon="12.0625394"><ele>319.0</ele><time>2026-04-19T13:59:48.77Z</time></trkpt><trkpt lat="42.3171075" lon="12.0625389"><ele>319.0</ele><time>2026-04-19T13:59:49.77Z</time></trkpt><trkpt lat="42.3169234" lon="12.0625495"><ele>320.66666666666663</ele><time>2026-04-19T13:59:50.769Z</time></trkpt><trkpt lat="42.3167508" lon="12.0625512"><ele>322.3333333333333</ele><time>2026-04-19T13:59:51.77Z</time></trkpt><trkpt lat="42.3165823" lon="12.0625595"><ele>324.0</ele><time>2026-04-19T13:59:52.771Z</time></trkpt><trkpt lat="42.3164312" lon="12.0625619"><ele>324.75</ele><time>2026-04-19T13:59:53.771Z</time></trkpt><trkpt lat="42.3162943" lon="12.0625685"><ele>325.5</ele><time>2026-04-19T13:59:54.771Z</time></trkpt><trkpt lat="42.3161627" lon="12.0625727"><ele>326.25</ele><time>2026-04-19T13:59:55.77Z</time></trkpt><trkpt lat="42.3160428" lon="12.0625779"><ele>327.0</ele><time>2026-04-19T13:59:56.771Z</time></trkpt><trkpt lat="42.3159416" lon="12.0625645"><ele>327.0</ele><time>2026-04-19T13:59:57.77Z</time></trkpt><trkpt lat="42.3158577" lon="12.0625278"><ele>327.0</ele><time>2026-04-19T13:59:58.771Z</time></trkpt><trkpt lat="42.3157861" lon="12.062514"><ele>327.0</ele><time>2026-04-19T13:59:59.77Z</time></trkpt><trkpt lat="42.3157262" lon="12.0625527"><ele>327.0</ele><time>2026-04-19T14:00:00.77Z</time></trkpt><trkpt lat="42.3156704" lon="12.0626174"><ele>327.0</ele><time>2026-04-19T14:00:01.77Z</time></trkpt><trkpt lat="42.3156057" lon="12.0626939"><ele>327.0</ele><time>2026-04-19T14:00:02.77Z</time></trkpt><trkpt lat="42.3155219" lon="12.0627758"><ele>327.75</ele><time>2026-04-19T14:00:03.771Z</time></trkpt><trkpt lat="42.3154333" lon="12.0628676"><ele>328.5</ele><time>2026-04-19T14:00:04.77Z</time></trkpt><trkpt lat="42.3153476" lon="12.0629731"><ele>329.25</ele><time>2026-04-19T14:00:05.77Z</time></trkpt><trkpt lat="42.3152166" lon="12.0630899"><ele>330.0</ele><time>2026-04-19T14:00:06.771Z</time></trkpt><trkpt lat="42.315085" lon="12.0632149"><ele>331.0</ele><time>2026-04-19T14:00:07.77Z</time></trkpt><trkpt lat="42.3149574" lon="12.0633515"><ele>332.0</ele><time>2026-04-19T14:00:08.771Z</time></trkpt><trkpt lat="42.3148257" lon="12.0634911"><ele>333.0</ele><time>2026-04-19T14:00:09.77Z</time></trkpt><trkpt lat="42.314685" lon="12.0636425"><ele>333.0</ele><time>2026-04-19T14:00:10.771Z</time></trkpt><trkpt lat="42.3145489" lon="12.0637975"><ele>333.0</ele><time>2026-04-19T14:00:11.771Z</time></trkpt><trkpt lat="42.3144053" lon="12.0639611"><ele>333.0</ele><time>2026-04-19T14:00:12.771Z</time></trkpt><trkpt lat="42.3142627" lon="12.0641358"><ele>333.6666666666667</ele><time>2026-04-19T14:00:13.771Z</time></trkpt><trkpt lat="42.3141232" lon="12.0642927"><ele>334.33333333333337</ele><time>2026-04-19T14:00:14.771Z</time></trkpt><trkpt lat="42.313979" lon="12.0644443"><ele>335.0</ele><time>2026-04-19T14:00:15.769Z</time></trkpt><trkpt lat="42.3138318" lon="12.0646116"><ele>333.6666666666667</ele><time>2026-04-19T14:00:16.769Z</time></trkpt><trkpt lat="42.3136908" lon="12.0647609"><ele>332.3333333333333</ele><time>2026-04-19T14:00:17.77Z</time></trkpt><trkpt lat="42.313543" lon="12.0649333"><ele>331.0</ele><time>2026-04-19T14:00:18.771Z</time></trkpt><trkpt lat="42.3133937" lon="12.065094"><ele>334.0</ele><time>2026-04-19T14:00:19.771Z</time></trkpt><trkpt lat="42.313246" lon="12.0652629"><ele>337.0</ele><time>2026-04-19T14:00:20.771Z</time></trkpt><trkpt lat="42.3130996" lon="12.0654255"><ele>340.0</ele><time>2026-04-19T14:00:21.77Z</time></trkpt><trkpt lat="42.3129557" lon="12.0655913"><ele>340.0</ele><time>2026-04-19T14:00:22.77Z</time></trkpt><trkpt lat="42.3128114" lon="12.0657561"><ele>340.0</ele><time>2026-04-19T14:00:23.771Z</time></trkpt><trkpt lat="42.3126625" lon="12.0659204"><ele>340.0</ele><time>2026-04-19T14:00:24.771Z</time></trkpt><trkpt lat="42.3125137" lon="12.06609"><ele>342.66666666666663</ele><time>2026-04-19T14:00:25.771Z</time></trkpt><trkpt lat="42.3123629" lon="12.066261"><ele>345.3333333333333</ele><time>2026-04-19T14:00:26.77Z</time></trkpt><trkpt lat="42.312209" lon="12.0664316"><ele>348.0</ele><time>2026-04-19T14:00:27.771Z</time></trkpt><trkpt lat="42.3120522" lon="12.0666053"><ele>350.6666666666667</ele><time>2026-04-19T14:00:28.769Z</time></trkpt><trkpt lat="42.3118946" lon="12.0667844"><ele>353.33333333333337</ele><time>2026-04-19T14:00:29.77Z</time></trkpt><trkpt lat="42.3117553" lon="12.0669665"><ele>356.0</ele><time>2026-04-19T14:00:30.77Z</time></trkpt><trkpt lat="42.3116035" lon="12.067171"><ele>356.0</ele><time>2026-04-19T14:00:31.77Z</time></trkpt><trkpt lat="42.311469" lon="12.0673806"><ele>356.0</ele><time>2026-04-19T14:00:32.77Z</time></trkpt><trkpt lat="42.3112101" lon="12.0681316"><ele>359.0</ele><time>2026-04-19T14:00:35.769Z</time></trkpt><trkpt lat="42.3111517" lon="12.0684079"><ele>362.0</ele><time>2026-04-19T14:00:36.77Z</time></trkpt><trkpt lat="42.3111006" lon="12.068692"><ele>365.0</ele><time>2026-04-19T14:00:37.771Z</time></trkpt><trkpt lat="42.3110383" lon="12.0689789"><ele>365.5</ele><time>2026-04-19T14:00:38.77Z</time></trkpt><trkpt lat="42.3109771" lon="12.0692702"><ele>366.0</ele><time>2026-04-19T14:00:39.77Z</time></trkpt><trkpt lat="42.3109142" lon="12.0695663"><ele>366.0</ele><time>2026-04-19T14:00:40.771Z</time></trkpt><trkpt lat="42.3108544" lon="12.0698624"><ele>366.0</ele><time>2026-04-19T14:00:41.771Z</time></trkpt><trkpt lat="42.3107981" lon="12.0701456"><ele>366.0</ele><time>2026-04-19T14:00:42.77Z</time></trkpt><trkpt lat="42.3107383" lon="12.0704303"><ele>365.6666666666667</ele><time>2026-04-19T14:00:43.771Z</time></trkpt><trkpt lat="42.3106826" lon="12.0707028"><ele>365.33333333333337</ele><time>2026-04-19T14:00:44.77Z</time></trkpt><trkpt lat="42.3106307" lon="12.0709598"><ele>365.0</ele><time>2026-04-19T14:00:45.771Z</time></trkpt><trkpt lat="42.310576" lon="12.0712106"><ele>367.0</ele><time>2026-04-19T14:00:46.771Z</time></trkpt><trkpt lat="42.3105239" lon="12.0714535"><ele>369.0</ele><time>2026-04-19T14:00:47.771Z</time></trkpt><trkpt lat="42.3104723" lon="12.0716995"><ele>371.0</ele><time>2026-04-19T14:00:48.769Z</time></trkpt><trkpt lat="42.3104228" lon="12.0719435"><ele>371.6666666666667</ele><time>2026-04-19T14:00:49.77Z</time></trkpt><trkpt lat="42.3103729" lon="12.0721894"><ele>372.3333333333333</ele><time>2026-04-19T14:00:50.769Z</time></trkpt><trkpt lat="42.310323" lon="12.0724318"><ele>373.0</ele><time>2026-04-19T14:00:51.771Z</time></trkpt><trkpt lat="42.3102756" lon="12.072664"><ele>374.3333333333333</ele><time>2026-04-19T14:00:52.771Z</time></trkpt><trkpt lat="42.31023" lon="12.0728976"><ele>375.6666666666667</ele><time>2026-04-19T14:00:53.77Z</time></trkpt><trkpt lat="42.310186" lon="12.0731305"><ele>377.0</ele><time>2026-04-19T14:00:54.77Z</time></trkpt><trkpt lat="42.3101379" lon="12.0733621"><ele>377.33333333333337</ele><time>2026-04-19T14:00:55.77Z</time></trkpt><trkpt lat="42.3100873" lon="12.073591"><ele>377.6666666666667</ele><time>2026-04-19T14:00:56.77Z</time></trkpt><trkpt lat="42.3100344" lon="12.0738257"><ele>378.0</ele><time>2026-04-19T14:00:57.77Z</time></trkpt><trkpt lat="42.3099795" lon="12.0740509"><ele>379.0</ele><time>2026-04-19T14:00:58.771Z</time></trkpt><trkpt lat="42.3099167" lon="12.0742646"><ele>380.0</ele><time>2026-04-19T14:00:59.77Z</time></trkpt><trkpt lat="42.3098519" lon="12.0744683"><ele>381.0</ele><time>2026-04-19T14:01:00.769Z</time></trkpt><trkpt lat="42.3097849" lon="12.0746627"><ele>381.5</ele><time>2026-04-19T14:01:01.771Z</time></trkpt><trkpt lat="42.309725" lon="12.0748442"><ele>382.0</ele><time>2026-04-19T14:01:02.771Z</time></trkpt><trkpt lat="42.3096661" lon="12.0750135"><ele>382.5</ele><time>2026-04-19T14:01:03.77Z</time></trkpt><trkpt lat="42.3096067" lon="12.0751788"><ele>383.0</ele><time>2026-04-19T14:01:04.769Z</time></trkpt><trkpt lat="42.3095498" lon="12.0753394"><ele>383.5</ele><time>2026-04-19T14:01:05.771Z</time></trkpt><trkpt lat="42.3094993" lon="12.0754901"><ele>384.0</ele><time>2026-04-19T14:01:06.77Z</time></trkpt><trkpt lat="42.3094484" lon="12.075635"><ele>384.5</ele><time>2026-04-19T14:01:07.77Z</time></trkpt><trkpt lat="42.3093978" lon="12.0757768"><ele>385.0</ele><time>2026-04-19T14:01:08.771Z</time></trkpt><trkpt lat="42.3093505" lon="12.0759117"><ele>385.25</ele><time>2026-04-19T14:01:09.771Z</time></trkpt><trkpt lat="42.3093082" lon="12.076049"><ele>385.5</ele><time>2026-04-19T14:01:10.77Z</time></trkpt><trkpt lat="42.3092615" lon="12.0761957"><ele>385.75</ele><time>2026-04-19T14:01:11.77Z</time></trkpt><trkpt lat="42.3092092" lon="12.0763519"><ele>386.0</ele><time>2026-04-19T14:01:12.771Z</time></trkpt><trkpt lat="42.3091508" lon="12.0765121"><ele>386.0</ele><time>2026-04-19T14:01:13.771Z</time></trkpt><trkpt lat="42.3090958" lon="12.0766599"><ele>386.0</ele><time>2026-04-19T14:01:14.771Z</time></trkpt><trkpt lat="42.3090452" lon="12.0767903"><ele>386.0</ele><time>2026-04-19T14:01:15.769Z</time></trkpt><trkpt lat="42.3089986" lon="12.0769185"><ele>386.0</ele><time>2026-04-19T14:01:16.768Z</time></trkpt><trkpt lat="42.3089513" lon="12.0770354"><ele>386.0</ele><time>2026-04-19T14:01:17.77Z</time></trkpt><trkpt lat="42.3089113" lon="12.0771553"><ele>386.25</ele><time>2026-04-19T14:01:18.77Z</time></trkpt><trkpt lat="42.3088677" lon="12.0772914"><ele>386.5</ele><time>2026-04-19T14:01:19.77Z</time></trkpt><trkpt lat="42.3088158" lon="12.0774517"><ele>386.75</ele><time>2026-04-19T14:01:20.769Z</time></trkpt><trkpt lat="42.3087534" lon="12.0776291"><ele>387.0</ele><time>2026-04-19T14:01:21.768Z</time></trkpt><trkpt lat="42.3086835" lon="12.0778255"><ele>387.0</ele><time>2026-04-19T14:01:22.77Z</time></trkpt><trkpt lat="42.3086115" lon="12.0780288"><ele>387.0</ele><time>2026-04-19T14:01:23.77Z</time></trkpt><trkpt lat="42.3085397" lon="12.0782275"><ele>387.0</ele><time>2026-04-19T14:01:24.77Z</time></trkpt><trkpt lat="42.3084686" lon="12.078417"><ele>387.25</ele><time>2026-04-19T14:01:25.77Z</time></trkpt><trkpt lat="42.3084021" lon="12.0785953"><ele>387.5</ele><time>2026-04-19T14:01:26.769Z</time></trkpt><trkpt lat="42.3083403" lon="12.0787624"><ele>387.75</ele><time>2026-04-19T14:01:27.769Z</time></trkpt><trkpt lat="42.3082772" lon="12.0789248"><ele>388.0</ele><time>2026-04-19T14:01:28.77Z</time></trkpt><trkpt lat="42.3082164" lon="12.0790854"><ele>388.25</ele><time>2026-04-19T14:01:29.77Z</time></trkpt><trkpt lat="42.3081608" lon="12.0792426"><ele>388.5</ele><time>2026-04-19T14:01:30.769Z</time></trkpt><trkpt lat="42.308107" lon="12.0793876"><ele>388.75</ele><time>2026-04-19T14:01:31.77Z</time></trkpt><trkpt lat="42.3080553" lon="12.0795292"><ele>389.0</ele><time>2026-04-19T14:01:32.77Z</time></trkpt><trkpt lat="42.3080106" lon="12.0796636"><ele>388.6</ele><time>2026-04-19T14:01:33.77Z</time></trkpt><trkpt lat="42.3079627" lon="12.0797857"><ele>388.2</ele><time>2026-04-19T14:01:34.77Z</time></trkpt><trkpt lat="42.3079205" lon="12.0799085"><ele>387.8</ele><time>2026-04-19T14:01:35.769Z</time></trkpt><trkpt lat="42.3078775" lon="12.0800282"><ele>387.40000000000003</ele><time>2026-04-19T14:01:36.769Z</time></trkpt><trkpt lat="42.3078356" lon="12.0801394"><ele>387.0</ele><time>2026-04-19T14:01:37.769Z</time></trkpt><trkpt lat="42.3077928" lon="12.0802492"><ele>387.0</ele><time>2026-04-19T14:01:38.769Z</time></trkpt><trkpt lat="42.3077561" lon="12.0803509"><ele>387.0</ele><time>2026-04-19T14:01:39.769Z</time></trkpt><trkpt lat="42.3077193" lon="12.0804524"><ele>387.0</ele><time>2026-04-19T14:01:40.769Z</time></trkpt><trkpt lat="42.3076821" lon="12.0805486"><ele>387.0</ele><time>2026-04-19T14:01:41.769Z</time></trkpt><trkpt lat="42.3076449" lon="12.0806478"><ele>387.0</ele><time>2026-04-19T14:01:42.769Z</time></trkpt><trkpt lat="42.3076072" lon="12.0807595"><ele>387.0</ele><time>2026-04-19T14:01:43.769Z</time></trkpt><trkpt lat="42.3075699" lon="12.080864"><ele>387.1666666666667</ele><time>2026-04-19T14:01:44.77Z</time></trkpt><trkpt lat="42.3075317" lon="12.0809703"><ele>387.33333333333337</ele><time>2026-04-19T14:01:45.769Z</time></trkpt><trkpt lat="42.3075029" lon="12.0810656"><ele>387.5</ele><time>2026-04-19T14:01:46.768Z</time></trkpt><trkpt lat="42.3074705" lon="12.0811634"><ele>387.6666666666667</ele><time>2026-04-19T14:01:48.769Z</time></trkpt><trkpt lat="42.3074312" lon="12.0812742"><ele>387.83333333333337</ele><time>2026-04-19T14:01:52.769Z</time></trkpt><trkpt lat="42.3073956" lon="12.0813671"><ele>388.0</ele><time>2026-04-19T14:01:54.77Z</time></trkpt><trkpt lat="42.3073462" lon="12.0814618"><ele>388.0</ele><time>2026-04-19T14:01:55.77Z</time></trkpt><trkpt lat="42.3072932" lon="12.0815581"><ele>388.0</ele><time>2026-04-19T14:01:56.77Z</time></trkpt><trkpt lat="42.3072377" lon="12.0816499"><ele>388.0</ele><time>2026-04-19T14:01:57.77Z</time></trkpt><trkpt lat="42.3071768" lon="12.0817679"><ele>388.0</ele><time>2026-04-19T14:01:58.769Z</time></trkpt><trkpt lat="42.3070682" lon="12.0819002"><ele>388.0</ele><time>2026-04-19T14:01:59.768Z</time></trkpt><trkpt lat="42.3069851" lon="12.0820359"><ele>388.0</ele><time>2026-04-19T14:02:00.769Z</time></trkpt><trkpt lat="42.3068633" lon="12.0821769"><ele>388.0</ele><time>2026-04-19T14:02:01.77Z</time></trkpt><trkpt lat="42.3067501" lon="12.0823114"><ele>388.0</ele><time>2026-04-19T14:02:02.77Z</time></trkpt><trkpt lat="42.3066499" lon="12.0824499"><ele>388.0</ele><time>2026-04-19T14:02:03.77Z</time></trkpt><trkpt lat="42.3065457" lon="12.0826081"><ele>388.0</ele><time>2026-04-19T14:02:04.769Z</time></trkpt><trkpt lat="42.3064359" lon="12.0827799"><ele>388.0</ele><time>2026-04-19T14:02:05.77Z</time></trkpt><trkpt lat="42.3063321" lon="12.0829561"><ele>389.33333333333337</ele><time>2026-04-19T14:02:06.77Z</time></trkpt><trkpt lat="42.3062175" lon="12.0831164"><ele>390.66666666666663</ele><time>2026-04-19T14:02:07.77Z</time></trkpt><trkpt lat="42.3061011" lon="12.0832947"><ele>392.0</ele><time>2026-04-19T14:02:08.77Z</time></trkpt><trkpt lat="42.3059779" lon="12.0834775"><ele>392.0</ele><time>2026-04-19T14:02:09.77Z</time></trkpt><trkpt lat="42.3058583" lon="12.083659"><ele>392.0</ele><time>2026-04-19T14:02:10.769Z</time></trkpt><trkpt lat="42.3057393" lon="12.0838416"><ele>392.0</ele><time>2026-04-19T14:02:11.77Z</time></trkpt><trkpt lat="42.3056214" lon="12.0840243"><ele>392.66666666666663</ele><time>2026-04-19T14:02:12.769Z</time></trkpt><trkpt lat="42.3054931" lon="12.0842117"><ele>393.33333333333337</ele><time>2026-04-19T14:02:13.769Z</time></trkpt><trkpt lat="42.3053663" lon="12.0843947"><ele>394.0</ele><time>2026-04-19T14:02:14.77Z</time></trkpt><trkpt lat="42.3052433" lon="12.0845998"><ele>394.0</ele><time>2026-04-19T14:02:15.77Z</time></trkpt><trkpt lat="42.3051117" lon="12.0847897"><ele>394.0</ele><time>2026-04-19T14:02:16.77Z</time></trkpt><trkpt lat="42.3049943" lon="12.0849597"><ele>394.0</ele><time>2026-04-19T14:02:17.77Z</time></trkpt><trkpt lat="42.3048755" lon="12.0851636"><ele>393.6666666666667</ele><time>2026-04-19T14:02:18.769Z</time></trkpt><trkpt lat="42.3047444" lon="12.0853481"><ele>393.33333333333337</ele><time>2026-04-19T14:02:19.769Z</time></trkpt><trkpt lat="42.3046155" lon="12.085536"><ele>393.0</ele><time>2026-04-19T14:02:20.77Z</time></trkpt><trkpt lat="42.3044875" lon="12.0857218"><ele>392.66666666666663</ele><time>2026-04-19T14:02:21.77Z</time></trkpt><trkpt lat="42.3043578" lon="12.0859061"><ele>392.3333333333333</ele><time>2026-04-19T14:02:22.77Z</time></trkpt><trkpt lat="42.3042286" lon="12.0860914"><ele>392.0</ele><time>2026-04-19T14:02:23.769Z</time></trkpt><trkpt lat="42.304107" lon="12.0862745"><ele>392.0</ele><time>2026-04-19T14:02:24.77Z</time></trkpt><trkpt lat="42.3039793" lon="12.086457"><ele>392.0</ele><time>2026-04-19T14:02:25.768Z</time></trkpt><trkpt lat="42.3038522" lon="12.0866423"><ele>392.0</ele><time>2026-04-19T14:02:26.769Z</time></trkpt><trkpt lat="42.3037259" lon="12.086829"><ele>393.66666666666663</ele><time>2026-04-19T14:02:27.769Z</time></trkpt><trkpt lat="42.3036024" lon="12.0870168"><ele>395.33333333333337</ele><time>2026-04-19T14:02:28.768Z</time></trkpt><trkpt lat="42.30348" lon="12.0871834"><ele>397.0</ele><time>2026-04-19T14:02:29.769Z</time></trkpt><trkpt lat="42.3033738" lon="12.0873495"><ele>397.33333333333337</ele><time>2026-04-19T14:02:30.769Z</time></trkpt><trkpt lat="42.303267" lon="12.087508"><ele>397.66666666666663</ele><time>2026-04-19T14:02:31.768Z</time></trkpt><trkpt lat="42.3031627" lon="12.087665"><ele>398.0</ele><time>2026-04-19T14:02:32.768Z</time></trkpt><trkpt lat="42.3030591" lon="12.0878282"><ele>398.5</ele><time>2026-04-19T14:02:33.768Z</time></trkpt><trkpt lat="42.3029574" lon="12.0879784"><ele>399.0</ele><time>2026-04-19T14:02:34.769Z</time></trkpt><trkpt lat="42.3028567" lon="12.0881252"><ele>399.5</ele><time>2026-04-19T14:02:35.769Z</time></trkpt><trkpt lat="42.3027579" lon="12.0882677"><ele>400.0</ele><time>2026-04-19T14:02:36.768Z</time></trkpt><trkpt lat="42.3026667" lon="12.0884051"><ele>400.0</ele><time>2026-04-19T14:02:37.768Z</time></trkpt><trkpt lat="42.3025781" lon="12.0885448"><ele>400.0</ele><time>2026-04-19T14:02:38.767Z</time></trkpt><trkpt lat="42.3024967" lon="12.0886728"><ele>400.0</ele><time>2026-04-19T14:02:39.769Z</time></trkpt><trkpt lat="42.3024125" lon="12.0887942"><ele>400.0</ele><time>2026-04-19T14:02:40.768Z</time></trkpt><trkpt lat="42.3023335" lon="12.0889062"><ele>400.0</ele><time>2026-04-19T14:02:41.768Z</time></trkpt><trkpt lat="42.3022552" lon="12.0890153"><ele>400.0</ele><time>2026-04-19T14:02:42.769Z</time></trkpt><trkpt lat="42.3021821" lon="12.0891212"><ele>400.0</ele><time>2026-04-19T14:02:43.768Z</time></trkpt><trkpt lat="42.302111" lon="12.0892232"><ele>400.0</ele><time>2026-04-19T14:02:44.768Z</time></trkpt><trkpt lat="42.3020407" lon="12.0893284"><ele>400.0</ele><time>2026-04-19T14:02:45.768Z</time></trkpt><trkpt lat="42.3019638" lon="12.0894431"><ele>400.0</ele><time>2026-04-19T14:02:46.768Z</time></trkpt><trkpt lat="42.3018858" lon="12.0895578"><ele>400.0</ele><time>2026-04-19T14:02:47.768Z</time></trkpt><trkpt lat="42.3018065" lon="12.089671"><ele>400.0</ele><time>2026-04-19T14:02:48.768Z</time></trkpt><trkpt lat="42.3017306" lon="12.089789"><ele>400.0</ele><time>2026-04-19T14:02:49.769Z</time></trkpt><trkpt lat="42.3016488" lon="12.0899124"><ele>400.25</ele><time>2026-04-19T14:02:50.768Z</time></trkpt><trkpt lat="42.3015683" lon="12.090034"><ele>400.5</ele><time>2026-04-19T14:02:51.769Z</time></trkpt><trkpt lat="42.3014944" lon="12.0901666"><ele>400.75</ele><time>2026-04-19T14:02:52.769Z</time></trkpt><trkpt lat="42.3014257" lon="12.0903139"><ele>401.0</ele><time>2026-04-19T14:02:53.769Z</time></trkpt><trkpt lat="42.3013669" lon="12.0904717"><ele>401.0</ele><time>2026-04-19T14:02:54.769Z</time></trkpt><trkpt lat="42.3013226" lon="12.0906309"><ele>401.0</ele><time>2026-04-19T14:02:55.769Z</time></trkpt><trkpt lat="42.3012829" lon="12.0908102"><ele>401.0</ele><time>2026-04-19T14:02:56.769Z</time></trkpt><trkpt lat="42.3012416" lon="12.0909847"><ele>401.0</ele><time>2026-04-19T14:02:57.769Z</time></trkpt><trkpt lat="42.3012002" lon="12.0911645"><ele>401.5</ele><time>2026-04-19T14:02:58.769Z</time></trkpt><trkpt lat="42.30116" lon="12.0913489"><ele>402.0</ele><time>2026-04-19T14:02:59.767Z</time></trkpt><trkpt lat="42.3011211" lon="12.0915265"><ele>402.5</ele><time>2026-04-19T14:03:00.767Z</time></trkpt><trkpt lat="42.3010822" lon="12.0917046"><ele>403.0</ele><time>2026-04-19T14:03:01.768Z</time></trkpt><trkpt lat="42.3010454" lon="12.0918873"><ele>403.75</ele><time>2026-04-19T14:03:02.768Z</time></trkpt><trkpt lat="42.3010077" lon="12.0920677"><ele>404.5</ele><time>2026-04-19T14:03:03.768Z</time></trkpt><trkpt lat="42.3009682" lon="12.0922435"><ele>405.25</ele><time>2026-04-19T14:03:04.768Z</time></trkpt><trkpt lat="42.3009336" lon="12.0924138"><ele>406.0</ele><time>2026-04-19T14:03:05.768Z</time></trkpt><trkpt lat="42.3008991" lon="12.0925773"><ele>406.75</ele><time>2026-04-19T14:03:06.768Z</time></trkpt><trkpt lat="42.3008641" lon="12.0927368"><ele>407.5</ele><time>2026-04-19T14:03:07.769Z</time></trkpt><trkpt lat="42.3008282" lon="12.0928932"><ele>408.25</ele><time>2026-04-19T14:03:08.769Z</time></trkpt><trkpt lat="42.3007946" lon="12.0930469"><ele>409.0</ele><time>2026-04-19T14:03:09.769Z</time></trkpt><trkpt lat="42.300767" lon="12.0932045"><ele>409.25</ele><time>2026-04-19T14:03:10.768Z</time></trkpt><trkpt lat="42.3007387" lon="12.0933775"><ele>409.5</ele><time>2026-04-19T14:03:11.767Z</time></trkpt><trkpt lat="42.300701" lon="12.0935682"><ele>409.75</ele><time>2026-04-19T14:03:12.769Z</time></trkpt><trkpt lat="42.3006624" lon="12.0937715"><ele>410.0</ele><time>2026-04-19T14:03:13.768Z</time></trkpt><trkpt lat="42.3006216" lon="12.0939798"><ele>410.0</ele><time>2026-04-19T14:03:14.768Z</time></trkpt><trkpt lat="42.3005798" lon="12.0941903"><ele>410.0</ele><time>2026-04-19T14:03:15.768Z</time></trkpt><trkpt lat="42.3005375" lon="12.0943961"><ele>410.0</ele><time>2026-04-19T14:03:16.768Z</time></trkpt><trkpt lat="42.3004942" lon="12.0945961"><ele>410.0</ele><time>2026-04-19T14:03:17.768Z</time></trkpt><trkpt lat="42.3004496" lon="12.0947858"><ele>410.0</ele><time>2026-04-19T14:03:18.769Z</time></trkpt><trkpt lat="42.3004068" lon="12.0949653"><ele>410.0</ele><time>2026-04-19T14:03:19.769Z</time></trkpt><trkpt lat="42.3003614" lon="12.0951342"><ele>410.0</ele><time>2026-04-19T14:03:20.769Z</time></trkpt><trkpt lat="42.3003177" lon="12.0952831"><ele>409.99999999999994</ele><time>2026-04-19T14:03:21.769Z</time></trkpt><trkpt lat="42.3002773" lon="12.0954202"><ele>410.0</ele><time>2026-04-19T14:03:22.769Z</time></trkpt><trkpt lat="42.3002425" lon="12.0955357"><ele>410.0</ele><time>2026-04-19T14:03:23.768Z</time></trkpt><trkpt lat="42.3002131" lon="12.0956331"><ele>410.0</ele><time>2026-04-19T14:03:24.769Z</time></trkpt><trkpt lat="42.3001793" lon="12.0957206"><ele>409.99999999999994</ele><time>2026-04-19T14:03:25.768Z</time></trkpt><trkpt lat="42.3001411" lon="12.095807"><ele>410.0</ele><time>2026-04-19T14:03:26.768Z</time></trkpt><trkpt lat="42.300091" lon="12.0958939"><ele>410.25</ele><time>2026-04-19T14:03:27.767Z</time></trkpt><trkpt lat="42.3000325" lon="12.09599"><ele>410.5</ele><time>2026-04-19T14:03:28.768Z</time></trkpt><trkpt lat="42.2999578" lon="12.0960994"><ele>410.75</ele><time>2026-04-19T14:03:29.768Z</time></trkpt><trkpt lat="42.2998669" lon="12.0962267"><ele>411.0</ele><time>2026-04-19T14:03:30.767Z</time></trkpt><trkpt lat="42.2997645" lon="12.0963677"><ele>411.0</ele><time>2026-04-19T14:03:31.768Z</time></trkpt><trkpt lat="42.2996507" lon="12.0965178"><ele>411.0</ele><time>2026-04-19T14:03:32.768Z</time></trkpt><trkpt lat="42.2995221" lon="12.0966835"><ele>411.0</ele><time>2026-04-19T14:03:33.769Z</time></trkpt><trkpt lat="42.2993909" lon="12.0968514"><ele>411.66666666666663</ele><time>2026-04-19T14:03:34.768Z</time></trkpt><trkpt lat="42.2992462" lon="12.0970251"><ele>412.3333333333333</ele><time>2026-04-19T14:03:35.769Z</time></trkpt><trkpt lat="42.2991012" lon="12.0972044"><ele>413.0</ele><time>2026-04-19T14:03:36.769Z</time></trkpt><trkpt lat="42.2989593" lon="12.0973819"><ele>414.0</ele><time>2026-04-19T14:03:37.768Z</time></trkpt><trkpt lat="42.2988191" lon="12.0975535"><ele>415.0</ele><time>2026-04-19T14:03:38.769Z</time></trkpt><trkpt lat="42.2986871" lon="12.0977144"><ele>416.0</ele><time>2026-04-19T14:03:39.769Z</time></trkpt><trkpt lat="42.2985619" lon="12.0978707"><ele>416.0</ele><time>2026-04-19T14:03:40.769Z</time></trkpt><trkpt lat="42.2984433" lon="12.098018"><ele>416.0</ele><time>2026-04-19T14:03:41.769Z</time></trkpt><trkpt lat="42.2983309" lon="12.0981587"><ele>416.0</ele><time>2026-04-19T14:03:42.768Z</time></trkpt><trkpt lat="42.2982251" lon="12.0982851"><ele>416.5</ele><time>2026-04-19T14:03:43.769Z</time></trkpt><trkpt lat="42.2981215" lon="12.0984103"><ele>417.0</ele><time>2026-04-19T14:03:44.769Z</time></trkpt><trkpt lat="42.2980201" lon="12.0985332"><ele>417.5</ele><time>2026-04-19T14:03:45.768Z</time></trkpt><trkpt lat="42.2979209" lon="12.0986521"><ele>418.0</ele><time>2026-04-19T14:03:46.769Z</time></trkpt><trkpt lat="42.2978253" lon="12.0987681"><ele>418.59999999999997</ele><time>2026-04-19T14:03:47.768Z</time></trkpt><trkpt lat="42.2977377" lon="12.0988799"><ele>419.2</ele><time>2026-04-19T14:03:48.769Z</time></trkpt><trkpt lat="42.2976563" lon="12.0989765"><ele>419.8</ele><time>2026-04-19T14:03:49.769Z</time></trkpt><trkpt lat="42.2975797" lon="12.0990583"><ele>420.4</ele><time>2026-04-19T14:03:50.769Z</time></trkpt><trkpt lat="42.2975021" lon="12.0991257"><ele>421.0</ele><time>2026-04-19T14:03:51.768Z</time></trkpt><trkpt lat="42.297419" lon="12.099175"><ele>421.0</ele><time>2026-04-19T14:03:52.768Z</time></trkpt><trkpt lat="42.2973321" lon="12.0992329"><ele>421.0</ele><time>2026-04-19T14:03:53.768Z</time></trkpt><trkpt lat="42.2972509" lon="12.0993117"><ele>421.0</ele><time>2026-04-19T14:03:54.768Z</time></trkpt><trkpt lat="42.2971662" lon="12.0994043"><ele>421.0</ele><time>2026-04-19T14:03:55.768Z</time></trkpt><trkpt lat="42.2970734" lon="12.0994929"><ele>421.0</ele><time>2026-04-19T14:03:56.769Z</time></trkpt><trkpt lat="42.2969758" lon="12.099571"><ele>422.75</ele><time>2026-04-19T14:03:57.769Z</time></trkpt><trkpt lat="42.2968782" lon="12.0996524"><ele>424.5</ele><time>2026-04-19T14:03:58.769Z</time></trkpt><trkpt lat="42.2967789" lon="12.0997377"><ele>426.25</ele><time>2026-04-19T14:03:59.769Z</time></trkpt><trkpt lat="42.2966648" lon="12.0998497"><ele>428.0</ele><time>2026-04-19T14:04:00.768Z</time></trkpt><trkpt lat="42.296535" lon="12.0999806"><ele>433.66666666666663</ele><time>2026-04-19T14:04:01.768Z</time></trkpt><trkpt lat="42.2963881" lon="12.1001283"><ele>439.33333333333337</ele><time>2026-04-19T14:04:02.767Z</time></trkpt><trkpt lat="42.2962433" lon="12.1002797"><ele>445.0</ele><time>2026-04-19T14:04:03.768Z</time></trkpt><trkpt lat="42.2960941" lon="12.1004688"><ele>445.0</ele><time>2026-04-19T14:04:04.769Z</time></trkpt><trkpt lat="42.2959545" lon="12.1006466"><ele>445.0</ele><time>2026-04-19T14:04:05.768Z</time></trkpt><trkpt lat="42.2957968" lon="12.1008537"><ele>445.0</ele><time>2026-04-19T14:04:06.767Z</time></trkpt><trkpt lat="42.295669" lon="12.1010292"><ele>446.0</ele><time>2026-04-19T14:04:07.768Z</time></trkpt><trkpt lat="42.2955504" lon="12.1012467"><ele>447.0</ele><time>2026-04-19T14:04:08.768Z</time></trkpt><trkpt lat="42.2953913" lon="12.1014581"><ele>448.0</ele><time>2026-04-19T14:04:09.769Z</time></trkpt><trkpt lat="42.2952368" lon="12.1016695"><ele>448.5</ele><time>2026-04-19T14:04:10.769Z</time></trkpt><trkpt lat="42.2950797" lon="12.1018971"><ele>449.0</ele><time>2026-04-19T14:04:11.768Z</time></trkpt><trkpt lat="42.2949294" lon="12.1021194"><ele>449.0</ele><time>2026-04-19T14:04:12.768Z</time></trkpt><trkpt lat="42.294786" lon="12.1023261"><ele>449.0</ele><time>2026-04-19T14:04:13.767Z</time></trkpt><trkpt lat="42.2946571" lon="12.1025206"><ele>449.0</ele><time>2026-04-19T14:04:14.768Z</time></trkpt><trkpt lat="42.2945302" lon="12.1027032"><ele>450.3333333333333</ele><time>2026-04-19T14:04:15.768Z</time></trkpt><trkpt lat="42.2944108" lon="12.1028777"><ele>451.66666666666663</ele><time>2026-04-19T14:04:16.769Z</time></trkpt><trkpt lat="42.2942935" lon="12.1030407"><ele>453.0</ele><time>2026-04-19T14:04:17.769Z</time></trkpt><trkpt lat="42.2941684" lon="12.1032056"><ele>453.0</ele><time>2026-04-19T14:04:18.769Z</time></trkpt><trkpt lat="42.2940439" lon="12.1033668"><ele>453.0</ele><time>2026-04-19T14:04:19.769Z</time></trkpt><trkpt lat="42.2939179" lon="12.1035253"><ele>453.0</ele><time>2026-04-19T14:04:20.769Z</time></trkpt><trkpt lat="42.2937871" lon="12.1036927"><ele>453.66666666666663</ele><time>2026-04-19T14:04:21.769Z</time></trkpt><trkpt lat="42.2936616" lon="12.1038541"><ele>454.3333333333333</ele><time>2026-04-19T14:04:22.769Z</time></trkpt><trkpt lat="42.2935271" lon="12.1040178"><ele>455.0</ele><time>2026-04-19T14:04:23.769Z</time></trkpt><trkpt lat="42.2933993" lon="12.104179"><ele>455.0</ele><time>2026-04-19T14:04:24.769Z</time></trkpt><trkpt lat="42.293271" lon="12.1043385"><ele>455.0</ele><time>2026-04-19T14:04:25.769Z</time></trkpt><trkpt lat="42.2931408" lon="12.1044967"><ele>455.0</ele><time>2026-04-19T14:04:26.769Z</time></trkpt><trkpt lat="42.2930163" lon="12.1046466"><ele>456.3333333333333</ele><time>2026-04-19T14:04:27.769Z</time></trkpt><trkpt lat="42.2928907" lon="12.104806"><ele>457.66666666666663</ele><time>2026-04-19T14:04:28.767Z</time></trkpt><trkpt lat="42.2927751" lon="12.1049783"><ele>459.0</ele><time>2026-04-19T14:04:29.768Z</time></trkpt><trkpt lat="42.2926745" lon="12.1051738"><ele>459.0</ele><time>2026-04-19T14:04:30.768Z</time></trkpt><trkpt lat="42.2925839" lon="12.1053826"><ele>459.0</ele><time>2026-04-19T14:04:31.769Z</time></trkpt><trkpt lat="42.292509" lon="12.1056024"><ele>459.0</ele><time>2026-04-19T14:04:32.768Z</time></trkpt><trkpt lat="42.2924465" lon="12.1058227"><ele>460.0</ele><time>2026-04-19T14:04:33.769Z</time></trkpt><trkpt lat="42.2924032" lon="12.1060396"><ele>461.0</ele><time>2026-04-19T14:04:34.768Z</time></trkpt><trkpt lat="42.2923671" lon="12.1062413"><ele>462.0</ele><time>2026-04-19T14:04:35.767Z</time></trkpt><trkpt lat="42.2923288" lon="12.1064514"><ele>463.0</ele><time>2026-04-19T14:04:36.768Z</time></trkpt><trkpt lat="42.2921897" lon="12.107262"><ele>462.6666666666667</ele><time>2026-04-19T14:04:40.768Z</time></trkpt><trkpt lat="42.2921602" lon="12.1074779"><ele>462.33333333333337</ele><time>2026-04-19T14:04:41.768Z</time></trkpt><trkpt lat="42.2921294" lon="12.1077192"><ele>462.0</ele><time>2026-04-19T14:04:42.769Z</time></trkpt><trkpt lat="42.2920955" lon="12.107968"><ele>462.0</ele><time>2026-04-19T14:04:43.769Z</time></trkpt><trkpt lat="42.2920624" lon="12.1082141"><ele>462.0</ele><time>2026-04-19T14:04:44.769Z</time></trkpt><trkpt lat="42.2920319" lon="12.1084415"><ele>462.0</ele><time>2026-04-19T14:04:45.768Z</time></trkpt><trkpt lat="42.2919965" lon="12.1086466"><ele>462.0</ele><time>2026-04-19T14:04:46.769Z</time></trkpt><trkpt lat="42.2919661" lon="12.1088566"><ele>462.0</ele><time>2026-04-19T14:04:47.768Z</time></trkpt><trkpt lat="42.2919314" lon="12.1090549"><ele>462.0</ele><time>2026-04-19T14:04:48.769Z</time></trkpt><trkpt lat="42.2918931" lon="12.1092571"><ele>462.33333333333337</ele><time>2026-04-19T14:04:49.769Z</time></trkpt><trkpt lat="42.2918522" lon="12.1094691"><ele>462.6666666666667</ele><time>2026-04-19T14:04:50.767Z</time></trkpt><trkpt lat="42.2918149" lon="12.1096776"><ele>463.0</ele><time>2026-04-19T14:04:51.767Z</time></trkpt><trkpt lat="42.2917211" lon="12.1101244"><ele>463.33333333333337</ele><time>2026-04-19T14:04:53.768Z</time></trkpt><trkpt lat="42.2916671" lon="12.1103779"><ele>463.66666666666663</ele><time>2026-04-19T14:04:54.769Z</time></trkpt><trkpt lat="42.2916085" lon="12.1106567"><ele>464.0</ele><time>2026-04-19T14:04:55.767Z</time></trkpt><trkpt lat="42.2915496" lon="12.1109658"><ele>464.0</ele><time>2026-04-19T14:04:56.769Z</time></trkpt><trkpt lat="42.2914781" lon="12.1112829"><ele>464.0</ele><time>2026-04-19T14:04:57.769Z</time></trkpt><trkpt lat="42.2914054" lon="12.1116138"><ele>463.5</ele><time>2026-04-19T14:04:58.769Z</time></trkpt><trkpt lat="42.2913286" lon="12.1119645"><ele>463.0</ele><time>2026-04-19T14:04:59.769Z</time></trkpt><trkpt lat="42.2912554" lon="12.1123236"><ele>463.5</ele><time>2026-04-19T14:05:00.769Z</time></trkpt><trkpt lat="42.2911839" lon="12.1126918"><ele>464.0</ele><time>2026-04-19T14:05:01.769Z</time></trkpt><trkpt lat="42.2911085" lon="12.1130516"><ele>464.5</ele><time>2026-04-19T14:05:02.767Z</time></trkpt><trkpt lat="42.2910349" lon="12.1134049"><ele>465.0</ele><time>2026-04-19T14:05:03.768Z</time></trkpt><trkpt lat="42.2909603" lon="12.1137405"><ele>465.0</ele><time>2026-04-19T14:05:04.769Z</time></trkpt><trkpt lat="42.2908899" lon="12.1140666"><ele>465.0</ele><time>2026-04-19T14:05:05.768Z</time></trkpt><trkpt lat="42.2908233" lon="12.1143779"><ele>465.66666666666663</ele><time>2026-04-19T14:05:06.768Z</time></trkpt><trkpt lat="42.2907626" lon="12.1146724"><ele>466.3333333333333</ele><time>2026-04-19T14:05:07.768Z</time></trkpt><trkpt lat="42.2907044" lon="12.1149554"><ele>467.0</ele><time>2026-04-19T14:05:08.768Z</time></trkpt><trkpt lat="42.2906452" lon="12.1152246"><ele>467.0</ele><time>2026-04-19T14:05:09.769Z</time></trkpt><trkpt lat="42.2905866" lon="12.1154878"><ele>467.0</ele><time>2026-04-19T14:05:10.768Z</time></trkpt><trkpt lat="42.2905322" lon="12.1157414"><ele>467.0</ele><time>2026-04-19T14:05:11.768Z</time></trkpt><trkpt lat="42.2904666" lon="12.1160015"><ele>467.0</ele><time>2026-04-19T14:05:12.768Z</time></trkpt><trkpt lat="42.2903962" lon="12.1162629"><ele>467.0</ele><time>2026-04-19T14:05:13.768Z</time></trkpt><trkpt lat="42.2903205" lon="12.1165178"><ele>467.0</ele><time>2026-04-19T14:05:14.768Z</time></trkpt><trkpt lat="42.2902408" lon="12.116787"><ele>467.66666666666663</ele><time>2026-04-19T14:05:15.769Z</time></trkpt><trkpt lat="42.2901562" lon="12.1170551"><ele>468.33333333333337</ele><time>2026-04-19T14:05:16.769Z</time></trkpt><trkpt lat="42.2900636" lon="12.1173438"><ele>469.0</ele><time>2026-04-19T14:05:17.769Z</time></trkpt><trkpt lat="42.2899733" lon="12.117614"><ele>470.0</ele><time>2026-04-19T14:05:18.769Z</time></trkpt><trkpt lat="42.2898797" lon="12.117874"><ele>471.0</ele><time>2026-04-19T14:05:19.769Z</time></trkpt><trkpt lat="42.2897897" lon="12.1181164"><ele>472.0</ele><time>2026-04-19T14:05:20.767Z</time></trkpt><trkpt lat="42.2896973" lon="12.1183657"><ele>472.6666666666667</ele><time>2026-04-19T14:05:21.768Z</time></trkpt><trkpt lat="42.2896035" lon="12.11861"><ele>473.33333333333337</ele><time>2026-04-19T14:05:22.769Z</time></trkpt><trkpt lat="42.2895139" lon="12.1188353"><ele>474.0</ele><time>2026-04-19T14:05:23.769Z</time></trkpt><trkpt lat="42.2894312" lon="12.1190375"><ele>475.0</ele><time>2026-04-19T14:05:24.769Z</time></trkpt><trkpt lat="42.2893463" lon="12.1192392"><ele>476.0</ele><time>2026-04-19T14:05:25.768Z</time></trkpt><trkpt lat="42.2892431" lon="12.1194472"><ele>477.0</ele><time>2026-04-19T14:05:26.768Z</time></trkpt><trkpt lat="42.2891187" lon="12.1196675"><ele>477.0</ele><time>2026-04-19T14:05:27.769Z</time></trkpt><trkpt lat="42.2889804" lon="12.1198945"><ele>477.0</ele><time>2026-04-19T14:05:28.768Z</time></trkpt><trkpt lat="42.2888433" lon="12.120118"><ele>477.0</ele><time>2026-04-19T14:05:29.767Z</time></trkpt><trkpt lat="42.2887117" lon="12.1203356"><ele>476.5</ele><time>2026-04-19T14:05:30.768Z</time></trkpt><trkpt lat="42.2885835" lon="12.1205471"><ele>476.0</ele><time>2026-04-19T14:05:31.769Z</time></trkpt><trkpt lat="42.2883083" lon="12.121002"><ele>476.0</ele><time>2026-04-19T14:05:33.768Z</time></trkpt><trkpt lat="42.2881575" lon="12.1212532"><ele>476.0</ele><time>2026-04-19T14:05:34.769Z</time></trkpt><trkpt lat="42.287997" lon="12.1215156"><ele>476.0</ele><time>2026-04-19T14:05:35.768Z</time></trkpt><trkpt lat="42.2878379" lon="12.1217718"><ele>476.0</ele><time>2026-04-19T14:05:36.769Z</time></trkpt><trkpt lat="42.2876838" lon="12.1220148"><ele>476.0</ele><time>2026-04-19T14:05:37.768Z</time></trkpt><trkpt lat="42.2875264" lon="12.1222451"><ele>476.0</ele><time>2026-04-19T14:05:38.768Z</time></trkpt><trkpt lat="42.2873733" lon="12.1224654"><ele>474.66666666666663</ele><time>2026-04-19T14:05:39.768Z</time></trkpt><trkpt lat="42.2872263" lon="12.1226671"><ele>473.33333333333337</ele><time>2026-04-19T14:05:40.769Z</time></trkpt><trkpt lat="42.2870797" lon="12.1228706"><ele>472.0</ele><time>2026-04-19T14:05:41.769Z</time></trkpt><trkpt lat="42.2869461" lon="12.1230593"><ele>470.6666666666667</ele><time>2026-04-19T14:05:42.768Z</time></trkpt><trkpt lat="42.2868141" lon="12.1232584"><ele>469.33333333333337</ele><time>2026-04-19T14:05:43.768Z</time></trkpt><trkpt lat="42.2866823" lon="12.1234769"><ele>468.0</ele><time>2026-04-19T14:05:44.768Z</time></trkpt><trkpt lat="42.2865564" lon="12.123726"><ele>468.0</ele><time>2026-04-19T14:05:45.769Z</time></trkpt><trkpt lat="42.2864471" lon="12.1239996"><ele>468.0</ele><time>2026-04-19T14:05:46.769Z</time></trkpt><trkpt lat="42.2863555" lon="12.1242968"><ele>469.0</ele><time>2026-04-19T14:05:47.768Z</time></trkpt><trkpt lat="42.2862633" lon="12.1246062"><ele>470.0</ele><time>2026-04-19T14:05:48.769Z</time></trkpt><trkpt lat="42.286164" lon="12.124917"><ele>470.0</ele><time>2026-04-19T14:05:49.769Z</time></trkpt><trkpt lat="42.2860455" lon="12.1252369"><ele>470.0</ele><time>2026-04-19T14:05:50.767Z</time></trkpt><trkpt lat="42.2859188" lon="12.1255614"><ele>469.5</ele><time>2026-04-19T14:05:51.768Z</time></trkpt><trkpt lat="42.2857861" lon="12.1258993"><ele>469.0</ele><time>2026-04-19T14:05:52.769Z</time></trkpt><trkpt lat="42.2856462" lon="12.1262388"><ele>470.0</ele><time>2026-04-19T14:05:53.768Z</time></trkpt><trkpt lat="42.2855084" lon="12.1265739"><ele>471.0</ele><time>2026-04-19T14:05:54.768Z</time></trkpt><trkpt lat="42.2853717" lon="12.1269045"><ele>471.0</ele><time>2026-04-19T14:05:55.767Z</time></trkpt><trkpt lat="42.2852372" lon="12.1272357"><ele>471.0</ele><time>2026-04-19T14:05:56.768Z</time></trkpt><trkpt lat="42.2850993" lon="12.1275536"><ele>472.0</ele><time>2026-04-19T14:05:57.769Z</time></trkpt><trkpt lat="42.284963" lon="12.1278782"><ele>473.0</ele><time>2026-04-19T14:05:58.769Z</time></trkpt><trkpt lat="42.2848287" lon="12.1281976"><ele>472.0</ele><time>2026-04-19T14:05:59.769Z</time></trkpt><trkpt lat="42.284693" lon="12.1285267"><ele>471.0</ele><time>2026-04-19T14:06:00.769Z</time></trkpt><trkpt lat="42.2845596" lon="12.128853"><ele>471.5</ele><time>2026-04-19T14:06:01.769Z</time></trkpt><trkpt lat="42.2844191" lon="12.1291818"><ele>472.0</ele><time>2026-04-19T14:06:02.768Z</time></trkpt><trkpt lat="42.2842801" lon="12.1295121"><ele>472.0</ele><time>2026-04-19T14:06:03.769Z</time></trkpt><trkpt lat="42.2841438" lon="12.1298398"><ele>472.0</ele><time>2026-04-19T14:06:04.769Z</time></trkpt><trkpt lat="42.2840112" lon="12.1301648"><ele>473.5</ele><time>2026-04-19T14:06:05.768Z</time></trkpt><trkpt lat="42.2838737" lon="12.1304909"><ele>475.0</ele><time>2026-04-19T14:06:06.768Z</time></trkpt><trkpt lat="42.2837409" lon="12.1308138"><ele>475.5</ele><time>2026-04-19T14:06:07.769Z</time></trkpt><trkpt lat="42.2836101" lon="12.1311217"><ele>476.0</ele><time>2026-04-19T14:06:08.769Z</time></trkpt><trkpt lat="42.2834854" lon="12.1314247"><ele>478.0</ele><time>2026-04-19T14:06:09.769Z</time></trkpt><trkpt lat="42.2833699" lon="12.1317097"><ele>480.0</ele><time>2026-04-19T14:06:10.768Z</time></trkpt><trkpt lat="42.2832599" lon="12.1319792"><ele>480.0</ele><time>2026-04-19T14:06:11.769Z</time></trkpt><trkpt lat="42.2831565" lon="12.1322382"><ele>480.0</ele><time>2026-04-19T14:06:12.768Z</time></trkpt><trkpt lat="42.2830731" lon="12.1324582"><ele>480.0</ele><time>2026-04-19T14:06:13.768Z</time></trkpt><trkpt lat="42.2829863" lon="12.1326922"><ele>480.33333333333337</ele><time>2026-04-19T14:06:14.768Z</time></trkpt><trkpt lat="42.2829107" lon="12.1329167"><ele>480.6666666666667</ele><time>2026-04-19T14:06:15.768Z</time></trkpt><trkpt lat="42.2828266" lon="12.1331277"><ele>481.0</ele><time>2026-04-19T14:06:16.768Z</time></trkpt><trkpt lat="42.2827492" lon="12.133313"><ele>481.5</ele><time>2026-04-19T14:06:17.769Z</time></trkpt><trkpt lat="42.2826729" lon="12.1334705"><ele>482.0</ele><time>2026-04-19T14:06:18.769Z</time></trkpt><trkpt lat="42.2825863" lon="12.1336024"><ele>482.5</ele><time>2026-04-19T14:06:19.768Z</time></trkpt><trkpt lat="42.282498" lon="12.1337032"><ele>483.0</ele><time>2026-04-19T14:06:20.769Z</time></trkpt><trkpt lat="42.2824208" lon="12.1337899"><ele>483.0</ele><time>2026-04-19T14:06:21.768Z</time></trkpt><trkpt lat="42.2823689" lon="12.133899"><ele>482.99999999999994</ele><time>2026-04-19T14:06:22.768Z</time></trkpt><trkpt lat="42.2823335" lon="12.1340036"><ele>482.99999999999994</ele><time>2026-04-19T14:06:23.769Z</time></trkpt><trkpt lat="42.2823315" lon="12.1341381"><ele>483.0</ele><time>2026-04-19T14:06:24.769Z</time></trkpt><trkpt lat="42.2822892" lon="12.1343016"><ele>483.0</ele><time>2026-04-19T14:06:25.768Z</time></trkpt><trkpt lat="42.2822318" lon="12.13449"><ele>483.33333333333337</ele><time>2026-04-19T14:06:26.769Z</time></trkpt><trkpt lat="42.2821504" lon="12.1346773"><ele>483.6666666666667</ele><time>2026-04-19T14:06:27.769Z</time></trkpt><trkpt lat="42.2820534" lon="12.1348913"><ele>484.0</ele><time>2026-04-19T14:06:28.767Z</time></trkpt><trkpt lat="42.2819646" lon="12.1350987"><ele>484.0</ele><time>2026-04-19T14:06:29.767Z</time></trkpt><trkpt lat="42.2818741" lon="12.1352872"><ele>484.0</ele><time>2026-04-19T14:06:30.769Z</time></trkpt><trkpt lat="42.28178" lon="12.1354885"><ele>484.0</ele><time>2026-04-19T14:06:31.768Z</time></trkpt><trkpt lat="42.2816858" lon="12.1356984"><ele>484.0</ele><time>2026-04-19T14:06:32.769Z</time></trkpt><trkpt lat="42.2815826" lon="12.1359279"><ele>484.0</ele><time>2026-04-19T14:06:33.768Z</time></trkpt><trkpt lat="42.2814592" lon="12.1361589"><ele>484.0</ele><time>2026-04-19T14:06:34.767Z</time></trkpt><trkpt lat="42.2813359" lon="12.1364027"><ele>480.0</ele><time>2026-04-19T14:06:35.769Z</time></trkpt><trkpt lat="42.2811894" lon="12.1366565"><ele>476.0</ele><time>2026-04-19T14:06:36.769Z</time></trkpt><trkpt lat="42.2810333" lon="12.136919"><ele>476.0</ele><time>2026-04-19T14:06:37.767Z</time></trkpt><trkpt lat="42.2808642" lon="12.1371749"><ele>476.0</ele><time>2026-04-19T14:06:38.768Z</time></trkpt><trkpt lat="42.2806879" lon="12.1374234"><ele>472.0</ele><time>2026-04-19T14:06:39.768Z</time></trkpt><trkpt lat="42.2805025" lon="12.1376679"><ele>468.0</ele><time>2026-04-19T14:06:40.768Z</time></trkpt><trkpt lat="42.2803108" lon="12.1379149"><ele>468.0</ele><time>2026-04-19T14:06:41.768Z</time></trkpt><trkpt lat="42.2801222" lon="12.1381643"><ele>468.0</ele><time>2026-04-19T14:06:42.768Z</time></trkpt><trkpt lat="42.2799297" lon="12.1384093"><ele>466.5</ele><time>2026-04-19T14:06:43.769Z</time></trkpt><trkpt lat="42.2797346" lon="12.1386524"><ele>465.0</ele><time>2026-04-19T14:06:44.769Z</time></trkpt><trkpt lat="42.2795345" lon="12.1388923"><ele>465.0</ele><time>2026-04-19T14:06:45.768Z</time></trkpt><trkpt lat="42.2793429" lon="12.139121"><ele>465.0</ele><time>2026-04-19T14:06:46.769Z</time></trkpt><trkpt lat="42.2791558" lon="12.1393433"><ele>465.0</ele><time>2026-04-19T14:06:47.768Z</time></trkpt><trkpt lat="42.2789767" lon="12.1395582"><ele>465.0</ele><time>2026-04-19T14:06:48.767Z</time></trkpt><trkpt lat="42.2788062" lon="12.1397642"><ele>463.66666666666663</ele><time>2026-04-19T14:06:49.768Z</time></trkpt><trkpt lat="42.2786397" lon="12.139962"><ele>462.3333333333333</ele><time>2026-04-19T14:06:50.769Z</time></trkpt><trkpt lat="42.2784774" lon="12.1401617"><ele>461.0</ele><time>2026-04-19T14:06:51.769Z</time></trkpt><trkpt lat="42.2783109" lon="12.1403546"><ele>461.0</ele><time>2026-04-19T14:06:52.769Z</time></trkpt><trkpt lat="42.2781449" lon="12.1405417"><ele>461.0</ele><time>2026-04-19T14:06:53.769Z</time></trkpt><trkpt lat="42.2779714" lon="12.1407103"><ele>461.0</ele><time>2026-04-19T14:06:54.768Z</time></trkpt><trkpt lat="42.2777891" lon="12.140859"><ele>463.3333333333333</ele><time>2026-04-19T14:06:55.768Z</time></trkpt><trkpt lat="42.2776057" lon="12.1409944"><ele>465.66666666666663</ele><time>2026-04-19T14:06:56.769Z</time></trkpt><trkpt lat="42.2774154" lon="12.1411267"><ele>468.0</ele><time>2026-04-19T14:06:57.768Z</time></trkpt><trkpt lat="42.2772159" lon="12.1412597"><ele>468.66666666666663</ele><time>2026-04-19T14:06:58.769Z</time></trkpt><trkpt lat="42.2770183" lon="12.1413932"><ele>469.3333333333333</ele><time>2026-04-19T14:06:59.768Z</time></trkpt><trkpt lat="42.276821" lon="12.1415212"><ele>470.0</ele><time>2026-04-19T14:07:00.769Z</time></trkpt><trkpt lat="42.2766259" lon="12.1416471"><ele>469.66666666666663</ele><time>2026-04-19T14:07:01.769Z</time></trkpt><trkpt lat="42.2764335" lon="12.1417752"><ele>469.33333333333337</ele><time>2026-04-19T14:07:02.768Z</time></trkpt><trkpt lat="42.2762445" lon="12.1419017"><ele>469.0</ele><time>2026-04-19T14:07:03.768Z</time></trkpt><trkpt lat="42.2760542" lon="12.1420396"><ele>469.0</ele><time>2026-04-19T14:07:04.769Z</time></trkpt><trkpt lat="42.2758666" lon="12.1421814"><ele>469.0</ele><time>2026-04-19T14:07:05.769Z</time></trkpt><trkpt lat="42.2756826" lon="12.1423287"><ele>469.0</ele><time>2026-04-19T14:07:06.769Z</time></trkpt><trkpt lat="42.2754968" lon="12.1424908"><ele>466.5</ele><time>2026-04-19T14:07:07.768Z</time></trkpt><trkpt lat="42.275307" lon="12.1426704"><ele>464.0</ele><time>2026-04-19T14:07:08.768Z</time></trkpt><trkpt lat="42.2751169" lon="12.1428513"><ele>464.0</ele><time>2026-04-19T14:07:09.769Z</time></trkpt><trkpt lat="42.2749351" lon="12.1430332"><ele>464.0</ele><time>2026-04-19T14:07:10.768Z</time></trkpt><trkpt lat="42.2747606" lon="12.143219"><ele>464.0</ele><time>2026-04-19T14:07:11.769Z</time></trkpt><trkpt lat="42.2746032" lon="12.143402"><ele>463.66666666666663</ele><time>2026-04-19T14:07:12.768Z</time></trkpt><trkpt lat="42.2744527" lon="12.1436002"><ele>463.33333333333337</ele><time>2026-04-19T14:07:13.768Z</time></trkpt><trkpt lat="42.2743146" lon="12.1437961"><ele>463.0</ele><time>2026-04-19T14:07:14.769Z</time></trkpt><trkpt lat="42.2741812" lon="12.143998"><ele>463.6666666666667</ele><time>2026-04-19T14:07:15.769Z</time></trkpt><trkpt lat="42.2740448" lon="12.1442024"><ele>464.33333333333337</ele><time>2026-04-19T14:07:16.769Z</time></trkpt><trkpt lat="42.2739092" lon="12.1444169"><ele>465.0</ele><time>2026-04-19T14:07:17.769Z</time></trkpt><trkpt lat="42.2737683" lon="12.144653"><ele>465.0</ele><time>2026-04-19T14:07:18.769Z</time></trkpt><trkpt lat="42.2736294" lon="12.1448768"><ele>465.0</ele><time>2026-04-19T14:07:19.768Z</time></trkpt><trkpt lat="42.2734895" lon="12.145108"><ele>465.0</ele><time>2026-04-19T14:07:20.768Z</time></trkpt><trkpt lat="42.2733523" lon="12.1453341"><ele>463.66666666666663</ele><time>2026-04-19T14:07:21.768Z</time></trkpt><trkpt lat="42.2732204" lon="12.1455495"><ele>462.3333333333333</ele><time>2026-04-19T14:07:22.768Z</time></trkpt><trkpt lat="42.2730943" lon="12.1457535"><ele>461.0</ele><time>2026-04-19T14:07:23.768Z</time></trkpt><trkpt lat="42.2729679" lon="12.1459551"><ele>458.3333333333333</ele><time>2026-04-19T14:07:24.769Z</time></trkpt><trkpt lat="42.2728435" lon="12.1461468"><ele>455.66666666666663</ele><time>2026-04-19T14:07:25.768Z</time></trkpt><trkpt lat="42.2727221" lon="12.1463359"><ele>453.0</ele><time>2026-04-19T14:07:26.769Z</time></trkpt><trkpt lat="42.2726019" lon="12.146524"><ele>453.66666666666663</ele><time>2026-04-19T14:07:27.769Z</time></trkpt><trkpt lat="42.2724816" lon="12.1467156"><ele>454.3333333333333</ele><time>2026-04-19T14:07:28.769Z</time></trkpt><trkpt lat="42.272365" lon="12.1469052"><ele>455.0</ele><time>2026-04-19T14:07:29.769Z</time></trkpt><trkpt lat="42.2722483" lon="12.147095"><ele>455.0</ele><time>2026-04-19T14:07:30.769Z</time></trkpt><trkpt lat="42.2721349" lon="12.1472769"><ele>455.0</ele><time>2026-04-19T14:07:31.768Z</time></trkpt><trkpt lat="42.2720252" lon="12.1474511"><ele>455.0</ele><time>2026-04-19T14:07:32.768Z</time></trkpt><trkpt lat="42.2719124" lon="12.1476276"><ele>457.3333333333333</ele><time>2026-04-19T14:07:33.769Z</time></trkpt><trkpt lat="42.2717899" lon="12.1478094"><ele>459.66666666666663</ele><time>2026-04-19T14:07:34.769Z</time></trkpt><trkpt lat="42.271666" lon="12.1479878"><ele>462.0</ele><time>2026-04-19T14:07:35.769Z</time></trkpt><trkpt lat="42.2715399" lon="12.1481564"><ele>462.33333333333337</ele><time>2026-04-19T14:07:36.768Z</time></trkpt><trkpt lat="42.2714034" lon="12.1483285"><ele>462.6666666666667</ele><time>2026-04-19T14:07:37.767Z</time></trkpt><trkpt lat="42.2712627" lon="12.1484919"><ele>463.0</ele><time>2026-04-19T14:07:38.767Z</time></trkpt><trkpt lat="42.2711163" lon="12.1486475"><ele>463.0</ele><time>2026-04-19T14:07:39.769Z</time></trkpt><trkpt lat="42.2709694" lon="12.1487958"><ele>463.0</ele><time>2026-04-19T14:07:40.768Z</time></trkpt><trkpt lat="42.2708232" lon="12.1489354"><ele>463.0</ele><time>2026-04-19T14:07:41.768Z</time></trkpt><trkpt lat="42.270679" lon="12.1490756"><ele>461.6666666666667</ele><time>2026-04-19T14:07:42.767Z</time></trkpt><trkpt lat="42.2705388" lon="12.1492177"><ele>460.33333333333337</ele><time>2026-04-19T14:07:43.768Z</time></trkpt><trkpt lat="42.2703983" lon="12.149369"><ele>459.0</ele><time>2026-04-19T14:07:44.767Z</time></trkpt><trkpt lat="42.2702624" lon="12.1495231"><ele>459.0</ele><time>2026-04-19T14:07:45.769Z</time></trkpt><trkpt lat="42.2701257" lon="12.1496713"><ele>459.0</ele><time>2026-04-19T14:07:46.769Z</time></trkpt><trkpt lat="42.2699935" lon="12.1498163"><ele>459.0</ele><time>2026-04-19T14:07:47.768Z</time></trkpt><trkpt lat="42.2698635" lon="12.1499618"><ele>458.0</ele><time>2026-04-19T14:07:48.768Z</time></trkpt><trkpt lat="42.2697427" lon="12.1501084"><ele>457.0</ele><time>2026-04-19T14:07:49.768Z</time></trkpt><trkpt lat="42.2696238" lon="12.1502453"><ele>456.0</ele><time>2026-04-19T14:07:50.768Z</time></trkpt><trkpt lat="42.2695152" lon="12.1503766"><ele>456.0</ele><time>2026-04-19T14:07:51.767Z</time></trkpt><trkpt lat="42.269418" lon="12.1505119"><ele>456.0</ele><time>2026-04-19T14:07:52.768Z</time></trkpt><trkpt lat="42.2693331" lon="12.1506509"><ele>456.0</ele><time>2026-04-19T14:07:53.768Z</time></trkpt><trkpt lat="42.2692633" lon="12.150791"><ele>456.0</ele><time>2026-04-19T14:07:54.768Z</time></trkpt><trkpt lat="42.2692032" lon="12.150952"><ele>457.25</ele><time>2026-04-19T14:07:55.768Z</time></trkpt><trkpt lat="42.2691524" lon="12.1511139"><ele>458.5</ele><time>2026-04-19T14:07:56.769Z</time></trkpt><trkpt lat="42.269107" lon="12.1512743"><ele>459.75</ele><time>2026-04-19T14:07:57.769Z</time></trkpt><trkpt lat="42.2690541" lon="12.1514518"><ele>461.0</ele><time>2026-04-19T14:07:58.768Z</time></trkpt><trkpt lat="42.2689973" lon="12.1516189"><ele>460.0</ele><time>2026-04-19T14:07:59.768Z</time></trkpt><trkpt lat="42.2689334" lon="12.1517728"><ele>459.0</ele><time>2026-04-19T14:08:00.768Z</time></trkpt><trkpt lat="42.2688528" lon="12.1519295"><ele>458.0</ele><time>2026-04-19T14:08:01.768Z</time></trkpt><trkpt lat="42.268762" lon="12.1520894"><ele>457.0</ele><time>2026-04-19T14:08:02.769Z</time></trkpt><trkpt lat="42.2686593" lon="12.1522657"><ele>456.6666666666667</ele><time>2026-04-19T14:08:03.767Z</time></trkpt><trkpt lat="42.268548" lon="12.1524467"><ele>456.33333333333337</ele><time>2026-04-19T14:08:04.768Z</time></trkpt><trkpt lat="42.2684307" lon="12.1526314"><ele>456.0</ele><time>2026-04-19T14:08:05.768Z</time></trkpt><trkpt lat="42.2683075" lon="12.1528194"><ele>456.0</ele><time>2026-04-19T14:08:06.768Z</time></trkpt><trkpt lat="42.268173" lon="12.1530012"><ele>456.0</ele><time>2026-04-19T14:08:07.769Z</time></trkpt><trkpt lat="42.2680329" lon="12.1531812"><ele>456.0</ele><time>2026-04-19T14:08:08.769Z</time></trkpt><trkpt lat="42.2678866" lon="12.1533524"><ele>454.33333333333337</ele><time>2026-04-19T14:08:09.769Z</time></trkpt><trkpt lat="42.2677454" lon="12.1535085"><ele>452.6666666666667</ele><time>2026-04-19T14:08:10.767Z</time></trkpt><trkpt lat="42.2676094" lon="12.153652"><ele>451.0</ele><time>2026-04-19T14:08:11.768Z</time></trkpt><trkpt lat="42.2674692" lon="12.15379"><ele>451.0</ele><time>2026-04-19T14:08:12.768Z</time></trkpt><trkpt lat="42.2673318" lon="12.1539208"><ele>451.0</ele><time>2026-04-19T14:08:13.768Z</time></trkpt><trkpt lat="42.267188" lon="12.1540492"><ele>451.0</ele><time>2026-04-19T14:08:14.768Z</time></trkpt><trkpt lat="42.267031" lon="12.154203"><ele>450.6666666666667</ele><time>2026-04-19T14:08:15.767Z</time></trkpt><trkpt lat="42.2668719" lon="12.1543855"><ele>450.33333333333337</ele><time>2026-04-19T14:08:16.769Z</time></trkpt><trkpt lat="42.2666998" lon="12.1545928"><ele>450.0</ele><time>2026-04-19T14:08:17.768Z</time></trkpt><trkpt lat="42.2665188" lon="12.1548065"><ele>448.0</ele><time>2026-04-19T14:08:18.769Z</time></trkpt><trkpt lat="42.2663248" lon="12.1550369"><ele>446.0</ele><time>2026-04-19T14:08:19.769Z</time></trkpt><trkpt lat="42.2661156" lon="12.1552786"><ele>446.0</ele><time>2026-04-19T14:08:20.768Z</time></trkpt><trkpt lat="42.2658949" lon="12.1555166"><ele>446.0</ele><time>2026-04-19T14:08:21.769Z</time></trkpt><trkpt lat="42.2656644" lon="12.1557659"><ele>442.5</ele><time>2026-04-19T14:08:22.768Z</time></trkpt><trkpt lat="42.2654376" lon="12.156006"><ele>439.0</ele><time>2026-04-19T14:08:23.768Z</time></trkpt><trkpt lat="42.2652159" lon="12.1562475"><ele>439.0</ele><time>2026-04-19T14:08:24.769Z</time></trkpt><trkpt lat="42.2650081" lon="12.1564737"><ele>439.0</ele><time>2026-04-19T14:08:25.769Z</time></trkpt><trkpt lat="42.2648071" lon="12.1567001"><ele>436.5</ele><time>2026-04-19T14:08:26.769Z</time></trkpt><trkpt lat="42.2646118" lon="12.1569246"><ele>434.0</ele><time>2026-04-19T14:08:27.768Z</time></trkpt><trkpt lat="42.2644251" lon="12.1571456"><ele>434.0</ele><time>2026-04-19T14:08:28.769Z</time></trkpt><trkpt lat="42.2642503" lon="12.1573548"><ele>434.0</ele><time>2026-04-19T14:08:29.769Z</time></trkpt><trkpt lat="42.264078" lon="12.1575546"><ele>433.66666666666663</ele><time>2026-04-19T14:08:30.768Z</time></trkpt><trkpt lat="42.2639032" lon="12.1577433"><ele>433.33333333333337</ele><time>2026-04-19T14:08:31.769Z</time></trkpt><trkpt lat="42.2637339" lon="12.1579102"><ele>433.0</ele><time>2026-04-19T14:08:32.769Z</time></trkpt><trkpt lat="42.2635602" lon="12.158069"><ele>432.6666666666667</ele><time>2026-04-19T14:08:33.769Z</time></trkpt><trkpt lat="42.26339" lon="12.1582115"><ele>432.33333333333337</ele><time>2026-04-19T14:08:34.769Z</time></trkpt><trkpt lat="42.2632285" lon="12.1583512"><ele>432.0</ele><time>2026-04-19T14:08:35.767Z</time></trkpt><trkpt lat="42.2630769" lon="12.1585046"><ele>431.0</ele><time>2026-04-19T14:08:36.767Z</time></trkpt><trkpt lat="42.2629358" lon="12.1586846"><ele>430.0</ele><time>2026-04-19T14:08:37.768Z</time></trkpt><trkpt lat="42.2628085" lon="12.1588945"><ele>429.0</ele><time>2026-04-19T14:08:38.768Z</time></trkpt><trkpt lat="42.2627023" lon="12.159121"><ele>429.0</ele><time>2026-04-19T14:08:39.768Z</time></trkpt><trkpt lat="42.2625959" lon="12.1593686"><ele>429.0</ele><time>2026-04-19T14:08:40.768Z</time></trkpt><trkpt lat="42.2625036" lon="12.1596142"><ele>429.0</ele><time>2026-04-19T14:08:41.769Z</time></trkpt><trkpt lat="42.2624218" lon="12.1598506"><ele>427.33333333333337</ele><time>2026-04-19T14:08:42.769Z</time></trkpt><trkpt lat="42.2623323" lon="12.1601046"><ele>425.6666666666667</ele><time>2026-04-19T14:08:43.769Z</time></trkpt><trkpt lat="42.2622449" lon="12.1603578"><ele>424.0</ele><time>2026-04-19T14:08:44.769Z</time></trkpt><trkpt lat="42.2621536" lon="12.1605929"><ele>424.0</ele><time>2026-04-19T14:08:45.769Z</time></trkpt><trkpt lat="42.2620613" lon="12.1608192"><ele>424.0</ele><time>2026-04-19T14:08:46.769Z</time></trkpt><trkpt lat="42.261957" lon="12.1610507"><ele>424.0</ele><time>2026-04-19T14:08:47.769Z</time></trkpt><trkpt lat="42.2618493" lon="12.1612742"><ele>424.0</ele><time>2026-04-19T14:08:48.769Z</time></trkpt><trkpt lat="42.2617304" lon="12.1615009"><ele>424.0</ele><time>2026-04-19T14:08:49.768Z</time></trkpt><trkpt lat="42.2616133" lon="12.1617344"><ele>424.0</ele><time>2026-04-19T14:08:50.769Z</time></trkpt><trkpt lat="42.2615032" lon="12.161972"><ele>422.0</ele><time>2026-04-19T14:08:51.768Z</time></trkpt><trkpt lat="42.2613998" lon="12.1622103"><ele>420.0</ele><time>2026-04-19T14:08:52.769Z</time></trkpt><trkpt lat="42.2613062" lon="12.162442"><ele>418.0</ele><time>2026-04-19T14:08:53.768Z</time></trkpt><trkpt lat="42.2612144" lon="12.16267"><ele>417.6666666666667</ele><time>2026-04-19T14:08:54.768Z</time></trkpt><trkpt lat="42.2611263" lon="12.1628954"><ele>417.33333333333337</ele><time>2026-04-19T14:08:55.769Z</time></trkpt><trkpt lat="42.2610283" lon="12.1631153"><ele>417.0</ele><time>2026-04-19T14:08:56.767Z</time></trkpt><trkpt lat="42.260929" lon="12.1633374"><ele>416.0</ele><time>2026-04-19T14:08:57.768Z</time></trkpt><trkpt lat="42.2608266" lon="12.1635645"><ele>415.0</ele><time>2026-04-19T14:08:58.768Z</time></trkpt><trkpt lat="42.2607291" lon="12.163792"><ele>414.0</ele><time>2026-04-19T14:08:59.769Z</time></trkpt><trkpt lat="42.2606324" lon="12.1640262"><ele>413.0</ele><time>2026-04-19T14:09:00.768Z</time></trkpt><trkpt lat="42.2605432" lon="12.1642474"><ele>412.0</ele><time>2026-04-19T14:09:01.769Z</time></trkpt><trkpt lat="42.2604591" lon="12.1644615"><ele>411.0</ele><time>2026-04-19T14:09:02.769Z</time></trkpt><trkpt lat="42.2603885" lon="12.1646899"><ele>410.33333333333337</ele><time>2026-04-19T14:09:03.769Z</time></trkpt><trkpt lat="42.2603433" lon="12.1649209"><ele>409.6666666666667</ele><time>2026-04-19T14:09:04.768Z</time></trkpt><trkpt lat="42.2603156" lon="12.1651614"><ele>409.0</ele><time>2026-04-19T14:09:05.768Z</time></trkpt><trkpt lat="42.2603085" lon="12.1654102"><ele>409.0</ele><time>2026-04-19T14:09:06.768Z</time></trkpt><trkpt lat="42.2603375" lon="12.1656749"><ele>409.0</ele><time>2026-04-19T14:09:07.768Z</time></trkpt><trkpt lat="42.2603879" lon="12.1659142"><ele>409.0</ele><time>2026-04-19T14:09:08.768Z</time></trkpt><trkpt lat="42.2604447" lon="12.1661527"><ele>408.33333333333337</ele><time>2026-04-19T14:09:09.768Z</time></trkpt><trkpt lat="42.2605073" lon="12.1663702"><ele>407.66666666666663</ele><time>2026-04-19T14:09:10.768Z</time></trkpt><trkpt lat="42.2605629" lon="12.1665713"><ele>407.0</ele><time>2026-04-19T14:09:11.768Z</time></trkpt><trkpt lat="42.2605892" lon="12.1667602"><ele>406.25</ele><time>2026-04-19T14:09:12.769Z</time></trkpt><trkpt lat="42.2605783" lon="12.1669315"><ele>405.5</ele><time>2026-04-19T14:09:13.768Z</time></trkpt><trkpt lat="42.260542" lon="12.1670657"><ele>404.75</ele><time>2026-04-19T14:09:14.769Z</time></trkpt><trkpt lat="42.260457" lon="12.1672058"><ele>404.0</ele><time>2026-04-19T14:09:15.768Z</time></trkpt><trkpt lat="42.2603535" lon="12.1673392"><ele>404.66666666666663</ele><time>2026-04-19T14:09:16.769Z</time></trkpt><trkpt lat="42.2602282" lon="12.1674795"><ele>405.33333333333337</ele><time>2026-04-19T14:09:17.769Z</time></trkpt><trkpt lat="42.260102" lon="12.1676064"><ele>406.0</ele><time>2026-04-19T14:09:18.769Z</time></trkpt><trkpt lat="42.2599709" lon="12.1677237"><ele>406.0</ele><time>2026-04-19T14:09:19.769Z</time></trkpt><trkpt lat="42.2598407" lon="12.1678299"><ele>406.0</ele><time>2026-04-19T14:09:20.768Z</time></trkpt><trkpt lat="42.2597135" lon="12.1679423"><ele>406.0</ele><time>2026-04-19T14:09:21.769Z</time></trkpt><trkpt lat="42.2596033" lon="12.1680697"><ele>406.0</ele><time>2026-04-19T14:09:22.769Z</time></trkpt><trkpt lat="42.2595067" lon="12.1682145"><ele>405.0</ele><time>2026-04-19T14:09:23.768Z</time></trkpt><trkpt lat="42.2594276" lon="12.1683779"><ele>404.0</ele><time>2026-04-19T14:09:24.768Z</time></trkpt><trkpt lat="42.2593615" lon="12.1685368"><ele>403.0</ele><time>2026-04-19T14:09:25.768Z</time></trkpt><trkpt lat="42.2593009" lon="12.1686937"><ele>402.0</ele><time>2026-04-19T14:09:26.768Z</time></trkpt><trkpt lat="42.2592465" lon="12.1688559"><ele>402.0</ele><time>2026-04-19T14:09:27.767Z</time></trkpt><trkpt lat="42.2591931" lon="12.1690149"><ele>402.0</ele><time>2026-04-19T14:09:28.767Z</time></trkpt><trkpt lat="42.2591409" lon="12.1691736"><ele>402.0</ele><time>2026-04-19T14:09:29.768Z</time></trkpt><trkpt lat="42.259095" lon="12.1693355"><ele>402.0</ele><time>2026-04-19T14:09:30.768Z</time></trkpt><trkpt lat="42.2590487" lon="12.1695018"><ele>401.5</ele><time>2026-04-19T14:09:31.768Z</time></trkpt><trkpt lat="42.2590012" lon="12.1696673"><ele>401.0</ele><time>2026-04-19T14:09:32.769Z</time></trkpt><trkpt lat="42.2589576" lon="12.1698482"><ele>400.5</ele><time>2026-04-19T14:09:33.768Z</time></trkpt><trkpt lat="42.2589055" lon="12.1700487"><ele>400.0</ele><time>2026-04-19T14:09:34.768Z</time></trkpt><trkpt lat="42.2588494" lon="12.1702628"><ele>393.6666666666667</ele><time>2026-04-19T14:09:35.769Z</time></trkpt><trkpt lat="42.2587951" lon="12.1704847"><ele>387.33333333333337</ele><time>2026-04-19T14:09:36.769Z</time></trkpt><trkpt lat="42.2587415" lon="12.170744"><ele>381.0</ele><time>2026-04-19T14:09:37.769Z</time></trkpt><trkpt lat="42.258707" lon="12.1709867"><ele>380.6666666666667</ele><time>2026-04-19T14:09:38.768Z</time></trkpt><trkpt lat="42.2586724" lon="12.1712267"><ele>380.33333333333337</ele><time>2026-04-19T14:09:39.769Z</time></trkpt><trkpt lat="42.2586243" lon="12.1714663"><ele>380.0</ele><time>2026-04-19T14:09:40.768Z</time></trkpt><trkpt lat="42.2585739" lon="12.1716822"><ele>380.5</ele><time>2026-04-19T14:09:41.768Z</time></trkpt><trkpt lat="42.258526" lon="12.1718893"><ele>381.0</ele><time>2026-04-19T14:09:42.767Z</time></trkpt><trkpt lat="42.2584804" lon="12.172082"><ele>381.5</ele><time>2026-04-19T14:09:43.769Z</time></trkpt><trkpt lat="42.2584465" lon="12.1722644"><ele>382.0</ele><time>2026-04-19T14:09:44.768Z</time></trkpt><trkpt lat="42.2584071" lon="12.1724552"><ele>383.0</ele><time>2026-04-19T14:09:45.769Z</time></trkpt><trkpt lat="42.2583627" lon="12.1726442"><ele>384.0</ele><time>2026-04-19T14:09:46.768Z</time></trkpt><trkpt lat="42.2583159" lon="12.1728229"><ele>385.0</ele><time>2026-04-19T14:09:47.767Z</time></trkpt><trkpt lat="42.2582644" lon="12.173013"><ele>386.0</ele><time>2026-04-19T14:09:48.768Z</time></trkpt><trkpt lat="42.2582081" lon="12.1731937"><ele>386.75</ele><time>2026-04-19T14:09:49.768Z</time></trkpt><trkpt lat="42.2581574" lon="12.1733655"><ele>387.5</ele><time>2026-04-19T14:09:50.768Z</time></trkpt><trkpt lat="42.2581003" lon="12.1735381"><ele>388.25</ele><time>2026-04-19T14:09:51.768Z</time></trkpt><trkpt lat="42.2580493" lon="12.1736868"><ele>389.0</ele><time>2026-04-19T14:09:52.768Z</time></trkpt><trkpt lat="42.2579965" lon="12.1738516"><ele>387.0</ele><time>2026-04-19T14:09:53.768Z</time></trkpt><trkpt lat="42.2579389" lon="12.1740188"><ele>385.0</ele><time>2026-04-19T14:09:54.769Z</time></trkpt><trkpt lat="42.2578682" lon="12.174207"><ele>383.0</ele><time>2026-04-19T14:09:55.768Z</time></trkpt><trkpt lat="42.2578022" lon="12.1744028"><ele>383.0</ele><time>2026-04-19T14:09:56.769Z</time></trkpt><trkpt lat="42.2577372" lon="12.1745763"><ele>383.0</ele><time>2026-04-19T14:09:57.767Z</time></trkpt><trkpt lat="42.2576733" lon="12.1747472"><ele>383.0</ele><time>2026-04-19T14:09:58.769Z</time></trkpt><trkpt lat="42.257624" lon="12.1748917"><ele>383.0</ele><time>2026-04-19T14:09:59.768Z</time></trkpt><trkpt lat="42.2575763" lon="12.1750423"><ele>383.75</ele><time>2026-04-19T14:10:00.768Z</time></trkpt><trkpt lat="42.2575188" lon="12.1751995"><ele>384.5</ele><time>2026-04-19T14:10:01.768Z</time></trkpt><trkpt lat="42.2574644" lon="12.1753476"><ele>385.25</ele><time>2026-04-19T14:10:02.769Z</time></trkpt><trkpt lat="42.2574186" lon="12.1754773"><ele>386.0</ele><time>2026-04-19T14:10:03.769Z</time></trkpt><trkpt lat="42.2573691" lon="12.1756224"><ele>384.8</ele><time>2026-04-19T14:10:04.769Z</time></trkpt><trkpt lat="42.2573236" lon="12.1757574"><ele>383.6</ele><time>2026-04-19T14:10:05.768Z</time></trkpt><trkpt lat="42.2572815" lon="12.175884"><ele>382.4</ele><time>2026-04-19T14:10:06.768Z</time></trkpt><trkpt lat="42.2572404" lon="12.1759967"><ele>381.2</ele><time>2026-04-19T14:10:07.769Z</time></trkpt><trkpt lat="42.2571982" lon="12.1761154"><ele>380.0</ele><time>2026-04-19T14:10:08.769Z</time></trkpt><trkpt lat="42.2571574" lon="12.1762384"><ele>377.83333333333337</ele><time>2026-04-19T14:10:09.769Z</time></trkpt><trkpt lat="42.2571198" lon="12.1763511"><ele>375.6666666666667</ele><time>2026-04-19T14:10:10.768Z</time></trkpt><trkpt lat="42.2570836" lon="12.1764634"><ele>373.5</ele><time>2026-04-19T14:10:11.768Z</time></trkpt><trkpt lat="42.2570567" lon="12.1765637"><ele>371.3333333333333</ele><time>2026-04-19T14:10:12.768Z</time></trkpt><trkpt lat="42.2570566" lon="12.1766521"><ele>369.16666666666663</ele><time>2026-04-19T14:10:13.767Z</time></trkpt><trkpt lat="42.2571435" lon="12.1767509"><ele>367.0</ele><time>2026-04-19T14:10:15.769Z</time></trkpt><trkpt lat="42.2572686" lon="12.1767203"><ele>367.20000000000005</ele><time>2026-04-19T14:10:17.768Z</time></trkpt><trkpt lat="42.257317" lon="12.1766524"><ele>367.4</ele><time>2026-04-19T14:10:18.769Z</time></trkpt><trkpt lat="42.2573696" lon="12.176564"><ele>367.6</ele><time>2026-04-19T14:10:19.768Z</time></trkpt><trkpt lat="42.2574287" lon="12.1764665"><ele>367.79999999999995</ele><time>2026-04-19T14:10:20.768Z</time></trkpt><trkpt lat="42.2574937" lon="12.1763634"><ele>368.0</ele><time>2026-04-19T14:10:21.769Z</time></trkpt><trkpt lat="42.2575667" lon="12.1762528"><ele>371.0</ele><time>2026-04-19T14:10:22.769Z</time></trkpt><trkpt lat="42.2576455" lon="12.1761336"><ele>374.0</ele><time>2026-04-19T14:10:23.768Z</time></trkpt><trkpt lat="42.2577344" lon="12.1760006"><ele>377.0</ele><time>2026-04-19T14:10:24.769Z</time></trkpt><trkpt lat="42.2578363" lon="12.1758714"><ele>380.0</ele><time>2026-04-19T14:10:25.768Z</time></trkpt><trkpt lat="42.2579523" lon="12.1757528"><ele>381.25</ele><time>2026-04-19T14:10:26.768Z</time></trkpt><trkpt lat="42.2580704" lon="12.1756391"><ele>382.5</ele><time>2026-04-19T14:10:27.769Z</time></trkpt><trkpt lat="42.2581893" lon="12.1755351"><ele>383.75</ele><time>2026-04-19T14:10:28.769Z</time></trkpt><trkpt lat="42.2583083" lon="12.1754391"><ele>385.0</ele><time>2026-04-19T14:10:29.769Z</time></trkpt><trkpt lat="42.2584166" lon="12.175345"><ele>385.0</ele><time>2026-04-19T14:10:30.768Z</time></trkpt><trkpt lat="42.2585215" lon="12.1752596"><ele>385.0</ele><time>2026-04-19T14:10:31.769Z</time></trkpt><trkpt lat="42.2586324" lon="12.175169"><ele>385.0</ele><time>2026-04-19T14:10:32.769Z</time></trkpt><trkpt lat="42.258744" lon="12.1750849"><ele>385.0</ele><time>2026-04-19T14:10:33.768Z</time></trkpt><trkpt lat="42.2588387" lon="12.1749867"><ele>385.0</ele><time>2026-04-19T14:10:34.768Z</time></trkpt><trkpt lat="42.2589281" lon="12.174901"><ele>385.0</ele><time>2026-04-19T14:10:35.768Z</time></trkpt><trkpt lat="42.2590074" lon="12.1747972"><ele>385.0</ele><time>2026-04-19T14:10:36.768Z</time></trkpt><trkpt lat="42.2590939" lon="12.1746955"><ele>385.0</ele><time>2026-04-19T14:10:37.769Z</time></trkpt><trkpt lat="42.2591736" lon="12.1746027"><ele>385.0</ele><time>2026-04-19T14:10:38.768Z</time></trkpt><trkpt lat="42.2592536" lon="12.1745411"><ele>383.6666666666667</ele><time>2026-04-19T14:10:39.768Z</time></trkpt><trkpt lat="42.2593331" lon="12.1745322"><ele>382.33333333333337</ele><time>2026-04-19T14:10:40.768Z</time></trkpt><trkpt lat="42.2594075" lon="12.1745645"><ele>381.0</ele><time>2026-04-19T14:10:41.769Z</time></trkpt><trkpt lat="42.2594585" lon="12.1746326"><ele>379.6666666666667</ele><time>2026-04-19T14:10:42.769Z</time></trkpt><trkpt lat="42.2594829" lon="12.1747391"><ele>378.33333333333337</ele><time>2026-04-19T14:10:43.769Z</time></trkpt><trkpt lat="42.2594805" lon="12.17486"><ele>377.0</ele><time>2026-04-19T14:10:44.767Z</time></trkpt><trkpt lat="42.2594342" lon="12.1749812"><ele>374.75</ele><time>2026-04-19T14:10:45.768Z</time></trkpt><trkpt lat="42.2593507" lon="12.1750937"><ele>372.5</ele><time>2026-04-19T14:10:46.768Z</time></trkpt><trkpt lat="42.2592427" lon="12.1752016"><ele>370.25</ele><time>2026-04-19T14:10:47.769Z</time></trkpt><trkpt lat="42.2591168" lon="12.1753139"><ele>368.0</ele><time>2026-04-19T14:10:48.768Z</time></trkpt><trkpt lat="42.2589881" lon="12.175437"><ele>367.33333333333337</ele><time>2026-04-19T14:10:49.769Z</time></trkpt><trkpt lat="42.2588624" lon="12.1755736"><ele>366.6666666666667</ele><time>2026-04-19T14:10:50.769Z</time></trkpt><trkpt lat="42.2587425" lon="12.1757036"><ele>366.0</ele><time>2026-04-19T14:10:51.768Z</time></trkpt><trkpt lat="42.2586334" lon="12.1758422"><ele>366.0</ele><time>2026-04-19T14:10:52.767Z</time></trkpt><trkpt lat="42.2585261" lon="12.1759829"><ele>366.0</ele><time>2026-04-19T14:10:53.768Z</time></trkpt><trkpt lat="42.2584252" lon="12.1761241"><ele>366.0</ele><time>2026-04-19T14:10:54.767Z</time></trkpt><trkpt lat="42.2583401" lon="12.1762751"><ele>366.0</ele><time>2026-04-19T14:10:55.767Z</time></trkpt><trkpt lat="42.2582667" lon="12.1764394"><ele>365.3333333333333</ele><time>2026-04-19T14:10:56.768Z</time></trkpt><trkpt lat="42.2582134" lon="12.1766162"><ele>364.66666666666663</ele><time>2026-04-19T14:10:57.769Z</time></trkpt><trkpt lat="42.2581547" lon="12.1768376"><ele>364.0</ele><time>2026-04-19T14:10:58.768Z</time></trkpt><trkpt lat="42.258103" lon="12.1770538"><ele>363.0</ele><time>2026-04-19T14:10:59.767Z</time></trkpt><trkpt lat="42.2580478" lon="12.1772845"><ele>362.0</ele><time>2026-04-19T14:11:00.769Z</time></trkpt><trkpt lat="42.2579857" lon="12.1775274"><ele>361.0</ele><time>2026-04-19T14:11:01.769Z</time></trkpt><trkpt lat="42.2579243" lon="12.1777779"><ele>361.0</ele><time>2026-04-19T14:11:02.768Z</time></trkpt><trkpt lat="42.2578651" lon="12.1780412"><ele>361.0</ele><time>2026-04-19T14:11:03.769Z</time></trkpt><trkpt lat="42.2578025" lon="12.1783115"><ele>361.0</ele><time>2026-04-19T14:11:04.769Z</time></trkpt><trkpt lat="42.2577364" lon="12.178589"><ele>358.0</ele><time>2026-04-19T14:11:05.769Z</time></trkpt><trkpt lat="42.2576666" lon="12.1788564"><ele>355.0</ele><time>2026-04-19T14:11:06.768Z</time></trkpt><trkpt lat="42.2576066" lon="12.1791187"><ele>352.0</ele><time>2026-04-19T14:11:07.769Z</time></trkpt><trkpt lat="42.2575456" lon="12.1793725"><ele>350.3333333333333</ele><time>2026-04-19T14:11:08.769Z</time></trkpt><trkpt lat="42.2574819" lon="12.1796096"><ele>348.6666666666667</ele><time>2026-04-19T14:11:09.769Z</time></trkpt><trkpt lat="42.2574109" lon="12.1798436"><ele>347.0</ele><time>2026-04-19T14:11:10.769Z</time></trkpt><trkpt lat="42.2573406" lon="12.1800715"><ele>348.33333333333337</ele><time>2026-04-19T14:11:11.768Z</time></trkpt><trkpt lat="42.2572711" lon="12.1802943"><ele>349.6666666666667</ele><time>2026-04-19T14:11:12.769Z</time></trkpt><trkpt lat="42.2572075" lon="12.1805116"><ele>351.0</ele><time>2026-04-19T14:11:13.768Z</time></trkpt><trkpt lat="42.2571502" lon="12.1807177"><ele>351.0</ele><time>2026-04-19T14:11:14.769Z</time></trkpt><trkpt lat="42.2571015" lon="12.1809184"><ele>351.0</ele><time>2026-04-19T14:11:15.769Z</time></trkpt><trkpt lat="42.2570553" lon="12.1811163"><ele>351.0</ele><time>2026-04-19T14:11:16.769Z</time></trkpt><trkpt lat="42.2570098" lon="12.1813137"><ele>351.0</ele><time>2026-04-19T14:11:17.769Z</time></trkpt><trkpt lat="42.2569655" lon="12.1815055"><ele>351.0</ele><time>2026-04-19T14:11:18.768Z</time></trkpt><trkpt lat="42.2569242" lon="12.1816965"><ele>351.0</ele><time>2026-04-19T14:11:19.769Z</time></trkpt><trkpt lat="42.2568785" lon="12.1818856"><ele>351.0</ele><time>2026-04-19T14:11:20.769Z</time></trkpt><trkpt lat="42.2568318" lon="12.182076"><ele>349.0</ele><time>2026-04-19T14:11:21.768Z</time></trkpt><trkpt lat="42.2567808" lon="12.1822683"><ele>347.0</ele><time>2026-04-19T14:11:22.768Z</time></trkpt><trkpt lat="42.2567272" lon="12.1824716"><ele>345.0</ele><time>2026-04-19T14:11:23.769Z</time></trkpt><trkpt lat="42.256666" lon="12.1826735"><ele>344.6666666666667</ele><time>2026-04-19T14:11:24.769Z</time></trkpt><trkpt lat="42.2565883" lon="12.1828789"><ele>344.33333333333337</ele><time>2026-04-19T14:11:25.768Z</time></trkpt><trkpt lat="42.256495" lon="12.183077"><ele>344.0</ele><time>2026-04-19T14:11:26.769Z</time></trkpt><trkpt lat="42.2564002" lon="12.1832717"><ele>346.6666666666667</ele><time>2026-04-19T14:11:27.769Z</time></trkpt><trkpt lat="42.2563047" lon="12.183467"><ele>349.3333333333333</ele><time>2026-04-19T14:11:28.768Z</time></trkpt><trkpt lat="42.2562047" lon="12.183656"><ele>352.0</ele><time>2026-04-19T14:11:29.768Z</time></trkpt><trkpt lat="42.2561075" lon="12.1838457"><ele>343.3333333333333</ele><time>2026-04-19T14:11:30.768Z</time></trkpt><trkpt lat="42.2560154" lon="12.1840242"><ele>334.6666666666667</ele><time>2026-04-19T14:11:31.769Z</time></trkpt><trkpt lat="42.2559151" lon="12.1841962"><ele>326.0</ele><time>2026-04-19T14:11:32.769Z</time></trkpt><trkpt lat="42.2558079" lon="12.1843561"><ele>326.0</ele><time>2026-04-19T14:11:33.768Z</time></trkpt><trkpt lat="42.2556963" lon="12.1844946"><ele>326.0</ele><time>2026-04-19T14:11:34.769Z</time></trkpt><trkpt lat="42.2555722" lon="12.1846088"><ele>326.0</ele><time>2026-04-19T14:11:35.769Z</time></trkpt><trkpt lat="42.2554453" lon="12.1847085"><ele>326.0</ele><time>2026-04-19T14:11:36.769Z</time></trkpt><trkpt lat="42.2553237" lon="12.1848061"><ele>322.75</ele><time>2026-04-19T14:11:37.769Z</time></trkpt><trkpt lat="42.2552183" lon="12.1849146"><ele>319.5</ele><time>2026-04-19T14:11:38.768Z</time></trkpt><trkpt lat="42.255118" lon="12.1850431"><ele>316.25</ele><time>2026-04-19T14:11:39.767Z</time></trkpt><trkpt lat="42.2550176" lon="12.1851944"><ele>313.0</ele><time>2026-04-19T14:11:40.767Z</time></trkpt><trkpt lat="42.2549261" lon="12.1853684"><ele>313.0</ele><time>2026-04-19T14:11:41.767Z</time></trkpt><trkpt lat="42.2548438" lon="12.185525"><ele>313.0</ele><time>2026-04-19T14:11:42.768Z</time></trkpt><trkpt lat="42.2547601" lon="12.1856944"><ele>313.0</ele><time>2026-04-19T14:11:43.767Z</time></trkpt><trkpt lat="42.254683" lon="12.1858518"><ele>313.0</ele><time>2026-04-19T14:11:44.769Z</time></trkpt><trkpt lat="42.2546081" lon="12.186008"><ele>313.0</ele><time>2026-04-19T14:11:45.769Z</time></trkpt><trkpt lat="42.2545485" lon="12.1861756"><ele>313.0</ele><time>2026-04-19T14:11:46.769Z</time></trkpt><trkpt lat="42.2545093" lon="12.1863574"><ele>313.0</ele><time>2026-04-19T14:11:47.768Z</time></trkpt><trkpt lat="42.2544872" lon="12.186544"><ele>313.0</ele><time>2026-04-19T14:11:48.769Z</time></trkpt><trkpt lat="42.254473" lon="12.1867362"><ele>312.66666666666663</ele><time>2026-04-19T14:11:49.769Z</time></trkpt><trkpt lat="42.2544546" lon="12.1869424"><ele>312.3333333333333</ele><time>2026-04-19T14:11:50.769Z</time></trkpt><trkpt lat="42.2544372" lon="12.1871486"><ele>312.0</ele><time>2026-04-19T14:11:51.769Z</time></trkpt><trkpt lat="42.2544246" lon="12.187364"><ele>313.0</ele><time>2026-04-19T14:11:52.769Z</time></trkpt><trkpt lat="42.2544185" lon="12.1875822"><ele>314.0</ele><time>2026-04-19T14:11:53.769Z</time></trkpt><trkpt lat="42.254407" lon="12.187807"><ele>315.0</ele><time>2026-04-19T14:11:54.769Z</time></trkpt><trkpt lat="42.2543906" lon="12.1880371"><ele>316.0</ele><time>2026-04-19T14:11:55.769Z</time></trkpt><trkpt lat="42.2543582" lon="12.1882709"><ele>317.0</ele><time>2026-04-19T14:11:56.767Z</time></trkpt><trkpt lat="42.2543046" lon="12.1885021"><ele>318.0</ele><time>2026-04-19T14:11:57.768Z</time></trkpt><trkpt lat="42.2542365" lon="12.1887267"><ele>318.0</ele><time>2026-04-19T14:11:58.769Z</time></trkpt><trkpt lat="42.2541469" lon="12.1889425"><ele>318.0</ele><time>2026-04-19T14:11:59.769Z</time></trkpt><trkpt lat="42.2540383" lon="12.1891528"><ele>318.0</ele><time>2026-04-19T14:12:00.769Z</time></trkpt><trkpt lat="42.2539155" lon="12.1893591"><ele>319.3333333333333</ele><time>2026-04-19T14:12:01.769Z</time></trkpt><trkpt lat="42.2537875" lon="12.1895629"><ele>320.66666666666663</ele><time>2026-04-19T14:12:02.768Z</time></trkpt><trkpt lat="42.2536631" lon="12.1897651"><ele>322.0</ele><time>2026-04-19T14:12:03.767Z</time></trkpt><trkpt lat="42.2535408" lon="12.189961"><ele>322.0</ele><time>2026-04-19T14:12:04.767Z</time></trkpt><trkpt lat="42.2534268" lon="12.1901508"><ele>322.0</ele><time>2026-04-19T14:12:05.768Z</time></trkpt><trkpt lat="42.2533247" lon="12.1903498"><ele>322.0</ele><time>2026-04-19T14:12:06.768Z</time></trkpt><trkpt lat="42.2532336" lon="12.1905386"><ele>320.0</ele><time>2026-04-19T14:12:07.768Z</time></trkpt><trkpt lat="42.253148" lon="12.1907255"><ele>318.0</ele><time>2026-04-19T14:12:08.767Z</time></trkpt><trkpt lat="42.2530654" lon="12.1909109"><ele>316.0</ele><time>2026-04-19T14:12:09.769Z</time></trkpt><trkpt lat="42.2529814" lon="12.1910995"><ele>316.0</ele><time>2026-04-19T14:12:10.768Z</time></trkpt><trkpt lat="42.2529025" lon="12.1912802"><ele>316.0</ele><time>2026-04-19T14:12:11.769Z</time></trkpt><trkpt lat="42.2528319" lon="12.1914466"><ele>316.0</ele><time>2026-04-19T14:12:12.768Z</time></trkpt><trkpt lat="42.2527586" lon="12.1916214"><ele>316.0</ele><time>2026-04-19T14:12:13.769Z</time></trkpt><trkpt lat="42.252688" lon="12.1917925"><ele>315.25</ele><time>2026-04-19T14:12:14.769Z</time></trkpt><trkpt lat="42.2526119" lon="12.1919637"><ele>314.5</ele><time>2026-04-19T14:12:15.769Z</time></trkpt><trkpt lat="42.2525391" lon="12.1921361"><ele>313.75</ele><time>2026-04-19T14:12:16.768Z</time></trkpt><trkpt lat="42.2524767" lon="12.1923171"><ele>313.0</ele><time>2026-04-19T14:12:17.769Z</time></trkpt><trkpt lat="42.2524286" lon="12.1924904"><ele>313.0</ele><time>2026-04-19T14:12:18.768Z</time></trkpt><trkpt lat="42.2523937" lon="12.1926718"><ele>313.0</ele><time>2026-04-19T14:12:19.768Z</time></trkpt><trkpt lat="42.252374" lon="12.1928513"><ele>313.0</ele><time>2026-04-19T14:12:20.769Z</time></trkpt><trkpt lat="42.2523709" lon="12.1930274"><ele>313.0</ele><time>2026-04-19T14:12:21.768Z</time></trkpt><trkpt lat="42.2523814" lon="12.1931946"><ele>312.75</ele><time>2026-04-19T14:12:22.768Z</time></trkpt><trkpt lat="42.2524011" lon="12.1933623"><ele>312.5</ele><time>2026-04-19T14:12:23.769Z</time></trkpt><trkpt lat="42.2524224" lon="12.1935309"><ele>312.25</ele><time>2026-04-19T14:12:24.767Z</time></trkpt><trkpt lat="42.2524374" lon="12.1937071"><ele>312.0</ele><time>2026-04-19T14:12:25.768Z</time></trkpt><trkpt lat="42.2524322" lon="12.193876"><ele>312.25</ele><time>2026-04-19T14:12:26.768Z</time></trkpt><trkpt lat="42.252404" lon="12.1940395"><ele>312.5</ele><time>2026-04-19T14:12:27.769Z</time></trkpt><trkpt lat="42.2523575" lon="12.1941968"><ele>312.75</ele><time>2026-04-19T14:12:28.767Z</time></trkpt><trkpt lat="42.2523006" lon="12.194344"><ele>313.0</ele><time>2026-04-19T14:12:29.769Z</time></trkpt><trkpt lat="42.2522329" lon="12.1944759"><ele>313.75</ele><time>2026-04-19T14:12:30.768Z</time></trkpt><trkpt lat="42.2521565" lon="12.1945953"><ele>314.5</ele><time>2026-04-19T14:12:31.769Z</time></trkpt><trkpt lat="42.2520604" lon="12.1946974"><ele>315.25</ele><time>2026-04-19T14:12:32.769Z</time></trkpt><trkpt lat="42.2519491" lon="12.1947743"><ele>316.0</ele><time>2026-04-19T14:12:33.768Z</time></trkpt><trkpt lat="42.2518306" lon="12.1948321"><ele>314.75</ele><time>2026-04-19T14:12:34.769Z</time></trkpt><trkpt lat="42.2517077" lon="12.1948871"><ele>313.5</ele><time>2026-04-19T14:12:35.769Z</time></trkpt><trkpt lat="42.2515849" lon="12.1949492"><ele>312.25</ele><time>2026-04-19T14:12:36.769Z</time></trkpt><trkpt lat="42.2514719" lon="12.195025"><ele>311.0</ele><time>2026-04-19T14:12:37.769Z</time></trkpt><trkpt lat="42.2513757" lon="12.1951487"><ele>309.5</ele><time>2026-04-19T14:12:38.767Z</time></trkpt><trkpt lat="42.2513142" lon="12.195291"><ele>308.0</ele><time>2026-04-19T14:12:39.768Z</time></trkpt><trkpt lat="42.251264" lon="12.1954452"><ele>306.5</ele><time>2026-04-19T14:12:40.768Z</time></trkpt><trkpt lat="42.2512279" lon="12.1956183"><ele>305.0</ele><time>2026-04-19T14:12:41.768Z</time></trkpt><trkpt lat="42.2511095" lon="12.1963358"><ele>303.0</ele><time>2026-04-19T14:12:45.767Z</time></trkpt><trkpt lat="42.2511108" lon="12.1965194"><ele>301.0</ele><time>2026-04-19T14:12:46.768Z</time></trkpt><trkpt lat="42.2511317" lon="12.1966988"><ele>299.0</ele><time>2026-04-19T14:12:47.768Z</time></trkpt><trkpt lat="42.2511687" lon="12.1968758"><ele>297.0</ele><time>2026-04-19T14:12:48.768Z</time></trkpt><trkpt lat="42.2512181" lon="12.1970571"><ele>297.0</ele><time>2026-04-19T14:12:49.768Z</time></trkpt><trkpt lat="42.251255" lon="12.1972518"><ele>297.0</ele><time>2026-04-19T14:12:50.768Z</time></trkpt><trkpt lat="42.251289" lon="12.1974467"><ele>297.0</ele><time>2026-04-19T14:12:51.768Z</time></trkpt><trkpt lat="42.2513136" lon="12.1976512"><ele>296.3333333333333</ele><time>2026-04-19T14:12:52.767Z</time></trkpt><trkpt lat="42.2513158" lon="12.1978599"><ele>295.66666666666663</ele><time>2026-04-19T14:12:53.769Z</time></trkpt><trkpt lat="42.2513026" lon="12.1980696"><ele>295.0</ele><time>2026-04-19T14:12:54.768Z</time></trkpt><trkpt lat="42.2512806" lon="12.1982757"><ele>294.75</ele><time>2026-04-19T14:12:55.769Z</time></trkpt><trkpt lat="42.2512577" lon="12.1984741"><ele>294.5</ele><time>2026-04-19T14:12:56.768Z</time></trkpt><trkpt lat="42.2512337" lon="12.1986669"><ele>294.25</ele><time>2026-04-19T14:12:57.768Z</time></trkpt><trkpt lat="42.2512051" lon="12.198843"><ele>294.0</ele><time>2026-04-19T14:12:58.768Z</time></trkpt><trkpt lat="42.2511671" lon="12.1990076"><ele>294.0</ele><time>2026-04-19T14:12:59.768Z</time></trkpt><trkpt lat="42.251115" lon="12.1991629"><ele>294.0</ele><time>2026-04-19T14:13:00.768Z</time></trkpt><trkpt lat="42.2510508" lon="12.1993072"><ele>294.0</ele><time>2026-04-19T14:13:01.769Z</time></trkpt><trkpt lat="42.2509712" lon="12.1994404"><ele>294.0</ele><time>2026-04-19T14:13:02.768Z</time></trkpt><trkpt lat="42.250878" lon="12.1995657"><ele>294.0</ele><time>2026-04-19T14:13:03.768Z</time></trkpt><trkpt lat="42.2507778" lon="12.1996843"><ele>294.0</ele><time>2026-04-19T14:13:04.769Z</time></trkpt><trkpt lat="42.250676" lon="12.1998038"><ele>294.0</ele><time>2026-04-19T14:13:05.769Z</time></trkpt><trkpt lat="42.2505752" lon="12.1999181"><ele>294.0</ele><time>2026-04-19T14:13:06.769Z</time></trkpt><trkpt lat="42.2504638" lon="12.2000371"><ele>293.25</ele><time>2026-04-19T14:13:07.768Z</time></trkpt><trkpt lat="42.2503494" lon="12.2001608"><ele>292.5</ele><time>2026-04-19T14:13:08.769Z</time></trkpt><trkpt lat="42.2502297" lon="12.2002815"><ele>291.75</ele><time>2026-04-19T14:13:09.769Z</time></trkpt><trkpt lat="42.2501049" lon="12.2004009"><ele>291.0</ele><time>2026-04-19T14:13:10.769Z</time></trkpt><trkpt lat="42.2499791" lon="12.2005269"><ele>291.0</ele><time>2026-04-19T14:13:11.769Z</time></trkpt><trkpt lat="42.2498529" lon="12.2006593"><ele>291.0</ele><time>2026-04-19T14:13:12.769Z</time></trkpt><trkpt lat="42.2497284" lon="12.2007936"><ele>291.0</ele><time>2026-04-19T14:13:13.769Z</time></trkpt><trkpt lat="42.2496063" lon="12.2009284"><ele>289.6666666666667</ele><time>2026-04-19T14:13:14.768Z</time></trkpt><trkpt lat="42.2494823" lon="12.2010669"><ele>288.33333333333337</ele><time>2026-04-19T14:13:15.767Z</time></trkpt><trkpt lat="42.2493554" lon="12.2012071"><ele>287.0</ele><time>2026-04-19T14:13:16.767Z</time></trkpt><trkpt lat="42.249228" lon="12.2013516"><ele>287.33333333333337</ele><time>2026-04-19T14:13:17.769Z</time></trkpt><trkpt lat="42.2490995" lon="12.2015078"><ele>287.6666666666667</ele><time>2026-04-19T14:13:18.768Z</time></trkpt><trkpt lat="42.2489659" lon="12.2016591"><ele>288.0</ele><time>2026-04-19T14:13:19.767Z</time></trkpt><trkpt lat="42.2488324" lon="12.2018105"><ele>289.0</ele><time>2026-04-19T14:13:20.768Z</time></trkpt><trkpt lat="42.2487009" lon="12.2019535"><ele>290.0</ele><time>2026-04-19T14:13:21.769Z</time></trkpt><trkpt lat="42.2485672" lon="12.2021049"><ele>291.0</ele><time>2026-04-19T14:13:22.768Z</time></trkpt><trkpt lat="42.2484381" lon="12.2022552"><ele>290.3333333333333</ele><time>2026-04-19T14:13:23.768Z</time></trkpt><trkpt lat="42.2483125" lon="12.2024007"><ele>289.66666666666663</ele><time>2026-04-19T14:13:24.768Z</time></trkpt><trkpt lat="42.2481927" lon="12.2025412"><ele>289.0</ele><time>2026-04-19T14:13:25.768Z</time></trkpt><trkpt lat="42.2480755" lon="12.2026734"><ele>289.0</ele><time>2026-04-19T14:13:26.768Z</time></trkpt><trkpt lat="42.247958" lon="12.2028053"><ele>289.0</ele><time>2026-04-19T14:13:27.768Z</time></trkpt><trkpt lat="42.2478457" lon="12.2029478"><ele>289.0</ele><time>2026-04-19T14:13:28.769Z</time></trkpt><trkpt lat="42.2477349" lon="12.2030938"><ele>289.3333333333333</ele><time>2026-04-19T14:13:29.769Z</time></trkpt><trkpt lat="42.2476245" lon="12.2032491"><ele>289.6666666666667</ele><time>2026-04-19T14:13:30.769Z</time></trkpt><trkpt lat="42.2475177" lon="12.2034151"><ele>290.0</ele><time>2026-04-19T14:13:31.767Z</time></trkpt><trkpt lat="42.247423" lon="12.2035906"><ele>290.0</ele><time>2026-04-19T14:13:32.767Z</time></trkpt><trkpt lat="42.2473344" lon="12.203776"><ele>290.0</ele><time>2026-04-19T14:13:33.768Z</time></trkpt><trkpt lat="42.2472475" lon="12.2039809"><ele>290.0</ele><time>2026-04-19T14:13:34.768Z</time></trkpt><trkpt lat="42.2471592" lon="12.2041943"><ele>289.33333333333337</ele><time>2026-04-19T14:13:35.769Z</time></trkpt><trkpt lat="42.2470749" lon="12.20441"><ele>288.6666666666667</ele><time>2026-04-19T14:13:36.768Z</time></trkpt><trkpt lat="42.2469982" lon="12.2046183"><ele>288.0</ele><time>2026-04-19T14:13:37.769Z</time></trkpt><trkpt lat="42.2469259" lon="12.2048275"><ele>288.3333333333333</ele><time>2026-04-19T14:13:38.769Z</time></trkpt><trkpt lat="42.2468514" lon="12.205035"><ele>288.66666666666663</ele><time>2026-04-19T14:13:39.769Z</time></trkpt><trkpt lat="42.2467817" lon="12.2052329"><ele>289.0</ele><time>2026-04-19T14:13:40.767Z</time></trkpt><trkpt lat="42.246711" lon="12.2054311"><ele>289.0</ele><time>2026-04-19T14:13:41.769Z</time></trkpt><trkpt lat="42.2466367" lon="12.2056327"><ele>289.0</ele><time>2026-04-19T14:13:42.768Z</time></trkpt><trkpt lat="42.2465708" lon="12.2058327"><ele>289.0</ele><time>2026-04-19T14:13:43.768Z</time></trkpt><trkpt lat="42.2465068" lon="12.2060415"><ele>288.0</ele><time>2026-04-19T14:13:44.767Z</time></trkpt><trkpt lat="42.2464463" lon="12.2062464"><ele>287.0</ele><time>2026-04-19T14:13:45.768Z</time></trkpt><trkpt lat="42.2463865" lon="12.2064535"><ele>286.0</ele><time>2026-04-19T14:13:46.768Z</time></trkpt><trkpt lat="42.2463332" lon="12.2066667"><ele>286.0</ele><time>2026-04-19T14:13:47.767Z</time></trkpt><trkpt lat="42.2462834" lon="12.2068807"><ele>286.0</ele><time>2026-04-19T14:13:48.768Z</time></trkpt><trkpt lat="42.2462355" lon="12.2070925"><ele>286.0</ele><time>2026-04-19T14:13:49.769Z</time></trkpt><trkpt lat="42.2461867" lon="12.2073072"><ele>285.66666666666663</ele><time>2026-04-19T14:13:50.769Z</time></trkpt><trkpt lat="42.2461383" lon="12.2075174"><ele>285.3333333333333</ele><time>2026-04-19T14:13:51.768Z</time></trkpt><trkpt lat="42.2460843" lon="12.2077305"><ele>285.0</ele><time>2026-04-19T14:13:52.768Z</time></trkpt><trkpt lat="42.2460359" lon="12.2079478"><ele>285.6666666666667</ele><time>2026-04-19T14:13:53.768Z</time></trkpt><trkpt lat="42.2459918" lon="12.2081643"><ele>286.33333333333337</ele><time>2026-04-19T14:13:54.767Z</time></trkpt><trkpt lat="42.2459495" lon="12.2083783"><ele>287.0</ele><time>2026-04-19T14:13:55.768Z</time></trkpt><trkpt lat="42.245913" lon="12.2085956"><ele>287.0</ele><time>2026-04-19T14:13:56.768Z</time></trkpt><trkpt lat="42.2458946" lon="12.2088127"><ele>287.0</ele><time>2026-04-19T14:13:57.768Z</time></trkpt><trkpt lat="42.2458785" lon="12.2090309"><ele>287.0</ele><time>2026-04-19T14:13:58.769Z</time></trkpt><trkpt lat="42.2458706" lon="12.2092527"><ele>286.0</ele><time>2026-04-19T14:13:59.769Z</time></trkpt><trkpt lat="42.2458595" lon="12.2094683"><ele>285.0</ele><time>2026-04-19T14:14:00.768Z</time></trkpt><trkpt lat="42.245842" lon="12.2096714"><ele>284.0</ele><time>2026-04-19T14:14:01.769Z</time></trkpt><trkpt lat="42.2458142" lon="12.2098708"><ele>283.25</ele><time>2026-04-19T14:14:02.769Z</time></trkpt><trkpt lat="42.245771" lon="12.2100602"><ele>282.5</ele><time>2026-04-19T14:14:03.767Z</time></trkpt><trkpt lat="42.245714" lon="12.2102455"><ele>281.75</ele><time>2026-04-19T14:14:04.767Z</time></trkpt><trkpt lat="42.2456473" lon="12.210432"><ele>281.0</ele><time>2026-04-19T14:14:05.767Z</time></trkpt><trkpt lat="42.2455703" lon="12.2106186"><ele>280.33333333333337</ele><time>2026-04-19T14:14:06.768Z</time></trkpt><trkpt lat="42.2454888" lon="12.2108063"><ele>279.6666666666667</ele><time>2026-04-19T14:14:07.769Z</time></trkpt><trkpt lat="42.2453953" lon="12.2109883"><ele>279.0</ele><time>2026-04-19T14:14:08.769Z</time></trkpt><trkpt lat="42.2452885" lon="12.2111576"><ele>279.0</ele><time>2026-04-19T14:14:09.767Z</time></trkpt><trkpt lat="42.2451693" lon="12.2113174"><ele>279.0</ele><time>2026-04-19T14:14:10.767Z</time></trkpt><trkpt lat="42.2450477" lon="12.2114726"><ele>279.0</ele><time>2026-04-19T14:14:11.767Z</time></trkpt><trkpt lat="42.2449179" lon="12.2116227"><ele>279.0</ele><time>2026-04-19T14:14:12.768Z</time></trkpt><trkpt lat="42.2447859" lon="12.2117739"><ele>279.0</ele><time>2026-04-19T14:14:13.768Z</time></trkpt><trkpt lat="42.2446537" lon="12.2119217"><ele>279.0</ele><time>2026-04-19T14:14:14.768Z</time></trkpt><trkpt lat="42.2445201" lon="12.2120698"><ele>279.0</ele><time>2026-04-19T14:14:15.769Z</time></trkpt><trkpt lat="42.2443866" lon="12.21222"><ele>279.0</ele><time>2026-04-19T14:14:16.768Z</time></trkpt><trkpt lat="42.2442556" lon="12.2123729"><ele>279.0</ele><time>2026-04-19T14:14:17.769Z</time></trkpt><trkpt lat="42.2441212" lon="12.2125255"><ele>280.6666666666667</ele><time>2026-04-19T14:14:18.769Z</time></trkpt><trkpt lat="42.2439843" lon="12.2126794"><ele>282.33333333333337</ele><time>2026-04-19T14:14:19.769Z</time></trkpt><trkpt lat="42.243851" lon="12.2128299"><ele>284.0</ele><time>2026-04-19T14:14:20.769Z</time></trkpt><trkpt lat="42.2437214" lon="12.2129796"><ele>284.0</ele><time>2026-04-19T14:14:21.769Z</time></trkpt><trkpt lat="42.2435952" lon="12.2131243"><ele>284.0</ele><time>2026-04-19T14:14:22.767Z</time></trkpt><trkpt lat="42.2434701" lon="12.2132688"><ele>284.0</ele><time>2026-04-19T14:14:23.768Z</time></trkpt><trkpt lat="42.2433548" lon="12.2134168"><ele>282.33333333333337</ele><time>2026-04-19T14:14:24.767Z</time></trkpt><trkpt lat="42.2432451" lon="12.2135751"><ele>280.6666666666667</ele><time>2026-04-19T14:14:25.768Z</time></trkpt><trkpt lat="42.2431437" lon="12.2137458"><ele>279.0</ele><time>2026-04-19T14:14:26.768Z</time></trkpt><trkpt lat="42.2430364" lon="12.213925"><ele>278.3333333333333</ele><time>2026-04-19T14:14:27.768Z</time></trkpt><trkpt lat="42.2429347" lon="12.2141018"><ele>277.66666666666663</ele><time>2026-04-19T14:14:28.769Z</time></trkpt><trkpt lat="42.2428455" lon="12.2142763"><ele>277.0</ele><time>2026-04-19T14:14:29.768Z</time></trkpt><trkpt lat="42.2427616" lon="12.2144613"><ele>277.0</ele><time>2026-04-19T14:14:30.767Z</time></trkpt><trkpt lat="42.2426839" lon="12.214646"><ele>277.0</ele><time>2026-04-19T14:14:31.768Z</time></trkpt><trkpt lat="42.2426149" lon="12.214827"><ele>277.0</ele><time>2026-04-19T14:14:32.768Z</time></trkpt><trkpt lat="42.2425517" lon="12.2150037"><ele>276.75</ele><time>2026-04-19T14:14:33.767Z</time></trkpt><trkpt lat="42.2424963" lon="12.2151756"><ele>276.5</ele><time>2026-04-19T14:14:34.767Z</time></trkpt><trkpt lat="42.2424467" lon="12.2153532"><ele>276.25</ele><time>2026-04-19T14:14:35.767Z</time></trkpt><trkpt lat="42.242402" lon="12.2155284"><ele>276.0</ele><time>2026-04-19T14:14:36.768Z</time></trkpt><trkpt lat="42.242364" lon="12.2157127"><ele>277.6666666666667</ele><time>2026-04-19T14:14:37.769Z</time></trkpt><trkpt lat="42.2423256" lon="12.2159022"><ele>279.33333333333337</ele><time>2026-04-19T14:14:38.769Z</time></trkpt><trkpt lat="42.2422888" lon="12.2161048"><ele>281.0</ele><time>2026-04-19T14:14:39.768Z</time></trkpt><trkpt lat="42.2422593" lon="12.2163073"><ele>279.33333333333337</ele><time>2026-04-19T14:14:40.768Z</time></trkpt><trkpt lat="42.2422349" lon="12.2165144"><ele>277.6666666666667</ele><time>2026-04-19T14:14:41.767Z</time></trkpt><trkpt lat="42.2422198" lon="12.2167182"><ele>276.0</ele><time>2026-04-19T14:14:42.769Z</time></trkpt><trkpt lat="42.2422122" lon="12.2169237"><ele>276.0</ele><time>2026-04-19T14:14:43.768Z</time></trkpt><trkpt lat="42.2422056" lon="12.2171343"><ele>276.0</ele><time>2026-04-19T14:14:44.768Z</time></trkpt><trkpt lat="42.2422045" lon="12.2173497"><ele>276.0</ele><time>2026-04-19T14:14:45.769Z</time></trkpt><trkpt lat="42.2422072" lon="12.2175705"><ele>275.6666666666667</ele><time>2026-04-19T14:14:46.768Z</time></trkpt><trkpt lat="42.2422091" lon="12.2177918"><ele>275.33333333333337</ele><time>2026-04-19T14:14:47.769Z</time></trkpt><trkpt lat="42.2422097" lon="12.2180149"><ele>275.0</ele><time>2026-04-19T14:14:48.768Z</time></trkpt><trkpt lat="42.2422081" lon="12.218243"><ele>276.0</ele><time>2026-04-19T14:14:49.769Z</time></trkpt><trkpt lat="42.2422093" lon="12.2184632"><ele>277.0</ele><time>2026-04-19T14:14:50.769Z</time></trkpt><trkpt lat="42.2422013" lon="12.2186867"><ele>278.0</ele><time>2026-04-19T14:14:51.769Z</time></trkpt><trkpt lat="42.242196" lon="12.2189081"><ele>276.6666666666667</ele><time>2026-04-19T14:14:52.769Z</time></trkpt><trkpt lat="42.2421892" lon="12.219122"><ele>275.3333333333333</ele><time>2026-04-19T14:14:53.769Z</time></trkpt><trkpt lat="42.2421806" lon="12.2193347"><ele>274.0</ele><time>2026-04-19T14:14:54.768Z</time></trkpt><trkpt lat="42.2421739" lon="12.2195441"><ele>274.0</ele><time>2026-04-19T14:14:55.768Z</time></trkpt><trkpt lat="42.2421687" lon="12.2197493"><ele>274.0</ele><time>2026-04-19T14:14:56.768Z</time></trkpt><trkpt lat="42.2421641" lon="12.2199445"><ele>274.0</ele><time>2026-04-19T14:14:57.769Z</time></trkpt><trkpt lat="42.2421574" lon="12.2201422"><ele>274.0</ele><time>2026-04-19T14:14:58.769Z</time></trkpt><trkpt lat="42.2421484" lon="12.2203294"><ele>273.5</ele><time>2026-04-19T14:14:59.767Z</time></trkpt><trkpt lat="42.2421403" lon="12.2205095"><ele>273.0</ele><time>2026-04-19T14:15:00.767Z</time></trkpt><trkpt lat="42.2421295" lon="12.2206862"><ele>272.5</ele><time>2026-04-19T14:15:01.768Z</time></trkpt><trkpt lat="42.2421184" lon="12.220856"><ele>272.0</ele><time>2026-04-19T14:15:02.768Z</time></trkpt><trkpt lat="42.2421015" lon="12.2210192"><ele>271.8</ele><time>2026-04-19T14:15:03.769Z</time></trkpt><trkpt lat="42.2420794" lon="12.221175"><ele>271.6</ele><time>2026-04-19T14:15:04.768Z</time></trkpt><trkpt lat="42.2420525" lon="12.221309"><ele>271.40000000000003</ele><time>2026-04-19T14:15:05.768Z</time></trkpt><trkpt lat="42.2420265" lon="12.2214143"><ele>271.2</ele><time>2026-04-19T14:15:06.768Z</time></trkpt><trkpt lat="42.2419978" lon="12.2215156"><ele>271.0</ele><time>2026-04-19T14:15:07.769Z</time></trkpt><trkpt lat="42.2419642" lon="12.2216094"><ele>271.66666666666663</ele><time>2026-04-19T14:15:08.769Z</time></trkpt><trkpt lat="42.241929" lon="12.2216959"><ele>272.3333333333333</ele><time>2026-04-19T14:15:09.768Z</time></trkpt><trkpt lat="42.2418958" lon="12.2217775"><ele>273.0</ele><time>2026-04-19T14:15:10.769Z</time></trkpt><trkpt lat="42.2418558" lon="12.2218566"><ele>273.6666666666667</ele><time>2026-04-19T14:15:11.769Z</time></trkpt><trkpt lat="42.2417979" lon="12.221979"><ele>274.33333333333337</ele><time>2026-04-19T14:15:13.768Z</time></trkpt><trkpt lat="42.2417419" lon="12.2220622"><ele>275.0</ele><time>2026-04-19T14:15:15.769Z</time></trkpt><trkpt lat="42.2416787" lon="12.2221442"><ele>275.0</ele><time>2026-04-19T14:15:37.769Z</time></trkpt><trkpt lat="42.2416077" lon="12.2222834"><ele>275.0</ele><time>2026-04-19T14:15:39.769Z</time></trkpt><trkpt lat="42.241559" lon="12.2224002"><ele>275.0</ele><time>2026-04-19T14:15:40.769Z</time></trkpt><trkpt lat="42.2414937" lon="12.2225143"><ele>275.0</ele><time>2026-04-19T14:15:41.768Z</time></trkpt><trkpt lat="42.2414222" lon="12.2226461"><ele>274.5</ele><time>2026-04-19T14:15:42.767Z</time></trkpt><trkpt lat="42.2413418" lon="12.2228019"><ele>274.0</ele><time>2026-04-19T14:15:43.768Z</time></trkpt><trkpt lat="42.2412583" lon="12.2229578"><ele>273.5</ele><time>2026-04-19T14:15:44.769Z</time></trkpt><trkpt lat="42.2411817" lon="12.2231134"><ele>273.0</ele><time>2026-04-19T14:15:45.768Z</time></trkpt><trkpt lat="42.2411236" lon="12.2232615"><ele>273.0</ele><time>2026-04-19T14:15:46.769Z</time></trkpt><trkpt lat="42.2410674" lon="12.2234109"><ele>273.0</ele><time>2026-04-19T14:15:47.767Z</time></trkpt><trkpt lat="42.2410072" lon="12.2235706"><ele>273.0</ele><time>2026-04-19T14:15:48.767Z</time></trkpt><trkpt lat="42.2409481" lon="12.2237309"><ele>273.0</ele><time>2026-04-19T14:15:49.769Z</time></trkpt><trkpt lat="42.2408925" lon="12.223898"><ele>274.0</ele><time>2026-04-19T14:15:50.768Z</time></trkpt><trkpt lat="42.240836" lon="12.2240672"><ele>275.0</ele><time>2026-04-19T14:15:51.767Z</time></trkpt><trkpt lat="42.2407857" lon="12.2242407"><ele>276.0</ele><time>2026-04-19T14:15:52.768Z</time></trkpt><trkpt lat="42.2407299" lon="12.2244204"><ele>277.0</ele><time>2026-04-19T14:15:53.768Z</time></trkpt><trkpt lat="42.2406677" lon="12.224586"><ele>274.75</ele><time>2026-04-19T14:15:54.767Z</time></trkpt><trkpt lat="42.2406169" lon="12.2247507"><ele>272.5</ele><time>2026-04-19T14:15:55.769Z</time></trkpt><trkpt lat="42.2405701" lon="12.2249037"><ele>270.25</ele><time>2026-04-19T14:15:56.767Z</time></trkpt><trkpt lat="42.2405367" lon="12.2250555"><ele>268.0</ele><time>2026-04-19T14:15:57.768Z</time></trkpt><trkpt lat="42.2405296" lon="12.225209"><ele>268.0</ele><time>2026-04-19T14:15:58.768Z</time></trkpt><trkpt lat="42.2405504" lon="12.2253677"><ele>268.0</ele><time>2026-04-19T14:15:59.769Z</time></trkpt><trkpt lat="42.2405827" lon="12.2255265"><ele>268.0</ele><time>2026-04-19T14:16:00.768Z</time></trkpt><trkpt lat="42.2405964" lon="12.2256962"><ele>268.0</ele><time>2026-04-19T14:16:01.769Z</time></trkpt><trkpt lat="42.2406076" lon="12.2258736"><ele>269.25</ele><time>2026-04-19T14:16:02.768Z</time></trkpt><trkpt lat="42.240603" lon="12.226056"><ele>270.5</ele><time>2026-04-19T14:16:03.769Z</time></trkpt><trkpt lat="42.2405922" lon="12.2262426"><ele>271.75</ele><time>2026-04-19T14:16:04.768Z</time></trkpt><trkpt lat="42.2405724" lon="12.2264311"><ele>273.0</ele><time>2026-04-19T14:16:05.769Z</time></trkpt><trkpt lat="42.2405574" lon="12.2266229"><ele>273.75</ele><time>2026-04-19T14:16:06.768Z</time></trkpt><trkpt lat="42.2405397" lon="12.2268162"><ele>274.5</ele><time>2026-04-19T14:16:07.768Z</time></trkpt><trkpt lat="42.2405204" lon="12.2270057"><ele>275.25</ele><time>2026-04-19T14:16:08.769Z</time></trkpt><trkpt lat="42.2405149" lon="12.2271918"><ele>276.0</ele><time>2026-04-19T14:16:09.769Z</time></trkpt><trkpt lat="42.2404959" lon="12.2273638"><ele>276.5</ele><time>2026-04-19T14:16:10.769Z</time></trkpt><trkpt lat="42.2404766" lon="12.227534"><ele>277.0</ele><time>2026-04-19T14:16:11.769Z</time></trkpt><trkpt lat="42.2404583" lon="12.2276889"><ele>277.5</ele><time>2026-04-19T14:16:12.769Z</time></trkpt><trkpt lat="42.2404415" lon="12.2278396"><ele>278.0</ele><time>2026-04-19T14:16:13.768Z</time></trkpt><trkpt lat="42.240435" lon="12.2279842"><ele>278.0</ele><time>2026-04-19T14:16:14.768Z</time></trkpt><trkpt lat="42.2404155" lon="12.2281292"><ele>278.0</ele><time>2026-04-19T14:16:15.769Z</time></trkpt><trkpt lat="42.240392" lon="12.2282667"><ele>278.0</ele><time>2026-04-19T14:16:16.767Z</time></trkpt><trkpt lat="42.2403713" lon="12.2283955"><ele>278.0</ele><time>2026-04-19T14:16:17.768Z</time></trkpt><trkpt lat="42.2403406" lon="12.2285182"><ele>278.0</ele><time>2026-04-19T14:16:18.769Z</time></trkpt><trkpt lat="42.2403068" lon="12.2286391"><ele>277.2</ele><time>2026-04-19T14:16:19.768Z</time></trkpt><trkpt lat="42.2402695" lon="12.2287472"><ele>276.4</ele><time>2026-04-19T14:16:20.769Z</time></trkpt><trkpt lat="42.2402303" lon="12.2288438"><ele>275.59999999999997</ele><time>2026-04-19T14:16:21.768Z</time></trkpt><trkpt lat="42.2401818" lon="12.2289465"><ele>274.8</ele><time>2026-04-19T14:16:22.767Z</time></trkpt><trkpt lat="42.2401223" lon="12.2290547"><ele>274.0</ele><time>2026-04-19T14:16:23.769Z</time></trkpt><trkpt lat="42.2400509" lon="12.2291612"><ele>273.5</ele><time>2026-04-19T14:16:24.769Z</time></trkpt><trkpt lat="42.2399704" lon="12.2292678"><ele>273.0</ele><time>2026-04-19T14:16:25.769Z</time></trkpt><trkpt lat="42.2398791" lon="12.2293687"><ele>272.5</ele><time>2026-04-19T14:16:26.768Z</time></trkpt><trkpt lat="42.2397869" lon="12.2294694"><ele>272.0</ele><time>2026-04-19T14:16:27.769Z</time></trkpt><trkpt lat="42.2396964" lon="12.2295636"><ele>272.0</ele><time>2026-04-19T14:16:28.769Z</time></trkpt><trkpt lat="42.239627" lon="12.2296469"><ele>272.0</ele><time>2026-04-19T14:16:29.768Z</time></trkpt><trkpt lat="42.239554" lon="12.2297305"><ele>272.0</ele><time>2026-04-19T14:16:31.769Z</time></trkpt><trkpt lat="42.2394723" lon="12.2298221"><ele>272.0</ele><time>2026-04-19T14:16:33.768Z</time></trkpt><trkpt lat="42.2394253" lon="12.2298947"><ele>272.0</ele><time>2026-04-19T14:16:34.769Z</time></trkpt><trkpt lat="42.2393547" lon="12.22998"><ele>270.33333333333337</ele><time>2026-04-19T14:16:35.769Z</time></trkpt><trkpt lat="42.2392099" lon="12.2301187"><ele>268.6666666666667</ele><time>2026-04-19T14:16:36.769Z</time></trkpt><trkpt lat="42.2390786" lon="12.2302413"><ele>267.0</ele><time>2026-04-19T14:16:37.768Z</time></trkpt><trkpt lat="42.2389433" lon="12.2303651"><ele>267.3333333333333</ele><time>2026-04-19T14:16:38.767Z</time></trkpt><trkpt lat="42.2388035" lon="12.2305021"><ele>267.66666666666663</ele><time>2026-04-19T14:16:39.768Z</time></trkpt><trkpt lat="42.238626" lon="12.2307111"><ele>268.0</ele><time>2026-04-19T14:16:40.769Z</time></trkpt><trkpt lat="42.2384494" lon="12.2309029"><ele>268.0</ele><time>2026-04-19T14:16:41.768Z</time></trkpt><trkpt lat="42.2382764" lon="12.2310711"><ele>268.0</ele><time>2026-04-19T14:16:42.769Z</time></trkpt><trkpt lat="42.2381054" lon="12.231237"><ele>268.0</ele><time>2026-04-19T14:16:43.769Z</time></trkpt><trkpt lat="42.237929" lon="12.2314"><ele>269.66666666666663</ele><time>2026-04-19T14:16:44.768Z</time></trkpt><trkpt lat="42.2377553" lon="12.2315581"><ele>271.3333333333333</ele><time>2026-04-19T14:16:45.768Z</time></trkpt><trkpt lat="42.2375905" lon="12.2317055"><ele>273.0</ele><time>2026-04-19T14:16:46.768Z</time></trkpt><trkpt lat="42.2369901" lon="12.2320935"><ele>276.3333333333333</ele><time>2026-04-19T14:16:50.768Z</time></trkpt><trkpt lat="42.2368304" lon="12.2321513"><ele>279.66666666666663</ele><time>2026-04-19T14:16:51.769Z</time></trkpt><trkpt lat="42.2366662" lon="12.2322082"><ele>283.0</ele><time>2026-04-19T14:16:52.769Z</time></trkpt><trkpt lat="42.2365019" lon="12.2322713"><ele>282.0</ele><time>2026-04-19T14:16:53.768Z</time></trkpt><trkpt lat="42.2363371" lon="12.2323487"><ele>281.0</ele><time>2026-04-19T14:16:54.769Z</time></trkpt><trkpt lat="42.2361783" lon="12.2324112"><ele>280.0</ele><time>2026-04-19T14:16:55.768Z</time></trkpt><trkpt lat="42.2360167" lon="12.2325369"><ele>280.0</ele><time>2026-04-19T14:16:56.769Z</time></trkpt><trkpt lat="42.2358446" lon="12.2326516"><ele>280.0</ele><time>2026-04-19T14:16:57.769Z</time></trkpt><trkpt lat="42.2356819" lon="12.2327711"><ele>280.0</ele><time>2026-04-19T14:16:58.769Z</time></trkpt><trkpt lat="42.235537" lon="12.2328951"><ele>279.0</ele><time>2026-04-19T14:16:59.768Z</time></trkpt><trkpt lat="42.2353945" lon="12.2330187"><ele>278.0</ele><time>2026-04-19T14:17:00.769Z</time></trkpt><trkpt lat="42.2352657" lon="12.2331451"><ele>277.0</ele><time>2026-04-19T14:17:01.769Z</time></trkpt><trkpt lat="42.2351548" lon="12.2332934"><ele>276.66666666666663</ele><time>2026-04-19T14:17:02.769Z</time></trkpt><trkpt lat="42.2350596" lon="12.2334625"><ele>276.3333333333333</ele><time>2026-04-19T14:17:03.769Z</time></trkpt><trkpt lat="42.2349715" lon="12.2336555"><ele>276.0</ele><time>2026-04-19T14:17:04.768Z</time></trkpt><trkpt lat="42.2348861" lon="12.2338429"><ele>276.0</ele><time>2026-04-19T14:17:05.768Z</time></trkpt><trkpt lat="42.234797" lon="12.2340416"><ele>276.0</ele><time>2026-04-19T14:17:06.768Z</time></trkpt><trkpt lat="42.2347011" lon="12.2342604"><ele>276.0</ele><time>2026-04-19T14:17:07.769Z</time></trkpt><trkpt lat="42.2346047" lon="12.2344926"><ele>276.0</ele><time>2026-04-19T14:17:08.769Z</time></trkpt><trkpt lat="42.2345067" lon="12.2347168"><ele>276.0</ele><time>2026-04-19T14:17:09.769Z</time></trkpt><trkpt lat="42.2344051" lon="12.2349513"><ele>276.0</ele><time>2026-04-19T14:17:10.768Z</time></trkpt><trkpt lat="42.2343063" lon="12.235184"><ele>276.0</ele><time>2026-04-19T14:17:11.769Z</time></trkpt><trkpt lat="42.2342058" lon="12.235427"><ele>276.0</ele><time>2026-04-19T14:17:12.768Z</time></trkpt><trkpt lat="42.2341087" lon="12.2356567"><ele>276.0</ele><time>2026-04-19T14:17:13.769Z</time></trkpt><trkpt lat="42.2340118" lon="12.2358773"><ele>276.6666666666667</ele><time>2026-04-19T14:17:14.768Z</time></trkpt><trkpt lat="42.2339175" lon="12.2360905"><ele>277.33333333333337</ele><time>2026-04-19T14:17:15.767Z</time></trkpt><trkpt lat="42.2338248" lon="12.2363032"><ele>278.0</ele><time>2026-04-19T14:17:16.768Z</time></trkpt><trkpt lat="42.233738" lon="12.2364966"><ele>276.6666666666667</ele><time>2026-04-19T14:17:17.768Z</time></trkpt><trkpt lat="42.2336556" lon="12.2366943"><ele>275.3333333333333</ele><time>2026-04-19T14:17:18.767Z</time></trkpt><trkpt lat="42.2335762" lon="12.2368821"><ele>274.0</ele><time>2026-04-19T14:17:19.769Z</time></trkpt><trkpt lat="42.2334961" lon="12.2370658"><ele>274.0</ele><time>2026-04-19T14:17:20.769Z</time></trkpt><trkpt lat="42.2334227" lon="12.2372391"><ele>274.0</ele><time>2026-04-19T14:17:21.768Z</time></trkpt><trkpt lat="42.2333568" lon="12.2374113"><ele>274.0</ele><time>2026-04-19T14:17:22.769Z</time></trkpt><trkpt lat="42.2333053" lon="12.2375851"><ele>274.0</ele><time>2026-04-19T14:17:23.768Z</time></trkpt><trkpt lat="42.2332627" lon="12.237761"><ele>272.75</ele><time>2026-04-19T14:17:24.768Z</time></trkpt><trkpt lat="42.2332237" lon="12.2379395"><ele>271.5</ele><time>2026-04-19T14:17:25.769Z</time></trkpt><trkpt lat="42.2331869" lon="12.238125"><ele>270.25</ele><time>2026-04-19T14:17:26.768Z</time></trkpt><trkpt lat="42.2331611" lon="12.2383153"><ele>269.0</ele><time>2026-04-19T14:17:27.768Z</time></trkpt><trkpt lat="42.2331511" lon="12.2385143"><ele>268.0</ele><time>2026-04-19T14:17:28.768Z</time></trkpt><trkpt lat="42.233156" lon="12.2387273"><ele>267.0</ele><time>2026-04-19T14:17:29.769Z</time></trkpt><trkpt lat="42.2331811" lon="12.2389498"><ele>266.0</ele><time>2026-04-19T14:17:30.769Z</time></trkpt><trkpt lat="42.2332193" lon="12.239186"><ele>266.0</ele><time>2026-04-19T14:17:31.768Z</time></trkpt><trkpt lat="42.2332588" lon="12.2394277"><ele>266.0</ele><time>2026-04-19T14:17:32.769Z</time></trkpt><trkpt lat="42.2332963" lon="12.2396787"><ele>266.0</ele><time>2026-04-19T14:17:33.768Z</time></trkpt><trkpt lat="42.2333312" lon="12.2399266"><ele>266.0</ele><time>2026-04-19T14:17:34.768Z</time></trkpt><trkpt lat="42.2333606" lon="12.2401716"><ele>266.0</ele><time>2026-04-19T14:17:35.768Z</time></trkpt><trkpt lat="42.2333885" lon="12.2404217"><ele>266.0</ele><time>2026-04-19T14:17:36.768Z</time></trkpt><trkpt lat="42.2334094" lon="12.2406804"><ele>266.0</ele><time>2026-04-19T14:17:37.768Z</time></trkpt><trkpt lat="42.2334158" lon="12.2409384"><ele>266.0</ele><time>2026-04-19T14:17:38.767Z</time></trkpt><trkpt lat="42.233397" lon="12.2412094"><ele>266.0</ele><time>2026-04-19T14:17:39.767Z</time></trkpt><trkpt lat="42.2333699" lon="12.241493"><ele>266.6666666666667</ele><time>2026-04-19T14:17:40.768Z</time></trkpt><trkpt lat="42.2333325" lon="12.2417793"><ele>267.3333333333333</ele><time>2026-04-19T14:17:41.769Z</time></trkpt><trkpt lat="42.2332849" lon="12.2420677"><ele>268.0</ele><time>2026-04-19T14:17:42.769Z</time></trkpt><trkpt lat="42.2332287" lon="12.2423631"><ele>268.0</ele><time>2026-04-19T14:17:43.768Z</time></trkpt><trkpt lat="42.2331744" lon="12.2426597"><ele>268.0</ele><time>2026-04-19T14:17:44.768Z</time></trkpt><trkpt lat="42.2331162" lon="12.2429556"><ele>267.66666666666663</ele><time>2026-04-19T14:17:45.769Z</time></trkpt><trkpt lat="42.2330675" lon="12.2432393"><ele>267.3333333333333</ele><time>2026-04-19T14:17:46.769Z</time></trkpt><trkpt lat="42.2330226" lon="12.2435174"><ele>267.0</ele><time>2026-04-19T14:17:47.769Z</time></trkpt><trkpt lat="42.2329857" lon="12.2437859"><ele>268.0</ele><time>2026-04-19T14:17:48.768Z</time></trkpt><trkpt lat="42.2329539" lon="12.2440552"><ele>269.0</ele><time>2026-04-19T14:17:49.769Z</time></trkpt><trkpt lat="42.2329353" lon="12.244326"><ele>270.0</ele><time>2026-04-19T14:17:50.769Z</time></trkpt><trkpt lat="42.2329105" lon="12.2445919"><ele>271.0</ele><time>2026-04-19T14:17:51.769Z</time></trkpt><trkpt lat="42.2328907" lon="12.2448593"><ele>272.0</ele><time>2026-04-19T14:17:52.768Z</time></trkpt><trkpt lat="42.2328704" lon="12.2451276"><ele>273.0</ele><time>2026-04-19T14:17:53.768Z</time></trkpt><trkpt lat="42.232853" lon="12.2454033"><ele>274.3333333333333</ele><time>2026-04-19T14:17:54.768Z</time></trkpt><trkpt lat="42.2328352" lon="12.2456733"><ele>275.66666666666663</ele><time>2026-04-19T14:17:55.769Z</time></trkpt><trkpt lat="42.2328156" lon="12.2459549"><ele>277.0</ele><time>2026-04-19T14:17:56.768Z</time></trkpt><trkpt lat="42.232795" lon="12.2462354"><ele>276.66666666666663</ele><time>2026-04-19T14:17:57.769Z</time></trkpt><trkpt lat="42.2327705" lon="12.2465232"><ele>276.3333333333333</ele><time>2026-04-19T14:17:58.768Z</time></trkpt><trkpt lat="42.2327461" lon="12.2468122"><ele>276.0</ele><time>2026-04-19T14:17:59.768Z</time></trkpt><trkpt lat="42.2327258" lon="12.2470998"><ele>275.0</ele><time>2026-04-19T14:18:00.768Z</time></trkpt><trkpt lat="42.232708" lon="12.2473702"><ele>274.0</ele><time>2026-04-19T14:18:01.769Z</time></trkpt><trkpt lat="42.2326894" lon="12.2476323"><ele>273.0</ele><time>2026-04-19T14:18:02.769Z</time></trkpt><trkpt lat="42.2326699" lon="12.2478836"><ele>272.6666666666667</ele><time>2026-04-19T14:18:03.769Z</time></trkpt><trkpt lat="42.2326424" lon="12.248127"><ele>272.33333333333337</ele><time>2026-04-19T14:18:04.769Z</time></trkpt><trkpt lat="42.2326005" lon="12.2483641"><ele>272.0</ele><time>2026-04-19T14:18:05.769Z</time></trkpt><trkpt lat="42.2325416" lon="12.2486003"><ele>272.0</ele><time>2026-04-19T14:18:06.768Z</time></trkpt><trkpt lat="42.2324728" lon="12.2488395"><ele>272.0</ele><time>2026-04-19T14:18:07.768Z</time></trkpt><trkpt lat="42.2323958" lon="12.2490807"><ele>272.0</ele><time>2026-04-19T14:18:08.769Z</time></trkpt><trkpt lat="42.2323177" lon="12.2493307"><ele>271.6666666666667</ele><time>2026-04-19T14:18:09.769Z</time></trkpt><trkpt lat="42.2322305" lon="12.2495891"><ele>271.3333333333333</ele><time>2026-04-19T14:18:10.769Z</time></trkpt><trkpt lat="42.2321454" lon="12.2498507"><ele>271.0</ele><time>2026-04-19T14:18:11.768Z</time></trkpt><trkpt lat="42.2320581" lon="12.2501201"><ele>272.3333333333333</ele><time>2026-04-19T14:18:12.769Z</time></trkpt><trkpt lat="42.2319709" lon="12.2503876"><ele>273.6666666666667</ele><time>2026-04-19T14:18:13.769Z</time></trkpt><trkpt lat="42.2318834" lon="12.2506494"><ele>275.0</ele><time>2026-04-19T14:18:14.768Z</time></trkpt><trkpt lat="42.2318022" lon="12.2509017"><ele>275.0</ele><time>2026-04-19T14:18:15.768Z</time></trkpt><trkpt lat="42.2317234" lon="12.2511463"><ele>275.0</ele><time>2026-04-19T14:18:16.768Z</time></trkpt><trkpt lat="42.2316466" lon="12.2513803"><ele>275.0</ele><time>2026-04-19T14:18:17.769Z</time></trkpt><trkpt lat="42.2315729" lon="12.2516107"><ele>275.0</ele><time>2026-04-19T14:18:18.769Z</time></trkpt><trkpt lat="42.2314995" lon="12.2518386"><ele>275.0</ele><time>2026-04-19T14:18:19.769Z</time></trkpt><trkpt lat="42.2314251" lon="12.2520672"><ele>275.0</ele><time>2026-04-19T14:18:20.769Z</time></trkpt><trkpt lat="42.2313532" lon="12.2522932"><ele>275.33333333333337</ele><time>2026-04-19T14:18:21.769Z</time></trkpt><trkpt lat="42.2312879" lon="12.2525291"><ele>275.6666666666667</ele><time>2026-04-19T14:18:22.769Z</time></trkpt><trkpt lat="42.231237" lon="12.2527772"><ele>276.0</ele><time>2026-04-19T14:18:23.769Z</time></trkpt><trkpt lat="42.231187" lon="12.25303"><ele>276.0</ele><time>2026-04-19T14:18:24.769Z</time></trkpt><trkpt lat="42.2311494" lon="12.2532886"><ele>276.0</ele><time>2026-04-19T14:18:25.768Z</time></trkpt><trkpt lat="42.2311191" lon="12.2535464"><ele>276.0</ele><time>2026-04-19T14:18:26.769Z</time></trkpt><trkpt lat="42.2310924" lon="12.2538087"><ele>276.0</ele><time>2026-04-19T14:18:27.768Z</time></trkpt><trkpt lat="42.2310688" lon="12.2540706"><ele>276.0</ele><time>2026-04-19T14:18:28.767Z</time></trkpt><trkpt lat="42.2310499" lon="12.2543395"><ele>276.0</ele><time>2026-04-19T14:18:29.767Z</time></trkpt><trkpt lat="42.2310378" lon="12.2546061"><ele>275.6666666666667</ele><time>2026-04-19T14:18:30.768Z</time></trkpt><trkpt lat="42.2310321" lon="12.2548764"><ele>275.33333333333337</ele><time>2026-04-19T14:18:31.768Z</time></trkpt><trkpt lat="42.2310301" lon="12.2551438"><ele>275.0</ele><time>2026-04-19T14:18:32.767Z</time></trkpt><trkpt lat="42.2310274" lon="12.2554143"><ele>274.6666666666667</ele><time>2026-04-19T14:18:33.769Z</time></trkpt><trkpt lat="42.2310225" lon="12.2556862"><ele>274.3333333333333</ele><time>2026-04-19T14:18:34.769Z</time></trkpt><trkpt lat="42.2310175" lon="12.2559599"><ele>274.0</ele><time>2026-04-19T14:18:35.768Z</time></trkpt><trkpt lat="42.2310173" lon="12.2562308"><ele>274.0</ele><time>2026-04-19T14:18:36.768Z</time></trkpt><trkpt lat="42.2310179" lon="12.2565011"><ele>274.0</ele><time>2026-04-19T14:18:37.767Z</time></trkpt><trkpt lat="42.2310137" lon="12.256763"><ele>274.0</ele><time>2026-04-19T14:18:38.768Z</time></trkpt><trkpt lat="42.2310116" lon="12.2570095"><ele>274.0</ele><time>2026-04-19T14:18:39.768Z</time></trkpt><trkpt lat="42.2310025" lon="12.2572466"><ele>274.0</ele><time>2026-04-19T14:18:40.768Z</time></trkpt><trkpt lat="42.2309854" lon="12.2574757"><ele>274.0</ele><time>2026-04-19T14:18:41.769Z</time></trkpt><trkpt lat="42.2309551" lon="12.2577"><ele>273.3333333333333</ele><time>2026-04-19T14:18:42.769Z</time></trkpt><trkpt lat="42.2309127" lon="12.2579095"><ele>272.6666666666667</ele><time>2026-04-19T14:18:43.768Z</time></trkpt><trkpt lat="42.2308626" lon="12.2581153"><ele>272.0</ele><time>2026-04-19T14:18:44.768Z</time></trkpt><trkpt lat="42.2308165" lon="12.2582973"><ele>271.4</ele><time>2026-04-19T14:18:45.767Z</time></trkpt><trkpt lat="42.2307771" lon="12.2584564"><ele>270.79999999999995</ele><time>2026-04-19T14:18:46.768Z</time></trkpt><trkpt lat="42.2307404" lon="12.2585904"><ele>270.2</ele><time>2026-04-19T14:18:47.767Z</time></trkpt><trkpt lat="42.2307069" lon="12.258698"><ele>269.59999999999997</ele><time>2026-04-19T14:18:48.769Z</time></trkpt><trkpt lat="42.2306781" lon="12.258777"><ele>269.0</ele><time>2026-04-19T14:18:49.768Z</time></trkpt><trkpt lat="42.2306487" lon="12.258877"><ele>268.8</ele><time>2026-04-19T14:18:51.767Z</time></trkpt><trkpt lat="42.2306238" lon="12.2590149"><ele>268.59999999999997</ele><time>2026-04-19T14:18:54.769Z</time></trkpt><trkpt lat="42.2306609" lon="12.2591445"><ele>268.4</ele><time>2026-04-19T14:18:56.769Z</time></trkpt><trkpt lat="42.2307552" lon="12.2592477"><ele>268.2</ele><time>2026-04-19T14:18:58.768Z</time></trkpt><trkpt lat="42.2308177" lon="12.2592801"><ele>268.0</ele><time>2026-04-19T14:18:59.769Z</time></trkpt><trkpt lat="42.2308817" lon="12.2593314"><ele>268.6</ele><time>2026-04-19T14:19:00.768Z</time></trkpt><trkpt lat="42.2309331" lon="12.25941"><ele>269.20000000000005</ele><time>2026-04-19T14:19:01.769Z</time></trkpt><trkpt lat="42.2309705" lon="12.2595186"><ele>269.8</ele><time>2026-04-19T14:19:02.767Z</time></trkpt><trkpt lat="42.2309955" lon="12.2596574"><ele>270.40000000000003</ele><time>2026-04-19T14:19:03.769Z</time></trkpt><trkpt lat="42.2310114" lon="12.2598291"><ele>271.0</ele><time>2026-04-19T14:19:04.769Z</time></trkpt><trkpt lat="42.2310259" lon="12.260028"><ele>271.66666666666663</ele><time>2026-04-19T14:19:05.769Z</time></trkpt><trkpt lat="42.2310339" lon="12.2602467"><ele>272.3333333333333</ele><time>2026-04-19T14:19:06.769Z</time></trkpt><trkpt lat="42.2310523" lon="12.2604915"><ele>273.0</ele><time>2026-04-19T14:19:07.768Z</time></trkpt><trkpt lat="42.2310722" lon="12.2607487"><ele>273.0</ele><time>2026-04-19T14:19:08.769Z</time></trkpt><trkpt lat="42.2310902" lon="12.261002"><ele>273.0</ele><time>2026-04-19T14:19:09.768Z</time></trkpt><trkpt lat="42.2311082" lon="12.2612523"><ele>273.0</ele><time>2026-04-19T14:19:10.769Z</time></trkpt><trkpt lat="42.2311239" lon="12.2615023"><ele>272.6666666666667</ele><time>2026-04-19T14:19:11.769Z</time></trkpt><trkpt lat="42.2311341" lon="12.2617586"><ele>272.33333333333337</ele><time>2026-04-19T14:19:12.768Z</time></trkpt><trkpt lat="42.2311334" lon="12.2620191"><ele>272.0</ele><time>2026-04-19T14:19:13.767Z</time></trkpt><trkpt lat="42.2311274" lon="12.2622834"><ele>271.33333333333337</ele><time>2026-04-19T14:19:14.767Z</time></trkpt><trkpt lat="42.2311199" lon="12.2625377"><ele>270.6666666666667</ele><time>2026-04-19T14:19:15.768Z</time></trkpt><trkpt lat="42.2311141" lon="12.2627799"><ele>270.0</ele><time>2026-04-19T14:19:16.768Z</time></trkpt><trkpt lat="42.2311023" lon="12.2630137"><ele>269.3333333333333</ele><time>2026-04-19T14:19:17.768Z</time></trkpt><trkpt lat="42.2310952" lon="12.2632446"><ele>268.66666666666663</ele><time>2026-04-19T14:19:18.768Z</time></trkpt><trkpt lat="42.2310888" lon="12.2634739"><ele>268.0</ele><time>2026-04-19T14:19:19.768Z</time></trkpt><trkpt lat="42.231083" lon="12.2637081"><ele>268.0</ele><time>2026-04-19T14:19:20.768Z</time></trkpt><trkpt lat="42.2310801" lon="12.2639386"><ele>268.0</ele><time>2026-04-19T14:19:21.768Z</time></trkpt><trkpt lat="42.2310745" lon="12.2641755"><ele>268.0</ele><time>2026-04-19T14:19:22.768Z</time></trkpt><trkpt lat="42.2310653" lon="12.2644112"><ele>268.0</ele><time>2026-04-19T14:19:23.768Z</time></trkpt><trkpt lat="42.2310561" lon="12.2646479"><ele>268.0</ele><time>2026-04-19T14:19:24.767Z</time></trkpt><trkpt lat="42.2310489" lon="12.2648756"><ele>268.0</ele><time>2026-04-19T14:19:25.768Z</time></trkpt><trkpt lat="42.2310429" lon="12.2650989"><ele>267.3333333333333</ele><time>2026-04-19T14:19:26.768Z</time></trkpt><trkpt lat="42.2310373" lon="12.2653168"><ele>266.6666666666667</ele><time>2026-04-19T14:19:27.768Z</time></trkpt><trkpt lat="42.2310341" lon="12.2655437"><ele>266.0</ele><time>2026-04-19T14:19:28.768Z</time></trkpt><trkpt lat="42.2310353" lon="12.2657866"><ele>265.33333333333337</ele><time>2026-04-19T14:19:29.769Z</time></trkpt><trkpt lat="42.2310312" lon="12.2660606"><ele>264.6666666666667</ele><time>2026-04-19T14:19:30.769Z</time></trkpt><trkpt lat="42.2310218" lon="12.2663513"><ele>264.0</ele><time>2026-04-19T14:19:31.768Z</time></trkpt><trkpt lat="42.2310079" lon="12.2666586"><ele>264.0</ele><time>2026-04-19T14:19:32.769Z</time></trkpt><trkpt lat="42.230992" lon="12.2669804"><ele>264.0</ele><time>2026-04-19T14:19:33.769Z</time></trkpt><trkpt lat="42.2309743" lon="12.2672925"><ele>264.0</ele><time>2026-04-19T14:19:34.769Z</time></trkpt><trkpt lat="42.2309585" lon="12.2675958"><ele>264.0</ele><time>2026-04-19T14:19:35.769Z</time></trkpt><trkpt lat="42.2309431" lon="12.2678835"><ele>264.0</ele><time>2026-04-19T14:19:36.769Z</time></trkpt><trkpt lat="42.2309341" lon="12.2681701"><ele>264.3333333333333</ele><time>2026-04-19T14:19:37.769Z</time></trkpt><trkpt lat="42.230926" lon="12.2684394"><ele>264.66666666666663</ele><time>2026-04-19T14:19:38.769Z</time></trkpt><trkpt lat="42.2309168" lon="12.2686916"><ele>265.0</ele><time>2026-04-19T14:19:39.769Z</time></trkpt><trkpt lat="42.2309023" lon="12.2689314"><ele>264.3333333333333</ele><time>2026-04-19T14:19:40.769Z</time></trkpt><trkpt lat="42.2308902" lon="12.269162"><ele>263.6666666666667</ele><time>2026-04-19T14:19:41.769Z</time></trkpt><trkpt lat="42.2308802" lon="12.2693924"><ele>263.0</ele><time>2026-04-19T14:19:42.767Z</time></trkpt><trkpt lat="42.2308646" lon="12.2696203"><ele>263.33333333333337</ele><time>2026-04-19T14:19:43.767Z</time></trkpt><trkpt lat="42.2308436" lon="12.2698391"><ele>263.6666666666667</ele><time>2026-04-19T14:19:44.768Z</time></trkpt><trkpt lat="42.2308122" lon="12.2700649"><ele>264.0</ele><time>2026-04-19T14:19:45.768Z</time></trkpt><trkpt lat="42.2307768" lon="12.2702966"><ele>264.0</ele><time>2026-04-19T14:19:46.767Z</time></trkpt><trkpt lat="42.2307318" lon="12.2705332"><ele>264.0</ele><time>2026-04-19T14:19:47.768Z</time></trkpt><trkpt lat="42.2306819" lon="12.2707722"><ele>264.0</ele><time>2026-04-19T14:19:48.768Z</time></trkpt><trkpt lat="42.2306307" lon="12.2710142"><ele>263.6666666666667</ele><time>2026-04-19T14:19:49.769Z</time></trkpt><trkpt lat="42.2305799" lon="12.271252"><ele>263.33333333333337</ele><time>2026-04-19T14:19:50.769Z</time></trkpt><trkpt lat="42.2305318" lon="12.2714712"><ele>263.0</ele><time>2026-04-19T14:19:51.767Z</time></trkpt><trkpt lat="42.2304849" lon="12.271683"><ele>263.6666666666667</ele><time>2026-04-19T14:19:52.768Z</time></trkpt><trkpt lat="42.2304334" lon="12.271892"><ele>264.3333333333333</ele><time>2026-04-19T14:19:53.769Z</time></trkpt><trkpt lat="42.2303729" lon="12.2721012"><ele>265.0</ele><time>2026-04-19T14:19:54.769Z</time></trkpt><trkpt lat="42.2303064" lon="12.2723033"><ele>265.3333333333333</ele><time>2026-04-19T14:19:55.769Z</time></trkpt><trkpt lat="42.2302362" lon="12.2724951"><ele>265.6666666666667</ele><time>2026-04-19T14:19:56.767Z</time></trkpt><trkpt lat="42.2301678" lon="12.2726906"><ele>266.0</ele><time>2026-04-19T14:19:57.769Z</time></trkpt><trkpt lat="42.2301044" lon="12.2728952"><ele>265.6666666666667</ele><time>2026-04-19T14:19:58.768Z</time></trkpt><trkpt lat="42.2300489" lon="12.2731101"><ele>265.3333333333333</ele><time>2026-04-19T14:19:59.769Z</time></trkpt><trkpt lat="42.2300067" lon="12.2733355"><ele>265.0</ele><time>2026-04-19T14:20:00.768Z</time></trkpt><trkpt lat="42.2299682" lon="12.2735657"><ele>265.0</ele><time>2026-04-19T14:20:01.769Z</time></trkpt><trkpt lat="42.2299346" lon="12.2738075"><ele>265.0</ele><time>2026-04-19T14:20:02.768Z</time></trkpt><trkpt lat="42.2298988" lon="12.2740565"><ele>265.0</ele><time>2026-04-19T14:20:03.769Z</time></trkpt><trkpt lat="42.2298632" lon="12.2743047"><ele>264.66666666666663</ele><time>2026-04-19T14:20:04.768Z</time></trkpt><trkpt lat="42.2298197" lon="12.2745591"><ele>264.3333333333333</ele><time>2026-04-19T14:20:05.769Z</time></trkpt><trkpt lat="42.2297779" lon="12.2748181"><ele>264.0</ele><time>2026-04-19T14:20:06.769Z</time></trkpt><trkpt lat="42.2297322" lon="12.2750788"><ele>262.0</ele><time>2026-04-19T14:20:07.769Z</time></trkpt><trkpt lat="42.2296809" lon="12.275344"><ele>260.0</ele><time>2026-04-19T14:20:08.767Z</time></trkpt><trkpt lat="42.2296245" lon="12.2756119"><ele>258.0</ele><time>2026-04-19T14:20:09.767Z</time></trkpt><trkpt lat="42.2295758" lon="12.2758791"><ele>257.6666666666667</ele><time>2026-04-19T14:20:10.767Z</time></trkpt><trkpt lat="42.2295255" lon="12.2761433"><ele>257.33333333333337</ele><time>2026-04-19T14:20:11.767Z</time></trkpt><trkpt lat="42.2294804" lon="12.2763945"><ele>257.0</ele><time>2026-04-19T14:20:12.766Z</time></trkpt><trkpt lat="42.2294285" lon="12.2766323"><ele>257.0</ele><time>2026-04-19T14:20:13.768Z</time></trkpt><trkpt lat="42.2293801" lon="12.2768579"><ele>257.0</ele><time>2026-04-19T14:20:14.767Z</time></trkpt><trkpt lat="42.2293336" lon="12.2770752"><ele>257.0</ele><time>2026-04-19T14:20:15.767Z</time></trkpt><trkpt lat="42.2292838" lon="12.2772856"><ele>257.6666666666667</ele><time>2026-04-19T14:20:16.766Z</time></trkpt><trkpt lat="42.2292346" lon="12.2774935"><ele>258.3333333333333</ele><time>2026-04-19T14:20:17.767Z</time></trkpt><trkpt lat="42.2291896" lon="12.2777062"><ele>259.0</ele><time>2026-04-19T14:20:18.767Z</time></trkpt><trkpt lat="42.2291547" lon="12.2779233"><ele>259.0</ele><time>2026-04-19T14:20:19.767Z</time></trkpt><trkpt lat="42.2291283" lon="12.2781396"><ele>259.0</ele><time>2026-04-19T14:20:20.768Z</time></trkpt><trkpt lat="42.229106" lon="12.2783716"><ele>259.0</ele><time>2026-04-19T14:20:21.768Z</time></trkpt><trkpt lat="42.2290855" lon="12.2785982"><ele>259.0</ele><time>2026-04-19T14:20:22.768Z</time></trkpt><trkpt lat="42.2290654" lon="12.2788398"><ele>259.0</ele><time>2026-04-19T14:20:23.766Z</time></trkpt><trkpt lat="42.2290462" lon="12.2790896"><ele>259.0</ele><time>2026-04-19T14:20:24.767Z</time></trkpt><trkpt lat="42.2290166" lon="12.2793389"><ele>258.66666666666663</ele><time>2026-04-19T14:20:25.768Z</time></trkpt><trkpt lat="42.2289966" lon="12.2795994"><ele>258.3333333333333</ele><time>2026-04-19T14:20:26.768Z</time></trkpt><trkpt lat="42.228978" lon="12.2798414"><ele>258.0</ele><time>2026-04-19T14:20:27.768Z</time></trkpt><trkpt lat="42.2289629" lon="12.2800753"><ele>257.6666666666667</ele><time>2026-04-19T14:20:28.768Z</time></trkpt><trkpt lat="42.2289462" lon="12.2803068"><ele>257.33333333333337</ele><time>2026-04-19T14:20:29.766Z</time></trkpt><trkpt lat="42.2289271" lon="12.2805385"><ele>257.0</ele><time>2026-04-19T14:20:30.767Z</time></trkpt><trkpt lat="42.2289118" lon="12.2807696"><ele>256.0</ele><time>2026-04-19T14:20:31.768Z</time></trkpt><trkpt lat="42.2288964" lon="12.2810017"><ele>255.0</ele><time>2026-04-19T14:20:32.768Z</time></trkpt><trkpt lat="42.2288843" lon="12.2812362"><ele>254.0</ele><time>2026-04-19T14:20:33.767Z</time></trkpt><trkpt lat="42.2288782" lon="12.2814776"><ele>252.33333333333334</ele><time>2026-04-19T14:20:34.768Z</time></trkpt><trkpt lat="42.2288792" lon="12.2817264"><ele>250.66666666666669</ele><time>2026-04-19T14:20:35.768Z</time></trkpt><trkpt lat="42.2288851" lon="12.2819823"><ele>249.0</ele><time>2026-04-19T14:20:36.768Z</time></trkpt><trkpt lat="42.2288935" lon="12.282241"><ele>248.33333333333331</ele><time>2026-04-19T14:20:37.767Z</time></trkpt><trkpt lat="42.2289041" lon="12.2824884"><ele>247.66666666666666</ele><time>2026-04-19T14:20:38.768Z</time></trkpt><trkpt lat="42.2289128" lon="12.2827259"><ele>247.0</ele><time>2026-04-19T14:20:39.767Z</time></trkpt><trkpt lat="42.2289268" lon="12.2829587"><ele>247.33333333333331</ele><time>2026-04-19T14:20:40.767Z</time></trkpt><trkpt lat="42.2289486" lon="12.2831854"><ele>247.66666666666669</ele><time>2026-04-19T14:20:41.767Z</time></trkpt><trkpt lat="42.2289702" lon="12.2834128"><ele>248.0</ele><time>2026-04-19T14:20:42.768Z</time></trkpt><trkpt lat="42.2289987" lon="12.283642"><ele>248.0</ele><time>2026-04-19T14:20:43.767Z</time></trkpt><trkpt lat="42.2290318" lon="12.2838786"><ele>248.0</ele><time>2026-04-19T14:20:44.767Z</time></trkpt><trkpt lat="42.2290595" lon="12.2841196"><ele>248.0</ele><time>2026-04-19T14:20:45.767Z</time></trkpt><trkpt lat="42.2290869" lon="12.2843681"><ele>247.66666666666669</ele><time>2026-04-19T14:20:46.767Z</time></trkpt><trkpt lat="42.22911" lon="12.2846234"><ele>247.33333333333331</ele><time>2026-04-19T14:20:47.767Z</time></trkpt><trkpt lat="42.2291276" lon="12.2848834"><ele>247.0</ele><time>2026-04-19T14:20:48.767Z</time></trkpt><trkpt lat="42.2291368" lon="12.2851433"><ele>246.66666666666666</ele><time>2026-04-19T14:20:49.768Z</time></trkpt><trkpt lat="42.2291459" lon="12.285406"><ele>246.33333333333331</ele><time>2026-04-19T14:20:50.768Z</time></trkpt><trkpt lat="42.2291574" lon="12.2856698"><ele>246.0</ele><time>2026-04-19T14:20:51.767Z</time></trkpt><trkpt lat="42.2291591" lon="12.2859361"><ele>246.0</ele><time>2026-04-19T14:20:52.767Z</time></trkpt><trkpt lat="42.2291575" lon="12.2861937"><ele>246.0</ele><time>2026-04-19T14:20:53.767Z</time></trkpt><trkpt lat="42.2291601" lon="12.2864417"><ele>246.0</ele><time>2026-04-19T14:20:54.768Z</time></trkpt><trkpt lat="42.229174" lon="12.2866771"><ele>246.0</ele><time>2026-04-19T14:20:55.768Z</time></trkpt><trkpt lat="42.2291959" lon="12.2868977"><ele>246.0</ele><time>2026-04-19T14:20:56.768Z</time></trkpt><trkpt lat="42.2292234" lon="12.2871087"><ele>246.0</ele><time>2026-04-19T14:20:57.768Z</time></trkpt><trkpt lat="42.2292544" lon="12.2873131"><ele>245.25</ele><time>2026-04-19T14:20:58.768Z</time></trkpt><trkpt lat="42.2292894" lon="12.2875082"><ele>244.5</ele><time>2026-04-19T14:20:59.767Z</time></trkpt><trkpt lat="42.2293266" lon="12.2876999"><ele>243.75</ele><time>2026-04-19T14:21:00.766Z</time></trkpt><trkpt lat="42.2293701" lon="12.2878802"><ele>243.0</ele><time>2026-04-19T14:21:01.766Z</time></trkpt><trkpt lat="42.2294238" lon="12.2880576"><ele>242.25</ele><time>2026-04-19T14:21:02.767Z</time></trkpt><trkpt lat="42.2294927" lon="12.2882252"><ele>241.5</ele><time>2026-04-19T14:21:03.768Z</time></trkpt><trkpt lat="42.229578" lon="12.2883825"><ele>240.75</ele><time>2026-04-19T14:21:04.767Z</time></trkpt><trkpt lat="42.2296799" lon="12.2885236"><ele>240.0</ele><time>2026-04-19T14:21:05.767Z</time></trkpt><trkpt lat="42.2297869" lon="12.2886572"><ele>240.25</ele><time>2026-04-19T14:21:06.767Z</time></trkpt><trkpt lat="42.2298889" lon="12.2887937"><ele>240.5</ele><time>2026-04-19T14:21:07.768Z</time></trkpt><trkpt lat="42.2299741" lon="12.2889358"><ele>240.75</ele><time>2026-04-19T14:21:08.768Z</time></trkpt><trkpt lat="42.2300456" lon="12.2890905"><ele>241.0</ele><time>2026-04-19T14:21:09.768Z</time></trkpt><trkpt lat="42.2301008" lon="12.2892596"><ele>241.0</ele><time>2026-04-19T14:21:10.768Z</time></trkpt><trkpt lat="42.2301458" lon="12.2894402"><ele>241.0</ele><time>2026-04-19T14:21:11.768Z</time></trkpt><trkpt lat="42.2301776" lon="12.2896304"><ele>241.0</ele><time>2026-04-19T14:21:12.767Z</time></trkpt><trkpt lat="42.2302105" lon="12.2898314"><ele>241.0</ele><time>2026-04-19T14:21:13.768Z</time></trkpt><trkpt lat="42.2302456" lon="12.2900351"><ele>241.0</ele><time>2026-04-19T14:21:14.768Z</time></trkpt><trkpt lat="42.230283" lon="12.2902462"><ele>241.0</ele><time>2026-04-19T14:21:15.767Z</time></trkpt><trkpt lat="42.2303182" lon="12.2904637"><ele>241.0</ele><time>2026-04-19T14:21:16.768Z</time></trkpt><trkpt lat="42.2303405" lon="12.2906867"><ele>240.33333333333331</ele><time>2026-04-19T14:21:17.767Z</time></trkpt><trkpt lat="42.230345" lon="12.2909148"><ele>239.66666666666669</ele><time>2026-04-19T14:21:18.768Z</time></trkpt><trkpt lat="42.2303346" lon="12.2911447"><ele>239.0</ele><time>2026-04-19T14:21:19.768Z</time></trkpt><trkpt lat="42.2303162" lon="12.2913661"><ele>239.25</ele><time>2026-04-19T14:21:20.767Z</time></trkpt><trkpt lat="42.2303022" lon="12.2915687"><ele>239.5</ele><time>2026-04-19T14:21:21.768Z</time></trkpt><trkpt lat="42.23029" lon="12.2917625"><ele>239.75</ele><time>2026-04-19T14:21:22.768Z</time></trkpt><trkpt lat="42.2302796" lon="12.291941"><ele>240.0</ele><time>2026-04-19T14:21:23.768Z</time></trkpt><trkpt lat="42.2302772" lon="12.2921105"><ele>240.75</ele><time>2026-04-19T14:21:24.768Z</time></trkpt><trkpt lat="42.230285" lon="12.2922759"><ele>241.5</ele><time>2026-04-19T14:21:25.767Z</time></trkpt><trkpt lat="42.2303049" lon="12.2924354"><ele>242.25</ele><time>2026-04-19T14:21:26.768Z</time></trkpt><trkpt lat="42.2303432" lon="12.2926018"><ele>243.0</ele><time>2026-04-19T14:21:27.768Z</time></trkpt><trkpt lat="42.2303969" lon="12.2927601"><ele>243.0</ele><time>2026-04-19T14:21:28.767Z</time></trkpt><trkpt lat="42.2304699" lon="12.2929122"><ele>243.0</ele><time>2026-04-19T14:21:29.768Z</time></trkpt><trkpt lat="42.2305584" lon="12.2930676"><ele>243.0</ele><time>2026-04-19T14:21:30.767Z</time></trkpt><trkpt lat="42.2306535" lon="12.2932259"><ele>243.0</ele><time>2026-04-19T14:21:31.768Z</time></trkpt><trkpt lat="42.2307506" lon="12.2933888"><ele>242.66666666666669</ele><time>2026-04-19T14:21:32.768Z</time></trkpt><trkpt lat="42.2308435" lon="12.2935698"><ele>242.33333333333334</ele><time>2026-04-19T14:21:33.768Z</time></trkpt><trkpt lat="42.2309304" lon="12.293768"><ele>242.0</ele><time>2026-04-19T14:21:34.768Z</time></trkpt><trkpt lat="42.2310171" lon="12.2939741"><ele>241.0</ele><time>2026-04-19T14:21:35.767Z</time></trkpt><trkpt lat="42.2311073" lon="12.2941868"><ele>240.0</ele><time>2026-04-19T14:21:36.767Z</time></trkpt><trkpt lat="42.2312024" lon="12.2944062"><ele>239.0</ele><time>2026-04-19T14:21:37.767Z</time></trkpt><trkpt lat="42.231299" lon="12.2946248"><ele>238.66666666666669</ele><time>2026-04-19T14:21:38.768Z</time></trkpt><trkpt lat="42.2313977" lon="12.2948354"><ele>238.33333333333331</ele><time>2026-04-19T14:21:39.767Z</time></trkpt><trkpt lat="42.2314959" lon="12.2950373"><ele>238.0</ele><time>2026-04-19T14:21:40.768Z</time></trkpt><trkpt lat="42.2315919" lon="12.2952296"><ele>237.33333333333331</ele><time>2026-04-19T14:21:41.767Z</time></trkpt><trkpt lat="42.2316875" lon="12.2954192"><ele>236.66666666666669</ele><time>2026-04-19T14:21:42.768Z</time></trkpt><trkpt lat="42.2317613" lon="12.2956065"><ele>236.0</ele><time>2026-04-19T14:21:43.768Z</time></trkpt><trkpt lat="42.2318113" lon="12.2958083"><ele>236.0</ele><time>2026-04-19T14:21:44.767Z</time></trkpt><trkpt lat="42.2318607" lon="12.2960146"><ele>236.0</ele><time>2026-04-19T14:21:45.767Z</time></trkpt><trkpt lat="42.2318989" lon="12.2962231"><ele>236.0</ele><time>2026-04-19T14:21:46.768Z</time></trkpt><trkpt lat="42.2319401" lon="12.2964316"><ele>236.66666666666669</ele><time>2026-04-19T14:21:47.767Z</time></trkpt><trkpt lat="42.2319885" lon="12.2966358"><ele>237.33333333333331</ele><time>2026-04-19T14:21:48.768Z</time></trkpt><trkpt lat="42.2320323" lon="12.2968393"><ele>238.0</ele><time>2026-04-19T14:21:49.767Z</time></trkpt><trkpt lat="42.2320722" lon="12.2970387"><ele>238.0</ele><time>2026-04-19T14:21:50.768Z</time></trkpt><trkpt lat="42.2321098" lon="12.2972462"><ele>238.0</ele><time>2026-04-19T14:21:51.767Z</time></trkpt><trkpt lat="42.2321257" lon="12.2974581"><ele>238.0</ele><time>2026-04-19T14:21:52.767Z</time></trkpt><trkpt lat="42.2321375" lon="12.2976753"><ele>240.0</ele><time>2026-04-19T14:21:53.768Z</time></trkpt><trkpt lat="42.232145" lon="12.2978799"><ele>242.0</ele><time>2026-04-19T14:21:54.768Z</time></trkpt><trkpt lat="42.2321619" lon="12.2980899"><ele>244.0</ele><time>2026-04-19T14:21:55.768Z</time></trkpt><trkpt lat="42.2321821" lon="12.298293"><ele>244.5</ele><time>2026-04-19T14:21:56.768Z</time></trkpt><trkpt lat="42.232214" lon="12.2984885"><ele>245.0</ele><time>2026-04-19T14:21:57.767Z</time></trkpt><trkpt lat="42.2322524" lon="12.2986752"><ele>245.5</ele><time>2026-04-19T14:21:58.767Z</time></trkpt><trkpt lat="42.2322943" lon="12.2988572"><ele>246.0</ele><time>2026-04-19T14:21:59.768Z</time></trkpt><trkpt lat="42.232332" lon="12.2990339"><ele>244.5</ele><time>2026-04-19T14:22:00.768Z</time></trkpt><trkpt lat="42.2323717" lon="12.2992003"><ele>243.0</ele><time>2026-04-19T14:22:01.767Z</time></trkpt><trkpt lat="42.232409" lon="12.2993652"><ele>241.5</ele><time>2026-04-19T14:22:02.766Z</time></trkpt><trkpt lat="42.2324474" lon="12.2995227"><ele>240.0</ele><time>2026-04-19T14:22:03.767Z</time></trkpt><trkpt lat="42.2324824" lon="12.2996772"><ele>239.4</ele><time>2026-04-19T14:22:04.766Z</time></trkpt><trkpt lat="42.2325153" lon="12.2998263"><ele>238.8</ele><time>2026-04-19T14:22:05.766Z</time></trkpt><trkpt lat="42.2325518" lon="12.2999684"><ele>238.2</ele><time>2026-04-19T14:22:06.767Z</time></trkpt><trkpt lat="42.2325784" lon="12.3000966"><ele>237.6</ele><time>2026-04-19T14:22:07.767Z</time></trkpt><trkpt lat="42.2325917" lon="12.3002049"><ele>237.0</ele><time>2026-04-19T14:22:08.768Z</time></trkpt><trkpt lat="42.2325992" lon="12.3003384"><ele>237.0</ele><time>2026-04-19T14:22:10.768Z</time></trkpt><trkpt lat="42.2325905" lon="12.3004414"><ele>237.0</ele><time>2026-04-19T14:22:16.767Z</time></trkpt><trkpt lat="42.2325681" lon="12.3005919"><ele>237.0</ele><time>2026-04-19T14:22:18.766Z</time></trkpt><trkpt lat="42.2325823" lon="12.3006844"><ele>237.0</ele><time>2026-04-19T14:22:19.767Z</time></trkpt><trkpt lat="42.2326143" lon="12.3007745"><ele>237.0</ele><time>2026-04-19T14:22:20.767Z</time></trkpt><trkpt lat="42.2326603" lon="12.3008863"><ele>237.0</ele><time>2026-04-19T14:22:21.767Z</time></trkpt><trkpt lat="42.2326902" lon="12.3010273"><ele>236.75</ele><time>2026-04-19T14:22:22.767Z</time></trkpt><trkpt lat="42.2327049" lon="12.3011913"><ele>236.5</ele><time>2026-04-19T14:22:23.768Z</time></trkpt><trkpt lat="42.2327175" lon="12.3013707"><ele>236.25</ele><time>2026-04-19T14:22:24.767Z</time></trkpt><trkpt lat="42.2327309" lon="12.3015729"><ele>236.0</ele><time>2026-04-19T14:22:25.768Z</time></trkpt><trkpt lat="42.2327424" lon="12.3017931"><ele>236.0</ele><time>2026-04-19T14:22:26.767Z</time></trkpt><trkpt lat="42.2327641" lon="12.3020247"><ele>236.0</ele><time>2026-04-19T14:22:27.768Z</time></trkpt><trkpt lat="42.2327812" lon="12.3022749"><ele>236.0</ele><time>2026-04-19T14:22:28.767Z</time></trkpt><trkpt lat="42.2327963" lon="12.3025393"><ele>235.66666666666669</ele><time>2026-04-19T14:22:29.768Z</time></trkpt><trkpt lat="42.2328118" lon="12.3028101"><ele>235.33333333333331</ele><time>2026-04-19T14:22:30.767Z</time></trkpt><trkpt lat="42.232831" lon="12.3030847"><ele>235.0</ele><time>2026-04-19T14:22:31.767Z</time></trkpt><trkpt lat="42.2328518" lon="12.3033545"><ele>235.0</ele><time>2026-04-19T14:22:32.768Z</time></trkpt><trkpt lat="42.2328708" lon="12.3036168"><ele>235.0</ele><time>2026-04-19T14:22:33.768Z</time></trkpt><trkpt lat="42.2328889" lon="12.3038719"><ele>235.0</ele><time>2026-04-19T14:22:34.768Z</time></trkpt><trkpt lat="42.2329171" lon="12.3043607"><ele>235.33333333333331</ele><time>2026-04-19T14:22:36.768Z</time></trkpt><trkpt lat="42.2329282" lon="12.3045939"><ele>235.66666666666669</ele><time>2026-04-19T14:22:37.767Z</time></trkpt><trkpt lat="42.2329246" lon="12.3048229"><ele>236.0</ele><time>2026-04-19T14:22:38.768Z</time></trkpt><trkpt lat="42.2329006" lon="12.3050511"><ele>236.0</ele><time>2026-04-19T14:22:39.767Z</time></trkpt><trkpt lat="42.2328671" lon="12.305283"><ele>236.0</ele><time>2026-04-19T14:22:40.767Z</time></trkpt><trkpt lat="42.2328264" lon="12.3055154"><ele>236.0</ele><time>2026-04-19T14:22:41.766Z</time></trkpt><trkpt lat="42.2327913" lon="12.3057528"><ele>235.33333333333334</ele><time>2026-04-19T14:22:42.767Z</time></trkpt><trkpt lat="42.2327534" lon="12.3059922"><ele>234.66666666666669</ele><time>2026-04-19T14:22:43.766Z</time></trkpt><trkpt lat="42.2327276" lon="12.306234"><ele>234.0</ele><time>2026-04-19T14:22:44.768Z</time></trkpt><trkpt lat="42.2327114" lon="12.3064785"><ele>234.0</ele><time>2026-04-19T14:22:45.767Z</time></trkpt><trkpt lat="42.2327035" lon="12.3067245"><ele>234.0</ele><time>2026-04-19T14:22:46.767Z</time></trkpt><trkpt lat="42.232703" lon="12.3069681"><ele>234.0</ele><time>2026-04-19T14:22:47.768Z</time></trkpt><trkpt lat="42.2327176" lon="12.3072104"><ele>234.33333333333331</ele><time>2026-04-19T14:22:48.767Z</time></trkpt><trkpt lat="42.2327448" lon="12.3074526"><ele>234.66666666666666</ele><time>2026-04-19T14:22:49.767Z</time></trkpt><trkpt lat="42.232791" lon="12.3076967"><ele>235.0</ele><time>2026-04-19T14:22:50.767Z</time></trkpt><trkpt lat="42.2328445" lon="12.3079358"><ele>235.66666666666666</ele><time>2026-04-19T14:22:51.767Z</time></trkpt><trkpt lat="42.2328915" lon="12.3081644"><ele>236.33333333333331</ele><time>2026-04-19T14:22:52.768Z</time></trkpt><trkpt lat="42.2329412" lon="12.3083755"><ele>237.0</ele><time>2026-04-19T14:22:53.768Z</time></trkpt><trkpt lat="42.2329949" lon="12.3085779"><ele>237.0</ele><time>2026-04-19T14:22:54.766Z</time></trkpt><trkpt lat="42.2330556" lon="12.3087728"><ele>237.0</ele><time>2026-04-19T14:22:55.766Z</time></trkpt><trkpt lat="42.2331349" lon="12.3089605"><ele>237.0</ele><time>2026-04-19T14:22:56.766Z</time></trkpt><trkpt lat="42.2332279" lon="12.3091517"><ele>238.0</ele><time>2026-04-19T14:22:57.767Z</time></trkpt><trkpt lat="42.2333129" lon="12.3093414"><ele>239.0</ele><time>2026-04-19T14:22:58.766Z</time></trkpt><trkpt lat="42.2334161" lon="12.3095471"><ele>240.0</ele><time>2026-04-19T14:22:59.766Z</time></trkpt><trkpt lat="42.2334965" lon="12.309739"><ele>240.33333333333331</ele><time>2026-04-19T14:23:00.767Z</time></trkpt><trkpt lat="42.2335702" lon="12.3099495"><ele>240.66666666666666</ele><time>2026-04-19T14:23:01.765Z</time></trkpt><trkpt lat="42.2336415" lon="12.310145"><ele>241.0</ele><time>2026-04-19T14:23:02.765Z</time></trkpt><trkpt lat="42.2336933" lon="12.3103404"><ele>241.0</ele><time>2026-04-19T14:23:03.766Z</time></trkpt><trkpt lat="42.233732" lon="12.3105344"><ele>241.0</ele><time>2026-04-19T14:23:04.766Z</time></trkpt><trkpt lat="42.2337601" lon="12.3107365"><ele>241.0</ele><time>2026-04-19T14:23:05.767Z</time></trkpt><trkpt lat="42.2337541" lon="12.3109422"><ele>240.0</ele><time>2026-04-19T14:23:06.767Z</time></trkpt><trkpt lat="42.2337514" lon="12.3111485"><ele>239.0</ele><time>2026-04-19T14:23:07.767Z</time></trkpt><trkpt lat="42.2337501" lon="12.3113523"><ele>238.0</ele><time>2026-04-19T14:23:08.767Z</time></trkpt><trkpt lat="42.2337623" lon="12.3115704"><ele>237.0</ele><time>2026-04-19T14:23:09.766Z</time></trkpt><trkpt lat="42.2337751" lon="12.3117867"><ele>236.0</ele><time>2026-04-19T14:23:10.766Z</time></trkpt><trkpt lat="42.2337943" lon="12.3119926"><ele>235.0</ele><time>2026-04-19T14:23:11.765Z</time></trkpt><trkpt lat="42.2338103" lon="12.3121926"><ele>234.5</ele><time>2026-04-19T14:23:12.766Z</time></trkpt><trkpt lat="42.2338345" lon="12.3123823"><ele>234.0</ele><time>2026-04-19T14:23:13.766Z</time></trkpt><trkpt lat="42.2338691" lon="12.3125607"><ele>233.5</ele><time>2026-04-19T14:23:14.765Z</time></trkpt><trkpt lat="42.2339145" lon="12.3127216"><ele>233.0</ele><time>2026-04-19T14:23:15.766Z</time></trkpt><trkpt lat="42.233972" lon="12.3128829"><ele>232.25</ele><time>2026-04-19T14:23:16.766Z</time></trkpt><trkpt lat="42.2340325" lon="12.3130377"><ele>231.5</ele><time>2026-04-19T14:23:17.767Z</time></trkpt><trkpt lat="42.2341037" lon="12.3131826"><ele>230.75</ele><time>2026-04-19T14:23:18.767Z</time></trkpt><trkpt lat="42.2341861" lon="12.3133249"><ele>230.0</ele><time>2026-04-19T14:23:19.767Z</time></trkpt><trkpt lat="42.2342745" lon="12.313468"><ele>230.0</ele><time>2026-04-19T14:23:20.766Z</time></trkpt><trkpt lat="42.2343617" lon="12.3136081"><ele>230.0</ele><time>2026-04-19T14:23:21.766Z</time></trkpt><trkpt lat="42.2344501" lon="12.3137447"><ele>230.0</ele><time>2026-04-19T14:23:22.765Z</time></trkpt><trkpt lat="42.2345334" lon="12.3138781"><ele>230.0</ele><time>2026-04-19T14:23:23.766Z</time></trkpt><trkpt lat="42.2346124" lon="12.3140062"><ele>230.25</ele><time>2026-04-19T14:23:24.767Z</time></trkpt><trkpt lat="42.2346794" lon="12.3141381"><ele>230.5</ele><time>2026-04-19T14:23:25.766Z</time></trkpt><trkpt lat="42.2347385" lon="12.3142766"><ele>230.75</ele><time>2026-04-19T14:23:26.767Z</time></trkpt><trkpt lat="42.2347937" lon="12.3144248"><ele>231.0</ele><time>2026-04-19T14:23:27.767Z</time></trkpt><trkpt lat="42.2348369" lon="12.3145796"><ele>230.75</ele><time>2026-04-19T14:23:28.767Z</time></trkpt><trkpt lat="42.2348738" lon="12.3147408"><ele>230.5</ele><time>2026-04-19T14:23:29.767Z</time></trkpt><trkpt lat="42.23489" lon="12.3149116"><ele>230.25</ele><time>2026-04-19T14:23:30.767Z</time></trkpt><trkpt lat="42.2348886" lon="12.3150818"><ele>230.0</ele><time>2026-04-19T14:23:31.766Z</time></trkpt><trkpt lat="42.2348663" lon="12.3152567"><ele>230.0</ele><time>2026-04-19T14:23:32.767Z</time></trkpt><trkpt lat="42.2348267" lon="12.3154182"><ele>230.0</ele><time>2026-04-19T14:23:33.765Z</time></trkpt><trkpt lat="42.2347715" lon="12.315573"><ele>230.0</ele><time>2026-04-19T14:23:34.766Z</time></trkpt><trkpt lat="42.2347026" lon="12.3157207"><ele>230.0</ele><time>2026-04-19T14:23:35.767Z</time></trkpt><trkpt lat="42.2346215" lon="12.3158557"><ele>231.25</ele><time>2026-04-19T14:23:36.767Z</time></trkpt><trkpt lat="42.2345304" lon="12.3159803"><ele>232.5</ele><time>2026-04-19T14:23:37.766Z</time></trkpt><trkpt lat="42.2344345" lon="12.316104"><ele>233.75</ele><time>2026-04-19T14:23:38.767Z</time></trkpt><trkpt lat="42.2343421" lon="12.3162316"><ele>235.0</ele><time>2026-04-19T14:23:39.767Z</time></trkpt><trkpt lat="42.2342599" lon="12.3163765"><ele>234.5</ele><time>2026-04-19T14:23:40.766Z</time></trkpt><trkpt lat="42.2341947" lon="12.3165286"><ele>234.0</ele><time>2026-04-19T14:23:41.766Z</time></trkpt><trkpt lat="42.2341317" lon="12.3166642"><ele>233.5</ele><time>2026-04-19T14:23:42.766Z</time></trkpt><trkpt lat="42.2340699" lon="12.3168115"><ele>233.0</ele><time>2026-04-19T14:23:43.765Z</time></trkpt><trkpt lat="42.2340074" lon="12.3169657"><ele>233.5</ele><time>2026-04-19T14:23:44.766Z</time></trkpt><trkpt lat="42.2339474" lon="12.3171151"><ele>234.0</ele><time>2026-04-19T14:23:45.765Z</time></trkpt><trkpt lat="42.2338882" lon="12.3172756"><ele>234.5</ele><time>2026-04-19T14:23:46.766Z</time></trkpt><trkpt lat="42.2338324" lon="12.3174245"><ele>235.0</ele><time>2026-04-19T14:23:47.766Z</time></trkpt><trkpt lat="42.2337713" lon="12.3175907"><ele>235.0</ele><time>2026-04-19T14:23:48.765Z</time></trkpt><trkpt lat="42.2337094" lon="12.3177492"><ele>235.0</ele><time>2026-04-19T14:23:49.766Z</time></trkpt><trkpt lat="42.2336502" lon="12.3179127"><ele>235.0</ele><time>2026-04-19T14:23:50.765Z</time></trkpt><trkpt lat="42.2335947" lon="12.3180737"><ele>235.0</ele><time>2026-04-19T14:23:51.767Z</time></trkpt><trkpt lat="42.2335446" lon="12.3182213"><ele>234.5</ele><time>2026-04-19T14:23:52.766Z</time></trkpt><trkpt lat="42.233492" lon="12.3183724"><ele>234.0</ele><time>2026-04-19T14:23:53.767Z</time></trkpt><trkpt lat="42.2334406" lon="12.3185183"><ele>233.5</ele><time>2026-04-19T14:23:54.767Z</time></trkpt><trkpt lat="42.233392" lon="12.3186552"><ele>233.0</ele><time>2026-04-19T14:23:55.766Z</time></trkpt><trkpt lat="42.2333477" lon="12.3187801"><ele>233.00000000000003</ele><time>2026-04-19T14:23:56.766Z</time></trkpt><trkpt lat="42.233308" lon="12.3189025"><ele>233.0</ele><time>2026-04-19T14:23:57.767Z</time></trkpt><trkpt lat="42.2332742" lon="12.3190099"><ele>233.0</ele><time>2026-04-19T14:23:58.766Z</time></trkpt><trkpt lat="42.2332635" lon="12.3191111"><ele>233.0</ele><time>2026-04-19T14:23:59.765Z</time></trkpt><trkpt lat="42.2332684" lon="12.3192041"><ele>233.00000000000003</ele><time>2026-04-19T14:24:00.766Z</time></trkpt><trkpt lat="42.2332858" lon="12.3192879"><ele>233.0</ele><time>2026-04-19T14:24:01.766Z</time></trkpt><trkpt lat="42.2333397" lon="12.3194368"><ele>233.00000000000003</ele><time>2026-04-19T14:24:03.767Z</time></trkpt><trkpt lat="42.2333629" lon="12.3195237"><ele>233.0</ele><time>2026-04-19T14:24:04.766Z</time></trkpt><trkpt lat="42.233383" lon="12.3196043"><ele>233.0</ele><time>2026-04-19T14:24:05.766Z</time></trkpt><trkpt lat="42.2334194" lon="12.319746"><ele>233.0</ele><time>2026-04-19T14:24:07.767Z</time></trkpt><trkpt lat="42.2334347" lon="12.3198761"><ele>233.00000000000003</ele><time>2026-04-19T14:24:09.767Z</time></trkpt><trkpt lat="42.2333948" lon="12.3199888"><ele>233.0</ele><time>2026-04-19T14:24:11.766Z</time></trkpt><trkpt lat="42.233311" lon="12.3200922"><ele>233.42857142857144</ele><time>2026-04-19T14:24:13.766Z</time></trkpt><trkpt lat="42.2332714" lon="12.3201629"><ele>233.85714285714283</ele><time>2026-04-19T14:24:14.766Z</time></trkpt><trkpt lat="42.2332529" lon="12.3202473"><ele>234.28571428571428</ele><time>2026-04-19T14:24:15.766Z</time></trkpt><trkpt lat="42.2332615" lon="12.3203379"><ele>234.71428571428572</ele><time>2026-04-19T14:24:16.766Z</time></trkpt><trkpt lat="42.2332959" lon="12.3204113"><ele>235.14285714285717</ele><time>2026-04-19T14:24:17.767Z</time></trkpt><trkpt lat="42.2333565" lon="12.32046"><ele>235.57142857142856</ele><time>2026-04-19T14:24:18.766Z</time></trkpt><trkpt lat="42.233434" lon="12.3204732"><ele>236.0</ele><time>2026-04-19T14:24:19.767Z</time></trkpt><trkpt lat="42.2335228" lon="12.3205066"><ele>236.0</ele><time>2026-04-19T14:24:20.766Z</time></trkpt><trkpt lat="42.233618" lon="12.3205786"><ele>236.0</ele><time>2026-04-19T14:24:21.766Z</time></trkpt><trkpt lat="42.2337121" lon="12.3207218"><ele>236.0</ele><time>2026-04-19T14:24:22.766Z</time></trkpt><trkpt lat="42.2337989" lon="12.3208585"><ele>236.0</ele><time>2026-04-19T14:24:23.766Z</time></trkpt><trkpt lat="42.2339018" lon="12.3210188"><ele>236.33333333333334</ele><time>2026-04-19T14:24:24.766Z</time></trkpt><trkpt lat="42.2340181" lon="12.3212017"><ele>236.66666666666669</ele><time>2026-04-19T14:24:25.767Z</time></trkpt><trkpt lat="42.2341458" lon="12.3214161"><ele>237.0</ele><time>2026-04-19T14:24:26.766Z</time></trkpt><trkpt lat="42.2342692" lon="12.3216527"><ele>237.66666666666669</ele><time>2026-04-19T14:24:27.766Z</time></trkpt><trkpt lat="42.2343781" lon="12.3219126"><ele>238.33333333333334</ele><time>2026-04-19T14:24:28.767Z</time></trkpt><trkpt lat="42.2344636" lon="12.3221952"><ele>239.0</ele><time>2026-04-19T14:24:29.767Z</time></trkpt><trkpt lat="42.2345438" lon="12.3224989"><ele>239.5</ele><time>2026-04-19T14:24:30.767Z</time></trkpt><trkpt lat="42.2346054" lon="12.3228306"><ele>240.0</ele><time>2026-04-19T14:24:31.767Z</time></trkpt><trkpt lat="42.234679" lon="12.3231795"><ele>240.0</ele><time>2026-04-19T14:24:32.767Z</time></trkpt><trkpt lat="42.2347453" lon="12.3235367"><ele>240.0</ele><time>2026-04-19T14:24:33.767Z</time></trkpt><trkpt lat="42.2348131" lon="12.3238816"><ele>240.0</ele><time>2026-04-19T14:24:34.766Z</time></trkpt><trkpt lat="42.2348692" lon="12.3242128"><ele>240.0</ele><time>2026-04-19T14:24:35.766Z</time></trkpt><trkpt lat="42.2349301" lon="12.3245266"><ele>239.5</ele><time>2026-04-19T14:24:36.767Z</time></trkpt><trkpt lat="42.2349847" lon="12.3248321"><ele>239.0</ele><time>2026-04-19T14:24:37.767Z</time></trkpt><trkpt lat="42.2350377" lon="12.325121"><ele>239.0</ele><time>2026-04-19T14:24:38.765Z</time></trkpt><trkpt lat="42.2350835" lon="12.3254058"><ele>239.0</ele><time>2026-04-19T14:24:39.765Z</time></trkpt><trkpt lat="42.2351319" lon="12.3256968"><ele>239.0</ele><time>2026-04-19T14:24:40.766Z</time></trkpt><trkpt lat="42.235187" lon="12.3259723"><ele>238.66666666666669</ele><time>2026-04-19T14:24:41.766Z</time></trkpt><trkpt lat="42.2352322" lon="12.3262357"><ele>238.33333333333331</ele><time>2026-04-19T14:24:42.766Z</time></trkpt><trkpt lat="42.2352872" lon="12.3265002"><ele>238.0</ele><time>2026-04-19T14:24:43.767Z</time></trkpt><trkpt lat="42.2353395" lon="12.326759"><ele>238.0</ele><time>2026-04-19T14:24:44.766Z</time></trkpt><trkpt lat="42.2353961" lon="12.32701"><ele>238.0</ele><time>2026-04-19T14:24:45.766Z</time></trkpt><trkpt lat="42.2354497" lon="12.3272503"><ele>238.0</ele><time>2026-04-19T14:24:46.766Z</time></trkpt><trkpt lat="42.2355079" lon="12.3274736"><ele>238.33333333333331</ele><time>2026-04-19T14:24:47.766Z</time></trkpt><trkpt lat="42.2355823" lon="12.3276893"><ele>238.66666666666669</ele><time>2026-04-19T14:24:48.767Z</time></trkpt><trkpt lat="42.2356734" lon="12.3279004"><ele>239.0</ele><time>2026-04-19T14:24:49.767Z</time></trkpt><trkpt lat="42.2357787" lon="12.3281064"><ele>237.66666666666669</ele><time>2026-04-19T14:24:50.766Z</time></trkpt><trkpt lat="42.2358871" lon="12.3283001"><ele>236.33333333333331</ele><time>2026-04-19T14:24:51.767Z</time></trkpt><trkpt lat="42.2360008" lon="12.3284734"><ele>235.0</ele><time>2026-04-19T14:24:52.767Z</time></trkpt><trkpt lat="42.236326" lon="12.3290763"><ele>235.0</ele><time>2026-04-19T14:24:56.766Z</time></trkpt><trkpt lat="42.2363613" lon="12.3292095"><ele>235.0</ele><time>2026-04-19T14:24:57.767Z</time></trkpt><trkpt lat="42.2363977" lon="12.3293312"><ele>235.0</ele><time>2026-04-19T14:24:58.765Z</time></trkpt><trkpt lat="42.2364561" lon="12.3294173"><ele>235.0</ele><time>2026-04-19T14:24:59.767Z</time></trkpt><trkpt lat="42.2365212" lon="12.3294716"><ele>235.0</ele><time>2026-04-19T14:25:00.767Z</time></trkpt><trkpt lat="42.2365984" lon="12.329547"><ele>235.0</ele><time>2026-04-19T14:25:01.766Z</time></trkpt><trkpt lat="42.2366732" lon="12.3296531"><ele>235.0</ele><time>2026-04-19T14:25:02.767Z</time></trkpt><trkpt lat="42.2367499" lon="12.3297796"><ele>235.0</ele><time>2026-04-19T14:25:03.767Z</time></trkpt><trkpt lat="42.2368273" lon="12.329921"><ele>235.0</ele><time>2026-04-19T14:25:04.765Z</time></trkpt><trkpt lat="42.2369122" lon="12.330071"><ele>235.25</ele><time>2026-04-19T14:25:05.767Z</time></trkpt><trkpt lat="42.237001" lon="12.3302277"><ele>235.5</ele><time>2026-04-19T14:25:06.767Z</time></trkpt><trkpt lat="42.2370886" lon="12.3303855"><ele>235.75</ele><time>2026-04-19T14:25:07.766Z</time></trkpt><trkpt lat="42.2371775" lon="12.3305438"><ele>236.0</ele><time>2026-04-19T14:25:08.767Z</time></trkpt><trkpt lat="42.2372575" lon="12.3306886"><ele>236.0</ele><time>2026-04-19T14:25:09.766Z</time></trkpt><trkpt lat="42.2373199" lon="12.3308091"><ele>236.0</ele><time>2026-04-19T14:25:10.767Z</time></trkpt><trkpt lat="42.2373772" lon="12.3309277"><ele>236.0</ele><time>2026-04-19T14:25:11.767Z</time></trkpt><trkpt lat="42.23745" lon="12.3310476"><ele>236.0</ele><time>2026-04-19T14:25:12.766Z</time></trkpt><trkpt lat="42.2375274" lon="12.3311835"><ele>236.0</ele><time>2026-04-19T14:25:13.766Z</time></trkpt><trkpt lat="42.2376098" lon="12.331332"><ele>236.0</ele><time>2026-04-19T14:25:14.767Z</time></trkpt><trkpt lat="42.2376999" lon="12.3314979"><ele>236.0</ele><time>2026-04-19T14:25:15.766Z</time></trkpt><trkpt lat="42.2377988" lon="12.3316761"><ele>236.33333333333334</ele><time>2026-04-19T14:25:16.766Z</time></trkpt><trkpt lat="42.2379027" lon="12.3318702"><ele>236.66666666666669</ele><time>2026-04-19T14:25:17.767Z</time></trkpt><trkpt lat="42.2380145" lon="12.3320677"><ele>237.0</ele><time>2026-04-19T14:25:18.765Z</time></trkpt><trkpt lat="42.2381312" lon="12.3322721"><ele>237.0</ele><time>2026-04-19T14:25:19.765Z</time></trkpt><trkpt lat="42.2382505" lon="12.3324796"><ele>237.0</ele><time>2026-04-19T14:25:20.767Z</time></trkpt><trkpt lat="42.2383621" lon="12.3326839"><ele>237.0</ele><time>2026-04-19T14:25:21.765Z</time></trkpt><trkpt lat="42.2384729" lon="12.3328824"><ele>236.66666666666669</ele><time>2026-04-19T14:25:22.767Z</time></trkpt><trkpt lat="42.23859" lon="12.3330672"><ele>236.33333333333334</ele><time>2026-04-19T14:25:23.767Z</time></trkpt><trkpt lat="42.2387002" lon="12.3332499"><ele>236.0</ele><time>2026-04-19T14:25:24.767Z</time></trkpt><trkpt lat="42.2387956" lon="12.3334216"><ele>236.0</ele><time>2026-04-19T14:25:25.765Z</time></trkpt><trkpt lat="42.2388904" lon="12.3335998"><ele>236.0</ele><time>2026-04-19T14:25:26.767Z</time></trkpt><trkpt lat="42.2389878" lon="12.3337634"><ele>236.0</ele><time>2026-04-19T14:25:27.766Z</time></trkpt><trkpt lat="42.2390778" lon="12.33392"><ele>235.25</ele><time>2026-04-19T14:25:28.766Z</time></trkpt><trkpt lat="42.2391634" lon="12.3340669"><ele>234.5</ele><time>2026-04-19T14:25:29.765Z</time></trkpt><trkpt lat="42.2392409" lon="12.3342015"><ele>233.75</ele><time>2026-04-19T14:25:30.766Z</time></trkpt><trkpt lat="42.2393142" lon="12.3343389"><ele>233.0</ele><time>2026-04-19T14:25:31.766Z</time></trkpt><trkpt lat="42.239377" lon="12.3344765"><ele>233.0</ele><time>2026-04-19T14:25:32.765Z</time></trkpt><trkpt lat="42.2394353" lon="12.3346046"><ele>233.0</ele><time>2026-04-19T14:25:33.766Z</time></trkpt><trkpt lat="42.2395009" lon="12.3347265"><ele>233.0</ele><time>2026-04-19T14:25:34.766Z</time></trkpt><trkpt lat="42.2395703" lon="12.3348401"><ele>233.0</ele><time>2026-04-19T14:25:35.767Z</time></trkpt><trkpt lat="42.2396413" lon="12.3349582"><ele>233.0</ele><time>2026-04-19T14:25:36.767Z</time></trkpt><trkpt lat="42.2397223" lon="12.335087"><ele>232.5</ele><time>2026-04-19T14:25:37.767Z</time></trkpt><trkpt lat="42.2398072" lon="12.3352253"><ele>232.0</ele><time>2026-04-19T14:25:38.767Z</time></trkpt><trkpt lat="42.239897" lon="12.3353758"><ele>231.5</ele><time>2026-04-19T14:25:39.767Z</time></trkpt><trkpt lat="42.2399858" lon="12.3355313"><ele>231.0</ele><time>2026-04-19T14:25:40.767Z</time></trkpt><trkpt lat="42.2400751" lon="12.3356952"><ele>231.0</ele><time>2026-04-19T14:25:41.767Z</time></trkpt><trkpt lat="42.2401746" lon="12.3358641"><ele>231.0</ele><time>2026-04-19T14:25:42.767Z</time></trkpt><trkpt lat="42.2402702" lon="12.3360315"><ele>231.0</ele><time>2026-04-19T14:25:43.766Z</time></trkpt><trkpt lat="42.2403679" lon="12.3361973"><ele>231.0</ele><time>2026-04-19T14:25:44.766Z</time></trkpt><trkpt lat="42.240473" lon="12.3363616"><ele>231.0</ele><time>2026-04-19T14:25:45.766Z</time></trkpt><trkpt lat="42.2405858" lon="12.336513"><ele>231.0</ele><time>2026-04-19T14:25:46.767Z</time></trkpt><trkpt lat="42.2407047" lon="12.3366491"><ele>230.33333333333331</ele><time>2026-04-19T14:25:47.767Z</time></trkpt><trkpt lat="42.2408282" lon="12.3367767"><ele>229.66666666666666</ele><time>2026-04-19T14:25:48.766Z</time></trkpt><trkpt lat="42.2409538" lon="12.3369005"><ele>229.0</ele><time>2026-04-19T14:25:49.765Z</time></trkpt><trkpt lat="42.2410724" lon="12.3370241"><ele>229.0</ele><time>2026-04-19T14:25:50.766Z</time></trkpt><trkpt lat="42.2411864" lon="12.3371491"><ele>229.0</ele><time>2026-04-19T14:25:51.766Z</time></trkpt><trkpt lat="42.2412952" lon="12.3372753"><ele>229.0</ele><time>2026-04-19T14:25:52.766Z</time></trkpt><trkpt lat="42.2413962" lon="12.3374072"><ele>229.0</ele><time>2026-04-19T14:25:53.765Z</time></trkpt><trkpt lat="42.2414785" lon="12.3375478"><ele>227.75</ele><time>2026-04-19T14:25:54.765Z</time></trkpt><trkpt lat="42.2415439" lon="12.3376981"><ele>226.5</ele><time>2026-04-19T14:25:55.766Z</time></trkpt><trkpt lat="42.2415865" lon="12.3378686"><ele>225.25</ele><time>2026-04-19T14:25:56.767Z</time></trkpt><trkpt lat="42.2416267" lon="12.3380409"><ele>224.0</ele><time>2026-04-19T14:25:57.767Z</time></trkpt><trkpt lat="42.2416604" lon="12.3382195"><ele>224.0</ele><time>2026-04-19T14:25:58.766Z</time></trkpt><trkpt lat="42.2416965" lon="12.3384012"><ele>224.0</ele><time>2026-04-19T14:25:59.767Z</time></trkpt><trkpt lat="42.2417351" lon="12.3385904"><ele>224.0</ele><time>2026-04-19T14:26:00.767Z</time></trkpt><trkpt lat="42.2417738" lon="12.3387823"><ele>224.0</ele><time>2026-04-19T14:26:01.767Z</time></trkpt><trkpt lat="42.2418147" lon="12.3389765"><ele>224.25</ele><time>2026-04-19T14:26:02.767Z</time></trkpt><trkpt lat="42.241857" lon="12.339169"><ele>224.5</ele><time>2026-04-19T14:26:03.766Z</time></trkpt><trkpt lat="42.2418995" lon="12.3393545"><ele>224.75</ele><time>2026-04-19T14:26:04.766Z</time></trkpt><trkpt lat="42.2419405" lon="12.3395396"><ele>225.0</ele><time>2026-04-19T14:26:05.765Z</time></trkpt><trkpt lat="42.2419785" lon="12.3397211"><ele>225.0</ele><time>2026-04-19T14:26:06.766Z</time></trkpt><trkpt lat="42.2420117" lon="12.3398972"><ele>225.0</ele><time>2026-04-19T14:26:07.766Z</time></trkpt><trkpt lat="42.2420463" lon="12.3400659"><ele>225.0</ele><time>2026-04-19T14:26:08.766Z</time></trkpt><trkpt lat="42.2420808" lon="12.340237"><ele>225.0</ele><time>2026-04-19T14:26:09.767Z</time></trkpt><trkpt lat="42.2421154" lon="12.3404081"><ele>225.0</ele><time>2026-04-19T14:26:10.767Z</time></trkpt><trkpt lat="42.242152" lon="12.3405746"><ele>225.0</ele><time>2026-04-19T14:26:11.766Z</time></trkpt><trkpt lat="42.2421873" lon="12.3407356"><ele>225.0</ele><time>2026-04-19T14:26:12.767Z</time></trkpt><trkpt lat="42.24223" lon="12.3408945"><ele>225.0</ele><time>2026-04-19T14:26:13.767Z</time></trkpt><trkpt lat="42.2422647" lon="12.3410542"><ele>225.0</ele><time>2026-04-19T14:26:14.767Z</time></trkpt><trkpt lat="42.2422941" lon="12.3412115"><ele>225.0</ele><time>2026-04-19T14:26:15.766Z</time></trkpt><trkpt lat="42.2423202" lon="12.3413628"><ele>225.0</ele><time>2026-04-19T14:26:16.767Z</time></trkpt><trkpt lat="42.242333" lon="12.3415055"><ele>225.0</ele><time>2026-04-19T14:26:17.767Z</time></trkpt><trkpt lat="42.2423364" lon="12.3416512"><ele>225.0</ele><time>2026-04-19T14:26:18.767Z</time></trkpt><trkpt lat="42.2423295" lon="12.3418015"><ele>225.0</ele><time>2026-04-19T14:26:19.766Z</time></trkpt><trkpt lat="42.2423207" lon="12.3419515"><ele>225.0</ele><time>2026-04-19T14:26:20.767Z</time></trkpt><trkpt lat="42.242314" lon="12.3421092"><ele>225.0</ele><time>2026-04-19T14:26:21.766Z</time></trkpt><trkpt lat="42.2423079" lon="12.3422704"><ele>225.0</ele><time>2026-04-19T14:26:22.765Z</time></trkpt><trkpt lat="42.2422983" lon="12.3424344"><ele>224.75</ele><time>2026-04-19T14:26:23.766Z</time></trkpt><trkpt lat="42.2422873" lon="12.3426036"><ele>224.5</ele><time>2026-04-19T14:26:24.767Z</time></trkpt><trkpt lat="42.2422793" lon="12.3427836"><ele>224.25</ele><time>2026-04-19T14:26:25.767Z</time></trkpt><trkpt lat="42.2422699" lon="12.3429728"><ele>224.0</ele><time>2026-04-19T14:26:26.767Z</time></trkpt><trkpt lat="42.2422577" lon="12.3431703"><ele>223.25</ele><time>2026-04-19T14:26:27.767Z</time></trkpt><trkpt lat="42.2422502" lon="12.3433714"><ele>222.5</ele><time>2026-04-19T14:26:28.767Z</time></trkpt><trkpt lat="42.2422399" lon="12.3435683"><ele>221.75</ele><time>2026-04-19T14:26:29.767Z</time></trkpt><trkpt lat="42.2422296" lon="12.3437486"><ele>221.0</ele><time>2026-04-19T14:26:30.767Z</time></trkpt><trkpt lat="42.2422152" lon="12.3439205"><ele>220.8</ele><time>2026-04-19T14:26:31.767Z</time></trkpt><trkpt lat="42.2422091" lon="12.3440818"><ele>220.60000000000002</ele><time>2026-04-19T14:26:32.767Z</time></trkpt><trkpt lat="42.242204" lon="12.3442298"><ele>220.4</ele><time>2026-04-19T14:26:33.767Z</time></trkpt><trkpt lat="42.242194" lon="12.3443735"><ele>220.2</ele><time>2026-04-19T14:26:34.765Z</time></trkpt><trkpt lat="42.2421872" lon="12.3445103"><ele>220.0</ele><time>2026-04-19T14:26:35.767Z</time></trkpt><trkpt lat="42.2421815" lon="12.3446527"><ele>220.75</ele><time>2026-04-19T14:26:36.767Z</time></trkpt><trkpt lat="42.242171" lon="12.3448013"><ele>221.5</ele><time>2026-04-19T14:26:37.767Z</time></trkpt><trkpt lat="42.2421706" lon="12.3449476"><ele>222.25</ele><time>2026-04-19T14:26:38.767Z</time></trkpt><trkpt lat="42.2421809" lon="12.345102"><ele>223.0</ele><time>2026-04-19T14:26:39.766Z</time></trkpt><trkpt lat="42.2421993" lon="12.3452633"><ele>223.0</ele><time>2026-04-19T14:26:40.765Z</time></trkpt><trkpt lat="42.2422255" lon="12.3454227"><ele>223.0</ele><time>2026-04-19T14:26:41.767Z</time></trkpt><trkpt lat="42.2422577" lon="12.3455709"><ele>223.0</ele><time>2026-04-19T14:26:42.767Z</time></trkpt><trkpt lat="42.2422844" lon="12.3457059"><ele>223.0</ele><time>2026-04-19T14:26:43.767Z</time></trkpt><trkpt lat="42.2423032" lon="12.3458179"><ele>223.0</ele><time>2026-04-19T14:26:44.766Z</time></trkpt><trkpt lat="42.2423163" lon="12.3459032"><ele>227.0</ele><time>2026-04-19T14:26:45.767Z</time></trkpt><trkpt lat="42.2423022" lon="12.3459918"><ele>227.0</ele><time>2026-04-19T14:26:47.766Z</time></trkpt><trkpt lat="42.242239" lon="12.3460334"><ele>226.0</ele><time>2026-04-19T14:26:49.765Z</time></trkpt><trkpt lat="42.2421644" lon="12.3460548"><ele>226.0</ele><time>2026-04-19T14:26:51.765Z</time></trkpt><trkpt lat="42.242084" lon="12.3460702"><ele>226.0</ele><time>2026-04-19T14:26:54.767Z</time></trkpt><trkpt lat="42.2421394" lon="12.3460268"><ele>226.0</ele><time>2026-04-19T14:28:02.766Z</time></trkpt></trkseg><trkseg><trkpt lat="42.1918285" lon="12.3150099"><ele>256.0</ele><time>2026-04-19T15:18:28.762Z</time></trkpt><trkpt lat="42.1915689" lon="12.315306"><ele>256.0</ele><time>2026-04-19T15:18:30.762Z</time></trkpt><trkpt lat="42.191442" lon="12.3154721"><ele>254.33333333333331</ele><time>2026-04-19T15:18:31.762Z</time></trkpt><trkpt lat="42.191314" lon="12.3156362"><ele>252.66666666666669</ele><time>2026-04-19T15:18:32.76Z</time></trkpt><trkpt lat="42.1911908" lon="12.3158119"><ele>251.0</ele><time>2026-04-19T15:18:33.761Z</time></trkpt><trkpt lat="42.191069" lon="12.3159834"><ele>251.0</ele><time>2026-04-19T15:18:34.761Z</time></trkpt><trkpt lat="42.1909457" lon="12.3161562"><ele>251.0</ele><time>2026-04-19T15:18:35.762Z</time></trkpt><trkpt lat="42.1908249" lon="12.3163293"><ele>251.0</ele><time>2026-04-19T15:18:36.76Z</time></trkpt><trkpt lat="42.1907037" lon="12.3165042"><ele>249.33333333333334</ele><time>2026-04-19T15:18:37.762Z</time></trkpt><trkpt lat="42.1905828" lon="12.3166798"><ele>247.66666666666669</ele><time>2026-04-19T15:18:38.76Z</time></trkpt><trkpt lat="42.1904612" lon="12.3168531"><ele>246.0</ele><time>2026-04-19T15:18:39.761Z</time></trkpt><trkpt lat="42.1903362" lon="12.3170231"><ele>246.0</ele><time>2026-04-19T15:18:40.761Z</time></trkpt><trkpt lat="42.1902176" lon="12.3171995"><ele>246.0</ele><time>2026-04-19T15:18:41.76Z</time></trkpt><trkpt lat="42.1900958" lon="12.3173734"><ele>246.0</ele><time>2026-04-19T15:18:42.762Z</time></trkpt><trkpt lat="42.1899738" lon="12.3175486"><ele>245.66666666666669</ele><time>2026-04-19T15:18:43.762Z</time></trkpt><trkpt lat="42.1898505" lon="12.3177246"><ele>245.33333333333334</ele><time>2026-04-19T15:18:44.761Z</time></trkpt><trkpt lat="42.189722" lon="12.3179106"><ele>245.0</ele><time>2026-04-19T15:18:45.761Z</time></trkpt><trkpt lat="42.1895833" lon="12.3181173"><ele>244.0</ele><time>2026-04-19T15:18:46.761Z</time></trkpt><trkpt lat="42.1894298" lon="12.3183354"><ele>243.0</ele><time>2026-04-19T15:18:47.762Z</time></trkpt><trkpt lat="42.1892633" lon="12.3185542"><ele>243.0</ele><time>2026-04-19T15:18:48.762Z</time></trkpt><trkpt lat="42.1890787" lon="12.318771"><ele>243.0</ele><time>2026-04-19T15:18:49.761Z</time></trkpt><trkpt lat="42.1888777" lon="12.3189965"><ele>241.5</ele><time>2026-04-19T15:18:50.762Z</time></trkpt><trkpt lat="42.1886619" lon="12.319203"><ele>240.0</ele><time>2026-04-19T15:18:51.762Z</time></trkpt><trkpt lat="42.1884352" lon="12.319395"><ele>240.0</ele><time>2026-04-19T15:18:52.761Z</time></trkpt><trkpt lat="42.1882031" lon="12.3195645"><ele>240.0</ele><time>2026-04-19T15:18:53.761Z</time></trkpt><trkpt lat="42.1879617" lon="12.3197177"><ele>240.0</ele><time>2026-04-19T15:18:54.761Z</time></trkpt><trkpt lat="42.1877125" lon="12.3198618"><ele>240.0</ele><time>2026-04-19T15:18:55.761Z</time></trkpt><trkpt lat="42.1874525" lon="12.3199853"><ele>240.0</ele><time>2026-04-19T15:18:56.762Z</time></trkpt><trkpt lat="42.1871882" lon="12.3200963"><ele>240.0</ele><time>2026-04-19T15:18:57.761Z</time></trkpt><trkpt lat="42.186914" lon="12.3201969"><ele>240.0</ele><time>2026-04-19T15:18:58.761Z</time></trkpt><trkpt lat="42.1866377" lon="12.3203006"><ele>240.0</ele><time>2026-04-19T15:18:59.761Z</time></trkpt><trkpt lat="42.1863583" lon="12.3204058"><ele>240.5</ele><time>2026-04-19T15:19:00.762Z</time></trkpt><trkpt lat="42.1860804" lon="12.3205127"><ele>241.0</ele><time>2026-04-19T15:19:01.76Z</time></trkpt><trkpt lat="42.185801" lon="12.32062"><ele>241.5</ele><time>2026-04-19T15:19:02.762Z</time></trkpt><trkpt lat="42.1855219" lon="12.3207228"><ele>242.0</ele><time>2026-04-19T15:19:03.762Z</time></trkpt><trkpt lat="42.185247" lon="12.3208281"><ele>242.0</ele><time>2026-04-19T15:19:04.762Z</time></trkpt><trkpt lat="42.1849622" lon="12.3209356"><ele>242.0</ele><time>2026-04-19T15:19:05.761Z</time></trkpt><trkpt lat="42.1846719" lon="12.3210443"><ele>242.0</ele><time>2026-04-19T15:19:06.762Z</time></trkpt><trkpt lat="42.1843799" lon="12.3211534"><ele>242.0</ele><time>2026-04-19T15:19:07.761Z</time></trkpt><trkpt lat="42.184085" lon="12.3212564"><ele>243.5</ele><time>2026-04-19T15:19:08.761Z</time></trkpt><trkpt lat="42.1837858" lon="12.3213679"><ele>245.0</ele><time>2026-04-19T15:19:09.761Z</time></trkpt><trkpt lat="42.1834906" lon="12.3214779"><ele>246.0</ele><time>2026-04-19T15:19:10.762Z</time></trkpt><trkpt lat="42.1831963" lon="12.3215819"><ele>247.0</ele><time>2026-04-19T15:19:11.762Z</time></trkpt><trkpt lat="42.182899" lon="12.3216981"><ele>248.5</ele><time>2026-04-19T15:19:12.76Z</time></trkpt><trkpt lat="42.1826187" lon="12.3217968"><ele>250.0</ele><time>2026-04-19T15:19:13.761Z</time></trkpt><trkpt lat="42.1823336" lon="12.3218948"><ele>253.0</ele><time>2026-04-19T15:19:14.76Z</time></trkpt><trkpt lat="42.1820639" lon="12.3219915"><ele>256.0</ele><time>2026-04-19T15:19:15.76Z</time></trkpt><trkpt lat="42.181805" lon="12.3220843"><ele>256.0</ele><time>2026-04-19T15:19:16.761Z</time></trkpt><trkpt lat="42.1815546" lon="12.3221716"><ele>256.0</ele><time>2026-04-19T15:19:17.761Z</time></trkpt><trkpt lat="42.1813135" lon="12.3222551"><ele>259.0</ele><time>2026-04-19T15:19:18.761Z</time></trkpt><trkpt lat="42.1810834" lon="12.3223368"><ele>262.0</ele><time>2026-04-19T15:19:19.762Z</time></trkpt><trkpt lat="42.1808619" lon="12.3224193"><ele>262.66666666666663</ele><time>2026-04-19T15:19:20.762Z</time></trkpt><trkpt lat="42.1806435" lon="12.3225066"><ele>263.3333333333333</ele><time>2026-04-19T15:19:21.76Z</time></trkpt><trkpt lat="42.1804318" lon="12.3225799"><ele>264.0</ele><time>2026-04-19T15:19:22.761Z</time></trkpt><trkpt lat="42.1802182" lon="12.3226589"><ele>264.0</ele><time>2026-04-19T15:19:23.762Z</time></trkpt><trkpt lat="42.1800054" lon="12.3227447"><ele>264.0</ele><time>2026-04-19T15:19:24.761Z</time></trkpt><trkpt lat="42.1797907" lon="12.3228415"><ele>264.0</ele><time>2026-04-19T15:19:25.761Z</time></trkpt><trkpt lat="42.1795745" lon="12.3229441"><ele>263.5</ele><time>2026-04-19T15:19:26.762Z</time></trkpt><trkpt lat="42.1793578" lon="12.3230443"><ele>263.0</ele><time>2026-04-19T15:19:27.761Z</time></trkpt><trkpt lat="42.1791419" lon="12.3231428"><ele>261.5</ele><time>2026-04-19T15:19:28.761Z</time></trkpt><trkpt lat="42.1789278" lon="12.3232466"><ele>260.0</ele><time>2026-04-19T15:19:29.76Z</time></trkpt><trkpt lat="42.1787127" lon="12.3233619"><ele>260.0</ele><time>2026-04-19T15:19:30.761Z</time></trkpt><trkpt lat="42.1784944" lon="12.3234801"><ele>260.0</ele><time>2026-04-19T15:19:31.761Z</time></trkpt><trkpt lat="42.1782708" lon="12.3236026"><ele>258.5</ele><time>2026-04-19T15:19:32.76Z</time></trkpt><trkpt lat="42.1780422" lon="12.3237371"><ele>257.0</ele><time>2026-04-19T15:19:33.76Z</time></trkpt><trkpt lat="42.1778067" lon="12.3238805"><ele>256.5</ele><time>2026-04-19T15:19:34.761Z</time></trkpt><trkpt lat="42.1775636" lon="12.3240364"><ele>256.0</ele><time>2026-04-19T15:19:35.761Z</time></trkpt><trkpt lat="42.1773154" lon="12.324192"><ele>257.0</ele><time>2026-04-19T15:19:36.761Z</time></trkpt><trkpt lat="42.1770726" lon="12.3243408"><ele>258.0</ele><time>2026-04-19T15:19:37.761Z</time></trkpt><trkpt lat="42.1768374" lon="12.324486"><ele>258.0</ele><time>2026-04-19T15:19:38.762Z</time></trkpt><trkpt lat="42.1766169" lon="12.3246272"><ele>258.0</ele><time>2026-04-19T15:19:39.762Z</time></trkpt><trkpt lat="42.1763876" lon="12.3247682"><ele>258.5</ele><time>2026-04-19T15:19:40.761Z</time></trkpt><trkpt lat="42.1761508" lon="12.3249137"><ele>259.0</ele><time>2026-04-19T15:19:41.761Z</time></trkpt><trkpt lat="42.1759065" lon="12.3250656"><ele>258.0</ele><time>2026-04-19T15:19:42.761Z</time></trkpt><trkpt lat="42.1756567" lon="12.3252326"><ele>257.0</ele><time>2026-04-19T15:19:43.761Z</time></trkpt><trkpt lat="42.1754088" lon="12.325399"><ele>257.0</ele><time>2026-04-19T15:19:44.761Z</time></trkpt><trkpt lat="42.1751719" lon="12.3255659"><ele>257.0</ele><time>2026-04-19T15:19:45.761Z</time></trkpt><trkpt lat="42.1749469" lon="12.3257357"><ele>255.0</ele><time>2026-04-19T15:19:46.761Z</time></trkpt><trkpt lat="42.1747226" lon="12.3259081"><ele>253.0</ele><time>2026-04-19T15:19:47.76Z</time></trkpt><trkpt lat="42.1745009" lon="12.3260912"><ele>253.0</ele><time>2026-04-19T15:19:48.761Z</time></trkpt><trkpt lat="42.1742848" lon="12.3262868"><ele>253.0</ele><time>2026-04-19T15:19:49.761Z</time></trkpt><trkpt lat="42.1740724" lon="12.3264963"><ele>251.0</ele><time>2026-04-19T15:19:50.762Z</time></trkpt><trkpt lat="42.1738621" lon="12.3267153"><ele>249.0</ele><time>2026-04-19T15:19:51.761Z</time></trkpt><trkpt lat="42.1736556" lon="12.3269443"><ele>249.0</ele><time>2026-04-19T15:19:52.761Z</time></trkpt><trkpt lat="42.1734528" lon="12.3271912"><ele>249.0</ele><time>2026-04-19T15:19:53.761Z</time></trkpt><trkpt lat="42.1732529" lon="12.3274486"><ele>247.0</ele><time>2026-04-19T15:19:54.761Z</time></trkpt><trkpt lat="42.1730555" lon="12.3277153"><ele>245.0</ele><time>2026-04-19T15:19:55.761Z</time></trkpt><trkpt lat="42.1728609" lon="12.3279907"><ele>245.5</ele><time>2026-04-19T15:19:56.761Z</time></trkpt><trkpt lat="42.1726673" lon="12.3282748"><ele>246.0</ele><time>2026-04-19T15:19:57.762Z</time></trkpt><trkpt lat="42.1724771" lon="12.3285688"><ele>243.5</ele><time>2026-04-19T15:19:58.761Z</time></trkpt><trkpt lat="42.1722852" lon="12.3288701"><ele>241.0</ele><time>2026-04-19T15:19:59.761Z</time></trkpt><trkpt lat="42.1720909" lon="12.3291789"><ele>240.0</ele><time>2026-04-19T15:20:00.761Z</time></trkpt><trkpt lat="42.1718988" lon="12.329488"><ele>239.0</ele><time>2026-04-19T15:20:01.762Z</time></trkpt><trkpt lat="42.1717109" lon="12.3298011"><ele>234.5</ele><time>2026-04-19T15:20:02.761Z</time></trkpt><trkpt lat="42.1715234" lon="12.3301153"><ele>230.0</ele><time>2026-04-19T15:20:03.762Z</time></trkpt><trkpt lat="42.1713396" lon="12.3304265"><ele>229.5</ele><time>2026-04-19T15:20:04.761Z</time></trkpt><trkpt lat="42.1711652" lon="12.3307264"><ele>229.0</ele><time>2026-04-19T15:20:05.762Z</time></trkpt><trkpt lat="42.1709932" lon="12.3310142"><ele>229.0</ele><time>2026-04-19T15:20:06.761Z</time></trkpt><trkpt lat="42.170824" lon="12.33129"><ele>229.0</ele><time>2026-04-19T15:20:07.761Z</time></trkpt><trkpt lat="42.170656" lon="12.331561"><ele>227.0</ele><time>2026-04-19T15:20:08.762Z</time></trkpt><trkpt lat="42.1704902" lon="12.3318289"><ele>225.0</ele><time>2026-04-19T15:20:09.762Z</time></trkpt><trkpt lat="42.1703249" lon="12.3320957"><ele>224.5</ele><time>2026-04-19T15:20:10.762Z</time></trkpt><trkpt lat="42.170165" lon="12.3323597"><ele>224.0</ele><time>2026-04-19T15:20:11.762Z</time></trkpt><trkpt lat="42.1700003" lon="12.3326087"><ele>222.0</ele><time>2026-04-19T15:20:12.762Z</time></trkpt><trkpt lat="42.1698273" lon="12.3328326"><ele>220.0</ele><time>2026-04-19T15:20:13.761Z</time></trkpt><trkpt lat="42.1696389" lon="12.3330363"><ele>219.5</ele><time>2026-04-19T15:20:14.762Z</time></trkpt><trkpt lat="42.169432" lon="12.3332186"><ele>219.0</ele><time>2026-04-19T15:20:15.761Z</time></trkpt><trkpt lat="42.1692129" lon="12.3333825"><ele>219.0</ele><time>2026-04-19T15:20:16.761Z</time></trkpt><trkpt lat="42.1689783" lon="12.3335311"><ele>219.0</ele><time>2026-04-19T15:20:17.761Z</time></trkpt><trkpt lat="42.1687297" lon="12.3336598"><ele>219.0</ele><time>2026-04-19T15:20:18.762Z</time></trkpt><trkpt lat="42.1684678" lon="12.3337746"><ele>219.0</ele><time>2026-04-19T15:20:19.762Z</time></trkpt><trkpt lat="42.1681969" lon="12.3338769"><ele>218.0</ele><time>2026-04-19T15:20:20.761Z</time></trkpt><trkpt lat="42.1679156" lon="12.333972"><ele>217.0</ele><time>2026-04-19T15:20:21.761Z</time></trkpt><trkpt lat="42.1676309" lon="12.3340684"><ele>216.0</ele><time>2026-04-19T15:20:22.761Z</time></trkpt><trkpt lat="42.1673439" lon="12.3341716"><ele>215.0</ele><time>2026-04-19T15:20:23.762Z</time></trkpt><trkpt lat="42.1670682" lon="12.3342724"><ele>215.0</ele><time>2026-04-19T15:20:24.761Z</time></trkpt><trkpt lat="42.1667988" lon="12.3343647"><ele>215.0</ele><time>2026-04-19T15:20:25.762Z</time></trkpt><trkpt lat="42.1665368" lon="12.334458"><ele>215.5</ele><time>2026-04-19T15:20:26.762Z</time></trkpt><trkpt lat="42.1662765" lon="12.3345538"><ele>216.0</ele><time>2026-04-19T15:20:27.762Z</time></trkpt><trkpt lat="42.1660116" lon="12.3346446"><ele>214.5</ele><time>2026-04-19T15:20:28.762Z</time></trkpt><trkpt lat="42.1657471" lon="12.3347339"><ele>213.0</ele><time>2026-04-19T15:20:29.762Z</time></trkpt><trkpt lat="42.1654877" lon="12.3348271"><ele>212.0</ele><time>2026-04-19T15:20:30.762Z</time></trkpt><trkpt lat="42.1652301" lon="12.3349142"><ele>211.0</ele><time>2026-04-19T15:20:31.762Z</time></trkpt><trkpt lat="42.164973" lon="12.3350029"><ele>210.0</ele><time>2026-04-19T15:20:32.762Z</time></trkpt><trkpt lat="42.1647185" lon="12.3350868"><ele>209.0</ele><time>2026-04-19T15:20:33.762Z</time></trkpt><trkpt lat="42.1644743" lon="12.3351735"><ele>209.0</ele><time>2026-04-19T15:20:34.762Z</time></trkpt><trkpt lat="42.1642353" lon="12.3352627"><ele>209.0</ele><time>2026-04-19T15:20:35.762Z</time></trkpt><trkpt lat="42.1640048" lon="12.3353651"><ele>209.0</ele><time>2026-04-19T15:20:36.761Z</time></trkpt><trkpt lat="42.1637782" lon="12.3354852"><ele>209.0</ele><time>2026-04-19T15:20:37.761Z</time></trkpt><trkpt lat="42.1635535" lon="12.33564"><ele>209.0</ele><time>2026-04-19T15:20:38.762Z</time></trkpt><trkpt lat="42.1633283" lon="12.3358157"><ele>209.0</ele><time>2026-04-19T15:20:39.762Z</time></trkpt><trkpt lat="42.1631074" lon="12.3359988"><ele>208.5</ele><time>2026-04-19T15:20:40.76Z</time></trkpt><trkpt lat="42.1628894" lon="12.3361784"><ele>208.0</ele><time>2026-04-19T15:20:41.76Z</time></trkpt><trkpt lat="42.1626718" lon="12.3363504"><ele>207.5</ele><time>2026-04-19T15:20:42.762Z</time></trkpt><trkpt lat="42.1624546" lon="12.3365185"><ele>207.0</ele><time>2026-04-19T15:20:43.761Z</time></trkpt><trkpt lat="42.16224" lon="12.3366864"><ele>205.5</ele><time>2026-04-19T15:20:44.76Z</time></trkpt><trkpt lat="42.1620124" lon="12.3368778"><ele>204.0</ele><time>2026-04-19T15:20:45.761Z</time></trkpt><trkpt lat="42.1617906" lon="12.3370648"><ele>205.0</ele><time>2026-04-19T15:20:46.76Z</time></trkpt><trkpt lat="42.1615737" lon="12.3372529"><ele>206.0</ele><time>2026-04-19T15:20:47.761Z</time></trkpt><trkpt lat="42.1613544" lon="12.3374634"><ele>206.0</ele><time>2026-04-19T15:20:48.761Z</time></trkpt><trkpt lat="42.1611373" lon="12.3376801"><ele>206.0</ele><time>2026-04-19T15:20:49.761Z</time></trkpt><trkpt lat="42.1609229" lon="12.3379044"><ele>207.5</ele><time>2026-04-19T15:20:50.762Z</time></trkpt><trkpt lat="42.1607087" lon="12.3381268"><ele>209.0</ele><time>2026-04-19T15:20:51.761Z</time></trkpt><trkpt lat="42.1604927" lon="12.3383434"><ele>210.0</ele><time>2026-04-19T15:20:52.761Z</time></trkpt><trkpt lat="42.1602818" lon="12.3385573"><ele>211.0</ele><time>2026-04-19T15:20:53.76Z</time></trkpt><trkpt lat="42.1600747" lon="12.3387695"><ele>211.0</ele><time>2026-04-19T15:20:54.761Z</time></trkpt><trkpt lat="42.1598697" lon="12.3389841"><ele>211.0</ele><time>2026-04-19T15:20:55.76Z</time></trkpt><trkpt lat="42.1596658" lon="12.3392025"><ele>211.0</ele><time>2026-04-19T15:20:56.761Z</time></trkpt><trkpt lat="42.1594594" lon="12.339412"><ele>211.0</ele><time>2026-04-19T15:20:57.761Z</time></trkpt><trkpt lat="42.1592534" lon="12.3396215"><ele>210.5</ele><time>2026-04-19T15:20:58.76Z</time></trkpt><trkpt lat="42.1590453" lon="12.339829"><ele>210.0</ele><time>2026-04-19T15:20:59.76Z</time></trkpt><trkpt lat="42.1588412" lon="12.3400345"><ele>208.0</ele><time>2026-04-19T15:21:00.762Z</time></trkpt><trkpt lat="42.1586396" lon="12.3402419"><ele>206.0</ele><time>2026-04-19T15:21:01.762Z</time></trkpt><trkpt lat="42.1584346" lon="12.3404459"><ele>206.0</ele><time>2026-04-19T15:21:02.762Z</time></trkpt><trkpt lat="42.158233" lon="12.3406511"><ele>206.0</ele><time>2026-04-19T15:21:03.761Z</time></trkpt><trkpt lat="42.1580332" lon="12.340861"><ele>206.5</ele><time>2026-04-19T15:21:04.761Z</time></trkpt><trkpt lat="42.1578434" lon="12.341071"><ele>207.0</ele><time>2026-04-19T15:21:05.762Z</time></trkpt><trkpt lat="42.1576557" lon="12.3412898"><ele>206.5</ele><time>2026-04-19T15:21:06.76Z</time></trkpt><trkpt lat="42.1574696" lon="12.3415091"><ele>206.0</ele><time>2026-04-19T15:21:07.762Z</time></trkpt><trkpt lat="42.1572848" lon="12.3417347"><ele>206.0</ele><time>2026-04-19T15:21:08.761Z</time></trkpt><trkpt lat="42.1570983" lon="12.3419584"><ele>206.0</ele><time>2026-04-19T15:21:09.762Z</time></trkpt><trkpt lat="42.1569122" lon="12.3421791"><ele>204.0</ele><time>2026-04-19T15:21:10.761Z</time></trkpt><trkpt lat="42.1567257" lon="12.3424012"><ele>202.0</ele><time>2026-04-19T15:21:11.76Z</time></trkpt><trkpt lat="42.1565422" lon="12.3426209"><ele>201.5</ele><time>2026-04-19T15:21:12.76Z</time></trkpt><trkpt lat="42.1563608" lon="12.3428408"><ele>201.0</ele><time>2026-04-19T15:21:13.762Z</time></trkpt><trkpt lat="42.1561778" lon="12.3430619"><ele>200.0</ele><time>2026-04-19T15:21:14.761Z</time></trkpt><trkpt lat="42.1560004" lon="12.3432731"><ele>199.0</ele><time>2026-04-19T15:21:15.761Z</time></trkpt><trkpt lat="42.1558306" lon="12.3434769"><ele>198.0</ele><time>2026-04-19T15:21:16.761Z</time></trkpt><trkpt lat="42.1556654" lon="12.3436757"><ele>197.0</ele><time>2026-04-19T15:21:17.761Z</time></trkpt><trkpt lat="42.1554991" lon="12.3438725"><ele>196.0</ele><time>2026-04-19T15:21:18.761Z</time></trkpt><trkpt lat="42.1553355" lon="12.34407"><ele>196.0</ele><time>2026-04-19T15:21:19.762Z</time></trkpt><trkpt lat="42.1551704" lon="12.3442699"><ele>196.0</ele><time>2026-04-19T15:21:20.762Z</time></trkpt><trkpt lat="42.1550028" lon="12.3444742"><ele>196.0</ele><time>2026-04-19T15:21:21.76Z</time></trkpt><trkpt lat="42.1548338" lon="12.3446796"><ele>197.33333333333331</ele><time>2026-04-19T15:21:22.761Z</time></trkpt><trkpt lat="42.1546686" lon="12.3448814"><ele>198.66666666666669</ele><time>2026-04-19T15:21:23.761Z</time></trkpt><trkpt lat="42.1545105" lon="12.3450745"><ele>200.0</ele><time>2026-04-19T15:21:24.761Z</time></trkpt><trkpt lat="42.1543551" lon="12.345257"><ele>200.0</ele><time>2026-04-19T15:21:25.761Z</time></trkpt><trkpt lat="42.1542" lon="12.3454373"><ele>200.0</ele><time>2026-04-19T15:21:26.761Z</time></trkpt><trkpt lat="42.1540441" lon="12.3456232"><ele>200.0</ele><time>2026-04-19T15:21:27.761Z</time></trkpt><trkpt lat="42.1538883" lon="12.3458132"><ele>199.66666666666669</ele><time>2026-04-19T15:21:28.762Z</time></trkpt><trkpt lat="42.1537288" lon="12.3460078"><ele>199.33333333333331</ele><time>2026-04-19T15:21:29.76Z</time></trkpt><trkpt lat="42.1535681" lon="12.3461979"><ele>199.0</ele><time>2026-04-19T15:21:30.762Z</time></trkpt><trkpt lat="42.1534073" lon="12.3463833"><ele>199.0</ele><time>2026-04-19T15:21:31.762Z</time></trkpt><trkpt lat="42.1532416" lon="12.3465771"><ele>199.0</ele><time>2026-04-19T15:21:32.761Z</time></trkpt><trkpt lat="42.153072" lon="12.3467652"><ele>199.0</ele><time>2026-04-19T15:21:33.761Z</time></trkpt><trkpt lat="42.1529041" lon="12.3469522"><ele>200.0</ele><time>2026-04-19T15:21:34.76Z</time></trkpt><trkpt lat="42.1527384" lon="12.3471309"><ele>201.0</ele><time>2026-04-19T15:21:35.762Z</time></trkpt><trkpt lat="42.1525714" lon="12.3472979"><ele>202.0</ele><time>2026-04-19T15:21:36.761Z</time></trkpt><trkpt lat="42.1524029" lon="12.3474552"><ele>202.66666666666666</ele><time>2026-04-19T15:21:37.761Z</time></trkpt><trkpt lat="42.1522343" lon="12.347601"><ele>203.33333333333331</ele><time>2026-04-19T15:21:38.761Z</time></trkpt><trkpt lat="42.1520669" lon="12.3477446"><ele>204.0</ele><time>2026-04-19T15:21:39.761Z</time></trkpt><trkpt lat="42.1519001" lon="12.3478813"><ele>204.0</ele><time>2026-04-19T15:21:40.761Z</time></trkpt><trkpt lat="42.1517328" lon="12.348013"><ele>204.0</ele><time>2026-04-19T15:21:41.762Z</time></trkpt><trkpt lat="42.1515637" lon="12.3481379"><ele>204.0</ele><time>2026-04-19T15:21:42.76Z</time></trkpt><trkpt lat="42.1513914" lon="12.3482577"><ele>204.66666666666669</ele><time>2026-04-19T15:21:43.761Z</time></trkpt><trkpt lat="42.1512211" lon="12.3483727"><ele>205.33333333333334</ele><time>2026-04-19T15:21:44.761Z</time></trkpt><trkpt lat="42.151049" lon="12.3484825"><ele>206.0</ele><time>2026-04-19T15:21:45.762Z</time></trkpt><trkpt lat="42.1508802" lon="12.3485861"><ele>206.0</ele><time>2026-04-19T15:21:46.761Z</time></trkpt><trkpt lat="42.1507105" lon="12.3486827"><ele>206.0</ele><time>2026-04-19T15:21:47.762Z</time></trkpt><trkpt lat="42.150549" lon="12.3487685"><ele>206.0</ele><time>2026-04-19T15:21:48.76Z</time></trkpt><trkpt lat="42.1503814" lon="12.3488625"><ele>207.0</ele><time>2026-04-19T15:21:49.761Z</time></trkpt><trkpt lat="42.1502272" lon="12.3489341"><ele>208.0</ele><time>2026-04-19T15:21:50.761Z</time></trkpt><trkpt lat="42.1500689" lon="12.3490051"><ele>209.0</ele><time>2026-04-19T15:21:51.761Z</time></trkpt><trkpt lat="42.1499037" lon="12.3490737"><ele>209.33333333333334</ele><time>2026-04-19T15:21:52.761Z</time></trkpt><trkpt lat="42.1497356" lon="12.3491393"><ele>209.66666666666669</ele><time>2026-04-19T15:21:53.761Z</time></trkpt><trkpt lat="42.1495643" lon="12.3491996"><ele>210.0</ele><time>2026-04-19T15:21:54.761Z</time></trkpt><trkpt lat="42.1493943" lon="12.3492543"><ele>210.0</ele><time>2026-04-19T15:21:55.762Z</time></trkpt><trkpt lat="42.1492154" lon="12.3493065"><ele>210.0</ele><time>2026-04-19T15:21:56.761Z</time></trkpt><trkpt lat="42.1490286" lon="12.349353"><ele>210.0</ele><time>2026-04-19T15:21:57.761Z</time></trkpt><trkpt lat="42.1488441" lon="12.3494018"><ele>211.33333333333331</ele><time>2026-04-19T15:21:58.76Z</time></trkpt><trkpt lat="42.1486575" lon="12.3494512"><ele>212.66666666666666</ele><time>2026-04-19T15:21:59.761Z</time></trkpt><trkpt lat="42.1484723" lon="12.3494955"><ele>214.0</ele><time>2026-04-19T15:22:00.76Z</time></trkpt><trkpt lat="42.1482861" lon="12.3495396"><ele>214.0</ele><time>2026-04-19T15:22:01.762Z</time></trkpt><trkpt lat="42.1481027" lon="12.3495864"><ele>214.0</ele><time>2026-04-19T15:22:02.761Z</time></trkpt><trkpt lat="42.1479113" lon="12.3496334"><ele>214.0</ele><time>2026-04-19T15:22:03.762Z</time></trkpt><trkpt lat="42.1477123" lon="12.3496839"><ele>214.33333333333331</ele><time>2026-04-19T15:22:04.762Z</time></trkpt><trkpt lat="42.1475069" lon="12.3497361"><ele>214.66666666666669</ele><time>2026-04-19T15:22:05.761Z</time></trkpt><trkpt lat="42.147298" lon="12.3497866"><ele>215.0</ele><time>2026-04-19T15:22:06.76Z</time></trkpt><trkpt lat="42.1470922" lon="12.3498411"><ele>216.0</ele><time>2026-04-19T15:22:07.76Z</time></trkpt><trkpt lat="42.1468865" lon="12.3498952"><ele>217.0</ele><time>2026-04-19T15:22:08.761Z</time></trkpt><trkpt lat="42.1466837" lon="12.3499455"><ele>218.0</ele><time>2026-04-19T15:22:09.761Z</time></trkpt><trkpt lat="42.1464852" lon="12.3499968"><ele>218.66666666666669</ele><time>2026-04-19T15:22:10.76Z</time></trkpt><trkpt lat="42.1462881" lon="12.3500451"><ele>219.33333333333331</ele><time>2026-04-19T15:22:11.761Z</time></trkpt><trkpt lat="42.1460961" lon="12.3500917"><ele>220.0</ele><time>2026-04-19T15:22:12.762Z</time></trkpt><trkpt lat="42.1459062" lon="12.3501402"><ele>220.0</ele><time>2026-04-19T15:22:13.762Z</time></trkpt><trkpt lat="42.1457223" lon="12.3501875"><ele>220.0</ele><time>2026-04-19T15:22:14.762Z</time></trkpt><trkpt lat="42.1455441" lon="12.3502327"><ele>220.0</ele><time>2026-04-19T15:22:15.762Z</time></trkpt><trkpt lat="42.1453656" lon="12.3502791"><ele>220.33333333333331</ele><time>2026-04-19T15:22:16.76Z</time></trkpt><trkpt lat="42.1451953" lon="12.3503247"><ele>220.66666666666669</ele><time>2026-04-19T15:22:17.761Z</time></trkpt><trkpt lat="42.1450188" lon="12.3503707"><ele>221.0</ele><time>2026-04-19T15:22:18.762Z</time></trkpt><trkpt lat="42.1448446" lon="12.3504115"><ele>222.0</ele><time>2026-04-19T15:22:19.761Z</time></trkpt><trkpt lat="42.1446649" lon="12.3504568"><ele>223.0</ele><time>2026-04-19T15:22:20.762Z</time></trkpt><trkpt lat="42.1444833" lon="12.3505043"><ele>224.0</ele><time>2026-04-19T15:22:21.762Z</time></trkpt><trkpt lat="42.1443027" lon="12.3505507"><ele>227.0</ele><time>2026-04-19T15:22:22.761Z</time></trkpt><trkpt lat="42.1434175" lon="12.3507756"><ele>227.0</ele><time>2026-04-19T15:22:27.761Z</time></trkpt><trkpt lat="42.1432402" lon="12.3508241"><ele>227.0</ele><time>2026-04-19T15:22:28.761Z</time></trkpt><trkpt lat="42.1430681" lon="12.3508694"><ele>227.0</ele><time>2026-04-19T15:22:29.762Z</time></trkpt><trkpt lat="42.1428984" lon="12.3509136"><ele>229.0</ele><time>2026-04-19T15:22:30.762Z</time></trkpt><trkpt lat="42.1427291" lon="12.3509571"><ele>231.0</ele><time>2026-04-19T15:22:31.761Z</time></trkpt><trkpt lat="42.1425649" lon="12.350995"><ele>233.0</ele><time>2026-04-19T15:22:32.761Z</time></trkpt><trkpt lat="42.1424002" lon="12.3510327"><ele>233.66666666666669</ele><time>2026-04-19T15:22:33.76Z</time></trkpt><trkpt lat="42.1422373" lon="12.3510763"><ele>234.33333333333331</ele><time>2026-04-19T15:22:34.762Z</time></trkpt><trkpt lat="42.1420686" lon="12.3511174"><ele>235.0</ele><time>2026-04-19T15:22:35.76Z</time></trkpt><trkpt lat="42.1418973" lon="12.3511662"><ele>235.0</ele><time>2026-04-19T15:22:36.762Z</time></trkpt><trkpt lat="42.141725" lon="12.3512136"><ele>235.0</ele><time>2026-04-19T15:22:37.761Z</time></trkpt><trkpt lat="42.1415463" lon="12.351261"><ele>235.0</ele><time>2026-04-19T15:22:38.762Z</time></trkpt><trkpt lat="42.1413626" lon="12.351308"><ele>236.33333333333331</ele><time>2026-04-19T15:22:39.761Z</time></trkpt><trkpt lat="42.1411754" lon="12.3513569"><ele>237.66666666666669</ele><time>2026-04-19T15:22:40.761Z</time></trkpt><trkpt lat="42.1409913" lon="12.351401"><ele>239.0</ele><time>2026-04-19T15:22:41.76Z</time></trkpt><trkpt lat="42.1408134" lon="12.351448"><ele>241.0</ele><time>2026-04-19T15:22:42.761Z</time></trkpt><trkpt lat="42.140636" lon="12.3514927"><ele>243.0</ele><time>2026-04-19T15:22:43.762Z</time></trkpt><trkpt lat="42.1404558" lon="12.3515345"><ele>245.0</ele><time>2026-04-19T15:22:44.761Z</time></trkpt><trkpt lat="42.1402792" lon="12.3515791"><ele>245.0</ele><time>2026-04-19T15:22:45.761Z</time></trkpt><trkpt lat="42.1401022" lon="12.3516304"><ele>245.0</ele><time>2026-04-19T15:22:46.761Z</time></trkpt><trkpt lat="42.1399208" lon="12.3516818"><ele>245.0</ele><time>2026-04-19T15:22:47.761Z</time></trkpt><trkpt lat="42.13973" lon="12.3517266"><ele>246.33333333333334</ele><time>2026-04-19T15:22:48.762Z</time></trkpt><trkpt lat="42.1395428" lon="12.3517681"><ele>247.66666666666669</ele><time>2026-04-19T15:22:49.76Z</time></trkpt><trkpt lat="42.1393551" lon="12.3518169"><ele>249.0</ele><time>2026-04-19T15:22:50.759Z</time></trkpt><trkpt lat="42.13916" lon="12.3518665"><ele>251.66666666666669</ele><time>2026-04-19T15:22:51.76Z</time></trkpt><trkpt lat="42.1389667" lon="12.3519167"><ele>254.33333333333334</ele><time>2026-04-19T15:22:52.761Z</time></trkpt><trkpt lat="42.138772" lon="12.3519656"><ele>257.0</ele><time>2026-04-19T15:22:53.761Z</time></trkpt><trkpt lat="42.1385787" lon="12.3520097"><ele>257.0</ele><time>2026-04-19T15:22:54.761Z</time></trkpt><trkpt lat="42.138392" lon="12.3520593"><ele>257.0</ele><time>2026-04-19T15:22:55.761Z</time></trkpt><trkpt lat="42.1381967" lon="12.3521095"><ele>257.0</ele><time>2026-04-19T15:22:56.761Z</time></trkpt><trkpt lat="42.1380054" lon="12.3521637"><ele>260.33333333333337</ele><time>2026-04-19T15:22:57.761Z</time></trkpt><trkpt lat="42.1378158" lon="12.3522134"><ele>263.6666666666667</ele><time>2026-04-19T15:22:58.761Z</time></trkpt><trkpt lat="42.1376167" lon="12.3522618"><ele>267.0</ele><time>2026-04-19T15:22:59.76Z</time></trkpt><trkpt lat="42.137424" lon="12.3523122"><ele>270.3333333333333</ele><time>2026-04-19T15:23:00.76Z</time></trkpt><trkpt lat="42.1372335" lon="12.3523668"><ele>273.66666666666663</ele><time>2026-04-19T15:23:01.761Z</time></trkpt><trkpt lat="42.1370454" lon="12.3524217"><ele>277.0</ele><time>2026-04-19T15:23:02.761Z</time></trkpt><trkpt lat="42.1368576" lon="12.3524841"><ele>277.0</ele><time>2026-04-19T15:23:03.76Z</time></trkpt><trkpt lat="42.1366749" lon="12.3525559"><ele>277.0</ele><time>2026-04-19T15:23:04.76Z</time></trkpt><trkpt lat="42.1364936" lon="12.3526486"><ele>277.0</ele><time>2026-04-19T15:23:05.761Z</time></trkpt><trkpt lat="42.1363165" lon="12.3527473"><ele>278.66666666666663</ele><time>2026-04-19T15:23:06.761Z</time></trkpt><trkpt lat="42.1361436" lon="12.3528593"><ele>280.3333333333333</ele><time>2026-04-19T15:23:07.76Z</time></trkpt><trkpt lat="42.1359713" lon="12.3529753"><ele>282.0</ele><time>2026-04-19T15:23:08.761Z</time></trkpt><trkpt lat="42.1358039" lon="12.3530995"><ele>282.0</ele><time>2026-04-19T15:23:09.761Z</time></trkpt><trkpt lat="42.1356344" lon="12.353227"><ele>282.0</ele><time>2026-04-19T15:23:10.76Z</time></trkpt><trkpt lat="42.1354578" lon="12.3533592"><ele>282.0</ele><time>2026-04-19T15:23:11.761Z</time></trkpt><trkpt lat="42.1352803" lon="12.3534867"><ele>282.0</ele><time>2026-04-19T15:23:12.76Z</time></trkpt><trkpt lat="42.1350935" lon="12.353622"><ele>282.0</ele><time>2026-04-19T15:23:13.76Z</time></trkpt><trkpt lat="42.1349035" lon="12.3537597"><ele>282.0</ele><time>2026-04-19T15:23:14.759Z</time></trkpt><trkpt lat="42.1347052" lon="12.3539176"><ele>276.0</ele><time>2026-04-19T15:23:15.759Z</time></trkpt><trkpt lat="42.1345011" lon="12.3540828"><ele>270.0</ele><time>2026-04-19T15:23:16.76Z</time></trkpt><trkpt lat="42.134289" lon="12.354253"><ele>270.0</ele><time>2026-04-19T15:23:17.761Z</time></trkpt><trkpt lat="42.1340824" lon="12.3544163"><ele>270.0</ele><time>2026-04-19T15:23:18.761Z</time></trkpt><trkpt lat="42.1338794" lon="12.354574"><ele>267.5</ele><time>2026-04-19T15:23:19.76Z</time></trkpt><trkpt lat="42.1336796" lon="12.3547325"><ele>265.0</ele><time>2026-04-19T15:23:20.76Z</time></trkpt><trkpt lat="42.133481" lon="12.3548728"><ele>265.0</ele><time>2026-04-19T15:23:21.761Z</time></trkpt><trkpt lat="42.1332837" lon="12.3550187"><ele>265.0</ele><time>2026-04-19T15:23:22.76Z</time></trkpt><trkpt lat="42.1330875" lon="12.3551633"><ele>265.0</ele><time>2026-04-19T15:23:23.76Z</time></trkpt><trkpt lat="42.1328945" lon="12.3553116"><ele>264.0</ele><time>2026-04-19T15:23:24.76Z</time></trkpt><trkpt lat="42.1326984" lon="12.3554636"><ele>263.0</ele><time>2026-04-19T15:23:25.759Z</time></trkpt><trkpt lat="42.1325086" lon="12.3556115"><ele>262.0</ele><time>2026-04-19T15:23:26.761Z</time></trkpt><trkpt lat="42.132316" lon="12.3557613"><ele>256.5</ele><time>2026-04-19T15:23:27.76Z</time></trkpt><trkpt lat="42.1321201" lon="12.355914"><ele>251.0</ele><time>2026-04-19T15:23:28.759Z</time></trkpt><trkpt lat="42.1319222" lon="12.3560659"><ele>251.0</ele><time>2026-04-19T15:23:29.76Z</time></trkpt><trkpt lat="42.1317248" lon="12.3562194"><ele>251.0</ele><time>2026-04-19T15:23:30.76Z</time></trkpt><trkpt lat="42.1315277" lon="12.3563744"><ele>247.0</ele><time>2026-04-19T15:23:31.761Z</time></trkpt><trkpt lat="42.1313287" lon="12.3565305"><ele>243.0</ele><time>2026-04-19T15:23:32.76Z</time></trkpt><trkpt lat="42.1311295" lon="12.3566888"><ele>243.0</ele><time>2026-04-19T15:23:33.76Z</time></trkpt><trkpt lat="42.1309252" lon="12.3568463"><ele>243.0</ele><time>2026-04-19T15:23:34.76Z</time></trkpt><trkpt lat="42.1307126" lon="12.3570053"><ele>241.0</ele><time>2026-04-19T15:23:35.76Z</time></trkpt><trkpt lat="42.1305001" lon="12.3571704"><ele>239.0</ele><time>2026-04-19T15:23:36.759Z</time></trkpt><trkpt lat="42.1302916" lon="12.3573445"><ele>239.0</ele><time>2026-04-19T15:23:37.76Z</time></trkpt><trkpt lat="42.1300882" lon="12.3575199"><ele>239.0</ele><time>2026-04-19T15:23:38.759Z</time></trkpt><trkpt lat="42.1298973" lon="12.3577071"><ele>236.5</ele><time>2026-04-19T15:23:39.761Z</time></trkpt><trkpt lat="42.129712" lon="12.3579105"><ele>234.0</ele><time>2026-04-19T15:23:40.759Z</time></trkpt><trkpt lat="42.1295307" lon="12.3581214"><ele>234.0</ele><time>2026-04-19T15:23:41.761Z</time></trkpt><trkpt lat="42.1293516" lon="12.3583464"><ele>234.0</ele><time>2026-04-19T15:23:42.761Z</time></trkpt><trkpt lat="42.129181" lon="12.3585888"><ele>232.0</ele><time>2026-04-19T15:23:43.761Z</time></trkpt><trkpt lat="42.1290234" lon="12.3588422"><ele>230.0</ele><time>2026-04-19T15:23:44.76Z</time></trkpt><trkpt lat="42.1288666" lon="12.3591037"><ele>230.0</ele><time>2026-04-19T15:23:45.761Z</time></trkpt><trkpt lat="42.1287115" lon="12.3593707"><ele>230.0</ele><time>2026-04-19T15:23:46.761Z</time></trkpt><trkpt lat="42.1285596" lon="12.3596431"><ele>230.5</ele><time>2026-04-19T15:23:47.76Z</time></trkpt><trkpt lat="42.1284051" lon="12.3599133"><ele>231.0</ele><time>2026-04-19T15:23:48.761Z</time></trkpt><trkpt lat="42.1282474" lon="12.3601802"><ele>229.0</ele><time>2026-04-19T15:23:49.761Z</time></trkpt><trkpt lat="42.1280812" lon="12.3604341"><ele>227.0</ele><time>2026-04-19T15:23:50.76Z</time></trkpt><trkpt lat="42.1279035" lon="12.3606804"><ele>227.0</ele><time>2026-04-19T15:23:51.761Z</time></trkpt><trkpt lat="42.1277133" lon="12.3609098"><ele>227.0</ele><time>2026-04-19T15:23:52.759Z</time></trkpt><trkpt lat="42.1275147" lon="12.3611267"><ele>226.5</ele><time>2026-04-19T15:23:53.76Z</time></trkpt><trkpt lat="42.1273106" lon="12.3613263"><ele>226.0</ele><time>2026-04-19T15:23:54.761Z</time></trkpt><trkpt lat="42.1271078" lon="12.3615063"><ele>227.5</ele><time>2026-04-19T15:23:55.76Z</time></trkpt><trkpt lat="42.1269039" lon="12.3616681"><ele>229.0</ele><time>2026-04-19T15:23:56.76Z</time></trkpt><trkpt lat="42.1266947" lon="12.3618102"><ele>226.5</ele><time>2026-04-19T15:23:57.76Z</time></trkpt><trkpt lat="42.126481" lon="12.3619358"><ele>224.0</ele><time>2026-04-19T15:23:58.761Z</time></trkpt><trkpt lat="42.1262652" lon="12.3620552"><ele>224.0</ele><time>2026-04-19T15:23:59.76Z</time></trkpt><trkpt lat="42.1260485" lon="12.3621689"><ele>224.0</ele><time>2026-04-19T15:24:00.761Z</time></trkpt><trkpt lat="42.1258265" lon="12.3622805"><ele>225.5</ele><time>2026-04-19T15:24:01.761Z</time></trkpt><trkpt lat="42.1256012" lon="12.3623957"><ele>227.0</ele><time>2026-04-19T15:24:02.761Z</time></trkpt><trkpt lat="42.1253695" lon="12.3625153"><ele>227.0</ele><time>2026-04-19T15:24:03.76Z</time></trkpt><trkpt lat="42.1251391" lon="12.3626336"><ele>227.0</ele><time>2026-04-19T15:24:04.76Z</time></trkpt><trkpt lat="42.1249096" lon="12.3627567"><ele>226.0</ele><time>2026-04-19T15:24:05.759Z</time></trkpt><trkpt lat="42.1246809" lon="12.3628777"><ele>225.0</ele><time>2026-04-19T15:24:06.76Z</time></trkpt><trkpt lat="42.1244469" lon="12.3629953"><ele>226.0</ele><time>2026-04-19T15:24:07.76Z</time></trkpt><trkpt lat="42.1242185" lon="12.3631118"><ele>227.0</ele><time>2026-04-19T15:24:08.761Z</time></trkpt><trkpt lat="42.123987" lon="12.36323"><ele>225.0</ele><time>2026-04-19T15:24:09.76Z</time></trkpt><trkpt lat="42.1237558" lon="12.3633414"><ele>223.0</ele><time>2026-04-19T15:24:10.76Z</time></trkpt><trkpt lat="42.123527" lon="12.3634507"><ele>223.0</ele><time>2026-04-19T15:24:11.76Z</time></trkpt><trkpt lat="42.1233028" lon="12.3635531"><ele>223.0</ele><time>2026-04-19T15:24:12.759Z</time></trkpt><trkpt lat="42.1230693" lon="12.3636373"><ele>221.5</ele><time>2026-04-19T15:24:13.761Z</time></trkpt><trkpt lat="42.1228366" lon="12.3637122"><ele>220.0</ele><time>2026-04-19T15:24:14.761Z</time></trkpt><trkpt lat="42.1226" lon="12.3637773"><ele>220.0</ele><time>2026-04-19T15:24:15.761Z</time></trkpt><trkpt lat="42.122364" lon="12.3638305"><ele>220.0</ele><time>2026-04-19T15:24:16.76Z</time></trkpt><trkpt lat="42.1221304" lon="12.3638727"><ele>220.0</ele><time>2026-04-19T15:24:17.759Z</time></trkpt><trkpt lat="42.1219027" lon="12.3639034"><ele>220.0</ele><time>2026-04-19T15:24:18.76Z</time></trkpt><trkpt lat="42.1216766" lon="12.3639208"><ele>218.5</ele><time>2026-04-19T15:24:19.76Z</time></trkpt><trkpt lat="42.1214445" lon="12.3639269"><ele>217.0</ele><time>2026-04-19T15:24:20.761Z</time></trkpt><trkpt lat="42.1212142" lon="12.3639254"><ele>217.0</ele><time>2026-04-19T15:24:21.76Z</time></trkpt><trkpt lat="42.120987" lon="12.3639231"><ele>217.0</ele><time>2026-04-19T15:24:22.761Z</time></trkpt><trkpt lat="42.1207558" lon="12.3639162"><ele>217.5</ele><time>2026-04-19T15:24:23.761Z</time></trkpt><trkpt lat="42.1205327" lon="12.3639092"><ele>218.0</ele><time>2026-04-19T15:24:24.76Z</time></trkpt><trkpt lat="42.1203063" lon="12.3639032"><ele>218.0</ele><time>2026-04-19T15:24:25.761Z</time></trkpt><trkpt lat="42.1200844" lon="12.3638969"><ele>218.0</ele><time>2026-04-19T15:24:26.761Z</time></trkpt><trkpt lat="42.1198575" lon="12.3638908"><ele>218.0</ele><time>2026-04-19T15:24:27.76Z</time></trkpt><trkpt lat="42.1196279" lon="12.3638837"><ele>216.0</ele><time>2026-04-19T15:24:28.759Z</time></trkpt><trkpt lat="42.1193894" lon="12.3638774"><ele>214.0</ele><time>2026-04-19T15:24:29.759Z</time></trkpt><trkpt lat="42.1191437" lon="12.3638657"><ele>213.5</ele><time>2026-04-19T15:24:30.76Z</time></trkpt><trkpt lat="42.1188908" lon="12.3638535"><ele>213.0</ele><time>2026-04-19T15:24:31.761Z</time></trkpt><trkpt lat="42.1186495" lon="12.3638532"><ele>213.0</ele><time>2026-04-19T15:24:32.761Z</time></trkpt><trkpt lat="42.118412" lon="12.3638534"><ele>213.0</ele><time>2026-04-19T15:24:33.76Z</time></trkpt><trkpt lat="42.1181838" lon="12.3638556"><ele>212.0</ele><time>2026-04-19T15:24:34.761Z</time></trkpt><trkpt lat="42.1179528" lon="12.3638526"><ele>211.0</ele><time>2026-04-19T15:24:35.761Z</time></trkpt><trkpt lat="42.1177155" lon="12.3638471"><ele>211.0</ele><time>2026-04-19T15:24:36.761Z</time></trkpt><trkpt lat="42.1174848" lon="12.363842"><ele>211.0</ele><time>2026-04-19T15:24:37.76Z</time></trkpt><trkpt lat="42.1172555" lon="12.3638334"><ele>211.5</ele><time>2026-04-19T15:24:38.761Z</time></trkpt><trkpt lat="42.1170144" lon="12.3638246"><ele>212.0</ele><time>2026-04-19T15:24:39.76Z</time></trkpt><trkpt lat="42.116766" lon="12.3638199"><ele>213.0</ele><time>2026-04-19T15:24:40.76Z</time></trkpt><trkpt lat="42.1165212" lon="12.3638151"><ele>214.0</ele><time>2026-04-19T15:24:41.76Z</time></trkpt><trkpt lat="42.1162825" lon="12.3638107"><ele>214.0</ele><time>2026-04-19T15:24:42.76Z</time></trkpt><trkpt lat="42.1160353" lon="12.3638064"><ele>214.0</ele><time>2026-04-19T15:24:43.759Z</time></trkpt><trkpt lat="42.1157767" lon="12.3638002"><ele>214.0</ele><time>2026-04-19T15:24:44.76Z</time></trkpt><trkpt lat="42.1155113" lon="12.3638004"><ele>214.0</ele><time>2026-04-19T15:24:45.76Z</time></trkpt><trkpt lat="42.1152388" lon="12.3638017"><ele>214.0</ele><time>2026-04-19T15:24:46.76Z</time></trkpt><trkpt lat="42.1149569" lon="12.3638005"><ele>214.0</ele><time>2026-04-19T15:24:47.76Z</time></trkpt><trkpt lat="42.1146819" lon="12.3637925"><ele>214.0</ele><time>2026-04-19T15:24:48.761Z</time></trkpt><trkpt lat="42.1144179" lon="12.3637805"><ele>214.0</ele><time>2026-04-19T15:24:49.761Z</time></trkpt><trkpt lat="42.1141644" lon="12.3637697"><ele>215.5</ele><time>2026-04-19T15:24:50.76Z</time></trkpt><trkpt lat="42.113918" lon="12.3637627"><ele>217.0</ele><time>2026-04-19T15:24:51.76Z</time></trkpt><trkpt lat="42.1136746" lon="12.3637585"><ele>217.0</ele><time>2026-04-19T15:24:52.76Z</time></trkpt><trkpt lat="42.1134327" lon="12.3637534"><ele>217.0</ele><time>2026-04-19T15:24:53.761Z</time></trkpt><trkpt lat="42.1131973" lon="12.3637482"><ele>218.0</ele><time>2026-04-19T15:24:54.76Z</time></trkpt><trkpt lat="42.1129692" lon="12.3637444"><ele>219.0</ele><time>2026-04-19T15:24:55.761Z</time></trkpt><trkpt lat="42.1127441" lon="12.3637415"><ele>219.0</ele><time>2026-04-19T15:24:56.76Z</time></trkpt><trkpt lat="42.112517" lon="12.3637302"><ele>219.0</ele><time>2026-04-19T15:24:57.761Z</time></trkpt><trkpt lat="42.1122849" lon="12.3637171"><ele>220.0</ele><time>2026-04-19T15:24:58.761Z</time></trkpt><trkpt lat="42.1120512" lon="12.3637129"><ele>221.0</ele><time>2026-04-19T15:24:59.76Z</time></trkpt><trkpt lat="42.1118125" lon="12.363714"><ele>223.5</ele><time>2026-04-19T15:25:00.76Z</time></trkpt><trkpt lat="42.1115717" lon="12.3637138"><ele>226.0</ele><time>2026-04-19T15:25:01.761Z</time></trkpt><trkpt lat="42.1113392" lon="12.3637057"><ele>226.0</ele><time>2026-04-19T15:25:02.76Z</time></trkpt><trkpt lat="42.1111172" lon="12.3636961"><ele>226.0</ele><time>2026-04-19T15:25:03.76Z</time></trkpt><trkpt lat="42.1109079" lon="12.3636926"><ele>226.0</ele><time>2026-04-19T15:25:04.76Z</time></trkpt><trkpt lat="42.1107079" lon="12.3636859"><ele>228.0</ele><time>2026-04-19T15:25:05.76Z</time></trkpt><trkpt lat="42.1105051" lon="12.3636775"><ele>230.0</ele><time>2026-04-19T15:25:06.76Z</time></trkpt><trkpt lat="42.1103001" lon="12.3636776"><ele>232.0</ele><time>2026-04-19T15:25:07.761Z</time></trkpt><trkpt lat="42.1100993" lon="12.3636764"><ele>233.0</ele><time>2026-04-19T15:25:08.76Z</time></trkpt><trkpt lat="42.109897" lon="12.3636741"><ele>234.0</ele><time>2026-04-19T15:25:09.759Z</time></trkpt><trkpt lat="42.1096944" lon="12.3636695"><ele>235.0</ele><time>2026-04-19T15:25:10.759Z</time></trkpt><trkpt lat="42.1094957" lon="12.3636675"><ele>235.0</ele><time>2026-04-19T15:25:11.759Z</time></trkpt><trkpt lat="42.1092977" lon="12.3636669"><ele>235.0</ele><time>2026-04-19T15:25:12.761Z</time></trkpt><trkpt lat="42.109096" lon="12.3636672"><ele>235.0</ele><time>2026-04-19T15:25:13.761Z</time></trkpt><trkpt lat="42.1088889" lon="12.363662"><ele>236.33333333333331</ele><time>2026-04-19T15:25:14.76Z</time></trkpt><trkpt lat="42.1086731" lon="12.3636518"><ele>237.66666666666669</ele><time>2026-04-19T15:25:15.761Z</time></trkpt><trkpt lat="42.1084469" lon="12.3636431"><ele>239.0</ele><time>2026-04-19T15:25:16.761Z</time></trkpt><trkpt lat="42.1082128" lon="12.3636326"><ele>240.5</ele><time>2026-04-19T15:25:17.76Z</time></trkpt><trkpt lat="42.1079743" lon="12.3636282"><ele>242.0</ele><time>2026-04-19T15:25:18.761Z</time></trkpt><trkpt lat="42.1077322" lon="12.3636247"><ele>242.0</ele><time>2026-04-19T15:25:19.761Z</time></trkpt><trkpt lat="42.1074944" lon="12.3636135"><ele>242.0</ele><time>2026-04-19T15:25:20.759Z</time></trkpt><trkpt lat="42.1072614" lon="12.3636072"><ele>243.66666666666669</ele><time>2026-04-19T15:25:21.76Z</time></trkpt><trkpt lat="42.1070414" lon="12.363604"><ele>245.33333333333331</ele><time>2026-04-19T15:25:22.76Z</time></trkpt><trkpt lat="42.1068239" lon="12.3636074"><ele>247.0</ele><time>2026-04-19T15:25:23.761Z</time></trkpt><trkpt lat="42.1066032" lon="12.3636186"><ele>248.33333333333331</ele><time>2026-04-19T15:25:24.759Z</time></trkpt><trkpt lat="42.1063827" lon="12.3636476"><ele>249.66666666666669</ele><time>2026-04-19T15:25:25.759Z</time></trkpt><trkpt lat="42.1061658" lon="12.3636928"><ele>251.0</ele><time>2026-04-19T15:25:26.76Z</time></trkpt><trkpt lat="42.1059525" lon="12.3637468"><ele>252.33333333333334</ele><time>2026-04-19T15:25:27.759Z</time></trkpt><trkpt lat="42.1057437" lon="12.3638129"><ele>253.66666666666669</ele><time>2026-04-19T15:25:28.76Z</time></trkpt><trkpt lat="42.1055437" lon="12.3638854"><ele>255.0</ele><time>2026-04-19T15:25:29.76Z</time></trkpt><trkpt lat="42.105348" lon="12.3639682"><ele>255.0</ele><time>2026-04-19T15:25:30.76Z</time></trkpt><trkpt lat="42.1051524" lon="12.364065"><ele>255.0</ele><time>2026-04-19T15:25:31.76Z</time></trkpt><trkpt lat="42.104953" lon="12.3641726"><ele>255.0</ele><time>2026-04-19T15:25:32.759Z</time></trkpt><trkpt lat="42.1047445" lon="12.3642843"><ele>256.6666666666667</ele><time>2026-04-19T15:25:33.76Z</time></trkpt><trkpt lat="42.1045377" lon="12.3643989"><ele>258.33333333333337</ele><time>2026-04-19T15:25:34.761Z</time></trkpt><trkpt lat="42.1043328" lon="12.3645108"><ele>260.0</ele><time>2026-04-19T15:25:35.761Z</time></trkpt><trkpt lat="42.1041209" lon="12.364627"><ele>262.6666666666667</ele><time>2026-04-19T15:25:36.76Z</time></trkpt><trkpt lat="42.103914" lon="12.3647423"><ele>265.3333333333333</ele><time>2026-04-19T15:25:37.76Z</time></trkpt><trkpt lat="42.1037111" lon="12.3648535"><ele>268.0</ele><time>2026-04-19T15:25:38.76Z</time></trkpt><trkpt lat="42.1035098" lon="12.3649647"><ele>268.0</ele><time>2026-04-19T15:25:39.76Z</time></trkpt><trkpt lat="42.1033096" lon="12.3650749"><ele>268.0</ele><time>2026-04-19T15:25:40.761Z</time></trkpt><trkpt lat="42.1031038" lon="12.3651861"><ele>268.0</ele><time>2026-04-19T15:25:41.76Z</time></trkpt><trkpt lat="42.1028908" lon="12.3653084"><ele>270.5</ele><time>2026-04-19T15:25:42.76Z</time></trkpt><trkpt lat="42.102675" lon="12.3654363"><ele>273.0</ele><time>2026-04-19T15:25:43.761Z</time></trkpt><trkpt lat="42.1024534" lon="12.3655638"><ele>273.0</ele><time>2026-04-19T15:25:44.76Z</time></trkpt><trkpt lat="42.1022288" lon="12.3656926"><ele>273.0</ele><time>2026-04-19T15:25:45.761Z</time></trkpt><trkpt lat="42.1020027" lon="12.3658184"><ele>273.0</ele><time>2026-04-19T15:25:46.76Z</time></trkpt><trkpt lat="42.1017782" lon="12.3659368"><ele>273.0</ele><time>2026-04-19T15:25:47.76Z</time></trkpt><trkpt lat="42.1015573" lon="12.3660571"><ele>272.5</ele><time>2026-04-19T15:25:48.76Z</time></trkpt><trkpt lat="42.1013398" lon="12.3661755"><ele>272.0</ele><time>2026-04-19T15:25:49.761Z</time></trkpt><trkpt lat="42.1011338" lon="12.3662908"><ele>275.33333333333337</ele><time>2026-04-19T15:25:50.759Z</time></trkpt><trkpt lat="42.1009376" lon="12.3664057"><ele>278.6666666666667</ele><time>2026-04-19T15:25:51.76Z</time></trkpt><trkpt lat="42.1007463" lon="12.366523"><ele>282.0</ele><time>2026-04-19T15:25:52.759Z</time></trkpt><trkpt lat="42.1005591" lon="12.366639"><ele>282.0</ele><time>2026-04-19T15:25:53.76Z</time></trkpt><trkpt lat="42.1003777" lon="12.3667524"><ele>282.0</ele><time>2026-04-19T15:25:54.761Z</time></trkpt><trkpt lat="42.1002021" lon="12.3668657"><ele>282.0</ele><time>2026-04-19T15:25:55.761Z</time></trkpt><trkpt lat="42.1000292" lon="12.3669744"><ele>283.6666666666667</ele><time>2026-04-19T15:25:56.76Z</time></trkpt><trkpt lat="42.0998598" lon="12.3670821"><ele>285.33333333333337</ele><time>2026-04-19T15:25:57.76Z</time></trkpt><trkpt lat="42.0996934" lon="12.3671814"><ele>287.0</ele><time>2026-04-19T15:25:58.76Z</time></trkpt><trkpt lat="42.099528" lon="12.3672881"><ele>287.0</ele><time>2026-04-19T15:25:59.761Z</time></trkpt><trkpt lat="42.0993558" lon="12.3673929"><ele>287.0</ele><time>2026-04-19T15:26:00.76Z</time></trkpt><trkpt lat="42.0991827" lon="12.3674894"><ele>287.0</ele><time>2026-04-19T15:26:01.759Z</time></trkpt><trkpt lat="42.099006" lon="12.3675762"><ele>286.6666666666667</ele><time>2026-04-19T15:26:02.759Z</time></trkpt><trkpt lat="42.0988236" lon="12.3676481"><ele>286.3333333333333</ele><time>2026-04-19T15:26:03.761Z</time></trkpt><trkpt lat="42.0986356" lon="12.3677058"><ele>286.0</ele><time>2026-04-19T15:26:04.761Z</time></trkpt><trkpt lat="42.0984466" lon="12.367751"><ele>286.0</ele><time>2026-04-19T15:26:05.759Z</time></trkpt><trkpt lat="42.098254" lon="12.3677787"><ele>286.0</ele><time>2026-04-19T15:26:06.76Z</time></trkpt><trkpt lat="42.0980488" lon="12.3677921"><ele>286.0</ele><time>2026-04-19T15:26:07.76Z</time></trkpt><trkpt lat="42.0978322" lon="12.3677897"><ele>289.0</ele><time>2026-04-19T15:26:08.76Z</time></trkpt><trkpt lat="42.0976034" lon="12.3677675"><ele>292.0</ele><time>2026-04-19T15:26:09.76Z</time></trkpt><trkpt lat="42.0973683" lon="12.3677244"><ele>294.5</ele><time>2026-04-19T15:26:10.761Z</time></trkpt><trkpt lat="42.0971319" lon="12.3676752"><ele>297.0</ele><time>2026-04-19T15:26:11.761Z</time></trkpt><trkpt lat="42.0968959" lon="12.3676255"><ele>297.0</ele><time>2026-04-19T15:26:12.76Z</time></trkpt><trkpt lat="42.096662" lon="12.3675677"><ele>297.0</ele><time>2026-04-19T15:26:13.761Z</time></trkpt><trkpt lat="42.0964337" lon="12.3675057"><ele>300.3333333333333</ele><time>2026-04-19T15:26:14.761Z</time></trkpt><trkpt lat="42.0962153" lon="12.3674424"><ele>303.66666666666663</ele><time>2026-04-19T15:26:15.76Z</time></trkpt><trkpt lat="42.0960081" lon="12.3673814"><ele>307.0</ele><time>2026-04-19T15:26:16.76Z</time></trkpt><trkpt lat="42.0958086" lon="12.3673275"><ele>306.3333333333333</ele><time>2026-04-19T15:26:17.76Z</time></trkpt><trkpt lat="42.0956129" lon="12.3672908"><ele>305.6666666666667</ele><time>2026-04-19T15:26:18.76Z</time></trkpt><trkpt lat="42.0954144" lon="12.3672646"><ele>305.0</ele><time>2026-04-19T15:26:19.761Z</time></trkpt><trkpt lat="42.0952129" lon="12.3672528"><ele>305.0</ele><time>2026-04-19T15:26:20.76Z</time></trkpt><trkpt lat="42.0950105" lon="12.3672511"><ele>305.0</ele><time>2026-04-19T15:26:21.76Z</time></trkpt><trkpt lat="42.0948049" lon="12.3672646"><ele>305.0</ele><time>2026-04-19T15:26:22.761Z</time></trkpt><trkpt lat="42.0945969" lon="12.3672914"><ele>303.33333333333337</ele><time>2026-04-19T15:26:23.76Z</time></trkpt><trkpt lat="42.0943949" lon="12.3673331"><ele>301.6666666666667</ele><time>2026-04-19T15:26:24.76Z</time></trkpt><trkpt lat="42.0941909" lon="12.3673882"><ele>300.0</ele><time>2026-04-19T15:26:25.76Z</time></trkpt><trkpt lat="42.0939897" lon="12.3674661"><ele>297.6666666666667</ele><time>2026-04-19T15:26:26.76Z</time></trkpt><trkpt lat="42.0937828" lon="12.3675575"><ele>295.33333333333337</ele><time>2026-04-19T15:26:27.76Z</time></trkpt><trkpt lat="42.093577" lon="12.3676711"><ele>293.0</ele><time>2026-04-19T15:26:28.761Z</time></trkpt><trkpt lat="42.0929701" lon="12.3681036"><ele>289.5</ele><time>2026-04-19T15:26:31.76Z</time></trkpt><trkpt lat="42.0927792" lon="12.3682805"><ele>286.0</ele><time>2026-04-19T15:26:32.76Z</time></trkpt><trkpt lat="42.0925955" lon="12.368479"><ele>283.0</ele><time>2026-04-19T15:26:33.759Z</time></trkpt><trkpt lat="42.0924159" lon="12.3686962"><ele>280.0</ele><time>2026-04-19T15:26:34.761Z</time></trkpt><trkpt lat="42.092242" lon="12.3689281"><ele>278.0</ele><time>2026-04-19T15:26:35.76Z</time></trkpt><trkpt lat="42.0920667" lon="12.3691631"><ele>276.0</ele><time>2026-04-19T15:26:36.76Z</time></trkpt><trkpt lat="42.0918897" lon="12.3694"><ele>276.0</ele><time>2026-04-19T15:26:37.759Z</time></trkpt><trkpt lat="42.091712" lon="12.3696375"><ele>276.0</ele><time>2026-04-19T15:26:38.76Z</time></trkpt><trkpt lat="42.0915313" lon="12.3698762"><ele>274.5</ele><time>2026-04-19T15:26:39.76Z</time></trkpt><trkpt lat="42.0913499" lon="12.3701137"><ele>273.0</ele><time>2026-04-19T15:26:40.759Z</time></trkpt><trkpt lat="42.0911717" lon="12.3703566"><ele>273.5</ele><time>2026-04-19T15:26:41.76Z</time></trkpt><trkpt lat="42.0909955" lon="12.3705975"><ele>274.0</ele><time>2026-04-19T15:26:42.76Z</time></trkpt><trkpt lat="42.0908209" lon="12.3708356"><ele>273.0</ele><time>2026-04-19T15:26:43.76Z</time></trkpt><trkpt lat="42.0906473" lon="12.3710657"><ele>272.0</ele><time>2026-04-19T15:26:44.76Z</time></trkpt><trkpt lat="42.0904757" lon="12.3712899"><ele>271.0</ele><time>2026-04-19T15:26:45.76Z</time></trkpt><trkpt lat="42.0903115" lon="12.3715106"><ele>270.0</ele><time>2026-04-19T15:26:46.761Z</time></trkpt><trkpt lat="42.090151" lon="12.3717226"><ele>270.0</ele><time>2026-04-19T15:26:47.761Z</time></trkpt><trkpt lat="42.0899936" lon="12.3719388"><ele>270.0</ele><time>2026-04-19T15:26:48.76Z</time></trkpt><trkpt lat="42.0898401" lon="12.3721513"><ele>270.0</ele><time>2026-04-19T15:26:49.76Z</time></trkpt><trkpt lat="42.0896884" lon="12.3723556"><ele>268.6666666666667</ele><time>2026-04-19T15:26:50.761Z</time></trkpt><trkpt lat="42.0895371" lon="12.3725653"><ele>267.33333333333337</ele><time>2026-04-19T15:26:51.761Z</time></trkpt><trkpt lat="42.0893831" lon="12.3727684"><ele>266.0</ele><time>2026-04-19T15:26:52.761Z</time></trkpt><trkpt lat="42.0892276" lon="12.3729679"><ele>267.6666666666667</ele><time>2026-04-19T15:26:53.76Z</time></trkpt><trkpt lat="42.0890629" lon="12.3731518"><ele>269.3333333333333</ele><time>2026-04-19T15:26:54.761Z</time></trkpt><trkpt lat="42.0888899" lon="12.3733207"><ele>271.0</ele><time>2026-04-19T15:26:55.761Z</time></trkpt><trkpt lat="42.0887094" lon="12.3734717"><ele>271.0</ele><time>2026-04-19T15:26:56.76Z</time></trkpt><trkpt lat="42.0885238" lon="12.3736033"><ele>271.0</ele><time>2026-04-19T15:26:57.761Z</time></trkpt><trkpt lat="42.0883336" lon="12.373718"><ele>271.0</ele><time>2026-04-19T15:26:58.76Z</time></trkpt><trkpt lat="42.0881412" lon="12.3738147"><ele>272.0</ele><time>2026-04-19T15:26:59.761Z</time></trkpt><trkpt lat="42.0879427" lon="12.3738941"><ele>273.0</ele><time>2026-04-19T15:27:00.76Z</time></trkpt><trkpt lat="42.087737" lon="12.3739568"><ele>274.0</ele><time>2026-04-19T15:27:01.761Z</time></trkpt><trkpt lat="42.0875268" lon="12.3740122"><ele>272.0</ele><time>2026-04-19T15:27:02.759Z</time></trkpt><trkpt lat="42.087312" lon="12.3740524"><ele>270.0</ele><time>2026-04-19T15:27:03.761Z</time></trkpt><trkpt lat="42.0870961" lon="12.3740769"><ele>268.0</ele><time>2026-04-19T15:27:04.761Z</time></trkpt><trkpt lat="42.0868835" lon="12.3740788"><ele>268.0</ele><time>2026-04-19T15:27:05.76Z</time></trkpt><trkpt lat="42.0866691" lon="12.3740593"><ele>268.0</ele><time>2026-04-19T15:27:06.76Z</time></trkpt><trkpt lat="42.0864552" lon="12.3740313"><ele>268.0</ele><time>2026-04-19T15:27:07.76Z</time></trkpt><trkpt lat="42.0862362" lon="12.374002"><ele>268.3333333333333</ele><time>2026-04-19T15:27:08.76Z</time></trkpt><trkpt lat="42.0860168" lon="12.3739699"><ele>268.6666666666667</ele><time>2026-04-19T15:27:09.76Z</time></trkpt><trkpt lat="42.0857906" lon="12.3739398"><ele>269.0</ele><time>2026-04-19T15:27:10.759Z</time></trkpt><trkpt lat="42.0855521" lon="12.3739065"><ele>273.0</ele><time>2026-04-19T15:27:11.76Z</time></trkpt><trkpt lat="42.0853139" lon="12.3738721"><ele>277.0</ele><time>2026-04-19T15:27:12.76Z</time></trkpt><trkpt lat="42.0850805" lon="12.3738404"><ele>274.5</ele><time>2026-04-19T15:27:13.759Z</time></trkpt><trkpt lat="42.0848394" lon="12.373815"><ele>272.0</ele><time>2026-04-19T15:27:14.761Z</time></trkpt><trkpt lat="42.0845833" lon="12.3737959"><ele>272.0</ele><time>2026-04-19T15:27:15.761Z</time></trkpt><trkpt lat="42.0843134" lon="12.3737743"><ele>272.0</ele><time>2026-04-19T15:27:16.76Z</time></trkpt><trkpt lat="42.0840412" lon="12.3737444"><ele>272.0</ele><time>2026-04-19T15:27:17.759Z</time></trkpt><trkpt lat="42.0837779" lon="12.3737045"><ele>272.0</ele><time>2026-04-19T15:27:18.761Z</time></trkpt><trkpt lat="42.0835186" lon="12.3736707"><ele>272.0</ele><time>2026-04-19T15:27:19.761Z</time></trkpt><trkpt lat="42.083269" lon="12.3736356"><ele>272.0</ele><time>2026-04-19T15:27:20.761Z</time></trkpt><trkpt lat="42.0830221" lon="12.3736006"><ele>272.0</ele><time>2026-04-19T15:27:21.761Z</time></trkpt><trkpt lat="42.082776" lon="12.3735692"><ele>272.0</ele><time>2026-04-19T15:27:22.759Z</time></trkpt><trkpt lat="42.0825295" lon="12.3735384"><ele>268.5</ele><time>2026-04-19T15:27:23.761Z</time></trkpt><trkpt lat="42.0822852" lon="12.3735069"><ele>265.0</ele><time>2026-04-19T15:27:24.76Z</time></trkpt><trkpt lat="42.0820406" lon="12.3734796"><ele>265.0</ele><time>2026-04-19T15:27:25.761Z</time></trkpt><trkpt lat="42.081801" lon="12.3734482"><ele>265.0</ele><time>2026-04-19T15:27:26.759Z</time></trkpt><trkpt lat="42.0815553" lon="12.3734221"><ele>262.0</ele><time>2026-04-19T15:27:27.76Z</time></trkpt><trkpt lat="42.0813137" lon="12.3733973"><ele>259.0</ele><time>2026-04-19T15:27:28.76Z</time></trkpt><trkpt lat="42.081065" lon="12.3733681"><ele>259.0</ele><time>2026-04-19T15:27:29.76Z</time></trkpt><trkpt lat="42.0808241" lon="12.3733351"><ele>259.0</ele><time>2026-04-19T15:27:30.759Z</time></trkpt><trkpt lat="42.0805832" lon="12.3733079"><ele>257.5</ele><time>2026-04-19T15:27:31.76Z</time></trkpt><trkpt lat="42.0803428" lon="12.3732677"><ele>256.0</ele><time>2026-04-19T15:27:32.761Z</time></trkpt><trkpt lat="42.0800956" lon="12.3732392"><ele>251.0</ele><time>2026-04-19T15:27:33.761Z</time></trkpt><trkpt lat="42.0798456" lon="12.3732081"><ele>246.0</ele><time>2026-04-19T15:27:34.761Z</time></trkpt><trkpt lat="42.0795945" lon="12.3731742"><ele>246.0</ele><time>2026-04-19T15:27:35.76Z</time></trkpt><trkpt lat="42.0793441" lon="12.3731435"><ele>246.0</ele><time>2026-04-19T15:27:36.761Z</time></trkpt><trkpt lat="42.0790934" lon="12.3731147"><ele>243.5</ele><time>2026-04-19T15:27:37.76Z</time></trkpt><trkpt lat="42.0788436" lon="12.3730847"><ele>241.0</ele><time>2026-04-19T15:27:38.76Z</time></trkpt><trkpt lat="42.0785951" lon="12.3730561"><ele>241.0</ele><time>2026-04-19T15:27:39.761Z</time></trkpt><trkpt lat="42.0783512" lon="12.3730275"><ele>241.0</ele><time>2026-04-19T15:27:40.761Z</time></trkpt><trkpt lat="42.0781064" lon="12.3729996"><ele>236.5</ele><time>2026-04-19T15:27:41.76Z</time></trkpt><trkpt lat="42.0778655" lon="12.3729739"><ele>232.0</ele><time>2026-04-19T15:27:42.761Z</time></trkpt><trkpt lat="42.0776211" lon="12.3729449"><ele>229.0</ele><time>2026-04-19T15:27:43.761Z</time></trkpt><trkpt lat="42.0773759" lon="12.3729182"><ele>226.0</ele><time>2026-04-19T15:27:44.76Z</time></trkpt><trkpt lat="42.0771323" lon="12.3728904"><ele>226.0</ele><time>2026-04-19T15:27:45.761Z</time></trkpt><trkpt lat="42.0768868" lon="12.3728636"><ele>226.0</ele><time>2026-04-19T15:27:46.761Z</time></trkpt><trkpt lat="42.0766368" lon="12.3728362"><ele>225.0</ele><time>2026-04-19T15:27:47.759Z</time></trkpt><trkpt lat="42.0763961" lon="12.3728106"><ele>224.0</ele><time>2026-04-19T15:27:48.759Z</time></trkpt><trkpt lat="42.0761468" lon="12.3727779"><ele>224.0</ele><time>2026-04-19T15:27:49.759Z</time></trkpt><trkpt lat="42.0759064" lon="12.372751"><ele>224.0</ele><time>2026-04-19T15:27:50.76Z</time></trkpt><trkpt lat="42.0756638" lon="12.3727233"><ele>221.5</ele><time>2026-04-19T15:27:51.76Z</time></trkpt><trkpt lat="42.0754213" lon="12.3727011"><ele>219.0</ele><time>2026-04-19T15:27:52.759Z</time></trkpt><trkpt lat="42.0751811" lon="12.372676"><ele>219.0</ele><time>2026-04-19T15:27:53.76Z</time></trkpt><trkpt lat="42.0749422" lon="12.3726484"><ele>219.0</ele><time>2026-04-19T15:27:54.76Z</time></trkpt><trkpt lat="42.0746975" lon="12.3726229"><ele>217.5</ele><time>2026-04-19T15:27:55.76Z</time></trkpt><trkpt lat="42.0744553" lon="12.372598"><ele>216.0</ele><time>2026-04-19T15:27:56.759Z</time></trkpt><trkpt lat="42.0742151" lon="12.3725798"><ele>215.0</ele><time>2026-04-19T15:27:57.76Z</time></trkpt><trkpt lat="42.0739799" lon="12.3725685"><ele>214.0</ele><time>2026-04-19T15:27:58.76Z</time></trkpt><trkpt lat="42.073748" lon="12.3725611"><ele>214.0</ele><time>2026-04-19T15:27:59.76Z</time></trkpt><trkpt lat="42.073521" lon="12.3725589"><ele>214.0</ele><time>2026-04-19T15:28:00.761Z</time></trkpt><trkpt lat="42.0732951" lon="12.3725605"><ele>213.5</ele><time>2026-04-19T15:28:01.761Z</time></trkpt><trkpt lat="42.0730626" lon="12.372562"><ele>213.0</ele><time>2026-04-19T15:28:02.76Z</time></trkpt><trkpt lat="42.0728287" lon="12.3725643"><ele>213.0</ele><time>2026-04-19T15:28:03.759Z</time></trkpt><trkpt lat="42.0725938" lon="12.372565"><ele>213.0</ele><time>2026-04-19T15:28:04.761Z</time></trkpt><trkpt lat="42.0723578" lon="12.3725661"><ele>211.0</ele><time>2026-04-19T15:28:05.76Z</time></trkpt><trkpt lat="42.0721196" lon="12.37257"><ele>209.0</ele><time>2026-04-19T15:28:06.761Z</time></trkpt><trkpt lat="42.0718804" lon="12.3725761"><ele>209.0</ele><time>2026-04-19T15:28:07.761Z</time></trkpt><trkpt lat="42.0716371" lon="12.3725808"><ele>209.0</ele><time>2026-04-19T15:28:08.76Z</time></trkpt><trkpt lat="42.0713968" lon="12.3725864"><ele>205.0</ele><time>2026-04-19T15:28:09.759Z</time></trkpt><trkpt lat="42.0711581" lon="12.3725863"><ele>201.0</ele><time>2026-04-19T15:28:10.76Z</time></trkpt><trkpt lat="42.0709242" lon="12.3725871"><ele>199.0</ele><time>2026-04-19T15:28:11.76Z</time></trkpt><trkpt lat="42.0706973" lon="12.3725861"><ele>197.0</ele><time>2026-04-19T15:28:12.761Z</time></trkpt><trkpt lat="42.0704816" lon="12.3725848"><ele>195.0</ele><time>2026-04-19T15:28:13.761Z</time></trkpt><trkpt lat="42.0702657" lon="12.3725889"><ele>195.0</ele><time>2026-04-19T15:28:14.76Z</time></trkpt><trkpt lat="42.0700521" lon="12.3725953"><ele>195.0</ele><time>2026-04-19T15:28:15.76Z</time></trkpt><trkpt lat="42.0698339" lon="12.3725976"><ele>195.0</ele><time>2026-04-19T15:28:16.761Z</time></trkpt><trkpt lat="42.069609" lon="12.3725979"><ele>193.0</ele><time>2026-04-19T15:28:17.761Z</time></trkpt><trkpt lat="42.0693775" lon="12.3725976"><ele>191.0</ele><time>2026-04-19T15:28:18.76Z</time></trkpt><trkpt lat="42.0691445" lon="12.3725957"><ele>189.5</ele><time>2026-04-19T15:28:19.76Z</time></trkpt><trkpt lat="42.0689147" lon="12.3725926"><ele>188.0</ele><time>2026-04-19T15:28:20.761Z</time></trkpt><trkpt lat="42.0686837" lon="12.3725934"><ele>188.0</ele><time>2026-04-19T15:28:21.761Z</time></trkpt><trkpt lat="42.0684495" lon="12.3725954"><ele>188.0</ele><time>2026-04-19T15:28:22.761Z</time></trkpt><trkpt lat="42.0682125" lon="12.3725985"><ele>186.5</ele><time>2026-04-19T15:28:23.761Z</time></trkpt><trkpt lat="42.0679751" lon="12.3725981"><ele>185.0</ele><time>2026-04-19T15:28:24.761Z</time></trkpt><trkpt lat="42.067737" lon="12.3726006"><ele>185.0</ele><time>2026-04-19T15:28:25.76Z</time></trkpt><trkpt lat="42.0675049" lon="12.3726027"><ele>185.0</ele><time>2026-04-19T15:28:26.76Z</time></trkpt><trkpt lat="42.0672766" lon="12.3726095"><ele>183.66666666666666</ele><time>2026-04-19T15:28:27.76Z</time></trkpt><trkpt lat="42.0670531" lon="12.3726176"><ele>182.33333333333334</ele><time>2026-04-19T15:28:28.761Z</time></trkpt><trkpt lat="42.0668353" lon="12.372629"><ele>181.0</ele><time>2026-04-19T15:28:29.761Z</time></trkpt><trkpt lat="42.066619" lon="12.3726406"><ele>180.0</ele><time>2026-04-19T15:28:30.761Z</time></trkpt><trkpt lat="42.0663974" lon="12.3726499"><ele>179.0</ele><time>2026-04-19T15:28:31.76Z</time></trkpt><trkpt lat="42.0661759" lon="12.3726613"><ele>178.0</ele><time>2026-04-19T15:28:32.761Z</time></trkpt><trkpt lat="42.0659585" lon="12.3726788"><ele>177.33333333333334</ele><time>2026-04-19T15:28:33.761Z</time></trkpt><trkpt lat="42.0657476" lon="12.3726963"><ele>176.66666666666666</ele><time>2026-04-19T15:28:34.761Z</time></trkpt><trkpt lat="42.0655357" lon="12.3727122"><ele>176.0</ele><time>2026-04-19T15:28:35.759Z</time></trkpt><trkpt lat="42.0653249" lon="12.3727234"><ele>176.0</ele><time>2026-04-19T15:28:36.759Z</time></trkpt><trkpt lat="42.0651171" lon="12.3727321"><ele>176.0</ele><time>2026-04-19T15:28:37.759Z</time></trkpt><trkpt lat="42.0649003" lon="12.3727415"><ele>176.0</ele><time>2026-04-19T15:28:38.76Z</time></trkpt><trkpt lat="42.0646698" lon="12.3727477"><ele>174.0</ele><time>2026-04-19T15:28:39.76Z</time></trkpt><trkpt lat="42.0644423" lon="12.3727508"><ele>172.0</ele><time>2026-04-19T15:28:40.76Z</time></trkpt><trkpt lat="42.0642272" lon="12.372759"><ele>170.0</ele><time>2026-04-19T15:28:41.76Z</time></trkpt><trkpt lat="42.0640173" lon="12.3727693"><ele>170.0</ele><time>2026-04-19T15:28:42.76Z</time></trkpt><trkpt lat="42.0638102" lon="12.3727835"><ele>170.0</ele><time>2026-04-19T15:28:43.759Z</time></trkpt><trkpt lat="42.0636077" lon="12.3727978"><ele>170.0</ele><time>2026-04-19T15:28:44.759Z</time></trkpt><trkpt lat="42.0634099" lon="12.3728116"><ele>169.33333333333331</ele><time>2026-04-19T15:28:45.76Z</time></trkpt><trkpt lat="42.0632157" lon="12.3728262"><ele>168.66666666666666</ele><time>2026-04-19T15:28:46.76Z</time></trkpt><trkpt lat="42.063024" lon="12.3728375"><ele>168.0</ele><time>2026-04-19T15:28:47.76Z</time></trkpt><trkpt lat="42.06282" lon="12.3728482"><ele>168.0</ele><time>2026-04-19T15:28:48.761Z</time></trkpt><trkpt lat="42.0626069" lon="12.372862"><ele>168.0</ele><time>2026-04-19T15:28:49.761Z</time></trkpt><trkpt lat="42.0623846" lon="12.3728779"><ele>168.0</ele><time>2026-04-19T15:28:50.761Z</time></trkpt><trkpt lat="42.0621589" lon="12.3728953"><ele>167.66666666666666</ele><time>2026-04-19T15:28:51.759Z</time></trkpt><trkpt lat="42.061932" lon="12.3729104"><ele>167.33333333333331</ele><time>2026-04-19T15:28:52.76Z</time></trkpt><trkpt lat="42.0617158" lon="12.372922"><ele>167.0</ele><time>2026-04-19T15:28:53.76Z</time></trkpt><trkpt lat="42.061505" lon="12.3729335"><ele>167.0</ele><time>2026-04-19T15:28:54.76Z</time></trkpt><trkpt lat="42.061297" lon="12.372946"><ele>167.0</ele><time>2026-04-19T15:28:55.76Z</time></trkpt><trkpt lat="42.0610949" lon="12.3729531"><ele>167.0</ele><time>2026-04-19T15:28:56.759Z</time></trkpt><trkpt lat="42.0608941" lon="12.3729519"><ele>167.0</ele><time>2026-04-19T15:28:57.759Z</time></trkpt><trkpt lat="42.060696" lon="12.372948"><ele>167.0</ele><time>2026-04-19T15:28:58.76Z</time></trkpt><trkpt lat="42.0605001" lon="12.3729387"><ele>167.0</ele><time>2026-04-19T15:28:59.761Z</time></trkpt><trkpt lat="42.0603053" lon="12.3729183"><ele>167.0</ele><time>2026-04-19T15:29:00.761Z</time></trkpt><trkpt lat="42.0601092" lon="12.3728971"><ele>167.0</ele><time>2026-04-19T15:29:01.761Z</time></trkpt><trkpt lat="42.059916" lon="12.3728805"><ele>167.0</ele><time>2026-04-19T15:29:02.76Z</time></trkpt><trkpt lat="42.0597254" lon="12.3728625"><ele>166.0</ele><time>2026-04-19T15:29:03.76Z</time></trkpt><trkpt lat="42.0595381" lon="12.3728411"><ele>165.0</ele><time>2026-04-19T15:29:04.761Z</time></trkpt><trkpt lat="42.0593588" lon="12.3728247"><ele>164.0</ele><time>2026-04-19T15:29:05.761Z</time></trkpt><trkpt lat="42.0591866" lon="12.372807"><ele>162.33333333333331</ele><time>2026-04-19T15:29:06.76Z</time></trkpt><trkpt lat="42.0590061" lon="12.3727908"><ele>160.66666666666666</ele><time>2026-04-19T15:29:07.76Z</time></trkpt><trkpt lat="42.0588209" lon="12.3727764"><ele>159.0</ele><time>2026-04-19T15:29:08.761Z</time></trkpt><trkpt lat="42.058622" lon="12.3727582"><ele>159.0</ele><time>2026-04-19T15:29:09.76Z</time></trkpt><trkpt lat="42.0584131" lon="12.3727367"><ele>159.0</ele><time>2026-04-19T15:29:10.761Z</time></trkpt><trkpt lat="42.0581995" lon="12.3727119"><ele>159.0</ele><time>2026-04-19T15:29:11.76Z</time></trkpt><trkpt lat="42.0579826" lon="12.37269"><ele>158.5</ele><time>2026-04-19T15:29:12.761Z</time></trkpt><trkpt lat="42.057753" lon="12.3726663"><ele>158.0</ele><time>2026-04-19T15:29:13.761Z</time></trkpt><trkpt lat="42.0575175" lon="12.3726457"><ele>157.0</ele><time>2026-04-19T15:29:14.759Z</time></trkpt><trkpt lat="42.0572802" lon="12.3726269"><ele>156.0</ele><time>2026-04-19T15:29:15.76Z</time></trkpt><trkpt lat="42.0570471" lon="12.3726115"><ele>156.0</ele><time>2026-04-19T15:29:16.76Z</time></trkpt><trkpt lat="42.0568179" lon="12.3726024"><ele>156.0</ele><time>2026-04-19T15:29:17.761Z</time></trkpt><trkpt lat="42.0565905" lon="12.372604"><ele>155.0</ele><time>2026-04-19T15:29:18.76Z</time></trkpt><trkpt lat="42.0563607" lon="12.372625"><ele>154.0</ele><time>2026-04-19T15:29:19.761Z</time></trkpt><trkpt lat="42.0561251" lon="12.3726674"><ele>154.0</ele><time>2026-04-19T15:29:20.761Z</time></trkpt><trkpt lat="42.055888" lon="12.3727288"><ele>154.0</ele><time>2026-04-19T15:29:21.761Z</time></trkpt><trkpt lat="42.0556568" lon="12.3728102"><ele>152.5</ele><time>2026-04-19T15:29:22.761Z</time></trkpt><trkpt lat="42.0554246" lon="12.3729078"><ele>151.0</ele><time>2026-04-19T15:29:23.761Z</time></trkpt><trkpt lat="42.0551961" lon="12.3730258"><ele>151.0</ele><time>2026-04-19T15:29:24.759Z</time></trkpt><trkpt lat="42.0549785" lon="12.3731647"><ele>151.0</ele><time>2026-04-19T15:29:25.761Z</time></trkpt><trkpt lat="42.0547665" lon="12.3733178"><ele>150.5</ele><time>2026-04-19T15:29:26.76Z</time></trkpt><trkpt lat="42.05456" lon="12.3734801"><ele>150.0</ele><time>2026-04-19T15:29:27.759Z</time></trkpt><trkpt lat="42.0543574" lon="12.373662"><ele>150.0</ele><time>2026-04-19T15:29:28.761Z</time></trkpt><trkpt lat="42.0541674" lon="12.3738632"><ele>150.0</ele><time>2026-04-19T15:29:29.76Z</time></trkpt><trkpt lat="42.0539917" lon="12.3740796"><ele>150.0</ele><time>2026-04-19T15:29:30.76Z</time></trkpt><trkpt lat="42.0538243" lon="12.3743072"><ele>150.0</ele><time>2026-04-19T15:29:31.761Z</time></trkpt><trkpt lat="42.053667" lon="12.374548"><ele>149.0</ele><time>2026-04-19T15:29:32.761Z</time></trkpt><trkpt lat="42.0535186" lon="12.3747983"><ele>148.0</ele><time>2026-04-19T15:29:33.761Z</time></trkpt><trkpt lat="42.0533819" lon="12.3750637"><ele>147.0</ele><time>2026-04-19T15:29:34.761Z</time></trkpt><trkpt lat="42.0532433" lon="12.3753271"><ele>146.0</ele><time>2026-04-19T15:29:35.76Z</time></trkpt><trkpt lat="42.0531038" lon="12.3755939"><ele>146.0</ele><time>2026-04-19T15:29:36.76Z</time></trkpt><trkpt lat="42.0529589" lon="12.3758582"><ele>146.0</ele><time>2026-04-19T15:29:37.76Z</time></trkpt><trkpt lat="42.0528151" lon="12.3761244"><ele>146.0</ele><time>2026-04-19T15:29:38.76Z</time></trkpt><trkpt lat="42.05267" lon="12.3763874"><ele>146.0</ele><time>2026-04-19T15:29:39.76Z</time></trkpt><trkpt lat="42.0525279" lon="12.3766482"><ele>146.0</ele><time>2026-04-19T15:29:40.761Z</time></trkpt><trkpt lat="42.0523877" lon="12.3769069"><ele>146.0</ele><time>2026-04-19T15:29:41.76Z</time></trkpt><trkpt lat="42.0522516" lon="12.3771707"><ele>145.0</ele><time>2026-04-19T15:29:42.761Z</time></trkpt><trkpt lat="42.0521151" lon="12.3774273"><ele>144.0</ele><time>2026-04-19T15:29:43.761Z</time></trkpt><trkpt lat="42.0519771" lon="12.377685"><ele>144.0</ele><time>2026-04-19T15:29:44.761Z</time></trkpt><trkpt lat="42.0518409" lon="12.3779421"><ele>144.0</ele><time>2026-04-19T15:29:45.761Z</time></trkpt><trkpt lat="42.0517071" lon="12.3781997"><ele>141.5</ele><time>2026-04-19T15:29:46.76Z</time></trkpt><trkpt lat="42.0515751" lon="12.3784519"><ele>139.0</ele><time>2026-04-19T15:29:47.76Z</time></trkpt><trkpt lat="42.0514444" lon="12.3786956"><ele>139.0</ele><time>2026-04-19T15:29:48.76Z</time></trkpt><trkpt lat="42.0513178" lon="12.3789308"><ele>139.0</ele><time>2026-04-19T15:29:49.759Z</time></trkpt><trkpt lat="42.0511912" lon="12.3791633"><ele>139.0</ele><time>2026-04-19T15:29:50.76Z</time></trkpt><trkpt lat="42.0510706" lon="12.3793959"><ele>139.0</ele><time>2026-04-19T15:29:51.759Z</time></trkpt><trkpt lat="42.0509491" lon="12.3796291"><ele>139.0</ele><time>2026-04-19T15:29:52.76Z</time></trkpt><trkpt lat="42.050825" lon="12.3798659"><ele>139.0</ele><time>2026-04-19T15:29:53.759Z</time></trkpt><trkpt lat="42.0507028" lon="12.3801013"><ele>139.0</ele><time>2026-04-19T15:29:54.76Z</time></trkpt><trkpt lat="42.0505794" lon="12.3803364"><ele>139.0</ele><time>2026-04-19T15:29:55.76Z</time></trkpt><trkpt lat="42.050453" lon="12.3805705"><ele>139.0</ele><time>2026-04-19T15:29:56.76Z</time></trkpt><trkpt lat="42.0503307" lon="12.3808014"><ele>139.33333333333334</ele><time>2026-04-19T15:29:57.76Z</time></trkpt><trkpt lat="42.0502158" lon="12.3810266"><ele>139.66666666666666</ele><time>2026-04-19T15:29:58.76Z</time></trkpt><trkpt lat="42.0501047" lon="12.3812472"><ele>140.0</ele><time>2026-04-19T15:29:59.76Z</time></trkpt><trkpt lat="42.049992" lon="12.3814647"><ele>139.66666666666666</ele><time>2026-04-19T15:30:00.76Z</time></trkpt><trkpt lat="42.0498781" lon="12.3816813"><ele>139.33333333333334</ele><time>2026-04-19T15:30:01.761Z</time></trkpt><trkpt lat="42.0497581" lon="12.3819003"><ele>139.0</ele><time>2026-04-19T15:30:02.761Z</time></trkpt><trkpt lat="42.0496352" lon="12.3821213"><ele>134.33333333333334</ele><time>2026-04-19T15:30:03.76Z</time></trkpt><trkpt lat="42.0495167" lon="12.3823528"><ele>129.66666666666666</ele><time>2026-04-19T15:30:04.759Z</time></trkpt><trkpt lat="42.0493984" lon="12.3825879"><ele>125.0</ele><time>2026-04-19T15:30:05.76Z</time></trkpt><trkpt lat="42.0492777" lon="12.382833"><ele>122.33333333333333</ele><time>2026-04-19T15:30:06.759Z</time></trkpt><trkpt lat="42.049157" lon="12.383079"><ele>119.66666666666666</ele><time>2026-04-19T15:30:07.759Z</time></trkpt><trkpt lat="42.0490378" lon="12.3833272"><ele>117.0</ele><time>2026-04-19T15:30:08.76Z</time></trkpt><trkpt lat="42.0489232" lon="12.3835787"><ele>117.0</ele><time>2026-04-19T15:30:09.76Z</time></trkpt><trkpt lat="42.0488142" lon="12.3838339"><ele>117.0</ele><time>2026-04-19T15:30:10.759Z</time></trkpt><trkpt lat="42.0487045" lon="12.3840861"><ele>117.0</ele><time>2026-04-19T15:30:11.76Z</time></trkpt><trkpt lat="42.0485979" lon="12.3843396"><ele>113.33333333333334</ele><time>2026-04-19T15:30:12.759Z</time></trkpt><trkpt lat="42.0484924" lon="12.3845984"><ele>109.66666666666667</ele><time>2026-04-19T15:30:13.759Z</time></trkpt><trkpt lat="42.0483908" lon="12.3848575"><ele>106.0</ele><time>2026-04-19T15:30:14.759Z</time></trkpt><trkpt lat="42.0482883" lon="12.3851177"><ele>106.0</ele><time>2026-04-19T15:30:15.761Z</time></trkpt><trkpt lat="42.0481877" lon="12.3853977"><ele>106.0</ele><time>2026-04-19T15:30:16.761Z</time></trkpt><trkpt lat="42.0480761" lon="12.3856913"><ele>106.0</ele><time>2026-04-19T15:30:17.761Z</time></trkpt><trkpt lat="42.0479582" lon="12.386002"><ele>106.0</ele><time>2026-04-19T15:30:18.761Z</time></trkpt><trkpt lat="42.0478386" lon="12.3863303"><ele>106.0</ele><time>2026-04-19T15:30:19.76Z</time></trkpt><trkpt lat="42.0477212" lon="12.386671"><ele>106.0</ele><time>2026-04-19T15:30:20.761Z</time></trkpt><trkpt lat="42.0476113" lon="12.3870127"><ele>105.0</ele><time>2026-04-19T15:30:21.761Z</time></trkpt><trkpt lat="42.0475105" lon="12.3873553"><ele>104.0</ele><time>2026-04-19T15:30:22.76Z</time></trkpt><trkpt lat="42.0474152" lon="12.3876972"><ele>104.5</ele><time>2026-04-19T15:30:23.761Z</time></trkpt><trkpt lat="42.047322" lon="12.3880365"><ele>105.0</ele><time>2026-04-19T15:30:24.759Z</time></trkpt><trkpt lat="42.0472333" lon="12.3883671"><ele>105.0</ele><time>2026-04-19T15:30:25.76Z</time></trkpt><trkpt lat="42.0471453" lon="12.3886968"><ele>105.0</ele><time>2026-04-19T15:30:26.76Z</time></trkpt><trkpt lat="42.0470627" lon="12.389025"><ele>107.0</ele><time>2026-04-19T15:30:27.76Z</time></trkpt><trkpt lat="42.0469801" lon="12.3893482"><ele>109.0</ele><time>2026-04-19T15:30:28.76Z</time></trkpt><trkpt lat="42.046898" lon="12.3896629"><ele>111.0</ele><time>2026-04-19T15:30:29.76Z</time></trkpt><trkpt lat="42.0468196" lon="12.389971"><ele>113.0</ele><time>2026-04-19T15:30:30.76Z</time></trkpt><trkpt lat="42.0467431" lon="12.3902737"><ele>116.0</ele><time>2026-04-19T15:30:31.76Z</time></trkpt><trkpt lat="42.0466734" lon="12.3905642"><ele>119.0</ele><time>2026-04-19T15:30:32.761Z</time></trkpt><trkpt lat="42.0462779" lon="12.3922443"><ele>124.5</ele><time>2026-04-19T15:30:38.76Z</time></trkpt><trkpt lat="42.0462071" lon="12.3925323"><ele>130.0</ele><time>2026-04-19T15:30:39.76Z</time></trkpt><trkpt lat="42.0461295" lon="12.3928311"><ele>129.0</ele><time>2026-04-19T15:30:40.76Z</time></trkpt><trkpt lat="42.0460551" lon="12.393149"><ele>128.0</ele><time>2026-04-19T15:30:41.76Z</time></trkpt><trkpt lat="42.0459786" lon="12.3934787"><ele>128.0</ele><time>2026-04-19T15:30:42.76Z</time></trkpt><trkpt lat="42.0458903" lon="12.3938061"><ele>128.0</ele><time>2026-04-19T15:30:43.759Z</time></trkpt><trkpt lat="42.0457991" lon="12.3941309"><ele>126.5</ele><time>2026-04-19T15:30:44.76Z</time></trkpt><trkpt lat="42.0457074" lon="12.3944389"><ele>125.0</ele><time>2026-04-19T15:30:45.76Z</time></trkpt><trkpt lat="42.0456152" lon="12.394743"><ele>125.0</ele><time>2026-04-19T15:30:46.761Z</time></trkpt><trkpt lat="42.0455256" lon="12.3950387"><ele>125.0</ele><time>2026-04-19T15:30:47.761Z</time></trkpt><trkpt lat="42.0454417" lon="12.3953394"><ele>124.5</ele><time>2026-04-19T15:30:48.761Z</time></trkpt><trkpt lat="42.0453519" lon="12.3956428"><ele>124.0</ele><time>2026-04-19T15:30:49.761Z</time></trkpt><trkpt lat="42.0452701" lon="12.3959412"><ele>124.0</ele><time>2026-04-19T15:30:50.76Z</time></trkpt><trkpt lat="42.0451902" lon="12.3962392"><ele>124.0</ele><time>2026-04-19T15:30:51.761Z</time></trkpt><trkpt lat="42.0451165" lon="12.3965454"><ele>123.5</ele><time>2026-04-19T15:30:52.761Z</time></trkpt><trkpt lat="42.0450529" lon="12.3968487"><ele>123.0</ele><time>2026-04-19T15:30:53.76Z</time></trkpt><trkpt lat="42.0449987" lon="12.3971433"><ele>122.66666666666666</ele><time>2026-04-19T15:30:54.76Z</time></trkpt><trkpt lat="42.0449511" lon="12.3974172"><ele>122.33333333333333</ele><time>2026-04-19T15:30:55.76Z</time></trkpt><trkpt lat="42.0449075" lon="12.3976828"><ele>122.0</ele><time>2026-04-19T15:30:56.761Z</time></trkpt><trkpt lat="42.0448693" lon="12.3979375"><ele>122.0</ele><time>2026-04-19T15:30:57.761Z</time></trkpt><trkpt lat="42.0448363" lon="12.3981914"><ele>122.0</ele><time>2026-04-19T15:30:58.76Z</time></trkpt><trkpt lat="42.0448106" lon="12.398459"><ele>122.0</ele><time>2026-04-19T15:30:59.76Z</time></trkpt><trkpt lat="42.0447914" lon="12.3987393"><ele>122.0</ele><time>2026-04-19T15:31:00.761Z</time></trkpt><trkpt lat="42.0447709" lon="12.3990275"><ele>122.0</ele><time>2026-04-19T15:31:01.76Z</time></trkpt><trkpt lat="42.0447504" lon="12.3993135"><ele>122.0</ele><time>2026-04-19T15:31:02.761Z</time></trkpt><trkpt lat="42.0447391" lon="12.3995891"><ele>122.66666666666666</ele><time>2026-04-19T15:31:03.759Z</time></trkpt><trkpt lat="42.0447345" lon="12.3998516"><ele>123.33333333333334</ele><time>2026-04-19T15:31:04.76Z</time></trkpt><trkpt lat="42.0447324" lon="12.4001232"><ele>124.0</ele><time>2026-04-19T15:31:05.76Z</time></trkpt><trkpt lat="42.044733" lon="12.400402"><ele>123.66666666666667</ele><time>2026-04-19T15:31:06.761Z</time></trkpt><trkpt lat="42.0447333" lon="12.400684"><ele>123.33333333333334</ele><time>2026-04-19T15:31:07.761Z</time></trkpt><trkpt lat="42.0447349" lon="12.4009754"><ele>123.0</ele><time>2026-04-19T15:31:08.76Z</time></trkpt><trkpt lat="42.0447301" lon="12.4012674"><ele>121.0</ele><time>2026-04-19T15:31:09.761Z</time></trkpt><trkpt lat="42.0447332" lon="12.4015474"><ele>119.0</ele><time>2026-04-19T15:31:10.76Z</time></trkpt><trkpt lat="42.044735" lon="12.4018036"><ele>117.0</ele><time>2026-04-19T15:31:11.761Z</time></trkpt><trkpt lat="42.0447371" lon="12.4020499"><ele>115.0</ele><time>2026-04-19T15:31:12.761Z</time></trkpt><trkpt lat="42.044739" lon="12.4023022"><ele>113.0</ele><time>2026-04-19T15:31:13.761Z</time></trkpt><trkpt lat="42.0447377" lon="12.4025537"><ele>111.0</ele><time>2026-04-19T15:31:14.76Z</time></trkpt><trkpt lat="42.0447308" lon="12.4028039"><ele>110.66666666666666</ele><time>2026-04-19T15:31:15.761Z</time></trkpt><trkpt lat="42.0447268" lon="12.4030591"><ele>110.33333333333333</ele><time>2026-04-19T15:31:16.761Z</time></trkpt><trkpt lat="42.0447213" lon="12.4033099"><ele>110.0</ele><time>2026-04-19T15:31:17.761Z</time></trkpt><trkpt lat="42.0447121" lon="12.4035487"><ele>110.0</ele><time>2026-04-19T15:31:18.76Z</time></trkpt><trkpt lat="42.0446998" lon="12.4037697"><ele>110.0</ele><time>2026-04-19T15:31:19.76Z</time></trkpt><trkpt lat="42.0446884" lon="12.4039871"><ele>110.0</ele><time>2026-04-19T15:31:20.76Z</time></trkpt><trkpt lat="42.0446766" lon="12.4042004"><ele>111.75</ele><time>2026-04-19T15:31:21.761Z</time></trkpt><trkpt lat="42.0446602" lon="12.4044138"><ele>113.5</ele><time>2026-04-19T15:31:22.761Z</time></trkpt><trkpt lat="42.0446476" lon="12.4046203"><ele>115.25</ele><time>2026-04-19T15:31:23.76Z</time></trkpt><trkpt lat="42.044633" lon="12.4048004"><ele>117.0</ele><time>2026-04-19T15:31:24.76Z</time></trkpt><trkpt lat="42.044614" lon="12.4049573"><ele>117.5</ele><time>2026-04-19T15:31:25.761Z</time></trkpt><trkpt lat="42.0445955" lon="12.4051105"><ele>118.0</ele><time>2026-04-19T15:31:26.76Z</time></trkpt><trkpt lat="42.0445785" lon="12.4052842"><ele>118.5</ele><time>2026-04-19T15:31:27.761Z</time></trkpt><trkpt lat="42.0445581" lon="12.4054824"><ele>119.0</ele><time>2026-04-19T15:31:28.761Z</time></trkpt><trkpt lat="42.0445304" lon="12.4057076"><ele>117.33333333333333</ele><time>2026-04-19T15:31:29.76Z</time></trkpt><trkpt lat="42.0445034" lon="12.4059466"><ele>115.66666666666666</ele><time>2026-04-19T15:31:30.76Z</time></trkpt><trkpt lat="42.044472" lon="12.4061835"><ele>114.0</ele><time>2026-04-19T15:31:31.76Z</time></trkpt><trkpt lat="42.0444419" lon="12.4064072"><ele>111.0</ele><time>2026-04-19T15:31:32.761Z</time></trkpt><trkpt lat="42.0444131" lon="12.406639"><ele>108.0</ele><time>2026-04-19T15:31:33.761Z</time></trkpt><trkpt lat="42.0443866" lon="12.4068771"><ele>105.0</ele><time>2026-04-19T15:31:34.76Z</time></trkpt><trkpt lat="42.0443272" lon="12.407339"><ele>104.33333333333334</ele><time>2026-04-19T15:31:36.76Z</time></trkpt><trkpt lat="42.0442926" lon="12.407551"><ele>103.66666666666667</ele><time>2026-04-19T15:31:37.761Z</time></trkpt><trkpt lat="42.044263" lon="12.4077443"><ele>103.0</ele><time>2026-04-19T15:31:38.761Z</time></trkpt><trkpt lat="42.0442356" lon="12.4079317"><ele>103.5</ele><time>2026-04-19T15:31:39.76Z</time></trkpt><trkpt lat="42.0442049" lon="12.4081156"><ele>104.0</ele><time>2026-04-19T15:31:40.759Z</time></trkpt><trkpt lat="42.0441767" lon="12.4083045"><ele>104.5</ele><time>2026-04-19T15:31:41.76Z</time></trkpt><trkpt lat="42.0441495" lon="12.4084917"><ele>105.0</ele><time>2026-04-19T15:31:42.761Z</time></trkpt><trkpt lat="42.0441199" lon="12.4086854"><ele>103.0</ele><time>2026-04-19T15:31:43.76Z</time></trkpt><trkpt lat="42.0440861" lon="12.4089032"><ele>101.0</ele><time>2026-04-19T15:31:44.76Z</time></trkpt><trkpt lat="42.044049" lon="12.4091462"><ele>99.0</ele><time>2026-04-19T15:31:45.76Z</time></trkpt><trkpt lat="42.0440167" lon="12.4094113"><ele>101.0</ele><time>2026-04-19T15:31:46.76Z</time></trkpt><trkpt lat="42.0439763" lon="12.4096797"><ele>103.0</ele><time>2026-04-19T15:31:47.759Z</time></trkpt><trkpt lat="42.0439385" lon="12.4099303"><ele>105.0</ele><time>2026-04-19T15:31:48.76Z</time></trkpt><trkpt lat="42.043905" lon="12.4101801"><ele>105.0</ele><time>2026-04-19T15:31:49.76Z</time></trkpt><trkpt lat="42.0438674" lon="12.4104225"><ele>105.0</ele><time>2026-04-19T15:31:50.761Z</time></trkpt><trkpt lat="42.0438295" lon="12.4106762"><ele>105.0</ele><time>2026-04-19T15:31:51.761Z</time></trkpt><trkpt lat="42.043791" lon="12.4109378"><ele>106.0</ele><time>2026-04-19T15:31:52.761Z</time></trkpt><trkpt lat="42.0437526" lon="12.4112095"><ele>107.0</ele><time>2026-04-19T15:31:53.761Z</time></trkpt><trkpt lat="42.0437127" lon="12.4114768"><ele>108.0</ele><time>2026-04-19T15:31:54.76Z</time></trkpt><trkpt lat="42.0436768" lon="12.4117384"><ele>108.0</ele><time>2026-04-19T15:31:55.761Z</time></trkpt><trkpt lat="42.0436404" lon="12.412011"><ele>108.0</ele><time>2026-04-19T15:31:56.76Z</time></trkpt><trkpt lat="42.043604" lon="12.4123024"><ele>108.0</ele><time>2026-04-19T15:31:57.76Z</time></trkpt><trkpt lat="42.0435558" lon="12.4125983"><ele>107.5</ele><time>2026-04-19T15:31:58.761Z</time></trkpt><trkpt lat="42.043503" lon="12.4128988"><ele>107.0</ele><time>2026-04-19T15:31:59.761Z</time></trkpt><trkpt lat="42.0434556" lon="12.4132037"><ele>108.5</ele><time>2026-04-19T15:32:00.76Z</time></trkpt><trkpt lat="42.043414" lon="12.4135027"><ele>110.0</ele><time>2026-04-19T15:32:01.76Z</time></trkpt><trkpt lat="42.0433792" lon="12.4138174"><ele>110.5</ele><time>2026-04-19T15:32:02.759Z</time></trkpt><trkpt lat="42.0433376" lon="12.4141253"><ele>111.0</ele><time>2026-04-19T15:32:03.761Z</time></trkpt><trkpt lat="42.043293" lon="12.4144167"><ele>109.66666666666666</ele><time>2026-04-19T15:32:04.761Z</time></trkpt><trkpt lat="42.0432436" lon="12.4147043"><ele>108.33333333333333</ele><time>2026-04-19T15:32:05.761Z</time></trkpt><trkpt lat="42.0431984" lon="12.414975"><ele>107.0</ele><time>2026-04-19T15:32:06.761Z</time></trkpt><trkpt lat="42.0431576" lon="12.415235"><ele>105.66666666666666</ele><time>2026-04-19T15:32:07.761Z</time></trkpt><trkpt lat="42.0431207" lon="12.4154882"><ele>104.33333333333334</ele><time>2026-04-19T15:32:08.76Z</time></trkpt><trkpt lat="42.0430811" lon="12.4157311"><ele>103.0</ele><time>2026-04-19T15:32:09.761Z</time></trkpt><trkpt lat="42.0430346" lon="12.4159705"><ele>103.0</ele><time>2026-04-19T15:32:10.76Z</time></trkpt><trkpt lat="42.0429855" lon="12.4162085"><ele>103.0</ele><time>2026-04-19T15:32:11.761Z</time></trkpt><trkpt lat="42.0429332" lon="12.4164404"><ele>103.0</ele><time>2026-04-19T15:32:12.76Z</time></trkpt><trkpt lat="42.0428751" lon="12.4166729"><ele>103.0</ele><time>2026-04-19T15:32:13.76Z</time></trkpt><trkpt lat="42.0428129" lon="12.4169062"><ele>103.0</ele><time>2026-04-19T15:32:14.761Z</time></trkpt><trkpt lat="42.0427478" lon="12.4171431"><ele>103.0</ele><time>2026-04-19T15:32:15.761Z</time></trkpt><trkpt lat="42.042678" lon="12.4173853"><ele>101.66666666666667</ele><time>2026-04-19T15:32:16.761Z</time></trkpt><trkpt lat="42.0426007" lon="12.4176301"><ele>100.33333333333334</ele><time>2026-04-19T15:32:17.76Z</time></trkpt><trkpt lat="42.0425204" lon="12.4178725"><ele>99.0</ele><time>2026-04-19T15:32:18.761Z</time></trkpt><trkpt lat="42.0424322" lon="12.4181113"><ele>97.66666666666667</ele><time>2026-04-19T15:32:19.761Z</time></trkpt><trkpt lat="42.0423411" lon="12.4183513"><ele>96.33333333333334</ele><time>2026-04-19T15:32:20.76Z</time></trkpt><trkpt lat="42.0422438" lon="12.4185837"><ele>95.0</ele><time>2026-04-19T15:32:21.761Z</time></trkpt><trkpt lat="42.0421484" lon="12.4188124"><ele>94.33333333333334</ele><time>2026-04-19T15:32:22.76Z</time></trkpt><trkpt lat="42.042047" lon="12.4190363"><ele>93.66666666666667</ele><time>2026-04-19T15:32:23.761Z</time></trkpt><trkpt lat="42.0419468" lon="12.419256"><ele>93.0</ele><time>2026-04-19T15:32:24.76Z</time></trkpt><trkpt lat="42.0418416" lon="12.4194764"><ele>92.0</ele><time>2026-04-19T15:32:25.76Z</time></trkpt><trkpt lat="42.0417301" lon="12.4196921"><ele>91.0</ele><time>2026-04-19T15:32:26.76Z</time></trkpt><trkpt lat="42.0416122" lon="12.4199078"><ele>90.0</ele><time>2026-04-19T15:32:27.76Z</time></trkpt><trkpt lat="42.041486" lon="12.4201274"><ele>90.0</ele><time>2026-04-19T15:32:28.761Z</time></trkpt><trkpt lat="42.0413553" lon="12.4203462"><ele>90.0</ele><time>2026-04-19T15:32:29.761Z</time></trkpt><trkpt lat="42.0412213" lon="12.4205674"><ele>90.0</ele><time>2026-04-19T15:32:30.76Z</time></trkpt><trkpt lat="42.0410837" lon="12.4207786"><ele>90.66666666666667</ele><time>2026-04-19T15:32:31.76Z</time></trkpt><trkpt lat="42.0409455" lon="12.4209761"><ele>91.33333333333334</ele><time>2026-04-19T15:32:32.76Z</time></trkpt><trkpt lat="42.0408072" lon="12.4211578"><ele>92.0</ele><time>2026-04-19T15:32:33.76Z</time></trkpt><trkpt lat="42.0406696" lon="12.4213358"><ele>92.0</ele><time>2026-04-19T15:32:34.76Z</time></trkpt><trkpt lat="42.0405261" lon="12.4215147"><ele>92.0</ele><time>2026-04-19T15:32:35.76Z</time></trkpt><trkpt lat="42.040382" lon="12.421681"><ele>92.0</ele><time>2026-04-19T15:32:36.76Z</time></trkpt><trkpt lat="42.0402424" lon="12.4218538"><ele>92.0</ele><time>2026-04-19T15:32:37.759Z</time></trkpt><trkpt lat="42.0401079" lon="12.422009"><ele>92.0</ele><time>2026-04-19T15:32:38.76Z</time></trkpt><trkpt lat="42.0399738" lon="12.4221574"><ele>92.0</ele><time>2026-04-19T15:32:39.761Z</time></trkpt><trkpt lat="42.0398426" lon="12.4222913"><ele>91.0</ele><time>2026-04-19T15:32:40.761Z</time></trkpt><trkpt lat="42.0397214" lon="12.4224132"><ele>90.0</ele><time>2026-04-19T15:32:41.76Z</time></trkpt><trkpt lat="42.0396101" lon="12.4225196"><ele>89.0</ele><time>2026-04-19T15:32:42.759Z</time></trkpt><trkpt lat="42.0395042" lon="12.4226197"><ele>88.0</ele><time>2026-04-19T15:32:43.761Z</time></trkpt><trkpt lat="42.0394" lon="12.422711"><ele>88.0</ele><time>2026-04-19T15:32:44.76Z</time></trkpt><trkpt lat="42.0393016" lon="12.4228052"><ele>88.0</ele><time>2026-04-19T15:32:45.76Z</time></trkpt><trkpt lat="42.0391998" lon="12.4228955"><ele>88.0</ele><time>2026-04-19T15:32:46.76Z</time></trkpt><trkpt lat="42.039095" lon="12.4229932"><ele>88.0</ele><time>2026-04-19T15:32:47.76Z</time></trkpt><trkpt lat="42.0389877" lon="12.4230983"><ele>87.0</ele><time>2026-04-19T15:32:48.761Z</time></trkpt><trkpt lat="42.0388731" lon="12.4232065"><ele>86.0</ele><time>2026-04-19T15:32:49.76Z</time></trkpt><trkpt lat="42.0387536" lon="12.4233112"><ele>85.0</ele><time>2026-04-19T15:32:50.76Z</time></trkpt><trkpt lat="42.0386422" lon="12.4234107"><ele>84.0</ele><time>2026-04-19T15:32:51.76Z</time></trkpt><trkpt lat="42.0385384" lon="12.4235084"><ele>84.0</ele><time>2026-04-19T15:32:52.759Z</time></trkpt><trkpt lat="42.0384365" lon="12.4236036"><ele>84.0</ele><time>2026-04-19T15:32:53.761Z</time></trkpt><trkpt lat="42.0383377" lon="12.4236957"><ele>84.0</ele><time>2026-04-19T15:32:54.76Z</time></trkpt><trkpt lat="42.0382421" lon="12.4237809"><ele>84.0</ele><time>2026-04-19T15:32:55.761Z</time></trkpt><trkpt lat="42.0381439" lon="12.423869"><ele>84.0</ele><time>2026-04-19T15:32:56.76Z</time></trkpt><trkpt lat="42.0380368" lon="12.4239647"><ele>84.0</ele><time>2026-04-19T15:32:57.76Z</time></trkpt><trkpt lat="42.0379349" lon="12.4240568"><ele>84.0</ele><time>2026-04-19T15:32:58.761Z</time></trkpt><trkpt lat="42.0378339" lon="12.4241451"><ele>84.0</ele><time>2026-04-19T15:32:59.76Z</time></trkpt><trkpt lat="42.0377188" lon="12.4242462"><ele>84.0</ele><time>2026-04-19T15:33:00.759Z</time></trkpt><trkpt lat="42.0375886" lon="12.4243646"><ele>84.0</ele><time>2026-04-19T15:33:01.761Z</time></trkpt><trkpt lat="42.0374451" lon="12.4244934"><ele>84.0</ele><time>2026-04-19T15:33:02.76Z</time></trkpt><trkpt lat="42.0372884" lon="12.42464"><ele>85.66666666666667</ele><time>2026-04-19T15:33:03.76Z</time></trkpt><trkpt lat="42.0371268" lon="12.4247944"><ele>87.33333333333334</ele><time>2026-04-19T15:33:04.761Z</time></trkpt><trkpt lat="42.0369688" lon="12.4249315"><ele>89.0</ele><time>2026-04-19T15:33:05.761Z</time></trkpt><trkpt lat="42.0368191" lon="12.4250632"><ele>89.0</ele><time>2026-04-19T15:33:06.76Z</time></trkpt><trkpt lat="42.0366775" lon="12.4251852"><ele>89.0</ele><time>2026-04-19T15:33:07.76Z</time></trkpt><trkpt lat="42.03655" lon="12.4253"><ele>89.0</ele><time>2026-04-19T15:33:08.761Z</time></trkpt><trkpt lat="42.0364358" lon="12.4254065"><ele>90.5</ele><time>2026-04-19T15:33:09.76Z</time></trkpt><trkpt lat="42.0363247" lon="12.4255088"><ele>92.0</ele><time>2026-04-19T15:33:10.76Z</time></trkpt><trkpt lat="42.0362105" lon="12.4256126"><ele>93.5</ele><time>2026-04-19T15:33:11.76Z</time></trkpt><trkpt lat="42.0360904" lon="12.4257204"><ele>95.0</ele><time>2026-04-19T15:33:12.76Z</time></trkpt><trkpt lat="42.0359677" lon="12.4258296"><ele>95.0</ele><time>2026-04-19T15:33:13.761Z</time></trkpt><trkpt lat="42.0358502" lon="12.4259364"><ele>95.0</ele><time>2026-04-19T15:33:14.759Z</time></trkpt><trkpt lat="42.0357386" lon="12.4260365"><ele>95.0</ele><time>2026-04-19T15:33:15.761Z</time></trkpt><trkpt lat="42.0356384" lon="12.4261262"><ele>95.0</ele><time>2026-04-19T15:33:16.76Z</time></trkpt><trkpt lat="42.03555" lon="12.4262072"><ele>95.6</ele><time>2026-04-19T15:33:17.759Z</time></trkpt><trkpt lat="42.0354674" lon="12.4262797"><ele>96.2</ele><time>2026-04-19T15:33:18.761Z</time></trkpt><trkpt lat="42.03538" lon="12.4263532"><ele>96.80000000000001</ele><time>2026-04-19T15:33:19.76Z</time></trkpt><trkpt lat="42.0352798" lon="12.4264437"><ele>97.4</ele><time>2026-04-19T15:33:20.761Z</time></trkpt><trkpt lat="42.035178" lon="12.4265425"><ele>98.0</ele><time>2026-04-19T15:33:21.761Z</time></trkpt><trkpt lat="42.0350707" lon="12.4266473"><ele>95.75</ele><time>2026-04-19T15:33:22.76Z</time></trkpt><trkpt lat="42.0349666" lon="12.4267436"><ele>93.5</ele><time>2026-04-19T15:33:23.76Z</time></trkpt><trkpt lat="42.0348622" lon="12.4268393"><ele>91.25</ele><time>2026-04-19T15:33:24.76Z</time></trkpt><trkpt lat="42.0347535" lon="12.4269352"><ele>89.0</ele><time>2026-04-19T15:33:25.761Z</time></trkpt><trkpt lat="42.0346508" lon="12.4270309"><ele>89.0</ele><time>2026-04-19T15:33:26.761Z</time></trkpt><trkpt lat="42.0345466" lon="12.4271225"><ele>89.0</ele><time>2026-04-19T15:33:27.76Z</time></trkpt><trkpt lat="42.0344452" lon="12.4272131"><ele>89.0</ele><time>2026-04-19T15:33:28.76Z</time></trkpt><trkpt lat="42.0343479" lon="12.4273069"><ele>89.0</ele><time>2026-04-19T15:33:29.76Z</time></trkpt><trkpt lat="42.0342347" lon="12.427405"><ele>89.66666666666667</ele><time>2026-04-19T15:33:30.76Z</time></trkpt><trkpt lat="42.0341067" lon="12.4275098"><ele>90.33333333333333</ele><time>2026-04-19T15:33:31.76Z</time></trkpt><trkpt lat="42.0339618" lon="12.4276346"><ele>91.0</ele><time>2026-04-19T15:33:32.76Z</time></trkpt><trkpt lat="42.0338138" lon="12.4277697"><ele>91.0</ele><time>2026-04-19T15:33:33.761Z</time></trkpt><trkpt lat="42.0336641" lon="12.4279163"><ele>91.0</ele><time>2026-04-19T15:33:34.76Z</time></trkpt><trkpt lat="42.0335209" lon="12.428056"><ele>91.0</ele><time>2026-04-19T15:33:35.761Z</time></trkpt><trkpt lat="42.0333773" lon="12.4281848"><ele>91.66666666666666</ele><time>2026-04-19T15:33:36.761Z</time></trkpt><trkpt lat="42.0332371" lon="12.4283131"><ele>92.33333333333333</ele><time>2026-04-19T15:33:37.76Z</time></trkpt><trkpt lat="42.0330951" lon="12.4284416"><ele>93.0</ele><time>2026-04-19T15:33:38.76Z</time></trkpt><trkpt lat="42.0329516" lon="12.4285708"><ele>93.0</ele><time>2026-04-19T15:33:39.759Z</time></trkpt><trkpt lat="42.0328091" lon="12.4286997"><ele>93.0</ele><time>2026-04-19T15:33:40.761Z</time></trkpt><trkpt lat="42.0326576" lon="12.4288266"><ele>93.0</ele><time>2026-04-19T15:33:41.76Z</time></trkpt><trkpt lat="42.0325007" lon="12.4289581"><ele>94.33333333333334</ele><time>2026-04-19T15:33:42.761Z</time></trkpt><trkpt lat="42.0323379" lon="12.4290881"><ele>95.66666666666667</ele><time>2026-04-19T15:33:43.761Z</time></trkpt><trkpt lat="42.032171" lon="12.4292168"><ele>97.0</ele><time>2026-04-19T15:33:44.76Z</time></trkpt><trkpt lat="42.0320039" lon="12.4293449"><ele>97.0</ele><time>2026-04-19T15:33:45.76Z</time></trkpt><trkpt lat="42.0318371" lon="12.4294692"><ele>97.0</ele><time>2026-04-19T15:33:46.761Z</time></trkpt><trkpt lat="42.0316779" lon="12.4295871"><ele>97.0</ele><time>2026-04-19T15:33:47.76Z</time></trkpt><trkpt lat="42.031521" lon="12.4297005"><ele>95.66666666666667</ele><time>2026-04-19T15:33:48.759Z</time></trkpt><trkpt lat="42.0313732" lon="12.429809"><ele>94.33333333333334</ele><time>2026-04-19T15:33:49.759Z</time></trkpt><trkpt lat="42.0312226" lon="12.4299158"><ele>93.0</ele><time>2026-04-19T15:33:50.761Z</time></trkpt><trkpt lat="42.0310702" lon="12.430017"><ele>93.0</ele><time>2026-04-19T15:33:51.759Z</time></trkpt><trkpt lat="42.0309137" lon="12.4301253"><ele>93.0</ele><time>2026-04-19T15:33:52.76Z</time></trkpt><trkpt lat="42.0307569" lon="12.4302218"><ele>93.0</ele><time>2026-04-19T15:33:53.761Z</time></trkpt><trkpt lat="42.0305988" lon="12.4303141"><ele>92.33333333333333</ele><time>2026-04-19T15:33:54.76Z</time></trkpt><trkpt lat="42.0304378" lon="12.4304068"><ele>91.66666666666666</ele><time>2026-04-19T15:33:55.76Z</time></trkpt><trkpt lat="42.0302737" lon="12.4305"><ele>91.0</ele><time>2026-04-19T15:33:56.76Z</time></trkpt><trkpt lat="42.0301111" lon="12.4305957"><ele>90.66666666666666</ele><time>2026-04-19T15:33:57.759Z</time></trkpt><trkpt lat="42.0299502" lon="12.4306857"><ele>90.33333333333333</ele><time>2026-04-19T15:33:58.76Z</time></trkpt><trkpt lat="42.0297873" lon="12.4307656"><ele>90.0</ele><time>2026-04-19T15:33:59.759Z</time></trkpt><trkpt lat="42.0296271" lon="12.4308464"><ele>90.0</ele><time>2026-04-19T15:34:00.759Z</time></trkpt><trkpt lat="42.0294645" lon="12.4309234"><ele>90.0</ele><time>2026-04-19T15:34:01.761Z</time></trkpt><trkpt lat="42.0292989" lon="12.4310001"><ele>90.0</ele><time>2026-04-19T15:34:02.761Z</time></trkpt><trkpt lat="42.0291292" lon="12.431079"><ele>89.33333333333333</ele><time>2026-04-19T15:34:03.76Z</time></trkpt><trkpt lat="42.0289438" lon="12.4311622"><ele>88.66666666666666</ele><time>2026-04-19T15:34:04.759Z</time></trkpt><trkpt lat="42.0287439" lon="12.4312448"><ele>88.0</ele><time>2026-04-19T15:34:05.76Z</time></trkpt><trkpt lat="42.0285286" lon="12.4313145"><ele>91.5</ele><time>2026-04-19T15:34:06.76Z</time></trkpt><trkpt lat="42.0283003" lon="12.4313892"><ele>95.0</ele><time>2026-04-19T15:34:07.76Z</time></trkpt><trkpt lat="42.0280656" lon="12.4314721"><ele>95.0</ele><time>2026-04-19T15:34:08.76Z</time></trkpt><trkpt lat="42.0278264" lon="12.4315618"><ele>95.0</ele><time>2026-04-19T15:34:09.76Z</time></trkpt><trkpt lat="42.0275902" lon="12.4316509"><ele>96.0</ele><time>2026-04-19T15:34:10.761Z</time></trkpt><trkpt lat="42.0273556" lon="12.4317387"><ele>97.0</ele><time>2026-04-19T15:34:11.761Z</time></trkpt><trkpt lat="42.0268817" lon="12.4319031"><ele>97.0</ele><time>2026-04-19T15:34:13.761Z</time></trkpt><trkpt lat="42.0266526" lon="12.4319771"><ele>97.0</ele><time>2026-04-19T15:34:14.76Z</time></trkpt><trkpt lat="42.0264337" lon="12.4320503"><ele>96.33333333333334</ele><time>2026-04-19T15:34:15.76Z</time></trkpt><trkpt lat="42.0262236" lon="12.432123"><ele>95.66666666666667</ele><time>2026-04-19T15:34:16.76Z</time></trkpt><trkpt lat="42.0260223" lon="12.4321959"><ele>95.0</ele><time>2026-04-19T15:34:17.76Z</time></trkpt><trkpt lat="42.025813" lon="12.4322706"><ele>94.33333333333334</ele><time>2026-04-19T15:34:18.759Z</time></trkpt><trkpt lat="42.0255998" lon="12.4323399"><ele>93.66666666666667</ele><time>2026-04-19T15:34:19.76Z</time></trkpt><trkpt lat="42.0253947" lon="12.4324082"><ele>93.0</ele><time>2026-04-19T15:34:20.759Z</time></trkpt><trkpt lat="42.0251847" lon="12.4324806"><ele>91.0</ele><time>2026-04-19T15:34:21.759Z</time></trkpt><trkpt lat="42.0249629" lon="12.4325533"><ele>89.0</ele><time>2026-04-19T15:34:22.761Z</time></trkpt><trkpt lat="42.0247293" lon="12.4326331"><ele>89.0</ele><time>2026-04-19T15:34:23.761Z</time></trkpt><trkpt lat="42.0244899" lon="12.4327128"><ele>89.0</ele><time>2026-04-19T15:34:24.761Z</time></trkpt><trkpt lat="42.0242454" lon="12.4327959"><ele>88.0</ele><time>2026-04-19T15:34:25.761Z</time></trkpt><trkpt lat="42.0239994" lon="12.4328794"><ele>87.0</ele><time>2026-04-19T15:34:26.76Z</time></trkpt><trkpt lat="42.0237601" lon="12.4329613"><ele>90.5</ele><time>2026-04-19T15:34:27.76Z</time></trkpt><trkpt lat="42.0235339" lon="12.4330429"><ele>94.0</ele><time>2026-04-19T15:34:28.76Z</time></trkpt><trkpt lat="42.0233136" lon="12.4331217"><ele>95.0</ele><time>2026-04-19T15:34:29.761Z</time></trkpt><trkpt lat="42.023089" lon="12.4331984"><ele>96.0</ele><time>2026-04-19T15:34:30.761Z</time></trkpt><trkpt lat="42.0228595" lon="12.4332772"><ele>96.0</ele><time>2026-04-19T15:34:31.761Z</time></trkpt><trkpt lat="42.0226277" lon="12.4333634"><ele>96.0</ele><time>2026-04-19T15:34:32.76Z</time></trkpt><trkpt lat="42.0224075" lon="12.4334434"><ele>95.5</ele><time>2026-04-19T15:34:33.76Z</time></trkpt><trkpt lat="42.0221873" lon="12.4335162"><ele>95.0</ele><time>2026-04-19T15:34:34.76Z</time></trkpt><trkpt lat="42.0219689" lon="12.4335894"><ele>95.0</ele><time>2026-04-19T15:34:35.759Z</time></trkpt><trkpt lat="42.0217411" lon="12.4336632"><ele>95.0</ele><time>2026-04-19T15:34:36.761Z</time></trkpt><trkpt lat="42.0215085" lon="12.4337396"><ele>96.5</ele><time>2026-04-19T15:34:37.76Z</time></trkpt><trkpt lat="42.0212818" lon="12.4338133"><ele>98.0</ele><time>2026-04-19T15:34:38.761Z</time></trkpt><trkpt lat="42.0210673" lon="12.4338912"><ele>89.0</ele><time>2026-04-19T15:34:39.761Z</time></trkpt><trkpt lat="42.0198639" lon="12.4343395"><ele>89.0</ele><time>2026-04-19T15:34:45.76Z</time></trkpt><trkpt lat="42.0196743" lon="12.4344189"><ele>89.0</ele><time>2026-04-19T15:34:46.76Z</time></trkpt><trkpt lat="42.0194854" lon="12.4344941"><ele>89.0</ele><time>2026-04-19T15:34:47.761Z</time></trkpt><trkpt lat="42.0192977" lon="12.4345684"><ele>85.33333333333334</ele><time>2026-04-19T15:34:48.76Z</time></trkpt><trkpt lat="42.0191185" lon="12.4346391"><ele>81.66666666666667</ele><time>2026-04-19T15:34:49.761Z</time></trkpt><trkpt lat="42.0189323" lon="12.4347096"><ele>78.0</ele><time>2026-04-19T15:34:50.76Z</time></trkpt><trkpt lat="42.0187475" lon="12.4347775"><ele>78.0</ele><time>2026-04-19T15:34:51.76Z</time></trkpt><trkpt lat="42.0185629" lon="12.4348488"><ele>78.0</ele><time>2026-04-19T15:34:52.76Z</time></trkpt><trkpt lat="42.0183806" lon="12.4349186"><ele>78.0</ele><time>2026-04-19T15:34:53.76Z</time></trkpt><trkpt lat="42.0181997" lon="12.4349894"><ele>75.0</ele><time>2026-04-19T15:34:54.761Z</time></trkpt><trkpt lat="42.0180199" lon="12.4350591"><ele>72.0</ele><time>2026-04-19T15:34:55.76Z</time></trkpt><trkpt lat="42.017848" lon="12.4351311"><ele>69.0</ele><time>2026-04-19T15:34:56.76Z</time></trkpt><trkpt lat="42.0176702" lon="12.4351997"><ele>69.0</ele><time>2026-04-19T15:34:57.761Z</time></trkpt><trkpt lat="42.0174917" lon="12.4352675"><ele>69.0</ele><time>2026-04-19T15:34:58.761Z</time></trkpt><trkpt lat="42.0173154" lon="12.4353348"><ele>69.0</ele><time>2026-04-19T15:34:59.761Z</time></trkpt><trkpt lat="42.0171386" lon="12.435401"><ele>69.66666666666667</ele><time>2026-04-19T15:35:00.76Z</time></trkpt><trkpt lat="42.0169478" lon="12.4354677"><ele>70.33333333333334</ele><time>2026-04-19T15:35:01.76Z</time></trkpt><trkpt lat="42.0167543" lon="12.4355456"><ele>71.0</ele><time>2026-04-19T15:35:02.76Z</time></trkpt><trkpt lat="42.0165629" lon="12.435623"><ele>68.33333333333334</ele><time>2026-04-19T15:35:03.759Z</time></trkpt><trkpt lat="42.0163754" lon="12.4356987"><ele>65.66666666666667</ele><time>2026-04-19T15:35:04.76Z</time></trkpt><trkpt lat="42.0161909" lon="12.4357743"><ele>63.0</ele><time>2026-04-19T15:35:05.759Z</time></trkpt><trkpt lat="42.0160094" lon="12.4358424"><ele>63.0</ele><time>2026-04-19T15:35:06.76Z</time></trkpt><trkpt lat="42.0158323" lon="12.4359081"><ele>63.0</ele><time>2026-04-19T15:35:07.761Z</time></trkpt><trkpt lat="42.01566" lon="12.4359695"><ele>63.0</ele><time>2026-04-19T15:35:08.759Z</time></trkpt><trkpt lat="42.0154927" lon="12.4360328"><ele>60.66666666666667</ele><time>2026-04-19T15:35:09.759Z</time></trkpt><trkpt lat="42.0153239" lon="12.4360938"><ele>58.333333333333336</ele><time>2026-04-19T15:35:10.761Z</time></trkpt><trkpt lat="42.0151553" lon="12.4361553"><ele>56.0</ele><time>2026-04-19T15:35:11.761Z</time></trkpt><trkpt lat="42.0149806" lon="12.4362178"><ele>56.0</ele><time>2026-04-19T15:35:12.761Z</time></trkpt><trkpt lat="42.0147899" lon="12.4362884"><ele>56.0</ele><time>2026-04-19T15:35:13.759Z</time></trkpt><trkpt lat="42.0145826" lon="12.4363662"><ele>56.0</ele><time>2026-04-19T15:35:14.759Z</time></trkpt><trkpt lat="42.0143582" lon="12.4364483"><ele>67.5</ele><time>2026-04-19T15:35:15.759Z</time></trkpt><trkpt lat="42.0141283" lon="12.4365327"><ele>79.0</ele><time>2026-04-19T15:35:16.761Z</time></trkpt><trkpt lat="42.0139035" lon="12.4366164"><ele>79.0</ele><time>2026-04-19T15:35:17.76Z</time></trkpt><trkpt lat="42.0136919" lon="12.4366953"><ele>79.0</ele><time>2026-04-19T15:35:18.76Z</time></trkpt><trkpt lat="42.0134875" lon="12.4367775"><ele>79.0</ele><time>2026-04-19T15:35:19.76Z</time></trkpt><trkpt lat="42.0133017" lon="12.4368415"><ele>80.0</ele><time>2026-04-19T15:35:20.761Z</time></trkpt><trkpt lat="42.0131043" lon="12.4369064"><ele>81.0</ele><time>2026-04-19T15:35:21.76Z</time></trkpt><trkpt lat="42.0113335" lon="12.4375947"><ele>69.0</ele><time>2026-04-19T15:35:29.76Z</time></trkpt><trkpt lat="42.0111068" lon="12.4376652"><ele>57.0</ele><time>2026-04-19T15:35:30.761Z</time></trkpt><trkpt lat="42.0109004" lon="12.4377294"><ele>45.0</ele><time>2026-04-19T15:35:31.76Z</time></trkpt><trkpt lat="42.0106677" lon="12.4378194"><ele>45.0</ele><time>2026-04-19T15:35:32.759Z</time></trkpt><trkpt lat="42.0104541" lon="12.4379076"><ele>45.0</ele><time>2026-04-19T15:35:33.761Z</time></trkpt><trkpt lat="42.0102241" lon="12.4380027"><ele>43.0</ele><time>2026-04-19T15:35:34.759Z</time></trkpt><trkpt lat="42.0099961" lon="12.4380988"><ele>41.0</ele><time>2026-04-19T15:35:35.761Z</time></trkpt><trkpt lat="42.0097781" lon="12.4381869"><ele>40.0</ele><time>2026-04-19T15:35:36.76Z</time></trkpt><trkpt lat="42.0095692" lon="12.4382703"><ele>39.0</ele><time>2026-04-19T15:35:37.76Z</time></trkpt><trkpt lat="42.0093644" lon="12.438354"><ele>38.0</ele><time>2026-04-19T15:35:38.759Z</time></trkpt><trkpt lat="42.0091632" lon="12.4384391"><ele>36.33333333333333</ele><time>2026-04-19T15:35:39.76Z</time></trkpt><trkpt lat="42.0089612" lon="12.4385273"><ele>34.666666666666664</ele><time>2026-04-19T15:35:40.758Z</time></trkpt><trkpt lat="42.0087581" lon="12.4386202"><ele>33.0</ele><time>2026-04-19T15:35:41.758Z</time></trkpt><trkpt lat="42.0085475" lon="12.438717"><ele>33.5</ele><time>2026-04-19T15:35:42.758Z</time></trkpt><trkpt lat="42.0083395" lon="12.4388279"><ele>34.0</ele><time>2026-04-19T15:35:43.758Z</time></trkpt><trkpt lat="42.0081181" lon="12.4389439"><ele>34.0</ele><time>2026-04-19T15:35:44.759Z</time></trkpt><trkpt lat="42.007897" lon="12.439077"><ele>34.0</ele><time>2026-04-19T15:35:45.76Z</time></trkpt><trkpt lat="42.0076726" lon="12.4392257"><ele>33.5</ele><time>2026-04-19T15:35:46.758Z</time></trkpt><trkpt lat="42.0074473" lon="12.4393872"><ele>33.0</ele><time>2026-04-19T15:35:47.758Z</time></trkpt><trkpt lat="42.007222" lon="12.4395481"><ele>36.0</ele><time>2026-04-19T15:35:48.759Z</time></trkpt><trkpt lat="42.0070059" lon="12.4397189"><ele>39.0</ele><time>2026-04-19T15:35:49.76Z</time></trkpt><trkpt lat="42.0067919" lon="12.4398977"><ele>37.0</ele><time>2026-04-19T15:35:50.76Z</time></trkpt><trkpt lat="42.0065829" lon="12.4400868"><ele>35.0</ele><time>2026-04-19T15:35:51.759Z</time></trkpt><trkpt lat="42.0063832" lon="12.4402757"><ele>35.5</ele><time>2026-04-19T15:35:52.76Z</time></trkpt><trkpt lat="42.0061955" lon="12.4404725"><ele>36.0</ele><time>2026-04-19T15:35:53.76Z</time></trkpt><trkpt lat="42.0060106" lon="12.4406976"><ele>34.5</ele><time>2026-04-19T15:35:54.759Z</time></trkpt><trkpt lat="42.0058167" lon="12.4409128"><ele>33.0</ele><time>2026-04-19T15:35:55.759Z</time></trkpt><trkpt lat="42.0056277" lon="12.441127"><ele>33.5</ele><time>2026-04-19T15:35:56.76Z</time></trkpt><trkpt lat="42.0054538" lon="12.4413477"><ele>34.0</ele><time>2026-04-19T15:35:57.759Z</time></trkpt><trkpt lat="42.005285" lon="12.4415752"><ele>34.0</ele><time>2026-04-19T15:35:58.759Z</time></trkpt><trkpt lat="42.0051181" lon="12.4418054"><ele>34.0</ele><time>2026-04-19T15:35:59.76Z</time></trkpt><trkpt lat="42.0049495" lon="12.4420453"><ele>33.5</ele><time>2026-04-19T15:36:00.759Z</time></trkpt><trkpt lat="42.0047879" lon="12.4422949"><ele>33.0</ele><time>2026-04-19T15:36:01.76Z</time></trkpt><trkpt lat="42.0046291" lon="12.4425678"><ele>33.0</ele><time>2026-04-19T15:36:02.76Z</time></trkpt><trkpt lat="42.0044696" lon="12.4428521"><ele>33.0</ele><time>2026-04-19T15:36:03.76Z</time></trkpt><trkpt lat="42.0043182" lon="12.4431359"><ele>34.0</ele><time>2026-04-19T15:36:04.76Z</time></trkpt><trkpt lat="42.0041788" lon="12.4434156"><ele>35.0</ele><time>2026-04-19T15:36:05.76Z</time></trkpt><trkpt lat="42.0040423" lon="12.4436848"><ele>37.5</ele><time>2026-04-19T15:36:06.76Z</time></trkpt><trkpt lat="42.0039105" lon="12.4439457"><ele>40.0</ele><time>2026-04-19T15:36:07.76Z</time></trkpt><trkpt lat="42.0037773" lon="12.4441951"><ele>40.0</ele><time>2026-04-19T15:36:08.759Z</time></trkpt><trkpt lat="42.0036413" lon="12.4444502"><ele>40.0</ele><time>2026-04-19T15:36:09.76Z</time></trkpt><trkpt lat="42.0034957" lon="12.4447177"><ele>36.5</ele><time>2026-04-19T15:36:10.76Z</time></trkpt><trkpt lat="42.0033467" lon="12.4449965"><ele>33.0</ele><time>2026-04-19T15:36:11.76Z</time></trkpt><trkpt lat="42.0032009" lon="12.4452834"><ele>32.5</ele><time>2026-04-19T15:36:12.76Z</time></trkpt><trkpt lat="42.0030674" lon="12.4455596"><ele>32.0</ele><time>2026-04-19T15:36:13.76Z</time></trkpt><trkpt lat="42.0029321" lon="12.4458321"><ele>32.0</ele><time>2026-04-19T15:36:14.76Z</time></trkpt><trkpt lat="42.0028018" lon="12.4460943"><ele>32.0</ele><time>2026-04-19T15:36:15.759Z</time></trkpt><trkpt lat="42.0026772" lon="12.4463481"><ele>32.33333333333333</ele><time>2026-04-19T15:36:16.76Z</time></trkpt><trkpt lat="42.0025561" lon="12.4465885"><ele>32.666666666666664</ele><time>2026-04-19T15:36:17.76Z</time></trkpt><trkpt lat="42.00243" lon="12.4468236"><ele>33.0</ele><time>2026-04-19T15:36:18.76Z</time></trkpt><trkpt lat="42.0023015" lon="12.4470641"><ele>32.5</ele><time>2026-04-19T15:36:19.76Z</time></trkpt><trkpt lat="42.0021753" lon="12.4473124"><ele>32.0</ele><time>2026-04-19T15:36:20.759Z</time></trkpt><trkpt lat="42.0020512" lon="12.4475673"><ele>32.0</ele><time>2026-04-19T15:36:21.759Z</time></trkpt><trkpt lat="42.0019316" lon="12.4478135"><ele>32.0</ele><time>2026-04-19T15:36:22.759Z</time></trkpt><trkpt lat="42.0018082" lon="12.4480588"><ele>32.0</ele><time>2026-04-19T15:36:23.758Z</time></trkpt><trkpt lat="42.0016828" lon="12.4483069"><ele>32.0</ele><time>2026-04-19T15:36:24.76Z</time></trkpt><trkpt lat="42.0015563" lon="12.4485576"><ele>32.0</ele><time>2026-04-19T15:36:25.759Z</time></trkpt><trkpt lat="42.0014259" lon="12.4488065"><ele>32.0</ele><time>2026-04-19T15:36:26.758Z</time></trkpt><trkpt lat="42.0012944" lon="12.4490535"><ele>32.0</ele><time>2026-04-19T15:36:27.759Z</time></trkpt><trkpt lat="42.0011679" lon="12.4492957"><ele>32.0</ele><time>2026-04-19T15:36:28.759Z</time></trkpt><trkpt lat="42.0010441" lon="12.4495367"><ele>32.33333333333333</ele><time>2026-04-19T15:36:29.76Z</time></trkpt><trkpt lat="42.0009217" lon="12.4497773"><ele>32.666666666666664</ele><time>2026-04-19T15:36:30.759Z</time></trkpt><trkpt lat="42.0007953" lon="12.4500185"><ele>33.0</ele><time>2026-04-19T15:36:31.759Z</time></trkpt><trkpt lat="42.000669" lon="12.450262"><ele>33.333333333333336</ele><time>2026-04-19T15:36:32.76Z</time></trkpt><trkpt lat="42.0005418" lon="12.4505042"><ele>33.66666666666667</ele><time>2026-04-19T15:36:33.759Z</time></trkpt><trkpt lat="42.000417" lon="12.4507453"><ele>34.0</ele><time>2026-04-19T15:36:34.759Z</time></trkpt><trkpt lat="42.0002893" lon="12.4509909"><ele>34.0</ele><time>2026-04-19T15:36:35.759Z</time></trkpt><trkpt lat="42.0001622" lon="12.4512367"><ele>34.0</ele><time>2026-04-19T15:36:36.76Z</time></trkpt><trkpt lat="42.0000379" lon="12.4514855"><ele>34.0</ele><time>2026-04-19T15:36:37.76Z</time></trkpt><trkpt lat="41.9999121" lon="12.4517355"><ele>34.333333333333336</ele><time>2026-04-19T15:36:38.758Z</time></trkpt><trkpt lat="41.9997849" lon="12.4519865"><ele>34.666666666666664</ele><time>2026-04-19T15:36:39.759Z</time></trkpt><trkpt lat="41.9996623" lon="12.4522359"><ele>35.0</ele><time>2026-04-19T15:36:40.759Z</time></trkpt><trkpt lat="41.9995376" lon="12.4524781"><ele>35.0</ele><time>2026-04-19T15:36:41.76Z</time></trkpt><trkpt lat="41.9994187" lon="12.45271"><ele>35.0</ele><time>2026-04-19T15:36:42.76Z</time></trkpt><trkpt lat="41.9993063" lon="12.4529337"><ele>35.0</ele><time>2026-04-19T15:36:43.76Z</time></trkpt><trkpt lat="41.9991995" lon="12.4531596"><ele>34.0</ele><time>2026-04-19T15:36:44.759Z</time></trkpt><trkpt lat="41.9990967" lon="12.4533855"><ele>33.0</ele><time>2026-04-19T15:36:45.758Z</time></trkpt><trkpt lat="41.9989999" lon="12.4536111"><ele>32.0</ele><time>2026-04-19T15:36:46.759Z</time></trkpt><trkpt lat="41.9989101" lon="12.4538294"><ele>32.0</ele><time>2026-04-19T15:36:47.76Z</time></trkpt><trkpt lat="41.9988236" lon="12.4540442"><ele>32.0</ele><time>2026-04-19T15:36:48.759Z</time></trkpt><trkpt lat="41.9987441" lon="12.4542639"><ele>32.0</ele><time>2026-04-19T15:36:49.76Z</time></trkpt><trkpt lat="41.9986622" lon="12.4544808"><ele>32.0</ele><time>2026-04-19T15:36:50.76Z</time></trkpt><trkpt lat="41.9985845" lon="12.4546955"><ele>32.0</ele><time>2026-04-19T15:36:51.759Z</time></trkpt><trkpt lat="41.9985009" lon="12.4549101"><ele>32.0</ele><time>2026-04-19T15:36:52.76Z</time></trkpt><trkpt lat="41.9984139" lon="12.4551314"><ele>31.666666666666664</ele><time>2026-04-19T15:36:53.76Z</time></trkpt><trkpt lat="41.9983182" lon="12.4553664"><ele>31.333333333333336</ele><time>2026-04-19T15:36:54.76Z</time></trkpt><trkpt lat="41.9982144" lon="12.455618"><ele>31.0</ele><time>2026-04-19T15:36:55.76Z</time></trkpt><trkpt lat="41.9981094" lon="12.4558884"><ele>31.0</ele><time>2026-04-19T15:36:56.76Z</time></trkpt><trkpt lat="41.9980074" lon="12.4561647"><ele>31.0</ele><time>2026-04-19T15:36:57.76Z</time></trkpt><trkpt lat="41.9979053" lon="12.456445"><ele>30.0</ele><time>2026-04-19T15:36:58.76Z</time></trkpt><trkpt lat="41.9978028" lon="12.4567226"><ele>29.0</ele><time>2026-04-19T15:36:59.76Z</time></trkpt><trkpt lat="41.9977024" lon="12.4569973"><ele>29.333333333333332</ele><time>2026-04-19T15:37:00.758Z</time></trkpt><trkpt lat="41.9976054" lon="12.4572633"><ele>29.666666666666664</ele><time>2026-04-19T15:37:01.759Z</time></trkpt><trkpt lat="41.9975138" lon="12.4575239"><ele>30.0</ele><time>2026-04-19T15:37:02.759Z</time></trkpt><trkpt lat="41.9974223" lon="12.45777"><ele>30.333333333333336</ele><time>2026-04-19T15:37:03.76Z</time></trkpt><trkpt lat="41.9973403" lon="12.4580018"><ele>30.666666666666668</ele><time>2026-04-19T15:37:04.76Z</time></trkpt><trkpt lat="41.9972619" lon="12.4582246"><ele>31.0</ele><time>2026-04-19T15:37:05.759Z</time></trkpt><trkpt lat="41.9971826" lon="12.4584599"><ele>31.0</ele><time>2026-04-19T15:37:06.759Z</time></trkpt><trkpt lat="41.9970951" lon="12.4587084"><ele>31.0</ele><time>2026-04-19T15:37:07.759Z</time></trkpt><trkpt lat="41.9969941" lon="12.4589652"><ele>31.0</ele><time>2026-04-19T15:37:08.758Z</time></trkpt><trkpt lat="41.9968859" lon="12.4592285"><ele>31.0</ele><time>2026-04-19T15:37:09.76Z</time></trkpt><trkpt lat="41.9967835" lon="12.4595043"><ele>31.0</ele><time>2026-04-19T15:37:10.76Z</time></trkpt><trkpt lat="41.996679" lon="12.4597776"><ele>30.5</ele><time>2026-04-19T15:37:11.759Z</time></trkpt><trkpt lat="41.9965759" lon="12.4600541"><ele>30.0</ele><time>2026-04-19T15:37:12.76Z</time></trkpt><trkpt lat="41.9964764" lon="12.4603256"><ele>30.666666666666664</ele><time>2026-04-19T15:37:13.76Z</time></trkpt><trkpt lat="41.9963816" lon="12.4605988"><ele>31.333333333333332</ele><time>2026-04-19T15:37:14.758Z</time></trkpt><trkpt lat="41.9962964" lon="12.4608693"><ele>32.0</ele><time>2026-04-19T15:37:15.76Z</time></trkpt><trkpt lat="41.9962169" lon="12.46114"><ele>32.0</ele><time>2026-04-19T15:37:16.76Z</time></trkpt><trkpt lat="41.9961435" lon="12.4614093"><ele>32.0</ele><time>2026-04-19T15:37:17.76Z</time></trkpt><trkpt lat="41.9960678" lon="12.461676"><ele>32.0</ele><time>2026-04-19T15:37:18.759Z</time></trkpt><trkpt lat="41.9959975" lon="12.4619409"><ele>32.666666666666664</ele><time>2026-04-19T15:37:19.759Z</time></trkpt><trkpt lat="41.9959259" lon="12.4622004"><ele>33.333333333333336</ele><time>2026-04-19T15:37:20.76Z</time></trkpt><trkpt lat="41.9958543" lon="12.4624613"><ele>34.0</ele><time>2026-04-19T15:37:21.76Z</time></trkpt><trkpt lat="41.995783" lon="12.4627181"><ele>32.0</ele><time>2026-04-19T15:37:22.759Z</time></trkpt><trkpt lat="41.9957102" lon="12.462979"><ele>30.0</ele><time>2026-04-19T15:37:23.759Z</time></trkpt><trkpt lat="41.9956366" lon="12.4632443"><ele>28.0</ele><time>2026-04-19T15:37:24.759Z</time></trkpt><trkpt lat="41.9955648" lon="12.4635142"><ele>27.333333333333336</ele><time>2026-04-19T15:37:25.758Z</time></trkpt><trkpt lat="41.9954924" lon="12.4637807"><ele>26.666666666666664</ele><time>2026-04-19T15:37:26.759Z</time></trkpt><trkpt lat="41.9954199" lon="12.46405"><ele>26.0</ele><time>2026-04-19T15:37:27.759Z</time></trkpt><trkpt lat="41.9953419" lon="12.4643166"><ele>26.0</ele><time>2026-04-19T15:37:28.76Z</time></trkpt><trkpt lat="41.9952552" lon="12.4645774"><ele>26.0</ele><time>2026-04-19T15:37:29.759Z</time></trkpt><trkpt lat="41.9951637" lon="12.4648282"><ele>26.0</ele><time>2026-04-19T15:37:30.76Z</time></trkpt><trkpt lat="41.9950624" lon="12.4650678"><ele>27.0</ele><time>2026-04-19T15:37:31.76Z</time></trkpt><trkpt lat="41.9949518" lon="12.4652906"><ele>28.0</ele><time>2026-04-19T15:37:32.76Z</time></trkpt><trkpt lat="41.9948388" lon="12.4654967"><ele>29.0</ele><time>2026-04-19T15:37:33.76Z</time></trkpt><trkpt lat="41.9947246" lon="12.465691"><ele>29.0</ele><time>2026-04-19T15:37:34.759Z</time></trkpt><trkpt lat="41.9946068" lon="12.4658777"><ele>29.0</ele><time>2026-04-19T15:37:35.759Z</time></trkpt><trkpt lat="41.9944833" lon="12.4660589"><ele>29.0</ele><time>2026-04-19T15:37:36.759Z</time></trkpt><trkpt lat="41.9943551" lon="12.4662413"><ele>28.333333333333332</ele><time>2026-04-19T15:37:37.759Z</time></trkpt><trkpt lat="41.99421" lon="12.4664163"><ele>27.666666666666664</ele><time>2026-04-19T15:37:38.76Z</time></trkpt><trkpt lat="41.9940563" lon="12.4665841"><ele>27.0</ele><time>2026-04-19T15:37:39.759Z</time></trkpt><trkpt lat="41.9938947" lon="12.4667553"><ele>27.0</ele><time>2026-04-19T15:37:40.759Z</time></trkpt><trkpt lat="41.9937251" lon="12.4669188"><ele>27.0</ele><time>2026-04-19T15:37:41.76Z</time></trkpt><trkpt lat="41.9935489" lon="12.4670702"><ele>27.0</ele><time>2026-04-19T15:37:42.76Z</time></trkpt><trkpt lat="41.9933743" lon="12.4672108"><ele>26.666666666666664</ele><time>2026-04-19T15:37:43.76Z</time></trkpt><trkpt lat="41.9932014" lon="12.4673334"><ele>26.333333333333332</ele><time>2026-04-19T15:37:44.759Z</time></trkpt><trkpt lat="41.9930266" lon="12.4674443"><ele>26.0</ele><time>2026-04-19T15:37:45.759Z</time></trkpt><trkpt lat="41.9928456" lon="12.4675545"><ele>26.0</ele><time>2026-04-19T15:37:46.759Z</time></trkpt><trkpt lat="41.9926684" lon="12.4676711"><ele>26.0</ele><time>2026-04-19T15:37:47.759Z</time></trkpt><trkpt lat="41.9924978" lon="12.4677803"><ele>26.0</ele><time>2026-04-19T15:37:48.759Z</time></trkpt><trkpt lat="41.9923351" lon="12.4678842"><ele>26.333333333333332</ele><time>2026-04-19T15:37:49.76Z</time></trkpt><trkpt lat="41.9921806" lon="12.4679803"><ele>26.666666666666664</ele><time>2026-04-19T15:37:50.76Z</time></trkpt><trkpt lat="41.9920315" lon="12.4680686"><ele>27.0</ele><time>2026-04-19T15:37:51.759Z</time></trkpt><trkpt lat="41.9918887" lon="12.4681547"><ele>27.0</ele><time>2026-04-19T15:37:52.759Z</time></trkpt><trkpt lat="41.9917499" lon="12.4682338"><ele>27.0</ele><time>2026-04-19T15:37:53.76Z</time></trkpt><trkpt lat="41.9916097" lon="12.4683051"><ele>27.0</ele><time>2026-04-19T15:37:54.76Z</time></trkpt><trkpt lat="41.9914635" lon="12.4683805"><ele>27.666666666666664</ele><time>2026-04-19T15:37:55.76Z</time></trkpt><trkpt lat="41.9913095" lon="12.468461"><ele>28.333333333333332</ele><time>2026-04-19T15:37:56.759Z</time></trkpt><trkpt lat="41.9911391" lon="12.4685513"><ele>29.0</ele><time>2026-04-19T15:37:57.759Z</time></trkpt><trkpt lat="41.9909559" lon="12.4686422"><ele>29.0</ele><time>2026-04-19T15:37:58.759Z</time></trkpt><trkpt lat="41.9907678" lon="12.4687287"><ele>29.0</ele><time>2026-04-19T15:37:59.76Z</time></trkpt><trkpt lat="41.9905781" lon="12.4688033"><ele>29.0</ele><time>2026-04-19T15:38:00.759Z</time></trkpt><trkpt lat="41.990384" lon="12.4688846"><ele>27.666666666666664</ele><time>2026-04-19T15:38:01.76Z</time></trkpt><trkpt lat="41.9901807" lon="12.4689704"><ele>26.333333333333336</ele><time>2026-04-19T15:38:02.758Z</time></trkpt><trkpt lat="41.9899734" lon="12.4690546"><ele>25.0</ele><time>2026-04-19T15:38:03.759Z</time></trkpt><trkpt lat="41.9897651" lon="12.4691397"><ele>25.0</ele><time>2026-04-19T15:38:04.76Z</time></trkpt><trkpt lat="41.9895618" lon="12.4692251"><ele>25.0</ele><time>2026-04-19T15:38:05.759Z</time></trkpt><trkpt lat="41.9893651" lon="12.4693038"><ele>25.0</ele><time>2026-04-19T15:38:06.759Z</time></trkpt><trkpt lat="41.9891744" lon="12.4693788"><ele>26.666666666666668</ele><time>2026-04-19T15:38:07.759Z</time></trkpt><trkpt lat="41.9889904" lon="12.4694476"><ele>28.333333333333336</ele><time>2026-04-19T15:38:08.759Z</time></trkpt><trkpt lat="41.9888021" lon="12.4695023"><ele>30.0</ele><time>2026-04-19T15:38:09.76Z</time></trkpt><trkpt lat="41.9886087" lon="12.4695462"><ele>30.0</ele><time>2026-04-19T15:38:10.76Z</time></trkpt><trkpt lat="41.988402" lon="12.4695652"><ele>30.0</ele><time>2026-04-19T15:38:11.76Z</time></trkpt><trkpt lat="41.9881912" lon="12.4695777"><ele>30.0</ele><time>2026-04-19T15:38:12.76Z</time></trkpt><trkpt lat="41.9879734" lon="12.4695802"><ele>33.666666666666664</ele><time>2026-04-19T15:38:13.759Z</time></trkpt><trkpt lat="41.9877504" lon="12.4695571"><ele>37.33333333333333</ele><time>2026-04-19T15:38:14.758Z</time></trkpt><trkpt lat="41.9875263" lon="12.4695198"><ele>41.0</ele><time>2026-04-19T15:38:15.76Z</time></trkpt><trkpt lat="41.9872983" lon="12.4694633"><ele>44.5</ele><time>2026-04-19T15:38:16.759Z</time></trkpt><trkpt lat="41.9870687" lon="12.4693918"><ele>48.0</ele><time>2026-04-19T15:38:17.759Z</time></trkpt><trkpt lat="41.9868432" lon="12.4692939"><ele>49.0</ele><time>2026-04-19T15:38:18.76Z</time></trkpt><trkpt lat="41.9866225" lon="12.4691769"><ele>50.0</ele><time>2026-04-19T15:38:19.759Z</time></trkpt><trkpt lat="41.9864061" lon="12.4690424"><ele>50.0</ele><time>2026-04-19T15:38:20.759Z</time></trkpt><trkpt lat="41.9862012" lon="12.4688891"><ele>50.0</ele><time>2026-04-19T15:38:21.76Z</time></trkpt><trkpt lat="41.9860028" lon="12.4687112"><ele>54.0</ele><time>2026-04-19T15:38:22.758Z</time></trkpt><trkpt lat="41.9858051" lon="12.4685199"><ele>58.0</ele><time>2026-04-19T15:38:23.759Z</time></trkpt><trkpt lat="41.9856194" lon="12.4683209"><ele>58.0</ele><time>2026-04-19T15:38:24.759Z</time></trkpt><trkpt lat="41.9854472" lon="12.4681026"><ele>58.0</ele><time>2026-04-19T15:38:25.76Z</time></trkpt><trkpt lat="41.9852888" lon="12.467871"><ele>59.0</ele><time>2026-04-19T15:38:26.76Z</time></trkpt><trkpt lat="41.9851396" lon="12.4676307"><ele>60.0</ele><time>2026-04-19T15:38:27.76Z</time></trkpt><trkpt lat="41.9849986" lon="12.4673869"><ele>61.0</ele><time>2026-04-19T15:38:28.758Z</time></trkpt><trkpt lat="41.9848694" lon="12.467145"><ele>62.0</ele><time>2026-04-19T15:38:29.76Z</time></trkpt><trkpt lat="41.9847457" lon="12.4669038"><ele>63.0</ele><time>2026-04-19T15:38:30.76Z</time></trkpt><trkpt lat="41.9846262" lon="12.4666683"><ele>63.0</ele><time>2026-04-19T15:38:31.76Z</time></trkpt><trkpt lat="41.9845082" lon="12.4664407"><ele>63.0</ele><time>2026-04-19T15:38:32.759Z</time></trkpt><trkpt lat="41.9844156" lon="12.4662402"><ele>63.0</ele><time>2026-04-19T15:38:33.759Z</time></trkpt><trkpt lat="41.984325" lon="12.4660419"><ele>63.66666666666667</ele><time>2026-04-19T15:38:34.759Z</time></trkpt><trkpt lat="41.9842471" lon="12.4658346"><ele>64.33333333333334</ele><time>2026-04-19T15:38:35.76Z</time></trkpt><trkpt lat="41.9841717" lon="12.4656161"><ele>65.0</ele><time>2026-04-19T15:38:36.758Z</time></trkpt><trkpt lat="41.9840902" lon="12.4654026"><ele>65.0</ele><time>2026-04-19T15:38:37.759Z</time></trkpt><trkpt lat="41.9840086" lon="12.4651959"><ele>65.0</ele><time>2026-04-19T15:38:38.758Z</time></trkpt><trkpt lat="41.9839272" lon="12.4649842"><ele>65.0</ele><time>2026-04-19T15:38:39.76Z</time></trkpt><trkpt lat="41.9838514" lon="12.4647832"><ele>64.33333333333334</ele><time>2026-04-19T15:38:40.76Z</time></trkpt><trkpt lat="41.9837779" lon="12.4645898"><ele>63.66666666666667</ele><time>2026-04-19T15:38:41.759Z</time></trkpt><trkpt lat="41.9837002" lon="12.4643952"><ele>63.0</ele><time>2026-04-19T15:38:42.759Z</time></trkpt><trkpt lat="41.9836212" lon="12.4642031"><ele>63.0</ele><time>2026-04-19T15:38:43.758Z</time></trkpt><trkpt lat="41.9835325" lon="12.4640072"><ele>63.0</ele><time>2026-04-19T15:38:44.759Z</time></trkpt><trkpt lat="41.9834398" lon="12.4638128"><ele>63.0</ele><time>2026-04-19T15:38:45.76Z</time></trkpt><trkpt lat="41.9833409" lon="12.4636168"><ele>68.0</ele><time>2026-04-19T15:38:46.759Z</time></trkpt><trkpt lat="41.9829646" lon="12.4627717"><ele>68.0</ele><time>2026-04-19T15:38:50.759Z</time></trkpt><trkpt lat="41.9828644" lon="12.462547"><ele>68.0</ele><time>2026-04-19T15:38:51.76Z</time></trkpt><trkpt lat="41.9827657" lon="12.462327"><ele>68.0</ele><time>2026-04-19T15:38:52.759Z</time></trkpt><trkpt lat="41.9826691" lon="12.462102"><ele>69.0</ele><time>2026-04-19T15:38:53.759Z</time></trkpt><trkpt lat="41.9825728" lon="12.4618732"><ele>70.0</ele><time>2026-04-19T15:38:54.759Z</time></trkpt><trkpt lat="41.9824778" lon="12.4616387"><ele>71.0</ele><time>2026-04-19T15:38:55.759Z</time></trkpt><trkpt lat="41.9823858" lon="12.4614051"><ele>73.33333333333334</ele><time>2026-04-19T15:38:56.76Z</time></trkpt><trkpt lat="41.9822939" lon="12.461159"><ele>75.66666666666667</ele><time>2026-04-19T15:38:57.759Z</time></trkpt><trkpt lat="41.9822114" lon="12.4609174"><ele>78.0</ele><time>2026-04-19T15:38:58.759Z</time></trkpt><trkpt lat="41.9821331" lon="12.4606685"><ele>80.0</ele><time>2026-04-19T15:38:59.76Z</time></trkpt><trkpt lat="41.9820589" lon="12.4604242"><ele>82.0</ele><time>2026-04-19T15:39:00.76Z</time></trkpt><trkpt lat="41.9819887" lon="12.4601831"><ele>84.0</ele><time>2026-04-19T15:39:01.759Z</time></trkpt><trkpt lat="41.9819246" lon="12.4599442"><ele>84.0</ele><time>2026-04-19T15:39:02.759Z</time></trkpt><trkpt lat="41.981865" lon="12.459699"><ele>84.0</ele><time>2026-04-19T15:39:03.76Z</time></trkpt><trkpt lat="41.981809" lon="12.4594423"><ele>84.0</ele><time>2026-04-19T15:39:04.76Z</time></trkpt><trkpt lat="41.9817601" lon="12.459192"><ele>84.66666666666667</ele><time>2026-04-19T15:39:05.76Z</time></trkpt><trkpt lat="41.9817105" lon="12.4589351"><ele>85.33333333333334</ele><time>2026-04-19T15:39:06.76Z</time></trkpt><trkpt lat="41.981667" lon="12.4586511"><ele>86.0</ele><time>2026-04-19T15:39:07.758Z</time></trkpt><trkpt lat="41.9816333" lon="12.4583692"><ele>84.33333333333334</ele><time>2026-04-19T15:39:08.76Z</time></trkpt><trkpt lat="41.9816013" lon="12.4581"><ele>82.66666666666667</ele><time>2026-04-19T15:39:09.76Z</time></trkpt><trkpt lat="41.9815699" lon="12.4578016"><ele>81.0</ele><time>2026-04-19T15:39:10.759Z</time></trkpt><trkpt lat="41.9815459" lon="12.4574978"><ele>79.5</ele><time>2026-04-19T15:39:11.759Z</time></trkpt><trkpt lat="41.9815198" lon="12.4571832"><ele>78.0</ele><time>2026-04-19T15:39:12.759Z</time></trkpt><trkpt lat="41.9814929" lon="12.4568573"><ele>76.5</ele><time>2026-04-19T15:39:13.76Z</time></trkpt><trkpt lat="41.9814654" lon="12.4565243"><ele>75.0</ele><time>2026-04-19T15:39:14.76Z</time></trkpt><trkpt lat="41.9814429" lon="12.4561942"><ele>73.5</ele><time>2026-04-19T15:39:15.76Z</time></trkpt><trkpt lat="41.9814282" lon="12.455876"><ele>72.0</ele><time>2026-04-19T15:39:16.759Z</time></trkpt><trkpt lat="41.981414" lon="12.4555657"><ele>74.0</ele><time>2026-04-19T15:39:17.759Z</time></trkpt><trkpt lat="41.9814014" lon="12.4552665"><ele>76.0</ele><time>2026-04-19T15:39:18.76Z</time></trkpt><trkpt lat="41.9813914" lon="12.4549779"><ele>78.0</ele><time>2026-04-19T15:39:19.759Z</time></trkpt><trkpt lat="41.9813827" lon="12.4546952"><ele>80.0</ele><time>2026-04-19T15:39:20.759Z</time></trkpt><trkpt lat="41.9813779" lon="12.4544178"><ele>82.0</ele><time>2026-04-19T15:39:21.759Z</time></trkpt><trkpt lat="41.9813828" lon="12.4541483"><ele>84.0</ele><time>2026-04-19T15:39:22.76Z</time></trkpt><trkpt lat="41.9813895" lon="12.4538739"><ele>85.0</ele><time>2026-04-19T15:39:23.76Z</time></trkpt><trkpt lat="41.9813954" lon="12.4535991"><ele>86.0</ele><time>2026-04-19T15:39:24.76Z</time></trkpt><trkpt lat="41.9817967" lon="12.4495277"><ele>81.66666666666667</ele><time>2026-04-19T15:39:37.76Z</time></trkpt><trkpt lat="41.9818305" lon="12.4492377"><ele>77.33333333333333</ele><time>2026-04-19T15:39:38.76Z</time></trkpt><trkpt lat="41.9818668" lon="12.4489521"><ele>73.0</ele><time>2026-04-19T15:39:39.76Z</time></trkpt><trkpt lat="41.9819136" lon="12.4486749"><ele>71.0</ele><time>2026-04-19T15:39:40.76Z</time></trkpt><trkpt lat="41.9819448" lon="12.4483753"><ele>69.0</ele><time>2026-04-19T15:39:41.758Z</time></trkpt><trkpt lat="41.9819816" lon="12.4480942"><ele>67.0</ele><time>2026-04-19T15:39:42.759Z</time></trkpt><trkpt lat="41.9820191" lon="12.447825"><ele>65.33333333333333</ele><time>2026-04-19T15:39:43.76Z</time></trkpt><trkpt lat="41.9820453" lon="12.4475454"><ele>63.66666666666667</ele><time>2026-04-19T15:39:44.76Z</time></trkpt><trkpt lat="41.9820732" lon="12.4472799"><ele>62.0</ele><time>2026-04-19T15:39:45.759Z</time></trkpt><trkpt lat="41.9821026" lon="12.4470119"><ele>60.0</ele><time>2026-04-19T15:39:46.76Z</time></trkpt><trkpt lat="41.9821325" lon="12.4467442"><ele>58.0</ele><time>2026-04-19T15:39:47.759Z</time></trkpt><trkpt lat="41.9821536" lon="12.4464693"><ele>56.0</ele><time>2026-04-19T15:39:48.759Z</time></trkpt><trkpt lat="41.9821775" lon="12.4461894"><ele>55.66666666666667</ele><time>2026-04-19T15:39:49.76Z</time></trkpt><trkpt lat="41.9821959" lon="12.4459052"><ele>55.33333333333333</ele><time>2026-04-19T15:39:50.758Z</time></trkpt><trkpt lat="41.9822114" lon="12.4456289"><ele>55.0</ele><time>2026-04-19T15:39:51.76Z</time></trkpt><trkpt lat="41.9822179" lon="12.4453454"><ele>52.666666666666664</ele><time>2026-04-19T15:39:52.759Z</time></trkpt><trkpt lat="41.9822189" lon="12.4450619"><ele>50.33333333333333</ele><time>2026-04-19T15:39:53.76Z</time></trkpt><trkpt lat="41.9822151" lon="12.4447779"><ele>48.0</ele><time>2026-04-19T15:39:54.76Z</time></trkpt><trkpt lat="41.9822062" lon="12.4445047"><ele>48.0</ele><time>2026-04-19T15:39:55.759Z</time></trkpt><trkpt lat="41.9821925" lon="12.4442373"><ele>48.0</ele><time>2026-04-19T15:39:56.759Z</time></trkpt><trkpt lat="41.9821767" lon="12.4439797"><ele>48.0</ele><time>2026-04-19T15:39:57.759Z</time></trkpt><trkpt lat="41.9821554" lon="12.4437308"><ele>48.33333333333333</ele><time>2026-04-19T15:39:58.758Z</time></trkpt><trkpt lat="41.9821322" lon="12.443483"><ele>48.666666666666664</ele><time>2026-04-19T15:39:59.76Z</time></trkpt><trkpt lat="41.9821051" lon="12.4432326"><ele>49.0</ele><time>2026-04-19T15:40:00.76Z</time></trkpt><trkpt lat="41.9820724" lon="12.4429822"><ele>49.666666666666664</ele><time>2026-04-19T15:40:01.76Z</time></trkpt><trkpt lat="41.9820467" lon="12.4427342"><ele>50.33333333333333</ele><time>2026-04-19T15:40:02.759Z</time></trkpt><trkpt lat="41.9820153" lon="12.4424482"><ele>51.0</ele><time>2026-04-19T15:40:03.759Z</time></trkpt><trkpt lat="41.9819823" lon="12.4421544"><ele>51.0</ele><time>2026-04-19T15:40:04.759Z</time></trkpt><trkpt lat="41.9819466" lon="12.4418542"><ele>51.0</ele><time>2026-04-19T15:40:05.759Z</time></trkpt><trkpt lat="41.9818976" lon="12.4415472"><ele>51.5</ele><time>2026-04-19T15:40:06.759Z</time></trkpt><trkpt lat="41.981844" lon="12.441233"><ele>52.0</ele><time>2026-04-19T15:40:07.758Z</time></trkpt><trkpt lat="41.9817894" lon="12.440915"><ele>52.0</ele><time>2026-04-19T15:40:08.759Z</time></trkpt><trkpt lat="41.981735" lon="12.440589"><ele>52.0</ele><time>2026-04-19T15:40:09.759Z</time></trkpt><trkpt lat="41.9816811" lon="12.4402534"><ele>54.0</ele><time>2026-04-19T15:40:10.76Z</time></trkpt><trkpt lat="41.98163" lon="12.4399189"><ele>56.0</ele><time>2026-04-19T15:40:11.759Z</time></trkpt><trkpt lat="41.9815764" lon="12.4395855"><ele>56.0</ele><time>2026-04-19T15:40:12.758Z</time></trkpt><trkpt lat="41.981524" lon="12.43926"><ele>56.0</ele><time>2026-04-19T15:40:13.759Z</time></trkpt><trkpt lat="41.9814682" lon="12.4389354"><ele>54.5</ele><time>2026-04-19T15:40:14.759Z</time></trkpt><trkpt lat="41.9814161" lon="12.4386104"><ele>53.0</ele><time>2026-04-19T15:40:15.759Z</time></trkpt><trkpt lat="41.9813597" lon="12.438293"><ele>53.0</ele><time>2026-04-19T15:40:16.76Z</time></trkpt><trkpt lat="41.9813044" lon="12.4379787"><ele>53.0</ele><time>2026-04-19T15:40:17.76Z</time></trkpt><trkpt lat="41.9812494" lon="12.43767"><ele>56.5</ele><time>2026-04-19T15:40:18.759Z</time></trkpt><trkpt lat="41.9812009" lon="12.4373653"><ele>60.0</ele><time>2026-04-19T15:40:19.76Z</time></trkpt><trkpt lat="41.9811521" lon="12.4370607"><ele>60.0</ele><time>2026-04-19T15:40:20.759Z</time></trkpt><trkpt lat="41.9811057" lon="12.4367437"><ele>60.0</ele><time>2026-04-19T15:40:21.759Z</time></trkpt><trkpt lat="41.9798707" lon="12.4319364"><ele>64.0</ele><time>2026-04-19T15:40:39.758Z</time></trkpt><trkpt lat="41.9797725" lon="12.4316426"><ele>68.0</ele><time>2026-04-19T15:40:40.759Z</time></trkpt><trkpt lat="41.9796823" lon="12.4313428"><ele>70.5</ele><time>2026-04-19T15:40:41.76Z</time></trkpt><trkpt lat="41.9795924" lon="12.4310374"><ele>73.0</ele><time>2026-04-19T15:40:42.759Z</time></trkpt><trkpt lat="41.9795005" lon="12.4307452"><ele>80.0</ele><time>2026-04-19T15:40:43.759Z</time></trkpt><trkpt lat="41.9794121" lon="12.4304573"><ele>87.0</ele><time>2026-04-19T15:40:44.758Z</time></trkpt><trkpt lat="41.9793246" lon="12.4301871"><ele>87.0</ele><time>2026-04-19T15:40:45.758Z</time></trkpt><trkpt lat="41.9792424" lon="12.4299394"><ele>87.0</ele><time>2026-04-19T15:40:46.759Z</time></trkpt><trkpt lat="41.9791613" lon="12.4296858"><ele>87.0</ele><time>2026-04-19T15:40:47.76Z</time></trkpt><trkpt lat="41.979082" lon="12.4294362"><ele>86.33333333333333</ele><time>2026-04-19T15:40:48.76Z</time></trkpt><trkpt lat="41.9790007" lon="12.4292032"><ele>85.66666666666666</ele><time>2026-04-19T15:40:49.759Z</time></trkpt><trkpt lat="41.9789175" lon="12.4289776"><ele>85.0</ele><time>2026-04-19T15:40:50.76Z</time></trkpt><trkpt lat="41.9788307" lon="12.4287554"><ele>87.33333333333333</ele><time>2026-04-19T15:40:51.759Z</time></trkpt><trkpt lat="41.9787361" lon="12.4285319"><ele>89.66666666666667</ele><time>2026-04-19T15:40:52.759Z</time></trkpt><trkpt lat="41.9786358" lon="12.4282968"><ele>92.0</ele><time>2026-04-19T15:40:53.76Z</time></trkpt><trkpt lat="41.9785325" lon="12.428069"><ele>89.0</ele><time>2026-04-19T15:40:54.759Z</time></trkpt><trkpt lat="41.9784299" lon="12.4278407"><ele>86.0</ele><time>2026-04-19T15:40:55.758Z</time></trkpt><trkpt lat="41.9741788" lon="12.4212948"><ele>86.0</ele><time>2026-04-19T15:41:21.759Z</time></trkpt><trkpt lat="41.974015" lon="12.4210066"><ele>86.0</ele><time>2026-04-19T15:41:22.759Z</time></trkpt><trkpt lat="41.9738669" lon="12.4207101"><ele>85.0</ele><time>2026-04-19T15:41:23.759Z</time></trkpt><trkpt lat="41.9737304" lon="12.4204191"><ele>84.0</ele><time>2026-04-19T15:41:24.759Z</time></trkpt><trkpt lat="41.9736043" lon="12.4201182"><ele>84.0</ele><time>2026-04-19T15:41:25.759Z</time></trkpt><trkpt lat="41.9734747" lon="12.4198086"><ele>84.0</ele><time>2026-04-19T15:41:26.759Z</time></trkpt><trkpt lat="41.9733428" lon="12.4195038"><ele>87.5</ele><time>2026-04-19T15:41:27.76Z</time></trkpt><trkpt lat="41.9732172" lon="12.4192033"><ele>91.0</ele><time>2026-04-19T15:41:28.759Z</time></trkpt><trkpt lat="41.9730971" lon="12.418913"><ele>89.0</ele><time>2026-04-19T15:41:29.76Z</time></trkpt><trkpt lat="41.972989" lon="12.4186237"><ele>87.0</ele><time>2026-04-19T15:41:30.759Z</time></trkpt><trkpt lat="41.9728786" lon="12.4183275"><ele>87.0</ele><time>2026-04-19T15:41:31.758Z</time></trkpt><trkpt lat="41.9727677" lon="12.4180084"><ele>87.0</ele><time>2026-04-19T15:41:32.759Z</time></trkpt><trkpt lat="41.9726507" lon="12.4176838"><ele>86.5</ele><time>2026-04-19T15:41:33.758Z</time></trkpt><trkpt lat="41.9725341" lon="12.4173532"><ele>86.0</ele><time>2026-04-19T15:41:34.759Z</time></trkpt><trkpt lat="41.9724103" lon="12.4170186"><ele>93.0</ele><time>2026-04-19T15:41:35.759Z</time></trkpt><trkpt lat="41.9722886" lon="12.4166885"><ele>100.0</ele><time>2026-04-19T15:41:36.76Z</time></trkpt><trkpt lat="41.9721637" lon="12.4163582"><ele>109.0</ele><time>2026-04-19T15:41:37.759Z</time></trkpt><trkpt lat="41.9716373" lon="12.4149712"><ele>109.0</ele><time>2026-04-19T15:41:41.76Z</time></trkpt><trkpt lat="41.971548" lon="12.4146162"><ele>109.0</ele><time>2026-04-19T15:41:42.759Z</time></trkpt><trkpt lat="41.9714624" lon="12.4142479"><ele>109.0</ele><time>2026-04-19T15:41:43.759Z</time></trkpt><trkpt lat="41.9713881" lon="12.4138682"><ele>109.0</ele><time>2026-04-19T15:41:44.759Z</time></trkpt><trkpt lat="41.9713324" lon="12.4134928"><ele>112.5</ele><time>2026-04-19T15:41:45.758Z</time></trkpt><trkpt lat="41.9712761" lon="12.4131056"><ele>116.0</ele><time>2026-04-19T15:41:46.76Z</time></trkpt><trkpt lat="41.9712251" lon="12.4127237"><ele>117.5</ele><time>2026-04-19T15:41:47.759Z</time></trkpt><trkpt lat="41.9711751" lon="12.4123433"><ele>119.0</ele><time>2026-04-19T15:41:48.759Z</time></trkpt><trkpt lat="41.9701858" lon="12.4069211"><ele>119.0</ele><time>2026-04-19T15:42:02.758Z</time></trkpt><trkpt lat="41.9701086" lon="12.4065937"><ele>119.0</ele><time>2026-04-19T15:42:03.759Z</time></trkpt><trkpt lat="41.9700025" lon="12.4063106"><ele>119.0</ele><time>2026-04-19T15:42:04.759Z</time></trkpt><trkpt lat="41.9698688" lon="12.4060064"><ele>119.0</ele><time>2026-04-19T15:42:05.758Z</time></trkpt><trkpt lat="41.969755" lon="12.4057179"><ele>116.0</ele><time>2026-04-19T15:42:06.76Z</time></trkpt><trkpt lat="41.9696304" lon="12.4054275"><ele>113.0</ele><time>2026-04-19T15:42:07.76Z</time></trkpt><trkpt lat="41.969496" lon="12.4051342"><ele>113.0</ele><time>2026-04-19T15:42:08.759Z</time></trkpt><trkpt lat="41.9693578" lon="12.4048523"><ele>113.0</ele><time>2026-04-19T15:42:09.758Z</time></trkpt><trkpt lat="41.9692183" lon="12.4045698"><ele>118.5</ele><time>2026-04-19T15:42:10.758Z</time></trkpt><trkpt lat="41.9690744" lon="12.404288"><ele>124.0</ele><time>2026-04-19T15:42:11.758Z</time></trkpt><trkpt lat="41.9689246" lon="12.4040118"><ele>127.0</ele><time>2026-04-19T15:42:12.759Z</time></trkpt><trkpt lat="41.96877" lon="12.4037436"><ele>130.0</ele><time>2026-04-19T15:42:13.76Z</time></trkpt><trkpt lat="41.9686129" lon="12.4034793"><ele>130.0</ele><time>2026-04-19T15:42:14.759Z</time></trkpt><trkpt lat="41.9684516" lon="12.4032161"><ele>130.0</ele><time>2026-04-19T15:42:15.759Z</time></trkpt><trkpt lat="41.9682841" lon="12.402953"><ele>132.5</ele><time>2026-04-19T15:42:16.76Z</time></trkpt><trkpt lat="41.9681156" lon="12.4026949"><ele>135.0</ele><time>2026-04-19T15:42:17.759Z</time></trkpt><trkpt lat="41.967956" lon="12.4024279"><ele>127.0</ele><time>2026-04-19T15:42:18.759Z</time></trkpt><trkpt lat="41.9672148" lon="12.4013276"><ele>127.0</ele><time>2026-04-19T15:42:22.76Z</time></trkpt><trkpt lat="41.9670367" lon="12.4010455"><ele>127.0</ele><time>2026-04-19T15:42:23.759Z</time></trkpt><trkpt lat="41.9668438" lon="12.4007546"><ele>129.0</ele><time>2026-04-19T15:42:24.759Z</time></trkpt><trkpt lat="41.9666511" lon="12.4004685"><ele>131.0</ele><time>2026-04-19T15:42:25.76Z</time></trkpt><trkpt lat="41.9664682" lon="12.4001788"><ele>131.0</ele><time>2026-04-19T15:42:26.759Z</time></trkpt><trkpt lat="41.9662864" lon="12.3998893"><ele>131.0</ele><time>2026-04-19T15:42:27.759Z</time></trkpt><trkpt lat="41.9661139" lon="12.3996058"><ele>131.5</ele><time>2026-04-19T15:42:28.76Z</time></trkpt><trkpt lat="41.9659368" lon="12.3993212"><ele>132.0</ele><time>2026-04-19T15:42:29.759Z</time></trkpt><trkpt lat="41.9657554" lon="12.3990309"><ele>131.5</ele><time>2026-04-19T15:42:30.759Z</time></trkpt><trkpt lat="41.9655759" lon="12.3987391"><ele>131.0</ele><time>2026-04-19T15:42:31.759Z</time></trkpt><trkpt lat="41.965398" lon="12.3984479"><ele>130.0</ele><time>2026-04-19T15:42:32.758Z</time></trkpt><trkpt lat="41.9650386" lon="12.3978521"><ele>129.5</ele><time>2026-04-19T15:42:34.76Z</time></trkpt><trkpt lat="41.9648564" lon="12.3975494"><ele>129.0</ele><time>2026-04-19T15:42:35.758Z</time></trkpt><trkpt lat="41.964668" lon="12.3972378"><ele>126.5</ele><time>2026-04-19T15:42:36.759Z</time></trkpt><trkpt lat="41.9644735" lon="12.3969198"><ele>124.0</ele><time>2026-04-19T15:42:37.759Z</time></trkpt><trkpt lat="41.9642778" lon="12.3965987"><ele>123.5</ele><time>2026-04-19T15:42:38.759Z</time></trkpt><trkpt lat="41.9640819" lon="12.396276"><ele>123.0</ele><time>2026-04-19T15:42:39.759Z</time></trkpt><trkpt lat="41.9638921" lon="12.3959637"><ele>123.0</ele><time>2026-04-19T15:42:40.76Z</time></trkpt><trkpt lat="41.9637037" lon="12.3956561"><ele>123.0</ele><time>2026-04-19T15:42:41.759Z</time></trkpt><trkpt lat="41.9635151" lon="12.3953434"><ele>121.5</ele><time>2026-04-19T15:42:42.76Z</time></trkpt><trkpt lat="41.9633197" lon="12.3950196"><ele>120.0</ele><time>2026-04-19T15:42:43.759Z</time></trkpt><trkpt lat="41.9631328" lon="12.3946966"><ele>115.0</ele><time>2026-04-19T15:42:44.759Z</time></trkpt><trkpt lat="41.9629474" lon="12.3943709"><ele>110.0</ele><time>2026-04-19T15:42:45.759Z</time></trkpt><trkpt lat="41.9627554" lon="12.3940509"><ele>108.0</ele><time>2026-04-19T15:42:46.759Z</time></trkpt><trkpt lat="41.9625673" lon="12.3937413"><ele>106.0</ele><time>2026-04-19T15:42:47.759Z</time></trkpt><trkpt lat="41.9623852" lon="12.3934443"><ele>111.5</ele><time>2026-04-19T15:42:48.758Z</time></trkpt><trkpt lat="41.9622097" lon="12.3931546"><ele>117.0</ele><time>2026-04-19T15:42:49.759Z</time></trkpt><trkpt lat="41.9620357" lon="12.3928726"><ele>117.0</ele><time>2026-04-19T15:42:50.759Z</time></trkpt><trkpt lat="41.9618656" lon="12.3926002"><ele>117.0</ele><time>2026-04-19T15:42:51.759Z</time></trkpt><trkpt lat="41.9615132" lon="12.3920363"><ele>117.0</ele><time>2026-04-19T15:42:53.76Z</time></trkpt><trkpt lat="41.9613225" lon="12.3917423"><ele>117.0</ele><time>2026-04-19T15:42:54.76Z</time></trkpt><trkpt lat="41.9611446" lon="12.3914493"><ele>117.5</ele><time>2026-04-19T15:42:55.758Z</time></trkpt><trkpt lat="41.9609666" lon="12.3911521"><ele>118.0</ele><time>2026-04-19T15:42:56.76Z</time></trkpt><trkpt lat="41.9607865" lon="12.3908631"><ele>118.0</ele><time>2026-04-19T15:42:57.758Z</time></trkpt><trkpt lat="41.9606021" lon="12.390572"><ele>118.0</ele><time>2026-04-19T15:42:58.759Z</time></trkpt><trkpt lat="41.9604106" lon="12.3902775"><ele>116.5</ele><time>2026-04-19T15:42:59.76Z</time></trkpt><trkpt lat="41.960222" lon="12.3899835"><ele>115.0</ele><time>2026-04-19T15:43:00.759Z</time></trkpt><trkpt lat="41.9600402" lon="12.3896932"><ele>113.0</ele><time>2026-04-19T15:43:01.76Z</time></trkpt><trkpt lat="41.9598661" lon="12.3894169"><ele>111.0</ele><time>2026-04-19T15:43:02.76Z</time></trkpt><trkpt lat="41.9596975" lon="12.3891425"><ele>111.0</ele><time>2026-04-19T15:43:03.76Z</time></trkpt><trkpt lat="41.9595292" lon="12.3888749"><ele>111.0</ele><time>2026-04-19T15:43:04.759Z</time></trkpt><trkpt lat="41.9593614" lon="12.3886105"><ele>110.5</ele><time>2026-04-19T15:43:05.759Z</time></trkpt><trkpt lat="41.9591954" lon="12.388344"><ele>110.0</ele><time>2026-04-19T15:43:06.76Z</time></trkpt><trkpt lat="41.9590279" lon="12.3880734"><ele>109.5</ele><time>2026-04-19T15:43:07.759Z</time></trkpt><trkpt lat="41.958869" lon="12.3878016"><ele>109.0</ele><time>2026-04-19T15:43:08.76Z</time></trkpt><trkpt lat="41.9587093" lon="12.387535"><ele>109.0</ele><time>2026-04-19T15:43:09.759Z</time></trkpt><trkpt lat="41.9585528" lon="12.387277"><ele>109.0</ele><time>2026-04-19T15:43:10.759Z</time></trkpt><trkpt lat="41.9583995" lon="12.3870169"><ele>108.0</ele><time>2026-04-19T15:43:11.759Z</time></trkpt><trkpt lat="41.9582432" lon="12.3867496"><ele>107.0</ele><time>2026-04-19T15:43:12.76Z</time></trkpt><trkpt lat="41.9580822" lon="12.3864812"><ele>108.5</ele><time>2026-04-19T15:43:13.76Z</time></trkpt><trkpt lat="41.9579121" lon="12.3862106"><ele>110.0</ele><time>2026-04-19T15:43:14.759Z</time></trkpt><trkpt lat="41.9577397" lon="12.3859478"><ele>110.0</ele><time>2026-04-19T15:43:15.758Z</time></trkpt><trkpt lat="41.9575526" lon="12.3856981"><ele>110.0</ele><time>2026-04-19T15:43:16.759Z</time></trkpt><trkpt lat="41.9573659" lon="12.3854657"><ele>110.5</ele><time>2026-04-19T15:43:17.76Z</time></trkpt><trkpt lat="41.9571839" lon="12.3852622"><ele>111.0</ele><time>2026-04-19T15:43:18.76Z</time></trkpt><trkpt lat="41.9570002" lon="12.3850733"><ele>111.0</ele><time>2026-04-19T15:43:19.759Z</time></trkpt><trkpt lat="41.956815" lon="12.3848881"><ele>111.0</ele><time>2026-04-19T15:43:20.759Z</time></trkpt><trkpt lat="41.9566281" lon="12.3847096"><ele>110.5</ele><time>2026-04-19T15:43:21.759Z</time></trkpt><trkpt lat="41.9564411" lon="12.3845348"><ele>110.0</ele><time>2026-04-19T15:43:22.758Z</time></trkpt><trkpt lat="41.9562353" lon="12.3843708"><ele>110.0</ele><time>2026-04-19T15:43:23.76Z</time></trkpt><trkpt lat="41.9560124" lon="12.3842115"><ele>110.0</ele><time>2026-04-19T15:43:24.759Z</time></trkpt><trkpt lat="41.9557823" lon="12.3840636"><ele>109.0</ele><time>2026-04-19T15:43:25.758Z</time></trkpt><trkpt lat="41.9555536" lon="12.3839259"><ele>108.0</ele><time>2026-04-19T15:43:26.759Z</time></trkpt><trkpt lat="41.9553237" lon="12.3838054"><ele>108.0</ele><time>2026-04-19T15:43:27.758Z</time></trkpt><trkpt lat="41.9550912" lon="12.383698"><ele>108.0</ele><time>2026-04-19T15:43:28.759Z</time></trkpt><trkpt lat="41.9548576" lon="12.3836051"><ele>106.0</ele><time>2026-04-19T15:43:29.76Z</time></trkpt><trkpt lat="41.9546133" lon="12.3835317"><ele>104.0</ele><time>2026-04-19T15:43:30.758Z</time></trkpt><trkpt lat="41.9543511" lon="12.3834687"><ele>104.5</ele><time>2026-04-19T15:43:31.759Z</time></trkpt><trkpt lat="41.9540723" lon="12.3834133"><ele>105.0</ele><time>2026-04-19T15:43:32.758Z</time></trkpt><trkpt lat="41.9537805" lon="12.3833597"><ele>105.0</ele><time>2026-04-19T15:43:33.758Z</time></trkpt><trkpt lat="41.9534766" lon="12.3833044"><ele>105.0</ele><time>2026-04-19T15:43:34.759Z</time></trkpt><trkpt lat="41.9531617" lon="12.383253"><ele>104.0</ele><time>2026-04-19T15:43:35.759Z</time></trkpt><trkpt lat="41.9528403" lon="12.3832113"><ele>103.0</ele><time>2026-04-19T15:43:36.759Z</time></trkpt><trkpt lat="41.9525159" lon="12.3831625"><ele>101.0</ele><time>2026-04-19T15:43:37.759Z</time></trkpt><trkpt lat="41.9521947" lon="12.3831157"><ele>99.0</ele><time>2026-04-19T15:43:38.759Z</time></trkpt><trkpt lat="41.951872" lon="12.3830717"><ele>100.5</ele><time>2026-04-19T15:43:39.759Z</time></trkpt><trkpt lat="41.9515524" lon="12.3830313"><ele>102.0</ele><time>2026-04-19T15:43:40.759Z</time></trkpt><trkpt lat="41.9512345" lon="12.3829906"><ele>102.5</ele><time>2026-04-19T15:43:41.759Z</time></trkpt><trkpt lat="41.9509221" lon="12.3829519"><ele>103.0</ele><time>2026-04-19T15:43:42.759Z</time></trkpt><trkpt lat="41.9506224" lon="12.3829157"><ele>103.0</ele><time>2026-04-19T15:43:43.758Z</time></trkpt><trkpt lat="41.9503313" lon="12.3828745"><ele>103.0</ele><time>2026-04-19T15:43:44.76Z</time></trkpt><trkpt lat="41.9500473" lon="12.3828355"><ele>101.5</ele><time>2026-04-19T15:43:45.759Z</time></trkpt><trkpt lat="41.9497611" lon="12.3827977"><ele>100.0</ele><time>2026-04-19T15:43:46.759Z</time></trkpt><trkpt lat="41.9494742" lon="12.3827577"><ele>99.0</ele><time>2026-04-19T15:43:47.759Z</time></trkpt><trkpt lat="41.949201" lon="12.3827197"><ele>98.0</ele><time>2026-04-19T15:43:48.758Z</time></trkpt><trkpt lat="41.9489499" lon="12.3826845"><ele>98.0</ele><time>2026-04-19T15:43:49.758Z</time></trkpt><trkpt lat="41.9487074" lon="12.3826513"><ele>98.0</ele><time>2026-04-19T15:43:50.76Z</time></trkpt><trkpt lat="41.9484696" lon="12.3826221"><ele>98.5</ele><time>2026-04-19T15:43:51.759Z</time></trkpt><trkpt lat="41.9482271" lon="12.3825837"><ele>99.0</ele><time>2026-04-19T15:43:52.76Z</time></trkpt><trkpt lat="41.9479842" lon="12.3825507"><ele>99.0</ele><time>2026-04-19T15:43:53.758Z</time></trkpt><trkpt lat="41.9477327" lon="12.382524"><ele>99.0</ele><time>2026-04-19T15:43:54.759Z</time></trkpt><trkpt lat="41.9475008" lon="12.382495"><ele>99.5</ele><time>2026-04-19T15:43:55.76Z</time></trkpt><trkpt lat="41.9472693" lon="12.3824614"><ele>100.0</ele><time>2026-04-19T15:43:56.76Z</time></trkpt><trkpt lat="41.9470336" lon="12.382424"><ele>100.0</ele><time>2026-04-19T15:43:57.76Z</time></trkpt><trkpt lat="41.9467925" lon="12.3823923"><ele>100.0</ele><time>2026-04-19T15:43:58.759Z</time></trkpt><trkpt lat="41.9465475" lon="12.3823612"><ele>100.0</ele><time>2026-04-19T15:43:59.759Z</time></trkpt><trkpt lat="41.9462852" lon="12.3823464"><ele>100.0</ele><time>2026-04-19T15:44:00.759Z</time></trkpt><trkpt lat="41.9460316" lon="12.3823135"><ele>100.0</ele><time>2026-04-19T15:44:01.76Z</time></trkpt><trkpt lat="41.9457774" lon="12.3822816"><ele>100.0</ele><time>2026-04-19T15:44:02.758Z</time></trkpt><trkpt lat="41.9368917" lon="12.3811841"><ele>91.0</ele><time>2026-04-19T15:44:38.759Z</time></trkpt><trkpt lat="41.9366372" lon="12.3811737"><ele>82.0</ele><time>2026-04-19T15:44:39.759Z</time></trkpt><trkpt lat="41.9363937" lon="12.3811449"><ele>82.0</ele><time>2026-04-19T15:44:40.759Z</time></trkpt><trkpt lat="41.936143" lon="12.3811144"><ele>82.0</ele><time>2026-04-19T15:44:41.759Z</time></trkpt><trkpt lat="41.9358836" lon="12.3810916"><ele>81.0</ele><time>2026-04-19T15:44:42.759Z</time></trkpt><trkpt lat="41.9356177" lon="12.3810712"><ele>80.0</ele><time>2026-04-19T15:44:43.759Z</time></trkpt><trkpt lat="41.9353446" lon="12.3810438"><ele>80.0</ele><time>2026-04-19T15:44:44.759Z</time></trkpt><trkpt lat="41.9350645" lon="12.3810048"><ele>80.0</ele><time>2026-04-19T15:44:45.76Z</time></trkpt><trkpt lat="41.934785" lon="12.3809675"><ele>78.0</ele><time>2026-04-19T15:44:46.758Z</time></trkpt><trkpt lat="41.9345116" lon="12.380939"><ele>76.0</ele><time>2026-04-19T15:44:47.759Z</time></trkpt><trkpt lat="41.9342444" lon="12.3809179"><ele>73.0</ele><time>2026-04-19T15:44:48.759Z</time></trkpt><trkpt lat="41.9339844" lon="12.3808951"><ele>70.0</ele><time>2026-04-19T15:44:49.759Z</time></trkpt><trkpt lat="41.9337285" lon="12.3808733"><ele>70.0</ele><time>2026-04-19T15:44:50.759Z</time></trkpt><trkpt lat="41.9334749" lon="12.3808514"><ele>70.0</ele><time>2026-04-19T15:44:51.759Z</time></trkpt><trkpt lat="41.9332192" lon="12.3808309"><ele>70.5</ele><time>2026-04-19T15:44:52.759Z</time></trkpt><trkpt lat="41.9329635" lon="12.3808011"><ele>71.0</ele><time>2026-04-19T15:44:53.759Z</time></trkpt><trkpt lat="41.9327024" lon="12.3807835"><ele>71.0</ele><time>2026-04-19T15:44:54.759Z</time></trkpt><trkpt lat="41.9324424" lon="12.3807657"><ele>71.0</ele><time>2026-04-19T15:44:55.759Z</time></trkpt><trkpt lat="41.9321687" lon="12.3807499"><ele>71.0</ele><time>2026-04-19T15:44:56.759Z</time></trkpt><trkpt lat="41.9318956" lon="12.3807426"><ele>71.0</ele><time>2026-04-19T15:44:57.759Z</time></trkpt><trkpt lat="41.9315766" lon="12.3807718"><ele>70.5</ele><time>2026-04-19T15:44:58.76Z</time></trkpt><trkpt lat="41.9312634" lon="12.3807841"><ele>70.0</ele><time>2026-04-19T15:44:59.759Z</time></trkpt><trkpt lat="41.9309476" lon="12.3807985"><ele>71.5</ele><time>2026-04-19T15:45:00.759Z</time></trkpt><trkpt lat="41.9306351" lon="12.3808162"><ele>73.0</ele><time>2026-04-19T15:45:01.76Z</time></trkpt><trkpt lat="41.9303292" lon="12.3808339"><ele>71.5</ele><time>2026-04-19T15:45:02.76Z</time></trkpt><trkpt lat="41.930028" lon="12.3808431"><ele>70.0</ele><time>2026-04-19T15:45:03.76Z</time></trkpt><trkpt lat="41.9297274" lon="12.3808583"><ele>70.0</ele><time>2026-04-19T15:45:04.759Z</time></trkpt><trkpt lat="41.9294276" lon="12.3808756"><ele>70.0</ele><time>2026-04-19T15:45:05.759Z</time></trkpt><trkpt lat="41.9291264" lon="12.3808971"><ele>67.5</ele><time>2026-04-19T15:45:06.76Z</time></trkpt><trkpt lat="41.9288232" lon="12.380919"><ele>65.0</ele><time>2026-04-19T15:45:07.76Z</time></trkpt><trkpt lat="41.9285262" lon="12.3809472"><ele>64.0</ele><time>2026-04-19T15:45:08.759Z</time></trkpt><trkpt lat="41.9282279" lon="12.3809728"><ele>63.0</ele><time>2026-04-19T15:45:09.758Z</time></trkpt><trkpt lat="41.9279348" lon="12.3809973"><ele>63.0</ele><time>2026-04-19T15:45:10.759Z</time></trkpt><trkpt lat="41.9276344" lon="12.3810316"><ele>63.0</ele><time>2026-04-19T15:45:11.758Z</time></trkpt><trkpt lat="41.9273298" lon="12.3810747"><ele>64.5</ele><time>2026-04-19T15:45:12.76Z</time></trkpt><trkpt lat="41.9270213" lon="12.381115"><ele>66.0</ele><time>2026-04-19T15:45:13.758Z</time></trkpt><trkpt lat="41.9267269" lon="12.3811411"><ele>66.0</ele><time>2026-04-19T15:45:14.759Z</time></trkpt><trkpt lat="41.9264461" lon="12.3811654"><ele>66.0</ele><time>2026-04-19T15:45:15.759Z</time></trkpt><trkpt lat="41.9261728" lon="12.3811855"><ele>65.0</ele><time>2026-04-19T15:45:16.759Z</time></trkpt><trkpt lat="41.9258925" lon="12.3812075"><ele>64.0</ele><time>2026-04-19T15:45:17.76Z</time></trkpt><trkpt lat="41.925611" lon="12.3812326"><ele>64.0</ele><time>2026-04-19T15:45:18.76Z</time></trkpt><trkpt lat="41.9253282" lon="12.3812548"><ele>64.0</ele><time>2026-04-19T15:45:19.76Z</time></trkpt><trkpt lat="41.9250419" lon="12.3812701"><ele>63.0</ele><time>2026-04-19T15:45:20.759Z</time></trkpt><trkpt lat="41.9247602" lon="12.3812872"><ele>62.0</ele><time>2026-04-19T15:45:21.759Z</time></trkpt><trkpt lat="41.9244907" lon="12.381312"><ele>62.0</ele><time>2026-04-19T15:45:22.758Z</time></trkpt><trkpt lat="41.9242376" lon="12.3813425"><ele>62.0</ele><time>2026-04-19T15:45:23.759Z</time></trkpt><trkpt lat="41.9239824" lon="12.3813914"><ele>69.5</ele><time>2026-04-19T15:45:24.758Z</time></trkpt><trkpt lat="41.9237234" lon="12.3814494"><ele>77.0</ele><time>2026-04-19T15:45:25.76Z</time></trkpt><trkpt lat="41.923469" lon="12.3815109"><ele>74.5</ele><time>2026-04-19T15:45:26.76Z</time></trkpt><trkpt lat="41.923207" lon="12.3815795"><ele>72.0</ele><time>2026-04-19T15:45:27.759Z</time></trkpt><trkpt lat="41.9229352" lon="12.3816584"><ele>72.0</ele><time>2026-04-19T15:45:28.759Z</time></trkpt><trkpt lat="41.9226511" lon="12.3817462"><ele>72.0</ele><time>2026-04-19T15:45:29.76Z</time></trkpt><trkpt lat="41.9223673" lon="12.3818479"><ele>70.0</ele><time>2026-04-19T15:45:30.759Z</time></trkpt><trkpt lat="41.9220899" lon="12.3819547"><ele>68.0</ele><time>2026-04-19T15:45:31.758Z</time></trkpt><trkpt lat="41.92182" lon="12.382069"><ele>71.5</ele><time>2026-04-19T15:45:32.76Z</time></trkpt><trkpt lat="41.9215657" lon="12.3822"><ele>75.0</ele><time>2026-04-19T15:45:33.76Z</time></trkpt><trkpt lat="41.9213236" lon="12.3823354"><ele>75.0</ele><time>2026-04-19T15:45:34.758Z</time></trkpt><trkpt lat="41.9210915" lon="12.3824726"><ele>75.0</ele><time>2026-04-19T15:45:35.76Z</time></trkpt><trkpt lat="41.9208563" lon="12.3826154"><ele>72.0</ele><time>2026-04-19T15:45:36.758Z</time></trkpt><trkpt lat="41.9206122" lon="12.3827673"><ele>69.0</ele><time>2026-04-19T15:45:37.76Z</time></trkpt><trkpt lat="41.9203665" lon="12.3829143"><ele>71.5</ele><time>2026-04-19T15:45:38.759Z</time></trkpt><trkpt lat="41.9201269" lon="12.3830539"><ele>74.0</ele><time>2026-04-19T15:45:39.759Z</time></trkpt><trkpt lat="41.9198946" lon="12.3831827"><ele>69.0</ele><time>2026-04-19T15:45:40.759Z</time></trkpt><trkpt lat="41.9196664" lon="12.3833082"><ele>64.0</ele><time>2026-04-19T15:45:41.759Z</time></trkpt><trkpt lat="41.9194314" lon="12.3834293"><ele>62.5</ele><time>2026-04-19T15:45:42.759Z</time></trkpt><trkpt lat="41.9191882" lon="12.383541"><ele>61.0</ele><time>2026-04-19T15:45:43.759Z</time></trkpt><trkpt lat="41.9189446" lon="12.3836405"><ele>61.0</ele><time>2026-04-19T15:45:44.76Z</time></trkpt><trkpt lat="41.9186983" lon="12.3837335"><ele>61.0</ele><time>2026-04-19T15:45:45.76Z</time></trkpt><trkpt lat="41.9184426" lon="12.3838185"><ele>62.0</ele><time>2026-04-19T15:45:46.758Z</time></trkpt><trkpt lat="41.9181895" lon="12.3838973"><ele>63.0</ele><time>2026-04-19T15:45:47.759Z</time></trkpt><trkpt lat="41.9179434" lon="12.3839718"><ele>63.0</ele><time>2026-04-19T15:45:48.759Z</time></trkpt><trkpt lat="41.9177004" lon="12.3840421"><ele>63.0</ele><time>2026-04-19T15:45:49.76Z</time></trkpt><trkpt lat="41.9174573" lon="12.3841129"><ele>62.0</ele><time>2026-04-19T15:45:50.759Z</time></trkpt><trkpt lat="41.9172044" lon="12.3841826"><ele>61.0</ele><time>2026-04-19T15:45:51.759Z</time></trkpt><trkpt lat="41.9169419" lon="12.3842439"><ele>60.5</ele><time>2026-04-19T15:45:52.759Z</time></trkpt><trkpt lat="41.9166708" lon="12.384313"><ele>60.0</ele><time>2026-04-19T15:45:53.76Z</time></trkpt><trkpt lat="41.9163997" lon="12.3843871"><ele>60.0</ele><time>2026-04-19T15:45:54.759Z</time></trkpt><trkpt lat="41.9161267" lon="12.3844551"><ele>60.0</ele><time>2026-04-19T15:45:55.759Z</time></trkpt><trkpt lat="41.91585" lon="12.3845217"><ele>58.0</ele><time>2026-04-19T15:45:56.759Z</time></trkpt><trkpt lat="41.9155739" lon="12.384592"><ele>56.0</ele><time>2026-04-19T15:45:57.759Z</time></trkpt><trkpt lat="41.9152908" lon="12.3846661"><ele>57.0</ele><time>2026-04-19T15:45:58.758Z</time></trkpt><trkpt lat="41.9150147" lon="12.3847344"><ele>58.0</ele><time>2026-04-19T15:45:59.76Z</time></trkpt><trkpt lat="41.9147375" lon="12.3848042"><ele>58.0</ele><time>2026-04-19T15:46:00.76Z</time></trkpt><trkpt lat="41.9144577" lon="12.3848723"><ele>58.0</ele><time>2026-04-19T15:46:01.758Z</time></trkpt><trkpt lat="41.9141727" lon="12.3849463"><ele>57.0</ele><time>2026-04-19T15:46:02.758Z</time></trkpt><trkpt lat="41.9138944" lon="12.3850226"><ele>56.0</ele><time>2026-04-19T15:46:03.758Z</time></trkpt><trkpt lat="41.9136222" lon="12.3850934"><ele>57.0</ele><time>2026-04-19T15:46:04.758Z</time></trkpt><trkpt lat="41.9133611" lon="12.3851483"><ele>58.0</ele><time>2026-04-19T15:46:05.759Z</time></trkpt><trkpt lat="41.9131118" lon="12.3851931"><ele>58.0</ele><time>2026-04-19T15:46:06.759Z</time></trkpt><trkpt lat="41.9128696" lon="12.3852354"><ele>58.0</ele><time>2026-04-19T15:46:07.758Z</time></trkpt><trkpt lat="41.9126368" lon="12.3852633"><ele>56.5</ele><time>2026-04-19T15:46:08.759Z</time></trkpt><trkpt lat="41.9124049" lon="12.3852792"><ele>55.0</ele><time>2026-04-19T15:46:09.759Z</time></trkpt><trkpt lat="41.9121693" lon="12.3852781"><ele>55.0</ele><time>2026-04-19T15:46:10.758Z</time></trkpt><trkpt lat="41.9119284" lon="12.3852656"><ele>55.0</ele><time>2026-04-19T15:46:11.758Z</time></trkpt><trkpt lat="41.9116834" lon="12.3852428"><ele>52.0</ele><time>2026-04-19T15:46:12.759Z</time></trkpt><trkpt lat="41.9114302" lon="12.3852164"><ele>49.0</ele><time>2026-04-19T15:46:13.759Z</time></trkpt><trkpt lat="41.9111645" lon="12.3851859"><ele>49.0</ele><time>2026-04-19T15:46:14.757Z</time></trkpt><trkpt lat="41.9108927" lon="12.3851427"><ele>49.0</ele><time>2026-04-19T15:46:15.758Z</time></trkpt><trkpt lat="41.9106092" lon="12.3850969"><ele>49.0</ele><time>2026-04-19T15:46:16.758Z</time></trkpt><trkpt lat="41.9103106" lon="12.3850335"><ele>49.0</ele><time>2026-04-19T15:46:17.759Z</time></trkpt><trkpt lat="41.9100133" lon="12.3849725"><ele>52.0</ele><time>2026-04-19T15:46:18.758Z</time></trkpt><trkpt lat="41.9097331" lon="12.3849177"><ele>55.0</ele><time>2026-04-19T15:46:19.757Z</time></trkpt><trkpt lat="41.9094703" lon="12.3848735"><ele>55.0</ele><time>2026-04-19T15:46:20.758Z</time></trkpt><trkpt lat="41.9092275" lon="12.384825"><ele>55.0</ele><time>2026-04-19T15:46:21.758Z</time></trkpt><trkpt lat="41.9089909" lon="12.3847786"><ele>55.0</ele><time>2026-04-19T15:46:22.758Z</time></trkpt><trkpt lat="41.9087579" lon="12.3847343"><ele>55.0</ele><time>2026-04-19T15:46:23.758Z</time></trkpt><trkpt lat="41.908519" lon="12.3846886"><ele>52.0</ele><time>2026-04-19T15:46:24.758Z</time></trkpt><trkpt lat="41.9082718" lon="12.3846418"><ele>49.0</ele><time>2026-04-19T15:46:25.758Z</time></trkpt><trkpt lat="41.9080133" lon="12.3845948"><ele>49.0</ele><time>2026-04-19T15:46:26.757Z</time></trkpt><trkpt lat="41.9077406" lon="12.3845433"><ele>49.0</ele><time>2026-04-19T15:46:27.758Z</time></trkpt><trkpt lat="41.9074517" lon="12.3844922"><ele>49.5</ele><time>2026-04-19T15:46:28.759Z</time></trkpt><trkpt lat="41.9071469" lon="12.3844366"><ele>50.0</ele><time>2026-04-19T15:46:29.759Z</time></trkpt><trkpt lat="41.9068298" lon="12.3843825"><ele>50.5</ele><time>2026-04-19T15:46:30.758Z</time></trkpt><trkpt lat="41.9065024" lon="12.3843269"><ele>51.0</ele><time>2026-04-19T15:46:31.759Z</time></trkpt><trkpt lat="41.9061638" lon="12.3842719"><ele>51.0</ele><time>2026-04-19T15:46:32.757Z</time></trkpt><trkpt lat="41.9058165" lon="12.3842084"><ele>51.0</ele><time>2026-04-19T15:46:33.758Z</time></trkpt><trkpt lat="41.9054564" lon="12.3841438"><ele>51.0</ele><time>2026-04-19T15:46:34.758Z</time></trkpt><trkpt lat="41.9050896" lon="12.3840798"><ele>51.0</ele><time>2026-04-19T15:46:35.759Z</time></trkpt><trkpt lat="41.9047227" lon="12.3840195"><ele>50.5</ele><time>2026-04-19T15:46:36.759Z</time></trkpt><trkpt lat="41.9043694" lon="12.3839668"><ele>50.0</ele><time>2026-04-19T15:46:37.759Z</time></trkpt><trkpt lat="41.9040256" lon="12.383912"><ele>49.0</ele><time>2026-04-19T15:46:38.759Z</time></trkpt><trkpt lat="41.9036715" lon="12.3838412"><ele>48.0</ele><time>2026-04-19T15:46:39.758Z</time></trkpt><trkpt lat="41.9033169" lon="12.383772"><ele>48.0</ele><time>2026-04-19T15:46:40.758Z</time></trkpt><trkpt lat="41.9029666" lon="12.383705"><ele>48.0</ele><time>2026-04-19T15:46:41.759Z</time></trkpt><trkpt lat="41.9026231" lon="12.3836335"><ele>53.0</ele><time>2026-04-19T15:46:42.759Z</time></trkpt><trkpt lat="41.9022826" lon="12.3835547"><ele>58.0</ele><time>2026-04-19T15:46:43.758Z</time></trkpt><trkpt lat="41.9019456" lon="12.3834639"><ele>61.0</ele><time>2026-04-19T15:46:44.758Z</time></trkpt><trkpt lat="41.9016079" lon="12.383366"><ele>64.0</ele><time>2026-04-19T15:46:45.758Z</time></trkpt><trkpt lat="41.9012682" lon="12.3832631"><ele>64.0</ele><time>2026-04-19T15:46:46.759Z</time></trkpt><trkpt lat="41.9009311" lon="12.3831559"><ele>64.0</ele><time>2026-04-19T15:46:47.758Z</time></trkpt><trkpt lat="41.9005951" lon="12.3830406"><ele>63.5</ele><time>2026-04-19T15:46:48.758Z</time></trkpt><trkpt lat="41.9002658" lon="12.3829216"><ele>63.0</ele><time>2026-04-19T15:46:49.758Z</time></trkpt><trkpt lat="41.8999443" lon="12.3827958"><ele>63.0</ele><time>2026-04-19T15:46:50.758Z</time></trkpt><trkpt lat="41.899629" lon="12.3826788"><ele>63.0</ele><time>2026-04-19T15:46:51.757Z</time></trkpt><trkpt lat="41.8993245" lon="12.3825589"><ele>60.0</ele><time>2026-04-19T15:46:52.759Z</time></trkpt><trkpt lat="41.8990265" lon="12.3824462"><ele>57.0</ele><time>2026-04-19T15:46:53.759Z</time></trkpt><trkpt lat="41.8987349" lon="12.3823368"><ele>68.0</ele><time>2026-04-19T15:46:54.759Z</time></trkpt><trkpt lat="41.8975992" lon="12.3819436"><ele>66.0</ele><time>2026-04-19T15:46:58.758Z</time></trkpt><trkpt lat="41.897314" lon="12.381851"><ele>64.0</ele><time>2026-04-19T15:46:59.759Z</time></trkpt><trkpt lat="41.8970253" lon="12.381767"><ele>58.5</ele><time>2026-04-19T15:47:00.759Z</time></trkpt><trkpt lat="41.8967298" lon="12.3816962"><ele>53.0</ele><time>2026-04-19T15:47:01.759Z</time></trkpt><trkpt lat="41.8964159" lon="12.3816367"><ele>53.0</ele><time>2026-04-19T15:47:02.757Z</time></trkpt><trkpt lat="41.8960876" lon="12.3815763"><ele>53.0</ele><time>2026-04-19T15:47:03.758Z</time></trkpt><trkpt lat="41.8957448" lon="12.3815168"><ele>50.5</ele><time>2026-04-19T15:47:04.758Z</time></trkpt><trkpt lat="41.8953896" lon="12.3814682"><ele>48.0</ele><time>2026-04-19T15:47:05.759Z</time></trkpt><trkpt lat="41.8950256" lon="12.3814294"><ele>45.5</ele><time>2026-04-19T15:47:06.758Z</time></trkpt><trkpt lat="41.894665" lon="12.3813987"><ele>43.0</ele><time>2026-04-19T15:47:07.759Z</time></trkpt><trkpt lat="41.8943196" lon="12.3813701"><ele>42.5</ele><time>2026-04-19T15:47:08.759Z</time></trkpt><trkpt lat="41.8939865" lon="12.3813448"><ele>42.0</ele><time>2026-04-19T15:47:09.757Z</time></trkpt><trkpt lat="41.8936619" lon="12.38132"><ele>41.5</ele><time>2026-04-19T15:47:10.758Z</time></trkpt><trkpt lat="41.8933464" lon="12.3812956"><ele>41.0</ele><time>2026-04-19T15:47:11.759Z</time></trkpt><trkpt lat="41.8930418" lon="12.3812739"><ele>41.0</ele><time>2026-04-19T15:47:12.758Z</time></trkpt><trkpt lat="41.8927591" lon="12.3812585"><ele>41.0</ele><time>2026-04-19T15:47:13.758Z</time></trkpt><trkpt lat="41.8924855" lon="12.3812441"><ele>43.0</ele><time>2026-04-19T15:47:14.758Z</time></trkpt><trkpt lat="41.8922164" lon="12.3812288"><ele>45.0</ele><time>2026-04-19T15:47:15.759Z</time></trkpt><trkpt lat="41.8919604" lon="12.381201"><ele>44.5</ele><time>2026-04-19T15:47:16.759Z</time></trkpt><trkpt lat="41.8917358" lon="12.3811746"><ele>44.0</ele><time>2026-04-19T15:47:17.758Z</time></trkpt><trkpt lat="41.8914976" lon="12.3811696"><ele>44.0</ele><time>2026-04-19T15:47:18.757Z</time></trkpt><trkpt lat="41.8912539" lon="12.3811569"><ele>44.0</ele><time>2026-04-19T15:47:19.758Z</time></trkpt><trkpt lat="41.8910058" lon="12.3811486"><ele>42.0</ele><time>2026-04-19T15:47:20.758Z</time></trkpt><trkpt lat="41.8907537" lon="12.3811335"><ele>40.0</ele><time>2026-04-19T15:47:21.758Z</time></trkpt><trkpt lat="41.8904868" lon="12.3811051"><ele>40.0</ele><time>2026-04-19T15:47:22.757Z</time></trkpt><trkpt lat="41.8902256" lon="12.3810841"><ele>40.0</ele><time>2026-04-19T15:47:23.758Z</time></trkpt><trkpt lat="41.889984" lon="12.3810604"><ele>39.0</ele><time>2026-04-19T15:47:24.758Z</time></trkpt><trkpt lat="41.8897089" lon="12.3810402"><ele>38.0</ele><time>2026-04-19T15:47:25.757Z</time></trkpt><trkpt lat="41.8894214" lon="12.3810103"><ele>37.0</ele><time>2026-04-19T15:47:26.758Z</time></trkpt><trkpt lat="41.8891187" lon="12.3809944"><ele>36.0</ele><time>2026-04-19T15:47:27.758Z</time></trkpt><trkpt lat="41.8888061" lon="12.3809692"><ele>36.0</ele><time>2026-04-19T15:47:28.758Z</time></trkpt><trkpt lat="41.8884686" lon="12.3809522"><ele>36.0</ele><time>2026-04-19T15:47:29.759Z</time></trkpt><trkpt lat="41.8881179" lon="12.3809463"><ele>36.0</ele><time>2026-04-19T15:47:30.759Z</time></trkpt><trkpt lat="41.8877632" lon="12.3809292"><ele>36.0</ele><time>2026-04-19T15:47:31.757Z</time></trkpt><trkpt lat="41.8874098" lon="12.3809117"><ele>36.0</ele><time>2026-04-19T15:47:32.758Z</time></trkpt><trkpt lat="41.8870549" lon="12.3808984"><ele>36.0</ele><time>2026-04-19T15:47:33.759Z</time></trkpt><trkpt lat="41.8866891" lon="12.3808853"><ele>36.5</ele><time>2026-04-19T15:47:34.758Z</time></trkpt><trkpt lat="41.8863229" lon="12.380877"><ele>37.0</ele><time>2026-04-19T15:47:35.757Z</time></trkpt><trkpt lat="41.8859513" lon="12.380883"><ele>39.0</ele><time>2026-04-19T15:47:36.757Z</time></trkpt><trkpt lat="41.8855954" lon="12.3808701"><ele>41.0</ele><time>2026-04-19T15:47:37.758Z</time></trkpt><trkpt lat="41.8852584" lon="12.3808544"><ele>39.0</ele><time>2026-04-19T15:47:38.759Z</time></trkpt><trkpt lat="41.8849246" lon="12.3808482"><ele>37.0</ele><time>2026-04-19T15:47:39.758Z</time></trkpt><trkpt lat="41.8846144" lon="12.3808339"><ele>37.0</ele><time>2026-04-19T15:47:40.759Z</time></trkpt><trkpt lat="41.8842933" lon="12.3808123"><ele>37.0</ele><time>2026-04-19T15:47:41.757Z</time></trkpt><trkpt lat="41.8839837" lon="12.380799"><ele>36.5</ele><time>2026-04-19T15:47:42.759Z</time></trkpt><trkpt lat="41.8836645" lon="12.380786"><ele>36.0</ele><time>2026-04-19T15:47:43.759Z</time></trkpt><trkpt lat="41.8833451" lon="12.3807808"><ele>36.0</ele><time>2026-04-19T15:47:44.758Z</time></trkpt><trkpt lat="41.8830221" lon="12.3807742"><ele>36.0</ele><time>2026-04-19T15:47:45.758Z</time></trkpt><trkpt lat="41.8827056" lon="12.380762"><ele>36.5</ele><time>2026-04-19T15:47:46.759Z</time></trkpt><trkpt lat="41.8823974" lon="12.3807491"><ele>37.0</ele><time>2026-04-19T15:47:47.759Z</time></trkpt><trkpt lat="41.882083" lon="12.3807227"><ele>37.0</ele><time>2026-04-19T15:47:48.759Z</time></trkpt><trkpt lat="41.881771" lon="12.380695"><ele>37.0</ele><time>2026-04-19T15:47:49.758Z</time></trkpt><trkpt lat="41.8814484" lon="12.3806577"><ele>37.0</ele><time>2026-04-19T15:47:50.757Z</time></trkpt><trkpt lat="41.8811261" lon="12.3806036"><ele>37.0</ele><time>2026-04-19T15:47:51.759Z</time></trkpt><trkpt lat="41.8807943" lon="12.3805182"><ele>34.5</ele><time>2026-04-19T15:47:52.758Z</time></trkpt><trkpt lat="41.8804588" lon="12.3804251"><ele>32.0</ele><time>2026-04-19T15:47:53.759Z</time></trkpt><trkpt lat="41.88012" lon="12.3803205"><ele>32.0</ele><time>2026-04-19T15:47:54.758Z</time></trkpt><trkpt lat="41.8797709" lon="12.3802053"><ele>32.0</ele><time>2026-04-19T15:47:55.759Z</time></trkpt><trkpt lat="41.8794186" lon="12.3800821"><ele>32.5</ele><time>2026-04-19T15:47:56.758Z</time></trkpt><trkpt lat="41.8790646" lon="12.3799556"><ele>33.0</ele><time>2026-04-19T15:47:57.758Z</time></trkpt><trkpt lat="41.8787216" lon="12.3798201"><ele>32.0</ele><time>2026-04-19T15:47:58.758Z</time></trkpt><trkpt lat="41.8783936" lon="12.3796773"><ele>31.0</ele><time>2026-04-19T15:47:59.757Z</time></trkpt><trkpt lat="41.878077" lon="12.3795267"><ele>31.0</ele><time>2026-04-19T15:48:00.759Z</time></trkpt><trkpt lat="41.8777658" lon="12.3793689"><ele>31.0</ele><time>2026-04-19T15:48:01.758Z</time></trkpt><trkpt lat="41.8774576" lon="12.3792094"><ele>33.5</ele><time>2026-04-19T15:48:02.759Z</time></trkpt><trkpt lat="41.8771467" lon="12.3790505"><ele>36.0</ele><time>2026-04-19T15:48:03.759Z</time></trkpt><trkpt lat="41.87683" lon="12.3788863"><ele>35.0</ele><time>2026-04-19T15:48:04.757Z</time></trkpt><trkpt lat="41.8765076" lon="12.3787228"><ele>34.0</ele><time>2026-04-19T15:48:05.758Z</time></trkpt><trkpt lat="41.8761822" lon="12.3785554"><ele>31.5</ele><time>2026-04-19T15:48:06.759Z</time></trkpt><trkpt lat="41.8758581" lon="12.3783793"><ele>29.0</ele><time>2026-04-19T15:48:07.758Z</time></trkpt><trkpt lat="41.8755284" lon="12.3782034"><ele>29.0</ele><time>2026-04-19T15:48:08.759Z</time></trkpt><trkpt lat="41.875188" lon="12.378024"><ele>29.0</ele><time>2026-04-19T15:48:09.758Z</time></trkpt><trkpt lat="41.8748589" lon="12.377851"><ele>30.0</ele><time>2026-04-19T15:48:10.759Z</time></trkpt><trkpt lat="41.8745291" lon="12.3776846"><ele>31.0</ele><time>2026-04-19T15:48:11.757Z</time></trkpt><trkpt lat="41.8742247" lon="12.3775231"><ele>32.0</ele><time>2026-04-19T15:48:12.759Z</time></trkpt><trkpt lat="41.8739088" lon="12.377364"><ele>33.0</ele><time>2026-04-19T15:48:13.758Z</time></trkpt><trkpt lat="41.8735906" lon="12.3772003"><ele>35.5</ele><time>2026-04-19T15:48:14.757Z</time></trkpt><trkpt lat="41.8732737" lon="12.3770367"><ele>38.0</ele><time>2026-04-19T15:48:15.758Z</time></trkpt><trkpt lat="41.8729527" lon="12.3768645"><ele>38.0</ele><time>2026-04-19T15:48:16.759Z</time></trkpt><trkpt lat="41.8726339" lon="12.3766939"><ele>38.0</ele><time>2026-04-19T15:48:17.758Z</time></trkpt><trkpt lat="41.8723242" lon="12.3765167"><ele>43.0</ele><time>2026-04-19T15:48:18.758Z</time></trkpt><trkpt lat="41.8720246" lon="12.3763428"><ele>48.0</ele><time>2026-04-19T15:48:19.758Z</time></trkpt><trkpt lat="41.8717432" lon="12.3761767"><ele>48.0</ele><time>2026-04-19T15:48:20.757Z</time></trkpt><trkpt lat="41.8714743" lon="12.3760132"><ele>48.0</ele><time>2026-04-19T15:48:21.758Z</time></trkpt><trkpt lat="41.8712093" lon="12.375849"><ele>48.0</ele><time>2026-04-19T15:48:22.757Z</time></trkpt><trkpt lat="41.8709515" lon="12.375703"><ele>48.0</ele><time>2026-04-19T15:48:23.758Z</time></trkpt><trkpt lat="41.8706927" lon="12.3755582"><ele>50.5</ele><time>2026-04-19T15:48:24.758Z</time></trkpt><trkpt lat="41.8704344" lon="12.3754134"><ele>53.0</ele><time>2026-04-19T15:48:25.757Z</time></trkpt><trkpt lat="41.8701792" lon="12.3752706"><ele>47.0</ele><time>2026-04-19T15:48:26.758Z</time></trkpt><trkpt lat="41.8699237" lon="12.3751318"><ele>41.0</ele><time>2026-04-19T15:48:27.758Z</time></trkpt><trkpt lat="41.8696675" lon="12.3749918"><ele>41.0</ele><time>2026-04-19T15:48:28.758Z</time></trkpt><trkpt lat="41.8694094" lon="12.3748493"><ele>41.0</ele><time>2026-04-19T15:48:29.758Z</time></trkpt><trkpt lat="41.8691494" lon="12.374707"><ele>40.5</ele><time>2026-04-19T15:48:30.758Z</time></trkpt><trkpt lat="41.8688896" lon="12.3745662"><ele>40.0</ele><time>2026-04-19T15:48:31.757Z</time></trkpt><trkpt lat="41.8686304" lon="12.3744323"><ele>43.5</ele><time>2026-04-19T15:48:32.758Z</time></trkpt><trkpt lat="41.8683711" lon="12.3743109"><ele>47.0</ele><time>2026-04-19T15:48:33.758Z</time></trkpt><trkpt lat="41.8681071" lon="12.3741977"><ele>47.0</ele><time>2026-04-19T15:48:34.759Z</time></trkpt><trkpt lat="41.8678374" lon="12.3740927"><ele>47.0</ele><time>2026-04-19T15:48:35.758Z</time></trkpt><trkpt lat="41.8675607" lon="12.3739959"><ele>50.0</ele><time>2026-04-19T15:48:36.759Z</time></trkpt><trkpt lat="41.8672767" lon="12.3738982"><ele>53.0</ele><time>2026-04-19T15:48:37.758Z</time></trkpt><trkpt lat="41.8669808" lon="12.3738048"><ele>57.5</ele><time>2026-04-19T15:48:38.757Z</time></trkpt><trkpt lat="41.8666733" lon="12.3737272"><ele>62.0</ele><time>2026-04-19T15:48:39.757Z</time></trkpt><trkpt lat="41.866354" lon="12.3736699"><ele>62.0</ele><time>2026-04-19T15:48:40.758Z</time></trkpt><trkpt lat="41.866028" lon="12.3736364"><ele>62.0</ele><time>2026-04-19T15:48:41.757Z</time></trkpt><trkpt lat="41.8656943" lon="12.3736034"><ele>62.0</ele><time>2026-04-19T15:48:42.757Z</time></trkpt><trkpt lat="41.8653574" lon="12.3736003"><ele>62.0</ele><time>2026-04-19T15:48:43.759Z</time></trkpt><trkpt lat="41.8650146" lon="12.3736098"><ele>61.0</ele><time>2026-04-19T15:48:44.758Z</time></trkpt><trkpt lat="41.8646698" lon="12.3736434"><ele>60.0</ele><time>2026-04-19T15:48:45.758Z</time></trkpt><trkpt lat="41.8643234" lon="12.3736892"><ele>61.0</ele><time>2026-04-19T15:48:46.758Z</time></trkpt><trkpt lat="41.8639966" lon="12.3737613"><ele>62.0</ele><time>2026-04-19T15:48:47.759Z</time></trkpt><trkpt lat="41.8636687" lon="12.3738489"><ele>60.5</ele><time>2026-04-19T15:48:48.758Z</time></trkpt><trkpt lat="41.8633491" lon="12.3739584"><ele>59.0</ele><time>2026-04-19T15:48:49.759Z</time></trkpt><trkpt lat="41.8630337" lon="12.3740779"><ele>59.0</ele><time>2026-04-19T15:48:50.759Z</time></trkpt><trkpt lat="41.8627188" lon="12.374203"><ele>59.0</ele><time>2026-04-19T15:48:51.758Z</time></trkpt><trkpt lat="41.8624006" lon="12.3743274"><ele>60.0</ele><time>2026-04-19T15:48:52.757Z</time></trkpt><trkpt lat="41.862086" lon="12.3744497"><ele>61.0</ele><time>2026-04-19T15:48:53.757Z</time></trkpt><trkpt lat="41.8617689" lon="12.3745709"><ele>61.5</ele><time>2026-04-19T15:48:54.758Z</time></trkpt><trkpt lat="41.8614583" lon="12.3746911"><ele>62.0</ele><time>2026-04-19T15:48:55.758Z</time></trkpt><trkpt lat="41.8611546" lon="12.3748164"><ele>63.5</ele><time>2026-04-19T15:48:56.758Z</time></trkpt><trkpt lat="41.8608649" lon="12.3749408"><ele>65.0</ele><time>2026-04-19T15:48:57.758Z</time></trkpt><trkpt lat="41.860581" lon="12.3750642"><ele>65.0</ele><time>2026-04-19T15:48:58.759Z</time></trkpt><trkpt lat="41.8603058" lon="12.375183"><ele>65.0</ele><time>2026-04-19T15:48:59.759Z</time></trkpt><trkpt lat="41.8600366" lon="12.3752982"><ele>65.0</ele><time>2026-04-19T15:49:00.758Z</time></trkpt><trkpt lat="41.8597732" lon="12.3754112"><ele>65.0</ele><time>2026-04-19T15:49:01.759Z</time></trkpt><trkpt lat="41.8595209" lon="12.3755155"><ele>65.0</ele><time>2026-04-19T15:49:02.758Z</time></trkpt><trkpt lat="41.8592733" lon="12.3756246"><ele>65.0</ele><time>2026-04-19T15:49:03.758Z</time></trkpt><trkpt lat="41.8590273" lon="12.3757259"><ele>65.0</ele><time>2026-04-19T15:49:04.758Z</time></trkpt><trkpt lat="41.8587806" lon="12.3758293"><ele>65.0</ele><time>2026-04-19T15:49:05.759Z</time></trkpt><trkpt lat="41.8585312" lon="12.3759337"><ele>65.5</ele><time>2026-04-19T15:49:06.758Z</time></trkpt><trkpt lat="41.858283" lon="12.3760402"><ele>66.0</ele><time>2026-04-19T15:49:07.759Z</time></trkpt><trkpt lat="41.8580282" lon="12.3761485"><ele>66.0</ele><time>2026-04-19T15:49:08.758Z</time></trkpt><trkpt lat="41.8577691" lon="12.3762618"><ele>66.0</ele><time>2026-04-19T15:49:09.758Z</time></trkpt><trkpt lat="41.8575096" lon="12.3763772"><ele>68.0</ele><time>2026-04-19T15:49:10.758Z</time></trkpt><trkpt lat="41.8572511" lon="12.3764891"><ele>70.0</ele><time>2026-04-19T15:49:11.757Z</time></trkpt><trkpt lat="41.8569931" lon="12.3766027"><ele>69.0</ele><time>2026-04-19T15:49:12.759Z</time></trkpt><trkpt lat="41.8567299" lon="12.3767196"><ele>68.0</ele><time>2026-04-19T15:49:13.757Z</time></trkpt><trkpt lat="41.8564706" lon="12.3768385"><ele>68.0</ele><time>2026-04-19T15:49:14.759Z</time></trkpt><trkpt lat="41.8562077" lon="12.376952"><ele>68.0</ele><time>2026-04-19T15:49:15.757Z</time></trkpt><trkpt lat="41.8559464" lon="12.3770656"><ele>68.0</ele><time>2026-04-19T15:49:16.758Z</time></trkpt><trkpt lat="41.8556822" lon="12.3771812"><ele>68.0</ele><time>2026-04-19T15:49:17.759Z</time></trkpt><trkpt lat="41.8554175" lon="12.3773034"><ele>68.0</ele><time>2026-04-19T15:49:18.757Z</time></trkpt><trkpt lat="41.855146" lon="12.3774267"><ele>68.0</ele><time>2026-04-19T15:49:19.759Z</time></trkpt><trkpt lat="41.8548745" lon="12.3775434"><ele>68.5</ele><time>2026-04-19T15:49:20.758Z</time></trkpt><trkpt lat="41.8546007" lon="12.377658"><ele>69.0</ele><time>2026-04-19T15:49:21.757Z</time></trkpt><trkpt lat="41.8543232" lon="12.3777708"><ele>67.0</ele><time>2026-04-19T15:49:22.758Z</time></trkpt><trkpt lat="41.8540453" lon="12.3778827"><ele>65.0</ele><time>2026-04-19T15:49:23.757Z</time></trkpt><trkpt lat="41.8537707" lon="12.3779864"><ele>66.5</ele><time>2026-04-19T15:49:24.758Z</time></trkpt><trkpt lat="41.8534952" lon="12.3780927"><ele>68.0</ele><time>2026-04-19T15:49:25.759Z</time></trkpt><trkpt lat="41.8532213" lon="12.3781985"><ele>68.0</ele><time>2026-04-19T15:49:26.757Z</time></trkpt><trkpt lat="41.8529532" lon="12.3783097"><ele>68.0</ele><time>2026-04-19T15:49:27.758Z</time></trkpt><trkpt lat="41.8526809" lon="12.3784262"><ele>68.0</ele><time>2026-04-19T15:49:28.758Z</time></trkpt><trkpt lat="41.8524082" lon="12.3785427"><ele>68.0</ele><time>2026-04-19T15:49:29.759Z</time></trkpt><trkpt lat="41.8521387" lon="12.3786611"><ele>68.0</ele><time>2026-04-19T15:49:30.758Z</time></trkpt><trkpt lat="41.8518717" lon="12.3787759"><ele>68.0</ele><time>2026-04-19T15:49:31.759Z</time></trkpt><trkpt lat="41.8516082" lon="12.3788897"><ele>67.0</ele><time>2026-04-19T15:49:32.758Z</time></trkpt><trkpt lat="41.851342" lon="12.3790043"><ele>66.0</ele><time>2026-04-19T15:49:33.758Z</time></trkpt><trkpt lat="41.8510733" lon="12.3791221"><ele>66.0</ele><time>2026-04-19T15:49:34.758Z</time></trkpt><trkpt lat="41.8508063" lon="12.3792418"><ele>66.0</ele><time>2026-04-19T15:49:35.757Z</time></trkpt><trkpt lat="41.8505375" lon="12.3793701"><ele>66.0</ele><time>2026-04-19T15:49:36.757Z</time></trkpt><trkpt lat="41.8502669" lon="12.3795067"><ele>66.0</ele><time>2026-04-19T15:49:37.758Z</time></trkpt><trkpt lat="41.8499896" lon="12.3796402"><ele>62.0</ele><time>2026-04-19T15:49:38.758Z</time></trkpt><trkpt lat="41.8497114" lon="12.3797744"><ele>58.0</ele><time>2026-04-19T15:49:39.758Z</time></trkpt><trkpt lat="41.8494293" lon="12.379903"><ele>57.0</ele><time>2026-04-19T15:49:40.758Z</time></trkpt><trkpt lat="41.8491482" lon="12.3800317"><ele>56.0</ele><time>2026-04-19T15:49:41.758Z</time></trkpt><trkpt lat="41.8488652" lon="12.3801532"><ele>56.0</ele><time>2026-04-19T15:49:42.759Z</time></trkpt><trkpt lat="41.8485858" lon="12.3802712"><ele>56.0</ele><time>2026-04-19T15:49:43.758Z</time></trkpt><trkpt lat="41.8483085" lon="12.3803903"><ele>55.5</ele><time>2026-04-19T15:49:44.758Z</time></trkpt><trkpt lat="41.8480317" lon="12.3805053"><ele>55.0</ele><time>2026-04-19T15:49:45.758Z</time></trkpt><trkpt lat="41.8477549" lon="12.3806196"><ele>55.0</ele><time>2026-04-19T15:49:46.757Z</time></trkpt><trkpt lat="41.847479" lon="12.3807355"><ele>55.0</ele><time>2026-04-19T15:49:47.757Z</time></trkpt><trkpt lat="41.847205" lon="12.3808601"><ele>55.0</ele><time>2026-04-19T15:49:48.758Z</time></trkpt><trkpt lat="41.8469366" lon="12.3809829"><ele>55.0</ele><time>2026-04-19T15:49:49.758Z</time></trkpt><trkpt lat="41.846662" lon="12.3811011"><ele>55.5</ele><time>2026-04-19T15:49:50.759Z</time></trkpt><trkpt lat="41.8463868" lon="12.3812169"><ele>56.0</ele><time>2026-04-19T15:49:51.758Z</time></trkpt><trkpt lat="41.8461107" lon="12.3813321"><ele>57.0</ele><time>2026-04-19T15:49:52.758Z</time></trkpt><trkpt lat="41.8458367" lon="12.3814408"><ele>58.0</ele><time>2026-04-19T15:49:53.759Z</time></trkpt><trkpt lat="41.8455582" lon="12.3815482"><ele>58.0</ele><time>2026-04-19T15:49:54.759Z</time></trkpt><trkpt lat="41.8452839" lon="12.3816601"><ele>58.0</ele><time>2026-04-19T15:49:55.758Z</time></trkpt><trkpt lat="41.8450105" lon="12.3817751"><ele>57.5</ele><time>2026-04-19T15:49:56.758Z</time></trkpt><trkpt lat="41.8447415" lon="12.3818959"><ele>57.0</ele><time>2026-04-19T15:49:57.759Z</time></trkpt><trkpt lat="41.84447" lon="12.3820151"><ele>55.5</ele><time>2026-04-19T15:49:58.759Z</time></trkpt><trkpt lat="41.8441976" lon="12.3821282"><ele>54.0</ele><time>2026-04-19T15:49:59.759Z</time></trkpt><trkpt lat="41.8439245" lon="12.3822394"><ele>54.0</ele><time>2026-04-19T15:50:00.758Z</time></trkpt><trkpt lat="41.8436512" lon="12.3823531"><ele>54.0</ele><time>2026-04-19T15:50:01.758Z</time></trkpt><trkpt lat="41.8433762" lon="12.3824626"><ele>53.0</ele><time>2026-04-19T15:50:02.758Z</time></trkpt><trkpt lat="41.8431027" lon="12.3825741"><ele>52.0</ele><time>2026-04-19T15:50:03.758Z</time></trkpt><trkpt lat="41.8428277" lon="12.3826845"><ele>51.5</ele><time>2026-04-19T15:50:04.758Z</time></trkpt><trkpt lat="41.8425502" lon="12.3827948"><ele>51.0</ele><time>2026-04-19T15:50:05.758Z</time></trkpt><trkpt lat="41.8422726" lon="12.3829047"><ele>51.5</ele><time>2026-04-19T15:50:06.759Z</time></trkpt><trkpt lat="41.8419949" lon="12.3830148"><ele>52.0</ele><time>2026-04-19T15:50:07.758Z</time></trkpt><trkpt lat="41.841717" lon="12.3831225"><ele>52.0</ele><time>2026-04-19T15:50:08.758Z</time></trkpt><trkpt lat="41.8414401" lon="12.3832304"><ele>52.0</ele><time>2026-04-19T15:50:09.759Z</time></trkpt><trkpt lat="41.8411636" lon="12.3833333"><ele>53.5</ele><time>2026-04-19T15:50:10.759Z</time></trkpt><trkpt lat="41.8408859" lon="12.3834374"><ele>55.0</ele><time>2026-04-19T15:50:11.758Z</time></trkpt><trkpt lat="41.8406155" lon="12.3835488"><ele>55.0</ele><time>2026-04-19T15:50:12.758Z</time></trkpt><trkpt lat="41.840352" lon="12.3836368"><ele>55.0</ele><time>2026-04-19T15:50:13.757Z</time></trkpt><trkpt lat="41.8400862" lon="12.3837353"><ele>55.0</ele><time>2026-04-19T15:50:14.758Z</time></trkpt><trkpt lat="41.8398263" lon="12.3838263"><ele>55.0</ele><time>2026-04-19T15:50:15.758Z</time></trkpt><trkpt lat="41.8395773" lon="12.3839192"><ele>53.0</ele><time>2026-04-19T15:50:16.758Z</time></trkpt><trkpt lat="41.8393339" lon="12.384002"><ele>51.0</ele><time>2026-04-19T15:50:17.759Z</time></trkpt><trkpt lat="41.8390995" lon="12.3840696"><ele>51.0</ele><time>2026-04-19T15:50:18.758Z</time></trkpt><trkpt lat="41.8388773" lon="12.3841431"><ele>51.0</ele><time>2026-04-19T15:50:19.759Z</time></trkpt><trkpt lat="41.8386627" lon="12.3842097"><ele>51.0</ele><time>2026-04-19T15:50:20.758Z</time></trkpt><trkpt lat="41.8384563" lon="12.3842777"><ele>51.66666666666667</ele><time>2026-04-19T15:50:21.759Z</time></trkpt><trkpt lat="41.8382592" lon="12.3843363"><ele>52.333333333333336</ele><time>2026-04-19T15:50:22.759Z</time></trkpt><trkpt lat="41.8380671" lon="12.3843991"><ele>53.0</ele><time>2026-04-19T15:50:23.759Z</time></trkpt><trkpt lat="41.8378674" lon="12.3844646"><ele>53.0</ele><time>2026-04-19T15:50:24.759Z</time></trkpt><trkpt lat="41.8376689" lon="12.3845334"><ele>53.0</ele><time>2026-04-19T15:50:25.758Z</time></trkpt><trkpt lat="41.837468" lon="12.3846012"><ele>53.0</ele><time>2026-04-19T15:50:26.758Z</time></trkpt><trkpt lat="41.8372621" lon="12.3846635"><ele>51.0</ele><time>2026-04-19T15:50:27.759Z</time></trkpt><trkpt lat="41.8370585" lon="12.3847237"><ele>49.0</ele><time>2026-04-19T15:50:28.759Z</time></trkpt><trkpt lat="41.8368542" lon="12.3847892"><ele>47.0</ele><time>2026-04-19T15:50:29.758Z</time></trkpt><trkpt lat="41.8366465" lon="12.3848563"><ele>46.0</ele><time>2026-04-19T15:50:30.759Z</time></trkpt><trkpt lat="41.8364369" lon="12.3849299"><ele>45.0</ele><time>2026-04-19T15:50:31.759Z</time></trkpt><trkpt lat="41.8362233" lon="12.3849962"><ele>44.0</ele><time>2026-04-19T15:50:32.758Z</time></trkpt><trkpt lat="41.8360057" lon="12.3850662"><ele>44.0</ele><time>2026-04-19T15:50:33.758Z</time></trkpt><trkpt lat="41.8357903" lon="12.3851342"><ele>44.0</ele><time>2026-04-19T15:50:34.759Z</time></trkpt><trkpt lat="41.8355823" lon="12.3851975"><ele>44.0</ele><time>2026-04-19T15:50:35.758Z</time></trkpt><trkpt lat="41.8353802" lon="12.3852637"><ele>44.0</ele><time>2026-04-19T15:50:36.758Z</time></trkpt><trkpt lat="41.8351841" lon="12.3853241"><ele>44.0</ele><time>2026-04-19T15:50:37.757Z</time></trkpt><trkpt lat="41.8349905" lon="12.3853807"><ele>44.0</ele><time>2026-04-19T15:50:38.759Z</time></trkpt><trkpt lat="41.8348037" lon="12.3854357"><ele>44.33333333333333</ele><time>2026-04-19T15:50:39.758Z</time></trkpt><trkpt lat="41.8346202" lon="12.385488"><ele>44.666666666666664</ele><time>2026-04-19T15:50:40.757Z</time></trkpt><trkpt lat="41.8344409" lon="12.3855424"><ele>45.0</ele><time>2026-04-19T15:50:41.758Z</time></trkpt><trkpt lat="41.8342703" lon="12.3855959"><ele>46.33333333333333</ele><time>2026-04-19T15:50:42.758Z</time></trkpt><trkpt lat="41.8340974" lon="12.3856501"><ele>47.666666666666664</ele><time>2026-04-19T15:50:43.758Z</time></trkpt><trkpt lat="41.8339303" lon="12.3857004"><ele>49.0</ele><time>2026-04-19T15:50:44.759Z</time></trkpt><trkpt lat="41.8337619" lon="12.3857512"><ele>49.0</ele><time>2026-04-19T15:50:45.758Z</time></trkpt><trkpt lat="41.8335973" lon="12.3858004"><ele>49.0</ele><time>2026-04-19T15:50:46.758Z</time></trkpt><trkpt lat="41.8334404" lon="12.3858535"><ele>49.0</ele><time>2026-04-19T15:50:47.758Z</time></trkpt><trkpt lat="41.8332844" lon="12.3859024"><ele>47.666666666666664</ele><time>2026-04-19T15:50:48.757Z</time></trkpt><trkpt lat="41.8331298" lon="12.3859456"><ele>46.33333333333333</ele><time>2026-04-19T15:50:49.758Z</time></trkpt><trkpt lat="41.8329791" lon="12.3859884"><ele>45.0</ele><time>2026-04-19T15:50:50.759Z</time></trkpt><trkpt lat="41.832832" lon="12.3860285"><ele>45.0</ele><time>2026-04-19T15:50:51.759Z</time></trkpt><trkpt lat="41.8326836" lon="12.3860666"><ele>45.0</ele><time>2026-04-19T15:50:52.758Z</time></trkpt><trkpt lat="41.8325366" lon="12.3861027"><ele>45.0</ele><time>2026-04-19T15:50:53.758Z</time></trkpt><trkpt lat="41.8323932" lon="12.3861435"><ele>45.0</ele><time>2026-04-19T15:50:54.757Z</time></trkpt><trkpt lat="41.8322532" lon="12.3861841"><ele>44.5</ele><time>2026-04-19T15:50:55.758Z</time></trkpt><trkpt lat="41.832114" lon="12.3862233"><ele>44.0</ele><time>2026-04-19T15:50:56.758Z</time></trkpt><trkpt lat="41.831978" lon="12.3862648"><ele>43.5</ele><time>2026-04-19T15:50:57.758Z</time></trkpt><trkpt lat="41.8318423" lon="12.3863025"><ele>43.0</ele><time>2026-04-19T15:50:58.759Z</time></trkpt><trkpt lat="41.8317065" lon="12.3863402"><ele>44.0</ele><time>2026-04-19T15:50:59.758Z</time></trkpt><trkpt lat="41.8313081" lon="12.3864469"><ele>45.0</ele><time>2026-04-19T15:51:02.758Z</time></trkpt><trkpt lat="41.8311752" lon="12.3864799"><ele>45.0</ele><time>2026-04-19T15:51:03.757Z</time></trkpt><trkpt lat="41.8310443" lon="12.3865131"><ele>45.0</ele><time>2026-04-19T15:51:04.758Z</time></trkpt><trkpt lat="41.8309152" lon="12.3865464"><ele>45.0</ele><time>2026-04-19T15:51:05.758Z</time></trkpt><trkpt lat="41.8307846" lon="12.3865805"><ele>45.0</ele><time>2026-04-19T15:51:06.759Z</time></trkpt><trkpt lat="41.8306552" lon="12.386617"><ele>44.5</ele><time>2026-04-19T15:51:07.759Z</time></trkpt><trkpt lat="41.8305244" lon="12.3866542"><ele>44.0</ele><time>2026-04-19T15:51:08.759Z</time></trkpt><trkpt lat="41.8303942" lon="12.3866892"><ele>43.5</ele><time>2026-04-19T15:51:09.757Z</time></trkpt><trkpt lat="41.8302654" lon="12.386726"><ele>43.0</ele><time>2026-04-19T15:51:10.757Z</time></trkpt><trkpt lat="41.8301377" lon="12.3867672"><ele>42.5</ele><time>2026-04-19T15:51:11.758Z</time></trkpt><trkpt lat="41.8300078" lon="12.3868082"><ele>42.0</ele><time>2026-04-19T15:51:12.759Z</time></trkpt><trkpt lat="41.8298796" lon="12.3868517"><ele>41.5</ele><time>2026-04-19T15:51:13.759Z</time></trkpt><trkpt lat="41.8297519" lon="12.3868879"><ele>41.0</ele><time>2026-04-19T15:51:14.759Z</time></trkpt><trkpt lat="41.8296259" lon="12.3869238"><ele>41.0</ele><time>2026-04-19T15:51:15.757Z</time></trkpt><trkpt lat="41.8294961" lon="12.3869589"><ele>41.0</ele><time>2026-04-19T15:51:16.758Z</time></trkpt><trkpt lat="41.8293667" lon="12.3869964"><ele>41.0</ele><time>2026-04-19T15:51:17.759Z</time></trkpt><trkpt lat="41.8292374" lon="12.3870336"><ele>41.0</ele><time>2026-04-19T15:51:18.759Z</time></trkpt><trkpt lat="41.8291072" lon="12.3870675"><ele>41.0</ele><time>2026-04-19T15:51:19.758Z</time></trkpt><trkpt lat="41.8289774" lon="12.3871059"><ele>41.0</ele><time>2026-04-19T15:51:20.758Z</time></trkpt><trkpt lat="41.8288494" lon="12.387147"><ele>41.0</ele><time>2026-04-19T15:51:21.758Z</time></trkpt><trkpt lat="41.828722" lon="12.3871824"><ele>41.0</ele><time>2026-04-19T15:51:22.758Z</time></trkpt><trkpt lat="41.8285924" lon="12.3872203"><ele>39.5</ele><time>2026-04-19T15:51:23.757Z</time></trkpt><trkpt lat="41.8284629" lon="12.387257"><ele>38.0</ele><time>2026-04-19T15:51:24.758Z</time></trkpt><trkpt lat="41.8283307" lon="12.3872899"><ele>36.5</ele><time>2026-04-19T15:51:25.758Z</time></trkpt><trkpt lat="41.828203" lon="12.3873261"><ele>35.0</ele><time>2026-04-19T15:51:26.757Z</time></trkpt><trkpt lat="41.8280712" lon="12.3873576"><ele>35.0</ele><time>2026-04-19T15:51:27.758Z</time></trkpt><trkpt lat="41.8279374" lon="12.387391"><ele>35.0</ele><time>2026-04-19T15:51:28.758Z</time></trkpt><trkpt lat="41.827805" lon="12.3874155"><ele>35.0</ele><time>2026-04-19T15:51:29.758Z</time></trkpt><trkpt lat="41.8276735" lon="12.3874419"><ele>35.0</ele><time>2026-04-19T15:51:30.759Z</time></trkpt><trkpt lat="41.8275402" lon="12.3874652"><ele>33.5</ele><time>2026-04-19T15:51:31.759Z</time></trkpt><trkpt lat="41.8274071" lon="12.3874855"><ele>32.0</ele><time>2026-04-19T15:51:32.757Z</time></trkpt><trkpt lat="41.8272733" lon="12.3875093"><ele>30.5</ele><time>2026-04-19T15:51:33.759Z</time></trkpt><trkpt lat="41.8271449" lon="12.3875408"><ele>29.0</ele><time>2026-04-19T15:51:34.758Z</time></trkpt><trkpt lat="41.8270171" lon="12.3875791"><ele>29.0</ele><time>2026-04-19T15:51:35.758Z</time></trkpt><trkpt lat="41.8268918" lon="12.3876227"><ele>29.0</ele><time>2026-04-19T15:51:36.758Z</time></trkpt><trkpt lat="41.8267665" lon="12.3876625"><ele>29.0</ele><time>2026-04-19T15:51:37.758Z</time></trkpt><trkpt lat="41.8266252" lon="12.3877033"><ele>29.0</ele><time>2026-04-19T15:51:38.758Z</time></trkpt><trkpt lat="41.8264672" lon="12.3877543"><ele>30.0</ele><time>2026-04-19T15:51:39.758Z</time></trkpt><trkpt lat="41.8262981" lon="12.3878062"><ele>31.0</ele><time>2026-04-19T15:51:40.758Z</time></trkpt><trkpt lat="41.826129" lon="12.3878587"><ele>32.0</ele><time>2026-04-19T15:51:41.758Z</time></trkpt><trkpt lat="41.8259592" lon="12.3879124"><ele>30.0</ele><time>2026-04-19T15:51:42.759Z</time></trkpt><trkpt lat="41.825785" lon="12.3879686"><ele>28.0</ele><time>2026-04-19T15:51:43.758Z</time></trkpt><trkpt lat="41.8256012" lon="12.3880284"><ele>26.0</ele><time>2026-04-19T15:51:44.758Z</time></trkpt><trkpt lat="41.8254117" lon="12.3880901"><ele>26.0</ele><time>2026-04-19T15:51:45.758Z</time></trkpt><trkpt lat="41.8252191" lon="12.3881556"><ele>26.0</ele><time>2026-04-19T15:51:46.758Z</time></trkpt><trkpt lat="41.8250221" lon="12.3882215"><ele>26.0</ele><time>2026-04-19T15:51:47.758Z</time></trkpt><trkpt lat="41.824823" lon="12.3882846"><ele>24.333333333333332</ele><time>2026-04-19T15:51:48.759Z</time></trkpt><trkpt lat="41.8246233" lon="12.3883484"><ele>22.666666666666664</ele><time>2026-04-19T15:51:49.758Z</time></trkpt><trkpt lat="41.8244242" lon="12.3884133"><ele>21.0</ele><time>2026-04-19T15:51:50.757Z</time></trkpt><trkpt lat="41.8242262" lon="12.3884779"><ele>20.0</ele><time>2026-04-19T15:51:51.759Z</time></trkpt><trkpt lat="41.8240283" lon="12.388539"><ele>19.0</ele><time>2026-04-19T15:51:52.759Z</time></trkpt><trkpt lat="41.8238347" lon="12.3885972"><ele>18.0</ele><time>2026-04-19T15:51:53.758Z</time></trkpt><trkpt lat="41.8236445" lon="12.3886536"><ele>16.666666666666668</ele><time>2026-04-19T15:51:54.758Z</time></trkpt><trkpt lat="41.8234584" lon="12.3887085"><ele>15.333333333333334</ele><time>2026-04-19T15:51:55.757Z</time></trkpt><trkpt lat="41.8232727" lon="12.3887663"><ele>14.0</ele><time>2026-04-19T15:51:56.758Z</time></trkpt><trkpt lat="41.8230903" lon="12.3888253"><ele>13.333333333333334</ele><time>2026-04-19T15:51:57.759Z</time></trkpt><trkpt lat="41.8229101" lon="12.3888824"><ele>12.666666666666668</ele><time>2026-04-19T15:51:58.758Z</time></trkpt><trkpt lat="41.8227347" lon="12.3889374"><ele>12.0</ele><time>2026-04-19T15:51:59.758Z</time></trkpt><trkpt lat="41.822562" lon="12.3889913"><ele>12.0</ele><time>2026-04-19T15:52:00.759Z</time></trkpt><trkpt lat="41.8223912" lon="12.389043"><ele>12.0</ele><time>2026-04-19T15:52:01.759Z</time></trkpt><trkpt lat="41.8222199" lon="12.389095"><ele>12.0</ele><time>2026-04-19T15:52:02.758Z</time></trkpt><trkpt lat="41.8220483" lon="12.38915"><ele>12.0</ele><time>2026-04-19T15:52:03.759Z</time></trkpt><trkpt lat="41.8218775" lon="12.3892062"><ele>12.0</ele><time>2026-04-19T15:52:04.759Z</time></trkpt><trkpt lat="41.8217128" lon="12.3892573"><ele>12.0</ele><time>2026-04-19T15:52:05.758Z</time></trkpt><trkpt lat="41.8215483" lon="12.3893064"><ele>11.333333333333334</ele><time>2026-04-19T15:52:06.759Z</time></trkpt><trkpt lat="41.8213881" lon="12.389353"><ele>10.666666666666668</ele><time>2026-04-19T15:52:07.759Z</time></trkpt><trkpt lat="41.8212269" lon="12.3894091"><ele>10.0</ele><time>2026-04-19T15:52:08.759Z</time></trkpt><trkpt lat="41.8210725" lon="12.3894544"><ele>9.666666666666668</ele><time>2026-04-19T15:52:09.759Z</time></trkpt><trkpt lat="41.8209176" lon="12.389504"><ele>9.333333333333334</ele><time>2026-04-19T15:52:10.758Z</time></trkpt><trkpt lat="41.8207668" lon="12.389552"><ele>9.0</ele><time>2026-04-19T15:52:11.758Z</time></trkpt><trkpt lat="41.8206182" lon="12.3896002"><ele>9.0</ele><time>2026-04-19T15:52:12.758Z</time></trkpt><trkpt lat="41.8204707" lon="12.3896504"><ele>9.0</ele><time>2026-04-19T15:52:13.758Z</time></trkpt><trkpt lat="41.8203233" lon="12.3896985"><ele>9.0</ele><time>2026-04-19T15:52:14.758Z</time></trkpt><trkpt lat="41.8201767" lon="12.3897498"><ele>9.666666666666666</ele><time>2026-04-19T15:52:15.759Z</time></trkpt><trkpt lat="41.8200236" lon="12.3898034"><ele>10.333333333333332</ele><time>2026-04-19T15:52:16.759Z</time></trkpt><trkpt lat="41.8198664" lon="12.3898622"><ele>11.0</ele><time>2026-04-19T15:52:17.759Z</time></trkpt><trkpt lat="41.8197108" lon="12.3899181"><ele>11.0</ele><time>2026-04-19T15:52:18.759Z</time></trkpt><trkpt lat="41.8195404" lon="12.3899915"><ele>11.0</ele><time>2026-04-19T15:52:19.758Z</time></trkpt><trkpt lat="41.8193705" lon="12.3900644"><ele>11.0</ele><time>2026-04-19T15:52:20.758Z</time></trkpt><trkpt lat="41.8191939" lon="12.3901382"><ele>10.333333333333332</ele><time>2026-04-19T15:52:21.758Z</time></trkpt><trkpt lat="41.8190176" lon="12.3902156"><ele>9.666666666666666</ele><time>2026-04-19T15:52:22.759Z</time></trkpt><trkpt lat="41.8188477" lon="12.3902885"><ele>9.0</ele><time>2026-04-19T15:52:23.757Z</time></trkpt><trkpt lat="41.8186863" lon="12.3903636"><ele>9.0</ele><time>2026-04-19T15:52:24.759Z</time></trkpt><trkpt lat="41.8185296" lon="12.390437"><ele>9.0</ele><time>2026-04-19T15:52:25.759Z</time></trkpt><trkpt lat="41.8183782" lon="12.3905045"><ele>9.0</ele><time>2026-04-19T15:52:26.758Z</time></trkpt><trkpt lat="41.8182374" lon="12.3905848"><ele>10.333333333333332</ele><time>2026-04-19T15:52:27.757Z</time></trkpt><trkpt lat="41.8180908" lon="12.39066"><ele>11.666666666666666</ele><time>2026-04-19T15:52:28.758Z</time></trkpt><trkpt lat="41.817948" lon="12.3907343"><ele>13.0</ele><time>2026-04-19T15:52:29.759Z</time></trkpt><trkpt lat="41.8178076" lon="12.3908052"><ele>13.0</ele><time>2026-04-19T15:52:30.759Z</time></trkpt><trkpt lat="41.8176745" lon="12.3908777"><ele>13.0</ele><time>2026-04-19T15:52:31.759Z</time></trkpt><trkpt lat="41.8175445" lon="12.3909526"><ele>13.0</ele><time>2026-04-19T15:52:32.759Z</time></trkpt><trkpt lat="41.8174163" lon="12.3910177"><ele>13.0</ele><time>2026-04-19T15:52:33.758Z</time></trkpt><trkpt lat="41.8172928" lon="12.3910511"><ele>12.4</ele><time>2026-04-19T15:52:34.758Z</time></trkpt><trkpt lat="41.817179" lon="12.3910498"><ele>11.8</ele><time>2026-04-19T15:52:35.758Z</time></trkpt><trkpt lat="41.8170725" lon="12.3910087"><ele>11.2</ele><time>2026-04-19T15:52:36.758Z</time></trkpt><trkpt lat="41.8169831" lon="12.3909371"><ele>10.6</ele><time>2026-04-19T15:52:37.759Z</time></trkpt><trkpt lat="41.8169171" lon="12.3908378"><ele>10.0</ele><time>2026-04-19T15:52:38.759Z</time></trkpt><trkpt lat="41.8168757" lon="12.3907118"><ele>10.0</ele><time>2026-04-19T15:52:39.758Z</time></trkpt><trkpt lat="41.8168646" lon="12.39057"><ele>10.0</ele><time>2026-04-19T15:52:40.758Z</time></trkpt><trkpt lat="41.8168822" lon="12.3904167"><ele>10.0</ele><time>2026-04-19T15:52:41.759Z</time></trkpt><trkpt lat="41.8169231" lon="12.3902628"><ele>10.0</ele><time>2026-04-19T15:52:42.759Z</time></trkpt><trkpt lat="41.8169869" lon="12.3901102"><ele>9.75</ele><time>2026-04-19T15:52:43.758Z</time></trkpt><trkpt lat="41.8170557" lon="12.389951"><ele>9.5</ele><time>2026-04-19T15:52:44.758Z</time></trkpt><trkpt lat="41.8171331" lon="12.3897871"><ele>9.25</ele><time>2026-04-19T15:52:45.757Z</time></trkpt><trkpt lat="41.8172048" lon="12.3896283"><ele>9.0</ele><time>2026-04-19T15:52:46.759Z</time></trkpt><trkpt lat="41.8172693" lon="12.389482"><ele>9.0</ele><time>2026-04-19T15:52:47.758Z</time></trkpt><trkpt lat="41.8173387" lon="12.3893501"><ele>9.0</ele><time>2026-04-19T15:52:48.759Z</time></trkpt><trkpt lat="41.8174202" lon="12.3892366"><ele>9.0</ele><time>2026-04-19T15:52:49.758Z</time></trkpt><trkpt lat="41.8175175" lon="12.3891536"><ele>9.0</ele><time>2026-04-19T15:52:50.759Z</time></trkpt><trkpt lat="41.8176216" lon="12.3891116"><ele>9.6</ele><time>2026-04-19T15:52:51.758Z</time></trkpt><trkpt lat="41.8177296" lon="12.3891177"><ele>10.2</ele><time>2026-04-19T15:52:52.759Z</time></trkpt><trkpt lat="41.8178328" lon="12.38917"><ele>10.799999999999999</ele><time>2026-04-19T15:52:53.758Z</time></trkpt><trkpt lat="41.8179211" lon="12.389251"><ele>11.4</ele><time>2026-04-19T15:52:54.758Z</time></trkpt><trkpt lat="41.8179849" lon="12.3893592"><ele>12.0</ele><time>2026-04-19T15:52:55.758Z</time></trkpt><trkpt lat="41.8180318" lon="12.3894847"><ele>12.0</ele><time>2026-04-19T15:52:56.758Z</time></trkpt><trkpt lat="41.818061" lon="12.3896121"><ele>12.0</ele><time>2026-04-19T15:52:57.758Z</time></trkpt><trkpt lat="41.8180786" lon="12.3897366"><ele>12.0</ele><time>2026-04-19T15:52:58.758Z</time></trkpt><trkpt lat="41.8180987" lon="12.3898714"><ele>12.0</ele><time>2026-04-19T15:52:59.758Z</time></trkpt><trkpt lat="41.8181155" lon="12.3900179"><ele>12.0</ele><time>2026-04-19T15:53:00.759Z</time></trkpt><trkpt lat="41.8181379" lon="12.3901741"><ele>12.0</ele><time>2026-04-19T15:53:01.758Z</time></trkpt><trkpt lat="41.818173" lon="12.3903404"><ele>12.0</ele><time>2026-04-19T15:53:02.759Z</time></trkpt><trkpt lat="41.8182106" lon="12.390512"><ele>12.0</ele><time>2026-04-19T15:53:03.759Z</time></trkpt><trkpt lat="41.8182425" lon="12.3906938"><ele>12.0</ele><time>2026-04-19T15:53:04.759Z</time></trkpt><trkpt lat="41.8182626" lon="12.3908942"><ele>12.25</ele><time>2026-04-19T15:53:05.758Z</time></trkpt><trkpt lat="41.8182816" lon="12.391095"><ele>12.5</ele><time>2026-04-19T15:53:06.757Z</time></trkpt><trkpt lat="41.8183006" lon="12.3912934"><ele>12.75</ele><time>2026-04-19T15:53:07.759Z</time></trkpt><trkpt lat="41.8183206" lon="12.3914883"><ele>13.0</ele><time>2026-04-19T15:53:08.758Z</time></trkpt><trkpt lat="41.8183412" lon="12.3916829"><ele>13.0</ele><time>2026-04-19T15:53:09.759Z</time></trkpt><trkpt lat="41.8183608" lon="12.3919078"><ele>13.0</ele><time>2026-04-19T15:53:10.759Z</time></trkpt><trkpt lat="41.8183855" lon="12.3921594"><ele>13.0</ele><time>2026-04-19T15:53:11.759Z</time></trkpt><trkpt lat="41.8184104" lon="12.392432"><ele>12.333333333333332</ele><time>2026-04-19T15:53:12.757Z</time></trkpt><trkpt lat="41.8184338" lon="12.3927208"><ele>11.666666666666666</ele><time>2026-04-19T15:53:13.758Z</time></trkpt><trkpt lat="41.8184615" lon="12.3930042"><ele>11.0</ele><time>2026-04-19T15:53:14.759Z</time></trkpt><trkpt lat="41.8184915" lon="12.3932761"><ele>10.333333333333332</ele><time>2026-04-19T15:53:15.758Z</time></trkpt><trkpt lat="41.818522" lon="12.3935376"><ele>9.666666666666666</ele><time>2026-04-19T15:53:16.758Z</time></trkpt><trkpt lat="41.8185531" lon="12.3937951"><ele>9.0</ele><time>2026-04-19T15:53:17.759Z</time></trkpt><trkpt lat="41.8185819" lon="12.3940544"><ele>9.0</ele><time>2026-04-19T15:53:18.758Z</time></trkpt><trkpt lat="41.8186105" lon="12.3943162"><ele>9.0</ele><time>2026-04-19T15:53:19.757Z</time></trkpt><trkpt lat="41.8186347" lon="12.3945776"><ele>9.0</ele><time>2026-04-19T15:53:20.757Z</time></trkpt><trkpt lat="41.8186588" lon="12.3948298"><ele>9.0</ele><time>2026-04-19T15:53:21.757Z</time></trkpt><trkpt lat="41.8186788" lon="12.3950779"><ele>9.0</ele><time>2026-04-19T15:53:22.758Z</time></trkpt><trkpt lat="41.818705" lon="12.3953225"><ele>9.0</ele><time>2026-04-19T15:53:23.758Z</time></trkpt><trkpt lat="41.8187312" lon="12.3955703"><ele>9.0</ele><time>2026-04-19T15:53:24.758Z</time></trkpt><trkpt lat="41.8187561" lon="12.3958349"><ele>9.0</ele><time>2026-04-19T15:53:25.759Z</time></trkpt><trkpt lat="41.8187826" lon="12.3961072"><ele>9.0</ele><time>2026-04-19T15:53:26.758Z</time></trkpt><trkpt lat="41.8188075" lon="12.3963787"><ele>8.666666666666666</ele><time>2026-04-19T15:53:27.759Z</time></trkpt><trkpt lat="41.8188287" lon="12.3966567"><ele>8.333333333333332</ele><time>2026-04-19T15:53:28.759Z</time></trkpt><trkpt lat="41.8188546" lon="12.396945"><ele>8.0</ele><time>2026-04-19T15:53:29.758Z</time></trkpt><trkpt lat="41.8188851" lon="12.397233"><ele>7.666666666666666</ele><time>2026-04-19T15:53:30.759Z</time></trkpt><trkpt lat="41.8189102" lon="12.3975299"><ele>7.333333333333334</ele><time>2026-04-19T15:53:31.757Z</time></trkpt><trkpt lat="41.8189301" lon="12.3978299"><ele>7.0</ele><time>2026-04-19T15:53:32.759Z</time></trkpt><trkpt lat="41.8189523" lon="12.3981288"><ele>7.0</ele><time>2026-04-19T15:53:33.758Z</time></trkpt><trkpt lat="41.8189798" lon="12.3984302"><ele>7.0</ele><time>2026-04-19T15:53:34.759Z</time></trkpt><trkpt lat="41.8190031" lon="12.3987275"><ele>7.0</ele><time>2026-04-19T15:53:35.759Z</time></trkpt><trkpt lat="41.8190286" lon="12.3990182"><ele>7.0</ele><time>2026-04-19T15:53:36.758Z</time></trkpt><trkpt lat="41.8190567" lon="12.3993071"><ele>7.0</ele><time>2026-04-19T15:53:37.759Z</time></trkpt><trkpt lat="41.8190825" lon="12.3995994"><ele>7.0</ele><time>2026-04-19T15:53:38.759Z</time></trkpt><trkpt lat="41.8191065" lon="12.3998901"><ele>7.0</ele><time>2026-04-19T15:53:39.758Z</time></trkpt><trkpt lat="41.8191326" lon="12.4001736"><ele>7.0</ele><time>2026-04-19T15:53:40.758Z</time></trkpt><trkpt lat="41.8191557" lon="12.4004571"><ele>7.0</ele><time>2026-04-19T15:53:41.759Z</time></trkpt><trkpt lat="41.8191819" lon="12.4007368"><ele>7.0</ele><time>2026-04-19T15:53:42.759Z</time></trkpt><trkpt lat="41.8192076" lon="12.4010125"><ele>7.0</ele><time>2026-04-19T15:53:43.758Z</time></trkpt><trkpt lat="41.8192301" lon="12.4012851"><ele>7.0</ele><time>2026-04-19T15:53:44.758Z</time></trkpt><trkpt lat="41.8192541" lon="12.4015616"><ele>7.0</ele><time>2026-04-19T15:53:45.758Z</time></trkpt><trkpt lat="41.8192775" lon="12.4018388"><ele>7.0</ele><time>2026-04-19T15:53:46.758Z</time></trkpt><trkpt lat="41.8193041" lon="12.4021119"><ele>7.0</ele><time>2026-04-19T15:53:47.758Z</time></trkpt><trkpt lat="41.8193322" lon="12.4023806"><ele>7.666666666666667</ele><time>2026-04-19T15:53:48.758Z</time></trkpt><trkpt lat="41.8193588" lon="12.4026468"><ele>8.333333333333334</ele><time>2026-04-19T15:53:49.758Z</time></trkpt><trkpt lat="41.8193869" lon="12.4029159"><ele>9.0</ele><time>2026-04-19T15:53:50.758Z</time></trkpt><trkpt lat="41.8194121" lon="12.4031829"><ele>9.333333333333334</ele><time>2026-04-19T15:53:51.757Z</time></trkpt><trkpt lat="41.8194351" lon="12.403451"><ele>9.666666666666668</ele><time>2026-04-19T15:53:52.758Z</time></trkpt><trkpt lat="41.8194597" lon="12.4037141"><ele>10.0</ele><time>2026-04-19T15:53:53.757Z</time></trkpt><trkpt lat="41.8194852" lon="12.403982"><ele>10.0</ele><time>2026-04-19T15:53:54.758Z</time></trkpt><trkpt lat="41.8195132" lon="12.4042464"><ele>10.0</ele><time>2026-04-19T15:53:55.758Z</time></trkpt><trkpt lat="41.8195391" lon="12.404512"><ele>10.0</ele><time>2026-04-19T15:53:56.758Z</time></trkpt><trkpt lat="41.8195653" lon="12.4047784"><ele>9.666666666666668</ele><time>2026-04-19T15:53:57.758Z</time></trkpt><trkpt lat="41.8195887" lon="12.405038"><ele>9.333333333333334</ele><time>2026-04-19T15:53:58.759Z</time></trkpt><trkpt lat="41.8196099" lon="12.4052943"><ele>9.0</ele><time>2026-04-19T15:53:59.759Z</time></trkpt><trkpt lat="41.8196323" lon="12.4055484"><ele>8.666666666666666</ele><time>2026-04-19T15:54:00.758Z</time></trkpt><trkpt lat="41.8196569" lon="12.4058005"><ele>8.333333333333332</ele><time>2026-04-19T15:54:01.757Z</time></trkpt><trkpt lat="41.8196807" lon="12.4060515"><ele>8.0</ele><time>2026-04-19T15:54:02.758Z</time></trkpt><trkpt lat="41.8197048" lon="12.4063011"><ele>7.666666666666666</ele><time>2026-04-19T15:54:03.758Z</time></trkpt><trkpt lat="41.8197286" lon="12.4065492"><ele>7.333333333333334</ele><time>2026-04-19T15:54:04.757Z</time></trkpt><trkpt lat="41.8197508" lon="12.4067886"><ele>7.0</ele><time>2026-04-19T15:54:05.759Z</time></trkpt><trkpt lat="41.8197679" lon="12.4070204"><ele>7.666666666666667</ele><time>2026-04-19T15:54:06.758Z</time></trkpt><trkpt lat="41.8197844" lon="12.4072426"><ele>8.333333333333334</ele><time>2026-04-19T15:54:07.759Z</time></trkpt><trkpt lat="41.819804" lon="12.4074621"><ele>9.0</ele><time>2026-04-19T15:54:08.757Z</time></trkpt><trkpt lat="41.8198215" lon="12.4076849"><ele>9.0</ele><time>2026-04-19T15:54:09.759Z</time></trkpt><trkpt lat="41.8198429" lon="12.4079157"><ele>9.0</ele><time>2026-04-19T15:54:10.759Z</time></trkpt><trkpt lat="41.8198648" lon="12.4081519"><ele>9.0</ele><time>2026-04-19T15:54:11.759Z</time></trkpt><trkpt lat="41.8198871" lon="12.408392"><ele>9.0</ele><time>2026-04-19T15:54:12.759Z</time></trkpt><trkpt lat="41.8199142" lon="12.4086383"><ele>9.0</ele><time>2026-04-19T15:54:13.759Z</time></trkpt><trkpt lat="41.819939" lon="12.4088826"><ele>9.0</ele><time>2026-04-19T15:54:14.758Z</time></trkpt><trkpt lat="41.8199632" lon="12.4091416"><ele>9.666666666666666</ele><time>2026-04-19T15:54:15.759Z</time></trkpt><trkpt lat="41.8199854" lon="12.4094005"><ele>10.333333333333332</ele><time>2026-04-19T15:54:16.759Z</time></trkpt><trkpt lat="41.8200089" lon="12.4096522"><ele>11.0</ele><time>2026-04-19T15:54:17.757Z</time></trkpt><trkpt lat="41.8200326" lon="12.4099053"><ele>11.333333333333332</ele><time>2026-04-19T15:54:18.758Z</time></trkpt><trkpt lat="41.8200523" lon="12.4101557"><ele>11.666666666666666</ele><time>2026-04-19T15:54:19.759Z</time></trkpt><trkpt lat="41.8200738" lon="12.4104008"><ele>12.0</ele><time>2026-04-19T15:54:20.759Z</time></trkpt><trkpt lat="41.8200982" lon="12.4106428"><ele>11.666666666666666</ele><time>2026-04-19T15:54:21.758Z</time></trkpt><trkpt lat="41.8201203" lon="12.4108877"><ele>11.333333333333332</ele><time>2026-04-19T15:54:22.758Z</time></trkpt><trkpt lat="41.820144" lon="12.411145"><ele>11.0</ele><time>2026-04-19T15:54:23.759Z</time></trkpt><trkpt lat="41.8201679" lon="12.4113995"><ele>11.0</ele><time>2026-04-19T15:54:24.759Z</time></trkpt><trkpt lat="41.820193" lon="12.4116566"><ele>11.0</ele><time>2026-04-19T15:54:25.758Z</time></trkpt><trkpt lat="41.8202143" lon="12.4119226"><ele>11.0</ele><time>2026-04-19T15:54:26.757Z</time></trkpt><trkpt lat="41.8202397" lon="12.4121851"><ele>11.0</ele><time>2026-04-19T15:54:27.759Z</time></trkpt><trkpt lat="41.8202641" lon="12.4124507"><ele>11.0</ele><time>2026-04-19T15:54:28.758Z</time></trkpt><trkpt lat="41.8202889" lon="12.412717"><ele>11.0</ele><time>2026-04-19T15:54:29.758Z</time></trkpt><trkpt lat="41.8203197" lon="12.4129799"><ele>10.333333333333332</ele><time>2026-04-19T15:54:30.758Z</time></trkpt><trkpt lat="41.8203538" lon="12.4132426"><ele>9.666666666666666</ele><time>2026-04-19T15:54:31.759Z</time></trkpt><trkpt lat="41.8203946" lon="12.4135012"><ele>9.0</ele><time>2026-04-19T15:54:32.758Z</time></trkpt><trkpt lat="41.8204493" lon="12.4137608"><ele>9.0</ele><time>2026-04-19T15:54:33.758Z</time></trkpt><trkpt lat="41.8205094" lon="12.4140201"><ele>9.0</ele><time>2026-04-19T15:54:34.758Z</time></trkpt><trkpt lat="41.8205718" lon="12.4142733"><ele>9.0</ele><time>2026-04-19T15:54:35.759Z</time></trkpt><trkpt lat="41.8206386" lon="12.4145285"><ele>9.0</ele><time>2026-04-19T15:54:36.758Z</time></trkpt><trkpt lat="41.8207096" lon="12.4147802"><ele>9.0</ele><time>2026-04-19T15:54:37.759Z</time></trkpt><trkpt lat="41.8207876" lon="12.415029"><ele>9.0</ele><time>2026-04-19T15:54:38.758Z</time></trkpt><trkpt lat="41.8208708" lon="12.4152833"><ele>9.333333333333334</ele><time>2026-04-19T15:54:39.759Z</time></trkpt><trkpt lat="41.8209625" lon="12.415536"><ele>9.666666666666668</ele><time>2026-04-19T15:54:40.759Z</time></trkpt><trkpt lat="41.8210595" lon="12.4157838"><ele>10.0</ele><time>2026-04-19T15:54:41.759Z</time></trkpt><trkpt lat="41.8211649" lon="12.4160321"><ele>10.0</ele><time>2026-04-19T15:54:42.758Z</time></trkpt><trkpt lat="41.8212817" lon="12.4162673"><ele>10.0</ele><time>2026-04-19T15:54:43.757Z</time></trkpt><trkpt lat="41.8214046" lon="12.4165019"><ele>10.0</ele><time>2026-04-19T15:54:44.759Z</time></trkpt><trkpt lat="41.8215353" lon="12.4167346"><ele>9.666666666666668</ele><time>2026-04-19T15:54:45.759Z</time></trkpt><trkpt lat="41.8216749" lon="12.4169557"><ele>9.333333333333334</ele><time>2026-04-19T15:54:46.758Z</time></trkpt><trkpt lat="41.8218188" lon="12.417178"><ele>9.0</ele><time>2026-04-19T15:54:47.759Z</time></trkpt><trkpt lat="41.8219704" lon="12.417385"><ele>9.666666666666666</ele><time>2026-04-19T15:54:48.759Z</time></trkpt><trkpt lat="41.8221241" lon="12.4175996"><ele>10.333333333333332</ele><time>2026-04-19T15:54:49.759Z</time></trkpt><trkpt lat="41.8222837" lon="12.4177983"><ele>11.0</ele><time>2026-04-19T15:54:50.759Z</time></trkpt><trkpt lat="41.8224463" lon="12.4179972"><ele>11.0</ele><time>2026-04-19T15:54:51.758Z</time></trkpt><trkpt lat="41.822619" lon="12.4181772"><ele>11.0</ele><time>2026-04-19T15:54:52.758Z</time></trkpt><trkpt lat="41.8227944" lon="12.4183519"><ele>11.0</ele><time>2026-04-19T15:54:53.758Z</time></trkpt><trkpt lat="41.822976" lon="12.4185196"><ele>11.333333333333332</ele><time>2026-04-19T15:54:54.758Z</time></trkpt><trkpt lat="41.8231615" lon="12.4186803"><ele>11.666666666666666</ele><time>2026-04-19T15:54:55.758Z</time></trkpt><trkpt lat="41.8233499" lon="12.4188315"><ele>12.0</ele><time>2026-04-19T15:54:56.758Z</time></trkpt><trkpt lat="41.8235427" lon="12.4189734"><ele>12.0</ele><time>2026-04-19T15:54:57.758Z</time></trkpt><trkpt lat="41.8237389" lon="12.4191097"><ele>12.0</ele><time>2026-04-19T15:54:58.759Z</time></trkpt><trkpt lat="41.8239361" lon="12.419238"><ele>12.0</ele><time>2026-04-19T15:54:59.758Z</time></trkpt><trkpt lat="41.8241346" lon="12.419356"><ele>12.333333333333332</ele><time>2026-04-19T15:55:00.759Z</time></trkpt><trkpt lat="41.8243421" lon="12.4194616"><ele>12.666666666666666</ele><time>2026-04-19T15:55:01.759Z</time></trkpt><trkpt lat="41.8245492" lon="12.4195603"><ele>13.0</ele><time>2026-04-19T15:55:02.758Z</time></trkpt><trkpt lat="41.8247578" lon="12.4196441"><ele>15.0</ele><time>2026-04-19T15:55:03.759Z</time></trkpt><trkpt lat="41.8261562" lon="12.4199734"><ele>15.0</ele><time>2026-04-19T15:55:10.758Z</time></trkpt><trkpt lat="41.8263549" lon="12.4199841"><ele>15.0</ele><time>2026-04-19T15:55:11.758Z</time></trkpt><trkpt lat="41.8265568" lon="12.4199873"><ele>15.0</ele><time>2026-04-19T15:55:12.759Z</time></trkpt><trkpt lat="41.8267609" lon="12.4199818"><ele>14.666666666666668</ele><time>2026-04-19T15:55:13.757Z</time></trkpt><trkpt lat="41.8269677" lon="12.4199747"><ele>14.333333333333334</ele><time>2026-04-19T15:55:14.758Z</time></trkpt><trkpt lat="41.8271762" lon="12.4199712"><ele>14.0</ele><time>2026-04-19T15:55:15.758Z</time></trkpt><trkpt lat="41.8273842" lon="12.4199681"><ele>14.0</ele><time>2026-04-19T15:55:16.757Z</time></trkpt><trkpt lat="41.8275938" lon="12.4199695"><ele>14.0</ele><time>2026-04-19T15:55:17.758Z</time></trkpt><trkpt lat="41.8278058" lon="12.4199705"><ele>14.0</ele><time>2026-04-19T15:55:18.758Z</time></trkpt><trkpt lat="41.8280199" lon="12.4199682"><ele>13.666666666666668</ele><time>2026-04-19T15:55:19.759Z</time></trkpt><trkpt lat="41.8282344" lon="12.4199624"><ele>13.333333333333332</ele><time>2026-04-19T15:55:20.758Z</time></trkpt><trkpt lat="41.8284515" lon="12.4199584"><ele>13.0</ele><time>2026-04-19T15:55:21.759Z</time></trkpt><trkpt lat="41.8286659" lon="12.4199547"><ele>12.0</ele><time>2026-04-19T15:55:22.759Z</time></trkpt><trkpt lat="41.8288771" lon="12.4199516"><ele>11.0</ele><time>2026-04-19T15:55:23.759Z</time></trkpt><trkpt lat="41.8290819" lon="12.4199642"><ele>10.0</ele><time>2026-04-19T15:55:24.759Z</time></trkpt><trkpt lat="41.8292844" lon="12.4199866"><ele>11.333333333333334</ele><time>2026-04-19T15:55:25.758Z</time></trkpt><trkpt lat="41.8294807" lon="12.420027"><ele>12.666666666666668</ele><time>2026-04-19T15:55:26.757Z</time></trkpt><trkpt lat="41.8296698" lon="12.4200787"><ele>14.0</ele><time>2026-04-19T15:55:27.758Z</time></trkpt><trkpt lat="41.8298527" lon="12.4201431"><ele>14.0</ele><time>2026-04-19T15:55:28.758Z</time></trkpt><trkpt lat="41.8300282" lon="12.4202152"><ele>14.0</ele><time>2026-04-19T15:55:29.758Z</time></trkpt><trkpt lat="41.8302009" lon="12.4202923"><ele>14.0</ele><time>2026-04-19T15:55:30.758Z</time></trkpt><trkpt lat="41.8303655" lon="12.4203839"><ele>13.666666666666668</ele><time>2026-04-19T15:55:31.757Z</time></trkpt><trkpt lat="41.8305229" lon="12.420481"><ele>13.333333333333332</ele><time>2026-04-19T15:55:32.758Z</time></trkpt><trkpt lat="41.8306718" lon="12.420587"><ele>13.0</ele><time>2026-04-19T15:55:33.758Z</time></trkpt><trkpt lat="41.8308148" lon="12.4207052"><ele>13.0</ele><time>2026-04-19T15:55:34.759Z</time></trkpt><trkpt lat="41.8309519" lon="12.4208295"><ele>13.0</ele><time>2026-04-19T15:55:35.759Z</time></trkpt><trkpt lat="41.831088" lon="12.4209525"><ele>13.0</ele><time>2026-04-19T15:55:36.759Z</time></trkpt><trkpt lat="41.8312189" lon="12.4210811"><ele>13.0</ele><time>2026-04-19T15:55:37.758Z</time></trkpt><trkpt lat="41.8313478" lon="12.4212152"><ele>13.0</ele><time>2026-04-19T15:55:38.758Z</time></trkpt><trkpt lat="41.8314734" lon="12.4213584"><ele>13.0</ele><time>2026-04-19T15:55:39.757Z</time></trkpt><trkpt lat="41.831599" lon="12.4215029"><ele>13.0</ele><time>2026-04-19T15:55:40.758Z</time></trkpt><trkpt lat="41.8317281" lon="12.4216447"><ele>13.0</ele><time>2026-04-19T15:55:41.758Z</time></trkpt><trkpt lat="41.8318602" lon="12.4217896"><ele>13.0</ele><time>2026-04-19T15:55:42.759Z</time></trkpt><trkpt lat="41.8319914" lon="12.4219357"><ele>13.0</ele><time>2026-04-19T15:55:43.758Z</time></trkpt><trkpt lat="41.832124" lon="12.4220796"><ele>13.0</ele><time>2026-04-19T15:55:44.758Z</time></trkpt><trkpt lat="41.8322587" lon="12.4222283"><ele>13.0</ele><time>2026-04-19T15:55:45.758Z</time></trkpt><trkpt lat="41.8323895" lon="12.4223786"><ele>13.0</ele><time>2026-04-19T15:55:46.759Z</time></trkpt><trkpt lat="41.832518" lon="12.4225331"><ele>13.0</ele><time>2026-04-19T15:55:47.758Z</time></trkpt><trkpt lat="41.8326475" lon="12.4226865"><ele>13.0</ele><time>2026-04-19T15:55:48.758Z</time></trkpt><trkpt lat="41.8327724" lon="12.4228415"><ele>15.666666666666666</ele><time>2026-04-19T15:55:49.758Z</time></trkpt><trkpt lat="41.8328901" lon="12.4230034"><ele>18.333333333333332</ele><time>2026-04-19T15:55:50.758Z</time></trkpt><trkpt lat="41.8329971" lon="12.4231663"><ele>21.0</ele><time>2026-04-19T15:55:51.757Z</time></trkpt><trkpt lat="41.8330992" lon="12.4233287"><ele>21.0</ele><time>2026-04-19T15:55:52.758Z</time></trkpt><trkpt lat="41.83319" lon="12.4234891"><ele>21.0</ele><time>2026-04-19T15:55:53.759Z</time></trkpt><trkpt lat="41.8332731" lon="12.4236482"><ele>21.0</ele><time>2026-04-19T15:55:54.758Z</time></trkpt><trkpt lat="41.8333565" lon="12.4238075"><ele>21.0</ele><time>2026-04-19T15:55:55.757Z</time></trkpt><trkpt lat="41.8334307" lon="12.4239745"><ele>20.25</ele><time>2026-04-19T15:55:56.758Z</time></trkpt><trkpt lat="41.8335036" lon="12.4241437"><ele>19.5</ele><time>2026-04-19T15:55:57.758Z</time></trkpt><trkpt lat="41.8335725" lon="12.4243182"><ele>18.75</ele><time>2026-04-19T15:55:58.758Z</time></trkpt><trkpt lat="41.8336327" lon="12.4244973"><ele>18.0</ele><time>2026-04-19T15:55:59.758Z</time></trkpt><trkpt lat="41.8336861" lon="12.4246818"><ele>18.0</ele><time>2026-04-19T15:56:00.759Z</time></trkpt><trkpt lat="41.8337379" lon="12.4248669"><ele>18.0</ele><time>2026-04-19T15:56:01.758Z</time></trkpt><trkpt lat="41.8337884" lon="12.4250586"><ele>18.0</ele><time>2026-04-19T15:56:02.758Z</time></trkpt><trkpt lat="41.8338335" lon="12.4252494"><ele>18.0</ele><time>2026-04-19T15:56:03.759Z</time></trkpt><trkpt lat="41.8338743" lon="12.425445"><ele>17.333333333333332</ele><time>2026-04-19T15:56:04.759Z</time></trkpt><trkpt lat="41.8339119" lon="12.4256412"><ele>16.666666666666664</ele><time>2026-04-19T15:56:05.758Z</time></trkpt><trkpt lat="41.8339428" lon="12.4258426"><ele>16.0</ele><time>2026-04-19T15:56:06.758Z</time></trkpt><trkpt lat="41.8339695" lon="12.4260425"><ele>16.0</ele><time>2026-04-19T15:56:07.759Z</time></trkpt><trkpt lat="41.8339903" lon="12.4262448"><ele>16.0</ele><time>2026-04-19T15:56:08.758Z</time></trkpt><trkpt lat="41.8340041" lon="12.4264443"><ele>16.0</ele><time>2026-04-19T15:56:09.757Z</time></trkpt><trkpt lat="41.8340096" lon="12.4266433"><ele>16.0</ele><time>2026-04-19T15:56:10.759Z</time></trkpt><trkpt lat="41.8340099" lon="12.4268426"><ele>16.0</ele><time>2026-04-19T15:56:11.759Z</time></trkpt><trkpt lat="41.8340045" lon="12.427044"><ele>16.0</ele><time>2026-04-19T15:56:12.759Z</time></trkpt><trkpt lat="41.8339977" lon="12.4272444"><ele>16.0</ele><time>2026-04-19T15:56:13.757Z</time></trkpt><trkpt lat="41.8339824" lon="12.4274478"><ele>16.333333333333332</ele><time>2026-04-19T15:56:14.759Z</time></trkpt><trkpt lat="41.8339641" lon="12.4276491"><ele>16.666666666666668</ele><time>2026-04-19T15:56:15.758Z</time></trkpt><trkpt lat="41.8339373" lon="12.4278488"><ele>17.0</ele><time>2026-04-19T15:56:16.758Z</time></trkpt><trkpt lat="41.8339063" lon="12.4280474"><ele>17.666666666666668</ele><time>2026-04-19T15:56:17.759Z</time></trkpt><trkpt lat="41.8338729" lon="12.4282469"><ele>18.333333333333332</ele><time>2026-04-19T15:56:18.757Z</time></trkpt><trkpt lat="41.8338303" lon="12.4284465"><ele>19.0</ele><time>2026-04-19T15:56:19.758Z</time></trkpt><trkpt lat="41.8337835" lon="12.4286476"><ele>18.333333333333332</ele><time>2026-04-19T15:56:20.758Z</time></trkpt><trkpt lat="41.8337273" lon="12.4288404"><ele>17.666666666666668</ele><time>2026-04-19T15:56:21.759Z</time></trkpt><trkpt lat="41.8336645" lon="12.4290327"><ele>17.0</ele><time>2026-04-19T15:56:22.759Z</time></trkpt><trkpt lat="41.8335986" lon="12.4292229"><ele>17.0</ele><time>2026-04-19T15:56:23.759Z</time></trkpt><trkpt lat="41.8335262" lon="12.4294074"><ele>17.0</ele><time>2026-04-19T15:56:24.759Z</time></trkpt><trkpt lat="41.8334504" lon="12.4295946"><ele>17.0</ele><time>2026-04-19T15:56:25.759Z</time></trkpt><trkpt lat="41.8333726" lon="12.4297832"><ele>16.333333333333336</ele><time>2026-04-19T15:56:26.759Z</time></trkpt><trkpt lat="41.8332927" lon="12.4299744"><ele>15.666666666666668</ele><time>2026-04-19T15:56:27.758Z</time></trkpt><trkpt lat="41.8332123" lon="12.4301699"><ele>15.0</ele><time>2026-04-19T15:56:28.758Z</time></trkpt><trkpt lat="41.8331313" lon="12.4303684"><ele>14.333333333333332</ele><time>2026-04-19T15:56:29.759Z</time></trkpt><trkpt lat="41.8330506" lon="12.4305658"><ele>13.666666666666666</ele><time>2026-04-19T15:56:30.759Z</time></trkpt><trkpt lat="41.8329682" lon="12.4307676"><ele>13.0</ele><time>2026-04-19T15:56:31.757Z</time></trkpt><trkpt lat="41.8328869" lon="12.4309793"><ele>13.0</ele><time>2026-04-19T15:56:32.758Z</time></trkpt><trkpt lat="41.8327993" lon="12.4311807"><ele>13.0</ele><time>2026-04-19T15:56:33.757Z</time></trkpt><trkpt lat="41.832712" lon="12.4313827"><ele>13.0</ele><time>2026-04-19T15:56:34.757Z</time></trkpt><trkpt lat="41.8326253" lon="12.4315939"><ele>13.0</ele><time>2026-04-19T15:56:35.757Z</time></trkpt><trkpt lat="41.8325396" lon="12.4318048"><ele>13.0</ele><time>2026-04-19T15:56:36.756Z</time></trkpt><trkpt lat="41.8324532" lon="12.4320155"><ele>13.0</ele><time>2026-04-19T15:56:37.757Z</time></trkpt><trkpt lat="41.8323653" lon="12.4322247"><ele>13.333333333333332</ele><time>2026-04-19T15:56:38.757Z</time></trkpt><trkpt lat="41.8322813" lon="12.4324296"><ele>13.666666666666668</ele><time>2026-04-19T15:56:39.758Z</time></trkpt><trkpt lat="41.8321944" lon="12.4326361"><ele>14.0</ele><time>2026-04-19T15:56:40.757Z</time></trkpt><trkpt lat="41.8321097" lon="12.4328413"><ele>13.333333333333334</ele><time>2026-04-19T15:56:41.757Z</time></trkpt><trkpt lat="41.8320324" lon="12.4330412"><ele>12.666666666666668</ele><time>2026-04-19T15:56:42.756Z</time></trkpt><trkpt lat="41.8319596" lon="12.4332333"><ele>12.0</ele><time>2026-04-19T15:56:43.757Z</time></trkpt><trkpt lat="41.8318906" lon="12.4334261"><ele>12.0</ele><time>2026-04-19T15:56:44.758Z</time></trkpt><trkpt lat="41.831823" lon="12.4336205"><ele>12.0</ele><time>2026-04-19T15:56:45.757Z</time></trkpt><trkpt lat="41.8317621" lon="12.4338152"><ele>12.0</ele><time>2026-04-19T15:56:46.756Z</time></trkpt><trkpt lat="41.8317024" lon="12.4340143"><ele>11.666666666666666</ele><time>2026-04-19T15:56:47.757Z</time></trkpt><trkpt lat="41.8316459" lon="12.4342164"><ele>11.333333333333332</ele><time>2026-04-19T15:56:48.757Z</time></trkpt><trkpt lat="41.8315959" lon="12.4344198"><ele>11.0</ele><time>2026-04-19T15:56:49.758Z</time></trkpt><trkpt lat="41.8315463" lon="12.4346308"><ele>10.666666666666666</ele><time>2026-04-19T15:56:50.757Z</time></trkpt><trkpt lat="41.8314978" lon="12.4348429"><ele>10.333333333333334</ele><time>2026-04-19T15:56:51.758Z</time></trkpt><trkpt lat="41.8314548" lon="12.4350582"><ele>10.0</ele><time>2026-04-19T15:56:52.757Z</time></trkpt><trkpt lat="41.8314143" lon="12.4352748"><ele>10.666666666666668</ele><time>2026-04-19T15:56:53.758Z</time></trkpt><trkpt lat="41.8313788" lon="12.435495"><ele>11.333333333333334</ele><time>2026-04-19T15:56:54.758Z</time></trkpt><trkpt lat="41.8313446" lon="12.4357147"><ele>12.0</ele><time>2026-04-19T15:56:55.757Z</time></trkpt><trkpt lat="41.8313151" lon="12.4359279"><ele>12.0</ele><time>2026-04-19T15:56:56.757Z</time></trkpt><trkpt lat="41.8312914" lon="12.4361314"><ele>12.0</ele><time>2026-04-19T15:56:57.757Z</time></trkpt><trkpt lat="41.8312692" lon="12.4363318"><ele>12.0</ele><time>2026-04-19T15:56:58.758Z</time></trkpt><trkpt lat="41.8312495" lon="12.4365303"><ele>11.75</ele><time>2026-04-19T15:56:59.756Z</time></trkpt><trkpt lat="41.8312347" lon="12.4367128"><ele>11.5</ele><time>2026-04-19T15:57:00.758Z</time></trkpt><trkpt lat="41.8312256" lon="12.4368932"><ele>11.25</ele><time>2026-04-19T15:57:01.758Z</time></trkpt><trkpt lat="41.8312205" lon="12.437077"><ele>11.0</ele><time>2026-04-19T15:57:02.758Z</time></trkpt><trkpt lat="41.831216" lon="12.4372682"><ele>11.0</ele><time>2026-04-19T15:57:03.757Z</time></trkpt><trkpt lat="41.8312135" lon="12.4374611"><ele>11.0</ele><time>2026-04-19T15:57:04.756Z</time></trkpt><trkpt lat="41.8312154" lon="12.4376517"><ele>11.0</ele><time>2026-04-19T15:57:05.756Z</time></trkpt><trkpt lat="41.8312191" lon="12.4378492"><ele>11.0</ele><time>2026-04-19T15:57:06.758Z</time></trkpt><trkpt lat="41.8312269" lon="12.4380537"><ele>11.666666666666666</ele><time>2026-04-19T15:57:07.757Z</time></trkpt><trkpt lat="41.8312399" lon="12.4382562"><ele>12.333333333333332</ele><time>2026-04-19T15:57:08.758Z</time></trkpt><trkpt lat="41.8312554" lon="12.4384625"><ele>13.0</ele><time>2026-04-19T15:57:09.758Z</time></trkpt><trkpt lat="41.8312686" lon="12.4386733"><ele>12.333333333333332</ele><time>2026-04-19T15:57:10.756Z</time></trkpt><trkpt lat="41.8312871" lon="12.4388752"><ele>11.666666666666666</ele><time>2026-04-19T15:57:11.756Z</time></trkpt><trkpt lat="41.8313092" lon="12.4390783"><ele>11.0</ele><time>2026-04-19T15:57:12.758Z</time></trkpt><trkpt lat="41.8313359" lon="12.4392764"><ele>11.0</ele><time>2026-04-19T15:57:13.758Z</time></trkpt><trkpt lat="41.8313657" lon="12.4394747"><ele>11.0</ele><time>2026-04-19T15:57:14.757Z</time></trkpt><trkpt lat="41.8314013" lon="12.4396634"><ele>11.0</ele><time>2026-04-19T15:57:15.758Z</time></trkpt><trkpt lat="41.8314322" lon="12.4398521"><ele>11.0</ele><time>2026-04-19T15:57:16.758Z</time></trkpt><trkpt lat="41.8314659" lon="12.4400345"><ele>11.0</ele><time>2026-04-19T15:57:17.757Z</time></trkpt><trkpt lat="41.8315006" lon="12.4402118"><ele>11.0</ele><time>2026-04-19T15:57:18.758Z</time></trkpt><trkpt lat="41.8315364" lon="12.4403904"><ele>11.0</ele><time>2026-04-19T15:57:19.756Z</time></trkpt><trkpt lat="41.8315792" lon="12.4405693"><ele>11.0</ele><time>2026-04-19T15:57:20.756Z</time></trkpt><trkpt lat="41.8316208" lon="12.4407467"><ele>11.25</ele><time>2026-04-19T15:57:21.757Z</time></trkpt><trkpt lat="41.8316639" lon="12.4409195"><ele>11.5</ele><time>2026-04-19T15:57:22.757Z</time></trkpt><trkpt lat="41.8317089" lon="12.441093"><ele>11.75</ele><time>2026-04-19T15:57:23.757Z</time></trkpt><trkpt lat="41.8317611" lon="12.4412682"><ele>12.0</ele><time>2026-04-19T15:57:24.757Z</time></trkpt><trkpt lat="41.8318064" lon="12.4414495"><ele>12.25</ele><time>2026-04-19T15:57:25.757Z</time></trkpt><trkpt lat="41.8318499" lon="12.4416293"><ele>12.5</ele><time>2026-04-19T15:57:26.757Z</time></trkpt><trkpt lat="41.831892" lon="12.4418109"><ele>12.75</ele><time>2026-04-19T15:57:27.757Z</time></trkpt><trkpt lat="41.8319344" lon="12.441992"><ele>13.0</ele><time>2026-04-19T15:57:28.758Z</time></trkpt><trkpt lat="41.8319787" lon="12.4421868"><ele>11.333333333333332</ele><time>2026-04-19T15:57:29.757Z</time></trkpt><trkpt lat="41.8320275" lon="12.4423917"><ele>9.666666666666666</ele><time>2026-04-19T15:57:30.757Z</time></trkpt><trkpt lat="41.8320766" lon="12.4426078"><ele>8.0</ele><time>2026-04-19T15:57:31.756Z</time></trkpt><trkpt lat="41.8321285" lon="12.4428328"><ele>9.333333333333332</ele><time>2026-04-19T15:57:32.758Z</time></trkpt><trkpt lat="41.8321817" lon="12.443065"><ele>10.666666666666666</ele><time>2026-04-19T15:57:33.757Z</time></trkpt><trkpt lat="41.8322355" lon="12.4433062"><ele>12.0</ele><time>2026-04-19T15:57:34.757Z</time></trkpt><trkpt lat="41.8322906" lon="12.4435484"><ele>12.0</ele><time>2026-04-19T15:57:35.757Z</time></trkpt><trkpt lat="41.832346" lon="12.4437851"><ele>12.0</ele><time>2026-04-19T15:57:36.756Z</time></trkpt><trkpt lat="41.8323985" lon="12.4440163"><ele>12.0</ele><time>2026-04-19T15:57:37.758Z</time></trkpt><trkpt lat="41.8324504" lon="12.4442405"><ele>12.333333333333332</ele><time>2026-04-19T15:57:38.758Z</time></trkpt><trkpt lat="41.8324969" lon="12.4444489"><ele>12.666666666666666</ele><time>2026-04-19T15:57:39.758Z</time></trkpt><trkpt lat="41.8325451" lon="12.4446492"><ele>13.0</ele><time>2026-04-19T15:57:40.757Z</time></trkpt><trkpt lat="41.8325845" lon="12.4448324"><ele>13.0</ele><time>2026-04-19T15:57:41.757Z</time></trkpt><trkpt lat="41.8326251" lon="12.4450106"><ele>13.0</ele><time>2026-04-19T15:57:42.757Z</time></trkpt><trkpt lat="41.8326688" lon="12.445181"><ele>13.0</ele><time>2026-04-19T15:57:43.757Z</time></trkpt><trkpt lat="41.8327301" lon="12.4453573"><ele>13.0</ele><time>2026-04-19T15:57:44.757Z</time></trkpt><trkpt lat="41.8328096" lon="12.4455564"><ele>12.0</ele><time>2026-04-19T15:57:45.758Z</time></trkpt><trkpt lat="41.8329003" lon="12.4457686"><ele>11.0</ele><time>2026-04-19T15:57:46.757Z</time></trkpt><trkpt lat="41.8330071" lon="12.4459924"><ele>10.0</ele><time>2026-04-19T15:57:47.757Z</time></trkpt><trkpt lat="41.8331257" lon="12.4462264"><ele>10.666666666666668</ele><time>2026-04-19T15:57:48.757Z</time></trkpt><trkpt lat="41.8332546" lon="12.4464548"><ele>11.333333333333334</ele><time>2026-04-19T15:57:49.758Z</time></trkpt><trkpt lat="41.8333832" lon="12.4466701"><ele>12.0</ele><time>2026-04-19T15:57:50.757Z</time></trkpt><trkpt lat="41.8335123" lon="12.4468821"><ele>12.333333333333332</ele><time>2026-04-19T15:57:51.758Z</time></trkpt><trkpt lat="41.8336407" lon="12.4470892"><ele>12.666666666666666</ele><time>2026-04-19T15:57:52.757Z</time></trkpt><trkpt lat="41.8337659" lon="12.4472869"><ele>13.0</ele><time>2026-04-19T15:57:53.757Z</time></trkpt><trkpt lat="41.8338961" lon="12.447472"><ele>13.0</ele><time>2026-04-19T15:57:54.758Z</time></trkpt><trkpt lat="41.8340282" lon="12.4476424"><ele>13.0</ele><time>2026-04-19T15:57:55.757Z</time></trkpt><trkpt lat="41.8341628" lon="12.447802"><ele>13.0</ele><time>2026-04-19T15:57:56.758Z</time></trkpt><trkpt lat="41.8342925" lon="12.4479529"><ele>12.666666666666666</ele><time>2026-04-19T15:57:57.758Z</time></trkpt><trkpt lat="41.8344273" lon="12.4480965"><ele>12.333333333333332</ele><time>2026-04-19T15:57:58.757Z</time></trkpt><trkpt lat="41.8345628" lon="12.4482273"><ele>12.0</ele><time>2026-04-19T15:57:59.757Z</time></trkpt><trkpt lat="41.8347001" lon="12.4483491"><ele>12.0</ele><time>2026-04-19T15:58:00.758Z</time></trkpt><trkpt lat="41.83484" lon="12.4484711"><ele>12.0</ele><time>2026-04-19T15:58:01.757Z</time></trkpt><trkpt lat="41.8349827" lon="12.4485876"><ele>12.0</ele><time>2026-04-19T15:58:02.757Z</time></trkpt><trkpt lat="41.835128" lon="12.4487006"><ele>13.0</ele><time>2026-04-19T15:58:03.757Z</time></trkpt><trkpt lat="41.835276" lon="12.4488179"><ele>14.0</ele><time>2026-04-19T15:58:04.756Z</time></trkpt><trkpt lat="41.8354242" lon="12.4489382"><ele>15.0</ele><time>2026-04-19T15:58:05.757Z</time></trkpt><trkpt lat="41.8355789" lon="12.4490579"><ele>15.0</ele><time>2026-04-19T15:58:06.757Z</time></trkpt><trkpt lat="41.8357359" lon="12.4491781"><ele>15.0</ele><time>2026-04-19T15:58:07.757Z</time></trkpt><trkpt lat="41.8358947" lon="12.4493019"><ele>15.0</ele><time>2026-04-19T15:58:08.757Z</time></trkpt><trkpt lat="41.8360537" lon="12.4494315"><ele>14.666666666666668</ele><time>2026-04-19T15:58:09.758Z</time></trkpt><trkpt lat="41.8362162" lon="12.4495629"><ele>14.333333333333334</ele><time>2026-04-19T15:58:10.757Z</time></trkpt><trkpt lat="41.8363834" lon="12.4496915"><ele>14.0</ele><time>2026-04-19T15:58:11.757Z</time></trkpt><trkpt lat="41.8365498" lon="12.4498269"><ele>14.0</ele><time>2026-04-19T15:58:12.757Z</time></trkpt><trkpt lat="41.8367179" lon="12.4499657"><ele>14.0</ele><time>2026-04-19T15:58:13.757Z</time></trkpt><trkpt lat="41.8368883" lon="12.450106"><ele>14.0</ele><time>2026-04-19T15:58:14.758Z</time></trkpt><trkpt lat="41.8370473" lon="12.4502455"><ele>14.0</ele><time>2026-04-19T15:58:15.757Z</time></trkpt><trkpt lat="41.8372014" lon="12.4503815"><ele>14.0</ele><time>2026-04-19T15:58:16.758Z</time></trkpt><trkpt lat="41.8373492" lon="12.4505121"><ele>14.0</ele><time>2026-04-19T15:58:17.758Z</time></trkpt><trkpt lat="41.8374886" lon="12.4506452"><ele>14.333333333333334</ele><time>2026-04-19T15:58:18.758Z</time></trkpt><trkpt lat="41.8376164" lon="12.4507827"><ele>14.666666666666668</ele><time>2026-04-19T15:58:19.756Z</time></trkpt><trkpt lat="41.8377371" lon="12.4509322"><ele>15.0</ele><time>2026-04-19T15:58:20.758Z</time></trkpt><trkpt lat="41.837839" lon="12.4510917"><ele>15.0</ele><time>2026-04-19T15:58:21.757Z</time></trkpt><trkpt lat="41.8379302" lon="12.4512579"><ele>15.0</ele><time>2026-04-19T15:58:22.756Z</time></trkpt><trkpt lat="41.8380159" lon="12.4514242"><ele>15.0</ele><time>2026-04-19T15:58:23.756Z</time></trkpt><trkpt lat="41.8381084" lon="12.451585"><ele>14.5</ele><time>2026-04-19T15:58:24.757Z</time></trkpt><trkpt lat="41.838198" lon="12.4517442"><ele>14.0</ele><time>2026-04-19T15:58:25.757Z</time></trkpt><trkpt lat="41.8382897" lon="12.4519026"><ele>13.5</ele><time>2026-04-19T15:58:26.758Z</time></trkpt><trkpt lat="41.8383804" lon="12.4520587"><ele>13.0</ele><time>2026-04-19T15:58:27.757Z</time></trkpt><trkpt lat="41.8384817" lon="12.452211"><ele>13.0</ele><time>2026-04-19T15:58:28.758Z</time></trkpt><trkpt lat="41.8385705" lon="12.4523525"><ele>13.0</ele><time>2026-04-19T15:58:29.758Z</time></trkpt><trkpt lat="41.8386616" lon="12.4524928"><ele>13.0</ele><time>2026-04-19T15:58:30.757Z</time></trkpt><trkpt lat="41.8387531" lon="12.4526308"><ele>13.0</ele><time>2026-04-19T15:58:31.756Z</time></trkpt><trkpt lat="41.8388489" lon="12.4527629"><ele>13.0</ele><time>2026-04-19T15:58:32.758Z</time></trkpt><trkpt lat="41.8389533" lon="12.4528858"><ele>13.0</ele><time>2026-04-19T15:58:33.758Z</time></trkpt><trkpt lat="41.8390697" lon="12.4530036"><ele>13.0</ele><time>2026-04-19T15:58:34.758Z</time></trkpt><trkpt lat="41.8391959" lon="12.4531062"><ele>13.0</ele><time>2026-04-19T15:58:35.758Z</time></trkpt><trkpt lat="41.8393264" lon="12.4532011"><ele>13.333333333333332</ele><time>2026-04-19T15:58:36.756Z</time></trkpt><trkpt lat="41.8394719" lon="12.4532942"><ele>13.666666666666668</ele><time>2026-04-19T15:58:37.758Z</time></trkpt><trkpt lat="41.839613" lon="12.4533842"><ele>14.0</ele><time>2026-04-19T15:58:38.757Z</time></trkpt><trkpt lat="41.8397563" lon="12.4534737"><ele>14.0</ele><time>2026-04-19T15:58:39.758Z</time></trkpt><trkpt lat="41.8398976" lon="12.4535638"><ele>14.0</ele><time>2026-04-19T15:58:40.758Z</time></trkpt><trkpt lat="41.8400292" lon="12.4536526"><ele>14.0</ele><time>2026-04-19T15:58:41.757Z</time></trkpt><trkpt lat="41.8401524" lon="12.4537379"><ele>14.0</ele><time>2026-04-19T15:58:42.758Z</time></trkpt><trkpt lat="41.8402761" lon="12.4538253"><ele>14.0</ele><time>2026-04-19T15:58:43.758Z</time></trkpt><trkpt lat="41.8403905" lon="12.4539125"><ele>14.0</ele><time>2026-04-19T15:58:44.758Z</time></trkpt><trkpt lat="41.8405097" lon="12.4539977"><ele>14.0</ele><time>2026-04-19T15:58:45.758Z</time></trkpt><trkpt lat="41.8406298" lon="12.4540764"><ele>14.0</ele><time>2026-04-19T15:58:46.758Z</time></trkpt><trkpt lat="41.8407677" lon="12.4541653"><ele>14.0</ele><time>2026-04-19T15:58:47.757Z</time></trkpt><trkpt lat="41.8408814" lon="12.454236"><ele>14.0</ele><time>2026-04-19T15:58:48.757Z</time></trkpt><trkpt lat="41.8409952" lon="12.454302"><ele>14.0</ele><time>2026-04-19T15:58:49.757Z</time></trkpt><trkpt lat="41.8411044" lon="12.4543638"><ele>14.0</ele><time>2026-04-19T15:58:50.757Z</time></trkpt><trkpt lat="41.8412159" lon="12.4544243"><ele>14.25</ele><time>2026-04-19T15:58:51.757Z</time></trkpt><trkpt lat="41.8413263" lon="12.4544858"><ele>14.5</ele><time>2026-04-19T15:58:52.758Z</time></trkpt><trkpt lat="41.8414356" lon="12.4545494"><ele>14.75</ele><time>2026-04-19T15:58:53.756Z</time></trkpt><trkpt lat="41.8415562" lon="12.454613"><ele>15.0</ele><time>2026-04-19T15:58:54.757Z</time></trkpt><trkpt lat="41.8416752" lon="12.4546824"><ele>14.75</ele><time>2026-04-19T15:58:55.757Z</time></trkpt><trkpt lat="41.8417969" lon="12.4547476"><ele>14.5</ele><time>2026-04-19T15:58:56.758Z</time></trkpt><trkpt lat="41.8419293" lon="12.4548065"><ele>14.25</ele><time>2026-04-19T15:58:57.758Z</time></trkpt><trkpt lat="41.8420621" lon="12.4548644"><ele>14.0</ele><time>2026-04-19T15:58:58.758Z</time></trkpt><trkpt lat="41.8421914" lon="12.4549182"><ele>14.0</ele><time>2026-04-19T15:58:59.758Z</time></trkpt><trkpt lat="41.8423055" lon="12.4549741"><ele>13.999999999999998</ele><time>2026-04-19T15:59:00.757Z</time></trkpt><trkpt lat="41.8424087" lon="12.4550343"><ele>13.999999999999998</ele><time>2026-04-19T15:59:01.758Z</time></trkpt><trkpt lat="41.8425033" lon="12.4550948"><ele>14.0</ele><time>2026-04-19T15:59:02.757Z</time></trkpt><trkpt lat="41.8425873" lon="12.4551468"><ele>14.0</ele><time>2026-04-19T15:59:03.758Z</time></trkpt><trkpt lat="41.8426641" lon="12.4551836"><ele>14.166666666666668</ele><time>2026-04-19T15:59:04.758Z</time></trkpt><trkpt lat="41.8427365" lon="12.4552155"><ele>14.333333333333334</ele><time>2026-04-19T15:59:05.758Z</time></trkpt><trkpt lat="41.8428152" lon="12.4552518"><ele>14.5</ele><time>2026-04-19T15:59:06.757Z</time></trkpt><trkpt lat="41.8428998" lon="12.4552861"><ele>14.666666666666668</ele><time>2026-04-19T15:59:07.758Z</time></trkpt><trkpt lat="41.8429917" lon="12.455323"><ele>14.833333333333334</ele><time>2026-04-19T15:59:08.758Z</time></trkpt><trkpt lat="41.8430913" lon="12.4553625"><ele>15.0</ele><time>2026-04-19T15:59:09.757Z</time></trkpt><trkpt lat="41.8431985" lon="12.4554053"><ele>14.5</ele><time>2026-04-19T15:59:10.758Z</time></trkpt><trkpt lat="41.8433236" lon="12.4554574"><ele>14.0</ele><time>2026-04-19T15:59:11.757Z</time></trkpt><trkpt lat="41.8444866" lon="12.4560192"><ele>15.666666666666668</ele><time>2026-04-19T15:59:18.758Z</time></trkpt><trkpt lat="41.8446479" lon="12.4561016"><ele>17.333333333333332</ele><time>2026-04-19T15:59:19.756Z</time></trkpt><trkpt lat="41.8448022" lon="12.4561797"><ele>19.0</ele><time>2026-04-19T15:59:20.757Z</time></trkpt><trkpt lat="41.8449507" lon="12.4562586"><ele>19.25</ele><time>2026-04-19T15:59:21.757Z</time></trkpt><trkpt lat="41.845091" lon="12.4563381"><ele>19.5</ele><time>2026-04-19T15:59:22.756Z</time></trkpt><trkpt lat="41.845227" lon="12.4564165"><ele>19.75</ele><time>2026-04-19T15:59:23.758Z</time></trkpt><trkpt lat="41.84536" lon="12.4564892"><ele>20.0</ele><time>2026-04-19T15:59:24.758Z</time></trkpt><trkpt lat="41.8454939" lon="12.4565607"><ele>20.0</ele><time>2026-04-19T15:59:25.757Z</time></trkpt><trkpt lat="41.8456141" lon="12.4566377"><ele>20.0</ele><time>2026-04-19T15:59:26.758Z</time></trkpt><trkpt lat="41.8457521" lon="12.4567053"><ele>20.0</ele><time>2026-04-19T15:59:27.757Z</time></trkpt><trkpt lat="41.8458612" lon="12.4567519"><ele>20.0</ele><time>2026-04-19T15:59:28.757Z</time></trkpt><trkpt lat="41.845948" lon="12.4567969"><ele>21.0</ele><time>2026-04-19T15:59:29.757Z</time></trkpt><trkpt lat="41.846009" lon="12.4568621"><ele>22.0</ele><time>2026-04-19T15:59:31.757Z</time></trkpt><trkpt lat="41.8460874" lon="12.4569003"><ele>23.0</ele><time>2026-04-19T15:59:33.756Z</time></trkpt><trkpt lat="41.8461738" lon="12.4569352"><ele>24.0</ele><time>2026-04-19T15:59:34.757Z</time></trkpt><trkpt lat="41.8462777" lon="12.4569722"><ele>25.0</ele><time>2026-04-19T15:59:35.757Z</time></trkpt><trkpt lat="41.8463913" lon="12.4570144"><ele>25.0</ele><time>2026-04-19T15:59:36.757Z</time></trkpt><trkpt lat="41.8465244" lon="12.4570766"><ele>25.0</ele><time>2026-04-19T15:59:37.757Z</time></trkpt><trkpt lat="41.8466567" lon="12.457147"><ele>25.0</ele><time>2026-04-19T15:59:38.757Z</time></trkpt><trkpt lat="41.8468049" lon="12.4572232"><ele>25.0</ele><time>2026-04-19T15:59:39.757Z</time></trkpt><trkpt lat="41.8469508" lon="12.4573031"><ele>23.25</ele><time>2026-04-19T15:59:40.758Z</time></trkpt><trkpt lat="41.84709" lon="12.4573779"><ele>21.5</ele><time>2026-04-19T15:59:41.758Z</time></trkpt><trkpt lat="41.8472228" lon="12.4574458"><ele>19.75</ele><time>2026-04-19T15:59:42.758Z</time></trkpt><trkpt lat="41.847353" lon="12.45751"><ele>18.0</ele><time>2026-04-19T15:59:43.758Z</time></trkpt><trkpt lat="41.8474916" lon="12.4575842"><ele>16.666666666666668</ele><time>2026-04-19T15:59:44.758Z</time></trkpt><trkpt lat="41.8476375" lon="12.4576606"><ele>15.333333333333334</ele><time>2026-04-19T15:59:45.758Z</time></trkpt><trkpt lat="41.8477908" lon="12.457734"><ele>14.0</ele><time>2026-04-19T15:59:46.757Z</time></trkpt><trkpt lat="41.8479467" lon="12.4578117"><ele>14.0</ele><time>2026-04-19T15:59:47.757Z</time></trkpt><trkpt lat="41.8481069" lon="12.4578891"><ele>14.0</ele><time>2026-04-19T15:59:48.757Z</time></trkpt><trkpt lat="41.8482607" lon="12.4579699"><ele>14.0</ele><time>2026-04-19T15:59:49.758Z</time></trkpt><trkpt lat="41.848404" lon="12.4580581"><ele>14.0</ele><time>2026-04-19T15:59:50.758Z</time></trkpt><trkpt lat="41.8485366" lon="12.4581367"><ele>14.0</ele><time>2026-04-19T15:59:51.757Z</time></trkpt><trkpt lat="41.848667" lon="12.4582072"><ele>14.0</ele><time>2026-04-19T15:59:52.757Z</time></trkpt><trkpt lat="41.8488025" lon="12.4582672"><ele>14.0</ele><time>2026-04-19T15:59:53.758Z</time></trkpt><trkpt lat="41.8489331" lon="12.4583303"><ele>14.0</ele><time>2026-04-19T15:59:54.757Z</time></trkpt><trkpt lat="41.8490636" lon="12.4583887"><ele>14.0</ele><time>2026-04-19T15:59:55.757Z</time></trkpt><trkpt lat="41.8491857" lon="12.4584396"><ele>14.0</ele><time>2026-04-19T15:59:56.757Z</time></trkpt><trkpt lat="41.8494229" lon="12.4585735"><ele>13.75</ele><time>2026-04-19T15:59:58.757Z</time></trkpt><trkpt lat="41.8495352" lon="12.4586353"><ele>13.5</ele><time>2026-04-19T15:59:59.757Z</time></trkpt><trkpt lat="41.8496472" lon="12.4586977"><ele>13.25</ele><time>2026-04-19T16:00:00.757Z</time></trkpt><trkpt lat="41.8497497" lon="12.4587512"><ele>13.0</ele><time>2026-04-19T16:00:01.758Z</time></trkpt><trkpt lat="41.8498459" lon="12.4588014"><ele>14.2</ele><time>2026-04-19T16:00:02.758Z</time></trkpt><trkpt lat="41.8499374" lon="12.4588474"><ele>15.4</ele><time>2026-04-19T16:00:03.757Z</time></trkpt><trkpt lat="41.8500183" lon="12.4588923"><ele>16.599999999999998</ele><time>2026-04-19T16:00:04.758Z</time></trkpt><trkpt lat="41.8500882" lon="12.4589254"><ele>17.8</ele><time>2026-04-19T16:00:05.757Z</time></trkpt><trkpt lat="41.8501939" lon="12.4589883"><ele>19.0</ele><time>2026-04-19T16:00:07.757Z</time></trkpt><trkpt lat="41.8502996" lon="12.4590341"><ele>19.5</ele><time>2026-04-19T16:00:09.758Z</time></trkpt><trkpt lat="41.8503884" lon="12.4590583"><ele>20.0</ele><time>2026-04-19T16:00:37.757Z</time></trkpt><trkpt lat="41.8505687" lon="12.4591487"><ele>20.5</ele><time>2026-04-19T16:00:39.758Z</time></trkpt><trkpt lat="41.8506783" lon="12.4591928"><ele>21.0</ele><time>2026-04-19T16:00:40.757Z</time></trkpt><trkpt lat="41.8508248" lon="12.4592227"><ele>19.666666666666668</ele><time>2026-04-19T16:00:41.758Z</time></trkpt><trkpt lat="41.8509701" lon="12.4592756"><ele>18.333333333333336</ele><time>2026-04-19T16:00:42.757Z</time></trkpt><trkpt lat="41.8511431" lon="12.4592921"><ele>17.0</ele><time>2026-04-19T16:00:43.758Z</time></trkpt><trkpt lat="41.8513057" lon="12.4593128"><ele>17.0</ele><time>2026-04-19T16:00:44.758Z</time></trkpt><trkpt lat="41.8514705" lon="12.4593288"><ele>17.0</ele><time>2026-04-19T16:00:45.757Z</time></trkpt><trkpt lat="41.8516274" lon="12.4593339"><ele>17.0</ele><time>2026-04-19T16:00:46.758Z</time></trkpt><trkpt lat="41.8517695" lon="12.4593254"><ele>17.0</ele><time>2026-04-19T16:00:47.758Z</time></trkpt><trkpt lat="41.8519097" lon="12.4593085"><ele>17.0</ele><time>2026-04-19T16:00:48.756Z</time></trkpt><trkpt lat="41.8520536" lon="12.4592832"><ele>17.0</ele><time>2026-04-19T16:00:49.757Z</time></trkpt><trkpt lat="41.8521852" lon="12.4592557"><ele>17.0</ele><time>2026-04-19T16:00:50.757Z</time></trkpt><trkpt lat="41.8523118" lon="12.4592117"><ele>17.0</ele><time>2026-04-19T16:00:51.756Z</time></trkpt><trkpt lat="41.8524393" lon="12.4591703"><ele>17.0</ele><time>2026-04-19T16:00:52.757Z</time></trkpt><trkpt lat="41.8525895" lon="12.459105"><ele>17.0</ele><time>2026-04-19T16:00:53.757Z</time></trkpt><trkpt lat="41.8527296" lon="12.4590439"><ele>17.0</ele><time>2026-04-19T16:00:54.757Z</time></trkpt><trkpt lat="41.8528881" lon="12.4589827"><ele>17.0</ele><time>2026-04-19T16:00:55.756Z</time></trkpt><trkpt lat="41.8530302" lon="12.4589172"><ele>17.0</ele><time>2026-04-19T16:00:56.757Z</time></trkpt><trkpt lat="41.8531826" lon="12.4588571"><ele>17.0</ele><time>2026-04-19T16:00:57.757Z</time></trkpt><trkpt lat="41.8533453" lon="12.4587782"><ele>18.666666666666668</ele><time>2026-04-19T16:00:58.756Z</time></trkpt><trkpt lat="41.8534999" lon="12.4587089"><ele>20.333333333333332</ele><time>2026-04-19T16:00:59.757Z</time></trkpt><trkpt lat="41.8536588" lon="12.4586461"><ele>22.0</ele><time>2026-04-19T16:01:00.756Z</time></trkpt><trkpt lat="41.8538308" lon="12.4585828"><ele>22.0</ele><time>2026-04-19T16:01:01.757Z</time></trkpt><trkpt lat="41.8539986" lon="12.4585363"><ele>22.0</ele><time>2026-04-19T16:01:02.758Z</time></trkpt><trkpt lat="41.8541638" lon="12.4585007"><ele>22.0</ele><time>2026-04-19T16:01:03.758Z</time></trkpt><trkpt lat="41.8543118" lon="12.4584823"><ele>20.75</ele><time>2026-04-19T16:01:04.756Z</time></trkpt><trkpt lat="41.8544641" lon="12.458467"><ele>19.5</ele><time>2026-04-19T16:01:05.757Z</time></trkpt><trkpt lat="41.8546" lon="12.4584523"><ele>18.25</ele><time>2026-04-19T16:01:06.757Z</time></trkpt><trkpt lat="41.8547326" lon="12.4584546"><ele>17.0</ele><time>2026-04-19T16:01:07.758Z</time></trkpt><trkpt lat="41.8548377" lon="12.4584731"><ele>17.0</ele><time>2026-04-19T16:01:08.758Z</time></trkpt><trkpt lat="41.8549479" lon="12.4584849"><ele>17.0</ele><time>2026-04-19T16:01:09.757Z</time></trkpt><trkpt lat="41.8550741" lon="12.4585171"><ele>17.0</ele><time>2026-04-19T16:01:11.757Z</time></trkpt><trkpt lat="41.8551737" lon="12.458535"><ele>17.0</ele><time>2026-04-19T16:01:13.758Z</time></trkpt><trkpt lat="41.8552536" lon="12.4585485"><ele>17.0</ele><time>2026-04-19T16:01:39.757Z</time></trkpt><trkpt lat="41.8553153" lon="12.4585673"><ele>16.75</ele><time>2026-04-19T16:01:41.757Z</time></trkpt><trkpt lat="41.8553872" lon="12.4585955"><ele>16.5</ele><time>2026-04-19T16:01:42.757Z</time></trkpt><trkpt lat="41.8555152" lon="12.4586368"><ele>16.25</ele><time>2026-04-19T16:01:43.758Z</time></trkpt><trkpt lat="41.8556563" lon="12.45867"><ele>16.0</ele><time>2026-04-19T16:01:44.758Z</time></trkpt><trkpt lat="41.8557949" lon="12.4587079"><ele>16.0</ele><time>2026-04-19T16:01:45.758Z</time></trkpt><trkpt lat="41.8559418" lon="12.4587515"><ele>16.0</ele><time>2026-04-19T16:01:46.757Z</time></trkpt><trkpt lat="41.8560957" lon="12.4587919"><ele>16.0</ele><time>2026-04-19T16:01:47.757Z</time></trkpt><trkpt lat="41.8562563" lon="12.4588373"><ele>17.0</ele><time>2026-04-19T16:01:48.757Z</time></trkpt><trkpt lat="41.8564291" lon="12.4588793"><ele>18.0</ele><time>2026-04-19T16:01:49.757Z</time></trkpt><trkpt lat="41.8566076" lon="12.4589257"><ele>19.0</ele><time>2026-04-19T16:01:50.756Z</time></trkpt><trkpt lat="41.8567905" lon="12.4589782"><ele>21.0</ele><time>2026-04-19T16:01:51.758Z</time></trkpt><trkpt lat="41.8569711" lon="12.4590292"><ele>23.0</ele><time>2026-04-19T16:01:52.756Z</time></trkpt><trkpt lat="41.8571545" lon="12.4590822"><ele>25.0</ele><time>2026-04-19T16:01:53.758Z</time></trkpt><trkpt lat="41.8573344" lon="12.4591435"><ele>25.0</ele><time>2026-04-19T16:01:54.756Z</time></trkpt><trkpt lat="41.8575167" lon="12.4592121"><ele>25.0</ele><time>2026-04-19T16:01:55.757Z</time></trkpt><trkpt lat="41.8576938" lon="12.4592854"><ele>25.0</ele><time>2026-04-19T16:01:56.756Z</time></trkpt><trkpt lat="41.8578688" lon="12.4593708"><ele>25.0</ele><time>2026-04-19T16:01:57.758Z</time></trkpt><trkpt lat="41.8580305" lon="12.4594765"><ele>25.0</ele><time>2026-04-19T16:01:58.757Z</time></trkpt><trkpt lat="41.858179" lon="12.4595947"><ele>25.0</ele><time>2026-04-19T16:01:59.757Z</time></trkpt><trkpt lat="41.8583167" lon="12.4597012"><ele>24.666666666666668</ele><time>2026-04-19T16:02:00.758Z</time></trkpt><trkpt lat="41.8584574" lon="12.4598187"><ele>24.333333333333336</ele><time>2026-04-19T16:02:01.756Z</time></trkpt><trkpt lat="41.8585827" lon="12.4599404"><ele>24.0</ele><time>2026-04-19T16:02:02.757Z</time></trkpt><trkpt lat="41.8587067" lon="12.4600654"><ele>24.0</ele><time>2026-04-19T16:02:03.757Z</time></trkpt><trkpt lat="41.8588229" lon="12.4601997"><ele>24.0</ele><time>2026-04-19T16:02:04.757Z</time></trkpt><trkpt lat="41.8589436" lon="12.4603302"><ele>24.0</ele><time>2026-04-19T16:02:05.757Z</time></trkpt><trkpt lat="41.8590536" lon="12.4604706"><ele>24.666666666666664</ele><time>2026-04-19T16:02:06.757Z</time></trkpt><trkpt lat="41.8591671" lon="12.4606167"><ele>25.333333333333332</ele><time>2026-04-19T16:02:07.757Z</time></trkpt><trkpt lat="41.8592801" lon="12.4607764"><ele>26.0</ele><time>2026-04-19T16:02:08.757Z</time></trkpt><trkpt lat="41.8593883" lon="12.4609332"><ele>26.0</ele><time>2026-04-19T16:02:09.758Z</time></trkpt><trkpt lat="41.8594971" lon="12.4610904"><ele>26.0</ele><time>2026-04-19T16:02:10.756Z</time></trkpt><trkpt lat="41.8596057" lon="12.4612501"><ele>26.0</ele><time>2026-04-19T16:02:11.758Z</time></trkpt><trkpt lat="41.8597158" lon="12.4614068"><ele>24.0</ele><time>2026-04-19T16:02:12.757Z</time></trkpt><trkpt lat="41.8598252" lon="12.4615571"><ele>22.0</ele><time>2026-04-19T16:02:13.757Z</time></trkpt><trkpt lat="41.8599335" lon="12.4616982"><ele>20.0</ele><time>2026-04-19T16:02:14.757Z</time></trkpt><trkpt lat="41.8600473" lon="12.4618312"><ele>19.75</ele><time>2026-04-19T16:02:15.757Z</time></trkpt><trkpt lat="41.8601596" lon="12.4619523"><ele>19.5</ele><time>2026-04-19T16:02:16.757Z</time></trkpt><trkpt lat="41.8602711" lon="12.4620698"><ele>19.25</ele><time>2026-04-19T16:02:17.757Z</time></trkpt><trkpt lat="41.8603819" lon="12.4621805"><ele>19.0</ele><time>2026-04-19T16:02:18.757Z</time></trkpt><trkpt lat="41.8604972" lon="12.462284"><ele>19.0</ele><time>2026-04-19T16:02:19.758Z</time></trkpt><trkpt lat="41.860606" lon="12.4623711"><ele>19.0</ele><time>2026-04-19T16:02:20.758Z</time></trkpt><trkpt lat="41.8607015" lon="12.4624473"><ele>19.0</ele><time>2026-04-19T16:02:21.757Z</time></trkpt><trkpt lat="41.8607848" lon="12.4625222"><ele>19.0</ele><time>2026-04-19T16:02:22.757Z</time></trkpt><trkpt lat="41.8608638" lon="12.462595"><ele>19.0</ele><time>2026-04-19T16:02:23.757Z</time></trkpt><trkpt lat="41.8609397" lon="12.4626698"><ele>20.6</ele><time>2026-04-19T16:02:24.758Z</time></trkpt><trkpt lat="41.8610205" lon="12.4627319"><ele>22.2</ele><time>2026-04-19T16:02:25.757Z</time></trkpt><trkpt lat="41.8610988" lon="12.4627872"><ele>23.800000000000004</ele><time>2026-04-19T16:02:26.757Z</time></trkpt><trkpt lat="41.8612182" lon="12.462859"><ele>25.400000000000002</ele><time>2026-04-19T16:02:28.756Z</time></trkpt><trkpt lat="41.8612735" lon="12.462904"><ele>27.0</ele><time>2026-04-19T16:02:32.758Z</time></trkpt><trkpt lat="41.8613583" lon="12.4629155"><ele>26.200000000000003</ele><time>2026-04-19T16:02:46.758Z</time></trkpt><trkpt lat="41.861415" lon="12.4630151"><ele>25.400000000000002</ele><time>2026-04-19T16:02:49.758Z</time></trkpt><trkpt lat="41.8613887" lon="12.463156"><ele>24.6</ele><time>2026-04-19T16:02:51.756Z</time></trkpt><trkpt lat="41.8613579" lon="12.4632651"><ele>23.799999999999997</ele><time>2026-04-19T16:02:52.758Z</time></trkpt><trkpt lat="41.8613258" lon="12.4633708"><ele>23.0</ele><time>2026-04-19T16:02:53.758Z</time></trkpt><trkpt lat="41.8612968" lon="12.4634882"><ele>23.0</ele><time>2026-04-19T16:02:54.758Z</time></trkpt><trkpt lat="41.8612736" lon="12.4636054"><ele>23.0</ele><time>2026-04-19T16:02:55.758Z</time></trkpt><trkpt lat="41.8612511" lon="12.4637228"><ele>23.0</ele><time>2026-04-19T16:02:56.757Z</time></trkpt><trkpt lat="41.8612215" lon="12.4638255"><ele>23.0</ele><time>2026-04-19T16:02:57.756Z</time></trkpt><trkpt lat="41.8611895" lon="12.4639401"><ele>23.0</ele><time>2026-04-19T16:02:58.757Z</time></trkpt><trkpt lat="41.8611653" lon="12.4640497"><ele>23.0</ele><time>2026-04-19T16:02:59.758Z</time></trkpt><trkpt lat="41.8611372" lon="12.4641672"><ele>22.799999999999997</ele><time>2026-04-19T16:03:00.757Z</time></trkpt><trkpt lat="41.8611106" lon="12.4642915"><ele>22.6</ele><time>2026-04-19T16:03:01.758Z</time></trkpt><trkpt lat="41.8610813" lon="12.4644192"><ele>22.4</ele><time>2026-04-19T16:03:02.758Z</time></trkpt><trkpt lat="41.861053" lon="12.4645564"><ele>22.200000000000003</ele><time>2026-04-19T16:03:03.758Z</time></trkpt><trkpt lat="41.8610256" lon="12.4647098"><ele>22.0</ele><time>2026-04-19T16:03:04.757Z</time></trkpt><trkpt lat="41.8610021" lon="12.46487"><ele>22.25</ele><time>2026-04-19T16:03:05.757Z</time></trkpt><trkpt lat="41.8609887" lon="12.4650384"><ele>22.5</ele><time>2026-04-19T16:03:06.758Z</time></trkpt><trkpt lat="41.8609879" lon="12.4652024"><ele>22.75</ele><time>2026-04-19T16:03:07.757Z</time></trkpt><trkpt lat="41.8609884" lon="12.4653624"><ele>23.0</ele><time>2026-04-19T16:03:08.756Z</time></trkpt><trkpt lat="41.8609922" lon="12.4655181"><ele>23.0</ele><time>2026-04-19T16:03:09.758Z</time></trkpt><trkpt lat="41.8609964" lon="12.4656742"><ele>23.0</ele><time>2026-04-19T16:03:10.757Z</time></trkpt><trkpt lat="41.8610048" lon="12.4658154"><ele>23.0</ele><time>2026-04-19T16:03:11.758Z</time></trkpt><trkpt lat="41.8610093" lon="12.4659606"><ele>23.0</ele><time>2026-04-19T16:03:12.758Z</time></trkpt><trkpt lat="41.8610166" lon="12.4661002"><ele>23.0</ele><time>2026-04-19T16:03:13.758Z</time></trkpt><trkpt lat="41.8610213" lon="12.4662386"><ele>24.0</ele><time>2026-04-19T16:03:14.757Z</time></trkpt><trkpt lat="41.8610264" lon="12.4663738"><ele>25.0</ele><time>2026-04-19T16:03:15.758Z</time></trkpt><trkpt lat="41.8610336" lon="12.4665071"><ele>25.999999999999996</ele><time>2026-04-19T16:03:16.757Z</time></trkpt><trkpt lat="41.8610422" lon="12.466623"><ele>27.0</ele><time>2026-04-19T16:03:17.757Z</time></trkpt><trkpt lat="41.861047" lon="12.4667395"><ele>28.0</ele><time>2026-04-19T16:03:18.757Z</time></trkpt><trkpt lat="41.8610507" lon="12.466852"><ele>26.75</ele><time>2026-04-19T16:03:19.757Z</time></trkpt><trkpt lat="41.8610262" lon="12.4672224"><ele>25.5</ele><time>2026-04-19T16:03:25.756Z</time></trkpt><trkpt lat="41.8609682" lon="12.4673014"><ele>24.25</ele><time>2026-04-19T16:03:28.757Z</time></trkpt><trkpt lat="41.8609663" lon="12.4674093"><ele>23.0</ele><time>2026-04-19T16:03:30.756Z</time></trkpt><trkpt lat="41.8609757" lon="12.4675129"><ele>23.0</ele><time>2026-04-19T16:03:32.756Z</time></trkpt><trkpt lat="41.860973" lon="12.467605"><ele>23.0</ele><time>2026-04-19T16:03:34.758Z</time></trkpt><trkpt lat="41.8609611" lon="12.4677204"><ele>23.0</ele><time>2026-04-19T16:03:37.758Z</time></trkpt><trkpt lat="41.8609658" lon="12.4678109"><ele>23.0</ele><time>2026-04-19T16:03:40.757Z</time></trkpt><trkpt lat="41.8609794" lon="12.4678978"><ele>23.0</ele><time>2026-04-19T16:05:25.757Z</time></trkpt><trkpt lat="41.8610036" lon="12.4679966"><ele>23.0</ele><time>2026-04-19T16:05:35.756Z</time></trkpt><trkpt lat="41.8610183" lon="12.4680905"><ele>23.0</ele><time>2026-04-19T16:05:41.757Z</time></trkpt><trkpt lat="41.8610011" lon="12.4679966"><ele>23.0</ele><time>2026-04-19T16:05:50.758Z</time></trkpt><trkpt lat="41.8609852" lon="12.4679063"><ele>23.0</ele><time>2026-04-19T16:05:54.756Z</time></trkpt><trkpt lat="41.8610195" lon="12.4679987"><ele>23.0</ele><time>2026-04-19T16:06:29.757Z</time></trkpt><trkpt lat="41.8610354" lon="12.4680806"><ele>23.0</ele><time>2026-04-19T16:06:34.755Z</time></trkpt><trkpt lat="41.8610344" lon="12.4679654"><ele>23.0</ele><time>2026-04-19T16:07:32.756Z</time></trkpt><trkpt lat="41.8610087" lon="12.4678793"><ele>23.0</ele><time>2026-04-19T16:07:36.779Z</time></trkpt><trkpt lat="41.8610783" lon="12.4678601"><ele>23.0</ele><time>2026-04-19T16:28:40.756Z</time></trkpt><trkpt lat="41.8610186" lon="12.4678933"><ele>23.0</ele><time>2026-04-19T16:29:15.756Z</time></trkpt><trkpt lat="41.860969" lon="12.4678397"><ele>23.0</ele><time>2026-04-19T16:30:45.755Z</time></trkpt><trkpt lat="41.8609546" lon="12.4677495"><ele>23.0</ele><time>2026-04-19T16:30:58.756Z</time></trkpt><trkpt lat="41.8609498" lon="12.4676605"><ele>23.0</ele><time>2026-04-19T16:31:01.755Z</time></trkpt><trkpt lat="41.8610167" lon="12.4677761"><ele>23.0</ele><time>2026-04-19T16:32:51.753Z</time></trkpt><trkpt lat="41.8610673" lon="12.4678404"><ele>23.0</ele><time>2026-04-19T16:36:21.754Z</time></trkpt><trkpt lat="41.8610805" lon="12.4679856"><ele>23.42857142857143</ele><time>2026-04-19T16:36:24.753Z</time></trkpt><trkpt lat="41.861084" lon="12.4680712"><ele>23.857142857142854</ele><time>2026-04-19T16:36:25.754Z</time></trkpt><trkpt lat="41.8610802" lon="12.4681598"><ele>24.285714285714285</ele><time>2026-04-19T16:36:26.755Z</time></trkpt><trkpt lat="41.8610246" lon="12.4682515"><ele>24.714285714285715</ele><time>2026-04-19T16:36:27.754Z</time></trkpt><trkpt lat="41.861024" lon="12.4683568"><ele>25.142857142857146</ele><time>2026-04-19T16:36:28.754Z</time></trkpt><trkpt lat="41.8610241" lon="12.4684476"><ele>25.57142857142857</ele><time>2026-04-19T16:36:29.754Z</time></trkpt><trkpt lat="41.8610278" lon="12.4685418"><ele>26.0</ele><time>2026-04-19T16:36:30.754Z</time></trkpt><trkpt lat="41.8610311" lon="12.4686924"><ele>25.999999999999996</ele><time>2026-04-19T16:36:32.755Z</time></trkpt><trkpt lat="41.861035" lon="12.4688463"><ele>26.0</ele><time>2026-04-19T16:36:34.754Z</time></trkpt><trkpt lat="41.8610518" lon="12.4689544"><ele>26.0</ele><time>2026-04-19T16:36:36.753Z</time></trkpt><trkpt lat="41.8611189" lon="12.4690161"><ele>26.0</ele><time>2026-04-19T16:36:39.755Z</time></trkpt><trkpt lat="41.8611756" lon="12.4691082"><ele>25.999999999999996</ele><time>2026-04-19T16:36:55.754Z</time></trkpt><trkpt lat="41.8611865" lon="12.4691985"><ele>26.0</ele><time>2026-04-19T16:36:56.753Z</time></trkpt><trkpt lat="41.861206" lon="12.4693578"><ele>26.0</ele><time>2026-04-19T16:36:58.755Z</time></trkpt><trkpt lat="41.8612155" lon="12.4694856"><ele>26.0</ele><time>2026-04-19T16:37:00.755Z</time></trkpt><trkpt lat="41.8612408" lon="12.4695893"><ele>26.0</ele><time>2026-04-19T16:37:02.755Z</time></trkpt><trkpt lat="41.8612644" lon="12.4696757"><ele>21.0</ele><time>2026-04-19T16:37:04.754Z</time></trkpt><trkpt lat="41.8612738" lon="12.4697875"><ele>21.0</ele><time>2026-04-19T16:37:07.755Z</time></trkpt></trkseg></trk></gpx>